<?xml version='1.0' encoding='UTF-8'?><gpx version="1.1" creator="JPX - https://github.com/jenetics/jpx" xmlns="http://www.topografix.com/GPX/1/1"><trk><trkseg><trkpt lat="39.7944277" lon="8.5509568"><ele>7.0</ele><time>2026-05-02T07:34:41.564Z</time></trkpt><trkpt lat="39.7944318" lon="8.5511884"><ele>7.0</ele><time>2026-05-02T07:34:45.562Z</time></trkpt><trkpt lat="39.7944306" lon="8.5512806"><ele>7.0</ele><time>2026-05-02T07:34:46.562Z</time></trkpt><trkpt lat="39.7944357" lon="8.5514536"><ele>7.0</ele><time>2026-05-02T07:34:48.564Z</time></trkpt><trkpt lat="39.7944338" lon="8.5515512"><ele>7.000000000000001</ele><time>2026-05-02T07:34:49.563Z</time></trkpt><trkpt lat="39.7944361" lon="8.5516492"><ele>7.0</ele><time>2026-05-02T07:34:50.562Z</time></trkpt><trkpt lat="39.794439" lon="8.5517525"><ele>7.0</ele><time>2026-05-02T07:34:51.563Z</time></trkpt><trkpt lat="39.7944356" lon="8.5518617"><ele>7.0</ele><time>2026-05-02T07:34:52.562Z</time></trkpt><trkpt lat="39.7944338" lon="8.5519745"><ele>7.000000000000001</ele><time>2026-05-02T07:34:53.563Z</time></trkpt><trkpt lat="39.7944348" lon="8.5520983"><ele>7.0</ele><time>2026-05-02T07:34:54.562Z</time></trkpt><trkpt lat="39.7944321" lon="8.5522209"><ele>7.000000000000001</ele><time>2026-05-02T07:34:55.563Z</time></trkpt><trkpt lat="39.7944289" lon="8.5523361"><ele>7.0</ele><time>2026-05-02T07:34:56.564Z</time></trkpt><trkpt lat="39.7944288" lon="8.5524482"><ele>7.0</ele><time>2026-05-02T07:34:57.563Z</time></trkpt><trkpt lat="39.7944264" lon="8.5525614"><ele>7.0</ele><time>2026-05-02T07:34:58.563Z</time></trkpt><trkpt lat="39.7944291" lon="8.5526798"><ele>7.000000000000001</ele><time>2026-05-02T07:34:59.562Z</time></trkpt><trkpt lat="39.7944334" lon="8.5527935"><ele>7.0</ele><time>2026-05-02T07:35:00.563Z</time></trkpt><trkpt lat="39.7944336" lon="8.5529042"><ele>6.333333333333334</ele><time>2026-05-02T07:35:01.562Z</time></trkpt><trkpt lat="39.79443" lon="8.5530167"><ele>5.666666666666667</ele><time>2026-05-02T07:35:02.562Z</time></trkpt><trkpt lat="39.7944286" lon="8.553134"><ele>5.0</ele><time>2026-05-02T07:35:03.562Z</time></trkpt><trkpt lat="39.7944326" lon="8.5532464"><ele>4.333333333333334</ele><time>2026-05-02T07:35:04.562Z</time></trkpt><trkpt lat="39.7944423" lon="8.5533577"><ele>3.666666666666667</ele><time>2026-05-02T07:35:05.562Z</time></trkpt><trkpt lat="39.7944458" lon="8.5534745"><ele>3.0</ele><time>2026-05-02T07:35:06.563Z</time></trkpt><trkpt lat="39.7944444" lon="8.5535898"><ele>3.0</ele><time>2026-05-02T07:35:07.562Z</time></trkpt><trkpt lat="39.7944444" lon="8.5537035"><ele>3.0</ele><time>2026-05-02T07:35:08.563Z</time></trkpt><trkpt lat="39.7944455" lon="8.5538231"><ele>3.0</ele><time>2026-05-02T07:35:09.562Z</time></trkpt><trkpt lat="39.7944452" lon="8.5539434"><ele>3.0</ele><time>2026-05-02T07:35:10.562Z</time></trkpt><trkpt lat="39.7944427" lon="8.5540665"><ele>3.0</ele><time>2026-05-02T07:35:11.564Z</time></trkpt><trkpt lat="39.7944397" lon="8.5541965"><ele>3.0</ele><time>2026-05-02T07:35:12.564Z</time></trkpt><trkpt lat="39.7944432" lon="8.5543413"><ele>3.0</ele><time>2026-05-02T07:35:13.564Z</time></trkpt><trkpt lat="39.7944399" lon="8.554485"><ele>3.0</ele><time>2026-05-02T07:35:14.564Z</time></trkpt><trkpt lat="39.7944402" lon="8.5546277"><ele>3.0</ele><time>2026-05-02T07:35:15.563Z</time></trkpt><trkpt lat="39.79444" lon="8.5547692"><ele>3.0</ele><time>2026-05-02T07:35:16.562Z</time></trkpt><trkpt lat="39.7944429" lon="8.5549134"><ele>3.25</ele><time>2026-05-02T07:35:17.563Z</time></trkpt><trkpt lat="39.794447" lon="8.5550592"><ele>3.5</ele><time>2026-05-02T07:35:18.564Z</time></trkpt><trkpt lat="39.7944479" lon="8.5552056"><ele>3.75</ele><time>2026-05-02T07:35:19.564Z</time></trkpt><trkpt lat="39.7944485" lon="8.5553578"><ele>4.0</ele><time>2026-05-02T07:35:20.564Z</time></trkpt><trkpt lat="39.7944449" lon="8.5555092"><ele>4.25</ele><time>2026-05-02T07:35:21.564Z</time></trkpt><trkpt lat="39.7944396" lon="8.5556642"><ele>4.5</ele><time>2026-05-02T07:35:22.563Z</time></trkpt><trkpt lat="39.7944414" lon="8.5558142"><ele>4.75</ele><time>2026-05-02T07:35:23.563Z</time></trkpt><trkpt lat="39.7944446" lon="8.5559729"><ele>5.0</ele><time>2026-05-02T07:35:24.564Z</time></trkpt><trkpt lat="39.7944466" lon="8.5561281"><ele>5.0</ele><time>2026-05-02T07:35:25.564Z</time></trkpt><trkpt lat="39.7944363" lon="8.5562779"><ele>5.0</ele><time>2026-05-02T07:35:26.564Z</time></trkpt><trkpt lat="39.7944449" lon="8.5564307"><ele>5.0</ele><time>2026-05-02T07:35:27.562Z</time></trkpt><trkpt lat="39.7944386" lon="8.5565828"><ele>5.0</ele><time>2026-05-02T07:35:28.563Z</time></trkpt><trkpt lat="39.7944496" lon="8.556734"><ele>5.0</ele><time>2026-05-02T07:35:29.564Z</time></trkpt><trkpt lat="39.7944481" lon="8.5568887"><ele>5.0</ele><time>2026-05-02T07:35:30.563Z</time></trkpt><trkpt lat="39.794443" lon="8.5570347"><ele>5.0</ele><time>2026-05-02T07:35:31.562Z</time></trkpt><trkpt lat="39.7944532" lon="8.5571821"><ele>5.0</ele><time>2026-05-02T07:35:32.562Z</time></trkpt><trkpt lat="39.7944416" lon="8.5573278"><ele>5.25</ele><time>2026-05-02T07:35:33.563Z</time></trkpt><trkpt lat="39.7944597" lon="8.5574785"><ele>5.5</ele><time>2026-05-02T07:35:34.562Z</time></trkpt><trkpt lat="39.7944502" lon="8.5576282"><ele>5.75</ele><time>2026-05-02T07:35:35.563Z</time></trkpt><trkpt lat="39.7944548" lon="8.5577786"><ele>6.0</ele><time>2026-05-02T07:35:36.562Z</time></trkpt><trkpt lat="39.7944604" lon="8.5579348"><ele>6.0</ele><time>2026-05-02T07:35:37.563Z</time></trkpt><trkpt lat="39.7944527" lon="8.5580896"><ele>6.0</ele><time>2026-05-02T07:35:38.563Z</time></trkpt><trkpt lat="39.7944663" lon="8.5582409"><ele>6.0</ele><time>2026-05-02T07:35:39.564Z</time></trkpt><trkpt lat="39.7944524" lon="8.5583922"><ele>6.0</ele><time>2026-05-02T07:35:40.562Z</time></trkpt><trkpt lat="39.7944592" lon="8.5585431"><ele>6.0</ele><time>2026-05-02T07:35:41.563Z</time></trkpt><trkpt lat="39.7944537" lon="8.558696"><ele>6.0</ele><time>2026-05-02T07:35:42.562Z</time></trkpt><trkpt lat="39.7944498" lon="8.5588486"><ele>6.0</ele><time>2026-05-02T07:35:43.564Z</time></trkpt><trkpt lat="39.794455" lon="8.5590042"><ele>6.0</ele><time>2026-05-02T07:35:44.562Z</time></trkpt><trkpt lat="39.7944518" lon="8.5591648"><ele>5.75</ele><time>2026-05-02T07:35:45.563Z</time></trkpt><trkpt lat="39.794451" lon="8.5593291"><ele>5.5</ele><time>2026-05-02T07:35:46.564Z</time></trkpt><trkpt lat="39.7944491" lon="8.5594927"><ele>5.25</ele><time>2026-05-02T07:35:47.563Z</time></trkpt><trkpt lat="39.7944462" lon="8.559659"><ele>5.0</ele><time>2026-05-02T07:35:48.562Z</time></trkpt><trkpt lat="39.7944457" lon="8.5598315"><ele>4.75</ele><time>2026-05-02T07:35:49.564Z</time></trkpt><trkpt lat="39.7944459" lon="8.560005"><ele>4.5</ele><time>2026-05-02T07:35:50.563Z</time></trkpt><trkpt lat="39.7944439" lon="8.5601817"><ele>4.25</ele><time>2026-05-02T07:35:51.563Z</time></trkpt><trkpt lat="39.7944429" lon="8.5603596"><ele>4.0</ele><time>2026-05-02T07:35:52.563Z</time></trkpt><trkpt lat="39.7944422" lon="8.5605382"><ele>3.75</ele><time>2026-05-02T07:35:53.563Z</time></trkpt><trkpt lat="39.7944429" lon="8.5607228"><ele>3.5</ele><time>2026-05-02T07:35:54.562Z</time></trkpt><trkpt lat="39.7944419" lon="8.5609023"><ele>3.25</ele><time>2026-05-02T07:35:55.564Z</time></trkpt><trkpt lat="39.794442" lon="8.5610819"><ele>3.0</ele><time>2026-05-02T07:35:56.564Z</time></trkpt><trkpt lat="39.794444" lon="8.5612619"><ele>2.75</ele><time>2026-05-02T07:35:57.564Z</time></trkpt><trkpt lat="39.7944476" lon="8.561445"><ele>2.5</ele><time>2026-05-02T07:35:58.564Z</time></trkpt><trkpt lat="39.7944468" lon="8.5616284"><ele>2.25</ele><time>2026-05-02T07:35:59.564Z</time></trkpt><trkpt lat="39.7944487" lon="8.561815"><ele>2.0</ele><time>2026-05-02T07:36:00.564Z</time></trkpt><trkpt lat="39.7944496" lon="8.5620019"><ele>2.5</ele><time>2026-05-02T07:36:01.563Z</time></trkpt><trkpt lat="39.7944482" lon="8.5621874"><ele>3.0</ele><time>2026-05-02T07:36:02.563Z</time></trkpt><trkpt lat="39.7944489" lon="8.5623771"><ele>3.5</ele><time>2026-05-02T07:36:03.562Z</time></trkpt><trkpt lat="39.7944482" lon="8.562563"><ele>4.0</ele><time>2026-05-02T07:36:04.563Z</time></trkpt><trkpt lat="39.794451" lon="8.5627491"><ele>4.25</ele><time>2026-05-02T07:36:05.562Z</time></trkpt><trkpt lat="39.7944514" lon="8.5629346"><ele>4.5</ele><time>2026-05-02T07:36:06.564Z</time></trkpt><trkpt lat="39.7944543" lon="8.5631241"><ele>4.75</ele><time>2026-05-02T07:36:07.563Z</time></trkpt><trkpt lat="39.7944532" lon="8.5633193"><ele>5.0</ele><time>2026-05-02T07:36:08.564Z</time></trkpt><trkpt lat="39.7944534" lon="8.5635154"><ele>4.666666666666667</ele><time>2026-05-02T07:36:09.564Z</time></trkpt><trkpt lat="39.7944553" lon="8.563716"><ele>4.333333333333333</ele><time>2026-05-02T07:36:10.564Z</time></trkpt><trkpt lat="39.7944564" lon="8.5639156"><ele>4.0</ele><time>2026-05-02T07:36:11.562Z</time></trkpt><trkpt lat="39.794458" lon="8.564115"><ele>4.0</ele><time>2026-05-02T07:36:12.563Z</time></trkpt><trkpt lat="39.7944581" lon="8.5643191"><ele>4.0</ele><time>2026-05-02T07:36:13.563Z</time></trkpt><trkpt lat="39.7944544" lon="8.5645172"><ele>4.0</ele><time>2026-05-02T07:36:14.564Z</time></trkpt><trkpt lat="39.7944549" lon="8.5647164"><ele>4.0</ele><time>2026-05-02T07:36:15.563Z</time></trkpt><trkpt lat="39.794454" lon="8.5649149"><ele>4.0</ele><time>2026-05-02T07:36:16.562Z</time></trkpt><trkpt lat="39.7944524" lon="8.5651191"><ele>4.0</ele><time>2026-05-02T07:36:17.562Z</time></trkpt><trkpt lat="39.7944516" lon="8.5653184"><ele>4.333333333333333</ele><time>2026-05-02T07:36:18.563Z</time></trkpt><trkpt lat="39.7944541" lon="8.5655187"><ele>4.666666666666667</ele><time>2026-05-02T07:36:19.563Z</time></trkpt><trkpt lat="39.7944586" lon="8.5657205"><ele>5.0</ele><time>2026-05-02T07:36:20.562Z</time></trkpt><trkpt lat="39.7944567" lon="8.5659193"><ele>5.0</ele><time>2026-05-02T07:36:21.562Z</time></trkpt><trkpt lat="39.7944579" lon="8.5661249"><ele>5.0</ele><time>2026-05-02T07:36:22.564Z</time></trkpt><trkpt lat="39.7944572" lon="8.5663279"><ele>5.0</ele><time>2026-05-02T07:36:23.563Z</time></trkpt><trkpt lat="39.7944568" lon="8.5665335"><ele>5.0</ele><time>2026-05-02T07:36:24.564Z</time></trkpt><trkpt lat="39.7944538" lon="8.5667365"><ele>5.0</ele><time>2026-05-02T07:36:25.562Z</time></trkpt><trkpt lat="39.7944534" lon="8.5669412"><ele>5.0</ele><time>2026-05-02T07:36:26.563Z</time></trkpt><trkpt lat="39.7944564" lon="8.5671456"><ele>5.333333333333334</ele><time>2026-05-02T07:36:27.563Z</time></trkpt><trkpt lat="39.7944534" lon="8.5673497"><ele>5.666666666666667</ele><time>2026-05-02T07:36:28.562Z</time></trkpt><trkpt lat="39.7944527" lon="8.5675513"><ele>6.0</ele><time>2026-05-02T07:36:29.563Z</time></trkpt><trkpt lat="39.7944547" lon="8.567758"><ele>5.333333333333333</ele><time>2026-05-02T07:36:30.563Z</time></trkpt><trkpt lat="39.794453" lon="8.5679633"><ele>4.666666666666666</ele><time>2026-05-02T07:36:31.563Z</time></trkpt><trkpt lat="39.7944552" lon="8.5681664"><ele>4.0</ele><time>2026-05-02T07:36:32.564Z</time></trkpt><trkpt lat="39.7944562" lon="8.5683687"><ele>4.0</ele><time>2026-05-02T07:36:33.562Z</time></trkpt><trkpt lat="39.7944529" lon="8.5685675"><ele>4.0</ele><time>2026-05-02T07:36:34.563Z</time></trkpt><trkpt lat="39.794453" lon="8.5687705"><ele>4.0</ele><time>2026-05-02T07:36:35.564Z</time></trkpt><trkpt lat="39.794453" lon="8.5689736"><ele>4.0</ele><time>2026-05-02T07:36:36.563Z</time></trkpt><trkpt lat="39.7944525" lon="8.5691756"><ele>4.0</ele><time>2026-05-02T07:36:37.563Z</time></trkpt><trkpt lat="39.7944542" lon="8.5693758"><ele>4.0</ele><time>2026-05-02T07:36:38.563Z</time></trkpt><trkpt lat="39.7944533" lon="8.5695803"><ele>4.333333333333333</ele><time>2026-05-02T07:36:39.563Z</time></trkpt><trkpt lat="39.7944531" lon="8.5697828"><ele>4.666666666666667</ele><time>2026-05-02T07:36:40.562Z</time></trkpt><trkpt lat="39.794452" lon="8.5699864"><ele>5.0</ele><time>2026-05-02T07:36:41.564Z</time></trkpt><trkpt lat="39.7944548" lon="8.5701911"><ele>5.333333333333334</ele><time>2026-05-02T07:36:42.563Z</time></trkpt><trkpt lat="39.7944571" lon="8.5703928"><ele>5.666666666666667</ele><time>2026-05-02T07:36:43.563Z</time></trkpt><trkpt lat="39.7944593" lon="8.5705938"><ele>6.0</ele><time>2026-05-02T07:36:44.562Z</time></trkpt><trkpt lat="39.7944587" lon="8.5707941"><ele>6.0</ele><time>2026-05-02T07:36:45.563Z</time></trkpt><trkpt lat="39.7944577" lon="8.570996"><ele>6.0</ele><time>2026-05-02T07:36:46.563Z</time></trkpt><trkpt lat="39.7944613" lon="8.5711952"><ele>6.0</ele><time>2026-05-02T07:36:47.563Z</time></trkpt><trkpt lat="39.7944635" lon="8.571394"><ele>6.666666666666666</ele><time>2026-05-02T07:36:48.563Z</time></trkpt><trkpt lat="39.7944617" lon="8.571597"><ele>7.333333333333333</ele><time>2026-05-02T07:36:49.563Z</time></trkpt><trkpt lat="39.7944597" lon="8.571799"><ele>8.0</ele><time>2026-05-02T07:36:50.564Z</time></trkpt><trkpt lat="39.7944595" lon="8.5720026"><ele>8.333333333333332</ele><time>2026-05-02T07:36:51.563Z</time></trkpt><trkpt lat="39.7944614" lon="8.5722074"><ele>8.666666666666666</ele><time>2026-05-02T07:36:52.563Z</time></trkpt><trkpt lat="39.7944621" lon="8.5724132"><ele>9.0</ele><time>2026-05-02T07:36:53.563Z</time></trkpt><trkpt lat="39.7944642" lon="8.5726204"><ele>9.0</ele><time>2026-05-02T07:36:54.563Z</time></trkpt><trkpt lat="39.7944643" lon="8.5728243"><ele>9.0</ele><time>2026-05-02T07:36:55.563Z</time></trkpt><trkpt lat="39.7944665" lon="8.5730277"><ele>9.0</ele><time>2026-05-02T07:36:56.563Z</time></trkpt><trkpt lat="39.7944664" lon="8.5732317"><ele>8.666666666666666</ele><time>2026-05-02T07:36:57.563Z</time></trkpt><trkpt lat="39.7944654" lon="8.5734368"><ele>8.333333333333332</ele><time>2026-05-02T07:36:58.562Z</time></trkpt><trkpt lat="39.7944666" lon="8.5736404"><ele>8.0</ele><time>2026-05-02T07:36:59.563Z</time></trkpt><trkpt lat="39.7944646" lon="8.573843"><ele>7.333333333333333</ele><time>2026-05-02T07:37:00.562Z</time></trkpt><trkpt lat="39.7944649" lon="8.5740478"><ele>6.666666666666666</ele><time>2026-05-02T07:37:01.564Z</time></trkpt><trkpt lat="39.7944645" lon="8.574252"><ele>6.0</ele><time>2026-05-02T07:37:02.562Z</time></trkpt><trkpt lat="39.7944646" lon="8.5744524"><ele>6.0</ele><time>2026-05-02T07:37:03.562Z</time></trkpt><trkpt lat="39.7944661" lon="8.5746522"><ele>6.0</ele><time>2026-05-02T07:37:04.563Z</time></trkpt><trkpt lat="39.7944658" lon="8.5748501"><ele>6.0</ele><time>2026-05-02T07:37:05.564Z</time></trkpt><trkpt lat="39.7944679" lon="8.5750479"><ele>6.0</ele><time>2026-05-02T07:37:06.562Z</time></trkpt><trkpt lat="39.7944683" lon="8.5752431"><ele>6.0</ele><time>2026-05-02T07:37:07.562Z</time></trkpt><trkpt lat="39.7944689" lon="8.5754449"><ele>6.0</ele><time>2026-05-02T07:37:08.564Z</time></trkpt><trkpt lat="39.7944688" lon="8.575649"><ele>5.666666666666667</ele><time>2026-05-02T07:37:09.564Z</time></trkpt><trkpt lat="39.7944671" lon="8.5758537"><ele>5.333333333333334</ele><time>2026-05-02T07:37:10.564Z</time></trkpt><trkpt lat="39.7944676" lon="8.57606"><ele>5.0</ele><time>2026-05-02T07:37:11.564Z</time></trkpt><trkpt lat="39.7944714" lon="8.5762616"><ele>5.0</ele><time>2026-05-02T07:37:12.564Z</time></trkpt><trkpt lat="39.7944714" lon="8.5764678"><ele>5.0</ele><time>2026-05-02T07:37:13.563Z</time></trkpt><trkpt lat="39.794472" lon="8.5766706"><ele>5.0</ele><time>2026-05-02T07:37:14.564Z</time></trkpt><trkpt lat="39.7944753" lon="8.5768722"><ele>5.0</ele><time>2026-05-02T07:37:15.562Z</time></trkpt><trkpt lat="39.7944767" lon="8.5770741"><ele>5.0</ele><time>2026-05-02T07:37:16.563Z</time></trkpt><trkpt lat="39.7944772" lon="8.5772779"><ele>5.0</ele><time>2026-05-02T07:37:17.562Z</time></trkpt><trkpt lat="39.7944774" lon="8.5774823"><ele>5.0</ele><time>2026-05-02T07:37:18.563Z</time></trkpt><trkpt lat="39.7944785" lon="8.5776883"><ele>5.0</ele><time>2026-05-02T07:37:19.564Z</time></trkpt><trkpt lat="39.7944793" lon="8.57789"><ele>5.0</ele><time>2026-05-02T07:37:20.564Z</time></trkpt><trkpt lat="39.7944768" lon="8.5780977"><ele>5.666666666666667</ele><time>2026-05-02T07:37:21.563Z</time></trkpt><trkpt lat="39.7944761" lon="8.5783046"><ele>6.333333333333334</ele><time>2026-05-02T07:37:22.562Z</time></trkpt><trkpt lat="39.7944762" lon="8.5785143"><ele>7.0</ele><time>2026-05-02T07:37:23.563Z</time></trkpt><trkpt lat="39.7944789" lon="8.5787216"><ele>7.333333333333334</ele><time>2026-05-02T07:37:24.563Z</time></trkpt><trkpt lat="39.7944827" lon="8.5789385"><ele>7.666666666666666</ele><time>2026-05-02T07:37:25.564Z</time></trkpt><trkpt lat="39.7944829" lon="8.579149"><ele>8.0</ele><time>2026-05-02T07:37:26.563Z</time></trkpt><trkpt lat="39.7944817" lon="8.5793572"><ele>7.666666666666666</ele><time>2026-05-02T07:37:27.562Z</time></trkpt><trkpt lat="39.7944806" lon="8.5795628"><ele>7.333333333333334</ele><time>2026-05-02T07:37:28.563Z</time></trkpt><trkpt lat="39.7944805" lon="8.5797767"><ele>7.0</ele><time>2026-05-02T07:37:29.563Z</time></trkpt><trkpt lat="39.7944809" lon="8.579981"><ele>7.0</ele><time>2026-05-02T07:37:30.564Z</time></trkpt><trkpt lat="39.7944782" lon="8.5801865"><ele>7.0</ele><time>2026-05-02T07:37:31.563Z</time></trkpt><trkpt lat="39.7944798" lon="8.5803955"><ele>7.0</ele><time>2026-05-02T07:37:32.562Z</time></trkpt><trkpt lat="39.7944815" lon="8.580602"><ele>7.666666666666667</ele><time>2026-05-02T07:37:33.563Z</time></trkpt><trkpt lat="39.7944769" lon="8.5808076"><ele>8.333333333333334</ele><time>2026-05-02T07:37:34.562Z</time></trkpt><trkpt lat="39.7944756" lon="8.5810195"><ele>9.0</ele><time>2026-05-02T07:37:35.563Z</time></trkpt><trkpt lat="39.7944759" lon="8.5812262"><ele>9.0</ele><time>2026-05-02T07:37:36.563Z</time></trkpt><trkpt lat="39.7944793" lon="8.5814329"><ele>9.0</ele><time>2026-05-02T07:37:37.563Z</time></trkpt><trkpt lat="39.7944837" lon="8.5816246"><ele>9.0</ele><time>2026-05-02T07:37:38.563Z</time></trkpt><trkpt lat="39.7944829" lon="8.5817981"><ele>9.0</ele><time>2026-05-02T07:37:39.563Z</time></trkpt><trkpt lat="39.7944864" lon="8.5819404"><ele>9.833333333333334</ele><time>2026-05-02T07:37:40.564Z</time></trkpt><trkpt lat="39.7944863" lon="8.5820511"><ele>10.666666666666668</ele><time>2026-05-02T07:37:41.564Z</time></trkpt><trkpt lat="39.7944857" lon="8.5821704"><ele>11.5</ele><time>2026-05-02T07:37:43.562Z</time></trkpt><trkpt lat="39.79455" lon="8.5822893"><ele>12.333333333333334</ele><time>2026-05-02T07:37:50.562Z</time></trkpt><trkpt lat="39.7946159" lon="8.5822823"><ele>13.166666666666668</ele><time>2026-05-02T07:37:51.561Z</time></trkpt><trkpt lat="39.7946919" lon="8.5822758"><ele>14.0</ele><time>2026-05-02T07:37:52.563Z</time></trkpt><trkpt lat="39.7947741" lon="8.582275"><ele>14.0</ele><time>2026-05-02T07:37:53.562Z</time></trkpt><trkpt lat="39.7948676" lon="8.582278"><ele>13.999999999999998</ele><time>2026-05-02T07:37:54.561Z</time></trkpt><trkpt lat="39.7949603" lon="8.5822752"><ele>13.999999999999998</ele><time>2026-05-02T07:37:55.561Z</time></trkpt><trkpt lat="39.7950613" lon="8.5822737"><ele>14.0</ele><time>2026-05-02T07:37:56.562Z</time></trkpt><trkpt lat="39.7951683" lon="8.5822718"><ele>14.0</ele><time>2026-05-02T07:37:57.563Z</time></trkpt><trkpt lat="39.7952795" lon="8.5822715"><ele>14.0</ele><time>2026-05-02T07:37:58.561Z</time></trkpt><trkpt lat="39.795392" lon="8.5822694"><ele>14.0</ele><time>2026-05-02T07:37:59.562Z</time></trkpt><trkpt lat="39.7955035" lon="8.5822689"><ele>14.0</ele><time>2026-05-02T07:38:00.563Z</time></trkpt><trkpt lat="39.7956183" lon="8.5822652"><ele>14.0</ele><time>2026-05-02T07:38:01.562Z</time></trkpt><trkpt lat="39.7957363" lon="8.5822645"><ele>14.0</ele><time>2026-05-02T07:38:02.563Z</time></trkpt><trkpt lat="39.7958531" lon="8.5822636"><ele>14.0</ele><time>2026-05-02T07:38:03.563Z</time></trkpt><trkpt lat="39.7959705" lon="8.5822686"><ele>14.0</ele><time>2026-05-02T07:38:04.563Z</time></trkpt><trkpt lat="39.7960934" lon="8.5822693"><ele>14.0</ele><time>2026-05-02T07:38:05.561Z</time></trkpt><trkpt lat="39.7962229" lon="8.5822656"><ele>13.0</ele><time>2026-05-02T07:38:06.562Z</time></trkpt><trkpt lat="39.7963548" lon="8.5822644"><ele>12.0</ele><time>2026-05-02T07:38:07.562Z</time></trkpt><trkpt lat="39.7964857" lon="8.5822635"><ele>11.0</ele><time>2026-05-02T07:38:08.561Z</time></trkpt><trkpt lat="39.7966193" lon="8.5822653"><ele>10.0</ele><time>2026-05-02T07:38:09.561Z</time></trkpt><trkpt lat="39.7967523" lon="8.5822653"><ele>9.75</ele><time>2026-05-02T07:38:10.563Z</time></trkpt><trkpt lat="39.7968879" lon="8.5822602"><ele>9.5</ele><time>2026-05-02T07:38:11.561Z</time></trkpt><trkpt lat="39.7970237" lon="8.5822612"><ele>9.25</ele><time>2026-05-02T07:38:12.562Z</time></trkpt><trkpt lat="39.7971615" lon="8.5822624"><ele>9.0</ele><time>2026-05-02T07:38:13.562Z</time></trkpt><trkpt lat="39.7973021" lon="8.5822632"><ele>9.0</ele><time>2026-05-02T07:38:14.561Z</time></trkpt><trkpt lat="39.7974478" lon="8.582259"><ele>9.0</ele><time>2026-05-02T07:38:15.562Z</time></trkpt><trkpt lat="39.7975919" lon="8.5822569"><ele>9.0</ele><time>2026-05-02T07:38:16.561Z</time></trkpt><trkpt lat="39.7977374" lon="8.5822555"><ele>9.0</ele><time>2026-05-02T07:38:17.563Z</time></trkpt><trkpt lat="39.7978839" lon="8.5822583"><ele>8.25</ele><time>2026-05-02T07:38:18.562Z</time></trkpt><trkpt lat="39.7980327" lon="8.5822575"><ele>7.5</ele><time>2026-05-02T07:38:19.562Z</time></trkpt><trkpt lat="39.7981782" lon="8.5822551"><ele>6.75</ele><time>2026-05-02T07:38:20.562Z</time></trkpt><trkpt lat="39.7983255" lon="8.5822563"><ele>6.0</ele><time>2026-05-02T07:38:21.561Z</time></trkpt><trkpt lat="39.7984709" lon="8.5822599"><ele>5.5</ele><time>2026-05-02T07:38:22.561Z</time></trkpt><trkpt lat="39.7986196" lon="8.5822567"><ele>5.0</ele><time>2026-05-02T07:38:23.562Z</time></trkpt><trkpt lat="39.7987681" lon="8.582254"><ele>4.5</ele><time>2026-05-02T07:38:24.561Z</time></trkpt><trkpt lat="39.7989124" lon="8.5822499"><ele>4.0</ele><time>2026-05-02T07:38:25.563Z</time></trkpt><trkpt lat="39.7990571" lon="8.5822498"><ele>4.0</ele><time>2026-05-02T07:38:26.561Z</time></trkpt><trkpt lat="39.7992014" lon="8.5822473"><ele>4.0</ele><time>2026-05-02T07:38:27.562Z</time></trkpt><trkpt lat="39.7993476" lon="8.5822454"><ele>4.0</ele><time>2026-05-02T07:38:28.563Z</time></trkpt><trkpt lat="39.7994927" lon="8.5822452"><ele>4.0</ele><time>2026-05-02T07:38:29.562Z</time></trkpt><trkpt lat="39.7996378" lon="8.5822449"><ele>4.25</ele><time>2026-05-02T07:38:30.562Z</time></trkpt><trkpt lat="39.7997834" lon="8.5822482"><ele>4.5</ele><time>2026-05-02T07:38:31.562Z</time></trkpt><trkpt lat="39.7999306" lon="8.5822465"><ele>4.75</ele><time>2026-05-02T07:38:32.563Z</time></trkpt><trkpt lat="39.8000776" lon="8.5822412"><ele>5.0</ele><time>2026-05-02T07:38:33.562Z</time></trkpt><trkpt lat="39.8002213" lon="8.5822358"><ele>5.0</ele><time>2026-05-02T07:38:34.561Z</time></trkpt><trkpt lat="39.8003638" lon="8.5822347"><ele>5.0</ele><time>2026-05-02T07:38:35.563Z</time></trkpt><trkpt lat="39.8005055" lon="8.5822328"><ele>5.0</ele><time>2026-05-02T07:38:36.562Z</time></trkpt><trkpt lat="39.8006458" lon="8.5822374"><ele>5.0</ele><time>2026-05-02T07:38:37.561Z</time></trkpt><trkpt lat="39.8007877" lon="8.582235"><ele>5.0</ele><time>2026-05-02T07:38:38.562Z</time></trkpt><trkpt lat="39.8009203" lon="8.5822373"><ele>5.0</ele><time>2026-05-02T07:38:39.562Z</time></trkpt><trkpt lat="39.8010547" lon="8.5822385"><ele>5.0</ele><time>2026-05-02T07:38:40.561Z</time></trkpt><trkpt lat="39.8011858" lon="8.5822371"><ele>5.0</ele><time>2026-05-02T07:38:41.562Z</time></trkpt><trkpt lat="39.8013124" lon="8.5822332"><ele>5.0</ele><time>2026-05-02T07:38:42.562Z</time></trkpt><trkpt lat="39.8014253" lon="8.5822281"><ele>5.0</ele><time>2026-05-02T07:38:43.562Z</time></trkpt><trkpt lat="39.8015238" lon="8.5822284"><ele>5.0</ele><time>2026-05-02T07:38:44.562Z</time></trkpt><trkpt lat="39.8016104" lon="8.5822284"><ele>5.0</ele><time>2026-05-02T07:38:45.562Z</time></trkpt><trkpt lat="39.8016849" lon="8.5822281"><ele>5.0</ele><time>2026-05-02T07:38:46.562Z</time></trkpt><trkpt lat="39.8017497" lon="8.5822286"><ele>5.0</ele><time>2026-05-02T07:38:47.563Z</time></trkpt><trkpt lat="39.8018555" lon="8.5822325"><ele>5.0</ele><time>2026-05-02T07:38:49.562Z</time></trkpt><trkpt lat="39.801924" lon="8.5822283"><ele>5.0</ele><time>2026-05-02T07:38:50.562Z</time></trkpt><trkpt lat="39.802012" lon="8.5822275"><ele>5.0</ele><time>2026-05-02T07:38:51.561Z</time></trkpt><trkpt lat="39.802111" lon="8.582227"><ele>5.0</ele><time>2026-05-02T07:38:52.562Z</time></trkpt><trkpt lat="39.8022204" lon="8.5822207"><ele>5.0</ele><time>2026-05-02T07:38:53.562Z</time></trkpt><trkpt lat="39.8023369" lon="8.5822163"><ele>5.0</ele><time>2026-05-02T07:38:54.562Z</time></trkpt><trkpt lat="39.8024603" lon="8.5822159"><ele>5.0</ele><time>2026-05-02T07:38:55.563Z</time></trkpt><trkpt lat="39.8025883" lon="8.5822142"><ele>5.0</ele><time>2026-05-02T07:38:56.562Z</time></trkpt><trkpt lat="39.8027204" lon="8.5822155"><ele>5.0</ele><time>2026-05-02T07:38:57.563Z</time></trkpt><trkpt lat="39.8028591" lon="8.5822135"><ele>4.75</ele><time>2026-05-02T07:38:58.562Z</time></trkpt><trkpt lat="39.8029966" lon="8.5822171"><ele>4.5</ele><time>2026-05-02T07:38:59.561Z</time></trkpt><trkpt lat="39.8031393" lon="8.5822155"><ele>4.25</ele><time>2026-05-02T07:39:00.562Z</time></trkpt><trkpt lat="39.8032827" lon="8.5822159"><ele>4.0</ele><time>2026-05-02T07:39:01.562Z</time></trkpt><trkpt lat="39.8034293" lon="8.5822135"><ele>4.0</ele><time>2026-05-02T07:39:02.562Z</time></trkpt><trkpt lat="39.8035772" lon="8.5822142"><ele>4.0</ele><time>2026-05-02T07:39:03.561Z</time></trkpt><trkpt lat="39.8037285" lon="8.5822125"><ele>4.0</ele><time>2026-05-02T07:39:04.563Z</time></trkpt><trkpt lat="39.8038802" lon="8.5822129"><ele>4.0</ele><time>2026-05-02T07:39:05.563Z</time></trkpt><trkpt lat="39.8040348" lon="8.5822108"><ele>4.0</ele><time>2026-05-02T07:39:06.562Z</time></trkpt><trkpt lat="39.8041923" lon="8.5822129"><ele>4.0</ele><time>2026-05-02T07:39:07.562Z</time></trkpt><trkpt lat="39.8043505" lon="8.5822172"><ele>5.0</ele><time>2026-05-02T07:39:08.562Z</time></trkpt><trkpt lat="39.804508" lon="8.5822144"><ele>6.0</ele><time>2026-05-02T07:39:09.562Z</time></trkpt><trkpt lat="39.804669" lon="8.5822103"><ele>7.0</ele><time>2026-05-02T07:39:10.561Z</time></trkpt><trkpt lat="39.8048344" lon="8.5822077"><ele>7.0</ele><time>2026-05-02T07:39:11.562Z</time></trkpt><trkpt lat="39.8049977" lon="8.5822061"><ele>7.0</ele><time>2026-05-02T07:39:12.562Z</time></trkpt><trkpt lat="39.805159" lon="8.5822008"><ele>7.0</ele><time>2026-05-02T07:39:13.563Z</time></trkpt><trkpt lat="39.805323" lon="8.5822025"><ele>7.0</ele><time>2026-05-02T07:39:14.561Z</time></trkpt><trkpt lat="39.8054822" lon="8.5822062"><ele>7.0</ele><time>2026-05-02T07:39:15.562Z</time></trkpt><trkpt lat="39.8056463" lon="8.5822079"><ele>7.0</ele><time>2026-05-02T07:39:16.561Z</time></trkpt><trkpt lat="39.8058136" lon="8.5822109"><ele>7.0</ele><time>2026-05-02T07:39:17.563Z</time></trkpt><trkpt lat="39.8059821" lon="8.5822116"><ele>7.0</ele><time>2026-05-02T07:39:18.562Z</time></trkpt><trkpt lat="39.8061529" lon="8.5822105"><ele>7.0</ele><time>2026-05-02T07:39:19.562Z</time></trkpt><trkpt lat="39.806324" lon="8.5822112"><ele>7.0</ele><time>2026-05-02T07:39:20.562Z</time></trkpt><trkpt lat="39.8064965" lon="8.5822092"><ele>7.0</ele><time>2026-05-02T07:39:21.561Z</time></trkpt><trkpt lat="39.8066634" lon="8.582211"><ele>7.0</ele><time>2026-05-02T07:39:22.561Z</time></trkpt><trkpt lat="39.8068373" lon="8.5822075"><ele>6.0</ele><time>2026-05-02T07:39:23.562Z</time></trkpt><trkpt lat="39.8070111" lon="8.5822078"><ele>5.0</ele><time>2026-05-02T07:39:24.563Z</time></trkpt><trkpt lat="39.8071857" lon="8.5822055"><ele>4.0</ele><time>2026-05-02T07:39:25.562Z</time></trkpt><trkpt lat="39.807359" lon="8.5822078"><ele>4.0</ele><time>2026-05-02T07:39:26.563Z</time></trkpt><trkpt lat="39.8075324" lon="8.5822114"><ele>4.0</ele><time>2026-05-02T07:39:27.561Z</time></trkpt><trkpt lat="39.8077078" lon="8.5822079"><ele>4.0</ele><time>2026-05-02T07:39:28.561Z</time></trkpt><trkpt lat="39.8078815" lon="8.582212"><ele>4.333333333333333</ele><time>2026-05-02T07:39:29.562Z</time></trkpt><trkpt lat="39.8080578" lon="8.5822096"><ele>4.666666666666667</ele><time>2026-05-02T07:39:30.562Z</time></trkpt><trkpt lat="39.8082362" lon="8.5822034"><ele>5.0</ele><time>2026-05-02T07:39:31.561Z</time></trkpt><trkpt lat="39.8084148" lon="8.5822033"><ele>4.666666666666667</ele><time>2026-05-02T07:39:32.562Z</time></trkpt><trkpt lat="39.8085945" lon="8.5822046"><ele>4.333333333333333</ele><time>2026-05-02T07:39:33.562Z</time></trkpt><trkpt lat="39.8087693" lon="8.5822056"><ele>4.0</ele><time>2026-05-02T07:39:34.562Z</time></trkpt><trkpt lat="39.8089451" lon="8.5822066"><ele>4.0</ele><time>2026-05-02T07:39:35.563Z</time></trkpt><trkpt lat="39.8091196" lon="8.5822063"><ele>4.0</ele><time>2026-05-02T07:39:36.563Z</time></trkpt><trkpt lat="39.8092877" lon="8.5822042"><ele>4.0</ele><time>2026-05-02T07:39:37.563Z</time></trkpt><trkpt lat="39.8094431" lon="8.582199"><ele>4.0</ele><time>2026-05-02T07:39:38.562Z</time></trkpt><trkpt lat="39.809584" lon="8.5821989"><ele>4.0</ele><time>2026-05-02T07:39:39.561Z</time></trkpt><trkpt lat="39.8097113" lon="8.5821913"><ele>4.0</ele><time>2026-05-02T07:39:40.562Z</time></trkpt><trkpt lat="39.8098407" lon="8.5821618"><ele>4.0</ele><time>2026-05-02T07:39:41.563Z</time></trkpt><trkpt lat="39.8099718" lon="8.5820989"><ele>4.0</ele><time>2026-05-02T07:39:42.562Z</time></trkpt><trkpt lat="39.8100989" lon="8.5820025"><ele>4.0</ele><time>2026-05-02T07:39:43.562Z</time></trkpt><trkpt lat="39.8102191" lon="8.5818855"><ele>4.0</ele><time>2026-05-02T07:39:44.562Z</time></trkpt><trkpt lat="39.8103437" lon="8.5817619"><ele>4.0</ele><time>2026-05-02T07:39:45.563Z</time></trkpt><trkpt lat="39.8104709" lon="8.5816351"><ele>4.0</ele><time>2026-05-02T07:39:46.562Z</time></trkpt><trkpt lat="39.8105995" lon="8.5815111"><ele>4.0</ele><time>2026-05-02T07:39:47.563Z</time></trkpt><trkpt lat="39.8107261" lon="8.5813851"><ele>4.0</ele><time>2026-05-02T07:39:48.562Z</time></trkpt><trkpt lat="39.8108551" lon="8.5812537"><ele>4.0</ele><time>2026-05-02T07:39:49.562Z</time></trkpt><trkpt lat="39.8109856" lon="8.5811232"><ele>4.0</ele><time>2026-05-02T07:39:50.561Z</time></trkpt><trkpt lat="39.8111217" lon="8.5809959"><ele>3.0</ele><time>2026-05-02T07:39:51.562Z</time></trkpt><trkpt lat="39.8112619" lon="8.5808716"><ele>2.0</ele><time>2026-05-02T07:39:52.562Z</time></trkpt><trkpt lat="39.8114036" lon="8.5807407"><ele>1.0</ele><time>2026-05-02T07:39:53.561Z</time></trkpt><trkpt lat="39.8115477" lon="8.5806151"><ele>1.0</ele><time>2026-05-02T07:39:54.562Z</time></trkpt><trkpt lat="39.8116908" lon="8.5804863"><ele>1.0</ele><time>2026-05-02T07:39:55.562Z</time></trkpt><trkpt lat="39.8118337" lon="8.5803608"><ele>1.0</ele><time>2026-05-02T07:39:56.562Z</time></trkpt><trkpt lat="39.8119797" lon="8.5802412"><ele>1.3333333333333333</ele><time>2026-05-02T07:39:57.563Z</time></trkpt><trkpt lat="39.8121226" lon="8.5801146"><ele>1.6666666666666665</ele><time>2026-05-02T07:39:58.562Z</time></trkpt><trkpt lat="39.8122662" lon="8.5799862"><ele>2.0</ele><time>2026-05-02T07:39:59.562Z</time></trkpt><trkpt lat="39.8124117" lon="8.5798557"><ele>2.0</ele><time>2026-05-02T07:40:00.563Z</time></trkpt><trkpt lat="39.8125554" lon="8.5797283"><ele>2.0</ele><time>2026-05-02T07:40:01.562Z</time></trkpt><trkpt lat="39.8127014" lon="8.5795993"><ele>2.0</ele><time>2026-05-02T07:40:02.563Z</time></trkpt><trkpt lat="39.8128425" lon="8.5794572"><ele>1.6666666666666665</ele><time>2026-05-02T07:40:03.562Z</time></trkpt><trkpt lat="39.8129767" lon="8.5793048"><ele>1.3333333333333333</ele><time>2026-05-02T07:40:04.563Z</time></trkpt><trkpt lat="39.8131067" lon="8.5791449"><ele>1.0</ele><time>2026-05-02T07:40:05.561Z</time></trkpt><trkpt lat="39.8132375" lon="8.5789814"><ele>1.0</ele><time>2026-05-02T07:40:06.562Z</time></trkpt><trkpt lat="39.8133665" lon="8.5788228"><ele>1.0</ele><time>2026-05-02T07:40:07.562Z</time></trkpt><trkpt lat="39.8134927" lon="8.578664"><ele>1.0</ele><time>2026-05-02T07:40:08.562Z</time></trkpt><trkpt lat="39.8136225" lon="8.5785047"><ele>1.0</ele><time>2026-05-02T07:40:09.562Z</time></trkpt><trkpt lat="39.8137418" lon="8.5783419"><ele>1.0</ele><time>2026-05-02T07:40:10.562Z</time></trkpt><trkpt lat="39.8138549" lon="8.5781695"><ele>1.0</ele><time>2026-05-02T07:40:11.563Z</time></trkpt><trkpt lat="39.8139641" lon="8.5779864"><ele>1.6666666666666665</ele><time>2026-05-02T07:40:12.561Z</time></trkpt><trkpt lat="39.8140698" lon="8.5777923"><ele>2.3333333333333335</ele><time>2026-05-02T07:40:13.561Z</time></trkpt><trkpt lat="39.8141646" lon="8.577595"><ele>3.0</ele><time>2026-05-02T07:40:14.561Z</time></trkpt><trkpt lat="39.8142565" lon="8.5773926"><ele>3.0</ele><time>2026-05-02T07:40:15.563Z</time></trkpt><trkpt lat="39.8143501" lon="8.5771876"><ele>3.0</ele><time>2026-05-02T07:40:16.563Z</time></trkpt><trkpt lat="39.8144472" lon="8.5769862"><ele>3.0</ele><time>2026-05-02T07:40:17.562Z</time></trkpt><trkpt lat="39.8145454" lon="8.5767852"><ele>3.0</ele><time>2026-05-02T07:40:18.562Z</time></trkpt><trkpt lat="39.8146445" lon="8.5765832"><ele>3.0</ele><time>2026-05-02T07:40:19.563Z</time></trkpt><trkpt lat="39.8147366" lon="8.5763851"><ele>3.0</ele><time>2026-05-02T07:40:20.563Z</time></trkpt><trkpt lat="39.8148283" lon="8.5761862"><ele>3.333333333333333</ele><time>2026-05-02T07:40:21.561Z</time></trkpt><trkpt lat="39.8149222" lon="8.5759858"><ele>3.6666666666666665</ele><time>2026-05-02T07:40:22.562Z</time></trkpt><trkpt lat="39.8150103" lon="8.575783"><ele>4.0</ele><time>2026-05-02T07:40:23.563Z</time></trkpt><trkpt lat="39.8150982" lon="8.5755798"><ele>3.0</ele><time>2026-05-02T07:40:24.562Z</time></trkpt><trkpt lat="39.8151845" lon="8.5753777"><ele>2.0</ele><time>2026-05-02T07:40:25.562Z</time></trkpt><trkpt lat="39.8152689" lon="8.5751733"><ele>1.0</ele><time>2026-05-02T07:40:26.563Z</time></trkpt><trkpt lat="39.8153574" lon="8.5749687"><ele>1.0</ele><time>2026-05-02T07:40:27.562Z</time></trkpt><trkpt lat="39.8154427" lon="8.5747652"><ele>1.0</ele><time>2026-05-02T07:40:28.562Z</time></trkpt><trkpt lat="39.8155283" lon="8.5745588"><ele>1.0</ele><time>2026-05-02T07:40:29.562Z</time></trkpt><trkpt lat="39.8156162" lon="8.5743532"><ele>1.6666666666666665</ele><time>2026-05-02T07:40:30.562Z</time></trkpt><trkpt lat="39.8157033" lon="8.5741519"><ele>2.3333333333333335</ele><time>2026-05-02T07:40:31.563Z</time></trkpt><trkpt lat="39.8158088" lon="8.5739707"><ele>3.0</ele><time>2026-05-02T07:40:32.562Z</time></trkpt><trkpt lat="39.8159313" lon="8.5738132"><ele>3.333333333333333</ele><time>2026-05-02T07:40:33.561Z</time></trkpt><trkpt lat="39.8160638" lon="8.5736915"><ele>3.6666666666666665</ele><time>2026-05-02T07:40:34.563Z</time></trkpt><trkpt lat="39.8162139" lon="8.5736036"><ele>4.0</ele><time>2026-05-02T07:40:35.563Z</time></trkpt><trkpt lat="39.8163754" lon="8.5735486"><ele>3.333333333333333</ele><time>2026-05-02T07:40:36.561Z</time></trkpt><trkpt lat="39.8165373" lon="8.5735301"><ele>2.6666666666666665</ele><time>2026-05-02T07:40:37.563Z</time></trkpt><trkpt lat="39.8167075" lon="8.5735498"><ele>2.0</ele><time>2026-05-02T07:40:38.562Z</time></trkpt><trkpt lat="39.8168741" lon="8.5736119"><ele>2.0</ele><time>2026-05-02T07:40:39.561Z</time></trkpt><trkpt lat="39.8170397" lon="8.5736868"><ele>2.0</ele><time>2026-05-02T07:40:40.561Z</time></trkpt><trkpt lat="39.8172071" lon="8.5737736"><ele>2.0</ele><time>2026-05-02T07:40:41.563Z</time></trkpt><trkpt lat="39.8173761" lon="8.5738539"><ele>2.0</ele><time>2026-05-02T07:40:42.563Z</time></trkpt><trkpt lat="39.8175441" lon="8.5739377"><ele>2.0</ele><time>2026-05-02T07:40:43.562Z</time></trkpt><trkpt lat="39.8177122" lon="8.5740216"><ele>2.0</ele><time>2026-05-02T07:40:44.563Z</time></trkpt><trkpt lat="39.817882" lon="8.5740917"><ele>1.6666666666666665</ele><time>2026-05-02T07:40:45.561Z</time></trkpt><trkpt lat="39.8180562" lon="8.5741535"><ele>1.3333333333333333</ele><time>2026-05-02T07:40:46.561Z</time></trkpt><trkpt lat="39.8182321" lon="8.5742037"><ele>1.0</ele><time>2026-05-02T07:40:47.561Z</time></trkpt><trkpt lat="39.8184093" lon="8.5742425"><ele>1.0</ele><time>2026-05-02T07:40:48.562Z</time></trkpt><trkpt lat="39.8185868" lon="8.574279"><ele>1.0</ele><time>2026-05-02T07:40:49.562Z</time></trkpt><trkpt lat="39.8187649" lon="8.5743154"><ele>1.0</ele><time>2026-05-02T07:40:50.562Z</time></trkpt><trkpt lat="39.8189418" lon="8.574352"><ele>1.0</ele><time>2026-05-02T07:40:51.563Z</time></trkpt><trkpt lat="39.8191187" lon="8.5743939"><ele>1.0</ele><time>2026-05-02T07:40:52.562Z</time></trkpt><trkpt lat="39.819293" lon="8.5744483"><ele>1.0</ele><time>2026-05-02T07:40:53.562Z</time></trkpt><trkpt lat="39.8194596" lon="8.5745331"><ele>0.3333333333333333</ele><time>2026-05-02T07:40:54.562Z</time></trkpt><trkpt lat="39.8196072" lon="8.5746702"><ele>-0.3333333333333333</ele><time>2026-05-02T07:40:55.561Z</time></trkpt><trkpt lat="39.8197419" lon="8.574832"><ele>-1.0</ele><time>2026-05-02T07:40:56.561Z</time></trkpt><trkpt lat="39.8198813" lon="8.5749877"><ele>-1.0</ele><time>2026-05-02T07:40:57.561Z</time></trkpt><trkpt lat="39.8200225" lon="8.5751456"><ele>-1.0</ele><time>2026-05-02T07:40:58.562Z</time></trkpt><trkpt lat="39.8201637" lon="8.5753021"><ele>-1.0</ele><time>2026-05-02T07:40:59.563Z</time></trkpt><trkpt lat="39.8203051" lon="8.5754571"><ele>-0.6666666666666666</ele><time>2026-05-02T07:41:00.561Z</time></trkpt><trkpt lat="39.8204452" lon="8.575616"><ele>-0.3333333333333333</ele><time>2026-05-02T07:41:01.562Z</time></trkpt><trkpt lat="39.8205828" lon="8.5757744"><ele>0.0</ele><time>2026-05-02T07:41:02.562Z</time></trkpt><trkpt lat="39.8207193" lon="8.5759313"><ele>0.0</ele><time>2026-05-02T07:41:03.561Z</time></trkpt><trkpt lat="39.8208545" lon="8.5760835"><ele>0.0</ele><time>2026-05-02T07:41:04.561Z</time></trkpt><trkpt lat="39.8209909" lon="8.5762364"><ele>0.0</ele><time>2026-05-02T07:41:05.562Z</time></trkpt><trkpt lat="39.8211242" lon="8.5763916"><ele>0.0</ele><time>2026-05-02T07:41:06.562Z</time></trkpt><trkpt lat="39.8212574" lon="8.576542"><ele>0.0</ele><time>2026-05-02T07:41:07.563Z</time></trkpt><trkpt lat="39.8213933" lon="8.5766885"><ele>0.0</ele><time>2026-05-02T07:41:08.562Z</time></trkpt><trkpt lat="39.8215381" lon="8.5768235"><ele>0.0</ele><time>2026-05-02T07:41:09.562Z</time></trkpt><trkpt lat="39.8216948" lon="8.5769347"><ele>0.0</ele><time>2026-05-02T07:41:10.561Z</time></trkpt><trkpt lat="39.8218644" lon="8.5770165"><ele>0.0</ele><time>2026-05-02T07:41:11.562Z</time></trkpt><trkpt lat="39.8220426" lon="8.5770684"><ele>0.6666666666666666</ele><time>2026-05-02T07:41:12.562Z</time></trkpt><trkpt lat="39.8222236" lon="8.5770856"><ele>1.3333333333333333</ele><time>2026-05-02T07:41:13.561Z</time></trkpt><trkpt lat="39.8224057" lon="8.5770711"><ele>2.0</ele><time>2026-05-02T07:41:14.561Z</time></trkpt><trkpt lat="39.8225883" lon="8.5770405"><ele>1.6666666666666665</ele><time>2026-05-02T07:41:15.561Z</time></trkpt><trkpt lat="39.8227683" lon="8.5770066"><ele>1.3333333333333333</ele><time>2026-05-02T07:41:16.562Z</time></trkpt><trkpt lat="39.8229505" lon="8.5769714"><ele>1.0</ele><time>2026-05-02T07:41:17.563Z</time></trkpt><trkpt lat="39.8231294" lon="8.5769357"><ele>1.0</ele><time>2026-05-02T07:41:18.562Z</time></trkpt><trkpt lat="39.8233048" lon="8.5769109"><ele>1.0</ele><time>2026-05-02T07:41:19.562Z</time></trkpt><trkpt lat="39.8234802" lon="8.5769202"><ele>1.0</ele><time>2026-05-02T07:41:20.561Z</time></trkpt><trkpt lat="39.8236547" lon="8.5769517"><ele>1.0</ele><time>2026-05-02T07:41:21.561Z</time></trkpt><trkpt lat="39.8238245" lon="8.5769996"><ele>1.0</ele><time>2026-05-02T07:41:22.563Z</time></trkpt><trkpt lat="39.823992" lon="8.5770584"><ele>1.0</ele><time>2026-05-02T07:41:23.561Z</time></trkpt><trkpt lat="39.8241567" lon="8.5771204"><ele>2.0</ele><time>2026-05-02T07:41:24.561Z</time></trkpt><trkpt lat="39.8243167" lon="8.5771793"><ele>3.0</ele><time>2026-05-02T07:41:25.563Z</time></trkpt><trkpt lat="39.824469" lon="8.5772361"><ele>4.0</ele><time>2026-05-02T07:41:26.562Z</time></trkpt><trkpt lat="39.8246072" lon="8.5772878"><ele>4.0</ele><time>2026-05-02T07:41:27.563Z</time></trkpt><trkpt lat="39.8247418" lon="8.5773488"><ele>4.0</ele><time>2026-05-02T07:41:28.563Z</time></trkpt><trkpt lat="39.8248728" lon="8.5774276"><ele>4.0</ele><time>2026-05-02T07:41:29.562Z</time></trkpt><trkpt lat="39.8250068" lon="8.5775297"><ele>4.0</ele><time>2026-05-02T07:41:30.561Z</time></trkpt><trkpt lat="39.8251423" lon="8.5776478"><ele>3.6666666666666665</ele><time>2026-05-02T07:41:31.561Z</time></trkpt><trkpt lat="39.8252786" lon="8.5777764"><ele>3.333333333333333</ele><time>2026-05-02T07:41:32.562Z</time></trkpt><trkpt lat="39.8254134" lon="8.5779145"><ele>3.0</ele><time>2026-05-02T07:41:33.562Z</time></trkpt><trkpt lat="39.8255476" lon="8.5780595"><ele>3.666666666666667</ele><time>2026-05-02T07:41:34.562Z</time></trkpt><trkpt lat="39.825681" lon="8.5782155"><ele>4.333333333333334</ele><time>2026-05-02T07:41:35.562Z</time></trkpt><trkpt lat="39.8258154" lon="8.5783724"><ele>5.0</ele><time>2026-05-02T07:41:36.563Z</time></trkpt><trkpt lat="39.8259498" lon="8.578527"><ele>5.0</ele><time>2026-05-02T07:41:37.562Z</time></trkpt><trkpt lat="39.8260842" lon="8.5786769"><ele>5.0</ele><time>2026-05-02T07:41:38.563Z</time></trkpt><trkpt lat="39.8262196" lon="8.5788237"><ele>5.0</ele><time>2026-05-02T07:41:39.562Z</time></trkpt><trkpt lat="39.8263546" lon="8.5789701"><ele>6.0</ele><time>2026-05-02T07:41:40.562Z</time></trkpt><trkpt lat="39.8264955" lon="8.579101"><ele>7.0</ele><time>2026-05-02T07:41:41.563Z</time></trkpt><trkpt lat="39.8266447" lon="8.5792207"><ele>8.0</ele><time>2026-05-02T07:41:42.563Z</time></trkpt><trkpt lat="39.8268002" lon="8.5793251"><ele>7.666666666666666</ele><time>2026-05-02T07:41:43.562Z</time></trkpt><trkpt lat="39.8269605" lon="8.5794183"><ele>7.333333333333334</ele><time>2026-05-02T07:41:44.562Z</time></trkpt><trkpt lat="39.8271241" lon="8.5795087"><ele>7.0</ele><time>2026-05-02T07:41:45.561Z</time></trkpt><trkpt lat="39.8272872" lon="8.5795984"><ele>7.0</ele><time>2026-05-02T07:41:46.562Z</time></trkpt><trkpt lat="39.8274496" lon="8.5796892"><ele>7.0</ele><time>2026-05-02T07:41:47.561Z</time></trkpt><trkpt lat="39.8276118" lon="8.5797771"><ele>7.0</ele><time>2026-05-02T07:41:48.562Z</time></trkpt><trkpt lat="39.8277745" lon="8.5798671"><ele>7.333333333333334</ele><time>2026-05-02T07:41:49.561Z</time></trkpt><trkpt lat="39.8279338" lon="8.5799576"><ele>7.666666666666666</ele><time>2026-05-02T07:41:50.562Z</time></trkpt><trkpt lat="39.8280971" lon="8.5800459"><ele>8.0</ele><time>2026-05-02T07:41:51.563Z</time></trkpt><trkpt lat="39.8282584" lon="8.5801334"><ele>8.0</ele><time>2026-05-02T07:41:52.562Z</time></trkpt><trkpt lat="39.8284247" lon="8.5802228"><ele>8.0</ele><time>2026-05-02T07:41:53.563Z</time></trkpt><trkpt lat="39.8285905" lon="8.5803164"><ele>8.0</ele><time>2026-05-02T07:41:54.562Z</time></trkpt><trkpt lat="39.8287592" lon="8.5804053"><ele>8.333333333333332</ele><time>2026-05-02T07:41:55.562Z</time></trkpt><trkpt lat="39.828928" lon="8.580497"><ele>8.666666666666666</ele><time>2026-05-02T07:41:56.562Z</time></trkpt><trkpt lat="39.8291003" lon="8.5805912"><ele>9.0</ele><time>2026-05-02T07:41:57.563Z</time></trkpt><trkpt lat="39.8292715" lon="8.5806868"><ele>8.333333333333334</ele><time>2026-05-02T07:41:58.562Z</time></trkpt><trkpt lat="39.8294429" lon="8.5807831"><ele>7.666666666666667</ele><time>2026-05-02T07:41:59.561Z</time></trkpt><trkpt lat="39.8296136" lon="8.5808738"><ele>7.0</ele><time>2026-05-02T07:42:00.563Z</time></trkpt><trkpt lat="39.8297864" lon="8.58097"><ele>7.0</ele><time>2026-05-02T07:42:01.563Z</time></trkpt><trkpt lat="39.8299573" lon="8.5810664"><ele>7.0</ele><time>2026-05-02T07:42:02.563Z</time></trkpt><trkpt lat="39.8301288" lon="8.5811609"><ele>7.0</ele><time>2026-05-02T07:42:03.562Z</time></trkpt><trkpt lat="39.8302991" lon="8.5812543"><ele>6.666666666666667</ele><time>2026-05-02T07:42:04.562Z</time></trkpt><trkpt lat="39.8304698" lon="8.5813497"><ele>6.333333333333334</ele><time>2026-05-02T07:42:05.562Z</time></trkpt><trkpt lat="39.8306408" lon="8.5814401"><ele>6.0</ele><time>2026-05-02T07:42:06.563Z</time></trkpt><trkpt lat="39.8308107" lon="8.581537"><ele>6.0</ele><time>2026-05-02T07:42:07.562Z</time></trkpt><trkpt lat="39.8309837" lon="8.5816334"><ele>6.0</ele><time>2026-05-02T07:42:08.562Z</time></trkpt><trkpt lat="39.8311566" lon="8.5817294"><ele>6.0</ele><time>2026-05-02T07:42:09.563Z</time></trkpt><trkpt lat="39.8313307" lon="8.5818287"><ele>6.0</ele><time>2026-05-02T07:42:10.561Z</time></trkpt><trkpt lat="39.8315052" lon="8.5819276"><ele>6.0</ele><time>2026-05-02T07:42:11.562Z</time></trkpt><trkpt lat="39.8316834" lon="8.5820218"><ele>6.0</ele><time>2026-05-02T07:42:12.562Z</time></trkpt><trkpt lat="39.8318587" lon="8.5821207"><ele>5.666666666666667</ele><time>2026-05-02T07:42:13.561Z</time></trkpt><trkpt lat="39.8320323" lon="8.5822159"><ele>5.333333333333334</ele><time>2026-05-02T07:42:14.561Z</time></trkpt><trkpt lat="39.8322065" lon="8.5823147"><ele>5.0</ele><time>2026-05-02T07:42:15.561Z</time></trkpt><trkpt lat="39.83238" lon="8.5824106"><ele>5.0</ele><time>2026-05-02T07:42:16.562Z</time></trkpt><trkpt lat="39.8325505" lon="8.5825031"><ele>5.0</ele><time>2026-05-02T07:42:17.561Z</time></trkpt><trkpt lat="39.8327254" lon="8.5825992"><ele>5.0</ele><time>2026-05-02T07:42:18.563Z</time></trkpt><trkpt lat="39.8328988" lon="8.5826903"><ele>4.666666666666667</ele><time>2026-05-02T07:42:19.562Z</time></trkpt><trkpt lat="39.8330723" lon="8.582787"><ele>4.333333333333333</ele><time>2026-05-02T07:42:20.562Z</time></trkpt><trkpt lat="39.8332464" lon="8.582882"><ele>4.0</ele><time>2026-05-02T07:42:21.562Z</time></trkpt><trkpt lat="39.8334188" lon="8.5829766"><ele>4.333333333333333</ele><time>2026-05-02T07:42:22.561Z</time></trkpt><trkpt lat="39.8335931" lon="8.5830721"><ele>4.666666666666667</ele><time>2026-05-02T07:42:23.562Z</time></trkpt><trkpt lat="39.8337635" lon="8.5831686"><ele>5.0</ele><time>2026-05-02T07:42:24.561Z</time></trkpt><trkpt lat="39.833936" lon="8.5832632"><ele>5.0</ele><time>2026-05-02T07:42:25.562Z</time></trkpt><trkpt lat="39.8341101" lon="8.583358"><ele>5.0</ele><time>2026-05-02T07:42:26.562Z</time></trkpt><trkpt lat="39.8342822" lon="8.5834532"><ele>5.0</ele><time>2026-05-02T07:42:27.562Z</time></trkpt><trkpt lat="39.8344552" lon="8.5835467"><ele>5.0</ele><time>2026-05-02T07:42:28.562Z</time></trkpt><trkpt lat="39.8346273" lon="8.5836428"><ele>5.0</ele><time>2026-05-02T07:42:29.561Z</time></trkpt><trkpt lat="39.8347995" lon="8.5837385"><ele>5.0</ele><time>2026-05-02T07:42:30.562Z</time></trkpt><trkpt lat="39.8349725" lon="8.5838322"><ele>5.333333333333334</ele><time>2026-05-02T07:42:31.562Z</time></trkpt><trkpt lat="39.8351481" lon="8.5839236"><ele>5.666666666666667</ele><time>2026-05-02T07:42:32.562Z</time></trkpt><trkpt lat="39.8353224" lon="8.5840179"><ele>6.0</ele><time>2026-05-02T07:42:33.562Z</time></trkpt><trkpt lat="39.8354937" lon="8.584115"><ele>6.0</ele><time>2026-05-02T07:42:34.562Z</time></trkpt><trkpt lat="39.835666" lon="8.5842106"><ele>6.0</ele><time>2026-05-02T07:42:35.561Z</time></trkpt><trkpt lat="39.835838" lon="8.5843043"><ele>6.0</ele><time>2026-05-02T07:42:36.561Z</time></trkpt><trkpt lat="39.8360111" lon="8.584404"><ele>5.333333333333333</ele><time>2026-05-02T07:42:37.562Z</time></trkpt><trkpt lat="39.8361827" lon="8.5844963"><ele>4.666666666666666</ele><time>2026-05-02T07:42:38.562Z</time></trkpt><trkpt lat="39.8363559" lon="8.5845841"><ele>4.0</ele><time>2026-05-02T07:42:39.562Z</time></trkpt><trkpt lat="39.8365307" lon="8.584667"><ele>4.0</ele><time>2026-05-02T07:42:40.562Z</time></trkpt><trkpt lat="39.8367072" lon="8.5847484"><ele>4.0</ele><time>2026-05-02T07:42:41.563Z</time></trkpt><trkpt lat="39.8368805" lon="8.5848271"><ele>4.0</ele><time>2026-05-02T07:42:42.562Z</time></trkpt><trkpt lat="39.8370561" lon="8.5849088"><ele>4.0</ele><time>2026-05-02T07:42:43.562Z</time></trkpt><trkpt lat="39.8372349" lon="8.5849876"><ele>4.0</ele><time>2026-05-02T07:42:44.561Z</time></trkpt><trkpt lat="39.8374118" lon="8.5850661"><ele>4.0</ele><time>2026-05-02T07:42:45.562Z</time></trkpt><trkpt lat="39.8375907" lon="8.5851508"><ele>3.6666666666666665</ele><time>2026-05-02T07:42:46.561Z</time></trkpt><trkpt lat="39.8377674" lon="8.585227"><ele>3.333333333333333</ele><time>2026-05-02T07:42:47.562Z</time></trkpt><trkpt lat="39.8379463" lon="8.5853068"><ele>3.0</ele><time>2026-05-02T07:42:48.562Z</time></trkpt><trkpt lat="39.8381224" lon="8.5853866"><ele>3.0</ele><time>2026-05-02T07:42:49.561Z</time></trkpt><trkpt lat="39.8383011" lon="8.5854664"><ele>3.0</ele><time>2026-05-02T07:42:50.561Z</time></trkpt><trkpt lat="39.8384781" lon="8.5855462"><ele>3.0</ele><time>2026-05-02T07:42:51.563Z</time></trkpt><trkpt lat="39.838657" lon="8.5856272"><ele>3.333333333333333</ele><time>2026-05-02T07:42:52.562Z</time></trkpt><trkpt lat="39.8388344" lon="8.5857068"><ele>3.6666666666666665</ele><time>2026-05-02T07:42:53.562Z</time></trkpt><trkpt lat="39.8390112" lon="8.5857895"><ele>4.0</ele><time>2026-05-02T07:42:54.563Z</time></trkpt><trkpt lat="39.8391883" lon="8.5858718"><ele>3.6666666666666665</ele><time>2026-05-02T07:42:55.562Z</time></trkpt><trkpt lat="39.8393657" lon="8.5859496"><ele>3.333333333333333</ele><time>2026-05-02T07:42:56.562Z</time></trkpt><trkpt lat="39.839545" lon="8.586031"><ele>3.0</ele><time>2026-05-02T07:42:57.562Z</time></trkpt><trkpt lat="39.8397223" lon="8.5861099"><ele>3.666666666666667</ele><time>2026-05-02T07:42:58.561Z</time></trkpt><trkpt lat="39.8399026" lon="8.5861891"><ele>4.333333333333334</ele><time>2026-05-02T07:42:59.563Z</time></trkpt><trkpt lat="39.8400829" lon="8.586271"><ele>5.0</ele><time>2026-05-02T07:43:00.562Z</time></trkpt><trkpt lat="39.8402608" lon="8.5863524"><ele>5.333333333333334</ele><time>2026-05-02T07:43:01.562Z</time></trkpt><trkpt lat="39.8404393" lon="8.5864335"><ele>5.666666666666667</ele><time>2026-05-02T07:43:02.562Z</time></trkpt><trkpt lat="39.8406193" lon="8.586514"><ele>6.0</ele><time>2026-05-02T07:43:03.561Z</time></trkpt><trkpt lat="39.8407994" lon="8.5865924"><ele>6.0</ele><time>2026-05-02T07:43:04.563Z</time></trkpt><trkpt lat="39.8409797" lon="8.5866722"><ele>6.0</ele><time>2026-05-02T07:43:05.562Z</time></trkpt><trkpt lat="39.8411589" lon="8.586755"><ele>6.0</ele><time>2026-05-02T07:43:06.562Z</time></trkpt><trkpt lat="39.8413365" lon="8.5868386"><ele>6.0</ele><time>2026-05-02T07:43:07.562Z</time></trkpt><trkpt lat="39.8415138" lon="8.5869195"><ele>6.0</ele><time>2026-05-02T07:43:08.561Z</time></trkpt><trkpt lat="39.8416927" lon="8.5870053"><ele>6.0</ele><time>2026-05-02T07:43:09.562Z</time></trkpt><trkpt lat="39.8418725" lon="8.5870869"><ele>5.666666666666667</ele><time>2026-05-02T07:43:10.562Z</time></trkpt><trkpt lat="39.8420496" lon="8.5871642"><ele>5.333333333333334</ele><time>2026-05-02T07:43:11.562Z</time></trkpt><trkpt lat="39.8422271" lon="8.5872433"><ele>5.0</ele><time>2026-05-02T07:43:12.562Z</time></trkpt><trkpt lat="39.8424044" lon="8.5873199"><ele>5.0</ele><time>2026-05-02T07:43:13.561Z</time></trkpt><trkpt lat="39.8425807" lon="8.5873964"><ele>5.0</ele><time>2026-05-02T07:43:14.562Z</time></trkpt><trkpt lat="39.8427606" lon="8.5874785"><ele>5.0</ele><time>2026-05-02T07:43:15.561Z</time></trkpt><trkpt lat="39.8429377" lon="8.5875616"><ele>4.0</ele><time>2026-05-02T07:43:16.562Z</time></trkpt><trkpt lat="39.8431135" lon="8.5876375"><ele>3.0</ele><time>2026-05-02T07:43:17.563Z</time></trkpt><trkpt lat="39.8432928" lon="8.5877185"><ele>2.0</ele><time>2026-05-02T07:43:18.563Z</time></trkpt><trkpt lat="39.8434696" lon="8.5877984"><ele>2.6666666666666665</ele><time>2026-05-02T07:43:19.561Z</time></trkpt><trkpt lat="39.8436456" lon="8.5878822"><ele>3.333333333333333</ele><time>2026-05-02T07:43:20.562Z</time></trkpt><trkpt lat="39.8438192" lon="8.5879593"><ele>4.0</ele><time>2026-05-02T07:43:21.561Z</time></trkpt><trkpt lat="39.8439934" lon="8.5880351"><ele>4.0</ele><time>2026-05-02T07:43:22.561Z</time></trkpt><trkpt lat="39.8441683" lon="8.5881157"><ele>4.0</ele><time>2026-05-02T07:43:23.563Z</time></trkpt><trkpt lat="39.8443409" lon="8.5881931"><ele>4.0</ele><time>2026-05-02T07:43:24.563Z</time></trkpt><trkpt lat="39.8445118" lon="8.5882699"><ele>3.6666666666666665</ele><time>2026-05-02T07:43:25.563Z</time></trkpt><trkpt lat="39.8446815" lon="8.5883454"><ele>3.333333333333333</ele><time>2026-05-02T07:43:26.562Z</time></trkpt><trkpt lat="39.8448523" lon="8.5884219"><ele>3.0</ele><time>2026-05-02T07:43:27.561Z</time></trkpt><trkpt lat="39.8450224" lon="8.5885006"><ele>2.6666666666666665</ele><time>2026-05-02T07:43:28.562Z</time></trkpt><trkpt lat="39.8451899" lon="8.5885852"><ele>2.333333333333333</ele><time>2026-05-02T07:43:29.562Z</time></trkpt><trkpt lat="39.8453531" lon="8.5886904"><ele>2.0</ele><time>2026-05-02T07:43:30.562Z</time></trkpt><trkpt lat="39.8455105" lon="8.5888134"><ele>2.0</ele><time>2026-05-02T07:43:31.561Z</time></trkpt><trkpt lat="39.8456644" lon="8.5889468"><ele>2.0</ele><time>2026-05-02T07:43:32.561Z</time></trkpt><trkpt lat="39.8458198" lon="8.5890798"><ele>2.0</ele><time>2026-05-02T07:43:33.562Z</time></trkpt><trkpt lat="39.8459722" lon="8.5892137"><ele>2.0</ele><time>2026-05-02T07:43:34.562Z</time></trkpt><trkpt lat="39.8461233" lon="8.5893499"><ele>2.0</ele><time>2026-05-02T07:43:35.562Z</time></trkpt><trkpt lat="39.8462741" lon="8.5894879"><ele>2.0</ele><time>2026-05-02T07:43:36.561Z</time></trkpt><trkpt lat="39.8464263" lon="8.5896233"><ele>2.333333333333333</ele><time>2026-05-02T07:43:37.562Z</time></trkpt><trkpt lat="39.8465787" lon="8.5897579"><ele>2.6666666666666665</ele><time>2026-05-02T07:43:38.562Z</time></trkpt><trkpt lat="39.8467313" lon="8.5898896"><ele>3.0</ele><time>2026-05-02T07:43:39.562Z</time></trkpt><trkpt lat="39.8468864" lon="8.59002"><ele>3.0</ele><time>2026-05-02T07:43:40.562Z</time></trkpt><trkpt lat="39.8470413" lon="8.5901517"><ele>3.0</ele><time>2026-05-02T07:43:41.563Z</time></trkpt><trkpt lat="39.8471952" lon="8.5902879"><ele>3.0</ele><time>2026-05-02T07:43:42.562Z</time></trkpt><trkpt lat="39.8473502" lon="8.5904192"><ele>3.333333333333333</ele><time>2026-05-02T07:43:43.562Z</time></trkpt><trkpt lat="39.8475064" lon="8.5905521"><ele>3.6666666666666665</ele><time>2026-05-02T07:43:44.562Z</time></trkpt><trkpt lat="39.8476612" lon="8.5906859"><ele>4.0</ele><time>2026-05-02T07:43:45.563Z</time></trkpt><trkpt lat="39.8478214" lon="8.5908175"><ele>4.0</ele><time>2026-05-02T07:43:46.562Z</time></trkpt><trkpt lat="39.8479765" lon="8.5909469"><ele>4.0</ele><time>2026-05-02T07:43:47.561Z</time></trkpt><trkpt lat="39.8481305" lon="8.5910808"><ele>4.0</ele><time>2026-05-02T07:43:48.563Z</time></trkpt><trkpt lat="39.8482821" lon="8.5912219"><ele>4.0</ele><time>2026-05-02T07:43:49.562Z</time></trkpt><trkpt lat="39.8484291" lon="8.5913684"><ele>4.0</ele><time>2026-05-02T07:43:50.562Z</time></trkpt><trkpt lat="39.8485682" lon="8.5915242"><ele>4.0</ele><time>2026-05-02T07:43:51.563Z</time></trkpt><trkpt lat="39.8486998" lon="8.5916914"><ele>4.333333333333333</ele><time>2026-05-02T07:43:52.561Z</time></trkpt><trkpt lat="39.8488256" lon="8.5918652"><ele>4.666666666666667</ele><time>2026-05-02T07:43:53.562Z</time></trkpt><trkpt lat="39.8489501" lon="8.5920392"><ele>5.0</ele><time>2026-05-02T07:43:54.562Z</time></trkpt><trkpt lat="39.8490756" lon="8.5922165"><ele>5.0</ele><time>2026-05-02T07:43:55.561Z</time></trkpt><trkpt lat="39.8491994" lon="8.5923925"><ele>5.0</ele><time>2026-05-02T07:43:56.563Z</time></trkpt><trkpt lat="39.8493247" lon="8.5925716"><ele>5.0</ele><time>2026-05-02T07:43:57.561Z</time></trkpt><trkpt lat="39.8494495" lon="8.5927519"><ele>4.333333333333334</ele><time>2026-05-02T07:43:58.561Z</time></trkpt><trkpt lat="39.8495748" lon="8.5929328"><ele>3.666666666666667</ele><time>2026-05-02T07:43:59.562Z</time></trkpt><trkpt lat="39.8497022" lon="8.5931097"><ele>3.0</ele><time>2026-05-02T07:44:00.562Z</time></trkpt><trkpt lat="39.8498302" lon="8.5932857"><ele>3.0</ele><time>2026-05-02T07:44:01.562Z</time></trkpt><trkpt lat="39.8499579" lon="8.5934574"><ele>3.0</ele><time>2026-05-02T07:44:02.563Z</time></trkpt><trkpt lat="39.8500823" lon="8.5936316"><ele>3.0</ele><time>2026-05-02T07:44:03.563Z</time></trkpt><trkpt lat="39.8502081" lon="8.5938103"><ele>3.0</ele><time>2026-05-02T07:44:04.563Z</time></trkpt><trkpt lat="39.8503318" lon="8.5939853"><ele>3.0</ele><time>2026-05-02T07:44:05.561Z</time></trkpt><trkpt lat="39.8504593" lon="8.5941642"><ele>3.0</ele><time>2026-05-02T07:44:06.562Z</time></trkpt><trkpt lat="39.8505791" lon="8.5943323"><ele>3.0</ele><time>2026-05-02T07:44:07.563Z</time></trkpt><trkpt lat="39.8506954" lon="8.5944986"><ele>3.0</ele><time>2026-05-02T07:44:08.562Z</time></trkpt><trkpt lat="39.8508081" lon="8.5946625"><ele>3.0</ele><time>2026-05-02T07:44:09.561Z</time></trkpt><trkpt lat="39.8509154" lon="8.5948121"><ele>3.0</ele><time>2026-05-02T07:44:10.562Z</time></trkpt><trkpt lat="39.8510174" lon="8.5949488"><ele>3.0</ele><time>2026-05-02T07:44:11.562Z</time></trkpt><trkpt lat="39.8511042" lon="8.595074"><ele>3.0</ele><time>2026-05-02T07:44:12.563Z</time></trkpt><trkpt lat="39.8511813" lon="8.5951883"><ele>3.0</ele><time>2026-05-02T07:44:13.561Z</time></trkpt><trkpt lat="39.8512533" lon="8.5952911"><ele>2.8333333333333335</ele><time>2026-05-02T07:44:14.562Z</time></trkpt><trkpt lat="39.8513178" lon="8.5953872"><ele>2.6666666666666665</ele><time>2026-05-02T07:44:15.562Z</time></trkpt><trkpt lat="39.8513722" lon="8.5954743"><ele>2.5</ele><time>2026-05-02T07:44:16.562Z</time></trkpt><trkpt lat="39.8514225" lon="8.5955449"><ele>2.333333333333333</ele><time>2026-05-02T07:44:17.562Z</time></trkpt><trkpt lat="39.8514941" lon="8.5956521"><ele>2.1666666666666665</ele><time>2026-05-02T07:44:19.562Z</time></trkpt><trkpt lat="39.8515551" lon="8.5956988"><ele>2.0</ele><time>2026-05-02T07:44:42.563Z</time></trkpt><trkpt lat="39.85152" lon="8.5955815"><ele>1.9999999999999998</ele><time>2026-05-02T07:44:45.561Z</time></trkpt><trkpt lat="39.8514718" lon="8.5955248"><ele>2.0</ele><time>2026-05-02T07:44:46.562Z</time></trkpt><trkpt lat="39.8514166" lon="8.5954556"><ele>2.0</ele><time>2026-05-02T07:44:47.563Z</time></trkpt><trkpt lat="39.851362" lon="8.5953743"><ele>2.0</ele><time>2026-05-02T07:44:48.563Z</time></trkpt><trkpt lat="39.8512971" lon="8.5952812"><ele>1.9999999999999998</ele><time>2026-05-02T07:44:49.563Z</time></trkpt><trkpt lat="39.8512249" lon="8.5951812"><ele>2.0</ele><time>2026-05-02T07:44:50.562Z</time></trkpt><trkpt lat="39.8511518" lon="8.595071"><ele>2.25</ele><time>2026-05-02T07:44:51.561Z</time></trkpt><trkpt lat="39.8510697" lon="8.5949556"><ele>2.5</ele><time>2026-05-02T07:44:52.561Z</time></trkpt><trkpt lat="39.8509791" lon="8.594826"><ele>2.75</ele><time>2026-05-02T07:44:53.562Z</time></trkpt><trkpt lat="39.8508901" lon="8.5946983"><ele>3.0</ele><time>2026-05-02T07:44:54.561Z</time></trkpt><trkpt lat="39.8508018" lon="8.5945718"><ele>3.0</ele><time>2026-05-02T07:44:55.561Z</time></trkpt><trkpt lat="39.8507072" lon="8.5944411"><ele>3.0</ele><time>2026-05-02T07:44:56.563Z</time></trkpt><trkpt lat="39.8506126" lon="8.5943039"><ele>3.0</ele><time>2026-05-02T07:44:57.562Z</time></trkpt><trkpt lat="39.8505149" lon="8.5941647"><ele>3.0</ele><time>2026-05-02T07:44:58.561Z</time></trkpt><trkpt lat="39.8504149" lon="8.5940216"><ele>3.0</ele><time>2026-05-02T07:44:59.562Z</time></trkpt><trkpt lat="39.8503117" lon="8.5938755"><ele>3.0</ele><time>2026-05-02T07:45:00.561Z</time></trkpt><trkpt lat="39.8502085" lon="8.5937265"><ele>3.0</ele><time>2026-05-02T07:45:01.562Z</time></trkpt><trkpt lat="39.8501026" lon="8.5935774"><ele>3.0</ele><time>2026-05-02T07:45:02.562Z</time></trkpt><trkpt lat="39.8499962" lon="8.5934306"><ele>3.0</ele><time>2026-05-02T07:45:03.561Z</time></trkpt><trkpt lat="39.8498861" lon="8.5932774"><ele>3.0</ele><time>2026-05-02T07:45:04.563Z</time></trkpt><trkpt lat="39.8497727" lon="8.5931229"><ele>3.0</ele><time>2026-05-02T07:45:05.562Z</time></trkpt><trkpt lat="39.8496606" lon="8.5929643"><ele>3.0</ele><time>2026-05-02T07:45:06.563Z</time></trkpt><trkpt lat="39.8495487" lon="8.5928024"><ele>3.0</ele><time>2026-05-02T07:45:07.562Z</time></trkpt><trkpt lat="39.849438" lon="8.5926422"><ele>2.6666666666666665</ele><time>2026-05-02T07:45:08.561Z</time></trkpt><trkpt lat="39.8493277" lon="8.5924808"><ele>2.333333333333333</ele><time>2026-05-02T07:45:09.562Z</time></trkpt><trkpt lat="39.8492176" lon="8.5923195"><ele>2.0</ele><time>2026-05-02T07:45:10.561Z</time></trkpt><trkpt lat="39.849105" lon="8.5921601"><ele>3.333333333333333</ele><time>2026-05-02T07:45:11.561Z</time></trkpt><trkpt lat="39.8489912" lon="8.5920006"><ele>4.666666666666667</ele><time>2026-05-02T07:45:12.562Z</time></trkpt><trkpt lat="39.8488775" lon="8.5918418"><ele>6.0</ele><time>2026-05-02T07:45:13.563Z</time></trkpt><trkpt lat="39.8487654" lon="8.5916851"><ele>6.0</ele><time>2026-05-02T07:45:14.561Z</time></trkpt><trkpt lat="39.8486512" lon="8.5915295"><ele>6.0</ele><time>2026-05-02T07:45:15.562Z</time></trkpt><trkpt lat="39.8485337" lon="8.591379"><ele>6.0</ele><time>2026-05-02T07:45:16.562Z</time></trkpt><trkpt lat="39.8484084" lon="8.5912378"><ele>4.666666666666667</ele><time>2026-05-02T07:45:17.562Z</time></trkpt><trkpt lat="39.8482766" lon="8.5911059"><ele>3.333333333333333</ele><time>2026-05-02T07:45:18.562Z</time></trkpt><trkpt lat="39.8481455" lon="8.5909799"><ele>2.0</ele><time>2026-05-02T07:45:19.563Z</time></trkpt><trkpt lat="39.8480156" lon="8.5908582"><ele>2.0</ele><time>2026-05-02T07:45:20.561Z</time></trkpt><trkpt lat="39.8478874" lon="8.5907373"><ele>2.0</ele><time>2026-05-02T07:45:21.562Z</time></trkpt><trkpt lat="39.8477592" lon="8.5906183"><ele>2.0</ele><time>2026-05-02T07:45:22.562Z</time></trkpt><trkpt lat="39.8476319" lon="8.5905018"><ele>2.333333333333333</ele><time>2026-05-02T07:45:23.563Z</time></trkpt><trkpt lat="39.8475027" lon="8.5903868"><ele>2.6666666666666665</ele><time>2026-05-02T07:45:24.561Z</time></trkpt><trkpt lat="39.8473748" lon="8.5902782"><ele>3.0</ele><time>2026-05-02T07:45:25.561Z</time></trkpt><trkpt lat="39.8472456" lon="8.5901653"><ele>3.0</ele><time>2026-05-02T07:45:26.562Z</time></trkpt><trkpt lat="39.8471251" lon="8.5900586"><ele>3.0</ele><time>2026-05-02T07:45:27.563Z</time></trkpt><trkpt lat="39.8470237" lon="8.5899515"><ele>3.0</ele><time>2026-05-02T07:45:28.561Z</time></trkpt><trkpt lat="39.8469471" lon="8.5898205"><ele>3.0</ele><time>2026-05-02T07:45:29.561Z</time></trkpt><trkpt lat="39.8469034" lon="8.5896806"><ele>3.0</ele><time>2026-05-02T07:45:30.563Z</time></trkpt><trkpt lat="39.8469043" lon="8.5895241"><ele>3.0</ele><time>2026-05-02T07:45:31.561Z</time></trkpt><trkpt lat="39.8469346" lon="8.5893745"><ele>3.0</ele><time>2026-05-02T07:45:32.563Z</time></trkpt><trkpt lat="39.84699" lon="8.5892257"><ele>3.0</ele><time>2026-05-02T07:45:33.562Z</time></trkpt><trkpt lat="39.8470567" lon="8.5890749"><ele>3.0</ele><time>2026-05-02T07:45:34.562Z</time></trkpt><trkpt lat="39.8471326" lon="8.5889223"><ele>3.0</ele><time>2026-05-02T07:45:35.562Z</time></trkpt><trkpt lat="39.8472184" lon="8.5887666"><ele>3.0</ele><time>2026-05-02T07:45:36.563Z</time></trkpt><trkpt lat="39.8473027" lon="8.5886043"><ele>3.0</ele><time>2026-05-02T07:45:37.561Z</time></trkpt><trkpt lat="39.8473873" lon="8.5884328"><ele>2.6666666666666665</ele><time>2026-05-02T07:45:38.561Z</time></trkpt><trkpt lat="39.8474717" lon="8.5882612"><ele>2.333333333333333</ele><time>2026-05-02T07:45:39.561Z</time></trkpt><trkpt lat="39.8475599" lon="8.5880869"><ele>2.0</ele><time>2026-05-02T07:45:40.562Z</time></trkpt><trkpt lat="39.8476463" lon="8.5879105"><ele>2.0</ele><time>2026-05-02T07:45:41.561Z</time></trkpt><trkpt lat="39.8477322" lon="8.5877329"><ele>2.0</ele><time>2026-05-02T07:45:42.562Z</time></trkpt><trkpt lat="39.8478202" lon="8.587552"><ele>2.0</ele><time>2026-05-02T07:45:43.563Z</time></trkpt><trkpt lat="39.8479118" lon="8.5873713"><ele>2.0</ele><time>2026-05-02T07:45:44.562Z</time></trkpt><trkpt lat="39.848003" lon="8.587188"><ele>2.0</ele><time>2026-05-02T07:45:45.562Z</time></trkpt><trkpt lat="39.8480963" lon="8.5870024"><ele>2.0</ele><time>2026-05-02T07:45:46.561Z</time></trkpt><trkpt lat="39.8481933" lon="8.5868152"><ele>2.333333333333333</ele><time>2026-05-02T07:45:47.562Z</time></trkpt><trkpt lat="39.8482902" lon="8.5866274"><ele>2.6666666666666665</ele><time>2026-05-02T07:45:48.562Z</time></trkpt><trkpt lat="39.8483866" lon="8.5864369"><ele>3.0</ele><time>2026-05-02T07:45:49.562Z</time></trkpt><trkpt lat="39.8484832" lon="8.5862453"><ele>3.0</ele><time>2026-05-02T07:45:50.563Z</time></trkpt><trkpt lat="39.8485805" lon="8.5860528"><ele>3.0</ele><time>2026-05-02T07:45:51.562Z</time></trkpt><trkpt lat="39.8486795" lon="8.5858597"><ele>3.0</ele><time>2026-05-02T07:45:52.561Z</time></trkpt><trkpt lat="39.8487779" lon="8.5856638"><ele>3.0</ele><time>2026-05-02T07:45:53.562Z</time></trkpt><trkpt lat="39.8488758" lon="8.5854663"><ele>3.0</ele><time>2026-05-02T07:45:54.562Z</time></trkpt><trkpt lat="39.8489746" lon="8.5852668"><ele>3.0</ele><time>2026-05-02T07:45:55.562Z</time></trkpt><trkpt lat="39.8490744" lon="8.5850676"><ele>3.0</ele><time>2026-05-02T07:45:56.562Z</time></trkpt><trkpt lat="39.8491768" lon="8.5848688"><ele>3.0</ele><time>2026-05-02T07:45:57.563Z</time></trkpt><trkpt lat="39.8492785" lon="8.5846685"><ele>3.0</ele><time>2026-05-02T07:45:58.561Z</time></trkpt><trkpt lat="39.8493799" lon="8.5844682"><ele>3.0</ele><time>2026-05-02T07:45:59.561Z</time></trkpt><trkpt lat="39.8494821" lon="8.5842659"><ele>3.0</ele><time>2026-05-02T07:46:00.563Z</time></trkpt><trkpt lat="39.8495838" lon="8.5840635"><ele>3.0</ele><time>2026-05-02T07:46:01.562Z</time></trkpt><trkpt lat="39.8496847" lon="8.5838613"><ele>3.333333333333333</ele><time>2026-05-02T07:46:02.562Z</time></trkpt><trkpt lat="39.8497855" lon="8.5836584"><ele>3.6666666666666665</ele><time>2026-05-02T07:46:03.563Z</time></trkpt><trkpt lat="39.8498873" lon="8.5834543"><ele>4.0</ele><time>2026-05-02T07:46:04.562Z</time></trkpt><trkpt lat="39.8499893" lon="8.5832497"><ele>4.0</ele><time>2026-05-02T07:46:05.561Z</time></trkpt><trkpt lat="39.8500914" lon="8.583045"><ele>4.0</ele><time>2026-05-02T07:46:06.562Z</time></trkpt><trkpt lat="39.8501942" lon="8.5828409"><ele>4.0</ele><time>2026-05-02T07:46:07.562Z</time></trkpt><trkpt lat="39.8502972" lon="8.5826365"><ele>3.6666666666666665</ele><time>2026-05-02T07:46:08.562Z</time></trkpt><trkpt lat="39.8504005" lon="8.5824323"><ele>3.333333333333333</ele><time>2026-05-02T07:46:09.562Z</time></trkpt><trkpt lat="39.8505039" lon="8.5822292"><ele>3.0</ele><time>2026-05-02T07:46:10.561Z</time></trkpt><trkpt lat="39.8506082" lon="8.5820268"><ele>2.3333333333333335</ele><time>2026-05-02T07:46:11.562Z</time></trkpt><trkpt lat="39.8507156" lon="8.5818277"><ele>1.6666666666666665</ele><time>2026-05-02T07:46:12.563Z</time></trkpt><trkpt lat="39.8508269" lon="8.5816324"><ele>1.0</ele><time>2026-05-02T07:46:13.56Z</time></trkpt><trkpt lat="39.8509427" lon="8.5814402"><ele>1.3333333333333333</ele><time>2026-05-02T07:46:14.562Z</time></trkpt><trkpt lat="39.8510633" lon="8.5812531"><ele>1.6666666666666665</ele><time>2026-05-02T07:46:15.561Z</time></trkpt><trkpt lat="39.8511874" lon="8.5810715"><ele>2.0</ele><time>2026-05-02T07:46:16.561Z</time></trkpt><trkpt lat="39.8513133" lon="8.5808952"><ele>2.0</ele><time>2026-05-02T07:46:17.56Z</time></trkpt><trkpt lat="39.8514419" lon="8.5807238"><ele>2.0</ele><time>2026-05-02T07:46:18.56Z</time></trkpt><trkpt lat="39.8515721" lon="8.580556"><ele>2.0</ele><time>2026-05-02T07:46:19.561Z</time></trkpt><trkpt lat="39.8517039" lon="8.5803922"><ele>3.0</ele><time>2026-05-02T07:46:20.561Z</time></trkpt><trkpt lat="39.8518326" lon="8.5802272"><ele>4.0</ele><time>2026-05-02T07:46:21.56Z</time></trkpt><trkpt lat="39.8519649" lon="8.5800606"><ele>5.0</ele><time>2026-05-02T07:46:22.561Z</time></trkpt><trkpt lat="39.8520959" lon="8.5798977"><ele>5.0</ele><time>2026-05-02T07:46:23.56Z</time></trkpt><trkpt lat="39.852228" lon="8.5797345"><ele>5.0</ele><time>2026-05-02T07:46:24.561Z</time></trkpt><trkpt lat="39.852356" lon="8.5795744"><ele>5.0</ele><time>2026-05-02T07:46:25.562Z</time></trkpt><trkpt lat="39.8524819" lon="8.5794137"><ele>4.333333333333334</ele><time>2026-05-02T07:46:26.561Z</time></trkpt><trkpt lat="39.8526122" lon="8.5792533"><ele>3.666666666666667</ele><time>2026-05-02T07:46:27.562Z</time></trkpt><trkpt lat="39.8527435" lon="8.5790964"><ele>3.0</ele><time>2026-05-02T07:46:28.56Z</time></trkpt><trkpt lat="39.8528727" lon="8.5789356"><ele>3.0</ele><time>2026-05-02T07:46:29.56Z</time></trkpt><trkpt lat="39.8529997" lon="8.5787804"><ele>3.0</ele><time>2026-05-02T07:46:30.56Z</time></trkpt><trkpt lat="39.8531255" lon="8.5786256"><ele>3.0</ele><time>2026-05-02T07:46:31.56Z</time></trkpt><trkpt lat="39.8532457" lon="8.5784756"><ele>2.5</ele><time>2026-05-02T07:46:32.561Z</time></trkpt><trkpt lat="39.853356" lon="8.5783422"><ele>2.0</ele><time>2026-05-02T07:46:33.56Z</time></trkpt><trkpt lat="39.8534551" lon="8.5782345"><ele>1.5</ele><time>2026-05-02T07:46:34.561Z</time></trkpt><trkpt lat="39.8535386" lon="8.5781575"><ele>1.0</ele><time>2026-05-02T07:46:35.562Z</time></trkpt><trkpt lat="39.853612" lon="8.5780983"><ele>1.6</ele><time>2026-05-02T07:46:36.562Z</time></trkpt><trkpt lat="39.8536912" lon="8.5780554"><ele>2.2</ele><time>2026-05-02T07:46:37.561Z</time></trkpt><trkpt lat="39.8537705" lon="8.5779993"><ele>2.8000000000000003</ele><time>2026-05-02T07:46:38.561Z</time></trkpt><trkpt lat="39.8538336" lon="8.5779164"><ele>3.4000000000000004</ele><time>2026-05-02T07:46:39.561Z</time></trkpt><trkpt lat="39.8538839" lon="8.5778041"><ele>4.0</ele><time>2026-05-02T07:46:40.561Z</time></trkpt><trkpt lat="39.8539377" lon="8.5776854"><ele>4.0</ele><time>2026-05-02T07:46:41.56Z</time></trkpt><trkpt lat="39.8540165" lon="8.5775678"><ele>4.0</ele><time>2026-05-02T07:46:42.562Z</time></trkpt><trkpt lat="39.854107" lon="8.5774499"><ele>4.0</ele><time>2026-05-02T07:46:43.562Z</time></trkpt><trkpt lat="39.8542046" lon="8.5773284"><ele>4.0</ele><time>2026-05-02T07:46:44.562Z</time></trkpt><trkpt lat="39.8543053" lon="8.5772"><ele>4.0</ele><time>2026-05-02T07:46:45.561Z</time></trkpt><trkpt lat="39.8544173" lon="8.577063"><ele>4.0</ele><time>2026-05-02T07:46:46.561Z</time></trkpt><trkpt lat="39.8545318" lon="8.5769271"><ele>4.0</ele><time>2026-05-02T07:46:47.561Z</time></trkpt><trkpt lat="39.8546499" lon="8.5767815"><ele>4.333333333333333</ele><time>2026-05-02T07:46:48.561Z</time></trkpt><trkpt lat="39.8547724" lon="8.5766329"><ele>4.666666666666667</ele><time>2026-05-02T07:46:49.561Z</time></trkpt><trkpt lat="39.8548944" lon="8.5764812"><ele>5.0</ele><time>2026-05-02T07:46:50.561Z</time></trkpt><trkpt lat="39.8550234" lon="8.5763298"><ele>5.0</ele><time>2026-05-02T07:46:51.56Z</time></trkpt><trkpt lat="39.8551541" lon="8.5761776"><ele>5.0</ele><time>2026-05-02T07:46:52.561Z</time></trkpt><trkpt lat="39.8552872" lon="8.5760204"><ele>5.0</ele><time>2026-05-02T07:46:53.561Z</time></trkpt><trkpt lat="39.8554181" lon="8.575864"><ele>5.0</ele><time>2026-05-02T07:46:54.561Z</time></trkpt><trkpt lat="39.8555512" lon="8.5756983"><ele>5.0</ele><time>2026-05-02T07:46:55.561Z</time></trkpt><trkpt lat="39.8556881" lon="8.5755269"><ele>5.0</ele><time>2026-05-02T07:46:56.561Z</time></trkpt><trkpt lat="39.8558225" lon="8.5753572"><ele>5.666666666666667</ele><time>2026-05-02T07:46:57.562Z</time></trkpt><trkpt lat="39.8559601" lon="8.5751889"><ele>6.333333333333334</ele><time>2026-05-02T07:46:58.561Z</time></trkpt><trkpt lat="39.8560975" lon="8.5750221"><ele>7.0</ele><time>2026-05-02T07:46:59.561Z</time></trkpt><trkpt lat="39.8562366" lon="8.5748545"><ele>7.0</ele><time>2026-05-02T07:47:00.561Z</time></trkpt><trkpt lat="39.856377" lon="8.574686"><ele>7.0</ele><time>2026-05-02T07:47:01.56Z</time></trkpt><trkpt lat="39.8565197" lon="8.5745204"><ele>7.0</ele><time>2026-05-02T07:47:02.561Z</time></trkpt><trkpt lat="39.8566701" lon="8.5743661"><ele>6.333333333333334</ele><time>2026-05-02T07:47:03.561Z</time></trkpt><trkpt lat="39.8568315" lon="8.5742261"><ele>5.666666666666667</ele><time>2026-05-02T07:47:04.562Z</time></trkpt><trkpt lat="39.857003" lon="8.5741022"><ele>5.0</ele><time>2026-05-02T07:47:05.561Z</time></trkpt><trkpt lat="39.8571808" lon="8.573994"><ele>5.0</ele><time>2026-05-02T07:47:06.562Z</time></trkpt><trkpt lat="39.857366" lon="8.5739084"><ele>5.0</ele><time>2026-05-02T07:47:07.561Z</time></trkpt><trkpt lat="39.857557" lon="8.5738422"><ele>5.0</ele><time>2026-05-02T07:47:08.561Z</time></trkpt><trkpt lat="39.8577509" lon="8.5737886"><ele>4.666666666666667</ele><time>2026-05-02T07:47:09.561Z</time></trkpt><trkpt lat="39.8579454" lon="8.5737549"><ele>4.333333333333333</ele><time>2026-05-02T07:47:10.562Z</time></trkpt><trkpt lat="39.8581397" lon="8.5737263"><ele>4.0</ele><time>2026-05-02T07:47:11.561Z</time></trkpt><trkpt lat="39.8583311" lon="8.5737"><ele>3.333333333333333</ele><time>2026-05-02T07:47:12.561Z</time></trkpt><trkpt lat="39.8585213" lon="8.573673"><ele>2.6666666666666665</ele><time>2026-05-02T07:47:13.56Z</time></trkpt><trkpt lat="39.85871" lon="8.5736452"><ele>2.0</ele><time>2026-05-02T07:47:14.561Z</time></trkpt><trkpt lat="39.858899" lon="8.5736133"><ele>2.0</ele><time>2026-05-02T07:47:15.562Z</time></trkpt><trkpt lat="39.8590883" lon="8.5735786"><ele>2.0</ele><time>2026-05-02T07:47:16.562Z</time></trkpt><trkpt lat="39.8592791" lon="8.5735447"><ele>2.0</ele><time>2026-05-02T07:47:17.561Z</time></trkpt><trkpt lat="39.8594697" lon="8.5735132"><ele>2.6666666666666665</ele><time>2026-05-02T07:47:18.561Z</time></trkpt><trkpt lat="39.8596615" lon="8.573479"><ele>3.333333333333333</ele><time>2026-05-02T07:47:19.561Z</time></trkpt><trkpt lat="39.859856" lon="8.573446"><ele>4.0</ele><time>2026-05-02T07:47:20.561Z</time></trkpt><trkpt lat="39.8600507" lon="8.573414"><ele>4.0</ele><time>2026-05-02T07:47:21.561Z</time></trkpt><trkpt lat="39.8602469" lon="8.5733839"><ele>4.0</ele><time>2026-05-02T07:47:22.56Z</time></trkpt><trkpt lat="39.8604443" lon="8.5733579"><ele>4.0</ele><time>2026-05-02T07:47:23.561Z</time></trkpt><trkpt lat="39.8606414" lon="8.5733324"><ele>4.0</ele><time>2026-05-02T07:47:24.562Z</time></trkpt><trkpt lat="39.8608371" lon="8.5733065"><ele>4.0</ele><time>2026-05-02T07:47:25.561Z</time></trkpt><trkpt lat="39.8610335" lon="8.5732819"><ele>4.0</ele><time>2026-05-02T07:47:26.56Z</time></trkpt><trkpt lat="39.8612292" lon="8.573256"><ele>4.0</ele><time>2026-05-02T07:47:27.561Z</time></trkpt><trkpt lat="39.8614253" lon="8.5732304"><ele>4.0</ele><time>2026-05-02T07:47:28.561Z</time></trkpt><trkpt lat="39.8616199" lon="8.5732041"><ele>4.0</ele><time>2026-05-02T07:47:29.561Z</time></trkpt><trkpt lat="39.8618141" lon="8.573176"><ele>4.333333333333333</ele><time>2026-05-02T07:47:30.561Z</time></trkpt><trkpt lat="39.8620094" lon="8.5731489"><ele>4.666666666666667</ele><time>2026-05-02T07:47:31.561Z</time></trkpt><trkpt lat="39.8622043" lon="8.5731247"><ele>5.0</ele><time>2026-05-02T07:47:32.562Z</time></trkpt><trkpt lat="39.8623986" lon="8.5731009"><ele>5.0</ele><time>2026-05-02T07:47:33.562Z</time></trkpt><trkpt lat="39.862592" lon="8.5730752"><ele>5.0</ele><time>2026-05-02T07:47:34.561Z</time></trkpt><trkpt lat="39.862786" lon="8.5730481"><ele>5.0</ele><time>2026-05-02T07:47:35.561Z</time></trkpt><trkpt lat="39.8629791" lon="8.5730193"><ele>5.0</ele><time>2026-05-02T07:47:36.56Z</time></trkpt><trkpt lat="39.8631702" lon="8.5729917"><ele>5.0</ele><time>2026-05-02T07:47:37.56Z</time></trkpt><trkpt lat="39.8633625" lon="8.572963"><ele>5.0</ele><time>2026-05-02T07:47:38.561Z</time></trkpt><trkpt lat="39.8635533" lon="8.5729337"><ele>4.333333333333334</ele><time>2026-05-02T07:47:39.561Z</time></trkpt><trkpt lat="39.8637432" lon="8.5729056"><ele>3.666666666666667</ele><time>2026-05-02T07:47:40.561Z</time></trkpt><trkpt lat="39.863932" lon="8.5728796"><ele>3.0</ele><time>2026-05-02T07:47:41.56Z</time></trkpt><trkpt lat="39.864118" lon="8.5728544"><ele>3.333333333333333</ele><time>2026-05-02T07:47:42.561Z</time></trkpt><trkpt lat="39.8642995" lon="8.5728268"><ele>3.6666666666666665</ele><time>2026-05-02T07:47:43.561Z</time></trkpt><trkpt lat="39.8644765" lon="8.5727971"><ele>4.0</ele><time>2026-05-02T07:47:44.561Z</time></trkpt><trkpt lat="39.8646499" lon="8.5727664"><ele>4.0</ele><time>2026-05-02T07:47:45.561Z</time></trkpt><trkpt lat="39.8648193" lon="8.5727196"><ele>4.0</ele><time>2026-05-02T07:47:46.56Z</time></trkpt><trkpt lat="39.8649873" lon="8.5726536"><ele>4.0</ele><time>2026-05-02T07:47:47.561Z</time></trkpt><trkpt lat="39.8651557" lon="8.5725629"><ele>4.0</ele><time>2026-05-02T07:47:48.562Z</time></trkpt><trkpt lat="39.8653199" lon="8.5724506"><ele>4.0</ele><time>2026-05-02T07:47:49.562Z</time></trkpt><trkpt lat="39.8654847" lon="8.5723219"><ele>4.0</ele><time>2026-05-02T07:47:50.56Z</time></trkpt><trkpt lat="39.8656431" lon="8.5721773"><ele>4.0</ele><time>2026-05-02T07:47:51.56Z</time></trkpt><trkpt lat="39.8657992" lon="8.5720141"><ele>4.0</ele><time>2026-05-02T07:47:52.561Z</time></trkpt><trkpt lat="39.8659475" lon="8.5718407"><ele>4.0</ele><time>2026-05-02T07:47:53.56Z</time></trkpt><trkpt lat="39.8660926" lon="8.5716603"><ele>4.0</ele><time>2026-05-02T07:47:54.561Z</time></trkpt><trkpt lat="39.8662324" lon="8.5714777"><ele>4.0</ele><time>2026-05-02T07:47:55.561Z</time></trkpt><trkpt lat="39.8663704" lon="8.5712919"><ele>4.0</ele><time>2026-05-02T07:47:56.561Z</time></trkpt><trkpt lat="39.8665075" lon="8.5711081"><ele>4.0</ele><time>2026-05-02T07:47:57.562Z</time></trkpt><trkpt lat="39.8666414" lon="8.5709261"><ele>4.0</ele><time>2026-05-02T07:47:58.561Z</time></trkpt><trkpt lat="39.8667736" lon="8.5707466"><ele>4.0</ele><time>2026-05-02T07:47:59.561Z</time></trkpt><trkpt lat="39.8669024" lon="8.5705708"><ele>4.0</ele><time>2026-05-02T07:48:00.562Z</time></trkpt><trkpt lat="39.8670309" lon="8.570395"><ele>4.0</ele><time>2026-05-02T07:48:01.562Z</time></trkpt><trkpt lat="39.8671573" lon="8.5702237"><ele>4.0</ele><time>2026-05-02T07:48:02.562Z</time></trkpt><trkpt lat="39.8672856" lon="8.5700544"><ele>4.333333333333333</ele><time>2026-05-02T07:48:03.56Z</time></trkpt><trkpt lat="39.8674101" lon="8.5698858"><ele>4.666666666666667</ele><time>2026-05-02T07:48:04.562Z</time></trkpt><trkpt lat="39.8675426" lon="8.5697285"><ele>5.0</ele><time>2026-05-02T07:48:05.562Z</time></trkpt><trkpt lat="39.8676869" lon="8.5695892"><ele>4.666666666666667</ele><time>2026-05-02T07:48:06.562Z</time></trkpt><trkpt lat="39.8678436" lon="8.5694715"><ele>4.333333333333333</ele><time>2026-05-02T07:48:07.561Z</time></trkpt><trkpt lat="39.8680123" lon="8.5693768"><ele>4.0</ele><time>2026-05-02T07:48:08.562Z</time></trkpt><trkpt lat="39.8681889" lon="8.5693051"><ele>4.0</ele><time>2026-05-02T07:48:09.561Z</time></trkpt><trkpt lat="39.8683675" lon="8.5692474"><ele>4.0</ele><time>2026-05-02T07:48:10.561Z</time></trkpt><trkpt lat="39.8685477" lon="8.5692038"><ele>4.0</ele><time>2026-05-02T07:48:11.561Z</time></trkpt><trkpt lat="39.8687284" lon="8.5691701"><ele>3.0</ele><time>2026-05-02T07:48:12.561Z</time></trkpt><trkpt lat="39.8689098" lon="8.5691417"><ele>2.0</ele><time>2026-05-02T07:48:13.562Z</time></trkpt><trkpt lat="39.8690929" lon="8.5691155"><ele>1.0</ele><time>2026-05-02T07:48:14.562Z</time></trkpt><trkpt lat="39.8692762" lon="8.5690945"><ele>1.0</ele><time>2026-05-02T07:48:15.561Z</time></trkpt><trkpt lat="39.8694594" lon="8.5690743"><ele>1.0</ele><time>2026-05-02T07:48:16.562Z</time></trkpt><trkpt lat="39.8696441" lon="8.5690531"><ele>1.0</ele><time>2026-05-02T07:48:17.562Z</time></trkpt><trkpt lat="39.8698279" lon="8.5690327"><ele>1.0</ele><time>2026-05-02T07:48:18.56Z</time></trkpt><trkpt lat="39.870013" lon="8.5690138"><ele>1.0</ele><time>2026-05-02T07:48:19.561Z</time></trkpt><trkpt lat="39.8701965" lon="8.5689956"><ele>1.0</ele><time>2026-05-02T07:48:20.561Z</time></trkpt><trkpt lat="39.8703836" lon="8.5689812"><ele>1.3333333333333333</ele><time>2026-05-02T07:48:21.56Z</time></trkpt><trkpt lat="39.8705726" lon="8.5689655"><ele>1.6666666666666665</ele><time>2026-05-02T07:48:22.561Z</time></trkpt><trkpt lat="39.8707602" lon="8.5689516"><ele>2.0</ele><time>2026-05-02T07:48:23.56Z</time></trkpt><trkpt lat="39.870946" lon="8.5689339"><ele>2.0</ele><time>2026-05-02T07:48:24.561Z</time></trkpt><trkpt lat="39.8711344" lon="8.5689144"><ele>2.0</ele><time>2026-05-02T07:48:25.56Z</time></trkpt><trkpt lat="39.871319" lon="8.568892"><ele>2.0</ele><time>2026-05-02T07:48:26.561Z</time></trkpt><trkpt lat="39.8715066" lon="8.5688721"><ele>2.0</ele><time>2026-05-02T07:48:27.561Z</time></trkpt><trkpt lat="39.8716915" lon="8.5688655"><ele>2.0</ele><time>2026-05-02T07:48:28.56Z</time></trkpt><trkpt lat="39.8718729" lon="8.5688846"><ele>2.0</ele><time>2026-05-02T07:48:29.561Z</time></trkpt><trkpt lat="39.8720494" lon="8.568936"><ele>2.6666666666666665</ele><time>2026-05-02T07:48:30.561Z</time></trkpt><trkpt lat="39.8722205" lon="8.5690239"><ele>3.333333333333333</ele><time>2026-05-02T07:48:31.56Z</time></trkpt><trkpt lat="39.8723802" lon="8.5691439"><ele>4.0</ele><time>2026-05-02T07:48:32.561Z</time></trkpt><trkpt lat="39.8725257" lon="8.569288"><ele>3.6666666666666665</ele><time>2026-05-02T07:48:33.56Z</time></trkpt><trkpt lat="39.8726559" lon="8.5694542"><ele>3.333333333333333</ele><time>2026-05-02T07:48:34.56Z</time></trkpt><trkpt lat="39.8727811" lon="8.5696297"><ele>3.0</ele><time>2026-05-02T07:48:35.561Z</time></trkpt><trkpt lat="39.8729021" lon="8.5698099"><ele>3.0</ele><time>2026-05-02T07:48:36.561Z</time></trkpt><trkpt lat="39.8730232" lon="8.5699904"><ele>3.0</ele><time>2026-05-02T07:48:37.562Z</time></trkpt><trkpt lat="39.8731461" lon="8.5701691"><ele>3.0</ele><time>2026-05-02T07:48:38.562Z</time></trkpt><trkpt lat="39.8732685" lon="8.5703446"><ele>2.6666666666666665</ele><time>2026-05-02T07:48:39.561Z</time></trkpt><trkpt lat="39.8733928" lon="8.5705228"><ele>2.333333333333333</ele><time>2026-05-02T07:48:40.561Z</time></trkpt><trkpt lat="39.8735145" lon="8.5707051"><ele>2.0</ele><time>2026-05-02T07:48:41.562Z</time></trkpt><trkpt lat="39.8736325" lon="8.5708915"><ele>2.0</ele><time>2026-05-02T07:48:42.561Z</time></trkpt><trkpt lat="39.8737486" lon="8.5710813"><ele>2.0</ele><time>2026-05-02T07:48:43.562Z</time></trkpt><trkpt lat="39.8738629" lon="8.5712605"><ele>2.0</ele><time>2026-05-02T07:48:44.561Z</time></trkpt><trkpt lat="39.8739658" lon="8.571419"><ele>2.0</ele><time>2026-05-02T07:48:45.56Z</time></trkpt><trkpt lat="39.8740573" lon="8.5715507"><ele>2.0</ele><time>2026-05-02T07:48:46.561Z</time></trkpt><trkpt lat="39.8741332" lon="8.5716523"><ele>2.0</ele><time>2026-05-02T07:48:47.561Z</time></trkpt><trkpt lat="39.8741943" lon="8.5717278"><ele>2.0</ele><time>2026-05-02T07:48:48.562Z</time></trkpt><trkpt lat="39.8742985" lon="8.5717731"><ele>2.0</ele><time>2026-05-02T07:48:50.561Z</time></trkpt><trkpt lat="39.8743965" lon="8.5717251"><ele>1.8</ele><time>2026-05-02T07:48:52.56Z</time></trkpt><trkpt lat="39.8744839" lon="8.5716644"><ele>1.6</ele><time>2026-05-02T07:48:54.562Z</time></trkpt><trkpt lat="39.8746074" lon="8.5716548"><ele>1.4000000000000001</ele><time>2026-05-02T07:48:56.562Z</time></trkpt><trkpt lat="39.8746705" lon="8.5716879"><ele>1.2000000000000002</ele><time>2026-05-02T07:48:57.561Z</time></trkpt><trkpt lat="39.8747585" lon="8.5717998"><ele>1.0</ele><time>2026-05-02T07:48:59.561Z</time></trkpt><trkpt lat="39.8748119" lon="8.5718737"><ele>0.9999999999999999</ele><time>2026-05-02T07:49:00.561Z</time></trkpt><trkpt lat="39.8748655" lon="8.5719535"><ele>1.0</ele><time>2026-05-02T07:49:01.561Z</time></trkpt><trkpt lat="39.8749155" lon="8.572028"><ele>1.0</ele><time>2026-05-02T07:49:02.562Z</time></trkpt><trkpt lat="39.8749665" lon="8.5721039"><ele>1.0</ele><time>2026-05-02T07:49:03.56Z</time></trkpt><trkpt lat="39.8750228" lon="8.5721858"><ele>0.9999999999999999</ele><time>2026-05-02T07:49:04.56Z</time></trkpt><trkpt lat="39.8750794" lon="8.5722646"><ele>1.0</ele><time>2026-05-02T07:49:05.562Z</time></trkpt><trkpt lat="39.875138" lon="8.5723448"><ele>1.0</ele><time>2026-05-02T07:49:06.561Z</time></trkpt><trkpt lat="39.8751997" lon="8.5724298"><ele>1.0</ele><time>2026-05-02T07:49:07.562Z</time></trkpt><trkpt lat="39.8752647" lon="8.5725149"><ele>1.0</ele><time>2026-05-02T07:49:08.561Z</time></trkpt><trkpt lat="39.875331" lon="8.5726056"><ele>1.0</ele><time>2026-05-02T07:49:09.561Z</time></trkpt><trkpt lat="39.8753982" lon="8.5726926"><ele>1.0</ele><time>2026-05-02T07:49:10.562Z</time></trkpt><trkpt lat="39.8754586" lon="8.5727734"><ele>0.9999999999999999</ele><time>2026-05-02T07:49:11.561Z</time></trkpt><trkpt lat="39.8755188" lon="8.5728518"><ele>1.0</ele><time>2026-05-02T07:49:12.561Z</time></trkpt><trkpt lat="39.8755743" lon="8.5729353"><ele>1.0</ele><time>2026-05-02T07:49:13.561Z</time></trkpt><trkpt lat="39.8756349" lon="8.5730155"><ele>1.0</ele><time>2026-05-02T07:49:14.56Z</time></trkpt><trkpt lat="39.8756927" lon="8.5731033"><ele>0.9999999999999999</ele><time>2026-05-02T07:49:15.561Z</time></trkpt><trkpt lat="39.875758" lon="8.5731914"><ele>1.0</ele><time>2026-05-02T07:49:16.562Z</time></trkpt><trkpt lat="39.8758293" lon="8.5732754"><ele>1.1666666666666665</ele><time>2026-05-02T07:49:17.56Z</time></trkpt><trkpt lat="39.8758938" lon="8.5733525"><ele>1.3333333333333333</ele><time>2026-05-02T07:49:18.562Z</time></trkpt><trkpt lat="39.8759525" lon="8.5734305"><ele>1.5</ele><time>2026-05-02T07:49:19.56Z</time></trkpt><trkpt lat="39.8760073" lon="8.5735042"><ele>1.6666666666666665</ele><time>2026-05-02T07:49:20.562Z</time></trkpt><trkpt lat="39.8760667" lon="8.573557"><ele>1.8333333333333333</ele><time>2026-05-02T07:49:21.561Z</time></trkpt><trkpt lat="39.8761702" lon="8.5736084"><ele>2.0</ele><time>2026-05-02T07:49:23.561Z</time></trkpt><trkpt lat="39.876273" lon="8.5735523"><ele>2.0</ele><time>2026-05-02T07:49:25.562Z</time></trkpt><trkpt lat="39.8763191" lon="8.5734931"><ele>1.9999999999999998</ele><time>2026-05-02T07:49:26.56Z</time></trkpt><trkpt lat="39.8763618" lon="8.5734249"><ele>2.0</ele><time>2026-05-02T07:49:27.561Z</time></trkpt><trkpt lat="39.8764093" lon="8.573368"><ele>2.0</ele><time>2026-05-02T07:49:28.56Z</time></trkpt><trkpt lat="39.87646" lon="8.5733103"><ele>1.9999999999999998</ele><time>2026-05-02T07:49:29.56Z</time></trkpt><trkpt lat="39.8765143" lon="8.5732587"><ele>2.0</ele><time>2026-05-02T07:49:30.561Z</time></trkpt><trkpt lat="39.8765696" lon="8.5732024"><ele>2.0</ele><time>2026-05-02T07:49:31.561Z</time></trkpt><trkpt lat="39.8766198" lon="8.5731448"><ele>1.9999999999999998</ele><time>2026-05-02T07:49:32.561Z</time></trkpt><trkpt lat="39.8766808" lon="8.573092"><ele>2.0</ele><time>2026-05-02T07:49:33.562Z</time></trkpt><trkpt lat="39.8767424" lon="8.5730391"><ele>2.0</ele><time>2026-05-02T07:49:34.56Z</time></trkpt><trkpt lat="39.8768059" lon="8.5729812"><ele>2.0</ele><time>2026-05-02T07:49:35.561Z</time></trkpt><trkpt lat="39.8768657" lon="8.5729216"><ele>1.9999999999999998</ele><time>2026-05-02T07:49:36.561Z</time></trkpt><trkpt lat="39.8769263" lon="8.5728599"><ele>2.0</ele><time>2026-05-02T07:49:37.562Z</time></trkpt><trkpt lat="39.8769918" lon="8.5727939"><ele>1.8</ele><time>2026-05-02T07:49:38.561Z</time></trkpt><trkpt lat="39.8770606" lon="8.5727281"><ele>1.6</ele><time>2026-05-02T07:49:39.56Z</time></trkpt><trkpt lat="39.8771316" lon="8.5726614"><ele>1.4000000000000001</ele><time>2026-05-02T07:49:40.56Z</time></trkpt><trkpt lat="39.8772051" lon="8.5725862"><ele>1.2000000000000002</ele><time>2026-05-02T07:49:41.561Z</time></trkpt><trkpt lat="39.8772795" lon="8.572512"><ele>1.0</ele><time>2026-05-02T07:49:42.56Z</time></trkpt><trkpt lat="39.8773509" lon="8.5724273"><ele>0.9999999999999999</ele><time>2026-05-02T07:49:43.561Z</time></trkpt><trkpt lat="39.8774229" lon="8.5723516"><ele>1.0</ele><time>2026-05-02T07:49:44.56Z</time></trkpt><trkpt lat="39.8774853" lon="8.5722868"><ele>1.0</ele><time>2026-05-02T07:49:45.562Z</time></trkpt><trkpt lat="39.8775429" lon="8.572229"><ele>1.0</ele><time>2026-05-02T07:49:46.561Z</time></trkpt><trkpt lat="39.8776101" lon="8.5721719"><ele>0.9999999999999999</ele><time>2026-05-02T07:49:47.561Z</time></trkpt><trkpt lat="39.8776776" lon="8.5721042"><ele>1.0</ele><time>2026-05-02T07:49:48.561Z</time></trkpt><trkpt lat="39.8777532" lon="8.5720306"><ele>1.2000000000000002</ele><time>2026-05-02T07:49:49.561Z</time></trkpt><trkpt lat="39.8778318" lon="8.5719597"><ele>1.4000000000000001</ele><time>2026-05-02T07:49:50.561Z</time></trkpt><trkpt lat="39.8779142" lon="8.5718802"><ele>1.6</ele><time>2026-05-02T07:49:51.562Z</time></trkpt><trkpt lat="39.8779991" lon="8.5717959"><ele>1.8</ele><time>2026-05-02T07:49:52.56Z</time></trkpt><trkpt lat="39.878085" lon="8.5717149"><ele>2.0</ele><time>2026-05-02T07:49:53.562Z</time></trkpt><trkpt lat="39.8781715" lon="8.5716275"><ele>2.0</ele><time>2026-05-02T07:49:54.56Z</time></trkpt><trkpt lat="39.8782555" lon="8.5715391"><ele>2.0</ele><time>2026-05-02T07:49:55.562Z</time></trkpt><trkpt lat="39.8783424" lon="8.5714557"><ele>2.0</ele><time>2026-05-02T07:49:56.561Z</time></trkpt><trkpt lat="39.8784298" lon="8.5713713"><ele>2.0</ele><time>2026-05-02T07:49:57.561Z</time></trkpt><trkpt lat="39.878512" lon="8.5712817"><ele>2.0</ele><time>2026-05-02T07:49:58.56Z</time></trkpt><trkpt lat="39.8785917" lon="8.5711914"><ele>1.8</ele><time>2026-05-02T07:49:59.562Z</time></trkpt><trkpt lat="39.8786766" lon="8.5711117"><ele>1.6</ele><time>2026-05-02T07:50:00.562Z</time></trkpt><trkpt lat="39.8787594" lon="8.5710273"><ele>1.4000000000000001</ele><time>2026-05-02T07:50:01.56Z</time></trkpt><trkpt lat="39.8788335" lon="8.5709406"><ele>1.2000000000000002</ele><time>2026-05-02T07:50:02.561Z</time></trkpt><trkpt lat="39.8789126" lon="8.5708664"><ele>1.0</ele><time>2026-05-02T07:50:03.561Z</time></trkpt><trkpt lat="39.8789907" lon="8.5707918"><ele>0.9999999999999999</ele><time>2026-05-02T07:50:04.562Z</time></trkpt><trkpt lat="39.879068" lon="8.5707176"><ele>1.0</ele><time>2026-05-02T07:50:05.56Z</time></trkpt><trkpt lat="39.8791333" lon="8.5706507"><ele>1.0</ele><time>2026-05-02T07:50:06.56Z</time></trkpt><trkpt lat="39.8791975" lon="8.5705868"><ele>1.0</ele><time>2026-05-02T07:50:07.56Z</time></trkpt><trkpt lat="39.8792692" lon="8.5705253"><ele>0.9999999999999999</ele><time>2026-05-02T07:50:08.56Z</time></trkpt><trkpt lat="39.8793449" lon="8.5704722"><ele>1.0</ele><time>2026-05-02T07:50:09.561Z</time></trkpt><trkpt lat="39.8794297" lon="8.5704294"><ele>1.0</ele><time>2026-05-02T07:50:10.56Z</time></trkpt><trkpt lat="39.879515" lon="8.5704054"><ele>1.0</ele><time>2026-05-02T07:50:11.562Z</time></trkpt><trkpt lat="39.8796087" lon="8.5703996"><ele>1.0</ele><time>2026-05-02T07:50:12.56Z</time></trkpt><trkpt lat="39.8797091" lon="8.5704031"><ele>1.0</ele><time>2026-05-02T07:50:13.562Z</time></trkpt><trkpt lat="39.8798118" lon="8.5704093"><ele>1.0</ele><time>2026-05-02T07:50:14.561Z</time></trkpt><trkpt lat="39.8799172" lon="8.5704136"><ele>1.0</ele><time>2026-05-02T07:50:15.56Z</time></trkpt><trkpt lat="39.8800232" lon="8.5704176"><ele>1.0</ele><time>2026-05-02T07:50:16.561Z</time></trkpt><trkpt lat="39.8801266" lon="8.5704225"><ele>1.0</ele><time>2026-05-02T07:50:17.561Z</time></trkpt><trkpt lat="39.8802313" lon="8.5704272"><ele>1.0</ele><time>2026-05-02T07:50:18.56Z</time></trkpt><trkpt lat="39.8803376" lon="8.5704291"><ele>1.0</ele><time>2026-05-02T07:50:19.562Z</time></trkpt><trkpt lat="39.880444" lon="8.5704365"><ele>0.8</ele><time>2026-05-02T07:50:20.56Z</time></trkpt><trkpt lat="39.8805521" lon="8.570446"><ele>0.6000000000000001</ele><time>2026-05-02T07:50:21.561Z</time></trkpt><trkpt lat="39.8806595" lon="8.5704546"><ele>0.4</ele><time>2026-05-02T07:50:22.56Z</time></trkpt><trkpt lat="39.8807576" lon="8.5704626"><ele>0.2</ele><time>2026-05-02T07:50:23.56Z</time></trkpt><trkpt lat="39.8808506" lon="8.5704757"><ele>0.0</ele><time>2026-05-02T07:50:24.561Z</time></trkpt><trkpt lat="39.8809344" lon="8.5704843"><ele>0.0</ele><time>2026-05-02T07:50:25.562Z</time></trkpt><trkpt lat="39.8810028" lon="8.5704845"><ele>0.0</ele><time>2026-05-02T07:50:26.562Z</time></trkpt><trkpt lat="39.881094" lon="8.5704187"><ele>0.0</ele><time>2026-05-02T07:50:28.561Z</time></trkpt><trkpt lat="39.8811123" lon="8.5702852"><ele>0.0</ele><time>2026-05-02T07:50:30.562Z</time></trkpt><trkpt lat="39.881102" lon="8.5701989"><ele>0.0</ele><time>2026-05-02T07:50:31.562Z</time></trkpt><trkpt lat="39.8810889" lon="8.5700998"><ele>0.0</ele><time>2026-05-02T07:50:32.561Z</time></trkpt><trkpt lat="39.8810804" lon="8.5699833"><ele>0.0</ele><time>2026-05-02T07:50:33.561Z</time></trkpt><trkpt lat="39.8810687" lon="8.5698718"><ele>0.0</ele><time>2026-05-02T07:50:34.56Z</time></trkpt><trkpt lat="39.8810585" lon="8.5697781"><ele>0.0</ele><time>2026-05-02T07:50:35.56Z</time></trkpt><trkpt lat="39.8810754" lon="8.5696368"><ele>0.0</ele><time>2026-05-02T07:50:37.56Z</time></trkpt><trkpt lat="39.881124" lon="8.5695682"><ele>0.0</ele><time>2026-05-02T07:50:39.561Z</time></trkpt><trkpt lat="39.8811889" lon="8.5695529"><ele>0.0</ele><time>2026-05-02T07:50:41.56Z</time></trkpt><trkpt lat="39.8812291" lon="8.5694324"><ele>0.2</ele><time>2026-05-02T07:50:44.561Z</time></trkpt><trkpt lat="39.8812146" lon="8.5692735"><ele>0.4</ele><time>2026-05-02T07:50:46.561Z</time></trkpt><trkpt lat="39.8812043" lon="8.5691797"><ele>0.6000000000000001</ele><time>2026-05-02T07:50:47.561Z</time></trkpt><trkpt lat="39.8811943" lon="8.5690674"><ele>0.8</ele><time>2026-05-02T07:50:48.561Z</time></trkpt><trkpt lat="39.8811864" lon="8.5689506"><ele>1.0</ele><time>2026-05-02T07:50:49.562Z</time></trkpt><trkpt lat="39.8811746" lon="8.5688306"><ele>1.0</ele><time>2026-05-02T07:50:50.562Z</time></trkpt><trkpt lat="39.8811667" lon="8.5687078"><ele>1.0</ele><time>2026-05-02T07:50:51.56Z</time></trkpt><trkpt lat="39.8811596" lon="8.5685866"><ele>1.0</ele><time>2026-05-02T07:50:52.561Z</time></trkpt><trkpt lat="39.8811484" lon="8.5684614"><ele>1.0</ele><time>2026-05-02T07:50:53.561Z</time></trkpt><trkpt lat="39.8811361" lon="8.5683226"><ele>1.0</ele><time>2026-05-02T07:50:54.561Z</time></trkpt><trkpt lat="39.8811255" lon="8.5681809"><ele>1.0</ele><time>2026-05-02T07:50:55.561Z</time></trkpt><trkpt lat="39.8811183" lon="8.5680335"><ele>1.0</ele><time>2026-05-02T07:50:56.561Z</time></trkpt><trkpt lat="39.8811094" lon="8.5678834"><ele>1.0</ele><time>2026-05-02T07:50:57.56Z</time></trkpt><trkpt lat="39.8810972" lon="8.5677314"><ele>1.0</ele><time>2026-05-02T07:50:58.561Z</time></trkpt><trkpt lat="39.8810828" lon="8.567581"><ele>1.0</ele><time>2026-05-02T07:50:59.56Z</time></trkpt><trkpt lat="39.8810723" lon="8.5674316"><ele>1.0</ele><time>2026-05-02T07:51:00.561Z</time></trkpt><trkpt lat="39.8810627" lon="8.5672837"><ele>1.0</ele><time>2026-05-02T07:51:01.561Z</time></trkpt><trkpt lat="39.8810495" lon="8.5671378"><ele>1.0</ele><time>2026-05-02T07:51:02.561Z</time></trkpt><trkpt lat="39.8810363" lon="8.5669894"><ele>1.0</ele><time>2026-05-02T07:51:03.562Z</time></trkpt><trkpt lat="39.8810231" lon="8.5668347"><ele>1.0</ele><time>2026-05-02T07:51:04.562Z</time></trkpt><trkpt lat="39.8810104" lon="8.5666795"><ele>1.0</ele><time>2026-05-02T07:51:05.562Z</time></trkpt><trkpt lat="39.8809987" lon="8.5665254"><ele>1.0</ele><time>2026-05-02T07:51:06.561Z</time></trkpt><trkpt lat="39.8809882" lon="8.5663696"><ele>1.0</ele><time>2026-05-02T07:51:07.562Z</time></trkpt><trkpt lat="39.8809759" lon="8.5662139"><ele>1.0</ele><time>2026-05-02T07:51:08.561Z</time></trkpt><trkpt lat="39.8809626" lon="8.5660573"><ele>1.0</ele><time>2026-05-02T07:51:09.561Z</time></trkpt><trkpt lat="39.8809521" lon="8.5659021"><ele>1.0</ele><time>2026-05-02T07:51:10.562Z</time></trkpt><trkpt lat="39.8809407" lon="8.5657489"><ele>0.75</ele><time>2026-05-02T07:51:11.561Z</time></trkpt><trkpt lat="39.8809363" lon="8.565595"><ele>0.5</ele><time>2026-05-02T07:51:12.561Z</time></trkpt><trkpt lat="39.8809425" lon="8.5654401"><ele>0.25</ele><time>2026-05-02T07:51:13.561Z</time></trkpt><trkpt lat="39.8809516" lon="8.5652883"><ele>0.0</ele><time>2026-05-02T07:51:14.562Z</time></trkpt><trkpt lat="39.8809717" lon="8.5651358"><ele>0.0</ele><time>2026-05-02T07:51:15.561Z</time></trkpt><trkpt lat="39.8810005" lon="8.5649873"><ele>0.0</ele><time>2026-05-02T07:51:16.56Z</time></trkpt><trkpt lat="39.8810356" lon="8.564847"><ele>0.0</ele><time>2026-05-02T07:51:17.561Z</time></trkpt><trkpt lat="39.8810741" lon="8.5647152"><ele>0.0</ele><time>2026-05-02T07:51:18.56Z</time></trkpt><trkpt lat="39.8811151" lon="8.5645913"><ele>0.0</ele><time>2026-05-02T07:51:19.561Z</time></trkpt><trkpt lat="39.8811575" lon="8.5644727"><ele>-0.2</ele><time>2026-05-02T07:51:20.561Z</time></trkpt><trkpt lat="39.8811949" lon="8.5643564"><ele>-0.4</ele><time>2026-05-02T07:51:21.562Z</time></trkpt><trkpt lat="39.8812287" lon="8.5642405"><ele>-0.6000000000000001</ele><time>2026-05-02T07:51:22.56Z</time></trkpt><trkpt lat="39.8812635" lon="8.5641241"><ele>-0.8</ele><time>2026-05-02T07:51:23.561Z</time></trkpt><trkpt lat="39.8813032" lon="8.5640112"><ele>-1.0</ele><time>2026-05-02T07:51:24.56Z</time></trkpt><trkpt lat="39.8813448" lon="8.5638938"><ele>-1.0</ele><time>2026-05-02T07:51:25.561Z</time></trkpt><trkpt lat="39.8813835" lon="8.5637774"><ele>-1.0</ele><time>2026-05-02T07:51:26.561Z</time></trkpt><trkpt lat="39.8814233" lon="8.5636601"><ele>-1.0</ele><time>2026-05-02T07:51:27.56Z</time></trkpt><trkpt lat="39.8814652" lon="8.5635446"><ele>-1.0</ele><time>2026-05-02T07:51:28.561Z</time></trkpt><trkpt lat="39.8815079" lon="8.5634294"><ele>-1.0</ele><time>2026-05-02T07:51:29.561Z</time></trkpt><trkpt lat="39.8815487" lon="8.5633119"><ele>-0.8</ele><time>2026-05-02T07:51:30.561Z</time></trkpt><trkpt lat="39.8815891" lon="8.5631957"><ele>-0.6000000000000001</ele><time>2026-05-02T07:51:31.561Z</time></trkpt><trkpt lat="39.8816296" lon="8.5630813"><ele>-0.4</ele><time>2026-05-02T07:51:32.562Z</time></trkpt><trkpt lat="39.8816699" lon="8.5629673"><ele>-0.2</ele><time>2026-05-02T07:51:33.56Z</time></trkpt><trkpt lat="39.881712" lon="8.5628534"><ele>0.0</ele><time>2026-05-02T07:51:34.56Z</time></trkpt><trkpt lat="39.881755" lon="8.5627375"><ele>0.2</ele><time>2026-05-02T07:51:35.561Z</time></trkpt><trkpt lat="39.8817982" lon="8.5626219"><ele>0.4</ele><time>2026-05-02T07:51:36.561Z</time></trkpt><trkpt lat="39.881838" lon="8.5625101"><ele>0.6000000000000001</ele><time>2026-05-02T07:51:37.561Z</time></trkpt><trkpt lat="39.8818733" lon="8.5623983"><ele>0.8</ele><time>2026-05-02T07:51:38.562Z</time></trkpt><trkpt lat="39.8819107" lon="8.5622954"><ele>1.0</ele><time>2026-05-02T07:51:39.561Z</time></trkpt><trkpt lat="39.8819497" lon="8.5621934"><ele>1.0</ele><time>2026-05-02T07:51:40.56Z</time></trkpt><trkpt lat="39.8819873" lon="8.5620869"><ele>1.0</ele><time>2026-05-02T07:51:41.56Z</time></trkpt><trkpt lat="39.8820253" lon="8.5619753"><ele>1.0</ele><time>2026-05-02T07:51:42.561Z</time></trkpt><trkpt lat="39.8820627" lon="8.5618576"><ele>1.0</ele><time>2026-05-02T07:51:43.56Z</time></trkpt><trkpt lat="39.882104" lon="8.5617404"><ele>1.0</ele><time>2026-05-02T07:51:44.561Z</time></trkpt><trkpt lat="39.882147" lon="8.5616111"><ele>1.0</ele><time>2026-05-02T07:51:45.56Z</time></trkpt><trkpt lat="39.8821924" lon="8.5614832"><ele>1.0</ele><time>2026-05-02T07:51:46.56Z</time></trkpt><trkpt lat="39.8822366" lon="8.561353"><ele>1.0</ele><time>2026-05-02T07:51:47.561Z</time></trkpt><trkpt lat="39.8822801" lon="8.5612239"><ele>1.0</ele><time>2026-05-02T07:51:48.561Z</time></trkpt><trkpt lat="39.8823249" lon="8.5610969"><ele>1.0</ele><time>2026-05-02T07:51:49.561Z</time></trkpt><trkpt lat="39.882366" lon="8.5609755"><ele>1.0</ele><time>2026-05-02T07:51:50.561Z</time></trkpt><trkpt lat="39.8824061" lon="8.5608502"><ele>1.0</ele><time>2026-05-02T07:51:51.561Z</time></trkpt><trkpt lat="39.8824558" lon="8.5607158"><ele>1.0</ele><time>2026-05-02T07:51:52.561Z</time></trkpt><trkpt lat="39.8825041" lon="8.5605787"><ele>1.0</ele><time>2026-05-02T07:51:53.56Z</time></trkpt><trkpt lat="39.8825507" lon="8.5604429"><ele>1.0</ele><time>2026-05-02T07:51:54.56Z</time></trkpt><trkpt lat="39.8825956" lon="8.560303"><ele>1.0</ele><time>2026-05-02T07:51:55.561Z</time></trkpt><trkpt lat="39.8826417" lon="8.5601622"><ele>1.0</ele><time>2026-05-02T07:51:56.561Z</time></trkpt><trkpt lat="39.8826925" lon="8.5600173"><ele>1.0</ele><time>2026-05-02T07:51:57.562Z</time></trkpt><trkpt lat="39.8827413" lon="8.5598765"><ele>1.0</ele><time>2026-05-02T07:51:58.562Z</time></trkpt><trkpt lat="39.882791" lon="8.5597317"><ele>1.0</ele><time>2026-05-02T07:51:59.56Z</time></trkpt><trkpt lat="39.8828352" lon="8.5595912"><ele>1.0</ele><time>2026-05-02T07:52:00.561Z</time></trkpt><trkpt lat="39.8828838" lon="8.5594508"><ele>1.0</ele><time>2026-05-02T07:52:01.561Z</time></trkpt><trkpt lat="39.8829305" lon="8.559307"><ele>1.0</ele><time>2026-05-02T07:52:02.561Z</time></trkpt><trkpt lat="39.8829732" lon="8.5591822"><ele>0.8</ele><time>2026-05-02T07:52:03.56Z</time></trkpt><trkpt lat="39.8830138" lon="8.5590595"><ele>0.6000000000000001</ele><time>2026-05-02T07:52:04.56Z</time></trkpt><trkpt lat="39.883053" lon="8.5589445"><ele>0.4</ele><time>2026-05-02T07:52:05.561Z</time></trkpt><trkpt lat="39.8830859" lon="8.5588433"><ele>0.2</ele><time>2026-05-02T07:52:06.561Z</time></trkpt><trkpt lat="39.88311" lon="8.5587532"><ele>0.0</ele><time>2026-05-02T07:52:07.561Z</time></trkpt><trkpt lat="39.8831782" lon="8.5586357"><ele>-0.14285714285714285</ele><time>2026-05-02T07:52:09.561Z</time></trkpt><trkpt lat="39.8832343" lon="8.5585967"><ele>-0.2857142857142857</ele><time>2026-05-02T07:52:10.562Z</time></trkpt><trkpt lat="39.8833034" lon="8.5585683"><ele>-0.42857142857142855</ele><time>2026-05-02T07:52:11.56Z</time></trkpt><trkpt lat="39.8833766" lon="8.5585487"><ele>-0.5714285714285714</ele><time>2026-05-02T07:52:12.562Z</time></trkpt><trkpt lat="39.8834467" lon="8.5585362"><ele>-0.7142857142857142</ele><time>2026-05-02T07:52:13.56Z</time></trkpt><trkpt lat="39.8835211" lon="8.5585269"><ele>-0.8571428571428571</ele><time>2026-05-02T07:52:14.561Z</time></trkpt><trkpt lat="39.8835923" lon="8.5585114"><ele>-1.0</ele><time>2026-05-02T07:52:15.562Z</time></trkpt><trkpt lat="39.8836643" lon="8.5584874"><ele>-0.6666666666666666</ele><time>2026-05-02T07:52:16.561Z</time></trkpt><trkpt lat="39.8837328" lon="8.5584617"><ele>-0.3333333333333333</ele><time>2026-05-02T07:52:17.56Z</time></trkpt><trkpt lat="39.8838034" lon="8.5584349"><ele>0.0</ele><time>2026-05-02T07:52:18.561Z</time></trkpt><trkpt lat="39.8838758" lon="8.5584097"><ele>0.3333333333333333</ele><time>2026-05-02T07:52:19.56Z</time></trkpt><trkpt lat="39.8839515" lon="8.5583895"><ele>0.6666666666666666</ele><time>2026-05-02T07:52:20.562Z</time></trkpt><trkpt lat="39.8840293" lon="8.5583654"><ele>1.0</ele><time>2026-05-02T07:52:21.561Z</time></trkpt><trkpt lat="39.8841069" lon="8.5583384"><ele>0.9999999999999999</ele><time>2026-05-02T07:52:22.561Z</time></trkpt><trkpt lat="39.8841747" lon="8.5583222"><ele>1.0</ele><time>2026-05-02T07:52:23.562Z</time></trkpt><trkpt lat="39.884245" lon="8.5583067"><ele>1.0</ele><time>2026-05-02T07:52:24.56Z</time></trkpt><trkpt lat="39.8843152" lon="8.5582904"><ele>1.0</ele><time>2026-05-02T07:52:25.561Z</time></trkpt><trkpt lat="39.8844005" lon="8.5582658"><ele>0.9999999999999999</ele><time>2026-05-02T07:52:26.561Z</time></trkpt><trkpt lat="39.8845061" lon="8.5582304"><ele>1.0</ele><time>2026-05-02T07:52:27.561Z</time></trkpt><trkpt lat="39.8846326" lon="8.55819"><ele>1.0</ele><time>2026-05-02T07:52:28.561Z</time></trkpt><trkpt lat="39.8847867" lon="8.5581416"><ele>1.0</ele><time>2026-05-02T07:52:29.561Z</time></trkpt><trkpt lat="39.8849526" lon="8.558093"><ele>1.0</ele><time>2026-05-02T07:52:30.56Z</time></trkpt><trkpt lat="39.8851286" lon="8.5580438"><ele>1.0</ele><time>2026-05-02T07:52:31.559Z</time></trkpt><trkpt lat="39.8853036" lon="8.5579968"><ele>1.0</ele><time>2026-05-02T07:52:32.56Z</time></trkpt><trkpt lat="39.8854813" lon="8.5579505"><ele>1.0</ele><time>2026-05-02T07:52:33.561Z</time></trkpt><trkpt lat="39.8856611" lon="8.5578996"><ele>1.0</ele><time>2026-05-02T07:52:34.561Z</time></trkpt><trkpt lat="39.8858267" lon="8.5578515"><ele>1.0</ele><time>2026-05-02T07:52:35.559Z</time></trkpt><trkpt lat="39.8859889" lon="8.557807"><ele>1.0</ele><time>2026-05-02T07:52:36.559Z</time></trkpt><trkpt lat="39.8861553" lon="8.5577626"><ele>0.6666666666666666</ele><time>2026-05-02T07:52:37.56Z</time></trkpt><trkpt lat="39.8863189" lon="8.5577153"><ele>0.3333333333333333</ele><time>2026-05-02T07:52:38.56Z</time></trkpt><trkpt lat="39.8864823" lon="8.5576735"><ele>0.0</ele><time>2026-05-02T07:52:39.56Z</time></trkpt><trkpt lat="39.8866424" lon="8.5576312"><ele>0.3333333333333333</ele><time>2026-05-02T07:52:40.56Z</time></trkpt><trkpt lat="39.8868008" lon="8.5575862"><ele>0.6666666666666666</ele><time>2026-05-02T07:52:41.56Z</time></trkpt><trkpt lat="39.8869608" lon="8.5575402"><ele>1.0</ele><time>2026-05-02T07:52:42.561Z</time></trkpt><trkpt lat="39.8871188" lon="8.5575009"><ele>1.0</ele><time>2026-05-02T07:52:43.56Z</time></trkpt><trkpt lat="39.887275" lon="8.5574656"><ele>1.0</ele><time>2026-05-02T07:52:44.561Z</time></trkpt><trkpt lat="39.8874331" lon="8.557423"><ele>1.0</ele><time>2026-05-02T07:52:45.561Z</time></trkpt><trkpt lat="39.8875908" lon="8.5573806"><ele>1.0</ele><time>2026-05-02T07:52:46.56Z</time></trkpt><trkpt lat="39.8877522" lon="8.5573344"><ele>1.0</ele><time>2026-05-02T07:52:47.559Z</time></trkpt><trkpt lat="39.8879129" lon="8.5572861"><ele>1.0</ele><time>2026-05-02T07:52:48.561Z</time></trkpt><trkpt lat="39.8880725" lon="8.5572384"><ele>1.0</ele><time>2026-05-02T07:52:49.561Z</time></trkpt><trkpt lat="39.888231" lon="8.5571893"><ele>1.0</ele><time>2026-05-02T07:52:50.56Z</time></trkpt><trkpt lat="39.8883899" lon="8.5571416"><ele>1.0</ele><time>2026-05-02T07:52:51.56Z</time></trkpt><trkpt lat="39.8885477" lon="8.5570971"><ele>1.0</ele><time>2026-05-02T07:52:52.56Z</time></trkpt><trkpt lat="39.8887047" lon="8.5570554"><ele>1.0</ele><time>2026-05-02T07:52:53.561Z</time></trkpt><trkpt lat="39.8888579" lon="8.5570199"><ele>1.0</ele><time>2026-05-02T07:52:54.559Z</time></trkpt><trkpt lat="39.8890057" lon="8.5569863"><ele>1.0</ele><time>2026-05-02T07:52:55.56Z</time></trkpt><trkpt lat="39.8891536" lon="8.5569561"><ele>1.0</ele><time>2026-05-02T07:52:56.56Z</time></trkpt><trkpt lat="39.8893084" lon="8.5569263"><ele>1.0</ele><time>2026-05-02T07:52:57.559Z</time></trkpt><trkpt lat="39.8894668" lon="8.5568912"><ele>1.3333333333333333</ele><time>2026-05-02T07:52:58.561Z</time></trkpt><trkpt lat="39.8896276" lon="8.556842"><ele>1.6666666666666665</ele><time>2026-05-02T07:52:59.56Z</time></trkpt><trkpt lat="39.8897927" lon="8.5567862"><ele>2.0</ele><time>2026-05-02T07:53:00.559Z</time></trkpt><trkpt lat="39.8899609" lon="8.5567216"><ele>2.0</ele><time>2026-05-02T07:53:01.559Z</time></trkpt><trkpt lat="39.890132" lon="8.5566597"><ele>2.0</ele><time>2026-05-02T07:53:02.559Z</time></trkpt><trkpt lat="39.8903036" lon="8.5566088"><ele>2.0</ele><time>2026-05-02T07:53:03.56Z</time></trkpt><trkpt lat="39.8904836" lon="8.5565614"><ele>2.0</ele><time>2026-05-02T07:53:04.56Z</time></trkpt><trkpt lat="39.8906629" lon="8.5565137"><ele>2.0</ele><time>2026-05-02T07:53:05.56Z</time></trkpt><trkpt lat="39.8908404" lon="8.5564665"><ele>2.0</ele><time>2026-05-02T07:53:06.56Z</time></trkpt><trkpt lat="39.8910151" lon="8.5564164"><ele>2.0</ele><time>2026-05-02T07:53:07.559Z</time></trkpt><trkpt lat="39.8911898" lon="8.5563652"><ele>2.0</ele><time>2026-05-02T07:53:08.56Z</time></trkpt><trkpt lat="39.8913637" lon="8.5563112"><ele>2.0</ele><time>2026-05-02T07:53:09.56Z</time></trkpt><trkpt lat="39.8915347" lon="8.5562608"><ele>2.0</ele><time>2026-05-02T07:53:10.56Z</time></trkpt><trkpt lat="39.8917066" lon="8.5562109"><ele>2.0</ele><time>2026-05-02T07:53:11.559Z</time></trkpt><trkpt lat="39.891877" lon="8.5561652"><ele>2.0</ele><time>2026-05-02T07:53:12.561Z</time></trkpt><trkpt lat="39.8920509" lon="8.5561218"><ele>2.0</ele><time>2026-05-02T07:53:13.561Z</time></trkpt><trkpt lat="39.8922243" lon="8.5560748"><ele>2.0</ele><time>2026-05-02T07:53:14.56Z</time></trkpt><trkpt lat="39.8923929" lon="8.5560258"><ele>2.0</ele><time>2026-05-02T07:53:15.56Z</time></trkpt><trkpt lat="39.8925634" lon="8.555975"><ele>1.3333333333333333</ele><time>2026-05-02T07:53:16.56Z</time></trkpt><trkpt lat="39.8927323" lon="8.5559239"><ele>0.6666666666666666</ele><time>2026-05-02T07:53:17.561Z</time></trkpt><trkpt lat="39.8928958" lon="8.5558748"><ele>0.0</ele><time>2026-05-02T07:53:18.56Z</time></trkpt><trkpt lat="39.8930579" lon="8.5558333"><ele>0.0</ele><time>2026-05-02T07:53:19.56Z</time></trkpt><trkpt lat="39.8932166" lon="8.555799"><ele>0.0</ele><time>2026-05-02T07:53:20.559Z</time></trkpt><trkpt lat="39.893381" lon="8.5557749"><ele>0.0</ele><time>2026-05-02T07:53:21.559Z</time></trkpt><trkpt lat="39.8935491" lon="8.5557497"><ele>0.3333333333333333</ele><time>2026-05-02T07:53:22.56Z</time></trkpt><trkpt lat="39.8937192" lon="8.5557165"><ele>0.6666666666666666</ele><time>2026-05-02T07:53:23.561Z</time></trkpt><trkpt lat="39.893892" lon="8.5556734"><ele>1.0</ele><time>2026-05-02T07:53:24.561Z</time></trkpt><trkpt lat="39.8940696" lon="8.55563"><ele>1.0</ele><time>2026-05-02T07:53:25.561Z</time></trkpt><trkpt lat="39.8942507" lon="8.5555948"><ele>1.0</ele><time>2026-05-02T07:53:26.56Z</time></trkpt><trkpt lat="39.8944331" lon="8.5555637"><ele>1.0</ele><time>2026-05-02T07:53:27.561Z</time></trkpt><trkpt lat="39.8946154" lon="8.5555344"><ele>1.0</ele><time>2026-05-02T07:53:28.561Z</time></trkpt><trkpt lat="39.894796" lon="8.555511"><ele>1.0</ele><time>2026-05-02T07:53:29.56Z</time></trkpt><trkpt lat="39.8949738" lon="8.5554941"><ele>1.0</ele><time>2026-05-02T07:53:30.56Z</time></trkpt><trkpt lat="39.8951503" lon="8.5554744"><ele>1.0</ele><time>2026-05-02T07:53:31.56Z</time></trkpt><trkpt lat="39.8953244" lon="8.5554559"><ele>1.0</ele><time>2026-05-02T07:53:32.56Z</time></trkpt><trkpt lat="39.8954988" lon="8.5554325"><ele>1.0</ele><time>2026-05-02T07:53:33.561Z</time></trkpt><trkpt lat="39.8956735" lon="8.5554103"><ele>1.0</ele><time>2026-05-02T07:53:34.56Z</time></trkpt><trkpt lat="39.8958481" lon="8.5553874"><ele>1.0</ele><time>2026-05-02T07:53:35.561Z</time></trkpt><trkpt lat="39.8960238" lon="8.5553629"><ele>1.0</ele><time>2026-05-02T07:53:36.561Z</time></trkpt><trkpt lat="39.896199" lon="8.5553416"><ele>1.0</ele><time>2026-05-02T07:53:37.56Z</time></trkpt><trkpt lat="39.8963706" lon="8.5553198"><ele>1.0</ele><time>2026-05-02T07:53:38.56Z</time></trkpt><trkpt lat="39.8965428" lon="8.5553018"><ele>1.0</ele><time>2026-05-02T07:53:39.56Z</time></trkpt><trkpt lat="39.8967122" lon="8.5552811"><ele>1.6666666666666665</ele><time>2026-05-02T07:53:40.56Z</time></trkpt><trkpt lat="39.8968793" lon="8.5552609"><ele>2.3333333333333335</ele><time>2026-05-02T07:53:41.561Z</time></trkpt><trkpt lat="39.8970444" lon="8.5552406"><ele>3.0</ele><time>2026-05-02T07:53:42.56Z</time></trkpt><trkpt lat="39.8972093" lon="8.5552189"><ele>3.0</ele><time>2026-05-02T07:53:43.561Z</time></trkpt><trkpt lat="39.8973751" lon="8.5551961"><ele>3.0</ele><time>2026-05-02T07:53:44.56Z</time></trkpt><trkpt lat="39.8975379" lon="8.5551762"><ele>3.0</ele><time>2026-05-02T07:53:45.56Z</time></trkpt><trkpt lat="39.8977008" lon="8.5551546"><ele>3.0</ele><time>2026-05-02T07:53:46.56Z</time></trkpt><trkpt lat="39.8978607" lon="8.5551355"><ele>3.0</ele><time>2026-05-02T07:53:47.559Z</time></trkpt><trkpt lat="39.8980162" lon="8.5551181"><ele>3.0</ele><time>2026-05-02T07:53:48.56Z</time></trkpt><trkpt lat="39.8981512" lon="8.5551041"><ele>3.0</ele><time>2026-05-02T07:53:49.559Z</time></trkpt><trkpt lat="39.8982725" lon="8.5550923"><ele>3.0</ele><time>2026-05-02T07:53:50.56Z</time></trkpt><trkpt lat="39.8983762" lon="8.5550779"><ele>3.0</ele><time>2026-05-02T07:53:51.559Z</time></trkpt><trkpt lat="39.8984674" lon="8.5550665"><ele>3.0</ele><time>2026-05-02T07:53:52.56Z</time></trkpt><trkpt lat="39.8985419" lon="8.5550722"><ele>3.0</ele><time>2026-05-02T07:53:53.56Z</time></trkpt><trkpt lat="39.8986307" lon="8.5551531"><ele>3.0</ele><time>2026-05-02T07:53:55.56Z</time></trkpt><trkpt lat="39.8987058" lon="8.5552448"><ele>3.0</ele><time>2026-05-02T07:53:57.56Z</time></trkpt><trkpt lat="39.8987629" lon="8.5552904"><ele>3.0</ele><time>2026-05-02T07:53:58.561Z</time></trkpt><trkpt lat="39.8988745" lon="8.555305"><ele>3.0</ele><time>2026-05-02T07:53:59.56Z</time></trkpt><trkpt lat="39.8989829" lon="8.5553338"><ele>3.0</ele><time>2026-05-02T07:54:00.559Z</time></trkpt><trkpt lat="39.8990907" lon="8.5553478"><ele>3.0</ele><time>2026-05-02T07:54:01.559Z</time></trkpt><trkpt lat="39.8991789" lon="8.5553556"><ele>3.0</ele><time>2026-05-02T07:54:02.56Z</time></trkpt><trkpt lat="39.8992581" lon="8.5553615"><ele>3.0</ele><time>2026-05-02T07:54:03.559Z</time></trkpt><trkpt lat="39.8993302" lon="8.5553875"><ele>3.0</ele><time>2026-05-02T07:54:04.561Z</time></trkpt><trkpt lat="39.8994" lon="8.5554321"><ele>3.0</ele><time>2026-05-02T07:54:05.559Z</time></trkpt><trkpt lat="39.8994676" lon="8.5555006"><ele>3.0</ele><time>2026-05-02T07:54:06.559Z</time></trkpt><trkpt lat="39.8995421" lon="8.5555828"><ele>2.6666666666666665</ele><time>2026-05-02T07:54:07.559Z</time></trkpt><trkpt lat="39.8996178" lon="8.5556573"><ele>2.3333333333333335</ele><time>2026-05-02T07:54:08.559Z</time></trkpt><trkpt lat="39.8996973" lon="8.5557076"><ele>2.0</ele><time>2026-05-02T07:54:09.56Z</time></trkpt><trkpt lat="39.8997819" lon="8.5557378"><ele>1.6666666666666665</ele><time>2026-05-02T07:54:10.56Z</time></trkpt><trkpt lat="39.8998637" lon="8.5557411"><ele>1.3333333333333333</ele><time>2026-05-02T07:54:11.56Z</time></trkpt><trkpt lat="39.8999353" lon="8.5557168"><ele>1.0</ele><time>2026-05-02T07:54:12.559Z</time></trkpt><trkpt lat="39.8999995" lon="8.5556659"><ele>1.0</ele><time>2026-05-02T07:54:13.559Z</time></trkpt><trkpt lat="39.900076" lon="8.5555793"><ele>1.0</ele><time>2026-05-02T07:54:14.559Z</time></trkpt><trkpt lat="39.900159" lon="8.5554588"><ele>1.0</ele><time>2026-05-02T07:54:15.559Z</time></trkpt><trkpt lat="39.9002618" lon="8.555346"><ele>1.0</ele><time>2026-05-02T07:54:16.56Z</time></trkpt><trkpt lat="39.9003787" lon="8.5552493"><ele>1.6666666666666665</ele><time>2026-05-02T07:54:17.561Z</time></trkpt><trkpt lat="39.9005096" lon="8.5551704"><ele>2.3333333333333335</ele><time>2026-05-02T07:54:18.56Z</time></trkpt><trkpt lat="39.9006605" lon="8.5550998"><ele>3.0</ele><time>2026-05-02T07:54:19.56Z</time></trkpt><trkpt lat="39.9008192" lon="8.5550359"><ele>3.666666666666667</ele><time>2026-05-02T07:54:20.56Z</time></trkpt><trkpt lat="39.9009905" lon="8.5549745"><ele>4.333333333333334</ele><time>2026-05-02T07:54:21.56Z</time></trkpt><trkpt lat="39.9011651" lon="8.5549138"><ele>5.0</ele><time>2026-05-02T07:54:22.56Z</time></trkpt><trkpt lat="39.9013439" lon="8.5548595"><ele>5.0</ele><time>2026-05-02T07:54:23.561Z</time></trkpt><trkpt lat="39.9015194" lon="8.5548103"><ele>5.0</ele><time>2026-05-02T07:54:24.561Z</time></trkpt><trkpt lat="39.9016932" lon="8.5547687"><ele>5.0</ele><time>2026-05-02T07:54:25.559Z</time></trkpt><trkpt lat="39.9018667" lon="8.5547297"><ele>5.0</ele><time>2026-05-02T07:54:26.56Z</time></trkpt><trkpt lat="39.9020427" lon="8.5546978"><ele>5.0</ele><time>2026-05-02T07:54:27.56Z</time></trkpt><trkpt lat="39.9022166" lon="8.5546691"><ele>5.0</ele><time>2026-05-02T07:54:28.56Z</time></trkpt><trkpt lat="39.9023887" lon="8.5546417"><ele>5.0</ele><time>2026-05-02T07:54:29.561Z</time></trkpt><trkpt lat="39.9025639" lon="8.5546192"><ele>5.0</ele><time>2026-05-02T07:54:30.56Z</time></trkpt><trkpt lat="39.9027362" lon="8.5546012"><ele>5.0</ele><time>2026-05-02T07:54:31.561Z</time></trkpt><trkpt lat="39.9029103" lon="8.5545846"><ele>4.333333333333334</ele><time>2026-05-02T07:54:32.56Z</time></trkpt><trkpt lat="39.9030828" lon="8.5545671"><ele>3.666666666666667</ele><time>2026-05-02T07:54:33.559Z</time></trkpt><trkpt lat="39.9032537" lon="8.554549"><ele>3.0</ele><time>2026-05-02T07:54:34.56Z</time></trkpt><trkpt lat="39.9034219" lon="8.5545235"><ele>3.0</ele><time>2026-05-02T07:54:35.56Z</time></trkpt><trkpt lat="39.9035889" lon="8.5544959"><ele>3.0</ele><time>2026-05-02T07:54:36.559Z</time></trkpt><trkpt lat="39.9037606" lon="8.55447"><ele>3.0</ele><time>2026-05-02T07:54:37.559Z</time></trkpt><trkpt lat="39.9039334" lon="8.5544554"><ele>3.0</ele><time>2026-05-02T07:54:38.56Z</time></trkpt><trkpt lat="39.9041069" lon="8.5544448"><ele>3.0</ele><time>2026-05-02T07:54:39.56Z</time></trkpt><trkpt lat="39.9042822" lon="8.5544387"><ele>3.0</ele><time>2026-05-02T07:54:40.559Z</time></trkpt><trkpt lat="39.9044565" lon="8.5544388"><ele>3.0</ele><time>2026-05-02T07:54:41.56Z</time></trkpt><trkpt lat="39.9046308" lon="8.5544484"><ele>3.0</ele><time>2026-05-02T07:54:42.559Z</time></trkpt><trkpt lat="39.9048047" lon="8.5544532"><ele>3.0</ele><time>2026-05-02T07:54:43.559Z</time></trkpt><trkpt lat="39.9049811" lon="8.554466"><ele>3.0</ele><time>2026-05-02T07:54:44.559Z</time></trkpt><trkpt lat="39.9051594" lon="8.5544889"><ele>3.0</ele><time>2026-05-02T07:54:45.56Z</time></trkpt><trkpt lat="39.9053359" lon="8.5545163"><ele>3.0</ele><time>2026-05-02T07:54:46.56Z</time></trkpt><trkpt lat="39.9055121" lon="8.5545571"><ele>3.0</ele><time>2026-05-02T07:54:47.56Z</time></trkpt><trkpt lat="39.9056867" lon="8.5545964"><ele>3.0</ele><time>2026-05-02T07:54:48.56Z</time></trkpt><trkpt lat="39.9058613" lon="8.5546396"><ele>3.0</ele><time>2026-05-02T07:54:49.559Z</time></trkpt><trkpt lat="39.9060364" lon="8.5546864"><ele>3.666666666666667</ele><time>2026-05-02T07:54:50.56Z</time></trkpt><trkpt lat="39.9062105" lon="8.5547323"><ele>4.333333333333334</ele><time>2026-05-02T07:54:51.56Z</time></trkpt><trkpt lat="39.9063829" lon="8.5547848"><ele>5.0</ele><time>2026-05-02T07:54:52.56Z</time></trkpt><trkpt lat="39.906554" lon="8.5548346"><ele>5.0</ele><time>2026-05-02T07:54:53.56Z</time></trkpt><trkpt lat="39.9067211" lon="8.5548886"><ele>5.0</ele><time>2026-05-02T07:54:54.559Z</time></trkpt><trkpt lat="39.9068865" lon="8.5549462"><ele>5.0</ele><time>2026-05-02T07:54:55.561Z</time></trkpt><trkpt lat="39.9070419" lon="8.5550037"><ele>4.666666666666667</ele><time>2026-05-02T07:54:56.561Z</time></trkpt><trkpt lat="39.9071922" lon="8.5550487"><ele>4.333333333333333</ele><time>2026-05-02T07:54:57.56Z</time></trkpt><trkpt lat="39.9073369" lon="8.5550918"><ele>4.0</ele><time>2026-05-02T07:54:58.559Z</time></trkpt><trkpt lat="39.9074779" lon="8.5551514"><ele>3.6666666666666665</ele><time>2026-05-02T07:54:59.56Z</time></trkpt><trkpt lat="39.9076244" lon="8.5552254"><ele>3.333333333333333</ele><time>2026-05-02T07:55:00.56Z</time></trkpt><trkpt lat="39.9077698" lon="8.5553074"><ele>3.0</ele><time>2026-05-02T07:55:01.56Z</time></trkpt><trkpt lat="39.9079207" lon="8.5553896"><ele>2.6666666666666665</ele><time>2026-05-02T07:55:02.56Z</time></trkpt><trkpt lat="39.9080635" lon="8.5554702"><ele>2.333333333333333</ele><time>2026-05-02T07:55:03.56Z</time></trkpt><trkpt lat="39.9082042" lon="8.5555523"><ele>2.0</ele><time>2026-05-02T07:55:04.56Z</time></trkpt><trkpt lat="39.9083457" lon="8.5556444"><ele>2.333333333333333</ele><time>2026-05-02T07:55:05.561Z</time></trkpt><trkpt lat="39.9084844" lon="8.5557455"><ele>2.6666666666666665</ele><time>2026-05-02T07:55:06.561Z</time></trkpt><trkpt lat="39.9086214" lon="8.5558466"><ele>3.0</ele><time>2026-05-02T07:55:07.561Z</time></trkpt><trkpt lat="39.9087602" lon="8.5559566"><ele>3.0</ele><time>2026-05-02T07:55:08.56Z</time></trkpt><trkpt lat="39.9089" lon="8.5560698"><ele>3.0</ele><time>2026-05-02T07:55:09.56Z</time></trkpt><trkpt lat="39.9090402" lon="8.5561852"><ele>3.0</ele><time>2026-05-02T07:55:10.56Z</time></trkpt><trkpt lat="39.9091769" lon="8.5562974"><ele>3.0</ele><time>2026-05-02T07:55:11.56Z</time></trkpt><trkpt lat="39.9093129" lon="8.5564105"><ele>3.0</ele><time>2026-05-02T07:55:12.559Z</time></trkpt><trkpt lat="39.9094469" lon="8.5565226"><ele>3.0</ele><time>2026-05-02T07:55:13.561Z</time></trkpt><trkpt lat="39.9095755" lon="8.5566349"><ele>3.0</ele><time>2026-05-02T07:55:14.561Z</time></trkpt><trkpt lat="39.9097005" lon="8.5567539"><ele>3.0</ele><time>2026-05-02T07:55:15.561Z</time></trkpt><trkpt lat="39.9098208" lon="8.5568795"><ele>3.0</ele><time>2026-05-02T07:55:16.56Z</time></trkpt><trkpt lat="39.9099391" lon="8.5570197"><ele>3.0</ele><time>2026-05-02T07:55:17.56Z</time></trkpt><trkpt lat="39.9100553" lon="8.5571698"><ele>3.0</ele><time>2026-05-02T07:55:18.559Z</time></trkpt><trkpt lat="39.9101507" lon="8.5573095"><ele>3.0</ele><time>2026-05-02T07:55:19.56Z</time></trkpt><trkpt lat="39.9102367" lon="8.5574383"><ele>3.0</ele><time>2026-05-02T07:55:20.559Z</time></trkpt><trkpt lat="39.9103135" lon="8.5575495"><ele>3.1666666666666665</ele><time>2026-05-02T07:55:21.56Z</time></trkpt><trkpt lat="39.910379" lon="8.5576475"><ele>3.333333333333333</ele><time>2026-05-02T07:55:22.559Z</time></trkpt><trkpt lat="39.9104371" lon="8.5577364"><ele>3.5</ele><time>2026-05-02T07:55:23.56Z</time></trkpt><trkpt lat="39.9104868" lon="8.5578174"><ele>3.6666666666666665</ele><time>2026-05-02T07:55:24.561Z</time></trkpt><trkpt lat="39.9105285" lon="8.557896"><ele>3.833333333333333</ele><time>2026-05-02T07:55:25.561Z</time></trkpt><trkpt lat="39.9105544" lon="8.5579862"><ele>4.0</ele><time>2026-05-02T07:55:26.561Z</time></trkpt><trkpt lat="39.9105656" lon="8.5580889"><ele>3.6666666666666665</ele><time>2026-05-02T07:55:27.561Z</time></trkpt><trkpt lat="39.9105654" lon="8.5581964"><ele>3.333333333333333</ele><time>2026-05-02T07:55:28.56Z</time></trkpt><trkpt lat="39.9105785" lon="8.5583084"><ele>3.0</ele><time>2026-05-02T07:55:29.559Z</time></trkpt><trkpt lat="39.9106171" lon="8.5584138"><ele>2.6666666666666665</ele><time>2026-05-02T07:55:30.56Z</time></trkpt><trkpt lat="39.9106733" lon="8.5585018"><ele>2.333333333333333</ele><time>2026-05-02T07:55:31.56Z</time></trkpt><trkpt lat="39.9107444" lon="8.5585629"><ele>2.0</ele><time>2026-05-02T07:55:32.56Z</time></trkpt><trkpt lat="39.9108181" lon="8.558597"><ele>1.9999999999999998</ele><time>2026-05-02T07:55:33.561Z</time></trkpt><trkpt lat="39.9108998" lon="8.5585964"><ele>2.0</ele><time>2026-05-02T07:55:34.56Z</time></trkpt><trkpt lat="39.9109781" lon="8.5585702"><ele>2.0</ele><time>2026-05-02T07:55:35.56Z</time></trkpt><trkpt lat="39.9110505" lon="8.5585186"><ele>2.0</ele><time>2026-05-02T07:55:36.559Z</time></trkpt><trkpt lat="39.9111061" lon="8.5584405"><ele>1.9999999999999998</ele><time>2026-05-02T07:55:37.559Z</time></trkpt><trkpt lat="39.9111423" lon="8.5583479"><ele>2.0</ele><time>2026-05-02T07:55:38.559Z</time></trkpt><trkpt lat="39.9111605" lon="8.5582391"><ele>2.1666666666666665</ele><time>2026-05-02T07:55:39.561Z</time></trkpt><trkpt lat="39.9111579" lon="8.5581336"><ele>2.333333333333333</ele><time>2026-05-02T07:55:40.561Z</time></trkpt><trkpt lat="39.9111329" lon="8.55804"><ele>2.5</ele><time>2026-05-02T07:55:41.559Z</time></trkpt><trkpt lat="39.9110933" lon="8.557947"><ele>2.6666666666666665</ele><time>2026-05-02T07:55:42.56Z</time></trkpt><trkpt lat="39.9110443" lon="8.5578519"><ele>2.8333333333333335</ele><time>2026-05-02T07:55:43.56Z</time></trkpt><trkpt lat="39.9109962" lon="8.5577427"><ele>3.0</ele><time>2026-05-02T07:55:44.56Z</time></trkpt><trkpt lat="39.9109656" lon="8.5576139"><ele>3.0</ele><time>2026-05-02T07:55:45.559Z</time></trkpt><trkpt lat="39.9109509" lon="8.5574672"><ele>3.0</ele><time>2026-05-02T07:55:46.56Z</time></trkpt><trkpt lat="39.9109547" lon="8.5573112"><ele>3.0</ele><time>2026-05-02T07:55:47.561Z</time></trkpt><trkpt lat="39.9109708" lon="8.5571407"><ele>3.0</ele><time>2026-05-02T07:55:48.56Z</time></trkpt><trkpt lat="39.910987" lon="8.5569574"><ele>2.6666666666666665</ele><time>2026-05-02T07:55:49.56Z</time></trkpt><trkpt lat="39.9110076" lon="8.5567648"><ele>2.333333333333333</ele><time>2026-05-02T07:55:50.56Z</time></trkpt><trkpt lat="39.9110307" lon="8.5565641"><ele>2.0</ele><time>2026-05-02T07:55:51.559Z</time></trkpt><trkpt lat="39.9110568" lon="8.5563614"><ele>2.0</ele><time>2026-05-02T07:55:52.56Z</time></trkpt><trkpt lat="39.9110782" lon="8.5561492"><ele>2.0</ele><time>2026-05-02T07:55:53.56Z</time></trkpt><trkpt lat="39.9110965" lon="8.5559313"><ele>2.0</ele><time>2026-05-02T07:55:54.559Z</time></trkpt><trkpt lat="39.9111192" lon="8.5557109"><ele>2.0</ele><time>2026-05-02T07:55:55.559Z</time></trkpt><trkpt lat="39.9111432" lon="8.5554906"><ele>2.0</ele><time>2026-05-02T07:55:56.559Z</time></trkpt><trkpt lat="39.911166" lon="8.5552647"><ele>2.0</ele><time>2026-05-02T07:55:57.559Z</time></trkpt><trkpt lat="39.911191" lon="8.5550345"><ele>2.0</ele><time>2026-05-02T07:55:58.559Z</time></trkpt><trkpt lat="39.9112116" lon="8.5548023"><ele>2.0</ele><time>2026-05-02T07:55:59.559Z</time></trkpt><trkpt lat="39.911232" lon="8.5545627"><ele>2.0</ele><time>2026-05-02T07:56:00.559Z</time></trkpt><trkpt lat="39.9112534" lon="8.5543232"><ele>2.0</ele><time>2026-05-02T07:56:01.561Z</time></trkpt><trkpt lat="39.9112781" lon="8.5540745"><ele>2.0</ele><time>2026-05-02T07:56:02.56Z</time></trkpt><trkpt lat="39.9112991" lon="8.5538223"><ele>2.0</ele><time>2026-05-02T07:56:03.559Z</time></trkpt><trkpt lat="39.9113203" lon="8.5535676"><ele>2.0</ele><time>2026-05-02T07:56:04.56Z</time></trkpt><trkpt lat="39.9113427" lon="8.553315"><ele>2.0</ele><time>2026-05-02T07:56:05.559Z</time></trkpt><trkpt lat="39.9113662" lon="8.553055"><ele>2.0</ele><time>2026-05-02T07:56:06.56Z</time></trkpt><trkpt lat="39.9113924" lon="8.5527978"><ele>2.333333333333333</ele><time>2026-05-02T07:56:07.561Z</time></trkpt><trkpt lat="39.9114145" lon="8.5525375"><ele>2.6666666666666665</ele><time>2026-05-02T07:56:08.561Z</time></trkpt><trkpt lat="39.9114413" lon="8.5522754"><ele>3.0</ele><time>2026-05-02T07:56:09.56Z</time></trkpt><trkpt lat="39.9114666" lon="8.5520148"><ele>3.0</ele><time>2026-05-02T07:56:10.56Z</time></trkpt><trkpt lat="39.9114916" lon="8.5517568"><ele>3.0</ele><time>2026-05-02T07:56:11.56Z</time></trkpt><trkpt lat="39.9115176" lon="8.5514976"><ele>3.0</ele><time>2026-05-02T07:56:12.561Z</time></trkpt><trkpt lat="39.9115416" lon="8.5512465"><ele>3.0</ele><time>2026-05-02T07:56:13.561Z</time></trkpt><trkpt lat="39.9115657" lon="8.5509984"><ele>3.0</ele><time>2026-05-02T07:56:14.559Z</time></trkpt><trkpt lat="39.9115866" lon="8.5507521"><ele>3.0</ele><time>2026-05-02T07:56:15.56Z</time></trkpt><trkpt lat="39.9116097" lon="8.550506"><ele>3.0</ele><time>2026-05-02T07:56:16.56Z</time></trkpt><trkpt lat="39.9116321" lon="8.5502624"><ele>3.0</ele><time>2026-05-02T07:56:17.561Z</time></trkpt><trkpt lat="39.9116539" lon="8.5500193"><ele>3.0</ele><time>2026-05-02T07:56:18.56Z</time></trkpt><trkpt lat="39.9116756" lon="8.5497759"><ele>3.0</ele><time>2026-05-02T07:56:19.559Z</time></trkpt><trkpt lat="39.9116969" lon="8.5495347"><ele>3.0</ele><time>2026-05-02T07:56:20.559Z</time></trkpt><trkpt lat="39.9117183" lon="8.5492892"><ele>3.0</ele><time>2026-05-02T07:56:21.559Z</time></trkpt><trkpt lat="39.9117416" lon="8.5490439"><ele>3.0</ele><time>2026-05-02T07:56:22.56Z</time></trkpt><trkpt lat="39.911767" lon="8.5487985"><ele>3.0</ele><time>2026-05-02T07:56:23.559Z</time></trkpt><trkpt lat="39.9117902" lon="8.5485469"><ele>3.0</ele><time>2026-05-02T07:56:24.561Z</time></trkpt><trkpt lat="39.9118158" lon="8.5482972"><ele>3.0</ele><time>2026-05-02T07:56:25.561Z</time></trkpt><trkpt lat="39.9118388" lon="8.548053"><ele>3.0</ele><time>2026-05-02T07:56:26.56Z</time></trkpt><trkpt lat="39.9118635" lon="8.5478113"><ele>3.0</ele><time>2026-05-02T07:56:27.56Z</time></trkpt><trkpt lat="39.9118861" lon="8.5475649"><ele>3.0</ele><time>2026-05-02T07:56:28.561Z</time></trkpt><trkpt lat="39.9119097" lon="8.5473242"><ele>3.0</ele><time>2026-05-02T07:56:29.561Z</time></trkpt><trkpt lat="39.9119344" lon="8.5470822"><ele>3.0</ele><time>2026-05-02T07:56:30.56Z</time></trkpt><trkpt lat="39.9119591" lon="8.5468384"><ele>3.0</ele><time>2026-05-02T07:56:31.56Z</time></trkpt><trkpt lat="39.9119839" lon="8.546598"><ele>3.0</ele><time>2026-05-02T07:56:32.559Z</time></trkpt><trkpt lat="39.9120112" lon="8.5463613"><ele>3.0</ele><time>2026-05-02T07:56:33.56Z</time></trkpt><trkpt lat="39.9120372" lon="8.5461248"><ele>2.6666666666666665</ele><time>2026-05-02T07:56:34.559Z</time></trkpt><trkpt lat="39.9120692" lon="8.5458971"><ele>2.333333333333333</ele><time>2026-05-02T07:56:35.56Z</time></trkpt><trkpt lat="39.9121087" lon="8.5456925"><ele>2.0</ele><time>2026-05-02T07:56:36.559Z</time></trkpt><trkpt lat="39.9121609" lon="8.5454888"><ele>2.0</ele><time>2026-05-02T07:56:37.56Z</time></trkpt><trkpt lat="39.912224" lon="8.5452811"><ele>2.0</ele><time>2026-05-02T07:56:38.56Z</time></trkpt><trkpt lat="39.9122915" lon="8.5450749"><ele>2.0</ele><time>2026-05-02T07:56:39.56Z</time></trkpt><trkpt lat="39.912362" lon="8.5448744"><ele>2.0</ele><time>2026-05-02T07:56:40.559Z</time></trkpt><trkpt lat="39.9124393" lon="8.5446813"><ele>2.0</ele><time>2026-05-02T07:56:41.561Z</time></trkpt><trkpt lat="39.9125205" lon="8.544496"><ele>2.0</ele><time>2026-05-02T07:56:42.56Z</time></trkpt><trkpt lat="39.9126111" lon="8.5443141"><ele>2.0</ele><time>2026-05-02T07:56:43.56Z</time></trkpt><trkpt lat="39.9127157" lon="8.5441301"><ele>2.0</ele><time>2026-05-02T07:56:44.56Z</time></trkpt><trkpt lat="39.9128301" lon="8.5439462"><ele>2.0</ele><time>2026-05-02T07:56:45.561Z</time></trkpt><trkpt lat="39.9129546" lon="8.543766"><ele>1.6666666666666665</ele><time>2026-05-02T07:56:46.56Z</time></trkpt><trkpt lat="39.9130854" lon="8.5436003"><ele>1.3333333333333333</ele><time>2026-05-02T07:56:47.56Z</time></trkpt><trkpt lat="39.9132131" lon="8.5434424"><ele>1.0</ele><time>2026-05-02T07:56:48.559Z</time></trkpt><trkpt lat="39.9133338" lon="8.5432872"><ele>1.6666666666666665</ele><time>2026-05-02T07:56:49.559Z</time></trkpt><trkpt lat="39.9134524" lon="8.5431344"><ele>2.3333333333333335</ele><time>2026-05-02T07:56:50.559Z</time></trkpt><trkpt lat="39.913568" lon="8.542992"><ele>3.0</ele><time>2026-05-02T07:56:51.56Z</time></trkpt><trkpt lat="39.9136727" lon="8.5428731"><ele>3.1666666666666665</ele><time>2026-05-02T07:56:52.56Z</time></trkpt><trkpt lat="39.9137639" lon="8.5427805"><ele>3.333333333333333</ele><time>2026-05-02T07:56:53.56Z</time></trkpt><trkpt lat="39.9138394" lon="8.5427165"><ele>3.5</ele><time>2026-05-02T07:56:54.561Z</time></trkpt><trkpt lat="39.9138996" lon="8.5426843"><ele>3.6666666666666665</ele><time>2026-05-02T07:56:55.561Z</time></trkpt><trkpt lat="39.9139934" lon="8.5426793"><ele>3.833333333333333</ele><time>2026-05-02T07:56:57.56Z</time></trkpt><trkpt lat="39.9140597" lon="8.5427041"><ele>4.0</ele><time>2026-05-02T07:56:58.559Z</time></trkpt><trkpt lat="39.9141384" lon="8.5427488"><ele>4.0</ele><time>2026-05-02T07:56:59.559Z</time></trkpt><trkpt lat="39.9142197" lon="8.54279"><ele>4.0</ele><time>2026-05-02T07:57:00.56Z</time></trkpt><trkpt lat="39.9143025" lon="8.5428115"><ele>4.0</ele><time>2026-05-02T07:57:01.559Z</time></trkpt><trkpt lat="39.9143884" lon="8.5428061"><ele>4.0</ele><time>2026-05-02T07:57:02.56Z</time></trkpt><trkpt lat="39.9144794" lon="8.5427695"><ele>4.0</ele><time>2026-05-02T07:57:03.559Z</time></trkpt><trkpt lat="39.9145634" lon="8.5427026"><ele>4.4</ele><time>2026-05-02T07:57:04.56Z</time></trkpt><trkpt lat="39.9146329" lon="8.5426084"><ele>4.800000000000001</ele><time>2026-05-02T07:57:05.561Z</time></trkpt><trkpt lat="39.9146793" lon="8.5424905"><ele>5.199999999999999</ele><time>2026-05-02T07:57:06.559Z</time></trkpt><trkpt lat="39.9146995" lon="8.5423538"><ele>5.6</ele><time>2026-05-02T07:57:07.561Z</time></trkpt><trkpt lat="39.9146873" lon="8.5422051"><ele>6.0</ele><time>2026-05-02T07:57:08.561Z</time></trkpt><trkpt lat="39.9146486" lon="8.5420806"><ele>6.0</ele><time>2026-05-02T07:57:09.56Z</time></trkpt><trkpt lat="39.9146037" lon="8.5419811"><ele>6.0</ele><time>2026-05-02T07:57:10.559Z</time></trkpt><trkpt lat="39.9145553" lon="8.5418939"><ele>6.0</ele><time>2026-05-02T07:57:11.56Z</time></trkpt><trkpt lat="39.9145201" lon="8.5418012"><ele>6.0</ele><time>2026-05-02T07:57:12.559Z</time></trkpt><trkpt lat="39.9145115" lon="8.5416763"><ele>6.0</ele><time>2026-05-02T07:57:13.559Z</time></trkpt><trkpt lat="39.9145361" lon="8.5415436"><ele>6.0</ele><time>2026-05-02T07:57:14.561Z</time></trkpt><trkpt lat="39.9145826" lon="8.5414168"><ele>6.0</ele><time>2026-05-02T07:57:15.561Z</time></trkpt><trkpt lat="39.9146242" lon="8.5412955"><ele>6.0</ele><time>2026-05-02T07:57:16.56Z</time></trkpt><trkpt lat="39.914626" lon="8.5411918"><ele>6.0</ele><time>2026-05-02T07:57:17.56Z</time></trkpt><trkpt lat="39.9146107" lon="8.5411077"><ele>6.0</ele><time>2026-05-02T07:57:18.56Z</time></trkpt><trkpt lat="39.9145538" lon="8.5410134"><ele>6.0</ele><time>2026-05-02T07:57:20.559Z</time></trkpt><trkpt lat="39.9145001" lon="8.5409539"><ele>5.857142857142857</ele><time>2026-05-02T07:57:22.56Z</time></trkpt><trkpt lat="39.9144372" lon="8.5409338"><ele>5.714285714285714</ele><time>2026-05-02T07:57:25.561Z</time></trkpt><trkpt lat="39.9143672" lon="8.5409546"><ele>5.571428571428571</ele><time>2026-05-02T08:00:53.56Z</time></trkpt><trkpt lat="39.914304" lon="8.5410128"><ele>5.428571428571429</ele><time>2026-05-02T08:05:02.559Z</time></trkpt><trkpt lat="39.9143427" lon="8.5410917"><ele>5.285714285714286</ele><time>2026-05-02T08:05:05.557Z</time></trkpt><trkpt lat="39.9144134" lon="8.5410779"><ele>5.142857142857142</ele><time>2026-05-02T08:05:08.558Z</time></trkpt><trkpt lat="39.9144686" lon="8.5410383"><ele>5.0</ele><time>2026-05-02T08:05:13.558Z</time></trkpt><trkpt lat="39.914417" lon="8.5409692"><ele>5.0</ele><time>2026-05-02T08:05:19.557Z</time></trkpt><trkpt lat="39.9143557" lon="8.5409969"><ele>5.0</ele><time>2026-05-02T08:05:22.559Z</time></trkpt><trkpt lat="39.9143529" lon="8.5410974"><ele>5.0</ele><time>2026-05-02T08:05:26.559Z</time></trkpt><trkpt lat="39.9144184" lon="8.5411004"><ele>5.0</ele><time>2026-05-02T08:05:29.558Z</time></trkpt><trkpt lat="39.9144713" lon="8.5410539"><ele>5.0</ele><time>2026-05-02T08:05:31.557Z</time></trkpt><trkpt lat="39.9145571" lon="8.5410328"><ele>5.0</ele><time>2026-05-02T08:05:34.558Z</time></trkpt><trkpt lat="39.9146158" lon="8.5410707"><ele>5.0</ele><time>2026-05-02T08:05:37.558Z</time></trkpt><trkpt lat="39.9146353" lon="8.5411701"><ele>5.166666666666667</ele><time>2026-05-02T08:05:41.559Z</time></trkpt><trkpt lat="39.9146042" lon="8.541265"><ele>5.333333333333334</ele><time>2026-05-02T08:05:46.559Z</time></trkpt><trkpt lat="39.9145629" lon="8.5413289"><ele>5.5</ele><time>2026-05-02T08:05:48.558Z</time></trkpt><trkpt lat="39.9145261" lon="8.5414273"><ele>5.666666666666667</ele><time>2026-05-02T08:05:50.557Z</time></trkpt><trkpt lat="39.9144964" lon="8.5415257"><ele>5.833333333333333</ele><time>2026-05-02T08:05:52.558Z</time></trkpt><trkpt lat="39.9144688" lon="8.541619"><ele>6.0</ele><time>2026-05-02T08:05:54.558Z</time></trkpt><trkpt lat="39.914435" lon="8.5416947"><ele>6.0</ele><time>2026-05-02T08:05:56.558Z</time></trkpt><trkpt lat="39.9143843" lon="8.5417507"><ele>6.0</ele><time>2026-05-02T08:06:37.558Z</time></trkpt><trkpt lat="39.9142722" lon="8.541822"><ele>6.0</ele><time>2026-05-02T08:06:39.557Z</time></trkpt><trkpt lat="39.9142026" lon="8.5418518"><ele>6.0</ele><time>2026-05-02T08:06:40.557Z</time></trkpt><trkpt lat="39.9141327" lon="8.541891"><ele>6.0</ele><time>2026-05-02T08:06:41.559Z</time></trkpt><trkpt lat="39.9140654" lon="8.5419553"><ele>6.0</ele><time>2026-05-02T08:06:42.558Z</time></trkpt><trkpt lat="39.9140086" lon="8.5420421"><ele>5.6</ele><time>2026-05-02T08:06:43.558Z</time></trkpt><trkpt lat="39.9139669" lon="8.5421393"><ele>5.199999999999999</ele><time>2026-05-02T08:06:44.559Z</time></trkpt><trkpt lat="39.9139411" lon="8.5422582"><ele>4.800000000000001</ele><time>2026-05-02T08:06:45.557Z</time></trkpt><trkpt lat="39.9139432" lon="8.5423844"><ele>4.4</ele><time>2026-05-02T08:06:46.558Z</time></trkpt><trkpt lat="39.9139713" lon="8.5425173"><ele>4.0</ele><time>2026-05-02T08:06:47.558Z</time></trkpt><trkpt lat="39.9140194" lon="8.5426231"><ele>3.9999999999999996</ele><time>2026-05-02T08:06:48.558Z</time></trkpt><trkpt lat="39.9140866" lon="8.5427083"><ele>4.0</ele><time>2026-05-02T08:06:49.558Z</time></trkpt><trkpt lat="39.9141629" lon="8.542766"><ele>4.0</ele><time>2026-05-02T08:06:50.558Z</time></trkpt><trkpt lat="39.9142409" lon="8.5428015"><ele>4.0</ele><time>2026-05-02T08:06:51.559Z</time></trkpt><trkpt lat="39.9143221" lon="8.5428096"><ele>3.9999999999999996</ele><time>2026-05-02T08:06:52.557Z</time></trkpt><trkpt lat="39.9144166" lon="8.5427945"><ele>4.0</ele><time>2026-05-02T08:06:53.558Z</time></trkpt><trkpt lat="39.9145184" lon="8.5427459"><ele>4.5</ele><time>2026-05-02T08:06:54.558Z</time></trkpt><trkpt lat="39.9146096" lon="8.5426598"><ele>5.0</ele><time>2026-05-02T08:06:55.558Z</time></trkpt><trkpt lat="39.9146778" lon="8.5425387"><ele>5.5</ele><time>2026-05-02T08:06:56.558Z</time></trkpt><trkpt lat="39.9147204" lon="8.5424009"><ele>6.0</ele><time>2026-05-02T08:06:57.558Z</time></trkpt><trkpt lat="39.9147548" lon="8.5422452"><ele>6.0</ele><time>2026-05-02T08:06:58.557Z</time></trkpt><trkpt lat="39.9147985" lon="8.5420939"><ele>6.0</ele><time>2026-05-02T08:06:59.558Z</time></trkpt><trkpt lat="39.9148568" lon="8.541954"><ele>6.0</ele><time>2026-05-02T08:07:00.558Z</time></trkpt><trkpt lat="39.9149186" lon="8.5418231"><ele>6.0</ele><time>2026-05-02T08:07:01.558Z</time></trkpt><trkpt lat="39.9149765" lon="8.5416972"><ele>6.0</ele><time>2026-05-02T08:07:02.558Z</time></trkpt><trkpt lat="39.9150332" lon="8.5415811"><ele>6.0</ele><time>2026-05-02T08:07:03.558Z</time></trkpt><trkpt lat="39.9151014" lon="8.5414536"><ele>6.0</ele><time>2026-05-02T08:07:04.558Z</time></trkpt><trkpt lat="39.915187" lon="8.5413164"><ele>6.0</ele><time>2026-05-02T08:07:05.559Z</time></trkpt><trkpt lat="39.9152843" lon="8.5411714"><ele>5.333333333333333</ele><time>2026-05-02T08:07:06.557Z</time></trkpt><trkpt lat="39.9153938" lon="8.541033"><ele>4.666666666666666</ele><time>2026-05-02T08:07:07.558Z</time></trkpt><trkpt lat="39.9155158" lon="8.5409098"><ele>4.0</ele><time>2026-05-02T08:07:08.557Z</time></trkpt><trkpt lat="39.915659" lon="8.5408087"><ele>4.0</ele><time>2026-05-02T08:07:09.558Z</time></trkpt><trkpt lat="39.9158052" lon="8.5407141"><ele>4.0</ele><time>2026-05-02T08:07:10.557Z</time></trkpt><trkpt lat="39.9159547" lon="8.5406245"><ele>4.0</ele><time>2026-05-02T08:07:11.557Z</time></trkpt><trkpt lat="39.9161053" lon="8.5405382"><ele>4.0</ele><time>2026-05-02T08:07:12.558Z</time></trkpt><trkpt lat="39.916256" lon="8.5404538"><ele>4.0</ele><time>2026-05-02T08:07:13.559Z</time></trkpt><trkpt lat="39.9164071" lon="8.5403669"><ele>4.0</ele><time>2026-05-02T08:07:14.558Z</time></trkpt><trkpt lat="39.9165604" lon="8.5402808"><ele>4.0</ele><time>2026-05-02T08:07:15.559Z</time></trkpt><trkpt lat="39.9167131" lon="8.5401885"><ele>4.0</ele><time>2026-05-02T08:07:16.558Z</time></trkpt><trkpt lat="39.9168636" lon="8.5400877"><ele>4.0</ele><time>2026-05-02T08:07:17.558Z</time></trkpt><trkpt lat="39.9170059" lon="8.5399643"><ele>3.6666666666666665</ele><time>2026-05-02T08:07:18.557Z</time></trkpt><trkpt lat="39.9171417" lon="8.5398293"><ele>3.333333333333333</ele><time>2026-05-02T08:07:19.558Z</time></trkpt><trkpt lat="39.9172712" lon="8.5396902"><ele>3.0</ele><time>2026-05-02T08:07:20.558Z</time></trkpt><trkpt lat="39.9174028" lon="8.5395465"><ele>3.0</ele><time>2026-05-02T08:07:21.559Z</time></trkpt><trkpt lat="39.9175373" lon="8.5394005"><ele>3.0</ele><time>2026-05-02T08:07:22.557Z</time></trkpt><trkpt lat="39.9176715" lon="8.53926"><ele>3.0</ele><time>2026-05-02T08:07:23.557Z</time></trkpt><trkpt lat="39.9178085" lon="8.5391237"><ele>3.0</ele><time>2026-05-02T08:07:24.557Z</time></trkpt><trkpt lat="39.9179428" lon="8.5389843"><ele>3.0</ele><time>2026-05-02T08:07:25.557Z</time></trkpt><trkpt lat="39.9180749" lon="8.5388512"><ele>3.0</ele><time>2026-05-02T08:07:26.557Z</time></trkpt><trkpt lat="39.918205" lon="8.5387219"><ele>2.6666666666666665</ele><time>2026-05-02T08:07:27.558Z</time></trkpt><trkpt lat="39.9183343" lon="8.5385884"><ele>2.333333333333333</ele><time>2026-05-02T08:07:28.557Z</time></trkpt><trkpt lat="39.9184591" lon="8.5384594"><ele>2.0</ele><time>2026-05-02T08:07:29.558Z</time></trkpt><trkpt lat="39.9185727" lon="8.5383445"><ele>2.0</ele><time>2026-05-02T08:07:30.557Z</time></trkpt><trkpt lat="39.9186786" lon="8.5382405"><ele>2.0</ele><time>2026-05-02T08:07:31.557Z</time></trkpt><trkpt lat="39.9187786" lon="8.5381503"><ele>2.0</ele><time>2026-05-02T08:07:32.557Z</time></trkpt><trkpt lat="39.9188799" lon="8.5380698"><ele>2.0</ele><time>2026-05-02T08:07:33.556Z</time></trkpt><trkpt lat="39.9189857" lon="8.5380063"><ele>2.0</ele><time>2026-05-02T08:07:34.557Z</time></trkpt><trkpt lat="39.9190959" lon="8.5379781"><ele>2.0</ele><time>2026-05-02T08:07:35.558Z</time></trkpt><trkpt lat="39.9192135" lon="8.5379699"><ele>2.0</ele><time>2026-05-02T08:07:36.557Z</time></trkpt><trkpt lat="39.9193243" lon="8.5379551"><ele>2.0</ele><time>2026-05-02T08:07:37.558Z</time></trkpt><trkpt lat="39.9194229" lon="8.5379072"><ele>2.0</ele><time>2026-05-02T08:07:38.557Z</time></trkpt><trkpt lat="39.9194906" lon="8.5378225"><ele>1.8</ele><time>2026-05-02T08:07:39.558Z</time></trkpt><trkpt lat="39.9195385" lon="8.5377177"><ele>1.6</ele><time>2026-05-02T08:07:40.557Z</time></trkpt><trkpt lat="39.9195549" lon="8.5375963"><ele>1.4000000000000001</ele><time>2026-05-02T08:07:41.556Z</time></trkpt><trkpt lat="39.9195387" lon="8.5374672"><ele>1.2000000000000002</ele><time>2026-05-02T08:07:42.557Z</time></trkpt><trkpt lat="39.9194952" lon="8.5373392"><ele>1.0</ele><time>2026-05-02T08:07:43.557Z</time></trkpt><trkpt lat="39.9194296" lon="8.5372195"><ele>1.0</ele><time>2026-05-02T08:07:44.557Z</time></trkpt><trkpt lat="39.9193585" lon="8.5370903"><ele>1.0</ele><time>2026-05-02T08:07:45.557Z</time></trkpt><trkpt lat="39.9192925" lon="8.5369327"><ele>1.0</ele><time>2026-05-02T08:07:46.558Z</time></trkpt><trkpt lat="39.919241" lon="8.5367526"><ele>1.0</ele><time>2026-05-02T08:07:47.557Z</time></trkpt><trkpt lat="39.9191953" lon="8.5365578"><ele>1.0</ele><time>2026-05-02T08:07:48.556Z</time></trkpt><trkpt lat="39.9191549" lon="8.5363559"><ele>1.0</ele><time>2026-05-02T08:07:49.556Z</time></trkpt><trkpt lat="39.9191144" lon="8.5361458"><ele>1.0</ele><time>2026-05-02T08:07:50.557Z</time></trkpt><trkpt lat="39.9190751" lon="8.5359318"><ele>1.0</ele><time>2026-05-02T08:07:51.557Z</time></trkpt><trkpt lat="39.9190341" lon="8.5357174"><ele>1.0</ele><time>2026-05-02T08:07:52.556Z</time></trkpt><trkpt lat="39.9189918" lon="8.5354938"><ele>1.0</ele><time>2026-05-02T08:07:53.556Z</time></trkpt><trkpt lat="39.918948" lon="8.5352679"><ele>1.3333333333333333</ele><time>2026-05-02T08:07:54.556Z</time></trkpt><trkpt lat="39.918906" lon="8.535044"><ele>1.6666666666666665</ele><time>2026-05-02T08:07:55.556Z</time></trkpt><trkpt lat="39.9188638" lon="8.5348239"><ele>2.0</ele><time>2026-05-02T08:07:56.557Z</time></trkpt><trkpt lat="39.9188229" lon="8.5346018"><ele>1.6666666666666665</ele><time>2026-05-02T08:07:57.558Z</time></trkpt><trkpt lat="39.9187816" lon="8.5343784"><ele>1.3333333333333333</ele><time>2026-05-02T08:07:58.557Z</time></trkpt><trkpt lat="39.9187383" lon="8.534159"><ele>1.0</ele><time>2026-05-02T08:07:59.557Z</time></trkpt><trkpt lat="39.918696" lon="8.533939"><ele>1.0</ele><time>2026-05-02T08:08:00.558Z</time></trkpt><trkpt lat="39.9186528" lon="8.533719"><ele>1.0</ele><time>2026-05-02T08:08:01.556Z</time></trkpt><trkpt lat="39.9186118" lon="8.5334994"><ele>1.0</ele><time>2026-05-02T08:08:02.557Z</time></trkpt><trkpt lat="39.9185704" lon="8.5332805"><ele>1.0</ele><time>2026-05-02T08:08:03.556Z</time></trkpt><trkpt lat="39.9185303" lon="8.5330586"><ele>1.0</ele><time>2026-05-02T08:08:04.556Z</time></trkpt><trkpt lat="39.9184881" lon="8.5328385"><ele>1.0</ele><time>2026-05-02T08:08:05.556Z</time></trkpt><trkpt lat="39.9184442" lon="8.5326157"><ele>1.0</ele><time>2026-05-02T08:08:06.556Z</time></trkpt><trkpt lat="39.9184025" lon="8.5323962"><ele>1.0</ele><time>2026-05-02T08:08:07.558Z</time></trkpt><trkpt lat="39.9183594" lon="8.5321754"><ele>1.0</ele><time>2026-05-02T08:08:08.558Z</time></trkpt><trkpt lat="39.9183166" lon="8.5319545"><ele>1.3333333333333333</ele><time>2026-05-02T08:08:09.556Z</time></trkpt><trkpt lat="39.9182762" lon="8.5317312"><ele>1.6666666666666665</ele><time>2026-05-02T08:08:10.557Z</time></trkpt><trkpt lat="39.9182375" lon="8.5315116"><ele>2.0</ele><time>2026-05-02T08:08:11.557Z</time></trkpt><trkpt lat="39.918196" lon="8.5312917"><ele>1.6666666666666665</ele><time>2026-05-02T08:08:12.557Z</time></trkpt><trkpt lat="39.9181534" lon="8.5310708"><ele>1.3333333333333333</ele><time>2026-05-02T08:08:13.557Z</time></trkpt><trkpt lat="39.9181117" lon="8.5308473"><ele>1.0</ele><time>2026-05-02T08:08:14.557Z</time></trkpt><trkpt lat="39.9180733" lon="8.53062"><ele>1.0</ele><time>2026-05-02T08:08:15.557Z</time></trkpt><trkpt lat="39.9180368" lon="8.5303863"><ele>1.0</ele><time>2026-05-02T08:08:16.556Z</time></trkpt><trkpt lat="39.9180045" lon="8.5301515"><ele>1.0</ele><time>2026-05-02T08:08:17.557Z</time></trkpt><trkpt lat="39.917977" lon="8.5299164"><ele>1.0</ele><time>2026-05-02T08:08:18.557Z</time></trkpt><trkpt lat="39.9179572" lon="8.529681"><ele>1.0</ele><time>2026-05-02T08:08:19.558Z</time></trkpt><trkpt lat="39.9179478" lon="8.5294432"><ele>1.0</ele><time>2026-05-02T08:08:20.558Z</time></trkpt><trkpt lat="39.9179469" lon="8.5292052"><ele>1.3333333333333333</ele><time>2026-05-02T08:08:21.557Z</time></trkpt><trkpt lat="39.917948" lon="8.5289691"><ele>1.6666666666666665</ele><time>2026-05-02T08:08:22.557Z</time></trkpt><trkpt lat="39.917961" lon="8.528735"><ele>2.0</ele><time>2026-05-02T08:08:23.557Z</time></trkpt><trkpt lat="39.9179833" lon="8.5285"><ele>2.0</ele><time>2026-05-02T08:08:24.557Z</time></trkpt><trkpt lat="39.9180093" lon="8.5282702"><ele>2.0</ele><time>2026-05-02T08:08:25.557Z</time></trkpt><trkpt lat="39.9180412" lon="8.5280447"><ele>2.0</ele><time>2026-05-02T08:08:26.557Z</time></trkpt><trkpt lat="39.9180783" lon="8.5278198"><ele>1.3333333333333333</ele><time>2026-05-02T08:08:27.557Z</time></trkpt><trkpt lat="39.9181166" lon="8.5275959"><ele>0.6666666666666666</ele><time>2026-05-02T08:08:28.557Z</time></trkpt><trkpt lat="39.9181568" lon="8.5273754"><ele>0.0</ele><time>2026-05-02T08:08:29.556Z</time></trkpt><trkpt lat="39.918199" lon="8.527156"><ele>0.3333333333333333</ele><time>2026-05-02T08:08:30.556Z</time></trkpt><trkpt lat="39.9182408" lon="8.5269383"><ele>0.6666666666666666</ele><time>2026-05-02T08:08:31.557Z</time></trkpt><trkpt lat="39.9182795" lon="8.5267188"><ele>1.0</ele><time>2026-05-02T08:08:32.557Z</time></trkpt><trkpt lat="39.918322" lon="8.5264983"><ele>1.0</ele><time>2026-05-02T08:08:33.557Z</time></trkpt><trkpt lat="39.9183651" lon="8.52628"><ele>1.0</ele><time>2026-05-02T08:08:34.556Z</time></trkpt><trkpt lat="39.9184096" lon="8.5260615"><ele>1.0</ele><time>2026-05-02T08:08:35.556Z</time></trkpt><trkpt lat="39.9184556" lon="8.5258428"><ele>0.6666666666666666</ele><time>2026-05-02T08:08:36.558Z</time></trkpt><trkpt lat="39.9185011" lon="8.5256252"><ele>0.3333333333333333</ele><time>2026-05-02T08:08:37.556Z</time></trkpt><trkpt lat="39.9185458" lon="8.5254043"><ele>0.0</ele><time>2026-05-02T08:08:38.558Z</time></trkpt><trkpt lat="39.9185902" lon="8.5251833"><ele>0.0</ele><time>2026-05-02T08:08:39.558Z</time></trkpt><trkpt lat="39.9186337" lon="8.5249621"><ele>0.0</ele><time>2026-05-02T08:08:40.556Z</time></trkpt><trkpt lat="39.9186779" lon="8.524736"><ele>0.0</ele><time>2026-05-02T08:08:41.557Z</time></trkpt><trkpt lat="39.9187213" lon="8.5245108"><ele>0.0</ele><time>2026-05-02T08:08:42.557Z</time></trkpt><trkpt lat="39.9187644" lon="8.524286"><ele>0.0</ele><time>2026-05-02T08:08:43.558Z</time></trkpt><trkpt lat="39.9188062" lon="8.5240622"><ele>0.0</ele><time>2026-05-02T08:08:44.556Z</time></trkpt><trkpt lat="39.9188501" lon="8.5238402"><ele>0.0</ele><time>2026-05-02T08:08:45.556Z</time></trkpt><trkpt lat="39.9188932" lon="8.523617"><ele>0.0</ele><time>2026-05-02T08:08:46.557Z</time></trkpt><trkpt lat="39.9189386" lon="8.5233914"><ele>0.0</ele><time>2026-05-02T08:08:47.558Z</time></trkpt><trkpt lat="39.9189838" lon="8.5231717"><ele>0.0</ele><time>2026-05-02T08:08:48.557Z</time></trkpt><trkpt lat="39.9190262" lon="8.5229483"><ele>0.0</ele><time>2026-05-02T08:08:49.558Z</time></trkpt><trkpt lat="39.9190633" lon="8.5227352"><ele>0.0</ele><time>2026-05-02T08:08:50.557Z</time></trkpt><trkpt lat="39.9190953" lon="8.522531"><ele>0.0</ele><time>2026-05-02T08:08:51.556Z</time></trkpt><trkpt lat="39.9191151" lon="8.5223369"><ele>0.0</ele><time>2026-05-02T08:08:52.557Z</time></trkpt><trkpt lat="39.9191263" lon="8.5221505"><ele>0.0</ele><time>2026-05-02T08:08:53.557Z</time></trkpt><trkpt lat="39.9191331" lon="8.5219797"><ele>0.0</ele><time>2026-05-02T08:08:54.556Z</time></trkpt><trkpt lat="39.9191353" lon="8.5218248"><ele>0.2</ele><time>2026-05-02T08:08:55.556Z</time></trkpt><trkpt lat="39.9191375" lon="8.5216902"><ele>0.4</ele><time>2026-05-02T08:08:56.557Z</time></trkpt><trkpt lat="39.9191387" lon="8.5215721"><ele>0.6000000000000001</ele><time>2026-05-02T08:08:57.556Z</time></trkpt><trkpt lat="39.9191436" lon="8.5214607"><ele>0.8</ele><time>2026-05-02T08:08:58.556Z</time></trkpt><trkpt lat="39.9191406" lon="8.5213668"><ele>1.0</ele><time>2026-05-02T08:08:59.556Z</time></trkpt><trkpt lat="39.9191432" lon="8.5212127"><ele>1.0</ele><time>2026-05-02T08:09:01.557Z</time></trkpt><trkpt lat="39.9191813" lon="8.521076"><ele>1.0</ele><time>2026-05-02T08:09:03.557Z</time></trkpt><trkpt lat="39.9191781" lon="8.520987"><ele>1.0</ele><time>2026-05-02T08:09:04.556Z</time></trkpt><trkpt lat="39.9191337" lon="8.5208955"><ele>1.0</ele><time>2026-05-02T08:09:05.556Z</time></trkpt><trkpt lat="39.919059" lon="8.5207888"><ele>1.0</ele><time>2026-05-02T08:09:06.556Z</time></trkpt><trkpt lat="39.9189711" lon="8.520656"><ele>1.0</ele><time>2026-05-02T08:09:07.556Z</time></trkpt><trkpt lat="39.9188854" lon="8.5204941"><ele>1.0</ele><time>2026-05-02T08:09:08.557Z</time></trkpt><trkpt lat="39.918803" lon="8.5203013"><ele>1.0</ele><time>2026-05-02T08:09:09.556Z</time></trkpt><trkpt lat="39.9187124" lon="8.5201007"><ele>0.6666666666666666</ele><time>2026-05-02T08:09:10.557Z</time></trkpt><trkpt lat="39.9186259" lon="8.5199102"><ele>0.3333333333333333</ele><time>2026-05-02T08:09:11.557Z</time></trkpt><trkpt lat="39.9185451" lon="8.5197185"><ele>0.0</ele><time>2026-05-02T08:09:12.556Z</time></trkpt><trkpt lat="39.9184667" lon="8.5195234"><ele>0.3333333333333333</ele><time>2026-05-02T08:09:13.557Z</time></trkpt><trkpt lat="39.9183898" lon="8.519327"><ele>0.6666666666666666</ele><time>2026-05-02T08:09:14.557Z</time></trkpt><trkpt lat="39.9183115" lon="8.5191345"><ele>1.0</ele><time>2026-05-02T08:09:15.557Z</time></trkpt><trkpt lat="39.9182352" lon="8.5189452"><ele>1.0</ele><time>2026-05-02T08:09:16.556Z</time></trkpt><trkpt lat="39.9181659" lon="8.5187616"><ele>1.0</ele><time>2026-05-02T08:09:17.556Z</time></trkpt><trkpt lat="39.9180988" lon="8.5185779"><ele>1.0</ele><time>2026-05-02T08:09:18.556Z</time></trkpt><trkpt lat="39.9180399" lon="8.5183897"><ele>0.6666666666666666</ele><time>2026-05-02T08:09:19.556Z</time></trkpt><trkpt lat="39.9179908" lon="8.5181934"><ele>0.3333333333333333</ele><time>2026-05-02T08:09:20.556Z</time></trkpt><trkpt lat="39.9179614" lon="8.5179871"><ele>0.0</ele><time>2026-05-02T08:09:21.556Z</time></trkpt><trkpt lat="39.9179469" lon="8.5177738"><ele>0.6666666666666666</ele><time>2026-05-02T08:09:22.557Z</time></trkpt><trkpt lat="39.9179467" lon="8.5175598"><ele>1.3333333333333333</ele><time>2026-05-02T08:09:23.556Z</time></trkpt><trkpt lat="39.9179625" lon="8.517348"><ele>2.0</ele><time>2026-05-02T08:09:24.557Z</time></trkpt><trkpt lat="39.9180012" lon="8.5171421"><ele>2.0</ele><time>2026-05-02T08:09:25.556Z</time></trkpt><trkpt lat="39.9180546" lon="8.5169428"><ele>2.0</ele><time>2026-05-02T08:09:26.557Z</time></trkpt><trkpt lat="39.9181279" lon="8.516748"><ele>2.0</ele><time>2026-05-02T08:09:27.557Z</time></trkpt><trkpt lat="39.9182004" lon="8.5165497"><ele>2.0</ele><time>2026-05-02T08:09:28.557Z</time></trkpt><trkpt lat="39.9182635" lon="8.5163452"><ele>2.0</ele><time>2026-05-02T08:09:29.558Z</time></trkpt><trkpt lat="39.9183262" lon="8.5161412"><ele>2.0</ele><time>2026-05-02T08:09:30.557Z</time></trkpt><trkpt lat="39.9183892" lon="8.5159388"><ele>2.0</ele><time>2026-05-02T08:09:31.557Z</time></trkpt><trkpt lat="39.9184567" lon="8.515736"><ele>2.0</ele><time>2026-05-02T08:09:32.557Z</time></trkpt><trkpt lat="39.9185237" lon="8.5155316"><ele>2.0</ele><time>2026-05-02T08:09:33.558Z</time></trkpt><trkpt lat="39.91859" lon="8.5153262"><ele>2.0</ele><time>2026-05-02T08:09:34.557Z</time></trkpt><trkpt lat="39.9186534" lon="8.5151195"><ele>2.0</ele><time>2026-05-02T08:09:35.557Z</time></trkpt><trkpt lat="39.9187178" lon="8.5149152"><ele>2.0</ele><time>2026-05-02T08:09:36.557Z</time></trkpt><trkpt lat="39.9187794" lon="8.5147117"><ele>2.0</ele><time>2026-05-02T08:09:37.557Z</time></trkpt><trkpt lat="39.9188303" lon="8.5145094"><ele>2.0</ele><time>2026-05-02T08:09:38.558Z</time></trkpt><trkpt lat="39.9188569" lon="8.5142998"><ele>2.0</ele><time>2026-05-02T08:09:39.556Z</time></trkpt><trkpt lat="39.918858" lon="8.5140806"><ele>2.0</ele><time>2026-05-02T08:09:40.557Z</time></trkpt><trkpt lat="39.918842" lon="8.5138597"><ele>2.0</ele><time>2026-05-02T08:09:41.557Z</time></trkpt><trkpt lat="39.9188198" lon="8.5136343"><ele>2.0</ele><time>2026-05-02T08:09:42.557Z</time></trkpt><trkpt lat="39.9187933" lon="8.5134058"><ele>2.0</ele><time>2026-05-02T08:09:43.557Z</time></trkpt><trkpt lat="39.9187674" lon="8.5131764"><ele>2.0</ele><time>2026-05-02T08:09:44.558Z</time></trkpt><trkpt lat="39.918741" lon="8.5129458"><ele>2.0</ele><time>2026-05-02T08:09:45.557Z</time></trkpt><trkpt lat="39.9187179" lon="8.5127113"><ele>1.6666666666666665</ele><time>2026-05-02T08:09:46.556Z</time></trkpt><trkpt lat="39.918692" lon="8.5124775"><ele>1.3333333333333333</ele><time>2026-05-02T08:09:47.557Z</time></trkpt><trkpt lat="39.9186685" lon="8.5122441"><ele>1.0</ele><time>2026-05-02T08:09:48.556Z</time></trkpt><trkpt lat="39.9186438" lon="8.5120109"><ele>1.0</ele><time>2026-05-02T08:09:49.556Z</time></trkpt><trkpt lat="39.9186194" lon="8.511774"><ele>1.0</ele><time>2026-05-02T08:09:50.558Z</time></trkpt><trkpt lat="39.9185946" lon="8.5115375"><ele>1.0</ele><time>2026-05-02T08:09:51.557Z</time></trkpt><trkpt lat="39.9185691" lon="8.5113009"><ele>0.6666666666666666</ele><time>2026-05-02T08:09:52.558Z</time></trkpt><trkpt lat="39.9185428" lon="8.5110655"><ele>0.3333333333333333</ele><time>2026-05-02T08:09:53.557Z</time></trkpt><trkpt lat="39.9185165" lon="8.5108295"><ele>0.0</ele><time>2026-05-02T08:09:54.558Z</time></trkpt><trkpt lat="39.9184919" lon="8.5105929"><ele>0.0</ele><time>2026-05-02T08:09:55.557Z</time></trkpt><trkpt lat="39.9184674" lon="8.5103558"><ele>0.0</ele><time>2026-05-02T08:09:56.558Z</time></trkpt><trkpt lat="39.9184443" lon="8.5101185"><ele>0.0</ele><time>2026-05-02T08:09:57.556Z</time></trkpt><trkpt lat="39.918424" lon="8.5098839"><ele>0.0</ele><time>2026-05-02T08:09:58.557Z</time></trkpt><trkpt lat="39.9184039" lon="8.5096434"><ele>0.0</ele><time>2026-05-02T08:09:59.556Z</time></trkpt><trkpt lat="39.9183899" lon="8.5094051"><ele>0.0</ele><time>2026-05-02T08:10:00.557Z</time></trkpt><trkpt lat="39.918372" lon="8.50917"><ele>0.0</ele><time>2026-05-02T08:10:01.557Z</time></trkpt><trkpt lat="39.918347" lon="8.5089375"><ele>0.0</ele><time>2026-05-02T08:10:02.557Z</time></trkpt><trkpt lat="39.9183075" lon="8.5087086"><ele>0.0</ele><time>2026-05-02T08:10:03.557Z</time></trkpt><trkpt lat="39.9182594" lon="8.5084821"><ele>0.3333333333333333</ele><time>2026-05-02T08:10:04.557Z</time></trkpt><trkpt lat="39.9182091" lon="8.5082555"><ele>0.6666666666666666</ele><time>2026-05-02T08:10:05.557Z</time></trkpt><trkpt lat="39.9181579" lon="8.5080311"><ele>1.0</ele><time>2026-05-02T08:10:06.558Z</time></trkpt><trkpt lat="39.9181056" lon="8.5078076"><ele>1.3333333333333333</ele><time>2026-05-02T08:10:07.557Z</time></trkpt><trkpt lat="39.9180553" lon="8.5075797"><ele>1.6666666666666665</ele><time>2026-05-02T08:10:08.557Z</time></trkpt><trkpt lat="39.9180041" lon="8.5073525"><ele>2.0</ele><time>2026-05-02T08:10:09.557Z</time></trkpt><trkpt lat="39.9179538" lon="8.5071276"><ele>2.333333333333333</ele><time>2026-05-02T08:10:10.557Z</time></trkpt><trkpt lat="39.9179057" lon="8.506902"><ele>2.6666666666666665</ele><time>2026-05-02T08:10:11.557Z</time></trkpt><trkpt lat="39.9178567" lon="8.5066764"><ele>3.0</ele><time>2026-05-02T08:10:12.558Z</time></trkpt><trkpt lat="39.9178044" lon="8.5064541"><ele>3.0</ele><time>2026-05-02T08:10:13.557Z</time></trkpt><trkpt lat="39.91775" lon="8.5062313"><ele>3.0</ele><time>2026-05-02T08:10:14.557Z</time></trkpt><trkpt lat="39.9176918" lon="8.5060099"><ele>3.0</ele><time>2026-05-02T08:10:15.558Z</time></trkpt><trkpt lat="39.9176228" lon="8.5057946"><ele>3.0</ele><time>2026-05-02T08:10:16.557Z</time></trkpt><trkpt lat="39.9175457" lon="8.5055817"><ele>3.0</ele><time>2026-05-02T08:10:17.557Z</time></trkpt><trkpt lat="39.9174582" lon="8.5053757"><ele>3.0</ele><time>2026-05-02T08:10:18.556Z</time></trkpt><trkpt lat="39.917364" lon="8.5051728"><ele>3.0</ele><time>2026-05-02T08:10:19.558Z</time></trkpt><trkpt lat="39.9172628" lon="8.5049758"><ele>3.0</ele><time>2026-05-02T08:10:20.557Z</time></trkpt><trkpt lat="39.9171539" lon="8.5047853"><ele>3.0</ele><time>2026-05-02T08:10:21.557Z</time></trkpt><trkpt lat="39.9170416" lon="8.5045947"><ele>3.0</ele><time>2026-05-02T08:10:22.557Z</time></trkpt><trkpt lat="39.9169262" lon="8.5044079"><ele>3.0</ele><time>2026-05-02T08:10:23.556Z</time></trkpt><trkpt lat="39.9168109" lon="8.50422"><ele>3.0</ele><time>2026-05-02T08:10:24.556Z</time></trkpt><trkpt lat="39.9166973" lon="8.5040318"><ele>3.0</ele><time>2026-05-02T08:10:25.557Z</time></trkpt><trkpt lat="39.9165874" lon="8.5038394"><ele>3.0</ele><time>2026-05-02T08:10:26.557Z</time></trkpt><trkpt lat="39.9164823" lon="8.5036442"><ele>3.0</ele><time>2026-05-02T08:10:27.556Z</time></trkpt><trkpt lat="39.9163836" lon="8.5034449"><ele>3.0</ele><time>2026-05-02T08:10:28.557Z</time></trkpt><trkpt lat="39.9162945" lon="8.5032296"><ele>3.0</ele><time>2026-05-02T08:10:29.557Z</time></trkpt><trkpt lat="39.9162164" lon="8.5030086"><ele>3.0</ele><time>2026-05-02T08:10:30.557Z</time></trkpt><trkpt lat="39.9161525" lon="8.5027775"><ele>3.0</ele><time>2026-05-02T08:10:31.556Z</time></trkpt><trkpt lat="39.9161017" lon="8.5025375"><ele>3.0</ele><time>2026-05-02T08:10:32.557Z</time></trkpt><trkpt lat="39.9160655" lon="8.5022941"><ele>3.0</ele><time>2026-05-02T08:10:33.558Z</time></trkpt><trkpt lat="39.9160372" lon="8.5020485"><ele>3.0</ele><time>2026-05-02T08:10:34.558Z</time></trkpt><trkpt lat="39.9160265" lon="8.5018055"><ele>3.0</ele><time>2026-05-02T08:10:35.557Z</time></trkpt><trkpt lat="39.9160266" lon="8.5015614"><ele>3.0</ele><time>2026-05-02T08:10:36.557Z</time></trkpt><trkpt lat="39.9160366" lon="8.5013161"><ele>3.0</ele><time>2026-05-02T08:10:37.555Z</time></trkpt><trkpt lat="39.9160623" lon="8.5010736"><ele>3.0</ele><time>2026-05-02T08:10:38.556Z</time></trkpt><trkpt lat="39.9161" lon="8.5008339"><ele>3.0</ele><time>2026-05-02T08:10:39.558Z</time></trkpt><trkpt lat="39.9161547" lon="8.5006025"><ele>2.6666666666666665</ele><time>2026-05-02T08:10:40.557Z</time></trkpt><trkpt lat="39.9162239" lon="8.5003789"><ele>2.333333333333333</ele><time>2026-05-02T08:10:41.557Z</time></trkpt><trkpt lat="39.9163012" lon="8.5001581"><ele>2.0</ele><time>2026-05-02T08:10:42.557Z</time></trkpt><trkpt lat="39.916391" lon="8.4999511"><ele>2.0</ele><time>2026-05-02T08:10:43.556Z</time></trkpt><trkpt lat="39.9164898" lon="8.4997516"><ele>2.0</ele><time>2026-05-02T08:10:44.557Z</time></trkpt><trkpt lat="39.9165985" lon="8.4995607"><ele>2.0</ele><time>2026-05-02T08:10:45.557Z</time></trkpt><trkpt lat="39.9167144" lon="8.4993765"><ele>1.3333333333333333</ele><time>2026-05-02T08:10:46.557Z</time></trkpt><trkpt lat="39.9168313" lon="8.4991917"><ele>0.6666666666666666</ele><time>2026-05-02T08:10:47.556Z</time></trkpt><trkpt lat="39.9169477" lon="8.4990136"><ele>0.0</ele><time>2026-05-02T08:10:48.557Z</time></trkpt><trkpt lat="39.9170608" lon="8.4988284"><ele>0.0</ele><time>2026-05-02T08:10:49.557Z</time></trkpt><trkpt lat="39.9171724" lon="8.49864"><ele>0.0</ele><time>2026-05-02T08:10:50.557Z</time></trkpt><trkpt lat="39.9172877" lon="8.4984564"><ele>0.0</ele><time>2026-05-02T08:10:51.557Z</time></trkpt><trkpt lat="39.9174007" lon="8.4982732"><ele>0.0</ele><time>2026-05-02T08:10:52.557Z</time></trkpt><trkpt lat="39.9175178" lon="8.4980871"><ele>0.0</ele><time>2026-05-02T08:10:53.557Z</time></trkpt><trkpt lat="39.9176356" lon="8.4979023"><ele>0.0</ele><time>2026-05-02T08:10:54.558Z</time></trkpt><trkpt lat="39.9177553" lon="8.497719"><ele>0.3333333333333333</ele><time>2026-05-02T08:10:55.556Z</time></trkpt><trkpt lat="39.9178674" lon="8.4975318"><ele>0.6666666666666666</ele><time>2026-05-02T08:10:56.557Z</time></trkpt><trkpt lat="39.9179823" lon="8.4973459"><ele>1.0</ele><time>2026-05-02T08:10:57.557Z</time></trkpt><trkpt lat="39.9180954" lon="8.4971616"><ele>1.6666666666666665</ele><time>2026-05-02T08:10:58.557Z</time></trkpt><trkpt lat="39.918207" lon="8.4969754"><ele>2.3333333333333335</ele><time>2026-05-02T08:10:59.557Z</time></trkpt><trkpt lat="39.9183036" lon="8.4967751"><ele>3.0</ele><time>2026-05-02T08:11:00.556Z</time></trkpt><trkpt lat="39.918392" lon="8.4965642"><ele>3.0</ele><time>2026-05-02T08:11:01.557Z</time></trkpt><trkpt lat="39.9184748" lon="8.496347"><ele>3.0</ele><time>2026-05-02T08:11:02.557Z</time></trkpt><trkpt lat="39.9185425" lon="8.4961195"><ele>3.0</ele><time>2026-05-02T08:11:03.557Z</time></trkpt><trkpt lat="39.9186007" lon="8.4958882"><ele>3.0</ele><time>2026-05-02T08:11:04.557Z</time></trkpt><trkpt lat="39.9186494" lon="8.495652"><ele>3.0</ele><time>2026-05-02T08:11:05.558Z</time></trkpt><trkpt lat="39.9186807" lon="8.4954105"><ele>3.0</ele><time>2026-05-02T08:11:06.556Z</time></trkpt><trkpt lat="39.9186968" lon="8.4951693"><ele>2.6666666666666665</ele><time>2026-05-02T08:11:07.557Z</time></trkpt><trkpt lat="39.9187022" lon="8.4949283"><ele>2.333333333333333</ele><time>2026-05-02T08:11:08.557Z</time></trkpt><trkpt lat="39.9186958" lon="8.494685"><ele>2.0</ele><time>2026-05-02T08:11:09.557Z</time></trkpt><trkpt lat="39.9186764" lon="8.4944426"><ele>2.0</ele><time>2026-05-02T08:11:10.558Z</time></trkpt><trkpt lat="39.9186443" lon="8.4942011"><ele>2.0</ele><time>2026-05-02T08:11:11.557Z</time></trkpt><trkpt lat="39.9185981" lon="8.4939607"><ele>2.0</ele><time>2026-05-02T08:11:12.557Z</time></trkpt><trkpt lat="39.9185377" lon="8.4937237"><ele>1.6666666666666665</ele><time>2026-05-02T08:11:13.556Z</time></trkpt><trkpt lat="39.9184695" lon="8.4934935"><ele>1.3333333333333333</ele><time>2026-05-02T08:11:14.558Z</time></trkpt><trkpt lat="39.9183922" lon="8.4932697"><ele>1.0</ele><time>2026-05-02T08:11:15.557Z</time></trkpt><trkpt lat="39.9183079" lon="8.4930456"><ele>1.0</ele><time>2026-05-02T08:11:16.558Z</time></trkpt><trkpt lat="39.918223" lon="8.4928257"><ele>1.0</ele><time>2026-05-02T08:11:17.556Z</time></trkpt><trkpt lat="39.9181346" lon="8.4926021"><ele>1.0</ele><time>2026-05-02T08:11:18.556Z</time></trkpt><trkpt lat="39.9180483" lon="8.4923747"><ele>1.0</ele><time>2026-05-02T08:11:19.557Z</time></trkpt><trkpt lat="39.9179644" lon="8.4921539"><ele>1.0</ele><time>2026-05-02T08:11:20.557Z</time></trkpt><trkpt lat="39.9178879" lon="8.4919446"><ele>1.0</ele><time>2026-05-02T08:11:21.556Z</time></trkpt><trkpt lat="39.9178212" lon="8.4917557"><ele>1.25</ele><time>2026-05-02T08:11:22.556Z</time></trkpt><trkpt lat="39.917762" lon="8.4915951"><ele>1.5</ele><time>2026-05-02T08:11:23.557Z</time></trkpt><trkpt lat="39.9177114" lon="8.4914428"><ele>1.75</ele><time>2026-05-02T08:11:24.556Z</time></trkpt><trkpt lat="39.9176742" lon="8.4913052"><ele>2.0</ele><time>2026-05-02T08:11:25.558Z</time></trkpt><trkpt lat="39.9176438" lon="8.491199"><ele>1.9999999999999998</ele><time>2026-05-02T08:11:26.558Z</time></trkpt><trkpt lat="39.9176216" lon="8.4911207"><ele>2.0</ele><time>2026-05-02T08:11:27.556Z</time></trkpt><trkpt lat="39.9175845" lon="8.4910169"><ele>2.0</ele><time>2026-05-02T08:11:29.557Z</time></trkpt><trkpt lat="39.9175698" lon="8.4911228"><ele>2.0</ele><time>2026-05-02T08:11:32.556Z</time></trkpt><trkpt lat="39.9176109" lon="8.4912287"><ele>1.9999999999999998</ele><time>2026-05-02T08:11:33.557Z</time></trkpt><trkpt lat="39.9176512" lon="8.491354"><ele>2.0</ele><time>2026-05-02T08:11:34.556Z</time></trkpt><trkpt lat="39.9176938" lon="8.4915138"><ele>2.0</ele><time>2026-05-02T08:11:35.557Z</time></trkpt><trkpt lat="39.9177468" lon="8.4916778"><ele>2.0</ele><time>2026-05-02T08:11:36.557Z</time></trkpt><trkpt lat="39.9178124" lon="8.4918424"><ele>2.0</ele><time>2026-05-02T08:11:37.557Z</time></trkpt><trkpt lat="39.9178736" lon="8.4919954"><ele>2.0</ele><time>2026-05-02T08:11:38.556Z</time></trkpt><trkpt lat="39.9179239" lon="8.4921221"><ele>1.9999999999999998</ele><time>2026-05-02T08:11:39.557Z</time></trkpt><trkpt lat="39.9179694" lon="8.492218"><ele>2.0</ele><time>2026-05-02T08:11:40.558Z</time></trkpt><trkpt lat="39.9180397" lon="8.4922986"><ele>2.0</ele><time>2026-05-02T08:11:42.558Z</time></trkpt><trkpt lat="39.9181026" lon="8.4922427"><ele>2.0</ele><time>2026-05-02T08:11:46.556Z</time></trkpt><trkpt lat="39.9181431" lon="8.49212"><ele>1.9999999999999998</ele><time>2026-05-02T08:11:48.556Z</time></trkpt><trkpt lat="39.9181732" lon="8.4920356"><ele>2.0</ele><time>2026-05-02T08:11:49.557Z</time></trkpt><trkpt lat="39.9182175" lon="8.4919373"><ele>2.0</ele><time>2026-05-02T08:11:50.558Z</time></trkpt><trkpt lat="39.9182745" lon="8.4918316"><ele>2.0</ele><time>2026-05-02T08:11:51.557Z</time></trkpt><trkpt lat="39.9183297" lon="8.4917158"><ele>2.0</ele><time>2026-05-02T08:11:52.558Z</time></trkpt><trkpt lat="39.9183908" lon="8.4915952"><ele>2.0</ele><time>2026-05-02T08:11:53.557Z</time></trkpt><trkpt lat="39.9184488" lon="8.4914727"><ele>2.0</ele><time>2026-05-02T08:11:54.558Z</time></trkpt><trkpt lat="39.9185097" lon="8.4913509"><ele>1.75</ele><time>2026-05-02T08:11:55.558Z</time></trkpt><trkpt lat="39.9185683" lon="8.4912235"><ele>1.5</ele><time>2026-05-02T08:11:56.557Z</time></trkpt><trkpt lat="39.9186327" lon="8.4910969"><ele>1.25</ele><time>2026-05-02T08:11:57.558Z</time></trkpt><trkpt lat="39.918701" lon="8.4909791"><ele>1.0</ele><time>2026-05-02T08:11:58.556Z</time></trkpt><trkpt lat="39.9187643" lon="8.4908623"><ele>1.0</ele><time>2026-05-02T08:11:59.557Z</time></trkpt><trkpt lat="39.9188145" lon="8.490737"><ele>1.0</ele><time>2026-05-02T08:12:00.556Z</time></trkpt><trkpt lat="39.9188471" lon="8.4906069"><ele>1.0</ele><time>2026-05-02T08:12:01.557Z</time></trkpt><trkpt lat="39.9188624" lon="8.4904703"><ele>1.0</ele><time>2026-05-02T08:12:02.556Z</time></trkpt><trkpt lat="39.9188674" lon="8.4903251"><ele>1.0</ele><time>2026-05-02T08:12:03.557Z</time></trkpt><trkpt lat="39.9188747" lon="8.4901802"><ele>1.0</ele><time>2026-05-02T08:12:04.556Z</time></trkpt><trkpt lat="39.9188824" lon="8.4900344"><ele>1.0</ele><time>2026-05-02T08:12:05.558Z</time></trkpt><trkpt lat="39.9188957" lon="8.4898863"><ele>1.0</ele><time>2026-05-02T08:12:06.556Z</time></trkpt><trkpt lat="39.9189177" lon="8.4897368"><ele>1.0</ele><time>2026-05-02T08:12:07.557Z</time></trkpt><trkpt lat="39.918944" lon="8.4895875"><ele>1.0</ele><time>2026-05-02T08:12:08.557Z</time></trkpt><trkpt lat="39.9189719" lon="8.4894456"><ele>1.0</ele><time>2026-05-02T08:12:09.557Z</time></trkpt><trkpt lat="39.9190045" lon="8.4893033"><ele>1.0</ele><time>2026-05-02T08:12:10.557Z</time></trkpt><trkpt lat="39.9190414" lon="8.4891551"><ele>1.0</ele><time>2026-05-02T08:12:11.556Z</time></trkpt><trkpt lat="39.9190747" lon="8.4890153"><ele>1.0</ele><time>2026-05-02T08:12:12.556Z</time></trkpt><trkpt lat="39.9191008" lon="8.4888711"><ele>1.0</ele><time>2026-05-02T08:12:13.557Z</time></trkpt><trkpt lat="39.9191237" lon="8.4887242"><ele>1.0</ele><time>2026-05-02T08:12:14.558Z</time></trkpt><trkpt lat="39.9191489" lon="8.4885782"><ele>1.0</ele><time>2026-05-02T08:12:15.558Z</time></trkpt><trkpt lat="39.9191749" lon="8.4884297"><ele>1.0</ele><time>2026-05-02T08:12:16.555Z</time></trkpt><trkpt lat="39.9192014" lon="8.4882783"><ele>1.0</ele><time>2026-05-02T08:12:17.557Z</time></trkpt><trkpt lat="39.919227" lon="8.4881277"><ele>1.0</ele><time>2026-05-02T08:12:18.556Z</time></trkpt><trkpt lat="39.9192512" lon="8.4879781"><ele>1.0</ele><time>2026-05-02T08:12:19.556Z</time></trkpt><trkpt lat="39.9192725" lon="8.4878302"><ele>1.0</ele><time>2026-05-02T08:12:20.557Z</time></trkpt><trkpt lat="39.9192866" lon="8.4876802"><ele>1.0</ele><time>2026-05-02T08:12:21.555Z</time></trkpt><trkpt lat="39.9192961" lon="8.4875287"><ele>1.0</ele><time>2026-05-02T08:12:22.555Z</time></trkpt><trkpt lat="39.9193072" lon="8.4873776"><ele>1.0</ele><time>2026-05-02T08:12:23.555Z</time></trkpt><trkpt lat="39.9193268" lon="8.4872294"><ele>0.75</ele><time>2026-05-02T08:12:24.556Z</time></trkpt><trkpt lat="39.9193444" lon="8.4870842"><ele>0.5</ele><time>2026-05-02T08:12:25.555Z</time></trkpt><trkpt lat="39.9193604" lon="8.4869361"><ele>0.25</ele><time>2026-05-02T08:12:26.557Z</time></trkpt><trkpt lat="39.9193795" lon="8.4867861"><ele>0.0</ele><time>2026-05-02T08:12:27.557Z</time></trkpt><trkpt lat="39.919402" lon="8.4866377"><ele>0.0</ele><time>2026-05-02T08:12:28.555Z</time></trkpt><trkpt lat="39.9194262" lon="8.4864905"><ele>0.0</ele><time>2026-05-02T08:12:29.556Z</time></trkpt><trkpt lat="39.9194507" lon="8.486345"><ele>0.0</ele><time>2026-05-02T08:12:30.556Z</time></trkpt><trkpt lat="39.91948" lon="8.4861961"><ele>0.0</ele><time>2026-05-02T08:12:31.556Z</time></trkpt><trkpt lat="39.9195062" lon="8.486049"><ele>0.25</ele><time>2026-05-02T08:12:32.556Z</time></trkpt><trkpt lat="39.9195232" lon="8.4858964"><ele>0.5</ele><time>2026-05-02T08:12:33.557Z</time></trkpt><trkpt lat="39.919539" lon="8.4857388"><ele>0.75</ele><time>2026-05-02T08:12:34.556Z</time></trkpt><trkpt lat="39.9195514" lon="8.4855853"><ele>1.0</ele><time>2026-05-02T08:12:35.556Z</time></trkpt><trkpt lat="39.9195611" lon="8.4854299"><ele>1.0</ele><time>2026-05-02T08:12:36.555Z</time></trkpt><trkpt lat="39.9195739" lon="8.4852723"><ele>1.0</ele><time>2026-05-02T08:12:37.557Z</time></trkpt><trkpt lat="39.9195902" lon="8.4851174"><ele>1.0</ele><time>2026-05-02T08:12:38.557Z</time></trkpt><trkpt lat="39.9196093" lon="8.4849591"><ele>1.0</ele><time>2026-05-02T08:12:39.555Z</time></trkpt><trkpt lat="39.919624" lon="8.4848062"><ele>1.0</ele><time>2026-05-02T08:12:40.556Z</time></trkpt><trkpt lat="39.9196427" lon="8.4846544"><ele>1.0</ele><time>2026-05-02T08:12:41.556Z</time></trkpt><trkpt lat="39.919659" lon="8.4845048"><ele>1.0</ele><time>2026-05-02T08:12:42.556Z</time></trkpt><trkpt lat="39.9196753" lon="8.4843583"><ele>1.0</ele><time>2026-05-02T08:12:43.557Z</time></trkpt><trkpt lat="39.9196934" lon="8.484206"><ele>1.0</ele><time>2026-05-02T08:12:44.557Z</time></trkpt><trkpt lat="39.9197084" lon="8.4840536"><ele>1.0</ele><time>2026-05-02T08:12:45.556Z</time></trkpt><trkpt lat="39.919725" lon="8.483901"><ele>1.0</ele><time>2026-05-02T08:12:46.556Z</time></trkpt><trkpt lat="39.9197419" lon="8.4837508"><ele>1.0</ele><time>2026-05-02T08:12:47.555Z</time></trkpt><trkpt lat="39.9197589" lon="8.4836007"><ele>1.0</ele><time>2026-05-02T08:12:48.556Z</time></trkpt><trkpt lat="39.9197737" lon="8.4834594"><ele>1.0</ele><time>2026-05-02T08:12:49.557Z</time></trkpt><trkpt lat="39.919791" lon="8.4833162"><ele>1.0</ele><time>2026-05-02T08:12:50.557Z</time></trkpt><trkpt lat="39.9198102" lon="8.4831702"><ele>1.0</ele><time>2026-05-02T08:12:51.555Z</time></trkpt><trkpt lat="39.9198276" lon="8.483028"><ele>1.0</ele><time>2026-05-02T08:12:52.556Z</time></trkpt><trkpt lat="39.9198388" lon="8.4828824"><ele>1.0</ele><time>2026-05-02T08:12:53.555Z</time></trkpt><trkpt lat="39.9198479" lon="8.482744"><ele>1.0</ele><time>2026-05-02T08:12:54.556Z</time></trkpt><trkpt lat="39.919864" lon="8.4826073"><ele>1.0</ele><time>2026-05-02T08:12:55.557Z</time></trkpt><trkpt lat="39.919883" lon="8.4824682"><ele>1.0</ele><time>2026-05-02T08:12:56.556Z</time></trkpt><trkpt lat="39.9198976" lon="8.4823418"><ele>1.0</ele><time>2026-05-02T08:12:57.556Z</time></trkpt><trkpt lat="39.9199149" lon="8.4822149"><ele>1.0</ele><time>2026-05-02T08:12:58.556Z</time></trkpt><trkpt lat="39.9199306" lon="8.4820883"><ele>1.0</ele><time>2026-05-02T08:12:59.555Z</time></trkpt><trkpt lat="39.9199514" lon="8.4819604"><ele>1.0</ele><time>2026-05-02T08:13:00.556Z</time></trkpt><trkpt lat="39.9199723" lon="8.4818283"><ele>1.0</ele><time>2026-05-02T08:13:01.555Z</time></trkpt><trkpt lat="39.9199913" lon="8.4817016"><ele>1.0</ele><time>2026-05-02T08:13:02.555Z</time></trkpt><trkpt lat="39.9200085" lon="8.4815734"><ele>1.0</ele><time>2026-05-02T08:13:03.555Z</time></trkpt><trkpt lat="39.9200265" lon="8.481446"><ele>1.0</ele><time>2026-05-02T08:13:04.556Z</time></trkpt><trkpt lat="39.9200458" lon="8.4813158"><ele>1.0</ele><time>2026-05-02T08:13:05.555Z</time></trkpt><trkpt lat="39.9200624" lon="8.4811854"><ele>1.0</ele><time>2026-05-02T08:13:06.556Z</time></trkpt><trkpt lat="39.9200753" lon="8.4810512"><ele>1.0</ele><time>2026-05-02T08:13:07.556Z</time></trkpt><trkpt lat="39.9200816" lon="8.4809203"><ele>1.0</ele><time>2026-05-02T08:13:08.555Z</time></trkpt><trkpt lat="39.9200838" lon="8.4807899"><ele>1.0</ele><time>2026-05-02T08:13:09.556Z</time></trkpt><trkpt lat="39.9200848" lon="8.4806551"><ele>1.0</ele><time>2026-05-02T08:13:10.556Z</time></trkpt><trkpt lat="39.9200816" lon="8.4805199"><ele>1.0</ele><time>2026-05-02T08:13:11.557Z</time></trkpt><trkpt lat="39.9200787" lon="8.4803874"><ele>1.0</ele><time>2026-05-02T08:13:12.555Z</time></trkpt><trkpt lat="39.920073" lon="8.4802513"><ele>1.0</ele><time>2026-05-02T08:13:13.555Z</time></trkpt><trkpt lat="39.9200682" lon="8.4801147"><ele>1.0</ele><time>2026-05-02T08:13:14.556Z</time></trkpt><trkpt lat="39.9200586" lon="8.4799746"><ele>1.0</ele><time>2026-05-02T08:13:15.555Z</time></trkpt><trkpt lat="39.9200472" lon="8.479843"><ele>1.0</ele><time>2026-05-02T08:13:16.555Z</time></trkpt><trkpt lat="39.9200362" lon="8.4797243"><ele>1.0</ele><time>2026-05-02T08:13:17.555Z</time></trkpt><trkpt lat="39.9200248" lon="8.4795974"><ele>1.2000000000000002</ele><time>2026-05-02T08:13:18.556Z</time></trkpt><trkpt lat="39.9200244" lon="8.4794739"><ele>1.4000000000000001</ele><time>2026-05-02T08:13:19.557Z</time></trkpt><trkpt lat="39.9200285" lon="8.4793487"><ele>1.6</ele><time>2026-05-02T08:13:20.555Z</time></trkpt><trkpt lat="39.9200405" lon="8.4792167"><ele>1.8</ele><time>2026-05-02T08:13:21.555Z</time></trkpt><trkpt lat="39.9200571" lon="8.4790795"><ele>2.0</ele><time>2026-05-02T08:13:22.556Z</time></trkpt><trkpt lat="39.9200713" lon="8.4789419"><ele>2.0</ele><time>2026-05-02T08:13:23.556Z</time></trkpt><trkpt lat="39.9200745" lon="8.4788008"><ele>2.0</ele><time>2026-05-02T08:13:24.556Z</time></trkpt><trkpt lat="39.9200756" lon="8.4786585"><ele>2.0</ele><time>2026-05-02T08:13:25.555Z</time></trkpt><trkpt lat="39.920072" lon="8.478514"><ele>2.0</ele><time>2026-05-02T08:13:26.555Z</time></trkpt><trkpt lat="39.9200692" lon="8.4783738"><ele>2.0</ele><time>2026-05-02T08:13:27.556Z</time></trkpt><trkpt lat="39.9200651" lon="8.4782313"><ele>2.0</ele><time>2026-05-02T08:13:28.557Z</time></trkpt><trkpt lat="39.9200599" lon="8.4780878"><ele>2.0</ele><time>2026-05-02T08:13:29.556Z</time></trkpt><trkpt lat="39.9200549" lon="8.4779503"><ele>2.0</ele><time>2026-05-02T08:13:30.557Z</time></trkpt><trkpt lat="39.9200532" lon="8.4778087"><ele>2.0</ele><time>2026-05-02T08:13:31.556Z</time></trkpt><trkpt lat="39.9200517" lon="8.4776664"><ele>2.0</ele><time>2026-05-02T08:13:32.556Z</time></trkpt><trkpt lat="39.9200506" lon="8.477526"><ele>2.0</ele><time>2026-05-02T08:13:33.556Z</time></trkpt><trkpt lat="39.9200498" lon="8.4773821"><ele>2.0</ele><time>2026-05-02T08:13:34.557Z</time></trkpt><trkpt lat="39.9200458" lon="8.4772404"><ele>2.0</ele><time>2026-05-02T08:13:35.555Z</time></trkpt><trkpt lat="39.9200395" lon="8.4770968"><ele>2.0</ele><time>2026-05-02T08:13:36.555Z</time></trkpt><trkpt lat="39.9200332" lon="8.4769543"><ele>2.0</ele><time>2026-05-02T08:13:37.556Z</time></trkpt><trkpt lat="39.9200292" lon="8.4768115"><ele>2.0</ele><time>2026-05-02T08:13:38.556Z</time></trkpt><trkpt lat="39.9200276" lon="8.4766677"><ele>2.0</ele><time>2026-05-02T08:13:39.555Z</time></trkpt><trkpt lat="39.9200246" lon="8.4765256"><ele>2.0</ele><time>2026-05-02T08:13:40.556Z</time></trkpt><trkpt lat="39.9200232" lon="8.4763832"><ele>2.0</ele><time>2026-05-02T08:13:41.556Z</time></trkpt><trkpt lat="39.9200228" lon="8.4762417"><ele>2.0</ele><time>2026-05-02T08:13:42.556Z</time></trkpt><trkpt lat="39.9200223" lon="8.4760954"><ele>2.0</ele><time>2026-05-02T08:13:43.555Z</time></trkpt><trkpt lat="39.9200238" lon="8.4759499"><ele>2.0</ele><time>2026-05-02T08:13:44.556Z</time></trkpt><trkpt lat="39.9200262" lon="8.4758004"><ele>2.0</ele><time>2026-05-02T08:13:45.556Z</time></trkpt><trkpt lat="39.9200266" lon="8.4756494"><ele>2.0</ele><time>2026-05-02T08:13:46.556Z</time></trkpt><trkpt lat="39.920025" lon="8.4754987"><ele>2.25</ele><time>2026-05-02T08:13:47.555Z</time></trkpt><trkpt lat="39.9200288" lon="8.4753437"><ele>2.5</ele><time>2026-05-02T08:13:48.555Z</time></trkpt><trkpt lat="39.9200301" lon="8.4751907"><ele>2.75</ele><time>2026-05-02T08:13:49.556Z</time></trkpt><trkpt lat="39.9200349" lon="8.4750378"><ele>3.0</ele><time>2026-05-02T08:13:50.556Z</time></trkpt><trkpt lat="39.9200381" lon="8.4748853"><ele>3.0</ele><time>2026-05-02T08:13:51.555Z</time></trkpt><trkpt lat="39.9200379" lon="8.4747339"><ele>3.0</ele><time>2026-05-02T08:13:52.555Z</time></trkpt><trkpt lat="39.9200417" lon="8.4745824"><ele>3.0</ele><time>2026-05-02T08:13:53.555Z</time></trkpt><trkpt lat="39.9200457" lon="8.4744293"><ele>3.0</ele><time>2026-05-02T08:13:54.556Z</time></trkpt><trkpt lat="39.9200505" lon="8.4742792"><ele>3.0</ele><time>2026-05-02T08:13:55.556Z</time></trkpt><trkpt lat="39.920057" lon="8.4741314"><ele>3.0</ele><time>2026-05-02T08:13:56.556Z</time></trkpt><trkpt lat="39.9200628" lon="8.4739821"><ele>3.0</ele><time>2026-05-02T08:13:57.555Z</time></trkpt><trkpt lat="39.9200803" lon="8.4738361"><ele>3.0</ele><time>2026-05-02T08:13:58.556Z</time></trkpt><trkpt lat="39.9201047" lon="8.4736918"><ele>2.75</ele><time>2026-05-02T08:13:59.556Z</time></trkpt><trkpt lat="39.9201219" lon="8.4735493"><ele>2.5</ele><time>2026-05-02T08:14:00.556Z</time></trkpt><trkpt lat="39.9201301" lon="8.4734025"><ele>2.25</ele><time>2026-05-02T08:14:01.555Z</time></trkpt><trkpt lat="39.9201293" lon="8.4732508"><ele>2.0</ele><time>2026-05-02T08:14:02.556Z</time></trkpt><trkpt lat="39.9201197" lon="8.4730959"><ele>2.0</ele><time>2026-05-02T08:14:03.556Z</time></trkpt><trkpt lat="39.9201069" lon="8.4729454"><ele>2.0</ele><time>2026-05-02T08:14:04.557Z</time></trkpt><trkpt lat="39.9200953" lon="8.472798"><ele>2.0</ele><time>2026-05-02T08:14:05.556Z</time></trkpt><trkpt lat="39.9200853" lon="8.4726495"><ele>2.0</ele><time>2026-05-02T08:14:06.556Z</time></trkpt><trkpt lat="39.9200803" lon="8.4725002"><ele>2.0</ele><time>2026-05-02T08:14:07.556Z</time></trkpt><trkpt lat="39.9200808" lon="8.4723516"><ele>2.0</ele><time>2026-05-02T08:14:08.556Z</time></trkpt><trkpt lat="39.9200834" lon="8.4722032"><ele>2.0</ele><time>2026-05-02T08:14:09.556Z</time></trkpt><trkpt lat="39.9200861" lon="8.4720571"><ele>2.0</ele><time>2026-05-02T08:14:10.555Z</time></trkpt><trkpt lat="39.9200943" lon="8.4719101"><ele>2.0</ele><time>2026-05-02T08:14:11.557Z</time></trkpt><trkpt lat="39.920101" lon="8.4717636"><ele>2.0</ele><time>2026-05-02T08:14:12.555Z</time></trkpt><trkpt lat="39.9201076" lon="8.4716154"><ele>2.0</ele><time>2026-05-02T08:14:13.555Z</time></trkpt><trkpt lat="39.9201111" lon="8.4714688"><ele>2.0</ele><time>2026-05-02T08:14:14.556Z</time></trkpt><trkpt lat="39.9201155" lon="8.4713204"><ele>2.0</ele><time>2026-05-02T08:14:15.555Z</time></trkpt><trkpt lat="39.9201172" lon="8.4711706"><ele>2.0</ele><time>2026-05-02T08:14:16.557Z</time></trkpt><trkpt lat="39.9201167" lon="8.4710204"><ele>2.0</ele><time>2026-05-02T08:14:17.555Z</time></trkpt><trkpt lat="39.9201159" lon="8.470869"><ele>2.0</ele><time>2026-05-02T08:14:18.555Z</time></trkpt><trkpt lat="39.9201139" lon="8.4707214"><ele>2.0</ele><time>2026-05-02T08:14:19.555Z</time></trkpt><trkpt lat="39.9201026" lon="8.470577"><ele>2.0</ele><time>2026-05-02T08:14:20.555Z</time></trkpt><trkpt lat="39.9200812" lon="8.4704341"><ele>2.0</ele><time>2026-05-02T08:14:21.555Z</time></trkpt><trkpt lat="39.9200585" lon="8.4702909"><ele>2.0</ele><time>2026-05-02T08:14:22.555Z</time></trkpt><trkpt lat="39.9200396" lon="8.470146"><ele>2.0</ele><time>2026-05-02T08:14:23.555Z</time></trkpt><trkpt lat="39.9200196" lon="8.4699994"><ele>1.8</ele><time>2026-05-02T08:14:24.555Z</time></trkpt><trkpt lat="39.9200034" lon="8.4698565"><ele>1.6</ele><time>2026-05-02T08:14:25.555Z</time></trkpt><trkpt lat="39.9199902" lon="8.4697188"><ele>1.4000000000000001</ele><time>2026-05-02T08:14:26.555Z</time></trkpt><trkpt lat="39.9199831" lon="8.4695789"><ele>1.2000000000000002</ele><time>2026-05-02T08:14:27.557Z</time></trkpt><trkpt lat="39.919977" lon="8.469436"><ele>1.0</ele><time>2026-05-02T08:14:28.557Z</time></trkpt><trkpt lat="39.9199705" lon="8.4692958"><ele>1.0</ele><time>2026-05-02T08:14:29.555Z</time></trkpt><trkpt lat="39.9199667" lon="8.4691487"><ele>1.0</ele><time>2026-05-02T08:14:30.556Z</time></trkpt><trkpt lat="39.9199721" lon="8.4690029"><ele>1.0</ele><time>2026-05-02T08:14:31.556Z</time></trkpt><trkpt lat="39.91998" lon="8.4688561"><ele>1.0</ele><time>2026-05-02T08:14:32.555Z</time></trkpt><trkpt lat="39.9199902" lon="8.468714"><ele>1.0</ele><time>2026-05-02T08:14:33.556Z</time></trkpt><trkpt lat="39.9199977" lon="8.468572"><ele>1.2000000000000002</ele><time>2026-05-02T08:14:34.557Z</time></trkpt><trkpt lat="39.9200003" lon="8.468429"><ele>1.4000000000000001</ele><time>2026-05-02T08:14:35.557Z</time></trkpt><trkpt lat="39.9200039" lon="8.4682881"><ele>1.6</ele><time>2026-05-02T08:14:36.556Z</time></trkpt><trkpt lat="39.9200109" lon="8.4681487"><ele>1.8</ele><time>2026-05-02T08:14:37.556Z</time></trkpt><trkpt lat="39.9200162" lon="8.4680175"><ele>2.0</ele><time>2026-05-02T08:14:38.557Z</time></trkpt><trkpt lat="39.920012" lon="8.4678912"><ele>2.0</ele><time>2026-05-02T08:14:39.557Z</time></trkpt><trkpt lat="39.9199981" lon="8.4677847"><ele>2.0</ele><time>2026-05-02T08:14:40.557Z</time></trkpt><trkpt lat="39.9199774" lon="8.4676724"><ele>2.0</ele><time>2026-05-02T08:14:41.557Z</time></trkpt><trkpt lat="39.9199389" lon="8.4675664"><ele>2.0</ele><time>2026-05-02T08:14:42.556Z</time></trkpt><trkpt lat="39.9198856" lon="8.4674634"><ele>2.0</ele><time>2026-05-02T08:14:43.555Z</time></trkpt><trkpt lat="39.9198138" lon="8.4673646"><ele>2.0</ele><time>2026-05-02T08:14:44.556Z</time></trkpt><trkpt lat="39.9197477" lon="8.4672747"><ele>2.0</ele><time>2026-05-02T08:14:45.555Z</time></trkpt><trkpt lat="39.9196976" lon="8.4671783"><ele>2.0</ele><time>2026-05-02T08:14:46.557Z</time></trkpt><trkpt lat="39.9196528" lon="8.4670711"><ele>2.0</ele><time>2026-05-02T08:14:47.556Z</time></trkpt><trkpt lat="39.9196149" lon="8.4669625"><ele>2.0</ele><time>2026-05-02T08:14:48.556Z</time></trkpt><trkpt lat="39.9195748" lon="8.4668471"><ele>2.0</ele><time>2026-05-02T08:14:49.556Z</time></trkpt><trkpt lat="39.9195316" lon="8.4667312"><ele>2.0</ele><time>2026-05-02T08:14:50.556Z</time></trkpt><trkpt lat="39.9194926" lon="8.4666139"><ele>2.0</ele><time>2026-05-02T08:14:51.557Z</time></trkpt><trkpt lat="39.9194521" lon="8.4664976"><ele>2.0</ele><time>2026-05-02T08:14:52.556Z</time></trkpt><trkpt lat="39.9194125" lon="8.4663796"><ele>2.0</ele><time>2026-05-02T08:14:53.557Z</time></trkpt><trkpt lat="39.9193713" lon="8.4662668"><ele>2.2</ele><time>2026-05-02T08:14:54.557Z</time></trkpt><trkpt lat="39.9193228" lon="8.466152"><ele>2.4000000000000004</ele><time>2026-05-02T08:14:55.556Z</time></trkpt><trkpt lat="39.9192768" lon="8.4660323"><ele>2.5999999999999996</ele><time>2026-05-02T08:14:56.556Z</time></trkpt><trkpt lat="39.9192343" lon="8.4659109"><ele>2.8</ele><time>2026-05-02T08:14:57.556Z</time></trkpt><trkpt lat="39.9191916" lon="8.4657907"><ele>3.0</ele><time>2026-05-02T08:14:58.556Z</time></trkpt><trkpt lat="39.9191497" lon="8.4656665"><ele>2.8</ele><time>2026-05-02T08:14:59.557Z</time></trkpt><trkpt lat="39.9191136" lon="8.4655412"><ele>2.5999999999999996</ele><time>2026-05-02T08:15:00.557Z</time></trkpt><trkpt lat="39.9190809" lon="8.4654119"><ele>2.4000000000000004</ele><time>2026-05-02T08:15:01.555Z</time></trkpt><trkpt lat="39.919055" lon="8.4652808"><ele>2.2</ele><time>2026-05-02T08:15:02.555Z</time></trkpt><trkpt lat="39.9190371" lon="8.4651475"><ele>2.0</ele><time>2026-05-02T08:15:03.555Z</time></trkpt><trkpt lat="39.9190213" lon="8.4650094"><ele>2.0</ele><time>2026-05-02T08:15:04.555Z</time></trkpt><trkpt lat="39.9190041" lon="8.4648698"><ele>2.0</ele><time>2026-05-02T08:15:05.555Z</time></trkpt><trkpt lat="39.9189891" lon="8.4647297"><ele>2.0</ele><time>2026-05-02T08:15:06.556Z</time></trkpt><trkpt lat="39.9189799" lon="8.4645904"><ele>2.0</ele><time>2026-05-02T08:15:07.555Z</time></trkpt><trkpt lat="39.9189743" lon="8.4644499"><ele>2.0</ele><time>2026-05-02T08:15:08.557Z</time></trkpt><trkpt lat="39.91897" lon="8.4643105"><ele>2.0</ele><time>2026-05-02T08:15:09.555Z</time></trkpt><trkpt lat="39.9189678" lon="8.4641693"><ele>2.0</ele><time>2026-05-02T08:15:10.557Z</time></trkpt><trkpt lat="39.9189669" lon="8.464027"><ele>2.0</ele><time>2026-05-02T08:15:11.556Z</time></trkpt><trkpt lat="39.9189691" lon="8.4638856"><ele>2.0</ele><time>2026-05-02T08:15:12.556Z</time></trkpt><trkpt lat="39.9189773" lon="8.4637464"><ele>2.0</ele><time>2026-05-02T08:15:13.556Z</time></trkpt><trkpt lat="39.9189887" lon="8.4636051"><ele>2.0</ele><time>2026-05-02T08:15:14.557Z</time></trkpt><trkpt lat="39.9190033" lon="8.4634676"><ele>2.0</ele><time>2026-05-02T08:15:15.556Z</time></trkpt><trkpt lat="39.9190148" lon="8.4633276"><ele>2.0</ele><time>2026-05-02T08:15:16.555Z</time></trkpt><trkpt lat="39.9190278" lon="8.4631864"><ele>2.0</ele><time>2026-05-02T08:15:17.557Z</time></trkpt><trkpt lat="39.9190385" lon="8.4630442"><ele>2.0</ele><time>2026-05-02T08:15:18.557Z</time></trkpt><trkpt lat="39.9190524" lon="8.4629027"><ele>2.0</ele><time>2026-05-02T08:15:19.555Z</time></trkpt><trkpt lat="39.9190685" lon="8.4627594"><ele>2.0</ele><time>2026-05-02T08:15:20.556Z</time></trkpt><trkpt lat="39.9190781" lon="8.4626155"><ele>2.0</ele><time>2026-05-02T08:15:21.555Z</time></trkpt><trkpt lat="39.9190896" lon="8.4624715"><ele>2.0</ele><time>2026-05-02T08:15:22.555Z</time></trkpt><trkpt lat="39.9191008" lon="8.462325"><ele>2.0</ele><time>2026-05-02T08:15:23.555Z</time></trkpt><trkpt lat="39.9191118" lon="8.4621776"><ele>2.2</ele><time>2026-05-02T08:15:24.557Z</time></trkpt><trkpt lat="39.9191202" lon="8.4620299"><ele>2.4000000000000004</ele><time>2026-05-02T08:15:25.557Z</time></trkpt><trkpt lat="39.9191275" lon="8.4618837"><ele>2.5999999999999996</ele><time>2026-05-02T08:15:26.557Z</time></trkpt><trkpt lat="39.9191328" lon="8.4617387"><ele>2.8</ele><time>2026-05-02T08:15:27.557Z</time></trkpt><trkpt lat="39.9191369" lon="8.4615984"><ele>3.0</ele><time>2026-05-02T08:15:28.556Z</time></trkpt><trkpt lat="39.919139" lon="8.4614598"><ele>3.0</ele><time>2026-05-02T08:15:29.555Z</time></trkpt><trkpt lat="39.9191359" lon="8.4613164"><ele>3.0</ele><time>2026-05-02T08:15:30.557Z</time></trkpt><trkpt lat="39.9191382" lon="8.4611772"><ele>3.0</ele><time>2026-05-02T08:15:31.555Z</time></trkpt><trkpt lat="39.9191424" lon="8.4610389"><ele>3.0</ele><time>2026-05-02T08:15:32.556Z</time></trkpt><trkpt lat="39.9191446" lon="8.460902"><ele>3.0</ele><time>2026-05-02T08:15:33.556Z</time></trkpt><trkpt lat="39.9191489" lon="8.4607663"><ele>3.0</ele><time>2026-05-02T08:15:34.556Z</time></trkpt><trkpt lat="39.919153" lon="8.4606292"><ele>3.0</ele><time>2026-05-02T08:15:35.555Z</time></trkpt><trkpt lat="39.919155" lon="8.4604905"><ele>3.0</ele><time>2026-05-02T08:15:36.556Z</time></trkpt><trkpt lat="39.9191578" lon="8.4603538"><ele>3.0</ele><time>2026-05-02T08:15:37.555Z</time></trkpt><trkpt lat="39.9191583" lon="8.4602139"><ele>3.0</ele><time>2026-05-02T08:15:38.556Z</time></trkpt><trkpt lat="39.9191611" lon="8.4600765"><ele>3.0</ele><time>2026-05-02T08:15:39.555Z</time></trkpt><trkpt lat="39.9191656" lon="8.4599382"><ele>3.0</ele><time>2026-05-02T08:15:40.556Z</time></trkpt><trkpt lat="39.9191725" lon="8.4597997"><ele>3.0</ele><time>2026-05-02T08:15:41.555Z</time></trkpt><trkpt lat="39.9191754" lon="8.4596598"><ele>3.0</ele><time>2026-05-02T08:15:42.556Z</time></trkpt><trkpt lat="39.9191778" lon="8.4595185"><ele>3.0</ele><time>2026-05-02T08:15:43.555Z</time></trkpt><trkpt lat="39.9191793" lon="8.4593755"><ele>3.0</ele><time>2026-05-02T08:15:44.555Z</time></trkpt><trkpt lat="39.919183" lon="8.459238"><ele>3.0</ele><time>2026-05-02T08:15:45.556Z</time></trkpt><trkpt lat="39.9191858" lon="8.4590997"><ele>3.0</ele><time>2026-05-02T08:15:46.557Z</time></trkpt><trkpt lat="39.9191904" lon="8.4589635"><ele>3.0</ele><time>2026-05-02T08:15:47.555Z</time></trkpt><trkpt lat="39.9191926" lon="8.4588266"><ele>3.0</ele><time>2026-05-02T08:15:48.556Z</time></trkpt><trkpt lat="39.9191947" lon="8.4586915"><ele>2.8</ele><time>2026-05-02T08:15:49.556Z</time></trkpt><trkpt lat="39.9191969" lon="8.4585534"><ele>2.5999999999999996</ele><time>2026-05-02T08:15:50.555Z</time></trkpt><trkpt lat="39.9192011" lon="8.4584128"><ele>2.4000000000000004</ele><time>2026-05-02T08:15:51.556Z</time></trkpt><trkpt lat="39.9192065" lon="8.4582767"><ele>2.2</ele><time>2026-05-02T08:15:52.555Z</time></trkpt><trkpt lat="39.9192077" lon="8.4581454"><ele>2.0</ele><time>2026-05-02T08:15:53.556Z</time></trkpt><trkpt lat="39.9192083" lon="8.4580225"><ele>2.0</ele><time>2026-05-02T08:15:54.556Z</time></trkpt><trkpt lat="39.9192085" lon="8.4579"><ele>2.0</ele><time>2026-05-02T08:15:55.556Z</time></trkpt><trkpt lat="39.9192077" lon="8.4577763"><ele>2.0</ele><time>2026-05-02T08:15:56.556Z</time></trkpt><trkpt lat="39.9192072" lon="8.4576577"><ele>2.0</ele><time>2026-05-02T08:15:57.556Z</time></trkpt><trkpt lat="39.9192095" lon="8.4575356"><ele>2.0</ele><time>2026-05-02T08:15:58.555Z</time></trkpt><trkpt lat="39.9192108" lon="8.4574098"><ele>2.0</ele><time>2026-05-02T08:15:59.555Z</time></trkpt><trkpt lat="39.9192154" lon="8.4572861"><ele>2.0</ele><time>2026-05-02T08:16:00.555Z</time></trkpt><trkpt lat="39.9192192" lon="8.4571599"><ele>2.0</ele><time>2026-05-02T08:16:01.556Z</time></trkpt><trkpt lat="39.9192203" lon="8.457033"><ele>2.0</ele><time>2026-05-02T08:16:02.556Z</time></trkpt><trkpt lat="39.9192215" lon="8.4569078"><ele>2.0</ele><time>2026-05-02T08:16:03.557Z</time></trkpt><trkpt lat="39.9192236" lon="8.4567761"><ele>2.0</ele><time>2026-05-02T08:16:04.556Z</time></trkpt><trkpt lat="39.9192243" lon="8.4566429"><ele>2.0</ele><time>2026-05-02T08:16:05.556Z</time></trkpt><trkpt lat="39.9192264" lon="8.4565085"><ele>2.0</ele><time>2026-05-02T08:16:06.556Z</time></trkpt><trkpt lat="39.9192272" lon="8.4563782"><ele>2.0</ele><time>2026-05-02T08:16:07.555Z</time></trkpt><trkpt lat="39.9192238" lon="8.4562483"><ele>2.0</ele><time>2026-05-02T08:16:08.555Z</time></trkpt><trkpt lat="39.9192271" lon="8.4561195"><ele>2.2</ele><time>2026-05-02T08:16:09.556Z</time></trkpt><trkpt lat="39.9192349" lon="8.4559896"><ele>2.4000000000000004</ele><time>2026-05-02T08:16:10.555Z</time></trkpt><trkpt lat="39.9192466" lon="8.4558562"><ele>2.5999999999999996</ele><time>2026-05-02T08:16:11.556Z</time></trkpt><trkpt lat="39.9192603" lon="8.4557227"><ele>2.8</ele><time>2026-05-02T08:16:12.555Z</time></trkpt><trkpt lat="39.9192701" lon="8.4555888"><ele>3.0</ele><time>2026-05-02T08:16:13.555Z</time></trkpt><trkpt lat="39.9192808" lon="8.4554553"><ele>3.0</ele><time>2026-05-02T08:16:14.556Z</time></trkpt><trkpt lat="39.9192911" lon="8.4553203"><ele>3.0</ele><time>2026-05-02T08:16:15.556Z</time></trkpt><trkpt lat="39.9193034" lon="8.4551844"><ele>3.0</ele><time>2026-05-02T08:16:16.556Z</time></trkpt><trkpt lat="39.9193184" lon="8.4550479"><ele>3.0</ele><time>2026-05-02T08:16:17.556Z</time></trkpt><trkpt lat="39.919334" lon="8.4549086"><ele>3.0</ele><time>2026-05-02T08:16:18.556Z</time></trkpt><trkpt lat="39.9193564" lon="8.4547721"><ele>3.0</ele><time>2026-05-02T08:16:19.556Z</time></trkpt><trkpt lat="39.9193782" lon="8.4546344"><ele>3.0</ele><time>2026-05-02T08:16:20.555Z</time></trkpt><trkpt lat="39.9193959" lon="8.4544981"><ele>3.0</ele><time>2026-05-02T08:16:21.556Z</time></trkpt><trkpt lat="39.9194111" lon="8.45436"><ele>3.0</ele><time>2026-05-02T08:16:22.556Z</time></trkpt><trkpt lat="39.9194187" lon="8.4542219"><ele>3.0</ele><time>2026-05-02T08:16:23.556Z</time></trkpt><trkpt lat="39.9194152" lon="8.4540814"><ele>3.0</ele><time>2026-05-02T08:16:24.556Z</time></trkpt><trkpt lat="39.919416" lon="8.4539436"><ele>3.0</ele><time>2026-05-02T08:16:25.556Z</time></trkpt><trkpt lat="39.9194152" lon="8.4538081"><ele>3.0</ele><time>2026-05-02T08:16:26.557Z</time></trkpt><trkpt lat="39.9194164" lon="8.453673"><ele>3.0</ele><time>2026-05-02T08:16:27.555Z</time></trkpt><trkpt lat="39.919421" lon="8.4535369"><ele>3.0</ele><time>2026-05-02T08:16:28.555Z</time></trkpt><trkpt lat="39.9194316" lon="8.4534006"><ele>3.2</ele><time>2026-05-02T08:16:29.555Z</time></trkpt><trkpt lat="39.9194481" lon="8.4532673"><ele>3.4</ele><time>2026-05-02T08:16:30.556Z</time></trkpt><trkpt lat="39.9194709" lon="8.4531452"><ele>3.6000000000000005</ele><time>2026-05-02T08:16:31.556Z</time></trkpt><trkpt lat="39.9195036" lon="8.4530272"><ele>3.8000000000000003</ele><time>2026-05-02T08:16:32.556Z</time></trkpt><trkpt lat="39.9195408" lon="8.4529106"><ele>4.0</ele><time>2026-05-02T08:16:33.556Z</time></trkpt><trkpt lat="39.919584" lon="8.4527978"><ele>4.333333333333333</ele><time>2026-05-02T08:16:34.555Z</time></trkpt><trkpt lat="39.9196262" lon="8.4527048"><ele>4.666666666666666</ele><time>2026-05-02T08:16:35.556Z</time></trkpt><trkpt lat="39.9196613" lon="8.4526207"><ele>5.0</ele><time>2026-05-02T08:16:36.555Z</time></trkpt><trkpt lat="39.9196893" lon="8.452533"><ele>5.333333333333333</ele><time>2026-05-02T08:16:37.556Z</time></trkpt><trkpt lat="39.9197246" lon="8.4524412"><ele>5.666666666666667</ele><time>2026-05-02T08:16:38.557Z</time></trkpt><trkpt lat="39.9197692" lon="8.4523456"><ele>6.0</ele><time>2026-05-02T08:16:39.555Z</time></trkpt><trkpt lat="39.919819" lon="8.452247"><ele>6.0</ele><time>2026-05-02T08:16:40.556Z</time></trkpt><trkpt lat="39.9198709" lon="8.4521449"><ele>6.0</ele><time>2026-05-02T08:16:41.555Z</time></trkpt><trkpt lat="39.9199228" lon="8.4520404"><ele>6.0</ele><time>2026-05-02T08:16:42.557Z</time></trkpt><trkpt lat="39.9199752" lon="8.4519353"><ele>6.0</ele><time>2026-05-02T08:16:43.556Z</time></trkpt><trkpt lat="39.9200229" lon="8.4518276"><ele>6.0</ele><time>2026-05-02T08:16:44.556Z</time></trkpt><trkpt lat="39.9200728" lon="8.4517231"><ele>6.166666666666667</ele><time>2026-05-02T08:16:45.556Z</time></trkpt><trkpt lat="39.9201275" lon="8.4516287"><ele>6.333333333333334</ele><time>2026-05-02T08:16:46.555Z</time></trkpt><trkpt lat="39.9201824" lon="8.4515542"><ele>6.5</ele><time>2026-05-02T08:16:47.556Z</time></trkpt><trkpt lat="39.9202305" lon="8.4514899"><ele>6.666666666666667</ele><time>2026-05-02T08:16:48.557Z</time></trkpt><trkpt lat="39.9203036" lon="8.4513846"><ele>6.833333333333334</ele><time>2026-05-02T08:16:50.556Z</time></trkpt><trkpt lat="39.9203311" lon="8.4512805"><ele>7.0</ele><time>2026-05-02T08:16:53.555Z</time></trkpt><trkpt lat="39.9203177" lon="8.4511919"><ele>7.0</ele><time>2026-05-02T08:16:55.556Z</time></trkpt><trkpt lat="39.9203628" lon="8.4511091"><ele>6.999999999999999</ele><time>2026-05-02T08:16:57.555Z</time></trkpt><trkpt lat="39.9204735" lon="8.4510222"><ele>6.999999999999999</ele><time>2026-05-02T08:16:59.556Z</time></trkpt><trkpt lat="39.9205439" lon="8.4509724"><ele>7.0</ele><time>2026-05-02T08:17:00.557Z</time></trkpt><trkpt lat="39.9206231" lon="8.450925"><ele>7.0</ele><time>2026-05-02T08:17:01.557Z</time></trkpt><trkpt lat="39.9207117" lon="8.4508929"><ele>7.0</ele><time>2026-05-02T08:17:02.556Z</time></trkpt><trkpt lat="39.9208068" lon="8.4508774"><ele>6.999999999999999</ele><time>2026-05-02T08:17:03.556Z</time></trkpt><trkpt lat="39.9209072" lon="8.4508827"><ele>6.999999999999999</ele><time>2026-05-02T08:17:04.556Z</time></trkpt><trkpt lat="39.9210058" lon="8.450919"><ele>7.0</ele><time>2026-05-02T08:17:05.557Z</time></trkpt><trkpt lat="39.9210973" lon="8.4509784"><ele>7.0</ele><time>2026-05-02T08:17:06.556Z</time></trkpt><trkpt lat="39.921193" lon="8.4510447"><ele>7.25</ele><time>2026-05-02T08:17:07.556Z</time></trkpt><trkpt lat="39.9212851" lon="8.4511267"><ele>7.5</ele><time>2026-05-02T08:17:08.555Z</time></trkpt><trkpt lat="39.9213758" lon="8.4512173"><ele>7.75</ele><time>2026-05-02T08:17:09.556Z</time></trkpt><trkpt lat="39.9214698" lon="8.4513013"><ele>8.0</ele><time>2026-05-02T08:17:10.555Z</time></trkpt><trkpt lat="39.9215669" lon="8.451385"><ele>8.0</ele><time>2026-05-02T08:17:11.555Z</time></trkpt><trkpt lat="39.9216659" lon="8.4514713"><ele>8.0</ele><time>2026-05-02T08:17:12.557Z</time></trkpt><trkpt lat="39.9217662" lon="8.4515591"><ele>8.0</ele><time>2026-05-02T08:17:13.556Z</time></trkpt><trkpt lat="39.9218648" lon="8.4516487"><ele>8.0</ele><time>2026-05-02T08:17:14.556Z</time></trkpt><trkpt lat="39.9219668" lon="8.451738"><ele>8.0</ele><time>2026-05-02T08:17:15.556Z</time></trkpt><trkpt lat="39.922067" lon="8.4518258"><ele>8.0</ele><time>2026-05-02T08:17:16.555Z</time></trkpt><trkpt lat="39.9221675" lon="8.4519126"><ele>8.0</ele><time>2026-05-02T08:17:17.557Z</time></trkpt><trkpt lat="39.9222697" lon="8.4520082"><ele>8.0</ele><time>2026-05-02T08:17:18.557Z</time></trkpt><trkpt lat="39.9223735" lon="8.4520987"><ele>8.0</ele><time>2026-05-02T08:17:19.556Z</time></trkpt><trkpt lat="39.922478" lon="8.4521931"><ele>8.0</ele><time>2026-05-02T08:17:20.556Z</time></trkpt><trkpt lat="39.922589" lon="8.4522875"><ele>8.0</ele><time>2026-05-02T08:17:21.557Z</time></trkpt><trkpt lat="39.9227043" lon="8.4523882"><ele>8.0</ele><time>2026-05-02T08:17:22.556Z</time></trkpt><trkpt lat="39.9228252" lon="8.452491"><ele>8.0</ele><time>2026-05-02T08:17:23.556Z</time></trkpt><trkpt lat="39.9229477" lon="8.4525891"><ele>8.0</ele><time>2026-05-02T08:17:24.556Z</time></trkpt><trkpt lat="39.9230726" lon="8.4526843"><ele>8.0</ele><time>2026-05-02T08:17:25.556Z</time></trkpt><trkpt lat="39.923198" lon="8.4527735"><ele>8.0</ele><time>2026-05-02T08:17:26.556Z</time></trkpt><trkpt lat="39.9233214" lon="8.4528634"><ele>8.75</ele><time>2026-05-02T08:17:27.555Z</time></trkpt><trkpt lat="39.9234431" lon="8.4529524"><ele>9.5</ele><time>2026-05-02T08:17:28.556Z</time></trkpt><trkpt lat="39.9235634" lon="8.4530415"><ele>10.25</ele><time>2026-05-02T08:17:29.555Z</time></trkpt><trkpt lat="39.9236872" lon="8.4531297"><ele>11.0</ele><time>2026-05-02T08:17:30.556Z</time></trkpt><trkpt lat="39.9238091" lon="8.4532165"><ele>11.0</ele><time>2026-05-02T08:17:31.556Z</time></trkpt><trkpt lat="39.9239324" lon="8.4533023"><ele>11.0</ele><time>2026-05-02T08:17:32.556Z</time></trkpt><trkpt lat="39.9240552" lon="8.453393"><ele>11.0</ele><time>2026-05-02T08:17:33.557Z</time></trkpt><trkpt lat="39.924181" lon="8.4534841"><ele>11.0</ele><time>2026-05-02T08:17:34.555Z</time></trkpt><trkpt lat="39.9243028" lon="8.4535772"><ele>10.75</ele><time>2026-05-02T08:17:35.556Z</time></trkpt><trkpt lat="39.9244256" lon="8.4536724"><ele>10.5</ele><time>2026-05-02T08:17:36.555Z</time></trkpt><trkpt lat="39.9245463" lon="8.4537674"><ele>10.25</ele><time>2026-05-02T08:17:37.556Z</time></trkpt><trkpt lat="39.9246665" lon="8.4538648"><ele>10.0</ele><time>2026-05-02T08:17:38.556Z</time></trkpt><trkpt lat="39.9247857" lon="8.4539685"><ele>10.0</ele><time>2026-05-02T08:17:39.555Z</time></trkpt><trkpt lat="39.9249047" lon="8.4540699"><ele>10.0</ele><time>2026-05-02T08:17:40.556Z</time></trkpt><trkpt lat="39.9250217" lon="8.4541699"><ele>10.0</ele><time>2026-05-02T08:17:41.556Z</time></trkpt><trkpt lat="39.9251396" lon="8.4542698"><ele>10.0</ele><time>2026-05-02T08:17:42.555Z</time></trkpt><trkpt lat="39.925255" lon="8.4543674"><ele>10.5</ele><time>2026-05-02T08:17:43.555Z</time></trkpt><trkpt lat="39.9253755" lon="8.4544562"><ele>11.0</ele><time>2026-05-02T08:17:44.556Z</time></trkpt><trkpt lat="39.9255035" lon="8.4545244"><ele>11.5</ele><time>2026-05-02T08:17:45.557Z</time></trkpt><trkpt lat="39.9256374" lon="8.4545745"><ele>12.0</ele><time>2026-05-02T08:17:46.556Z</time></trkpt><trkpt lat="39.9257783" lon="8.4546038"><ele>12.0</ele><time>2026-05-02T08:17:47.557Z</time></trkpt><trkpt lat="39.9259177" lon="8.4546205"><ele>12.0</ele><time>2026-05-02T08:17:48.556Z</time></trkpt><trkpt lat="39.926059" lon="8.4546329"><ele>12.0</ele><time>2026-05-02T08:17:49.557Z</time></trkpt><trkpt lat="39.9262004" lon="8.4546451"><ele>12.0</ele><time>2026-05-02T08:17:50.557Z</time></trkpt><trkpt lat="39.9263401" lon="8.4546586"><ele>12.0</ele><time>2026-05-02T08:17:51.554Z</time></trkpt><trkpt lat="39.9264849" lon="8.4546731"><ele>12.0</ele><time>2026-05-02T08:17:52.555Z</time></trkpt><trkpt lat="39.9266267" lon="8.4546977"><ele>12.0</ele><time>2026-05-02T08:17:53.554Z</time></trkpt><trkpt lat="39.926768" lon="8.4547261"><ele>12.0</ele><time>2026-05-02T08:17:54.556Z</time></trkpt><trkpt lat="39.9269038" lon="8.4547664"><ele>13.0</ele><time>2026-05-02T08:17:55.555Z</time></trkpt><trkpt lat="39.9270409" lon="8.4548225"><ele>14.0</ele><time>2026-05-02T08:17:56.554Z</time></trkpt><trkpt lat="39.9271744" lon="8.4548864"><ele>15.0</ele><time>2026-05-02T08:17:57.555Z</time></trkpt><trkpt lat="39.9273092" lon="8.4549431"><ele>16.0</ele><time>2026-05-02T08:17:58.556Z</time></trkpt><trkpt lat="39.927442" lon="8.4549934"><ele>16.5</ele><time>2026-05-02T08:17:59.555Z</time></trkpt><trkpt lat="39.9275776" lon="8.4550407"><ele>17.0</ele><time>2026-05-02T08:18:00.555Z</time></trkpt><trkpt lat="39.9277157" lon="8.4550891"><ele>17.5</ele><time>2026-05-02T08:18:01.555Z</time></trkpt><trkpt lat="39.9278509" lon="8.455131"><ele>18.0</ele><time>2026-05-02T08:18:02.554Z</time></trkpt><trkpt lat="39.9279832" lon="8.4551791"><ele>18.0</ele><time>2026-05-02T08:18:03.555Z</time></trkpt><trkpt lat="39.928116" lon="8.4552275"><ele>18.0</ele><time>2026-05-02T08:18:04.554Z</time></trkpt><trkpt lat="39.928245" lon="8.455275"><ele>18.0</ele><time>2026-05-02T08:18:05.554Z</time></trkpt><trkpt lat="39.9283737" lon="8.4553252"><ele>18.0</ele><time>2026-05-02T08:18:06.554Z</time></trkpt><trkpt lat="39.9285032" lon="8.4553724"><ele>18.25</ele><time>2026-05-02T08:18:07.556Z</time></trkpt><trkpt lat="39.9286323" lon="8.4554203"><ele>18.5</ele><time>2026-05-02T08:18:08.555Z</time></trkpt><trkpt lat="39.9287616" lon="8.4554738"><ele>18.75</ele><time>2026-05-02T08:18:09.556Z</time></trkpt><trkpt lat="39.9288824" lon="8.4555302"><ele>19.0</ele><time>2026-05-02T08:18:10.556Z</time></trkpt><trkpt lat="39.9289872" lon="8.455588"><ele>19.0</ele><time>2026-05-02T08:18:11.555Z</time></trkpt><trkpt lat="39.9290768" lon="8.4556501"><ele>19.0</ele><time>2026-05-02T08:18:12.555Z</time></trkpt><trkpt lat="39.9291574" lon="8.4557175"><ele>19.0</ele><time>2026-05-02T08:18:13.555Z</time></trkpt><trkpt lat="39.9292402" lon="8.455797"><ele>19.0</ele><time>2026-05-02T08:18:14.555Z</time></trkpt><trkpt lat="39.9293318" lon="8.4558865"><ele>19.0</ele><time>2026-05-02T08:18:15.556Z</time></trkpt><trkpt lat="39.9294277" lon="8.455973"><ele>19.0</ele><time>2026-05-02T08:18:16.556Z</time></trkpt><trkpt lat="39.929514" lon="8.4560458"><ele>19.0</ele><time>2026-05-02T08:18:17.555Z</time></trkpt><trkpt lat="39.9295884" lon="8.4561116"><ele>19.0</ele><time>2026-05-02T08:18:18.554Z</time></trkpt><trkpt lat="39.9296518" lon="8.4561696"><ele>19.0</ele><time>2026-05-02T08:18:19.555Z</time></trkpt><trkpt lat="39.929704" lon="8.4562175"><ele>19.0</ele><time>2026-05-02T08:18:20.555Z</time></trkpt><trkpt lat="39.9297557" lon="8.4562716"><ele>19.0</ele><time>2026-05-02T08:18:22.554Z</time></trkpt><trkpt lat="39.9297303" lon="8.4561746"><ele>19.0</ele><time>2026-05-02T08:18:42.556Z</time></trkpt><trkpt lat="39.9296719" lon="8.4561293"><ele>19.0</ele><time>2026-05-02T08:18:43.556Z</time></trkpt><trkpt lat="39.9296126" lon="8.4560805"><ele>19.0</ele><time>2026-05-02T08:18:44.555Z</time></trkpt><trkpt lat="39.9295521" lon="8.4560282"><ele>19.0</ele><time>2026-05-02T08:18:45.555Z</time></trkpt><trkpt lat="39.9294893" lon="8.4559725"><ele>19.0</ele><time>2026-05-02T08:18:46.556Z</time></trkpt><trkpt lat="39.9294267" lon="8.4559167"><ele>19.0</ele><time>2026-05-02T08:18:47.556Z</time></trkpt><trkpt lat="39.9293406" lon="8.4558197"><ele>19.0</ele><time>2026-05-02T08:18:49.555Z</time></trkpt><trkpt lat="39.9293059" lon="8.4557506"><ele>19.0</ele><time>2026-05-02T08:18:50.555Z</time></trkpt><trkpt lat="39.9292807" lon="8.4556672"><ele>19.0</ele><time>2026-05-02T08:18:51.554Z</time></trkpt><trkpt lat="39.9292735" lon="8.4555683"><ele>19.0</ele><time>2026-05-02T08:18:52.554Z</time></trkpt><trkpt lat="39.9292847" lon="8.4554642"><ele>19.0</ele><time>2026-05-02T08:18:53.554Z</time></trkpt><trkpt lat="39.9293121" lon="8.4553551"><ele>19.0</ele><time>2026-05-02T08:18:54.555Z</time></trkpt><trkpt lat="39.9293512" lon="8.4552477"><ele>20.0</ele><time>2026-05-02T08:18:55.554Z</time></trkpt><trkpt lat="39.9293994" lon="8.45514"><ele>21.0</ele><time>2026-05-02T08:18:56.555Z</time></trkpt><trkpt lat="39.9294496" lon="8.4550315"><ele>22.0</ele><time>2026-05-02T08:18:57.556Z</time></trkpt><trkpt lat="39.9295024" lon="8.4549234"><ele>23.0</ele><time>2026-05-02T08:18:58.555Z</time></trkpt><trkpt lat="39.9295531" lon="8.454807"><ele>24.0</ele><time>2026-05-02T08:18:59.555Z</time></trkpt><trkpt lat="39.9296049" lon="8.4546839"><ele>25.0</ele><time>2026-05-02T08:19:00.555Z</time></trkpt><trkpt lat="39.9296581" lon="8.4545618"><ele>26.0</ele><time>2026-05-02T08:19:01.555Z</time></trkpt><trkpt lat="39.9297143" lon="8.4544315"><ele>27.0</ele><time>2026-05-02T08:19:02.555Z</time></trkpt><trkpt lat="39.9297752" lon="8.4543013"><ele>28.0</ele><time>2026-05-02T08:19:03.555Z</time></trkpt><trkpt lat="39.929838" lon="8.4541752"><ele>28.0</ele><time>2026-05-02T08:19:04.554Z</time></trkpt><trkpt lat="39.9299052" lon="8.4540479"><ele>28.0</ele><time>2026-05-02T08:19:05.555Z</time></trkpt><trkpt lat="39.9299739" lon="8.453916"><ele>28.0</ele><time>2026-05-02T08:19:06.554Z</time></trkpt><trkpt lat="39.9300448" lon="8.4537902"><ele>28.0</ele><time>2026-05-02T08:19:07.554Z</time></trkpt><trkpt lat="39.9301232" lon="8.4536648"><ele>30.0</ele><time>2026-05-02T08:19:08.554Z</time></trkpt><trkpt lat="39.9301964" lon="8.4535383"><ele>32.0</ele><time>2026-05-02T08:19:09.555Z</time></trkpt><trkpt lat="39.9302696" lon="8.4534103"><ele>34.0</ele><time>2026-05-02T08:19:10.555Z</time></trkpt><trkpt lat="39.9303401" lon="8.4532764"><ele>36.0</ele><time>2026-05-02T08:19:11.556Z</time></trkpt><trkpt lat="39.9304198" lon="8.4531447"><ele>36.0</ele><time>2026-05-02T08:19:12.555Z</time></trkpt><trkpt lat="39.9305012" lon="8.4530112"><ele>36.0</ele><time>2026-05-02T08:19:13.554Z</time></trkpt><trkpt lat="39.9305881" lon="8.4528741"><ele>36.0</ele><time>2026-05-02T08:19:14.555Z</time></trkpt><trkpt lat="39.9306708" lon="8.4527325"><ele>36.0</ele><time>2026-05-02T08:19:15.555Z</time></trkpt><trkpt lat="39.930757" lon="8.4525868"><ele>35.75</ele><time>2026-05-02T08:19:16.555Z</time></trkpt><trkpt lat="39.9308426" lon="8.4524369"><ele>35.5</ele><time>2026-05-02T08:19:17.555Z</time></trkpt><trkpt lat="39.930929" lon="8.4522745"><ele>35.25</ele><time>2026-05-02T08:19:18.554Z</time></trkpt><trkpt lat="39.9310146" lon="8.4521218"><ele>35.0</ele><time>2026-05-02T08:19:19.556Z</time></trkpt><trkpt lat="39.9311027" lon="8.4519665"><ele>39.33333333333333</ele><time>2026-05-02T08:19:20.556Z</time></trkpt><trkpt lat="39.9311868" lon="8.4518034"><ele>43.666666666666664</ele><time>2026-05-02T08:19:21.555Z</time></trkpt><trkpt lat="39.9312631" lon="8.4516302"><ele>48.0</ele><time>2026-05-02T08:19:22.555Z</time></trkpt><trkpt lat="39.9313248" lon="8.4514535"><ele>47.5</ele><time>2026-05-02T08:19:23.555Z</time></trkpt><trkpt lat="39.931365" lon="8.4512742"><ele>47.0</ele><time>2026-05-02T08:19:24.555Z</time></trkpt><trkpt lat="39.9314014" lon="8.451091"><ele>46.5</ele><time>2026-05-02T08:19:25.556Z</time></trkpt><trkpt lat="39.9314285" lon="8.4509048"><ele>46.0</ele><time>2026-05-02T08:19:26.555Z</time></trkpt><trkpt lat="39.9314543" lon="8.4507193"><ele>46.0</ele><time>2026-05-02T08:19:27.555Z</time></trkpt><trkpt lat="39.9314812" lon="8.4505315"><ele>46.0</ele><time>2026-05-02T08:19:28.555Z</time></trkpt><trkpt lat="39.9315109" lon="8.4503461"><ele>46.0</ele><time>2026-05-02T08:19:29.556Z</time></trkpt><trkpt lat="39.9315401" lon="8.4501625"><ele>46.0</ele><time>2026-05-02T08:19:30.556Z</time></trkpt><trkpt lat="39.9315796" lon="8.44998"><ele>46.25</ele><time>2026-05-02T08:19:31.555Z</time></trkpt><trkpt lat="39.9316281" lon="8.4498064"><ele>46.5</ele><time>2026-05-02T08:19:32.556Z</time></trkpt><trkpt lat="39.9316946" lon="8.4496368"><ele>46.75</ele><time>2026-05-02T08:19:33.555Z</time></trkpt><trkpt lat="39.931777" lon="8.4494796"><ele>47.0</ele><time>2026-05-02T08:19:34.554Z</time></trkpt><trkpt lat="39.9318627" lon="8.4493301"><ele>48.75</ele><time>2026-05-02T08:19:35.555Z</time></trkpt><trkpt lat="39.9319625" lon="8.4491895"><ele>50.5</ele><time>2026-05-02T08:19:36.555Z</time></trkpt><trkpt lat="39.932072" lon="8.4490599"><ele>52.25</ele><time>2026-05-02T08:19:37.554Z</time></trkpt><trkpt lat="39.9321893" lon="8.4489404"><ele>54.0</ele><time>2026-05-02T08:19:38.555Z</time></trkpt><trkpt lat="39.9323172" lon="8.4488343"><ele>54.33333333333333</ele><time>2026-05-02T08:19:39.556Z</time></trkpt><trkpt lat="39.9324487" lon="8.4487331"><ele>54.666666666666664</ele><time>2026-05-02T08:19:40.554Z</time></trkpt><trkpt lat="39.9325809" lon="8.4486307"><ele>55.0</ele><time>2026-05-02T08:19:41.554Z</time></trkpt><trkpt lat="39.9327064" lon="8.4485303"><ele>56.33333333333333</ele><time>2026-05-02T08:19:42.556Z</time></trkpt><trkpt lat="39.9328365" lon="8.4484322"><ele>57.66666666666667</ele><time>2026-05-02T08:19:43.555Z</time></trkpt><trkpt lat="39.9329736" lon="8.4483303"><ele>59.0</ele><time>2026-05-02T08:19:44.554Z</time></trkpt><trkpt lat="39.9331026" lon="8.4482251"><ele>59.0</ele><time>2026-05-02T08:19:45.554Z</time></trkpt><trkpt lat="39.9332293" lon="8.4481218"><ele>59.0</ele><time>2026-05-02T08:19:46.555Z</time></trkpt><trkpt lat="39.9333536" lon="8.4480237"><ele>59.0</ele><time>2026-05-02T08:19:47.555Z</time></trkpt><trkpt lat="39.9334776" lon="8.4479227"><ele>59.0</ele><time>2026-05-02T08:19:48.554Z</time></trkpt><trkpt lat="39.9336082" lon="8.4478224"><ele>58.66666666666667</ele><time>2026-05-02T08:19:49.554Z</time></trkpt><trkpt lat="39.9337377" lon="8.4477209"><ele>58.33333333333333</ele><time>2026-05-02T08:19:50.556Z</time></trkpt><trkpt lat="39.9338649" lon="8.4476119"><ele>58.0</ele><time>2026-05-02T08:19:51.556Z</time></trkpt><trkpt lat="39.9339881" lon="8.4474991"><ele>58.0</ele><time>2026-05-02T08:19:52.555Z</time></trkpt><trkpt lat="39.9341125" lon="8.4473761"><ele>58.0</ele><time>2026-05-02T08:19:53.554Z</time></trkpt><trkpt lat="39.9342291" lon="8.4472412"><ele>58.0</ele><time>2026-05-02T08:19:54.554Z</time></trkpt><trkpt lat="39.9343431" lon="8.4471"><ele>58.33333333333333</ele><time>2026-05-02T08:19:55.555Z</time></trkpt><trkpt lat="39.9344572" lon="8.4469502"><ele>58.66666666666667</ele><time>2026-05-02T08:19:56.554Z</time></trkpt><trkpt lat="39.9345656" lon="8.4467973"><ele>59.0</ele><time>2026-05-02T08:19:57.556Z</time></trkpt><trkpt lat="39.9346759" lon="8.446642"><ele>59.0</ele><time>2026-05-02T08:19:58.555Z</time></trkpt><trkpt lat="39.9347858" lon="8.4464804"><ele>59.0</ele><time>2026-05-02T08:19:59.555Z</time></trkpt><trkpt lat="39.9348987" lon="8.4463236"><ele>59.0</ele><time>2026-05-02T08:20:00.555Z</time></trkpt><trkpt lat="39.9350146" lon="8.446165"><ele>58.66666666666667</ele><time>2026-05-02T08:20:01.555Z</time></trkpt><trkpt lat="39.9351236" lon="8.4460042"><ele>58.33333333333333</ele><time>2026-05-02T08:20:02.555Z</time></trkpt><trkpt lat="39.9352379" lon="8.4458481"><ele>58.0</ele><time>2026-05-02T08:20:03.554Z</time></trkpt><trkpt lat="39.9353518" lon="8.4456937"><ele>58.0</ele><time>2026-05-02T08:20:04.556Z</time></trkpt><trkpt lat="39.9354581" lon="8.4455323"><ele>58.0</ele><time>2026-05-02T08:20:05.554Z</time></trkpt><trkpt lat="39.9355636" lon="8.4453753"><ele>58.0</ele><time>2026-05-02T08:20:06.554Z</time></trkpt><trkpt lat="39.9356679" lon="8.4452255"><ele>57.75</ele><time>2026-05-02T08:20:07.554Z</time></trkpt><trkpt lat="39.9357718" lon="8.4450811"><ele>57.5</ele><time>2026-05-02T08:20:08.554Z</time></trkpt><trkpt lat="39.935871" lon="8.4449361"><ele>57.25</ele><time>2026-05-02T08:20:09.556Z</time></trkpt><trkpt lat="39.9359684" lon="8.4447955"><ele>57.0</ele><time>2026-05-02T08:20:10.554Z</time></trkpt><trkpt lat="39.9360668" lon="8.4446506"><ele>55.75</ele><time>2026-05-02T08:20:11.556Z</time></trkpt><trkpt lat="39.9361665" lon="8.444507"><ele>54.5</ele><time>2026-05-02T08:20:12.554Z</time></trkpt><trkpt lat="39.9362612" lon="8.4443637"><ele>53.25</ele><time>2026-05-02T08:20:13.555Z</time></trkpt><trkpt lat="39.9363608" lon="8.4442216"><ele>52.0</ele><time>2026-05-02T08:20:14.555Z</time></trkpt><trkpt lat="39.9364572" lon="8.4440823"><ele>52.0</ele><time>2026-05-02T08:20:15.555Z</time></trkpt><trkpt lat="39.93655" lon="8.4439439"><ele>52.0</ele><time>2026-05-02T08:20:16.554Z</time></trkpt><trkpt lat="39.9366463" lon="8.4438022"><ele>52.0</ele><time>2026-05-02T08:20:17.556Z</time></trkpt><trkpt lat="39.9367438" lon="8.4436617"><ele>52.0</ele><time>2026-05-02T08:20:18.555Z</time></trkpt><trkpt lat="39.9368414" lon="8.443523"><ele>51.5</ele><time>2026-05-02T08:20:19.554Z</time></trkpt><trkpt lat="39.9369382" lon="8.4433856"><ele>51.0</ele><time>2026-05-02T08:20:20.555Z</time></trkpt><trkpt lat="39.9370358" lon="8.4432436"><ele>50.5</ele><time>2026-05-02T08:20:21.554Z</time></trkpt><trkpt lat="39.9371371" lon="8.4431059"><ele>50.0</ele><time>2026-05-02T08:20:22.555Z</time></trkpt><trkpt lat="39.9372312" lon="8.4429676"><ele>49.5</ele><time>2026-05-02T08:20:23.556Z</time></trkpt><trkpt lat="39.9373235" lon="8.442826"><ele>49.0</ele><time>2026-05-02T08:20:24.554Z</time></trkpt><trkpt lat="39.9374198" lon="8.4426897"><ele>48.5</ele><time>2026-05-02T08:20:25.556Z</time></trkpt><trkpt lat="39.9375144" lon="8.4425559"><ele>48.0</ele><time>2026-05-02T08:20:26.555Z</time></trkpt><trkpt lat="39.9376161" lon="8.4424319"><ele>47.75</ele><time>2026-05-02T08:20:27.555Z</time></trkpt><trkpt lat="39.9377233" lon="8.4423183"><ele>47.5</ele><time>2026-05-02T08:20:28.554Z</time></trkpt><trkpt lat="39.9378352" lon="8.442209"><ele>47.25</ele><time>2026-05-02T08:20:29.555Z</time></trkpt><trkpt lat="39.9379498" lon="8.4421117"><ele>47.0</ele><time>2026-05-02T08:20:30.555Z</time></trkpt><trkpt lat="39.9380706" lon="8.4420238"><ele>47.0</ele><time>2026-05-02T08:20:31.554Z</time></trkpt><trkpt lat="39.9381855" lon="8.4419387"><ele>47.0</ele><time>2026-05-02T08:20:32.554Z</time></trkpt><trkpt lat="39.9383049" lon="8.4418511"><ele>47.0</ele><time>2026-05-02T08:20:33.555Z</time></trkpt><trkpt lat="39.9384332" lon="8.441763"><ele>47.0</ele><time>2026-05-02T08:20:34.555Z</time></trkpt><trkpt lat="39.9385609" lon="8.4416794"><ele>47.25</ele><time>2026-05-02T08:20:35.556Z</time></trkpt><trkpt lat="39.9386815" lon="8.441595"><ele>47.5</ele><time>2026-05-02T08:20:36.556Z</time></trkpt><trkpt lat="39.9387913" lon="8.4415143"><ele>47.75</ele><time>2026-05-02T08:20:37.555Z</time></trkpt><trkpt lat="39.9388997" lon="8.4414392"><ele>48.0</ele><time>2026-05-02T08:20:38.555Z</time></trkpt><trkpt lat="39.939006" lon="8.4413665"><ele>47.5</ele><time>2026-05-02T08:20:39.555Z</time></trkpt><trkpt lat="39.9391135" lon="8.4412905"><ele>47.0</ele><time>2026-05-02T08:20:40.555Z</time></trkpt><trkpt lat="39.9392287" lon="8.4412108"><ele>46.5</ele><time>2026-05-02T08:20:41.556Z</time></trkpt><trkpt lat="39.9393445" lon="8.4411286"><ele>46.0</ele><time>2026-05-02T08:20:42.555Z</time></trkpt><trkpt lat="39.9394569" lon="8.4410442"><ele>46.0</ele><time>2026-05-02T08:20:43.555Z</time></trkpt><trkpt lat="39.9395727" lon="8.4409551"><ele>46.0</ele><time>2026-05-02T08:20:44.554Z</time></trkpt><trkpt lat="39.939687" lon="8.440853"><ele>46.0</ele><time>2026-05-02T08:20:45.555Z</time></trkpt><trkpt lat="39.9398038" lon="8.440736"><ele>46.0</ele><time>2026-05-02T08:20:46.555Z</time></trkpt><trkpt lat="39.9399188" lon="8.4406053"><ele>45.66666666666667</ele><time>2026-05-02T08:20:47.556Z</time></trkpt><trkpt lat="39.9400272" lon="8.4404584"><ele>45.333333333333336</ele><time>2026-05-02T08:20:48.555Z</time></trkpt><trkpt lat="39.9401346" lon="8.4403026"><ele>45.0</ele><time>2026-05-02T08:20:49.555Z</time></trkpt><trkpt lat="39.9402356" lon="8.4401412"><ele>45.0</ele><time>2026-05-02T08:20:50.555Z</time></trkpt><trkpt lat="39.9403336" lon="8.4399751"><ele>45.0</ele><time>2026-05-02T08:20:51.555Z</time></trkpt><trkpt lat="39.9404324" lon="8.4398036"><ele>45.0</ele><time>2026-05-02T08:20:52.554Z</time></trkpt><trkpt lat="39.9405295" lon="8.439638"><ele>44.666666666666664</ele><time>2026-05-02T08:20:53.554Z</time></trkpt><trkpt lat="39.940628" lon="8.4394745"><ele>44.33333333333333</ele><time>2026-05-02T08:20:54.555Z</time></trkpt><trkpt lat="39.940724" lon="8.4393101"><ele>44.0</ele><time>2026-05-02T08:20:55.554Z</time></trkpt><trkpt lat="39.9408179" lon="8.4391426"><ele>44.0</ele><time>2026-05-02T08:20:56.555Z</time></trkpt><trkpt lat="39.9409141" lon="8.4389769"><ele>44.0</ele><time>2026-05-02T08:20:57.555Z</time></trkpt><trkpt lat="39.94101" lon="8.4388128"><ele>44.0</ele><time>2026-05-02T08:20:58.554Z</time></trkpt><trkpt lat="39.9411053" lon="8.4386498"><ele>43.666666666666664</ele><time>2026-05-02T08:20:59.555Z</time></trkpt><trkpt lat="39.9412011" lon="8.4384868"><ele>43.333333333333336</ele><time>2026-05-02T08:21:00.554Z</time></trkpt><trkpt lat="39.9413009" lon="8.4383208"><ele>43.0</ele><time>2026-05-02T08:21:01.556Z</time></trkpt><trkpt lat="39.9414052" lon="8.4381596"><ele>43.0</ele><time>2026-05-02T08:21:02.554Z</time></trkpt><trkpt lat="39.9415155" lon="8.4380043"><ele>43.0</ele><time>2026-05-02T08:21:03.554Z</time></trkpt><trkpt lat="39.9416392" lon="8.4378678"><ele>43.0</ele><time>2026-05-02T08:21:04.555Z</time></trkpt><trkpt lat="39.9417664" lon="8.437737"><ele>42.66666666666667</ele><time>2026-05-02T08:21:05.555Z</time></trkpt><trkpt lat="39.9418935" lon="8.4376126"><ele>42.333333333333336</ele><time>2026-05-02T08:21:06.554Z</time></trkpt><trkpt lat="39.9420215" lon="8.4374875"><ele>42.0</ele><time>2026-05-02T08:21:07.554Z</time></trkpt><trkpt lat="39.942148" lon="8.4373658"><ele>42.0</ele><time>2026-05-02T08:21:08.555Z</time></trkpt><trkpt lat="39.9422735" lon="8.4372422"><ele>42.0</ele><time>2026-05-02T08:21:09.555Z</time></trkpt><trkpt lat="39.9423962" lon="8.4371169"><ele>42.0</ele><time>2026-05-02T08:21:10.555Z</time></trkpt><trkpt lat="39.9425149" lon="8.4369934"><ele>41.333333333333336</ele><time>2026-05-02T08:21:11.554Z</time></trkpt><trkpt lat="39.9426406" lon="8.43687"><ele>40.66666666666667</ele><time>2026-05-02T08:21:12.555Z</time></trkpt><trkpt lat="39.9427676" lon="8.4367427"><ele>40.0</ele><time>2026-05-02T08:21:13.555Z</time></trkpt><trkpt lat="39.9428886" lon="8.4366169"><ele>40.0</ele><time>2026-05-02T08:21:14.555Z</time></trkpt><trkpt lat="39.9430084" lon="8.4364919"><ele>40.0</ele><time>2026-05-02T08:21:15.556Z</time></trkpt><trkpt lat="39.9431278" lon="8.4363704"><ele>40.0</ele><time>2026-05-02T08:21:16.554Z</time></trkpt><trkpt lat="39.9432432" lon="8.4362512"><ele>40.0</ele><time>2026-05-02T08:21:17.555Z</time></trkpt><trkpt lat="39.9433493" lon="8.43614"><ele>40.0</ele><time>2026-05-02T08:21:18.554Z</time></trkpt><trkpt lat="39.9434409" lon="8.4360376"><ele>40.0</ele><time>2026-05-02T08:21:19.556Z</time></trkpt><trkpt lat="39.9435141" lon="8.4359493"><ele>40.0</ele><time>2026-05-02T08:21:20.556Z</time></trkpt><trkpt lat="39.9435667" lon="8.4358812"><ele>40.0</ele><time>2026-05-02T08:21:21.556Z</time></trkpt><trkpt lat="39.9436062" lon="8.435791"><ele>40.16666666666667</ele><time>2026-05-02T08:21:23.556Z</time></trkpt><trkpt lat="39.9435894" lon="8.4357104"><ele>40.333333333333336</ele><time>2026-05-02T08:21:25.556Z</time></trkpt><trkpt lat="39.9435829" lon="8.4355762"><ele>40.5</ele><time>2026-05-02T08:21:27.555Z</time></trkpt><trkpt lat="39.9435986" lon="8.4354483"><ele>40.666666666666664</ele><time>2026-05-02T08:21:29.555Z</time></trkpt><trkpt lat="39.943613" lon="8.4353457"><ele>40.83333333333333</ele><time>2026-05-02T08:21:31.555Z</time></trkpt><trkpt lat="39.9436304" lon="8.435256"><ele>41.0</ele><time>2026-05-02T08:21:33.555Z</time></trkpt><trkpt lat="39.9436459" lon="8.4351482"><ele>40.4</ele><time>2026-05-02T08:21:36.555Z</time></trkpt><trkpt lat="39.9436591" lon="8.4350678"><ele>39.8</ele><time>2026-05-02T08:21:39.555Z</time></trkpt><trkpt lat="39.943673" lon="8.4349341"><ele>39.199999999999996</ele><time>2026-05-02T08:22:13.556Z</time></trkpt><trkpt lat="39.9436961" lon="8.4347922"><ele>38.599999999999994</ele><time>2026-05-02T08:22:15.556Z</time></trkpt><trkpt lat="39.9437131" lon="8.4346231"><ele>38.0</ele><time>2026-05-02T08:22:17.555Z</time></trkpt><trkpt lat="39.943715" lon="8.4345276"><ele>37.666666666666664</ele><time>2026-05-02T08:22:18.555Z</time></trkpt><trkpt lat="39.9437128" lon="8.4344203"><ele>37.33333333333333</ele><time>2026-05-02T08:22:19.554Z</time></trkpt><trkpt lat="39.9437035" lon="8.4343009"><ele>37.0</ele><time>2026-05-02T08:22:20.555Z</time></trkpt><trkpt lat="39.9436902" lon="8.4341882"><ele>36.666666666666664</ele><time>2026-05-02T08:22:21.554Z</time></trkpt><trkpt lat="39.9436788" lon="8.4340798"><ele>36.333333333333336</ele><time>2026-05-02T08:22:22.555Z</time></trkpt><trkpt lat="39.9436746" lon="8.4339763"><ele>36.0</ele><time>2026-05-02T08:22:23.554Z</time></trkpt><trkpt lat="39.9436856" lon="8.4338761"><ele>35.833333333333336</ele><time>2026-05-02T08:22:24.554Z</time></trkpt><trkpt lat="39.9437089" lon="8.4337768"><ele>35.666666666666664</ele><time>2026-05-02T08:22:25.554Z</time></trkpt><trkpt lat="39.9437468" lon="8.4336765"><ele>35.5</ele><time>2026-05-02T08:22:26.554Z</time></trkpt><trkpt lat="39.943793" lon="8.4335832"><ele>35.33333333333333</ele><time>2026-05-02T08:22:27.555Z</time></trkpt><trkpt lat="39.9438441" lon="8.4334897"><ele>35.166666666666664</ele><time>2026-05-02T08:22:28.555Z</time></trkpt><trkpt lat="39.9439021" lon="8.433394"><ele>35.0</ele><time>2026-05-02T08:22:29.555Z</time></trkpt><trkpt lat="39.9439621" lon="8.4332948"><ele>35.0</ele><time>2026-05-02T08:22:30.555Z</time></trkpt><trkpt lat="39.9440209" lon="8.433193"><ele>35.0</ele><time>2026-05-02T08:22:31.554Z</time></trkpt><trkpt lat="39.9440851" lon="8.4330907"><ele>35.0</ele><time>2026-05-02T08:22:32.556Z</time></trkpt><trkpt lat="39.9441449" lon="8.4329813"><ele>35.0</ele><time>2026-05-02T08:22:33.555Z</time></trkpt><trkpt lat="39.944199" lon="8.4328617"><ele>35.0</ele><time>2026-05-02T08:22:34.555Z</time></trkpt><trkpt lat="39.9442472" lon="8.4327422"><ele>35.0</ele><time>2026-05-02T08:22:35.556Z</time></trkpt><trkpt lat="39.944287" lon="8.4326098"><ele>35.0</ele><time>2026-05-02T08:22:36.554Z</time></trkpt><trkpt lat="39.9443166" lon="8.4324795"><ele>35.0</ele><time>2026-05-02T08:22:37.555Z</time></trkpt><trkpt lat="39.9443508" lon="8.4323496"><ele>35.0</ele><time>2026-05-02T08:22:38.555Z</time></trkpt><trkpt lat="39.9443867" lon="8.4322182"><ele>35.0</ele><time>2026-05-02T08:22:39.555Z</time></trkpt><trkpt lat="39.9444338" lon="8.4320868"><ele>34.75</ele><time>2026-05-02T08:22:40.554Z</time></trkpt><trkpt lat="39.9444871" lon="8.4319566"><ele>34.5</ele><time>2026-05-02T08:22:41.555Z</time></trkpt><trkpt lat="39.9445476" lon="8.4318315"><ele>34.25</ele><time>2026-05-02T08:22:42.556Z</time></trkpt><trkpt lat="39.9446109" lon="8.4317074"><ele>34.0</ele><time>2026-05-02T08:22:43.555Z</time></trkpt><trkpt lat="39.9446775" lon="8.4315814"><ele>34.0</ele><time>2026-05-02T08:22:44.555Z</time></trkpt><trkpt lat="39.944748" lon="8.4314618"><ele>34.0</ele><time>2026-05-02T08:22:45.556Z</time></trkpt><trkpt lat="39.944818" lon="8.4313485"><ele>34.0</ele><time>2026-05-02T08:22:46.555Z</time></trkpt><trkpt lat="39.9448837" lon="8.4312356"><ele>34.0</ele><time>2026-05-02T08:22:47.555Z</time></trkpt><trkpt lat="39.9449436" lon="8.4311154"><ele>34.0</ele><time>2026-05-02T08:22:48.554Z</time></trkpt><trkpt lat="39.9450034" lon="8.4310003"><ele>33.8</ele><time>2026-05-02T08:22:49.556Z</time></trkpt><trkpt lat="39.945061" lon="8.4308769"><ele>33.599999999999994</ele><time>2026-05-02T08:22:50.554Z</time></trkpt><trkpt lat="39.9451056" lon="8.4307407"><ele>33.4</ele><time>2026-05-02T08:22:51.554Z</time></trkpt><trkpt lat="39.9451517" lon="8.4306096"><ele>33.199999999999996</ele><time>2026-05-02T08:22:52.556Z</time></trkpt><trkpt lat="39.9451908" lon="8.4304879"><ele>33.0</ele><time>2026-05-02T08:22:53.556Z</time></trkpt><trkpt lat="39.9452188" lon="8.4303621"><ele>33.4</ele><time>2026-05-02T08:22:54.555Z</time></trkpt><trkpt lat="39.9452322" lon="8.4302303"><ele>33.8</ele><time>2026-05-02T08:22:55.556Z</time></trkpt><trkpt lat="39.9452429" lon="8.4300934"><ele>34.2</ele><time>2026-05-02T08:22:56.556Z</time></trkpt><trkpt lat="39.9452573" lon="8.4299529"><ele>34.6</ele><time>2026-05-02T08:22:57.555Z</time></trkpt><trkpt lat="39.9452799" lon="8.4298145"><ele>35.0</ele><time>2026-05-02T08:22:58.554Z</time></trkpt><trkpt lat="39.9453117" lon="8.4296759"><ele>35.0</ele><time>2026-05-02T08:22:59.553Z</time></trkpt><trkpt lat="39.9453483" lon="8.4295395"><ele>35.0</ele><time>2026-05-02T08:23:00.554Z</time></trkpt><trkpt lat="39.9453931" lon="8.4294037"><ele>35.0</ele><time>2026-05-02T08:23:01.555Z</time></trkpt><trkpt lat="39.9454444" lon="8.4292705"><ele>35.0</ele><time>2026-05-02T08:23:02.553Z</time></trkpt><trkpt lat="39.9455019" lon="8.4291443"><ele>35.0</ele><time>2026-05-02T08:23:03.555Z</time></trkpt><trkpt lat="39.9455568" lon="8.4290175"><ele>35.0</ele><time>2026-05-02T08:23:04.553Z</time></trkpt><trkpt lat="39.9456032" lon="8.4288841"><ele>35.0</ele><time>2026-05-02T08:23:05.554Z</time></trkpt><trkpt lat="39.9456362" lon="8.4287476"><ele>35.0</ele><time>2026-05-02T08:23:06.555Z</time></trkpt><trkpt lat="39.9456516" lon="8.4286063"><ele>35.0</ele><time>2026-05-02T08:23:07.554Z</time></trkpt><trkpt lat="39.9456597" lon="8.4284635"><ele>35.0</ele><time>2026-05-02T08:23:08.553Z</time></trkpt><trkpt lat="39.9456575" lon="8.4283231"><ele>35.0</ele><time>2026-05-02T08:23:09.554Z</time></trkpt><trkpt lat="39.945655" lon="8.4281813"><ele>35.0</ele><time>2026-05-02T08:23:10.553Z</time></trkpt><trkpt lat="39.9456462" lon="8.4280374"><ele>35.0</ele><time>2026-05-02T08:23:11.553Z</time></trkpt><trkpt lat="39.9456261" lon="8.4278993"><ele>35.0</ele><time>2026-05-02T08:23:12.553Z</time></trkpt><trkpt lat="39.9455905" lon="8.4277691"><ele>35.0</ele><time>2026-05-02T08:23:13.555Z</time></trkpt><trkpt lat="39.9455529" lon="8.4276489"><ele>35.0</ele><time>2026-05-02T08:23:14.553Z</time></trkpt><trkpt lat="39.9455276" lon="8.4275317"><ele>35.0</ele><time>2026-05-02T08:23:15.554Z</time></trkpt><trkpt lat="39.9455235" lon="8.4274168"><ele>35.0</ele><time>2026-05-02T08:23:16.554Z</time></trkpt><trkpt lat="39.9455345" lon="8.4272977"><ele>35.0</ele><time>2026-05-02T08:23:17.555Z</time></trkpt><trkpt lat="39.9455479" lon="8.4271719"><ele>35.4</ele><time>2026-05-02T08:23:18.553Z</time></trkpt><trkpt lat="39.9455526" lon="8.4270396"><ele>35.8</ele><time>2026-05-02T08:23:19.553Z</time></trkpt><trkpt lat="39.9455479" lon="8.4269048"><ele>36.2</ele><time>2026-05-02T08:23:20.553Z</time></trkpt><trkpt lat="39.9455315" lon="8.4267726"><ele>36.6</ele><time>2026-05-02T08:23:21.554Z</time></trkpt><trkpt lat="39.9455013" lon="8.4266439"><ele>37.0</ele><time>2026-05-02T08:23:22.554Z</time></trkpt><trkpt lat="39.9454582" lon="8.4265173"><ele>37.0</ele><time>2026-05-02T08:23:23.554Z</time></trkpt><trkpt lat="39.9454096" lon="8.4263936"><ele>37.0</ele><time>2026-05-02T08:23:24.554Z</time></trkpt><trkpt lat="39.9453615" lon="8.4262722"><ele>37.0</ele><time>2026-05-02T08:23:25.554Z</time></trkpt><trkpt lat="39.9453092" lon="8.4261518"><ele>37.0</ele><time>2026-05-02T08:23:26.554Z</time></trkpt><trkpt lat="39.9452505" lon="8.4260341"><ele>37.0</ele><time>2026-05-02T08:23:27.555Z</time></trkpt><trkpt lat="39.9451892" lon="8.4259207"><ele>37.0</ele><time>2026-05-02T08:23:28.554Z</time></trkpt><trkpt lat="39.945124" lon="8.425807"><ele>37.0</ele><time>2026-05-02T08:23:29.555Z</time></trkpt><trkpt lat="39.9450624" lon="8.4256861"><ele>37.0</ele><time>2026-05-02T08:23:30.554Z</time></trkpt><trkpt lat="39.9450059" lon="8.4255599"><ele>37.0</ele><time>2026-05-02T08:23:31.554Z</time></trkpt><trkpt lat="39.9449552" lon="8.4254271"><ele>37.0</ele><time>2026-05-02T08:23:32.554Z</time></trkpt><trkpt lat="39.9449089" lon="8.4252953"><ele>37.4</ele><time>2026-05-02T08:23:33.555Z</time></trkpt><trkpt lat="39.9448633" lon="8.4251687"><ele>37.800000000000004</ele><time>2026-05-02T08:23:34.553Z</time></trkpt><trkpt lat="39.9448113" lon="8.4250504"><ele>38.2</ele><time>2026-05-02T08:23:35.554Z</time></trkpt><trkpt lat="39.9447499" lon="8.4249409"><ele>38.6</ele><time>2026-05-02T08:23:36.554Z</time></trkpt><trkpt lat="39.9446924" lon="8.4248411"><ele>39.0</ele><time>2026-05-02T08:23:37.554Z</time></trkpt><trkpt lat="39.9446559" lon="8.4247328"><ele>39.2</ele><time>2026-05-02T08:23:38.554Z</time></trkpt><trkpt lat="39.9446311" lon="8.4246191"><ele>39.4</ele><time>2026-05-02T08:23:39.553Z</time></trkpt><trkpt lat="39.9446182" lon="8.4244979"><ele>39.6</ele><time>2026-05-02T08:23:40.553Z</time></trkpt><trkpt lat="39.9446098" lon="8.4243702"><ele>39.8</ele><time>2026-05-02T08:23:41.554Z</time></trkpt><trkpt lat="39.9446052" lon="8.4242332"><ele>40.0</ele><time>2026-05-02T08:23:42.554Z</time></trkpt><trkpt lat="39.9446014" lon="8.4240899"><ele>40.0</ele><time>2026-05-02T08:23:43.554Z</time></trkpt><trkpt lat="39.9446008" lon="8.423944"><ele>40.0</ele><time>2026-05-02T08:23:44.554Z</time></trkpt><trkpt lat="39.9445977" lon="8.4237963"><ele>40.0</ele><time>2026-05-02T08:23:45.553Z</time></trkpt><trkpt lat="39.9445875" lon="8.4236432"><ele>40.0</ele><time>2026-05-02T08:23:46.554Z</time></trkpt><trkpt lat="39.9445648" lon="8.4234904"><ele>40.0</ele><time>2026-05-02T08:23:47.553Z</time></trkpt><trkpt lat="39.9445356" lon="8.423337"><ele>40.0</ele><time>2026-05-02T08:23:48.555Z</time></trkpt><trkpt lat="39.9444988" lon="8.423185"><ele>40.0</ele><time>2026-05-02T08:23:49.554Z</time></trkpt><trkpt lat="39.9444551" lon="8.4230357"><ele>40.0</ele><time>2026-05-02T08:23:50.554Z</time></trkpt><trkpt lat="39.9444097" lon="8.4228877"><ele>40.25</ele><time>2026-05-02T08:23:51.553Z</time></trkpt><trkpt lat="39.9443607" lon="8.4227498"><ele>40.5</ele><time>2026-05-02T08:23:52.554Z</time></trkpt><trkpt lat="39.944315" lon="8.422611"><ele>40.75</ele><time>2026-05-02T08:23:53.553Z</time></trkpt><trkpt lat="39.9442676" lon="8.4224767"><ele>41.0</ele><time>2026-05-02T08:23:54.554Z</time></trkpt><trkpt lat="39.944212" lon="8.4223484"><ele>41.0</ele><time>2026-05-02T08:23:55.555Z</time></trkpt><trkpt lat="39.9441587" lon="8.4222209"><ele>41.0</ele><time>2026-05-02T08:23:56.555Z</time></trkpt><trkpt lat="39.9441051" lon="8.4220936"><ele>41.0</ele><time>2026-05-02T08:23:57.553Z</time></trkpt><trkpt lat="39.9440518" lon="8.4219787"><ele>41.0</ele><time>2026-05-02T08:23:58.554Z</time></trkpt><trkpt lat="39.9440025" lon="8.4218767"><ele>41.0</ele><time>2026-05-02T08:23:59.553Z</time></trkpt><trkpt lat="39.9439468" lon="8.4217748"><ele>40.599999999999994</ele><time>2026-05-02T08:24:00.554Z</time></trkpt><trkpt lat="39.9438849" lon="8.4216719"><ele>40.199999999999996</ele><time>2026-05-02T08:24:01.555Z</time></trkpt><trkpt lat="39.9438285" lon="8.4215549"><ele>39.8</ele><time>2026-05-02T08:24:02.555Z</time></trkpt><trkpt lat="39.9437775" lon="8.4214333"><ele>39.4</ele><time>2026-05-02T08:24:03.554Z</time></trkpt><trkpt lat="39.9437292" lon="8.4213119"><ele>39.0</ele><time>2026-05-02T08:24:04.554Z</time></trkpt><trkpt lat="39.9436783" lon="8.4212086"><ele>38.666666666666664</ele><time>2026-05-02T08:24:05.554Z</time></trkpt><trkpt lat="39.9436301" lon="8.4211273"><ele>38.333333333333336</ele><time>2026-05-02T08:24:06.554Z</time></trkpt><trkpt lat="39.9435729" lon="8.4210653"><ele>38.0</ele><time>2026-05-02T08:24:07.555Z</time></trkpt><trkpt lat="39.9435153" lon="8.4210273"><ele>37.66666666666667</ele><time>2026-05-02T08:24:08.554Z</time></trkpt><trkpt lat="39.9434117" lon="8.4210145"><ele>37.333333333333336</ele><time>2026-05-02T08:24:10.553Z</time></trkpt><trkpt lat="39.9433287" lon="8.4210256"><ele>37.0</ele><time>2026-05-02T08:24:12.554Z</time></trkpt><trkpt lat="39.9432649" lon="8.4210353"><ele>37.0</ele><time>2026-05-02T08:24:16.553Z</time></trkpt><trkpt lat="39.9433492" lon="8.4210076"><ele>37.0</ele><time>2026-05-02T08:24:42.554Z</time></trkpt><trkpt lat="39.9434312" lon="8.4210068"><ele>37.0</ele><time>2026-05-02T08:24:45.554Z</time></trkpt><trkpt lat="39.9435168" lon="8.4210338"><ele>37.0</ele><time>2026-05-02T08:24:47.555Z</time></trkpt><trkpt lat="39.9435925" lon="8.421046"><ele>37.0</ele><time>2026-05-02T08:24:50.554Z</time></trkpt><trkpt lat="39.9435801" lon="8.4209499"><ele>37.0</ele><time>2026-05-02T08:24:54.554Z</time></trkpt><trkpt lat="39.9435618" lon="8.4208592"><ele>32.0</ele><time>2026-05-02T08:24:58.554Z</time></trkpt><trkpt lat="39.9422258" lon="8.4178238"><ele>32.0</ele><time>2026-05-02T08:32:44.552Z</time></trkpt><trkpt lat="39.9421982" lon="8.4179053"><ele>31.999999999999996</ele><time>2026-05-02T08:34:20.55Z</time></trkpt><trkpt lat="39.9422238" lon="8.4178252"><ele>32.0</ele><time>2026-05-02T08:38:27.55Z</time></trkpt><trkpt lat="39.942286" lon="8.4178805"><ele>32.0</ele><time>2026-05-02T08:45:22.547Z</time></trkpt><trkpt lat="39.9422647" lon="8.417963"><ele>31.999999999999996</ele><time>2026-05-02T08:45:24.546Z</time></trkpt><trkpt lat="39.9422834" lon="8.418055"><ele>32.0</ele><time>2026-05-02T08:45:26.547Z</time></trkpt><trkpt lat="39.942353" lon="8.418136"><ele>32.0</ele><time>2026-05-02T08:45:28.547Z</time></trkpt><trkpt lat="39.9424279" lon="8.4182612"><ele>32.33333333333333</ele><time>2026-05-02T08:45:30.546Z</time></trkpt><trkpt lat="39.9424563" lon="8.4183397"><ele>32.666666666666664</ele><time>2026-05-02T08:45:31.547Z</time></trkpt><trkpt lat="39.942482" lon="8.4184242"><ele>33.0</ele><time>2026-05-02T08:45:32.548Z</time></trkpt><trkpt lat="39.9425176" lon="8.4185087"><ele>33.333333333333336</ele><time>2026-05-02T08:45:33.547Z</time></trkpt><trkpt lat="39.942558" lon="8.4185959"><ele>33.66666666666667</ele><time>2026-05-02T08:45:34.548Z</time></trkpt><trkpt lat="39.9425963" lon="8.4186891"><ele>34.0</ele><time>2026-05-02T08:45:35.548Z</time></trkpt><trkpt lat="39.9426347" lon="8.418781"><ele>34.5</ele><time>2026-05-02T08:45:36.548Z</time></trkpt><trkpt lat="39.9426694" lon="8.4188755"><ele>35.0</ele><time>2026-05-02T08:45:37.548Z</time></trkpt><trkpt lat="39.9427109" lon="8.4189631"><ele>35.5</ele><time>2026-05-02T08:45:38.547Z</time></trkpt><trkpt lat="39.9427665" lon="8.4190295"><ele>36.0</ele><time>2026-05-02T08:45:39.547Z</time></trkpt><trkpt lat="39.9428307" lon="8.4190856"><ele>36.5</ele><time>2026-05-02T08:45:40.547Z</time></trkpt><trkpt lat="39.9428902" lon="8.4191572"><ele>37.0</ele><time>2026-05-02T08:45:41.547Z</time></trkpt><trkpt lat="39.9429419" lon="8.4192413"><ele>37.0</ele><time>2026-05-02T08:45:42.548Z</time></trkpt><trkpt lat="39.9429818" lon="8.4193358"><ele>37.0</ele><time>2026-05-02T08:45:43.548Z</time></trkpt><trkpt lat="39.9430222" lon="8.4194287"><ele>37.0</ele><time>2026-05-02T08:45:44.547Z</time></trkpt><trkpt lat="39.943079" lon="8.4194966"><ele>37.0</ele><time>2026-05-02T08:45:45.547Z</time></trkpt><trkpt lat="39.9431429" lon="8.4195507"><ele>37.0</ele><time>2026-05-02T08:45:46.547Z</time></trkpt><trkpt lat="39.9432015" lon="8.4196138"><ele>37.0</ele><time>2026-05-02T08:45:47.546Z</time></trkpt><trkpt lat="39.9432434" lon="8.4196904"><ele>36.833333333333336</ele><time>2026-05-02T08:45:48.546Z</time></trkpt><trkpt lat="39.9432834" lon="8.4197801"><ele>36.66666666666667</ele><time>2026-05-02T08:45:49.547Z</time></trkpt><trkpt lat="39.9433205" lon="8.4198779"><ele>36.5</ele><time>2026-05-02T08:45:50.548Z</time></trkpt><trkpt lat="39.9433592" lon="8.4199825"><ele>36.333333333333336</ele><time>2026-05-02T08:45:51.547Z</time></trkpt><trkpt lat="39.9433966" lon="8.4200925"><ele>36.166666666666664</ele><time>2026-05-02T08:45:52.546Z</time></trkpt><trkpt lat="39.9434295" lon="8.4202078"><ele>36.0</ele><time>2026-05-02T08:45:53.547Z</time></trkpt><trkpt lat="39.9434607" lon="8.4203273"><ele>36.0</ele><time>2026-05-02T08:45:54.547Z</time></trkpt><trkpt lat="39.9434883" lon="8.4204505"><ele>36.0</ele><time>2026-05-02T08:45:55.548Z</time></trkpt><trkpt lat="39.9435135" lon="8.4205784"><ele>36.0</ele><time>2026-05-02T08:45:56.547Z</time></trkpt><trkpt lat="39.9435374" lon="8.4207049"><ele>36.0</ele><time>2026-05-02T08:45:57.548Z</time></trkpt><trkpt lat="39.9435582" lon="8.4208308"><ele>36.0</ele><time>2026-05-02T08:45:58.547Z</time></trkpt><trkpt lat="39.9435812" lon="8.4209312"><ele>36.166666666666664</ele><time>2026-05-02T08:45:59.546Z</time></trkpt><trkpt lat="39.9435916" lon="8.4210474"><ele>36.333333333333336</ele><time>2026-05-02T08:46:01.547Z</time></trkpt><trkpt lat="39.9435257" lon="8.4210361"><ele>36.5</ele><time>2026-05-02T08:46:04.546Z</time></trkpt><trkpt lat="39.9434155" lon="8.4210126"><ele>36.66666666666667</ele><time>2026-05-02T08:46:06.547Z</time></trkpt><trkpt lat="39.9433526" lon="8.4210174"><ele>36.833333333333336</ele><time>2026-05-02T08:46:07.548Z</time></trkpt><trkpt lat="39.9432793" lon="8.421033"><ele>37.0</ele><time>2026-05-02T08:46:08.547Z</time></trkpt><trkpt lat="39.9431991" lon="8.421062"><ele>37.66666666666667</ele><time>2026-05-02T08:46:09.547Z</time></trkpt><trkpt lat="39.9431195" lon="8.4210919"><ele>38.333333333333336</ele><time>2026-05-02T08:46:10.546Z</time></trkpt><trkpt lat="39.9430417" lon="8.421116"><ele>39.0</ele><time>2026-05-02T08:46:11.547Z</time></trkpt><trkpt lat="39.942969" lon="8.4211463"><ele>39.666666666666664</ele><time>2026-05-02T08:46:12.547Z</time></trkpt><trkpt lat="39.9429004" lon="8.4211763"><ele>40.33333333333333</ele><time>2026-05-02T08:46:13.547Z</time></trkpt><trkpt lat="39.9428297" lon="8.4212075"><ele>41.0</ele><time>2026-05-02T08:46:14.547Z</time></trkpt><trkpt lat="39.9427502" lon="8.4212432"><ele>41.0</ele><time>2026-05-02T08:46:15.547Z</time></trkpt><trkpt lat="39.9426628" lon="8.4212839"><ele>41.0</ele><time>2026-05-02T08:46:16.547Z</time></trkpt><trkpt lat="39.9425744" lon="8.4213317"><ele>41.0</ele><time>2026-05-02T08:46:17.548Z</time></trkpt><trkpt lat="39.9424825" lon="8.4213811"><ele>41.0</ele><time>2026-05-02T08:46:18.546Z</time></trkpt><trkpt lat="39.9423887" lon="8.4214322"><ele>41.0</ele><time>2026-05-02T08:46:19.547Z</time></trkpt><trkpt lat="39.9422879" lon="8.4214824"><ele>41.25</ele><time>2026-05-02T08:46:20.546Z</time></trkpt><trkpt lat="39.9421794" lon="8.4215316"><ele>41.5</ele><time>2026-05-02T08:46:21.546Z</time></trkpt><trkpt lat="39.9420668" lon="8.4215711"><ele>41.75</ele><time>2026-05-02T08:46:22.547Z</time></trkpt><trkpt lat="39.9419452" lon="8.4215954"><ele>42.0</ele><time>2026-05-02T08:46:23.547Z</time></trkpt><trkpt lat="39.9418261" lon="8.4216068"><ele>42.25</ele><time>2026-05-02T08:46:24.547Z</time></trkpt><trkpt lat="39.9417048" lon="8.4216316"><ele>42.5</ele><time>2026-05-02T08:46:25.547Z</time></trkpt><trkpt lat="39.9415865" lon="8.4216727"><ele>42.75</ele><time>2026-05-02T08:46:26.548Z</time></trkpt><trkpt lat="39.9414697" lon="8.4217206"><ele>43.0</ele><time>2026-05-02T08:46:27.546Z</time></trkpt><trkpt lat="39.9413536" lon="8.4217755"><ele>43.0</ele><time>2026-05-02T08:46:28.546Z</time></trkpt><trkpt lat="39.941238" lon="8.4218381"><ele>43.0</ele><time>2026-05-02T08:46:29.546Z</time></trkpt><trkpt lat="39.9411245" lon="8.4219082"><ele>43.0</ele><time>2026-05-02T08:46:30.548Z</time></trkpt><trkpt lat="39.9410133" lon="8.4219825"><ele>43.0</ele><time>2026-05-02T08:46:31.547Z</time></trkpt><trkpt lat="39.940907" lon="8.4220508"><ele>43.0</ele><time>2026-05-02T08:46:32.548Z</time></trkpt><trkpt lat="39.9407989" lon="8.4221075"><ele>43.0</ele><time>2026-05-02T08:46:33.547Z</time></trkpt><trkpt lat="39.9406849" lon="8.4221534"><ele>43.0</ele><time>2026-05-02T08:46:34.547Z</time></trkpt><trkpt lat="39.9405676" lon="8.4221918"><ele>43.0</ele><time>2026-05-02T08:46:35.547Z</time></trkpt><trkpt lat="39.9404541" lon="8.422231"><ele>43.2</ele><time>2026-05-02T08:46:36.547Z</time></trkpt><trkpt lat="39.9403482" lon="8.422266"><ele>43.4</ele><time>2026-05-02T08:46:37.547Z</time></trkpt><trkpt lat="39.9402551" lon="8.4223006"><ele>43.6</ele><time>2026-05-02T08:46:38.546Z</time></trkpt><trkpt lat="39.9401752" lon="8.4223272"><ele>43.800000000000004</ele><time>2026-05-02T08:46:39.546Z</time></trkpt><trkpt lat="39.9400774" lon="8.4223407"><ele>44.0</ele><time>2026-05-02T08:46:41.548Z</time></trkpt><trkpt lat="39.9399949" lon="8.4223749"><ele>44.0</ele><time>2026-05-02T08:50:16.546Z</time></trkpt><trkpt lat="39.9398924" lon="8.4223945"><ele>44.0</ele><time>2026-05-02T08:50:18.545Z</time></trkpt><trkpt lat="39.9397755" lon="8.4223988"><ele>44.0</ele><time>2026-05-02T08:50:20.546Z</time></trkpt><trkpt lat="39.939706" lon="8.4224056"><ele>44.0</ele><time>2026-05-02T08:50:21.547Z</time></trkpt><trkpt lat="39.9396321" lon="8.4224092"><ele>44.0</ele><time>2026-05-02T08:50:22.547Z</time></trkpt><trkpt lat="39.939555" lon="8.4224095"><ele>44.0</ele><time>2026-05-02T08:50:23.547Z</time></trkpt><trkpt lat="39.9394763" lon="8.4224126"><ele>44.0</ele><time>2026-05-02T08:50:24.545Z</time></trkpt><trkpt lat="39.9393934" lon="8.4224177"><ele>44.0</ele><time>2026-05-02T08:50:25.546Z</time></trkpt><trkpt lat="39.9393087" lon="8.4224235"><ele>44.0</ele><time>2026-05-02T08:50:26.546Z</time></trkpt><trkpt lat="39.9392187" lon="8.4224326"><ele>44.0</ele><time>2026-05-02T08:50:27.547Z</time></trkpt><trkpt lat="39.9391243" lon="8.4224445"><ele>44.0</ele><time>2026-05-02T08:50:28.545Z</time></trkpt><trkpt lat="39.9390257" lon="8.4224579"><ele>43.6</ele><time>2026-05-02T08:50:29.547Z</time></trkpt><trkpt lat="39.9389275" lon="8.4224713"><ele>43.2</ele><time>2026-05-02T08:50:30.545Z</time></trkpt><trkpt lat="39.9388305" lon="8.4224883"><ele>42.800000000000004</ele><time>2026-05-02T08:50:31.546Z</time></trkpt><trkpt lat="39.938733" lon="8.4225036"><ele>42.400000000000006</ele><time>2026-05-02T08:50:32.545Z</time></trkpt><trkpt lat="39.9386332" lon="8.4225171"><ele>42.0</ele><time>2026-05-02T08:50:33.547Z</time></trkpt><trkpt lat="39.9385338" lon="8.4225287"><ele>42.0</ele><time>2026-05-02T08:50:34.547Z</time></trkpt><trkpt lat="39.938429" lon="8.4225355"><ele>42.0</ele><time>2026-05-02T08:50:35.546Z</time></trkpt><trkpt lat="39.9383194" lon="8.4225405"><ele>42.0</ele><time>2026-05-02T08:50:36.546Z</time></trkpt><trkpt lat="39.9382035" lon="8.4225459"><ele>42.0</ele><time>2026-05-02T08:50:37.546Z</time></trkpt><trkpt lat="39.9380912" lon="8.4225447"><ele>42.0</ele><time>2026-05-02T08:50:38.547Z</time></trkpt><trkpt lat="39.9379774" lon="8.422531"><ele>41.8</ele><time>2026-05-02T08:50:39.546Z</time></trkpt><trkpt lat="39.937867" lon="8.4225234"><ele>41.6</ele><time>2026-05-02T08:50:40.546Z</time></trkpt><trkpt lat="39.9377582" lon="8.4225226"><ele>41.4</ele><time>2026-05-02T08:50:41.546Z</time></trkpt><trkpt lat="39.9376531" lon="8.4225226"><ele>41.199999999999996</ele><time>2026-05-02T08:50:42.546Z</time></trkpt><trkpt lat="39.9375521" lon="8.4225141"><ele>41.0</ele><time>2026-05-02T08:50:43.546Z</time></trkpt><trkpt lat="39.9374602" lon="8.4224806"><ele>41.4</ele><time>2026-05-02T08:50:44.547Z</time></trkpt><trkpt lat="39.9373725" lon="8.4224268"><ele>41.8</ele><time>2026-05-02T08:50:45.545Z</time></trkpt><trkpt lat="39.9372912" lon="8.4223564"><ele>42.199999999999996</ele><time>2026-05-02T08:50:46.546Z</time></trkpt><trkpt lat="39.9372065" lon="8.4222855"><ele>42.599999999999994</ele><time>2026-05-02T08:50:47.547Z</time></trkpt><trkpt lat="39.9371101" lon="8.4222357"><ele>43.0</ele><time>2026-05-02T08:50:48.545Z</time></trkpt><trkpt lat="39.9370059" lon="8.4222056"><ele>43.0</ele><time>2026-05-02T08:50:49.546Z</time></trkpt><trkpt lat="39.9369005" lon="8.4221991"><ele>43.0</ele><time>2026-05-02T08:50:50.545Z</time></trkpt><trkpt lat="39.9367948" lon="8.4222169"><ele>43.0</ele><time>2026-05-02T08:50:51.545Z</time></trkpt><trkpt lat="39.9366924" lon="8.4222438"><ele>43.0</ele><time>2026-05-02T08:50:52.546Z</time></trkpt><trkpt lat="39.9365905" lon="8.4222583"><ele>43.0</ele><time>2026-05-02T08:50:53.546Z</time></trkpt><trkpt lat="39.9364851" lon="8.4222541"><ele>42.8</ele><time>2026-05-02T08:50:54.546Z</time></trkpt><trkpt lat="39.9363782" lon="8.4222351"><ele>42.599999999999994</ele><time>2026-05-02T08:50:55.546Z</time></trkpt><trkpt lat="39.9362722" lon="8.4222014"><ele>42.400000000000006</ele><time>2026-05-02T08:50:56.545Z</time></trkpt><trkpt lat="39.9361667" lon="8.4221642"><ele>42.2</ele><time>2026-05-02T08:50:57.546Z</time></trkpt><trkpt lat="39.9360607" lon="8.4221442"><ele>42.0</ele><time>2026-05-02T08:50:58.545Z</time></trkpt><trkpt lat="39.9359603" lon="8.422136"><ele>41.2</ele><time>2026-05-02T08:50:59.546Z</time></trkpt><trkpt lat="39.9358728" lon="8.4221058"><ele>40.400000000000006</ele><time>2026-05-02T08:51:00.545Z</time></trkpt><trkpt lat="39.9357783" lon="8.4220481"><ele>39.599999999999994</ele><time>2026-05-02T08:51:01.545Z</time></trkpt><trkpt lat="39.9356839" lon="8.4219852"><ele>38.8</ele><time>2026-05-02T08:51:02.546Z</time></trkpt><trkpt lat="39.935586" lon="8.421923"><ele>38.0</ele><time>2026-05-02T08:51:03.546Z</time></trkpt><trkpt lat="39.9354872" lon="8.421855"><ele>38.0</ele><time>2026-05-02T08:51:04.547Z</time></trkpt><trkpt lat="39.935385" lon="8.4217887"><ele>38.0</ele><time>2026-05-02T08:51:05.547Z</time></trkpt><trkpt lat="39.9352827" lon="8.4217212"><ele>38.0</ele><time>2026-05-02T08:51:06.547Z</time></trkpt><trkpt lat="39.935179" lon="8.4216516"><ele>38.0</ele><time>2026-05-02T08:51:07.545Z</time></trkpt><trkpt lat="39.9350711" lon="8.421587"><ele>37.75</ele><time>2026-05-02T08:51:08.545Z</time></trkpt><trkpt lat="39.9349627" lon="8.4215346"><ele>37.5</ele><time>2026-05-02T08:51:09.546Z</time></trkpt><trkpt lat="39.9348535" lon="8.4214872"><ele>37.25</ele><time>2026-05-02T08:51:10.546Z</time></trkpt><trkpt lat="39.9347434" lon="8.42144"><ele>37.0</ele><time>2026-05-02T08:51:11.545Z</time></trkpt><trkpt lat="39.93463" lon="8.4213953"><ele>37.0</ele><time>2026-05-02T08:51:12.546Z</time></trkpt><trkpt lat="39.9345157" lon="8.4213538"><ele>37.0</ele><time>2026-05-02T08:51:13.546Z</time></trkpt><trkpt lat="39.9344021" lon="8.4213148"><ele>37.0</ele><time>2026-05-02T08:51:14.546Z</time></trkpt><trkpt lat="39.9342859" lon="8.4212647"><ele>37.0</ele><time>2026-05-02T08:51:15.546Z</time></trkpt><trkpt lat="39.9341702" lon="8.4212201"><ele>37.0</ele><time>2026-05-02T08:51:16.546Z</time></trkpt><trkpt lat="39.9340579" lon="8.4211868"><ele>37.0</ele><time>2026-05-02T08:51:17.547Z</time></trkpt><trkpt lat="39.9339541" lon="8.4211801"><ele>37.0</ele><time>2026-05-02T08:51:18.546Z</time></trkpt><trkpt lat="39.933855" lon="8.4211973"><ele>37.0</ele><time>2026-05-02T08:51:19.545Z</time></trkpt><trkpt lat="39.9337577" lon="8.4212444"><ele>37.0</ele><time>2026-05-02T08:51:20.547Z</time></trkpt><trkpt lat="39.9336632" lon="8.421319"><ele>37.0</ele><time>2026-05-02T08:51:21.547Z</time></trkpt><trkpt lat="39.9335682" lon="8.4214014"><ele>37.0</ele><time>2026-05-02T08:51:22.546Z</time></trkpt><trkpt lat="39.9334676" lon="8.4214879"><ele>37.0</ele><time>2026-05-02T08:51:23.547Z</time></trkpt><trkpt lat="39.9333674" lon="8.4215773"><ele>37.0</ele><time>2026-05-02T08:51:24.546Z</time></trkpt><trkpt lat="39.9332692" lon="8.4216758"><ele>36.75</ele><time>2026-05-02T08:51:25.547Z</time></trkpt><trkpt lat="39.9331757" lon="8.4217768"><ele>36.5</ele><time>2026-05-02T08:51:26.547Z</time></trkpt><trkpt lat="39.9330839" lon="8.4218765"><ele>36.25</ele><time>2026-05-02T08:51:27.547Z</time></trkpt><trkpt lat="39.9329931" lon="8.4219693"><ele>36.0</ele><time>2026-05-02T08:51:28.546Z</time></trkpt><trkpt lat="39.9328957" lon="8.4220474"><ele>36.0</ele><time>2026-05-02T08:51:29.545Z</time></trkpt><trkpt lat="39.9327897" lon="8.4220971"><ele>36.0</ele><time>2026-05-02T08:51:30.546Z</time></trkpt><trkpt lat="39.9326836" lon="8.4221265"><ele>36.0</ele><time>2026-05-02T08:51:31.545Z</time></trkpt><trkpt lat="39.9325885" lon="8.4221663"><ele>36.0</ele><time>2026-05-02T08:51:32.546Z</time></trkpt><trkpt lat="39.9325176" lon="8.4222218"><ele>36.0</ele><time>2026-05-02T08:51:33.545Z</time></trkpt><trkpt lat="39.9324601" lon="8.4223035"><ele>36.2</ele><time>2026-05-02T08:51:34.547Z</time></trkpt><trkpt lat="39.9324105" lon="8.4224032"><ele>36.400000000000006</ele><time>2026-05-02T08:51:35.546Z</time></trkpt><trkpt lat="39.9323644" lon="8.422519"><ele>36.6</ele><time>2026-05-02T08:51:36.546Z</time></trkpt><trkpt lat="39.9323137" lon="8.4226392"><ele>36.800000000000004</ele><time>2026-05-02T08:51:37.547Z</time></trkpt><trkpt lat="39.9322628" lon="8.4227538"><ele>37.0</ele><time>2026-05-02T08:51:38.546Z</time></trkpt><trkpt lat="39.9322164" lon="8.4228788"><ele>37.4</ele><time>2026-05-02T08:51:39.545Z</time></trkpt><trkpt lat="39.9321789" lon="8.4230062"><ele>37.800000000000004</ele><time>2026-05-02T08:51:40.545Z</time></trkpt><trkpt lat="39.9321446" lon="8.4231347"><ele>38.2</ele><time>2026-05-02T08:51:41.547Z</time></trkpt><trkpt lat="39.9321073" lon="8.4232697"><ele>38.6</ele><time>2026-05-02T08:51:42.547Z</time></trkpt><trkpt lat="39.9320715" lon="8.4233979"><ele>39.0</ele><time>2026-05-02T08:51:43.547Z</time></trkpt><trkpt lat="39.9320307" lon="8.423522"><ele>39.0</ele><time>2026-05-02T08:51:44.547Z</time></trkpt><trkpt lat="39.9319868" lon="8.4236439"><ele>39.0</ele><time>2026-05-02T08:51:45.546Z</time></trkpt><trkpt lat="39.9319402" lon="8.4237649"><ele>39.0</ele><time>2026-05-02T08:51:46.545Z</time></trkpt><trkpt lat="39.931896" lon="8.4238633"><ele>39.0</ele><time>2026-05-02T08:51:47.545Z</time></trkpt><trkpt lat="39.9318193" lon="8.4239365"><ele>39.0</ele><time>2026-05-02T08:51:49.545Z</time></trkpt><trkpt lat="39.9317169" lon="8.4238793"><ele>38.666666666666664</ele><time>2026-05-02T08:51:51.545Z</time></trkpt><trkpt lat="39.9316683" lon="8.4238069"><ele>38.333333333333336</ele><time>2026-05-02T08:51:52.545Z</time></trkpt><trkpt lat="39.9316174" lon="8.4237191"><ele>38.0</ele><time>2026-05-02T08:51:53.546Z</time></trkpt><trkpt lat="39.931574" lon="8.423617"><ele>37.66666666666667</ele><time>2026-05-02T08:51:54.546Z</time></trkpt><trkpt lat="39.9315275" lon="8.4235113"><ele>37.333333333333336</ele><time>2026-05-02T08:51:55.546Z</time></trkpt><trkpt lat="39.9314704" lon="8.4234132"><ele>37.0</ele><time>2026-05-02T08:51:56.546Z</time></trkpt><trkpt lat="39.9314073" lon="8.4233197"><ele>37.0</ele><time>2026-05-02T08:51:57.547Z</time></trkpt><trkpt lat="39.9313409" lon="8.423235"><ele>37.0</ele><time>2026-05-02T08:51:58.547Z</time></trkpt><trkpt lat="39.9312662" lon="8.423161"><ele>37.0</ele><time>2026-05-02T08:51:59.546Z</time></trkpt><trkpt lat="39.9311859" lon="8.4230966"><ele>37.0</ele><time>2026-05-02T08:52:00.545Z</time></trkpt><trkpt lat="39.9310993" lon="8.4230441"><ele>37.0</ele><time>2026-05-02T08:52:01.546Z</time></trkpt><trkpt lat="39.9310114" lon="8.4229872"><ele>36.800000000000004</ele><time>2026-05-02T08:52:02.546Z</time></trkpt><trkpt lat="39.9309265" lon="8.4229197"><ele>36.6</ele><time>2026-05-02T08:52:03.546Z</time></trkpt><trkpt lat="39.9308488" lon="8.4228521"><ele>36.400000000000006</ele><time>2026-05-02T08:52:04.546Z</time></trkpt><trkpt lat="39.9307752" lon="8.4227725"><ele>36.2</ele><time>2026-05-02T08:52:05.547Z</time></trkpt><trkpt lat="39.9307118" lon="8.422676"><ele>36.0</ele><time>2026-05-02T08:52:06.547Z</time></trkpt><trkpt lat="39.9306554" lon="8.4225679"><ele>35.8</ele><time>2026-05-02T08:52:07.545Z</time></trkpt><trkpt lat="39.9306039" lon="8.4224535"><ele>35.6</ele><time>2026-05-02T08:52:08.546Z</time></trkpt><trkpt lat="39.93055" lon="8.4223431"><ele>35.4</ele><time>2026-05-02T08:52:09.546Z</time></trkpt><trkpt lat="39.9304945" lon="8.4222358"><ele>35.2</ele><time>2026-05-02T08:52:10.547Z</time></trkpt><trkpt lat="39.93043" lon="8.4221392"><ele>35.0</ele><time>2026-05-02T08:52:11.547Z</time></trkpt><trkpt lat="39.9303611" lon="8.422048"><ele>34.8</ele><time>2026-05-02T08:52:12.547Z</time></trkpt><trkpt lat="39.9302825" lon="8.4219688"><ele>34.6</ele><time>2026-05-02T08:52:13.545Z</time></trkpt><trkpt lat="39.9301942" lon="8.421886"><ele>34.4</ele><time>2026-05-02T08:52:14.547Z</time></trkpt><trkpt lat="39.9301111" lon="8.4217981"><ele>34.2</ele><time>2026-05-02T08:52:15.546Z</time></trkpt><trkpt lat="39.9300289" lon="8.421709"><ele>34.0</ele><time>2026-05-02T08:52:16.546Z</time></trkpt><trkpt lat="39.9299498" lon="8.4216172"><ele>34.0</ele><time>2026-05-02T08:52:17.546Z</time></trkpt><trkpt lat="39.9298713" lon="8.4215247"><ele>34.0</ele><time>2026-05-02T08:52:18.546Z</time></trkpt><trkpt lat="39.92979" lon="8.4214309"><ele>34.0</ele><time>2026-05-02T08:52:19.547Z</time></trkpt><trkpt lat="39.9297124" lon="8.4213355"><ele>34.0</ele><time>2026-05-02T08:52:20.545Z</time></trkpt><trkpt lat="39.9296306" lon="8.4212478"><ele>34.0</ele><time>2026-05-02T08:52:21.546Z</time></trkpt><trkpt lat="39.9295478" lon="8.4211641"><ele>33.8</ele><time>2026-05-02T08:52:22.545Z</time></trkpt><trkpt lat="39.9294576" lon="8.4210839"><ele>33.599999999999994</ele><time>2026-05-02T08:52:23.545Z</time></trkpt><trkpt lat="39.9293682" lon="8.4210103"><ele>33.4</ele><time>2026-05-02T08:52:24.545Z</time></trkpt><trkpt lat="39.9292749" lon="8.4209409"><ele>33.199999999999996</ele><time>2026-05-02T08:52:25.545Z</time></trkpt><trkpt lat="39.9291782" lon="8.4208699"><ele>33.0</ele><time>2026-05-02T08:52:26.546Z</time></trkpt><trkpt lat="39.9290825" lon="8.4207974"><ele>33.0</ele><time>2026-05-02T08:52:27.545Z</time></trkpt><trkpt lat="39.928992" lon="8.4207187"><ele>33.0</ele><time>2026-05-02T08:52:28.546Z</time></trkpt><trkpt lat="39.9289051" lon="8.4206338"><ele>33.0</ele><time>2026-05-02T08:52:29.547Z</time></trkpt><trkpt lat="39.9288182" lon="8.4205402"><ele>33.0</ele><time>2026-05-02T08:52:30.546Z</time></trkpt><trkpt lat="39.928732" lon="8.4204439"><ele>33.0</ele><time>2026-05-02T08:52:31.547Z</time></trkpt><trkpt lat="39.9286444" lon="8.420352"><ele>33.0</ele><time>2026-05-02T08:52:32.546Z</time></trkpt><trkpt lat="39.9285528" lon="8.4202624"><ele>33.0</ele><time>2026-05-02T08:52:33.547Z</time></trkpt><trkpt lat="39.9284624" lon="8.4201736"><ele>33.0</ele><time>2026-05-02T08:52:34.546Z</time></trkpt><trkpt lat="39.9283727" lon="8.4200846"><ele>33.0</ele><time>2026-05-02T08:52:35.546Z</time></trkpt><trkpt lat="39.9282845" lon="8.4199896"><ele>33.0</ele><time>2026-05-02T08:52:36.546Z</time></trkpt><trkpt lat="39.9281997" lon="8.4198901"><ele>33.0</ele><time>2026-05-02T08:52:37.545Z</time></trkpt><trkpt lat="39.9281126" lon="8.4197942"><ele>33.0</ele><time>2026-05-02T08:52:38.545Z</time></trkpt><trkpt lat="39.9280211" lon="8.4197016"><ele>33.0</ele><time>2026-05-02T08:52:39.545Z</time></trkpt><trkpt lat="39.9279254" lon="8.4196096"><ele>33.0</ele><time>2026-05-02T08:52:40.545Z</time></trkpt><trkpt lat="39.927827" lon="8.4195273"><ele>33.0</ele><time>2026-05-02T08:52:41.547Z</time></trkpt><trkpt lat="39.9277283" lon="8.4194516"><ele>33.0</ele><time>2026-05-02T08:52:42.546Z</time></trkpt><trkpt lat="39.9276291" lon="8.4193803"><ele>33.0</ele><time>2026-05-02T08:52:43.546Z</time></trkpt><trkpt lat="39.9275305" lon="8.4193196"><ele>33.0</ele><time>2026-05-02T08:52:44.546Z</time></trkpt><trkpt lat="39.9274293" lon="8.4192764"><ele>33.0</ele><time>2026-05-02T08:52:45.545Z</time></trkpt><trkpt lat="39.9273371" lon="8.4192587"><ele>33.0</ele><time>2026-05-02T08:52:46.545Z</time></trkpt><trkpt lat="39.9272557" lon="8.4192684"><ele>33.0</ele><time>2026-05-02T08:52:47.545Z</time></trkpt><trkpt lat="39.9271729" lon="8.419303"><ele>33.0</ele><time>2026-05-02T08:52:48.545Z</time></trkpt><trkpt lat="39.9270915" lon="8.4193403"><ele>33.0</ele><time>2026-05-02T08:52:49.545Z</time></trkpt><trkpt lat="39.9270074" lon="8.419365"><ele>33.0</ele><time>2026-05-02T08:52:50.546Z</time></trkpt><trkpt lat="39.9269193" lon="8.4193678"><ele>33.0</ele><time>2026-05-02T08:52:51.545Z</time></trkpt><trkpt lat="39.9268228" lon="8.419354"><ele>33.0</ele><time>2026-05-02T08:52:52.546Z</time></trkpt><trkpt lat="39.9267201" lon="8.4193261"><ele>33.0</ele><time>2026-05-02T08:52:53.545Z</time></trkpt><trkpt lat="39.9266167" lon="8.4193065"><ele>33.6</ele><time>2026-05-02T08:52:54.546Z</time></trkpt><trkpt lat="39.9265127" lon="8.4192951"><ele>34.199999999999996</ele><time>2026-05-02T08:52:55.545Z</time></trkpt><trkpt lat="39.9264086" lon="8.4192815"><ele>34.8</ele><time>2026-05-02T08:52:56.545Z</time></trkpt><trkpt lat="39.9263057" lon="8.4192464"><ele>35.4</ele><time>2026-05-02T08:52:57.547Z</time></trkpt><trkpt lat="39.9262057" lon="8.419198"><ele>36.0</ele><time>2026-05-02T08:52:58.546Z</time></trkpt><trkpt lat="39.9261073" lon="8.4191485"><ele>36.0</ele><time>2026-05-02T08:52:59.547Z</time></trkpt><trkpt lat="39.9260068" lon="8.4191036"><ele>36.0</ele><time>2026-05-02T08:53:00.547Z</time></trkpt><trkpt lat="39.9259019" lon="8.4190637"><ele>36.0</ele><time>2026-05-02T08:53:01.546Z</time></trkpt><trkpt lat="39.9258016" lon="8.4190249"><ele>36.0</ele><time>2026-05-02T08:53:02.545Z</time></trkpt><trkpt lat="39.9257009" lon="8.4189954"><ele>36.0</ele><time>2026-05-02T08:53:03.545Z</time></trkpt><trkpt lat="39.925595" lon="8.4189764"><ele>36.4</ele><time>2026-05-02T08:53:04.546Z</time></trkpt><trkpt lat="39.9254889" lon="8.4189652"><ele>36.8</ele><time>2026-05-02T08:53:05.547Z</time></trkpt><trkpt lat="39.9253836" lon="8.4189378"><ele>37.199999999999996</ele><time>2026-05-02T08:53:06.546Z</time></trkpt><trkpt lat="39.9252792" lon="8.4188969"><ele>37.6</ele><time>2026-05-02T08:53:07.547Z</time></trkpt><trkpt lat="39.9251784" lon="8.4188578"><ele>38.0</ele><time>2026-05-02T08:53:08.546Z</time></trkpt><trkpt lat="39.925077" lon="8.418833"><ele>37.8</ele><time>2026-05-02T08:53:09.545Z</time></trkpt><trkpt lat="39.9249742" lon="8.4188145"><ele>37.599999999999994</ele><time>2026-05-02T08:53:10.546Z</time></trkpt><trkpt lat="39.924872" lon="8.4188026"><ele>37.400000000000006</ele><time>2026-05-02T08:53:11.546Z</time></trkpt><trkpt lat="39.924772" lon="8.4187911"><ele>37.2</ele><time>2026-05-02T08:53:12.546Z</time></trkpt><trkpt lat="39.924687" lon="8.4187619"><ele>37.0</ele><time>2026-05-02T08:53:13.546Z</time></trkpt><trkpt lat="39.9246119" lon="8.4187114"><ele>37.0</ele><time>2026-05-02T08:53:14.546Z</time></trkpt><trkpt lat="39.9245313" lon="8.418634"><ele>37.0</ele><time>2026-05-02T08:53:15.546Z</time></trkpt><trkpt lat="39.9244485" lon="8.4185542"><ele>37.0</ele><time>2026-05-02T08:53:16.545Z</time></trkpt><trkpt lat="39.9243529" lon="8.4184861"><ele>37.0</ele><time>2026-05-02T08:53:17.545Z</time></trkpt><trkpt lat="39.9242536" lon="8.4184267"><ele>37.0</ele><time>2026-05-02T08:53:18.546Z</time></trkpt><trkpt lat="39.9241522" lon="8.4183677"><ele>37.2</ele><time>2026-05-02T08:53:19.546Z</time></trkpt><trkpt lat="39.9240558" lon="8.4183004"><ele>37.400000000000006</ele><time>2026-05-02T08:53:20.546Z</time></trkpt><trkpt lat="39.9239591" lon="8.418228"><ele>37.599999999999994</ele><time>2026-05-02T08:53:21.546Z</time></trkpt><trkpt lat="39.9238635" lon="8.4181496"><ele>37.8</ele><time>2026-05-02T08:53:22.545Z</time></trkpt><trkpt lat="39.9237698" lon="8.4180655"><ele>38.0</ele><time>2026-05-02T08:53:23.546Z</time></trkpt><trkpt lat="39.9236751" lon="8.4179851"><ele>38.0</ele><time>2026-05-02T08:53:24.546Z</time></trkpt><trkpt lat="39.9235774" lon="8.4179125"><ele>38.0</ele><time>2026-05-02T08:53:25.546Z</time></trkpt><trkpt lat="39.9234726" lon="8.4178519"><ele>38.0</ele><time>2026-05-02T08:53:26.545Z</time></trkpt><trkpt lat="39.9233691" lon="8.4178012"><ele>38.0</ele><time>2026-05-02T08:53:27.545Z</time></trkpt><trkpt lat="39.9232591" lon="8.417754"><ele>38.25</ele><time>2026-05-02T08:53:28.546Z</time></trkpt><trkpt lat="39.9231503" lon="8.417713"><ele>38.5</ele><time>2026-05-02T08:53:29.546Z</time></trkpt><trkpt lat="39.9230444" lon="8.4176722"><ele>38.75</ele><time>2026-05-02T08:53:30.545Z</time></trkpt><trkpt lat="39.9229375" lon="8.4176213"><ele>39.0</ele><time>2026-05-02T08:53:31.545Z</time></trkpt><trkpt lat="39.9228339" lon="8.4175633"><ele>39.0</ele><time>2026-05-02T08:53:32.545Z</time></trkpt><trkpt lat="39.9227302" lon="8.4174994"><ele>39.0</ele><time>2026-05-02T08:53:33.545Z</time></trkpt><trkpt lat="39.9226235" lon="8.4174421"><ele>39.0</ele><time>2026-05-02T08:53:34.544Z</time></trkpt><trkpt lat="39.9225118" lon="8.417395"><ele>39.0</ele><time>2026-05-02T08:53:35.545Z</time></trkpt><trkpt lat="39.9224003" lon="8.4173565"><ele>39.25</ele><time>2026-05-02T08:53:36.546Z</time></trkpt><trkpt lat="39.9222861" lon="8.4173257"><ele>39.5</ele><time>2026-05-02T08:53:37.545Z</time></trkpt><trkpt lat="39.9221694" lon="8.4173053"><ele>39.75</ele><time>2026-05-02T08:53:38.546Z</time></trkpt><trkpt lat="39.9220551" lon="8.4172877"><ele>40.0</ele><time>2026-05-02T08:53:39.546Z</time></trkpt><trkpt lat="39.9219411" lon="8.4172602"><ele>40.0</ele><time>2026-05-02T08:53:40.545Z</time></trkpt><trkpt lat="39.9218297" lon="8.4172177"><ele>40.0</ele><time>2026-05-02T08:53:41.544Z</time></trkpt><trkpt lat="39.9217231" lon="8.4171622"><ele>40.0</ele><time>2026-05-02T08:53:42.545Z</time></trkpt><trkpt lat="39.9216182" lon="8.4170975"><ele>40.0</ele><time>2026-05-02T08:53:43.545Z</time></trkpt><trkpt lat="39.9215151" lon="8.4170245"><ele>40.0</ele><time>2026-05-02T08:53:44.545Z</time></trkpt><trkpt lat="39.9214162" lon="8.4169462"><ele>40.0</ele><time>2026-05-02T08:53:45.546Z</time></trkpt><trkpt lat="39.921316" lon="8.4168653"><ele>40.0</ele><time>2026-05-02T08:53:46.545Z</time></trkpt><trkpt lat="39.9212192" lon="8.4167824"><ele>40.0</ele><time>2026-05-02T08:53:47.546Z</time></trkpt><trkpt lat="39.921131" lon="8.416707"><ele>40.0</ele><time>2026-05-02T08:53:48.545Z</time></trkpt><trkpt lat="39.9210517" lon="8.4166396"><ele>40.0</ele><time>2026-05-02T08:53:49.544Z</time></trkpt><trkpt lat="39.9209811" lon="8.4165824"><ele>40.0</ele><time>2026-05-02T08:53:50.545Z</time></trkpt><trkpt lat="39.9209165" lon="8.4165322"><ele>40.0</ele><time>2026-05-02T08:53:51.544Z</time></trkpt><trkpt lat="39.9208239" lon="8.4164462"><ele>40.0</ele><time>2026-05-02T08:53:53.546Z</time></trkpt><trkpt lat="39.9207621" lon="8.4163936"><ele>40.0</ele><time>2026-05-02T08:53:55.545Z</time></trkpt><trkpt lat="39.9206968" lon="8.4163589"><ele>40.16666666666667</ele><time>2026-05-02T08:55:45.543Z</time></trkpt><trkpt lat="39.9206387" lon="8.4163218"><ele>40.333333333333336</ele><time>2026-05-02T08:55:46.543Z</time></trkpt><trkpt lat="39.920576" lon="8.416281"><ele>40.5</ele><time>2026-05-02T08:55:47.545Z</time></trkpt><trkpt lat="39.9205145" lon="8.4162305"><ele>40.666666666666664</ele><time>2026-05-02T08:55:48.543Z</time></trkpt><trkpt lat="39.9204485" lon="8.4161806"><ele>40.83333333333333</ele><time>2026-05-02T08:55:49.544Z</time></trkpt><trkpt lat="39.920375" lon="8.4161342"><ele>41.0</ele><time>2026-05-02T08:55:50.544Z</time></trkpt><trkpt lat="39.9202953" lon="8.4160889"><ele>40.4</ele><time>2026-05-02T08:55:51.543Z</time></trkpt><trkpt lat="39.9202103" lon="8.4160485"><ele>39.8</ele><time>2026-05-02T08:55:52.543Z</time></trkpt><trkpt lat="39.9201235" lon="8.4160125"><ele>39.199999999999996</ele><time>2026-05-02T08:55:53.543Z</time></trkpt><trkpt lat="39.9200351" lon="8.4159818"><ele>38.599999999999994</ele><time>2026-05-02T08:55:54.544Z</time></trkpt><trkpt lat="39.9199455" lon="8.4159468"><ele>38.0</ele><time>2026-05-02T08:55:55.543Z</time></trkpt><trkpt lat="39.9198581" lon="8.4159132"><ele>38.0</ele><time>2026-05-02T08:55:56.545Z</time></trkpt><trkpt lat="39.919768" lon="8.4158696"><ele>38.0</ele><time>2026-05-02T08:55:57.543Z</time></trkpt><trkpt lat="39.9196998" lon="8.4158302"><ele>38.0</ele><time>2026-05-02T08:55:58.544Z</time></trkpt><trkpt lat="39.9196156" lon="8.4157784"><ele>38.0</ele><time>2026-05-02T08:56:00.543Z</time></trkpt><trkpt lat="39.919703" lon="8.4158344"><ele>38.0</ele><time>2026-05-02T08:56:06.545Z</time></trkpt><trkpt lat="39.9197685" lon="8.4158269"><ele>38.0</ele><time>2026-05-02T08:56:08.544Z</time></trkpt><trkpt lat="39.919817" lon="8.4157431"><ele>38.0</ele><time>2026-05-02T08:56:10.543Z</time></trkpt><trkpt lat="39.9198843" lon="8.4155896"><ele>38.0</ele><time>2026-05-02T08:56:12.544Z</time></trkpt><trkpt lat="39.9199302" lon="8.4154981"><ele>38.0</ele><time>2026-05-02T08:56:13.544Z</time></trkpt><trkpt lat="39.9199814" lon="8.4153941"><ele>38.0</ele><time>2026-05-02T08:56:14.544Z</time></trkpt><trkpt lat="39.9200378" lon="8.415282"><ele>38.0</ele><time>2026-05-02T08:56:15.545Z</time></trkpt><trkpt lat="39.9200939" lon="8.4151693"><ele>37.0</ele><time>2026-05-02T08:56:16.543Z</time></trkpt><trkpt lat="39.9201502" lon="8.4150523"><ele>36.0</ele><time>2026-05-02T08:56:17.544Z</time></trkpt><trkpt lat="39.9202056" lon="8.4149362"><ele>35.0</ele><time>2026-05-02T08:56:18.545Z</time></trkpt><trkpt lat="39.9202618" lon="8.4148244"><ele>34.0</ele><time>2026-05-02T08:56:19.544Z</time></trkpt><trkpt lat="39.92032" lon="8.4147142"><ele>33.0</ele><time>2026-05-02T08:56:20.545Z</time></trkpt><trkpt lat="39.9203774" lon="8.414603"><ele>32.6</ele><time>2026-05-02T08:56:21.544Z</time></trkpt><trkpt lat="39.9204353" lon="8.4144927"><ele>32.199999999999996</ele><time>2026-05-02T08:56:22.544Z</time></trkpt><trkpt lat="39.9204858" lon="8.4143999"><ele>31.8</ele><time>2026-05-02T08:56:23.545Z</time></trkpt><trkpt lat="39.9205331" lon="8.4143083"><ele>31.4</ele><time>2026-05-02T08:56:24.544Z</time></trkpt><trkpt lat="39.9205776" lon="8.4142099"><ele>31.0</ele><time>2026-05-02T08:56:25.543Z</time></trkpt><trkpt lat="39.9206174" lon="8.4140991"><ele>31.000000000000004</ele><time>2026-05-02T08:56:26.545Z</time></trkpt><trkpt lat="39.9206455" lon="8.4139952"><ele>31.0</ele><time>2026-05-02T08:56:27.545Z</time></trkpt><trkpt lat="39.920676" lon="8.4138912"><ele>31.0</ele><time>2026-05-02T08:56:28.543Z</time></trkpt><trkpt lat="39.9206895" lon="8.4137968"><ele>31.0</ele><time>2026-05-02T08:56:29.545Z</time></trkpt><trkpt lat="39.9207117" lon="8.4137117"><ele>31.000000000000004</ele><time>2026-05-02T08:56:30.545Z</time></trkpt><trkpt lat="39.9207429" lon="8.4136167"><ele>31.0</ele><time>2026-05-02T08:56:31.545Z</time></trkpt><trkpt lat="39.9207787" lon="8.4135158"><ele>31.000000000000004</ele><time>2026-05-02T08:56:32.543Z</time></trkpt><trkpt lat="39.9208243" lon="8.4134134"><ele>31.0</ele><time>2026-05-02T08:56:33.544Z</time></trkpt><trkpt lat="39.9208777" lon="8.4133134"><ele>31.0</ele><time>2026-05-02T08:56:34.544Z</time></trkpt><trkpt lat="39.9209264" lon="8.4132259"><ele>31.0</ele><time>2026-05-02T08:56:35.544Z</time></trkpt><trkpt lat="39.9209698" lon="8.4131517"><ele>31.000000000000004</ele><time>2026-05-02T08:56:36.544Z</time></trkpt><trkpt lat="39.9210143" lon="8.413087"><ele>31.0</ele><time>2026-05-02T08:56:37.543Z</time></trkpt><trkpt lat="39.9210955" lon="8.4129819"><ele>30.200000000000003</ele><time>2026-05-02T08:56:39.544Z</time></trkpt><trkpt lat="39.9212099" lon="8.4128754"><ele>29.400000000000002</ele><time>2026-05-02T08:56:41.544Z</time></trkpt><trkpt lat="39.9212825" lon="8.4128191"><ele>28.6</ele><time>2026-05-02T08:56:42.544Z</time></trkpt><trkpt lat="39.9213672" lon="8.4127717"><ele>27.8</ele><time>2026-05-02T08:56:43.544Z</time></trkpt><trkpt lat="39.921462" lon="8.4127357"><ele>27.0</ele><time>2026-05-02T08:56:44.544Z</time></trkpt><trkpt lat="39.9215629" lon="8.4127046"><ele>27.0</ele><time>2026-05-02T08:56:45.544Z</time></trkpt><trkpt lat="39.9216652" lon="8.4126731"><ele>27.000000000000004</ele><time>2026-05-02T08:56:46.544Z</time></trkpt><trkpt lat="39.9217686" lon="8.412638"><ele>27.000000000000004</ele><time>2026-05-02T08:56:47.545Z</time></trkpt><trkpt lat="39.9218725" lon="8.4125951"><ele>27.0</ele><time>2026-05-02T08:56:48.545Z</time></trkpt><trkpt lat="39.9219754" lon="8.4125533"><ele>27.0</ele><time>2026-05-02T08:56:49.543Z</time></trkpt><trkpt lat="39.9220792" lon="8.4125187"><ele>27.0</ele><time>2026-05-02T08:56:50.544Z</time></trkpt><trkpt lat="39.9221852" lon="8.412487"><ele>27.000000000000004</ele><time>2026-05-02T08:56:51.545Z</time></trkpt><trkpt lat="39.922294" lon="8.4124606"><ele>27.000000000000004</ele><time>2026-05-02T08:56:52.543Z</time></trkpt><trkpt lat="39.9224005" lon="8.4124397"><ele>27.0</ele><time>2026-05-02T08:56:53.545Z</time></trkpt><trkpt lat="39.9225049" lon="8.4124206"><ele>27.0</ele><time>2026-05-02T08:56:54.545Z</time></trkpt><trkpt lat="39.9226053" lon="8.4123914"><ele>26.8</ele><time>2026-05-02T08:56:55.544Z</time></trkpt><trkpt lat="39.922697" lon="8.4123325"><ele>26.6</ele><time>2026-05-02T08:56:56.544Z</time></trkpt><trkpt lat="39.9227918" lon="8.4122629"><ele>26.400000000000002</ele><time>2026-05-02T08:56:57.543Z</time></trkpt><trkpt lat="39.9228856" lon="8.4121896"><ele>26.200000000000003</ele><time>2026-05-02T08:56:58.543Z</time></trkpt><trkpt lat="39.9229781" lon="8.4121185"><ele>26.0</ele><time>2026-05-02T08:56:59.545Z</time></trkpt><trkpt lat="39.9230708" lon="8.4120524"><ele>26.0</ele><time>2026-05-02T08:57:00.544Z</time></trkpt><trkpt lat="39.9231629" lon="8.4119934"><ele>26.0</ele><time>2026-05-02T08:57:01.544Z</time></trkpt><trkpt lat="39.9232556" lon="8.4119452"><ele>26.0</ele><time>2026-05-02T08:57:02.545Z</time></trkpt><trkpt lat="39.9233491" lon="8.411908"><ele>26.0</ele><time>2026-05-02T08:57:03.544Z</time></trkpt><trkpt lat="39.9234411" lon="8.4118787"><ele>26.0</ele><time>2026-05-02T08:57:04.543Z</time></trkpt><trkpt lat="39.92353" lon="8.4118511"><ele>26.333333333333332</ele><time>2026-05-02T08:57:05.543Z</time></trkpt><trkpt lat="39.9236076" lon="8.4118191"><ele>26.666666666666664</ele><time>2026-05-02T08:57:06.545Z</time></trkpt><trkpt lat="39.923685" lon="8.4117864"><ele>27.0</ele><time>2026-05-02T08:57:07.544Z</time></trkpt><trkpt lat="39.9237637" lon="8.4117634"><ele>27.333333333333336</ele><time>2026-05-02T08:57:08.544Z</time></trkpt><trkpt lat="39.9238481" lon="8.4117552"><ele>27.666666666666668</ele><time>2026-05-02T08:57:09.544Z</time></trkpt><trkpt lat="39.9239347" lon="8.4117343"><ele>28.0</ele><time>2026-05-02T08:57:10.545Z</time></trkpt><trkpt lat="39.9240229" lon="8.4117024"><ele>28.0</ele><time>2026-05-02T08:57:11.543Z</time></trkpt><trkpt lat="39.9241138" lon="8.4116816"><ele>27.999999999999996</ele><time>2026-05-02T08:57:12.543Z</time></trkpt><trkpt lat="39.9242081" lon="8.4116724"><ele>27.999999999999996</ele><time>2026-05-02T08:57:13.545Z</time></trkpt><trkpt lat="39.9243011" lon="8.411651"><ele>28.0</ele><time>2026-05-02T08:57:14.544Z</time></trkpt><trkpt lat="39.9243945" lon="8.4116239"><ele>28.0</ele><time>2026-05-02T08:57:15.545Z</time></trkpt><trkpt lat="39.9244904" lon="8.4115906"><ele>28.4</ele><time>2026-05-02T08:57:16.544Z</time></trkpt><trkpt lat="39.9245885" lon="8.4115544"><ele>28.799999999999997</ele><time>2026-05-02T08:57:17.544Z</time></trkpt><trkpt lat="39.9246835" lon="8.4115145"><ele>29.2</ele><time>2026-05-02T08:57:18.543Z</time></trkpt><trkpt lat="39.9247753" lon="8.4114668"><ele>29.6</ele><time>2026-05-02T08:57:19.544Z</time></trkpt><trkpt lat="39.9248623" lon="8.4114099"><ele>30.0</ele><time>2026-05-02T08:57:20.545Z</time></trkpt><trkpt lat="39.9249453" lon="8.4113452"><ele>30.0</ele><time>2026-05-02T08:57:21.544Z</time></trkpt><trkpt lat="39.9250238" lon="8.4112725"><ele>30.0</ele><time>2026-05-02T08:57:22.543Z</time></trkpt><trkpt lat="39.9250968" lon="8.4111885"><ele>30.0</ele><time>2026-05-02T08:57:23.545Z</time></trkpt><trkpt lat="39.9251703" lon="8.4110968"><ele>30.0</ele><time>2026-05-02T08:57:24.545Z</time></trkpt><trkpt lat="39.9252374" lon="8.410998"><ele>30.0</ele><time>2026-05-02T08:57:25.543Z</time></trkpt><trkpt lat="39.9252997" lon="8.4108939"><ele>30.0</ele><time>2026-05-02T08:57:26.543Z</time></trkpt><trkpt lat="39.9253598" lon="8.4107897"><ele>30.0</ele><time>2026-05-02T08:57:27.545Z</time></trkpt><trkpt lat="39.925416" lon="8.4106833"><ele>30.0</ele><time>2026-05-02T08:57:28.544Z</time></trkpt><trkpt lat="39.9254705" lon="8.4105771"><ele>30.0</ele><time>2026-05-02T08:57:29.544Z</time></trkpt><trkpt lat="39.9255246" lon="8.4104727"><ele>30.0</ele><time>2026-05-02T08:57:30.544Z</time></trkpt><trkpt lat="39.9255809" lon="8.4103711"><ele>29.666666666666668</ele><time>2026-05-02T08:57:31.544Z</time></trkpt><trkpt lat="39.9256448" lon="8.4102843"><ele>29.333333333333336</ele><time>2026-05-02T08:57:32.543Z</time></trkpt><trkpt lat="39.9257051" lon="8.4102221"><ele>29.0</ele><time>2026-05-02T08:57:33.545Z</time></trkpt><trkpt lat="39.9257791" lon="8.410168"><ele>28.666666666666668</ele><time>2026-05-02T08:57:34.545Z</time></trkpt><trkpt lat="39.9258655" lon="8.4101234"><ele>28.333333333333336</ele><time>2026-05-02T08:57:35.543Z</time></trkpt><trkpt lat="39.9259601" lon="8.410081"><ele>28.0</ele><time>2026-05-02T08:57:36.543Z</time></trkpt><trkpt lat="39.9260601" lon="8.4100522"><ele>28.0</ele><time>2026-05-02T08:57:37.543Z</time></trkpt><trkpt lat="39.9261661" lon="8.4100345"><ele>27.999999999999996</ele><time>2026-05-02T08:57:38.544Z</time></trkpt><trkpt lat="39.9262727" lon="8.4100251"><ele>27.999999999999996</ele><time>2026-05-02T08:57:39.545Z</time></trkpt><trkpt lat="39.926376" lon="8.4100154"><ele>28.0</ele><time>2026-05-02T08:57:40.544Z</time></trkpt><trkpt lat="39.9264688" lon="8.4099977"><ele>28.0</ele><time>2026-05-02T08:57:41.544Z</time></trkpt><trkpt lat="39.9265667" lon="8.4099635"><ele>28.0</ele><time>2026-05-02T08:57:42.545Z</time></trkpt><trkpt lat="39.9266658" lon="8.4099251"><ele>27.999999999999996</ele><time>2026-05-02T08:57:43.544Z</time></trkpt><trkpt lat="39.9267651" lon="8.4098873"><ele>27.999999999999996</ele><time>2026-05-02T08:57:44.544Z</time></trkpt><trkpt lat="39.9268652" lon="8.4098419"><ele>28.0</ele><time>2026-05-02T08:57:45.543Z</time></trkpt><trkpt lat="39.9269633" lon="8.409785"><ele>28.0</ele><time>2026-05-02T08:57:46.544Z</time></trkpt><trkpt lat="39.927056" lon="8.4097236"><ele>27.666666666666668</ele><time>2026-05-02T08:57:47.545Z</time></trkpt><trkpt lat="39.9271441" lon="8.4096571"><ele>27.333333333333336</ele><time>2026-05-02T08:57:48.545Z</time></trkpt><trkpt lat="39.9272121" lon="8.4095974"><ele>27.0</ele><time>2026-05-02T08:57:49.545Z</time></trkpt><trkpt lat="39.9272659" lon="8.4095514"><ele>26.666666666666664</ele><time>2026-05-02T08:57:50.544Z</time></trkpt><trkpt lat="39.9273294" lon="8.4094974"><ele>26.333333333333332</ele><time>2026-05-02T08:57:52.543Z</time></trkpt><trkpt lat="39.9273866" lon="8.4094415"><ele>26.0</ele><time>2026-05-02T08:58:13.545Z</time></trkpt><trkpt lat="39.9274431" lon="8.4093981"><ele>25.999999999999996</ele><time>2026-05-02T09:00:01.543Z</time></trkpt><trkpt lat="39.9275301" lon="8.4092955"><ele>26.0</ele><time>2026-05-02T09:00:03.543Z</time></trkpt><trkpt lat="39.9275801" lon="8.4092182"><ele>26.0</ele><time>2026-05-02T09:00:04.542Z</time></trkpt><trkpt lat="39.9276224" lon="8.409138"><ele>26.0</ele><time>2026-05-02T09:00:05.544Z</time></trkpt><trkpt lat="39.9276729" lon="8.409029"><ele>25.999999999999996</ele><time>2026-05-02T09:00:07.544Z</time></trkpt><trkpt lat="39.9277097" lon="8.4089587"><ele>26.0</ele><time>2026-05-02T09:00:34.544Z</time></trkpt><trkpt lat="39.927753" lon="8.4088754"><ele>25.6</ele><time>2026-05-02T09:00:36.544Z</time></trkpt><trkpt lat="39.9278049" lon="8.4087798"><ele>25.200000000000003</ele><time>2026-05-02T09:00:38.543Z</time></trkpt><trkpt lat="39.9278658" lon="8.4086642"><ele>24.799999999999997</ele><time>2026-05-02T09:00:40.543Z</time></trkpt><trkpt lat="39.9279314" lon="8.4085371"><ele>24.4</ele><time>2026-05-02T09:00:42.543Z</time></trkpt><trkpt lat="39.9279741" lon="8.4084642"><ele>24.0</ele><time>2026-05-02T09:00:43.544Z</time></trkpt><trkpt lat="39.9280215" lon="8.4083912"><ele>24.0</ele><time>2026-05-02T09:00:44.543Z</time></trkpt><trkpt lat="39.9280641" lon="8.408324"><ele>24.0</ele><time>2026-05-02T09:00:45.542Z</time></trkpt><trkpt lat="39.9281149" lon="8.4082523"><ele>24.0</ele><time>2026-05-02T09:00:46.544Z</time></trkpt><trkpt lat="39.9281662" lon="8.4081737"><ele>24.0</ele><time>2026-05-02T09:00:47.544Z</time></trkpt><trkpt lat="39.9282243" lon="8.4081032"><ele>24.0</ele><time>2026-05-02T09:00:48.544Z</time></trkpt><trkpt lat="39.9282818" lon="8.4080329"><ele>24.0</ele><time>2026-05-02T09:00:49.543Z</time></trkpt><trkpt lat="39.9283451" lon="8.4079636"><ele>23.166666666666668</ele><time>2026-05-02T09:00:50.542Z</time></trkpt><trkpt lat="39.9284036" lon="8.4078922"><ele>22.333333333333332</ele><time>2026-05-02T09:00:51.543Z</time></trkpt><trkpt lat="39.9284629" lon="8.4078261"><ele>21.5</ele><time>2026-05-02T09:00:52.542Z</time></trkpt><trkpt lat="39.9285297" lon="8.4077654"><ele>20.666666666666664</ele><time>2026-05-02T09:00:53.543Z</time></trkpt><trkpt lat="39.9285946" lon="8.4077081"><ele>19.833333333333332</ele><time>2026-05-02T09:00:54.542Z</time></trkpt><trkpt lat="39.9286655" lon="8.4076461"><ele>19.0</ele><time>2026-05-02T09:00:55.544Z</time></trkpt><trkpt lat="39.9287315" lon="8.4075776"><ele>19.0</ele><time>2026-05-02T09:00:56.543Z</time></trkpt><trkpt lat="39.9287996" lon="8.4075148"><ele>19.0</ele><time>2026-05-02T09:00:57.543Z</time></trkpt><trkpt lat="39.9288649" lon="8.4074456"><ele>19.0</ele><time>2026-05-02T09:00:58.543Z</time></trkpt><trkpt lat="39.928929" lon="8.4073736"><ele>19.0</ele><time>2026-05-02T09:00:59.542Z</time></trkpt><trkpt lat="39.9289956" lon="8.4073024"><ele>19.0</ele><time>2026-05-02T09:01:00.543Z</time></trkpt><trkpt lat="39.9290619" lon="8.4072408"><ele>19.0</ele><time>2026-05-02T09:01:01.543Z</time></trkpt><trkpt lat="39.9291259" lon="8.40719"><ele>19.0</ele><time>2026-05-02T09:01:02.543Z</time></trkpt><trkpt lat="39.9291855" lon="8.407144"><ele>19.0</ele><time>2026-05-02T09:01:03.543Z</time></trkpt><trkpt lat="39.9292786" lon="8.4070766"><ele>19.0</ele><time>2026-05-02T09:01:05.544Z</time></trkpt><trkpt lat="39.9293369" lon="8.4070267"><ele>19.0</ele><time>2026-05-02T09:01:07.543Z</time></trkpt><trkpt lat="39.929395" lon="8.4069619"><ele>19.0</ele><time>2026-05-02T09:01:21.544Z</time></trkpt><trkpt lat="39.9294901" lon="8.4068964"><ele>19.0</ele><time>2026-05-02T09:01:23.543Z</time></trkpt><trkpt lat="39.9296037" lon="8.4068226"><ele>19.0</ele><time>2026-05-02T09:01:25.542Z</time></trkpt><trkpt lat="39.929667" lon="8.4067775"><ele>19.0</ele><time>2026-05-02T09:01:26.543Z</time></trkpt><trkpt lat="39.9297341" lon="8.4067317"><ele>19.0</ele><time>2026-05-02T09:01:27.543Z</time></trkpt><trkpt lat="39.929797" lon="8.4066848"><ele>19.0</ele><time>2026-05-02T09:01:28.543Z</time></trkpt><trkpt lat="39.9298563" lon="8.4066369"><ele>19.0</ele><time>2026-05-02T09:01:29.541Z</time></trkpt><trkpt lat="39.9299228" lon="8.406591"><ele>19.0</ele><time>2026-05-02T09:01:30.544Z</time></trkpt><trkpt lat="39.9299944" lon="8.4065367"><ele>19.0</ele><time>2026-05-02T09:01:31.542Z</time></trkpt><trkpt lat="39.9300671" lon="8.4064707"><ele>18.833333333333332</ele><time>2026-05-02T09:01:32.542Z</time></trkpt><trkpt lat="39.9301395" lon="8.4064057"><ele>18.666666666666664</ele><time>2026-05-02T09:01:33.543Z</time></trkpt><trkpt lat="39.9302072" lon="8.406336"><ele>18.5</ele><time>2026-05-02T09:01:34.543Z</time></trkpt><trkpt lat="39.9302746" lon="8.4062717"><ele>18.333333333333332</ele><time>2026-05-02T09:01:35.542Z</time></trkpt><trkpt lat="39.9303452" lon="8.4062011"><ele>18.166666666666668</ele><time>2026-05-02T09:01:36.543Z</time></trkpt><trkpt lat="39.9304098" lon="8.4061292"><ele>18.0</ele><time>2026-05-02T09:01:37.542Z</time></trkpt><trkpt lat="39.9304797" lon="8.4060654"><ele>17.666666666666668</ele><time>2026-05-02T09:01:38.543Z</time></trkpt><trkpt lat="39.9305535" lon="8.4060011"><ele>17.333333333333332</ele><time>2026-05-02T09:01:39.543Z</time></trkpt><trkpt lat="39.9306256" lon="8.4059558"><ele>17.0</ele><time>2026-05-02T09:01:40.542Z</time></trkpt><trkpt lat="39.930703" lon="8.4059136"><ele>16.666666666666664</ele><time>2026-05-02T09:01:41.544Z</time></trkpt><trkpt lat="39.9307677" lon="8.4058896"><ele>16.333333333333332</ele><time>2026-05-02T09:01:42.542Z</time></trkpt><trkpt lat="39.9308784" lon="8.4058614"><ele>16.0</ele><time>2026-05-02T09:01:44.543Z</time></trkpt><trkpt lat="39.9309624" lon="8.405852"><ele>15.8</ele><time>2026-05-02T09:01:46.542Z</time></trkpt><trkpt lat="39.9310614" lon="8.405813"><ele>15.600000000000001</ele><time>2026-05-02T09:01:48.543Z</time></trkpt><trkpt lat="39.9311599" lon="8.4057415"><ele>15.4</ele><time>2026-05-02T09:01:50.545Z</time></trkpt><trkpt lat="39.9312501" lon="8.4056723"><ele>15.2</ele><time>2026-05-02T09:01:52.544Z</time></trkpt><trkpt lat="39.9313572" lon="8.4055798"><ele>15.0</ele><time>2026-05-02T09:01:54.541Z</time></trkpt><trkpt lat="39.9314325" lon="8.4054715"><ele>15.0</ele><time>2026-05-02T09:01:56.541Z</time></trkpt><trkpt lat="39.9314823" lon="8.4053842"><ele>15.0</ele><time>2026-05-02T09:01:58.542Z</time></trkpt><trkpt lat="39.9315423" lon="8.4053085"><ele>15.0</ele><time>2026-05-02T09:02:01.543Z</time></trkpt><trkpt lat="39.9316141" lon="8.4053314"><ele>15.0</ele><time>2026-05-02T09:03:02.543Z</time></trkpt><trkpt lat="39.9317423" lon="8.4053643"><ele>15.0</ele><time>2026-05-02T09:03:04.542Z</time></trkpt><trkpt lat="39.9318219" lon="8.4053791"><ele>14.833333333333334</ele><time>2026-05-02T09:03:05.542Z</time></trkpt><trkpt lat="39.9319091" lon="8.4053922"><ele>14.666666666666668</ele><time>2026-05-02T09:03:06.542Z</time></trkpt><trkpt lat="39.9319941" lon="8.4053778"><ele>14.5</ele><time>2026-05-02T09:03:07.541Z</time></trkpt><trkpt lat="39.932074" lon="8.4053375"><ele>14.333333333333334</ele><time>2026-05-02T09:03:08.543Z</time></trkpt><trkpt lat="39.9321604" lon="8.4052831"><ele>14.166666666666668</ele><time>2026-05-02T09:03:09.542Z</time></trkpt><trkpt lat="39.9322469" lon="8.4052359"><ele>14.0</ele><time>2026-05-02T09:03:10.543Z</time></trkpt><trkpt lat="39.9323341" lon="8.405186"><ele>14.000000000000002</ele><time>2026-05-02T09:03:11.542Z</time></trkpt><trkpt lat="39.9324177" lon="8.4051374"><ele>14.0</ele><time>2026-05-02T09:03:12.541Z</time></trkpt><trkpt lat="39.9324985" lon="8.4050902"><ele>14.0</ele><time>2026-05-02T09:03:13.543Z</time></trkpt><trkpt lat="39.9325764" lon="8.4050495"><ele>14.0</ele><time>2026-05-02T09:03:14.541Z</time></trkpt><trkpt lat="39.9326567" lon="8.4050113"><ele>14.000000000000002</ele><time>2026-05-02T09:03:15.542Z</time></trkpt><trkpt lat="39.9327294" lon="8.4049788"><ele>14.0</ele><time>2026-05-02T09:03:16.544Z</time></trkpt><trkpt lat="39.9328012" lon="8.4049464"><ele>13.500000000000002</ele><time>2026-05-02T09:03:17.542Z</time></trkpt><trkpt lat="39.9328773" lon="8.4049082"><ele>13.0</ele><time>2026-05-02T09:03:18.542Z</time></trkpt><trkpt lat="39.932958" lon="8.4048483"><ele>12.5</ele><time>2026-05-02T09:03:19.542Z</time></trkpt><trkpt lat="39.9330342" lon="8.4047815"><ele>12.0</ele><time>2026-05-02T09:03:20.541Z</time></trkpt><trkpt lat="39.9331103" lon="8.4047064"><ele>11.5</ele><time>2026-05-02T09:03:21.542Z</time></trkpt><trkpt lat="39.9331746" lon="8.4046348"><ele>11.0</ele><time>2026-05-02T09:03:22.543Z</time></trkpt><trkpt lat="39.9332334" lon="8.404566"><ele>10.833333333333332</ele><time>2026-05-02T09:03:23.543Z</time></trkpt><trkpt lat="39.93329" lon="8.4044886"><ele>10.666666666666666</ele><time>2026-05-02T09:03:24.542Z</time></trkpt><trkpt lat="39.9333423" lon="8.4044008"><ele>10.5</ele><time>2026-05-02T09:03:25.541Z</time></trkpt><trkpt lat="39.9333986" lon="8.4043012"><ele>10.333333333333334</ele><time>2026-05-02T09:03:26.542Z</time></trkpt><trkpt lat="39.933446" lon="8.4042053"><ele>10.166666666666668</ele><time>2026-05-02T09:03:27.543Z</time></trkpt><trkpt lat="39.93349" lon="8.4041045"><ele>10.0</ele><time>2026-05-02T09:03:28.543Z</time></trkpt><trkpt lat="39.9335301" lon="8.4039969"><ele>9.8</ele><time>2026-05-02T09:03:29.542Z</time></trkpt><trkpt lat="39.9335684" lon="8.4038823"><ele>9.6</ele><time>2026-05-02T09:03:30.542Z</time></trkpt><trkpt lat="39.9336097" lon="8.4037742"><ele>9.4</ele><time>2026-05-02T09:03:31.542Z</time></trkpt><trkpt lat="39.9336565" lon="8.4036603"><ele>9.2</ele><time>2026-05-02T09:03:32.543Z</time></trkpt><trkpt lat="39.933707" lon="8.4035386"><ele>9.0</ele><time>2026-05-02T09:03:33.543Z</time></trkpt><trkpt lat="39.9337582" lon="8.4034216"><ele>8.4</ele><time>2026-05-02T09:03:34.541Z</time></trkpt><trkpt lat="39.9338112" lon="8.4032913"><ele>7.800000000000001</ele><time>2026-05-02T09:03:35.544Z</time></trkpt><trkpt lat="39.9338575" lon="8.4031626"><ele>7.199999999999999</ele><time>2026-05-02T09:03:36.543Z</time></trkpt><trkpt lat="39.9339021" lon="8.4030405"><ele>6.6</ele><time>2026-05-02T09:03:37.542Z</time></trkpt><trkpt lat="39.9339409" lon="8.4029146"><ele>6.0</ele><time>2026-05-02T09:03:38.542Z</time></trkpt><trkpt lat="39.9339625" lon="8.402812"><ele>5.5</ele><time>2026-05-02T09:03:39.543Z</time></trkpt><trkpt lat="39.9339781" lon="8.4027308"><ele>5.0</ele><time>2026-05-02T09:03:40.541Z</time></trkpt><trkpt lat="39.9339912" lon="8.4026293"><ele>4.5</ele><time>2026-05-02T09:03:42.542Z</time></trkpt><trkpt lat="39.9340804" lon="8.4025873"><ele>4.0</ele><time>2026-05-02T09:03:45.542Z</time></trkpt><trkpt lat="39.9342112" lon="8.4026028"><ele>3.5</ele><time>2026-05-02T09:03:47.542Z</time></trkpt><trkpt lat="39.9342908" lon="8.402608"><ele>3.0</ele><time>2026-05-02T09:03:48.543Z</time></trkpt><trkpt lat="39.9343808" lon="8.4026173"><ele>3.0</ele><time>2026-05-02T09:03:49.541Z</time></trkpt><trkpt lat="39.9344783" lon="8.402628"><ele>3.0</ele><time>2026-05-02T09:03:50.542Z</time></trkpt><trkpt lat="39.9345665" lon="8.402639"><ele>3.0</ele><time>2026-05-02T09:03:51.542Z</time></trkpt><trkpt lat="39.9346641" lon="8.4026506"><ele>3.0</ele><time>2026-05-02T09:03:52.542Z</time></trkpt><trkpt lat="39.9347588" lon="8.4026444"><ele>3.0</ele><time>2026-05-02T09:03:53.543Z</time></trkpt><trkpt lat="39.9348509" lon="8.4026231"><ele>3.0</ele><time>2026-05-02T09:03:54.541Z</time></trkpt><trkpt lat="39.9349388" lon="8.4025892"><ele>3.0</ele><time>2026-05-02T09:03:55.542Z</time></trkpt><trkpt lat="39.9350297" lon="8.4025411"><ele>3.0</ele><time>2026-05-02T09:03:56.542Z</time></trkpt><trkpt lat="39.9351177" lon="8.4024945"><ele>3.0</ele><time>2026-05-02T09:03:57.541Z</time></trkpt><trkpt lat="39.9352061" lon="8.402456"><ele>3.0</ele><time>2026-05-02T09:03:58.541Z</time></trkpt><trkpt lat="39.9352957" lon="8.4024347"><ele>2.6</ele><time>2026-05-02T09:03:59.543Z</time></trkpt><trkpt lat="39.9353864" lon="8.4024173"><ele>2.1999999999999997</ele><time>2026-05-02T09:04:00.543Z</time></trkpt><trkpt lat="39.9354823" lon="8.4024052"><ele>1.8</ele><time>2026-05-02T09:04:01.542Z</time></trkpt><trkpt lat="39.9355755" lon="8.4023996"><ele>1.4</ele><time>2026-05-02T09:04:02.543Z</time></trkpt><trkpt lat="39.935679" lon="8.4023945"><ele>1.0</ele><time>2026-05-02T09:04:03.542Z</time></trkpt><trkpt lat="39.9357858" lon="8.4023946"><ele>1.0</ele><time>2026-05-02T09:04:04.542Z</time></trkpt><trkpt lat="39.9358866" lon="8.4023891"><ele>1.0</ele><time>2026-05-02T09:04:05.542Z</time></trkpt><trkpt lat="39.9359929" lon="8.4023804"><ele>1.0</ele><time>2026-05-02T09:04:06.543Z</time></trkpt><trkpt lat="39.9360999" lon="8.4023723"><ele>1.0</ele><time>2026-05-02T09:04:07.542Z</time></trkpt><trkpt lat="39.9362054" lon="8.4023592"><ele>1.0</ele><time>2026-05-02T09:04:08.543Z</time></trkpt><trkpt lat="39.9363107" lon="8.4023547"><ele>1.2000000000000002</ele><time>2026-05-02T09:04:09.542Z</time></trkpt><trkpt lat="39.9364231" lon="8.4023494"><ele>1.4000000000000001</ele><time>2026-05-02T09:04:10.543Z</time></trkpt><trkpt lat="39.9365342" lon="8.4023526"><ele>1.6</ele><time>2026-05-02T09:04:11.543Z</time></trkpt><trkpt lat="39.9366418" lon="8.4023641"><ele>1.8</ele><time>2026-05-02T09:04:12.541Z</time></trkpt><trkpt lat="39.9367486" lon="8.4023959"><ele>2.0</ele><time>2026-05-02T09:04:13.541Z</time></trkpt><trkpt lat="39.9368577" lon="8.4024252"><ele>2.0</ele><time>2026-05-02T09:04:14.542Z</time></trkpt><trkpt lat="39.9369733" lon="8.4024502"><ele>2.0</ele><time>2026-05-02T09:04:15.541Z</time></trkpt><trkpt lat="39.9370855" lon="8.4024781"><ele>2.0</ele><time>2026-05-02T09:04:16.542Z</time></trkpt><trkpt lat="39.9372028" lon="8.4025031"><ele>2.0</ele><time>2026-05-02T09:04:17.542Z</time></trkpt><trkpt lat="39.9373193" lon="8.4025293"><ele>2.0</ele><time>2026-05-02T09:04:18.542Z</time></trkpt><trkpt lat="39.9374279" lon="8.4025584"><ele>2.0</ele><time>2026-05-02T09:04:19.542Z</time></trkpt><trkpt lat="39.9375443" lon="8.4025795"><ele>2.0</ele><time>2026-05-02T09:04:20.542Z</time></trkpt><trkpt lat="39.9376613" lon="8.4026069"><ele>2.0</ele><time>2026-05-02T09:04:21.542Z</time></trkpt><trkpt lat="39.9377743" lon="8.4026513"><ele>2.25</ele><time>2026-05-02T09:04:22.542Z</time></trkpt><trkpt lat="39.9378866" lon="8.4027012"><ele>2.5</ele><time>2026-05-02T09:04:23.542Z</time></trkpt><trkpt lat="39.9379941" lon="8.4027587"><ele>2.75</ele><time>2026-05-02T09:04:24.542Z</time></trkpt><trkpt lat="39.9380909" lon="8.4028245"><ele>3.0</ele><time>2026-05-02T09:04:25.542Z</time></trkpt><trkpt lat="39.9381917" lon="8.4028947"><ele>3.0</ele><time>2026-05-02T09:04:26.542Z</time></trkpt><trkpt lat="39.9382914" lon="8.4029742"><ele>3.0</ele><time>2026-05-02T09:04:27.541Z</time></trkpt><trkpt lat="39.9383913" lon="8.4030498"><ele>3.0</ele><time>2026-05-02T09:04:28.543Z</time></trkpt><trkpt lat="39.9384965" lon="8.4031237"><ele>3.0</ele><time>2026-05-02T09:04:29.543Z</time></trkpt><trkpt lat="39.9386031" lon="8.4031862"><ele>2.8</ele><time>2026-05-02T09:04:30.543Z</time></trkpt><trkpt lat="39.9387136" lon="8.4032438"><ele>2.5999999999999996</ele><time>2026-05-02T09:04:31.54Z</time></trkpt><trkpt lat="39.9388175" lon="8.4032928"><ele>2.4000000000000004</ele><time>2026-05-02T09:04:32.543Z</time></trkpt><trkpt lat="39.9389212" lon="8.403344"><ele>2.2</ele><time>2026-05-02T09:04:33.542Z</time></trkpt><trkpt lat="39.9390181" lon="8.4034019"><ele>2.0</ele><time>2026-05-02T09:04:34.541Z</time></trkpt><trkpt lat="39.9391074" lon="8.4034466"><ele>2.0</ele><time>2026-05-02T09:04:35.54Z</time></trkpt><trkpt lat="39.9392046" lon="8.4034748"><ele>2.0</ele><time>2026-05-02T09:04:36.543Z</time></trkpt><trkpt lat="39.9393144" lon="8.4034858"><ele>2.0</ele><time>2026-05-02T09:04:37.542Z</time></trkpt><trkpt lat="39.9394333" lon="8.4034743"><ele>2.0</ele><time>2026-05-02T09:04:38.542Z</time></trkpt><trkpt lat="39.9395505" lon="8.403463"><ele>2.0</ele><time>2026-05-02T09:04:39.541Z</time></trkpt><trkpt lat="39.9396622" lon="8.403454"><ele>2.0</ele><time>2026-05-02T09:04:40.541Z</time></trkpt><trkpt lat="39.939779" lon="8.403453"><ele>2.0</ele><time>2026-05-02T09:04:41.541Z</time></trkpt><trkpt lat="39.9399035" lon="8.4034582"><ele>2.0</ele><time>2026-05-02T09:04:42.541Z</time></trkpt><trkpt lat="39.9400207" lon="8.403451"><ele>2.0</ele><time>2026-05-02T09:04:43.54Z</time></trkpt><trkpt lat="39.9401356" lon="8.403437"><ele>2.25</ele><time>2026-05-02T09:04:44.543Z</time></trkpt><trkpt lat="39.9402504" lon="8.4034151"><ele>2.5</ele><time>2026-05-02T09:04:45.541Z</time></trkpt><trkpt lat="39.9403615" lon="8.403392"><ele>2.75</ele><time>2026-05-02T09:04:46.542Z</time></trkpt><trkpt lat="39.9404705" lon="8.4033799"><ele>3.0</ele><time>2026-05-02T09:04:47.541Z</time></trkpt><trkpt lat="39.9405844" lon="8.4033665"><ele>3.0</ele><time>2026-05-02T09:04:48.54Z</time></trkpt><trkpt lat="39.9406962" lon="8.4033638"><ele>3.0</ele><time>2026-05-02T09:04:49.541Z</time></trkpt><trkpt lat="39.9408118" lon="8.4033604"><ele>3.0</ele><time>2026-05-02T09:04:50.542Z</time></trkpt><trkpt lat="39.9409336" lon="8.4033438"><ele>3.0</ele><time>2026-05-02T09:04:51.541Z</time></trkpt><trkpt lat="39.9410532" lon="8.4033171"><ele>3.5</ele><time>2026-05-02T09:04:52.543Z</time></trkpt><trkpt lat="39.9411707" lon="8.4032809"><ele>4.0</ele><time>2026-05-02T09:04:53.541Z</time></trkpt><trkpt lat="39.9412874" lon="8.4032419"><ele>4.5</ele><time>2026-05-02T09:04:54.54Z</time></trkpt><trkpt lat="39.9414031" lon="8.4032102"><ele>5.0</ele><time>2026-05-02T09:04:55.54Z</time></trkpt><trkpt lat="39.941522" lon="8.403187"><ele>5.0</ele><time>2026-05-02T09:04:56.542Z</time></trkpt><trkpt lat="39.9416372" lon="8.403171"><ele>5.0</ele><time>2026-05-02T09:04:57.542Z</time></trkpt><trkpt lat="39.9417476" lon="8.4031468"><ele>5.0</ele><time>2026-05-02T09:04:58.541Z</time></trkpt><trkpt lat="39.9418652" lon="8.4031228"><ele>5.0</ele><time>2026-05-02T09:04:59.542Z</time></trkpt><trkpt lat="39.9419839" lon="8.4030997"><ele>5.0</ele><time>2026-05-02T09:05:00.542Z</time></trkpt><trkpt lat="39.942099" lon="8.4030851"><ele>5.0</ele><time>2026-05-02T09:05:01.542Z</time></trkpt><trkpt lat="39.9422185" lon="8.4030793"><ele>5.0</ele><time>2026-05-02T09:05:02.54Z</time></trkpt><trkpt lat="39.9423409" lon="8.4030828"><ele>5.0</ele><time>2026-05-02T09:05:03.541Z</time></trkpt><trkpt lat="39.9424595" lon="8.4031011"><ele>4.75</ele><time>2026-05-02T09:05:04.541Z</time></trkpt><trkpt lat="39.942577" lon="8.4031303"><ele>4.5</ele><time>2026-05-02T09:05:05.541Z</time></trkpt><trkpt lat="39.9426951" lon="8.4031583"><ele>4.25</ele><time>2026-05-02T09:05:06.54Z</time></trkpt><trkpt lat="39.9428029" lon="8.4032004"><ele>4.0</ele><time>2026-05-02T09:05:07.542Z</time></trkpt><trkpt lat="39.9429172" lon="8.403242"><ele>4.0</ele><time>2026-05-02T09:05:08.542Z</time></trkpt><trkpt lat="39.9430238" lon="8.403272"><ele>4.0</ele><time>2026-05-02T09:05:09.542Z</time></trkpt><trkpt lat="39.9431202" lon="8.4032988"><ele>4.0</ele><time>2026-05-02T09:05:10.542Z</time></trkpt><trkpt lat="39.9432055" lon="8.4033221"><ele>4.0</ele><time>2026-05-02T09:05:11.542Z</time></trkpt><trkpt lat="39.943282" lon="8.4033297"><ele>4.0</ele><time>2026-05-02T09:05:12.542Z</time></trkpt><trkpt lat="39.9433808" lon="8.4033093"><ele>4.166666666666666</ele><time>2026-05-02T09:05:14.541Z</time></trkpt><trkpt lat="39.9434406" lon="8.4032624"><ele>4.333333333333333</ele><time>2026-05-02T09:05:16.54Z</time></trkpt><trkpt lat="39.9434585" lon="8.4031775"><ele>4.5</ele><time>2026-05-02T09:05:19.541Z</time></trkpt><trkpt lat="39.9434686" lon="8.4030809"><ele>4.666666666666667</ele><time>2026-05-02T09:05:23.543Z</time></trkpt><trkpt lat="39.9434754" lon="8.4031741"><ele>4.833333333333334</ele><time>2026-05-02T09:13:05.539Z</time></trkpt><trkpt lat="39.943551" lon="8.4031497"><ele>5.0</ele><time>2026-05-02T09:13:21.539Z</time></trkpt><trkpt lat="39.9435788" lon="8.4032653"><ele>5.0</ele><time>2026-05-02T09:14:49.539Z</time></trkpt><trkpt lat="39.9436372" lon="8.4033289"><ele>5.0</ele><time>2026-05-02T09:14:51.538Z</time></trkpt><trkpt lat="39.9437116" lon="8.4033841"><ele>5.0</ele><time>2026-05-02T09:14:53.538Z</time></trkpt><trkpt lat="39.9437769" lon="8.4034669"><ele>5.0</ele><time>2026-05-02T09:14:55.539Z</time></trkpt><trkpt lat="39.9438953" lon="8.4035579"><ele>5.0</ele><time>2026-05-02T09:14:57.537Z</time></trkpt><trkpt lat="39.943968" lon="8.4035962"><ele>5.0</ele><time>2026-05-02T09:14:59.539Z</time></trkpt><trkpt lat="39.9440381" lon="8.4036254"><ele>5.0</ele><time>2026-05-02T09:15:05.537Z</time></trkpt><trkpt lat="39.9440994" lon="8.4036588"><ele>5.0</ele><time>2026-05-02T09:15:07.537Z</time></trkpt><trkpt lat="39.9442276" lon="8.4036931"><ele>5.0</ele><time>2026-05-02T09:15:09.538Z</time></trkpt><trkpt lat="39.9442898" lon="8.4037317"><ele>5.0</ele><time>2026-05-02T09:15:10.538Z</time></trkpt><trkpt lat="39.9443586" lon="8.4037357"><ele>5.0</ele><time>2026-05-02T09:15:11.537Z</time></trkpt><trkpt lat="39.9444534" lon="8.40372"><ele>5.5</ele><time>2026-05-02T09:15:12.538Z</time></trkpt><trkpt lat="39.9445264" lon="8.4037248"><ele>6.0</ele><time>2026-05-02T09:15:13.537Z</time></trkpt><trkpt lat="39.9446289" lon="8.4037415"><ele>6.5</ele><time>2026-05-02T09:15:15.539Z</time></trkpt><trkpt lat="39.9447056" lon="8.4037544"><ele>7.0</ele><time>2026-05-02T09:15:17.537Z</time></trkpt><trkpt lat="39.9446202" lon="8.4037036"><ele>7.499999999999999</ele><time>2026-05-02T09:15:24.538Z</time></trkpt><trkpt lat="39.9445276" lon="8.4037088"><ele>8.0</ele><time>2026-05-02T09:15:26.537Z</time></trkpt><trkpt lat="39.9444545" lon="8.4037485"><ele>7.999999999999999</ele><time>2026-05-02T09:15:28.538Z</time></trkpt><trkpt lat="39.9443953" lon="8.4037989"><ele>8.0</ele><time>2026-05-02T09:15:30.538Z</time></trkpt><trkpt lat="39.9443246" lon="8.4037606"><ele>8.0</ele><time>2026-05-02T09:15:49.538Z</time></trkpt><trkpt lat="39.94423" lon="8.4036812"><ele>8.0</ele><time>2026-05-02T09:15:51.538Z</time></trkpt><trkpt lat="39.9441669" lon="8.4036517"><ele>7.999999999999999</ele><time>2026-05-02T09:15:52.538Z</time></trkpt><trkpt lat="39.9440744" lon="8.4036208"><ele>8.0</ele><time>2026-05-02T09:15:54.538Z</time></trkpt><trkpt lat="39.9441417" lon="8.4036309"><ele>8.0</ele><time>2026-05-02T09:15:58.539Z</time></trkpt><trkpt lat="39.9442397" lon="8.4036987"><ele>8.0</ele><time>2026-05-02T09:16:00.538Z</time></trkpt><trkpt lat="39.9443524" lon="8.4037462"><ele>8.0</ele><time>2026-05-02T09:16:02.537Z</time></trkpt><trkpt lat="39.944431" lon="8.4037344"><ele>8.0</ele><time>2026-05-02T09:16:03.537Z</time></trkpt><trkpt lat="39.94455" lon="8.4037437"><ele>8.0</ele><time>2026-05-02T09:16:05.538Z</time></trkpt><trkpt lat="39.9446295" lon="8.403734"><ele>8.0</ele><time>2026-05-02T09:16:06.538Z</time></trkpt><trkpt lat="39.9447221" lon="8.4037255"><ele>8.0</ele><time>2026-05-02T09:16:07.537Z</time></trkpt><trkpt lat="39.9448232" lon="8.4037359"><ele>8.0</ele><time>2026-05-02T09:16:08.538Z</time></trkpt><trkpt lat="39.9449312" lon="8.4037496"><ele>8.0</ele><time>2026-05-02T09:16:09.538Z</time></trkpt><trkpt lat="39.9450436" lon="8.4037764"><ele>8.0</ele><time>2026-05-02T09:16:10.54Z</time></trkpt><trkpt lat="39.9451487" lon="8.4038235"><ele>8.0</ele><time>2026-05-02T09:16:11.538Z</time></trkpt><trkpt lat="39.945258" lon="8.4038604"><ele>8.0</ele><time>2026-05-02T09:16:12.538Z</time></trkpt><trkpt lat="39.9453807" lon="8.403879"><ele>8.0</ele><time>2026-05-02T09:16:13.537Z</time></trkpt><trkpt lat="39.9455033" lon="8.4038714"><ele>8.0</ele><time>2026-05-02T09:16:14.537Z</time></trkpt><trkpt lat="39.9456162" lon="8.4038284"><ele>7.6000000000000005</ele><time>2026-05-02T09:16:15.539Z</time></trkpt><trkpt lat="39.9457097" lon="8.4038035"><ele>7.200000000000001</ele><time>2026-05-02T09:16:16.538Z</time></trkpt><trkpt lat="39.9458138" lon="8.4038003"><ele>6.8</ele><time>2026-05-02T09:16:17.538Z</time></trkpt><trkpt lat="39.9459213" lon="8.4038013"><ele>6.4</ele><time>2026-05-02T09:16:18.537Z</time></trkpt><trkpt lat="39.9460275" lon="8.4038096"><ele>6.0</ele><time>2026-05-02T09:16:19.538Z</time></trkpt><trkpt lat="39.9461349" lon="8.4038155"><ele>5.6</ele><time>2026-05-02T09:16:20.538Z</time></trkpt><trkpt lat="39.946243" lon="8.4038143"><ele>5.199999999999999</ele><time>2026-05-02T09:16:21.538Z</time></trkpt><trkpt lat="39.9463522" lon="8.4038049"><ele>4.800000000000001</ele><time>2026-05-02T09:16:22.538Z</time></trkpt><trkpt lat="39.946458" lon="8.4037898"><ele>4.4</ele><time>2026-05-02T09:16:23.538Z</time></trkpt><trkpt lat="39.9465657" lon="8.4037821"><ele>4.0</ele><time>2026-05-02T09:16:24.538Z</time></trkpt><trkpt lat="39.9466837" lon="8.4037844"><ele>4.4</ele><time>2026-05-02T09:16:25.537Z</time></trkpt><trkpt lat="39.9467957" lon="8.4037927"><ele>4.800000000000001</ele><time>2026-05-02T09:16:26.539Z</time></trkpt><trkpt lat="39.9469025" lon="8.4038126"><ele>5.199999999999999</ele><time>2026-05-02T09:16:27.538Z</time></trkpt><trkpt lat="39.9470099" lon="8.4038212"><ele>5.6</ele><time>2026-05-02T09:16:28.537Z</time></trkpt><trkpt lat="39.9471195" lon="8.4038109"><ele>6.0</ele><time>2026-05-02T09:16:29.538Z</time></trkpt><trkpt lat="39.9472297" lon="8.4037871"><ele>6.0</ele><time>2026-05-02T09:16:30.539Z</time></trkpt><trkpt lat="39.9473351" lon="8.4037773"><ele>6.0</ele><time>2026-05-02T09:16:31.538Z</time></trkpt><trkpt lat="39.9474345" lon="8.4037869"><ele>6.0</ele><time>2026-05-02T09:16:32.537Z</time></trkpt><trkpt lat="39.9475156" lon="8.4038042"><ele>6.0</ele><time>2026-05-02T09:16:33.539Z</time></trkpt><trkpt lat="39.9475847" lon="8.4038258"><ele>6.0</ele><time>2026-05-02T09:16:34.539Z</time></trkpt><trkpt lat="39.9476789" lon="8.4038731"><ele>6.4</ele><time>2026-05-02T09:16:36.537Z</time></trkpt><trkpt lat="39.947767" lon="8.4039331"><ele>6.8</ele><time>2026-05-02T09:16:38.539Z</time></trkpt><trkpt lat="39.947892" lon="8.4038684"><ele>7.200000000000001</ele><time>2026-05-02T09:16:40.537Z</time></trkpt><trkpt lat="39.9479545" lon="8.403801"><ele>7.6000000000000005</ele><time>2026-05-02T09:16:41.538Z</time></trkpt><trkpt lat="39.9480214" lon="8.4037259"><ele>8.0</ele><time>2026-05-02T09:16:42.538Z</time></trkpt><trkpt lat="39.9480986" lon="8.4036591"><ele>8.0</ele><time>2026-05-02T09:16:43.538Z</time></trkpt><trkpt lat="39.9481754" lon="8.403591"><ele>8.0</ele><time>2026-05-02T09:16:44.538Z</time></trkpt><trkpt lat="39.9482562" lon="8.4035261"><ele>8.0</ele><time>2026-05-02T09:16:45.539Z</time></trkpt><trkpt lat="39.9483368" lon="8.4034627"><ele>8.0</ele><time>2026-05-02T09:16:46.539Z</time></trkpt><trkpt lat="39.9484099" lon="8.4033946"><ele>8.0</ele><time>2026-05-02T09:16:47.537Z</time></trkpt><trkpt lat="39.9484846" lon="8.4033198"><ele>8.166666666666666</ele><time>2026-05-02T09:16:48.538Z</time></trkpt><trkpt lat="39.9485431" lon="8.4032524"><ele>8.333333333333332</ele><time>2026-05-02T09:16:49.539Z</time></trkpt><trkpt lat="39.9486029" lon="8.4031972"><ele>8.5</ele><time>2026-05-02T09:16:50.539Z</time></trkpt><trkpt lat="39.9486998" lon="8.403162"><ele>8.666666666666666</ele><time>2026-05-02T09:16:52.539Z</time></trkpt><trkpt lat="39.9487919" lon="8.4031952"><ele>8.833333333333334</ele><time>2026-05-02T09:16:54.538Z</time></trkpt><trkpt lat="39.9488904" lon="8.4031749"><ele>9.0</ele><time>2026-05-02T09:16:56.539Z</time></trkpt><trkpt lat="39.9489478" lon="8.4031274"><ele>9.0</ele><time>2026-05-02T09:16:57.538Z</time></trkpt><trkpt lat="39.9489964" lon="8.4030572"><ele>9.0</ele><time>2026-05-02T09:16:58.539Z</time></trkpt><trkpt lat="39.9490393" lon="8.4029723"><ele>9.0</ele><time>2026-05-02T09:16:59.538Z</time></trkpt><trkpt lat="39.9490793" lon="8.402887"><ele>9.0</ele><time>2026-05-02T09:17:00.538Z</time></trkpt><trkpt lat="39.9491265" lon="8.4028086"><ele>9.0</ele><time>2026-05-02T09:17:01.539Z</time></trkpt><trkpt lat="39.9491876" lon="8.4027385"><ele>9.0</ele><time>2026-05-02T09:17:02.539Z</time></trkpt><trkpt lat="39.9492514" lon="8.4026763"><ele>8.166666666666666</ele><time>2026-05-02T09:17:03.536Z</time></trkpt><trkpt lat="39.9493152" lon="8.4026045"><ele>7.333333333333333</ele><time>2026-05-02T09:17:04.538Z</time></trkpt><trkpt lat="39.9493735" lon="8.402526"><ele>6.5</ele><time>2026-05-02T09:17:05.538Z</time></trkpt><trkpt lat="39.9494259" lon="8.4024505"><ele>5.666666666666666</ele><time>2026-05-02T09:17:06.536Z</time></trkpt><trkpt lat="39.9494878" lon="8.4023732"><ele>4.833333333333333</ele><time>2026-05-02T09:17:07.538Z</time></trkpt><trkpt lat="39.949552" lon="8.402317"><ele>4.0</ele><time>2026-05-02T09:17:08.538Z</time></trkpt><trkpt lat="39.9496182" lon="8.4022751"><ele>3.9999999999999996</ele><time>2026-05-02T09:17:09.538Z</time></trkpt><trkpt lat="39.9496852" lon="8.4022445"><ele>4.0</ele><time>2026-05-02T09:17:10.539Z</time></trkpt><trkpt lat="39.9497527" lon="8.4022299"><ele>4.0</ele><time>2026-05-02T09:17:11.539Z</time></trkpt><trkpt lat="39.9498156" lon="8.4022344"><ele>4.0</ele><time>2026-05-02T09:17:12.537Z</time></trkpt><trkpt lat="39.9499258" lon="8.4023072"><ele>3.9999999999999996</ele><time>2026-05-02T09:17:14.539Z</time></trkpt><trkpt lat="39.9499796" lon="8.4023888"><ele>4.0</ele><time>2026-05-02T09:17:15.538Z</time></trkpt><trkpt lat="39.9500335" lon="8.4024656"><ele>3.8571428571428568</ele><time>2026-05-02T09:17:16.537Z</time></trkpt><trkpt lat="39.9500862" lon="8.4025337"><ele>3.714285714285714</ele><time>2026-05-02T09:17:17.538Z</time></trkpt><trkpt lat="39.9501395" lon="8.4025939"><ele>3.571428571428571</ele><time>2026-05-02T09:17:18.537Z</time></trkpt><trkpt lat="39.9501774" lon="8.4026681"><ele>3.4285714285714284</ele><time>2026-05-02T09:17:19.539Z</time></trkpt><trkpt lat="39.9502065" lon="8.4027491"><ele>3.2857142857142856</ele><time>2026-05-02T09:17:20.539Z</time></trkpt><trkpt lat="39.950218" lon="8.402836"><ele>3.1428571428571423</ele><time>2026-05-02T09:17:21.538Z</time></trkpt><trkpt lat="39.9502127" lon="8.4029297"><ele>3.0</ele><time>2026-05-02T09:17:22.538Z</time></trkpt><trkpt lat="39.9501939" lon="8.4030255"><ele>3.3333333333333335</ele><time>2026-05-02T09:17:23.538Z</time></trkpt><trkpt lat="39.9501717" lon="8.4031188"><ele>3.666666666666667</ele><time>2026-05-02T09:17:24.539Z</time></trkpt><trkpt lat="39.9501574" lon="8.403213"><ele>4.0</ele><time>2026-05-02T09:17:25.537Z</time></trkpt><trkpt lat="39.9501502" lon="8.4033129"><ele>4.333333333333334</ele><time>2026-05-02T09:17:26.538Z</time></trkpt><trkpt lat="39.9501584" lon="8.4034143"><ele>4.666666666666667</ele><time>2026-05-02T09:17:27.537Z</time></trkpt><trkpt lat="39.9501773" lon="8.4035094"><ele>5.0</ele><time>2026-05-02T09:17:28.539Z</time></trkpt><trkpt lat="39.950202" lon="8.4035968"><ele>5.0</ele><time>2026-05-02T09:17:29.538Z</time></trkpt><trkpt lat="39.9502314" lon="8.4036722"><ele>5.0</ele><time>2026-05-02T09:17:30.537Z</time></trkpt><trkpt lat="39.9502975" lon="8.403754"><ele>5.0</ele><time>2026-05-02T09:17:32.538Z</time></trkpt><trkpt lat="39.9503978" lon="8.4037564"><ele>5.0</ele><time>2026-05-02T09:17:34.539Z</time></trkpt><trkpt lat="39.9504649" lon="8.4037313"><ele>5.0</ele><time>2026-05-02T09:17:35.538Z</time></trkpt><trkpt lat="39.9505362" lon="8.4036815"><ele>5.0</ele><time>2026-05-02T09:17:36.539Z</time></trkpt><trkpt lat="39.9506152" lon="8.4036211"><ele>5.0</ele><time>2026-05-02T09:17:37.539Z</time></trkpt><trkpt lat="39.9507065" lon="8.4035702"><ele>5.0</ele><time>2026-05-02T09:17:38.538Z</time></trkpt><trkpt lat="39.9508072" lon="8.403526"><ele>5.0</ele><time>2026-05-02T09:17:39.537Z</time></trkpt><trkpt lat="39.950911" lon="8.4035037"><ele>5.0</ele><time>2026-05-02T09:17:40.537Z</time></trkpt><trkpt lat="39.9510214" lon="8.4034858"><ele>5.0</ele><time>2026-05-02T09:17:41.538Z</time></trkpt><trkpt lat="39.9511254" lon="8.4034832"><ele>5.0</ele><time>2026-05-02T09:17:42.539Z</time></trkpt><trkpt lat="39.9512277" lon="8.4034769"><ele>5.0</ele><time>2026-05-02T09:17:43.539Z</time></trkpt><trkpt lat="39.9513278" lon="8.4034779"><ele>5.0</ele><time>2026-05-02T09:17:44.536Z</time></trkpt><trkpt lat="39.9514215" lon="8.4034825"><ele>5.0</ele><time>2026-05-02T09:17:45.536Z</time></trkpt><trkpt lat="39.9515175" lon="8.4034794"><ele>5.0</ele><time>2026-05-02T09:17:46.537Z</time></trkpt><trkpt lat="39.9516097" lon="8.4034698"><ele>5.0</ele><time>2026-05-02T09:17:47.537Z</time></trkpt><trkpt lat="39.9516994" lon="8.4034589"><ele>5.0</ele><time>2026-05-02T09:17:48.537Z</time></trkpt><trkpt lat="39.9517935" lon="8.4034494"><ele>5.0</ele><time>2026-05-02T09:17:49.537Z</time></trkpt><trkpt lat="39.951894" lon="8.4034415"><ele>5.0</ele><time>2026-05-02T09:17:50.538Z</time></trkpt><trkpt lat="39.9520003" lon="8.4034336"><ele>5.0</ele><time>2026-05-02T09:17:51.538Z</time></trkpt><trkpt lat="39.9521092" lon="8.4034377"><ele>5.0</ele><time>2026-05-02T09:17:52.538Z</time></trkpt><trkpt lat="39.9522156" lon="8.4034436"><ele>5.0</ele><time>2026-05-02T09:17:53.537Z</time></trkpt><trkpt lat="39.9523208" lon="8.4034504"><ele>5.0</ele><time>2026-05-02T09:17:54.539Z</time></trkpt><trkpt lat="39.9524245" lon="8.4034525"><ele>5.0</ele><time>2026-05-02T09:17:55.537Z</time></trkpt><trkpt lat="39.952533" lon="8.4034553"><ele>5.0</ele><time>2026-05-02T09:17:56.537Z</time></trkpt><trkpt lat="39.9526378" lon="8.4034533"><ele>5.4</ele><time>2026-05-02T09:17:57.538Z</time></trkpt><trkpt lat="39.9527384" lon="8.4034546"><ele>5.8</ele><time>2026-05-02T09:17:58.537Z</time></trkpt><trkpt lat="39.9528431" lon="8.4034675"><ele>6.199999999999999</ele><time>2026-05-02T09:17:59.536Z</time></trkpt><trkpt lat="39.9529466" lon="8.403479"><ele>6.6</ele><time>2026-05-02T09:18:00.538Z</time></trkpt><trkpt lat="39.9530493" lon="8.4034912"><ele>7.0</ele><time>2026-05-02T09:18:01.537Z</time></trkpt><trkpt lat="39.9531439" lon="8.4034986"><ele>7.000000000000001</ele><time>2026-05-02T09:18:02.538Z</time></trkpt><trkpt lat="39.9532212" lon="8.403506"><ele>7.0</ele><time>2026-05-02T09:18:03.537Z</time></trkpt><trkpt lat="39.9533195" lon="8.4035336"><ele>7.0</ele><time>2026-05-02T09:18:05.536Z</time></trkpt><trkpt lat="39.9533822" lon="8.4036097"><ele>7.0</ele><time>2026-05-02T09:18:08.536Z</time></trkpt><trkpt lat="39.9534653" lon="8.4037072"><ele>7.000000000000001</ele><time>2026-05-02T09:18:10.537Z</time></trkpt><trkpt lat="39.9535282" lon="8.4037537"><ele>7.0</ele><time>2026-05-02T09:18:11.538Z</time></trkpt><trkpt lat="39.9536022" lon="8.4038032"><ele>7.3999999999999995</ele><time>2026-05-02T09:18:12.539Z</time></trkpt><trkpt lat="39.9536808" lon="8.4038573"><ele>7.799999999999999</ele><time>2026-05-02T09:18:13.538Z</time></trkpt><trkpt lat="39.9537649" lon="8.4039322"><ele>8.2</ele><time>2026-05-02T09:18:14.539Z</time></trkpt><trkpt lat="39.9538591" lon="8.4040138"><ele>8.6</ele><time>2026-05-02T09:18:15.538Z</time></trkpt><trkpt lat="39.9539429" lon="8.4040724"><ele>9.0</ele><time>2026-05-02T09:18:16.536Z</time></trkpt><trkpt lat="39.9540267" lon="8.404146"><ele>9.0</ele><time>2026-05-02T09:18:17.539Z</time></trkpt><trkpt lat="39.954112" lon="8.404223"><ele>9.0</ele><time>2026-05-02T09:18:18.537Z</time></trkpt><trkpt lat="39.9541935" lon="8.4043058"><ele>9.0</ele><time>2026-05-02T09:18:19.537Z</time></trkpt><trkpt lat="39.9542767" lon="8.4043866"><ele>9.0</ele><time>2026-05-02T09:18:20.537Z</time></trkpt><trkpt lat="39.9543613" lon="8.4044686"><ele>9.0</ele><time>2026-05-02T09:18:21.538Z</time></trkpt><trkpt lat="39.9544498" lon="8.4045606"><ele>9.25</ele><time>2026-05-02T09:18:22.537Z</time></trkpt><trkpt lat="39.9545455" lon="8.4046458"><ele>9.5</ele><time>2026-05-02T09:18:23.538Z</time></trkpt><trkpt lat="39.9546419" lon="8.4047308"><ele>9.75</ele><time>2026-05-02T09:18:24.537Z</time></trkpt><trkpt lat="39.9547471" lon="8.4048187"><ele>10.0</ele><time>2026-05-02T09:18:25.537Z</time></trkpt><trkpt lat="39.9548554" lon="8.4049176"><ele>10.25</ele><time>2026-05-02T09:18:26.539Z</time></trkpt><trkpt lat="39.9549648" lon="8.4050266"><ele>10.5</ele><time>2026-05-02T09:18:27.536Z</time></trkpt><trkpt lat="39.9550756" lon="8.4051367"><ele>10.75</ele><time>2026-05-02T09:18:28.537Z</time></trkpt><trkpt lat="39.9551992" lon="8.4052377"><ele>11.0</ele><time>2026-05-02T09:18:29.537Z</time></trkpt><trkpt lat="39.9553221" lon="8.4053322"><ele>11.75</ele><time>2026-05-02T09:18:30.538Z</time></trkpt><trkpt lat="39.9554367" lon="8.4054232"><ele>12.5</ele><time>2026-05-02T09:18:31.538Z</time></trkpt><trkpt lat="39.955554" lon="8.405496"><ele>13.25</ele><time>2026-05-02T09:18:32.536Z</time></trkpt><trkpt lat="39.9556755" lon="8.4055584"><ele>14.0</ele><time>2026-05-02T09:18:33.538Z</time></trkpt><trkpt lat="39.9557915" lon="8.4056005"><ele>13.25</ele><time>2026-05-02T09:18:34.537Z</time></trkpt><trkpt lat="39.9559205" lon="8.4056244"><ele>12.5</ele><time>2026-05-02T09:18:35.538Z</time></trkpt><trkpt lat="39.9560544" lon="8.4056369"><ele>11.75</ele><time>2026-05-02T09:18:36.538Z</time></trkpt><trkpt lat="39.9561944" lon="8.4056396"><ele>11.0</ele><time>2026-05-02T09:18:37.538Z</time></trkpt><trkpt lat="39.9563316" lon="8.4056381"><ele>11.0</ele><time>2026-05-02T09:18:38.537Z</time></trkpt><trkpt lat="39.956469" lon="8.405634"><ele>11.0</ele><time>2026-05-02T09:18:39.536Z</time></trkpt><trkpt lat="39.9566099" lon="8.4056283"><ele>11.0</ele><time>2026-05-02T09:18:40.538Z</time></trkpt><trkpt lat="39.9567512" lon="8.4056166"><ele>11.0</ele><time>2026-05-02T09:18:41.539Z</time></trkpt><trkpt lat="39.9568869" lon="8.4055982"><ele>11.0</ele><time>2026-05-02T09:18:42.538Z</time></trkpt><trkpt lat="39.9570205" lon="8.4055882"><ele>11.0</ele><time>2026-05-02T09:18:43.536Z</time></trkpt><trkpt lat="39.9571429" lon="8.4055906"><ele>11.0</ele><time>2026-05-02T09:18:44.538Z</time></trkpt><trkpt lat="39.9572803" lon="8.4056113"><ele>11.0</ele><time>2026-05-02T09:18:45.539Z</time></trkpt><trkpt lat="39.9574118" lon="8.4056424"><ele>11.25</ele><time>2026-05-02T09:18:46.538Z</time></trkpt><trkpt lat="39.9575434" lon="8.4056853"><ele>11.5</ele><time>2026-05-02T09:18:47.536Z</time></trkpt><trkpt lat="39.957674" lon="8.4057321"><ele>11.75</ele><time>2026-05-02T09:18:48.537Z</time></trkpt><trkpt lat="39.9577887" lon="8.4057846"><ele>12.0</ele><time>2026-05-02T09:18:49.538Z</time></trkpt><trkpt lat="39.9578979" lon="8.4058273"><ele>12.0</ele><time>2026-05-02T09:18:50.539Z</time></trkpt><trkpt lat="39.9580012" lon="8.4058475"><ele>12.0</ele><time>2026-05-02T09:18:51.537Z</time></trkpt><trkpt lat="39.9580914" lon="8.4058427"><ele>12.0</ele><time>2026-05-02T09:18:52.537Z</time></trkpt><trkpt lat="39.9581558" lon="8.4058519"><ele>12.0</ele><time>2026-05-02T09:18:53.539Z</time></trkpt><trkpt lat="39.9581963" lon="8.4059483"><ele>12.0</ele><time>2026-05-02T09:18:56.537Z</time></trkpt><trkpt lat="39.9581542" lon="8.4060445"><ele>12.0</ele><time>2026-05-02T09:18:58.536Z</time></trkpt><trkpt lat="39.9581088" lon="8.4061297"><ele>12.0</ele><time>2026-05-02T09:18:59.537Z</time></trkpt><trkpt lat="39.958061" lon="8.4062323"><ele>12.0</ele><time>2026-05-02T09:19:00.536Z</time></trkpt><trkpt lat="39.9580076" lon="8.4063573"><ele>12.0</ele><time>2026-05-02T09:19:01.538Z</time></trkpt><trkpt lat="39.9579575" lon="8.4064877"><ele>12.0</ele><time>2026-05-02T09:19:02.538Z</time></trkpt><trkpt lat="39.9579096" lon="8.4066156"><ele>12.0</ele><time>2026-05-02T09:19:03.536Z</time></trkpt><trkpt lat="39.9578601" lon="8.4067258"><ele>12.399999999999999</ele><time>2026-05-02T09:19:04.538Z</time></trkpt><trkpt lat="39.957825" lon="8.4068328"><ele>12.799999999999999</ele><time>2026-05-02T09:19:05.538Z</time></trkpt><trkpt lat="39.9578031" lon="8.4069494"><ele>13.2</ele><time>2026-05-02T09:19:06.537Z</time></trkpt><trkpt lat="39.9577944" lon="8.4070752"><ele>13.6</ele><time>2026-05-02T09:19:07.538Z</time></trkpt><trkpt lat="39.9577907" lon="8.4072094"><ele>14.0</ele><time>2026-05-02T09:19:08.539Z</time></trkpt><trkpt lat="39.9577907" lon="8.4073334"><ele>14.0</ele><time>2026-05-02T09:19:09.538Z</time></trkpt><trkpt lat="39.9578006" lon="8.4074505"><ele>13.999999999999998</ele><time>2026-05-02T09:19:10.536Z</time></trkpt><trkpt lat="39.9578334" lon="8.4075761"><ele>13.999999999999998</ele><time>2026-05-02T09:19:11.537Z</time></trkpt><trkpt lat="39.9578763" lon="8.4077034"><ele>14.0</ele><time>2026-05-02T09:19:12.538Z</time></trkpt><trkpt lat="39.9579333" lon="8.4078235"><ele>14.0</ele><time>2026-05-02T09:19:13.537Z</time></trkpt><trkpt lat="39.9580072" lon="8.4079383"><ele>14.25</ele><time>2026-05-02T09:19:14.537Z</time></trkpt><trkpt lat="39.958083" lon="8.4080483"><ele>14.5</ele><time>2026-05-02T09:19:15.536Z</time></trkpt><trkpt lat="39.9581615" lon="8.4081542"><ele>14.75</ele><time>2026-05-02T09:19:16.537Z</time></trkpt><trkpt lat="39.9582453" lon="8.4082583"><ele>15.0</ele><time>2026-05-02T09:19:17.536Z</time></trkpt><trkpt lat="39.9583287" lon="8.4083505"><ele>14.75</ele><time>2026-05-02T09:19:18.537Z</time></trkpt><trkpt lat="39.9584166" lon="8.4084477"><ele>14.5</ele><time>2026-05-02T09:19:19.537Z</time></trkpt><trkpt lat="39.9585075" lon="8.408539"><ele>14.25</ele><time>2026-05-02T09:19:20.538Z</time></trkpt><trkpt lat="39.9586" lon="8.4086247"><ele>14.0</ele><time>2026-05-02T09:19:21.537Z</time></trkpt><trkpt lat="39.9586986" lon="8.4087047"><ele>14.0</ele><time>2026-05-02T09:19:22.537Z</time></trkpt><trkpt lat="39.9588015" lon="8.4087871"><ele>14.0</ele><time>2026-05-02T09:19:23.537Z</time></trkpt><trkpt lat="39.958906" lon="8.4088722"><ele>14.0</ele><time>2026-05-02T09:19:24.537Z</time></trkpt><trkpt lat="39.9590129" lon="8.4089606"><ele>14.0</ele><time>2026-05-02T09:19:25.536Z</time></trkpt><trkpt lat="39.9591193" lon="8.4090532"><ele>14.5</ele><time>2026-05-02T09:19:26.538Z</time></trkpt><trkpt lat="39.9592289" lon="8.4091434"><ele>15.0</ele><time>2026-05-02T09:19:27.538Z</time></trkpt><trkpt lat="39.9593353" lon="8.4092351"><ele>15.5</ele><time>2026-05-02T09:19:28.538Z</time></trkpt><trkpt lat="39.9594415" lon="8.4093311"><ele>16.0</ele><time>2026-05-02T09:19:29.537Z</time></trkpt><trkpt lat="39.9595411" lon="8.4094229"><ele>16.0</ele><time>2026-05-02T09:19:30.537Z</time></trkpt><trkpt lat="39.959631" lon="8.409512"><ele>16.0</ele><time>2026-05-02T09:19:31.537Z</time></trkpt><trkpt lat="39.959705" lon="8.4096032"><ele>16.0</ele><time>2026-05-02T09:19:32.536Z</time></trkpt><trkpt lat="39.9597671" lon="8.4096922"><ele>16.0</ele><time>2026-05-02T09:19:33.537Z</time></trkpt><trkpt lat="39.9598043" lon="8.4097877"><ele>16.0</ele><time>2026-05-02T09:19:34.536Z</time></trkpt><trkpt lat="39.9598168" lon="8.4098925"><ele>16.8</ele><time>2026-05-02T09:19:35.538Z</time></trkpt><trkpt lat="39.9598113" lon="8.410006"><ele>17.6</ele><time>2026-05-02T09:19:36.537Z</time></trkpt><trkpt lat="39.9597823" lon="8.410126"><ele>18.4</ele><time>2026-05-02T09:19:37.537Z</time></trkpt><trkpt lat="39.9597353" lon="8.4102479"><ele>19.2</ele><time>2026-05-02T09:19:38.539Z</time></trkpt><trkpt lat="39.9596897" lon="8.4103868"><ele>20.0</ele><time>2026-05-02T09:19:39.538Z</time></trkpt><trkpt lat="39.9596468" lon="8.4105315"><ele>20.5</ele><time>2026-05-02T09:19:40.537Z</time></trkpt><trkpt lat="39.9596132" lon="8.4106738"><ele>21.0</ele><time>2026-05-02T09:19:41.537Z</time></trkpt><trkpt lat="39.959599" lon="8.4108013"><ele>21.5</ele><time>2026-05-02T09:19:42.537Z</time></trkpt><trkpt lat="39.9596053" lon="8.4109025"><ele>22.0</ele><time>2026-05-02T09:19:43.538Z</time></trkpt><trkpt lat="39.9596304" lon="8.4109802"><ele>22.5</ele><time>2026-05-02T09:19:44.538Z</time></trkpt><trkpt lat="39.9596859" lon="8.4110308"><ele>23.0</ele><time>2026-05-02T09:19:45.537Z</time></trkpt><trkpt lat="39.9597646" lon="8.4110628"><ele>23.0</ele><time>2026-05-02T09:19:46.537Z</time></trkpt><trkpt lat="39.9598725" lon="8.4110645"><ele>23.0</ele><time>2026-05-02T09:19:47.538Z</time></trkpt><trkpt lat="39.9599693" lon="8.4110711"><ele>23.0</ele><time>2026-05-02T09:19:48.537Z</time></trkpt><trkpt lat="39.960075" lon="8.4110786"><ele>23.0</ele><time>2026-05-02T09:19:49.537Z</time></trkpt><trkpt lat="39.9601817" lon="8.4110827"><ele>23.0</ele><time>2026-05-02T09:19:50.536Z</time></trkpt><trkpt lat="39.9602872" lon="8.4110742"><ele>23.2</ele><time>2026-05-02T09:19:51.539Z</time></trkpt><trkpt lat="39.9603966" lon="8.411055"><ele>23.4</ele><time>2026-05-02T09:19:52.537Z</time></trkpt><trkpt lat="39.9605111" lon="8.4110153"><ele>23.599999999999998</ele><time>2026-05-02T09:19:53.539Z</time></trkpt><trkpt lat="39.960612" lon="8.4109751"><ele>23.799999999999997</ele><time>2026-05-02T09:19:54.537Z</time></trkpt><trkpt lat="39.960718" lon="8.4109243"><ele>24.0</ele><time>2026-05-02T09:19:55.536Z</time></trkpt><trkpt lat="39.9608217" lon="8.4108725"><ele>24.0</ele><time>2026-05-02T09:19:56.537Z</time></trkpt><trkpt lat="39.960926" lon="8.4108147"><ele>24.0</ele><time>2026-05-02T09:19:57.538Z</time></trkpt><trkpt lat="39.9610311" lon="8.4107579"><ele>24.0</ele><time>2026-05-02T09:19:58.538Z</time></trkpt><trkpt lat="39.9611354" lon="8.4107008"><ele>24.0</ele><time>2026-05-02T09:19:59.537Z</time></trkpt><trkpt lat="39.9612428" lon="8.4106459"><ele>24.0</ele><time>2026-05-02T09:20:00.537Z</time></trkpt><trkpt lat="39.96135" lon="8.4105914"><ele>24.0</ele><time>2026-05-02T09:20:01.536Z</time></trkpt><trkpt lat="39.9614573" lon="8.4105399"><ele>24.0</ele><time>2026-05-02T09:20:02.536Z</time></trkpt><trkpt lat="39.961563" lon="8.4104827"><ele>24.0</ele><time>2026-05-02T09:20:03.539Z</time></trkpt><trkpt lat="39.9616678" lon="8.4104291"><ele>23.6</ele><time>2026-05-02T09:20:04.537Z</time></trkpt><trkpt lat="39.9617719" lon="8.4103751"><ele>23.2</ele><time>2026-05-02T09:20:05.538Z</time></trkpt><trkpt lat="39.9618761" lon="8.4103257"><ele>22.8</ele><time>2026-05-02T09:20:06.537Z</time></trkpt><trkpt lat="39.9619791" lon="8.4102721"><ele>22.400000000000002</ele><time>2026-05-02T09:20:07.536Z</time></trkpt><trkpt lat="39.9620722" lon="8.4102078"><ele>22.0</ele><time>2026-05-02T09:20:08.538Z</time></trkpt><trkpt lat="39.9621512" lon="8.4101242"><ele>22.0</ele><time>2026-05-02T09:20:09.538Z</time></trkpt><trkpt lat="39.9622178" lon="8.4100127"><ele>22.0</ele><time>2026-05-02T09:20:10.539Z</time></trkpt><trkpt lat="39.962274" lon="8.4098996"><ele>22.0</ele><time>2026-05-02T09:20:11.537Z</time></trkpt><trkpt lat="39.9623304" lon="8.4097863"><ele>22.0</ele><time>2026-05-02T09:20:12.537Z</time></trkpt><trkpt lat="39.9624179" lon="8.4096815"><ele>22.0</ele><time>2026-05-02T09:20:13.538Z</time></trkpt><trkpt lat="39.9625186" lon="8.4095908"><ele>21.75</ele><time>2026-05-02T09:20:14.539Z</time></trkpt><trkpt lat="39.9626208" lon="8.4095115"><ele>21.5</ele><time>2026-05-02T09:20:15.538Z</time></trkpt><trkpt lat="39.9627313" lon="8.4094349"><ele>21.25</ele><time>2026-05-02T09:20:16.538Z</time></trkpt><trkpt lat="39.9628385" lon="8.4093643"><ele>21.0</ele><time>2026-05-02T09:20:17.536Z</time></trkpt><trkpt lat="39.9629535" lon="8.4092971"><ele>21.0</ele><time>2026-05-02T09:20:18.538Z</time></trkpt><trkpt lat="39.9630666" lon="8.4092367"><ele>21.0</ele><time>2026-05-02T09:20:19.538Z</time></trkpt><trkpt lat="39.9631824" lon="8.4091768"><ele>21.0</ele><time>2026-05-02T09:20:20.538Z</time></trkpt><trkpt lat="39.9632968" lon="8.4091177"><ele>21.0</ele><time>2026-05-02T09:20:21.537Z</time></trkpt><trkpt lat="39.9634023" lon="8.4090438"><ele>21.25</ele><time>2026-05-02T09:20:22.536Z</time></trkpt><trkpt lat="39.9635139" lon="8.4089636"><ele>21.5</ele><time>2026-05-02T09:20:23.537Z</time></trkpt><trkpt lat="39.96362" lon="8.4088721"><ele>21.75</ele><time>2026-05-02T09:20:24.537Z</time></trkpt><trkpt lat="39.9637229" lon="8.4087749"><ele>22.0</ele><time>2026-05-02T09:20:25.538Z</time></trkpt><trkpt lat="39.9638199" lon="8.408669"><ele>22.0</ele><time>2026-05-02T09:20:26.537Z</time></trkpt><trkpt lat="39.9639115" lon="8.4085571"><ele>22.0</ele><time>2026-05-02T09:20:27.538Z</time></trkpt><trkpt lat="39.9640057" lon="8.4084456"><ele>22.0</ele><time>2026-05-02T09:20:28.538Z</time></trkpt><trkpt lat="39.9641" lon="8.4083351"><ele>22.0</ele><time>2026-05-02T09:20:29.537Z</time></trkpt><trkpt lat="39.9641873" lon="8.4082285"><ele>21.5</ele><time>2026-05-02T09:20:30.537Z</time></trkpt><trkpt lat="39.9642714" lon="8.4081139"><ele>21.0</ele><time>2026-05-02T09:20:31.537Z</time></trkpt><trkpt lat="39.9643592" lon="8.4079973"><ele>20.5</ele><time>2026-05-02T09:20:32.536Z</time></trkpt><trkpt lat="39.9644413" lon="8.4078788"><ele>20.0</ele><time>2026-05-02T09:20:33.538Z</time></trkpt><trkpt lat="39.9645244" lon="8.4077614"><ele>19.75</ele><time>2026-05-02T09:20:34.538Z</time></trkpt><trkpt lat="39.9646037" lon="8.4076447"><ele>19.5</ele><time>2026-05-02T09:20:35.537Z</time></trkpt><trkpt lat="39.9646832" lon="8.4075251"><ele>19.25</ele><time>2026-05-02T09:20:36.538Z</time></trkpt><trkpt lat="39.9647635" lon="8.4074044"><ele>19.0</ele><time>2026-05-02T09:20:37.537Z</time></trkpt><trkpt lat="39.964843" lon="8.4072853"><ele>19.0</ele><time>2026-05-02T09:20:38.537Z</time></trkpt><trkpt lat="39.9649223" lon="8.4071616"><ele>19.0</ele><time>2026-05-02T09:20:39.538Z</time></trkpt><trkpt lat="39.9650032" lon="8.4070394"><ele>19.0</ele><time>2026-05-02T09:20:40.538Z</time></trkpt><trkpt lat="39.9650841" lon="8.4069176"><ele>19.0</ele><time>2026-05-02T09:20:41.536Z</time></trkpt><trkpt lat="39.9651618" lon="8.4067988"><ele>18.75</ele><time>2026-05-02T09:20:42.538Z</time></trkpt><trkpt lat="39.9652419" lon="8.4066805"><ele>18.5</ele><time>2026-05-02T09:20:43.538Z</time></trkpt><trkpt lat="39.9653241" lon="8.4065646"><ele>18.25</ele><time>2026-05-02T09:20:44.537Z</time></trkpt><trkpt lat="39.9654135" lon="8.4064564"><ele>18.0</ele><time>2026-05-02T09:20:45.536Z</time></trkpt><trkpt lat="39.9655086" lon="8.406359"><ele>17.5</ele><time>2026-05-02T09:20:46.538Z</time></trkpt><trkpt lat="39.9656023" lon="8.4062603"><ele>17.0</ele><time>2026-05-02T09:20:47.537Z</time></trkpt><trkpt lat="39.9657024" lon="8.4061628"><ele>16.5</ele><time>2026-05-02T09:20:48.536Z</time></trkpt><trkpt lat="39.9657968" lon="8.406064"><ele>16.0</ele><time>2026-05-02T09:20:49.537Z</time></trkpt><trkpt lat="39.9658862" lon="8.4059641"><ele>16.0</ele><time>2026-05-02T09:20:50.536Z</time></trkpt><trkpt lat="39.9659737" lon="8.4058556"><ele>16.0</ele><time>2026-05-02T09:20:51.536Z</time></trkpt><trkpt lat="39.9660628" lon="8.405744"><ele>16.0</ele><time>2026-05-02T09:20:52.537Z</time></trkpt><trkpt lat="39.9661584" lon="8.4056346"><ele>16.0</ele><time>2026-05-02T09:20:53.537Z</time></trkpt><trkpt lat="39.966253" lon="8.4055258"><ele>15.5</ele><time>2026-05-02T09:20:54.537Z</time></trkpt><trkpt lat="39.9663521" lon="8.4054227"><ele>15.0</ele><time>2026-05-02T09:20:55.537Z</time></trkpt><trkpt lat="39.9664488" lon="8.4053239"><ele>14.5</ele><time>2026-05-02T09:20:56.536Z</time></trkpt><trkpt lat="39.9665475" lon="8.4052314"><ele>14.0</ele><time>2026-05-02T09:20:57.538Z</time></trkpt><trkpt lat="39.9666469" lon="8.4051414"><ele>14.25</ele><time>2026-05-02T09:20:58.537Z</time></trkpt><trkpt lat="39.9667482" lon="8.4050517"><ele>14.5</ele><time>2026-05-02T09:20:59.536Z</time></trkpt><trkpt lat="39.9668484" lon="8.4049628"><ele>14.75</ele><time>2026-05-02T09:21:00.537Z</time></trkpt><trkpt lat="39.966949" lon="8.404878"><ele>15.0</ele><time>2026-05-02T09:21:01.538Z</time></trkpt><trkpt lat="39.9670496" lon="8.404793"><ele>15.0</ele><time>2026-05-02T09:21:02.537Z</time></trkpt><trkpt lat="39.9671483" lon="8.4047058"><ele>15.0</ele><time>2026-05-02T09:21:03.537Z</time></trkpt><trkpt lat="39.9672468" lon="8.4046148"><ele>15.0</ele><time>2026-05-02T09:21:04.537Z</time></trkpt><trkpt lat="39.967344" lon="8.4045211"><ele>15.0</ele><time>2026-05-02T09:21:05.538Z</time></trkpt><trkpt lat="39.9674409" lon="8.4044318"><ele>14.6</ele><time>2026-05-02T09:21:06.536Z</time></trkpt><trkpt lat="39.9675425" lon="8.4043466"><ele>14.2</ele><time>2026-05-02T09:21:07.537Z</time></trkpt><trkpt lat="39.9676376" lon="8.4042836"><ele>13.8</ele><time>2026-05-02T09:21:08.537Z</time></trkpt><trkpt lat="39.9677232" lon="8.4042319"><ele>13.4</ele><time>2026-05-02T09:21:09.538Z</time></trkpt><trkpt lat="39.9677978" lon="8.4041878"><ele>13.0</ele><time>2026-05-02T09:21:10.537Z</time></trkpt><trkpt lat="39.9678681" lon="8.4041489"><ele>13.0</ele><time>2026-05-02T09:21:11.537Z</time></trkpt><trkpt lat="39.9679337" lon="8.4041119"><ele>13.0</ele><time>2026-05-02T09:21:12.537Z</time></trkpt><trkpt lat="39.968048" lon="8.4040517"><ele>13.0</ele><time>2026-05-02T09:21:14.538Z</time></trkpt><trkpt lat="39.9681697" lon="8.4040036"><ele>13.0</ele><time>2026-05-02T09:21:16.538Z</time></trkpt><trkpt lat="39.9682327" lon="8.4039807"><ele>13.0</ele><time>2026-05-02T09:21:17.537Z</time></trkpt><trkpt lat="39.9682981" lon="8.4039638"><ele>13.333333333333332</ele><time>2026-05-02T09:21:18.536Z</time></trkpt><trkpt lat="39.9683639" lon="8.4039481"><ele>13.666666666666666</ele><time>2026-05-02T09:21:19.536Z</time></trkpt><trkpt lat="39.9684338" lon="8.4039358"><ele>14.0</ele><time>2026-05-02T09:21:20.536Z</time></trkpt><trkpt lat="39.9685113" lon="8.4039272"><ele>14.333333333333332</ele><time>2026-05-02T09:21:21.537Z</time></trkpt><trkpt lat="39.968594" lon="8.4039203"><ele>14.666666666666666</ele><time>2026-05-02T09:21:22.538Z</time></trkpt><trkpt lat="39.9686821" lon="8.4039037"><ele>15.0</ele><time>2026-05-02T09:21:23.537Z</time></trkpt><trkpt lat="39.9687755" lon="8.4038828"><ele>15.0</ele><time>2026-05-02T09:21:24.537Z</time></trkpt><trkpt lat="39.9688706" lon="8.4038618"><ele>15.0</ele><time>2026-05-02T09:21:25.536Z</time></trkpt><trkpt lat="39.9689653" lon="8.4038423"><ele>15.0</ele><time>2026-05-02T09:21:26.536Z</time></trkpt><trkpt lat="39.9690644" lon="8.4038259"><ele>15.0</ele><time>2026-05-02T09:21:27.536Z</time></trkpt><trkpt lat="39.9691635" lon="8.4038146"><ele>15.0</ele><time>2026-05-02T09:21:28.536Z</time></trkpt><trkpt lat="39.9692624" lon="8.4038016"><ele>14.6</ele><time>2026-05-02T09:21:29.536Z</time></trkpt><trkpt lat="39.9693601" lon="8.403781"><ele>14.2</ele><time>2026-05-02T09:21:30.536Z</time></trkpt><trkpt lat="39.9694579" lon="8.4037599"><ele>13.8</ele><time>2026-05-02T09:21:31.535Z</time></trkpt><trkpt lat="39.9695531" lon="8.4037393"><ele>13.4</ele><time>2026-05-02T09:21:32.535Z</time></trkpt><trkpt lat="39.9696477" lon="8.4037162"><ele>13.0</ele><time>2026-05-02T09:21:33.536Z</time></trkpt><trkpt lat="39.9697446" lon="8.4036949"><ele>13.0</ele><time>2026-05-02T09:21:34.537Z</time></trkpt><trkpt lat="39.9698465" lon="8.4036685"><ele>13.0</ele><time>2026-05-02T09:21:35.535Z</time></trkpt><trkpt lat="39.9699522" lon="8.4036425"><ele>13.0</ele><time>2026-05-02T09:21:36.537Z</time></trkpt><trkpt lat="39.9700559" lon="8.4036126"><ele>13.0</ele><time>2026-05-02T09:21:37.537Z</time></trkpt><trkpt lat="39.970149" lon="8.4035791"><ele>13.0</ele><time>2026-05-02T09:21:38.536Z</time></trkpt><trkpt lat="39.9702281" lon="8.4035395"><ele>12.999999999999998</ele><time>2026-05-02T09:21:39.537Z</time></trkpt><trkpt lat="39.9702886" lon="8.4034904"><ele>13.0</ele><time>2026-05-02T09:21:40.536Z</time></trkpt><trkpt lat="39.9703653" lon="8.4034511"><ele>13.0</ele><time>2026-05-02T09:21:42.536Z</time></trkpt><trkpt lat="39.9704266" lon="8.4034808"><ele>13.0</ele><time>2026-05-02T09:21:44.536Z</time></trkpt><trkpt lat="39.9704943" lon="8.4036162"><ele>12.999999999999998</ele><time>2026-05-02T09:21:46.536Z</time></trkpt><trkpt lat="39.9705298" lon="8.4037076"><ele>13.0</ele><time>2026-05-02T09:21:47.537Z</time></trkpt><trkpt lat="39.9705809" lon="8.4038145"><ele>13.2</ele><time>2026-05-02T09:21:48.536Z</time></trkpt><trkpt lat="39.9706371" lon="8.4039216"><ele>13.4</ele><time>2026-05-02T09:21:49.536Z</time></trkpt><trkpt lat="39.9706986" lon="8.404037"><ele>13.599999999999998</ele><time>2026-05-02T09:21:50.536Z</time></trkpt><trkpt lat="39.9707633" lon="8.4041557"><ele>13.799999999999999</ele><time>2026-05-02T09:21:51.537Z</time></trkpt><trkpt lat="39.9708308" lon="8.4042817"><ele>14.0</ele><time>2026-05-02T09:21:52.536Z</time></trkpt><trkpt lat="39.9708977" lon="8.4044111"><ele>14.25</ele><time>2026-05-02T09:21:53.536Z</time></trkpt><trkpt lat="39.9709697" lon="8.4045483"><ele>14.5</ele><time>2026-05-02T09:21:54.537Z</time></trkpt><trkpt lat="39.9710438" lon="8.4046922"><ele>14.75</ele><time>2026-05-02T09:21:55.535Z</time></trkpt><trkpt lat="39.9711162" lon="8.4048396"><ele>15.0</ele><time>2026-05-02T09:21:56.538Z</time></trkpt><trkpt lat="39.9711938" lon="8.4049947"><ele>15.75</ele><time>2026-05-02T09:21:57.537Z</time></trkpt><trkpt lat="39.9712704" lon="8.4051472"><ele>16.5</ele><time>2026-05-02T09:21:58.538Z</time></trkpt><trkpt lat="39.9713509" lon="8.4053028"><ele>17.25</ele><time>2026-05-02T09:21:59.537Z</time></trkpt><trkpt lat="39.9714302" lon="8.4054643"><ele>18.0</ele><time>2026-05-02T09:22:00.537Z</time></trkpt><trkpt lat="39.9715092" lon="8.4056216"><ele>18.0</ele><time>2026-05-02T09:22:01.536Z</time></trkpt><trkpt lat="39.9715875" lon="8.4057941"><ele>18.0</ele><time>2026-05-02T09:22:02.536Z</time></trkpt><trkpt lat="39.9716579" lon="8.4059675"><ele>18.0</ele><time>2026-05-02T09:22:03.537Z</time></trkpt><trkpt lat="39.9717258" lon="8.4061493"><ele>18.333333333333332</ele><time>2026-05-02T09:22:04.535Z</time></trkpt><trkpt lat="39.9717846" lon="8.4063384"><ele>18.666666666666664</ele><time>2026-05-02T09:22:05.537Z</time></trkpt><trkpt lat="39.9718448" lon="8.4065275"><ele>19.0</ele><time>2026-05-02T09:22:06.537Z</time></trkpt><trkpt lat="39.971904" lon="8.4067224"><ele>19.0</ele><time>2026-05-02T09:22:07.535Z</time></trkpt><trkpt lat="39.9719595" lon="8.4069155"><ele>19.0</ele><time>2026-05-02T09:22:08.536Z</time></trkpt><trkpt lat="39.9720208" lon="8.4071103"><ele>19.0</ele><time>2026-05-02T09:22:09.536Z</time></trkpt><trkpt lat="39.9720812" lon="8.4073026"><ele>19.0</ele><time>2026-05-02T09:22:10.535Z</time></trkpt><trkpt lat="39.9721393" lon="8.4074965"><ele>19.0</ele><time>2026-05-02T09:22:11.536Z</time></trkpt><trkpt lat="39.9721966" lon="8.4076886"><ele>19.0</ele><time>2026-05-02T09:22:12.535Z</time></trkpt><trkpt lat="39.9722531" lon="8.4078808"><ele>19.333333333333332</ele><time>2026-05-02T09:22:13.535Z</time></trkpt><trkpt lat="39.9723123" lon="8.4080732"><ele>19.666666666666668</ele><time>2026-05-02T09:22:14.535Z</time></trkpt><trkpt lat="39.9723726" lon="8.4082667"><ele>20.0</ele><time>2026-05-02T09:22:15.536Z</time></trkpt><trkpt lat="39.9724307" lon="8.408463"><ele>20.0</ele><time>2026-05-02T09:22:16.535Z</time></trkpt><trkpt lat="39.9724828" lon="8.4086588"><ele>20.0</ele><time>2026-05-02T09:22:17.535Z</time></trkpt><trkpt lat="39.9725335" lon="8.4088598"><ele>20.0</ele><time>2026-05-02T09:22:18.535Z</time></trkpt><trkpt lat="39.9725857" lon="8.4090654"><ele>20.333333333333336</ele><time>2026-05-02T09:22:19.537Z</time></trkpt><trkpt lat="39.9726328" lon="8.4092684"><ele>20.666666666666668</ele><time>2026-05-02T09:22:20.535Z</time></trkpt><trkpt lat="39.9726827" lon="8.4094763"><ele>21.0</ele><time>2026-05-02T09:22:21.535Z</time></trkpt><trkpt lat="39.9727283" lon="8.4096876"><ele>21.0</ele><time>2026-05-02T09:22:22.537Z</time></trkpt><trkpt lat="39.9727772" lon="8.4098999"><ele>21.0</ele><time>2026-05-02T09:22:23.535Z</time></trkpt><trkpt lat="39.9728243" lon="8.4101138"><ele>21.0</ele><time>2026-05-02T09:22:24.535Z</time></trkpt><trkpt lat="39.972872" lon="8.410333"><ele>20.333333333333332</ele><time>2026-05-02T09:22:25.536Z</time></trkpt><trkpt lat="39.9729223" lon="8.4105542"><ele>19.666666666666664</ele><time>2026-05-02T09:22:26.536Z</time></trkpt><trkpt lat="39.9729715" lon="8.4107772"><ele>19.0</ele><time>2026-05-02T09:22:27.535Z</time></trkpt><trkpt lat="39.9730226" lon="8.4110002"><ele>19.0</ele><time>2026-05-02T09:22:28.535Z</time></trkpt><trkpt lat="39.973072" lon="8.4112241"><ele>19.0</ele><time>2026-05-02T09:22:29.536Z</time></trkpt><trkpt lat="39.9731215" lon="8.4114434"><ele>19.0</ele><time>2026-05-02T09:22:30.537Z</time></trkpt><trkpt lat="39.9731719" lon="8.4116646"><ele>18.666666666666664</ele><time>2026-05-02T09:22:31.536Z</time></trkpt><trkpt lat="39.9732213" lon="8.4118886"><ele>18.333333333333332</ele><time>2026-05-02T09:22:32.536Z</time></trkpt><trkpt lat="39.9732698" lon="8.4121147"><ele>18.0</ele><time>2026-05-02T09:22:33.537Z</time></trkpt><trkpt lat="39.9733185" lon="8.4123364"><ele>17.666666666666668</ele><time>2026-05-02T09:22:34.537Z</time></trkpt><trkpt lat="39.9733697" lon="8.4125579"><ele>17.333333333333336</ele><time>2026-05-02T09:22:35.536Z</time></trkpt><trkpt lat="39.9734215" lon="8.4127776"><ele>17.0</ele><time>2026-05-02T09:22:36.535Z</time></trkpt><trkpt lat="39.9734796" lon="8.4129962"><ele>17.0</ele><time>2026-05-02T09:22:37.536Z</time></trkpt><trkpt lat="39.9735411" lon="8.413211"><ele>17.0</ele><time>2026-05-02T09:22:38.536Z</time></trkpt><trkpt lat="39.9736074" lon="8.4134271"><ele>17.0</ele><time>2026-05-02T09:22:39.536Z</time></trkpt><trkpt lat="39.973679" lon="8.4136428"><ele>17.0</ele><time>2026-05-02T09:22:40.536Z</time></trkpt><trkpt lat="39.9737502" lon="8.4138567"><ele>17.0</ele><time>2026-05-02T09:22:41.536Z</time></trkpt><trkpt lat="39.9738271" lon="8.4140672"><ele>17.0</ele><time>2026-05-02T09:22:42.535Z</time></trkpt><trkpt lat="39.9739013" lon="8.4142661"><ele>17.0</ele><time>2026-05-02T09:22:43.535Z</time></trkpt><trkpt lat="39.9739643" lon="8.4144387"><ele>17.0</ele><time>2026-05-02T09:22:44.536Z</time></trkpt><trkpt lat="39.9740158" lon="8.4145955"><ele>17.0</ele><time>2026-05-02T09:22:45.537Z</time></trkpt><trkpt lat="39.9740575" lon="8.4147226"><ele>17.0</ele><time>2026-05-02T09:22:46.537Z</time></trkpt><trkpt lat="39.9740898" lon="8.4148332"><ele>17.0</ele><time>2026-05-02T09:22:47.536Z</time></trkpt><trkpt lat="39.9741092" lon="8.4149175"><ele>17.0</ele><time>2026-05-02T09:22:48.535Z</time></trkpt><trkpt lat="39.9741448" lon="8.4150017"><ele>17.0</ele><time>2026-05-02T09:22:50.535Z</time></trkpt><trkpt lat="39.9741481" lon="8.4148979"><ele>17.0</ele><time>2026-05-02T09:22:53.537Z</time></trkpt><trkpt lat="39.9740819" lon="8.4147315"><ele>17.0</ele><time>2026-05-02T09:22:55.536Z</time></trkpt><trkpt lat="39.9740399" lon="8.4146209"><ele>17.0</ele><time>2026-05-02T09:22:56.537Z</time></trkpt><trkpt lat="39.9739998" lon="8.4144993"><ele>17.0</ele><time>2026-05-02T09:22:57.535Z</time></trkpt><trkpt lat="39.9739566" lon="8.4143664"><ele>17.0</ele><time>2026-05-02T09:22:58.536Z</time></trkpt><trkpt lat="39.9739082" lon="8.4142299"><ele>17.0</ele><time>2026-05-02T09:22:59.537Z</time></trkpt><trkpt lat="39.9738565" lon="8.4140829"><ele>17.0</ele><time>2026-05-02T09:23:00.537Z</time></trkpt><trkpt lat="39.9738059" lon="8.4139305"><ele>17.0</ele><time>2026-05-02T09:23:01.537Z</time></trkpt><trkpt lat="39.973749" lon="8.4137722"><ele>17.0</ele><time>2026-05-02T09:23:02.535Z</time></trkpt><trkpt lat="39.9736919" lon="8.4136097"><ele>17.0</ele><time>2026-05-02T09:23:03.537Z</time></trkpt><trkpt lat="39.9736373" lon="8.4134436"><ele>17.0</ele><time>2026-05-02T09:23:04.536Z</time></trkpt><trkpt lat="39.9735847" lon="8.4132748"><ele>17.0</ele><time>2026-05-02T09:23:05.537Z</time></trkpt><trkpt lat="39.9735306" lon="8.4131025"><ele>17.0</ele><time>2026-05-02T09:23:06.535Z</time></trkpt><trkpt lat="39.9734809" lon="8.4129297"><ele>17.0</ele><time>2026-05-02T09:23:07.536Z</time></trkpt><trkpt lat="39.9734386" lon="8.4127552"><ele>17.0</ele><time>2026-05-02T09:23:08.536Z</time></trkpt><trkpt lat="39.9734072" lon="8.4126246"><ele>17.0</ele><time>2026-05-02T09:23:09.535Z</time></trkpt><trkpt lat="39.9733839" lon="8.412527"><ele>17.0</ele><time>2026-05-02T09:23:10.536Z</time></trkpt><trkpt lat="39.973368" lon="8.4124145"><ele>17.0</ele><time>2026-05-02T09:23:12.535Z</time></trkpt><trkpt lat="39.9733492" lon="8.4124937"><ele>17.0</ele><time>2026-05-02T09:23:24.536Z</time></trkpt><trkpt lat="39.9733963" lon="8.4126734"><ele>17.0</ele><time>2026-05-02T09:23:26.535Z</time></trkpt><trkpt lat="39.9734219" lon="8.4127905"><ele>17.0</ele><time>2026-05-02T09:23:27.535Z</time></trkpt><trkpt lat="39.9734535" lon="8.4129029"><ele>17.0</ele><time>2026-05-02T09:23:28.536Z</time></trkpt><trkpt lat="39.9734798" lon="8.4130005"><ele>17.0</ele><time>2026-05-02T09:23:29.536Z</time></trkpt><trkpt lat="39.973536" lon="8.4130916"><ele>17.0</ele><time>2026-05-02T09:23:31.536Z</time></trkpt><trkpt lat="39.9736104" lon="8.4130715"><ele>17.0</ele><time>2026-05-02T09:23:33.536Z</time></trkpt><trkpt lat="39.9736692" lon="8.4130343"><ele>17.0</ele><time>2026-05-02T09:23:34.537Z</time></trkpt><trkpt lat="39.9737459" lon="8.4129934"><ele>17.0</ele><time>2026-05-02T09:23:35.536Z</time></trkpt><trkpt lat="39.9738289" lon="8.4129566"><ele>17.0</ele><time>2026-05-02T09:23:36.537Z</time></trkpt><trkpt lat="39.9739165" lon="8.4129155"><ele>17.0</ele><time>2026-05-02T09:23:37.536Z</time></trkpt><trkpt lat="39.974008" lon="8.4128713"><ele>17.0</ele><time>2026-05-02T09:23:38.536Z</time></trkpt><trkpt lat="39.9741022" lon="8.4128283"><ele>17.4</ele><time>2026-05-02T09:23:39.535Z</time></trkpt><trkpt lat="39.9741958" lon="8.4127878"><ele>17.799999999999997</ele><time>2026-05-02T09:23:40.537Z</time></trkpt><trkpt lat="39.9742928" lon="8.4127474"><ele>18.2</ele><time>2026-05-02T09:23:41.536Z</time></trkpt><trkpt lat="39.9743891" lon="8.4127044"><ele>18.599999999999998</ele><time>2026-05-02T09:23:42.536Z</time></trkpt><trkpt lat="39.9744871" lon="8.4126625"><ele>19.0</ele><time>2026-05-02T09:23:43.536Z</time></trkpt><trkpt lat="39.9745836" lon="8.4126178"><ele>19.0</ele><time>2026-05-02T09:23:44.537Z</time></trkpt><trkpt lat="39.9746767" lon="8.4125769"><ele>19.0</ele><time>2026-05-02T09:23:45.536Z</time></trkpt><trkpt lat="39.974769" lon="8.4125368"><ele>19.0</ele><time>2026-05-02T09:23:46.537Z</time></trkpt><trkpt lat="39.9748586" lon="8.4124943"><ele>19.0</ele><time>2026-05-02T09:23:47.536Z</time></trkpt><trkpt lat="39.9749361" lon="8.412457"><ele>19.0</ele><time>2026-05-02T09:23:48.536Z</time></trkpt><trkpt lat="39.9750183" lon="8.4124342"><ele>19.0</ele><time>2026-05-02T09:23:49.535Z</time></trkpt><trkpt lat="39.9751" lon="8.4124285"><ele>19.0</ele><time>2026-05-02T09:23:50.536Z</time></trkpt><trkpt lat="39.9751875" lon="8.4124424"><ele>19.0</ele><time>2026-05-02T09:23:51.536Z</time></trkpt><trkpt lat="39.975279" lon="8.4124632"><ele>19.0</ele><time>2026-05-02T09:23:52.536Z</time></trkpt><trkpt lat="39.9753776" lon="8.4124783"><ele>19.0</ele><time>2026-05-02T09:23:53.535Z</time></trkpt><trkpt lat="39.9754755" lon="8.4124957"><ele>19.0</ele><time>2026-05-02T09:23:54.536Z</time></trkpt><trkpt lat="39.9755766" lon="8.4125166"><ele>19.0</ele><time>2026-05-02T09:23:55.536Z</time></trkpt><trkpt lat="39.9756792" lon="8.4125373"><ele>19.0</ele><time>2026-05-02T09:23:56.535Z</time></trkpt><trkpt lat="39.9757794" lon="8.4125567"><ele>19.0</ele><time>2026-05-02T09:23:57.537Z</time></trkpt><trkpt lat="39.9758753" lon="8.4125767"><ele>19.0</ele><time>2026-05-02T09:23:58.537Z</time></trkpt><trkpt lat="39.9759672" lon="8.412614"><ele>19.0</ele><time>2026-05-02T09:23:59.537Z</time></trkpt><trkpt lat="39.9760561" lon="8.4126517"><ele>19.0</ele><time>2026-05-02T09:24:00.537Z</time></trkpt><trkpt lat="39.9761507" lon="8.412691"><ele>19.0</ele><time>2026-05-02T09:24:01.535Z</time></trkpt><trkpt lat="39.9762457" lon="8.4127315"><ele>19.0</ele><time>2026-05-02T09:24:02.535Z</time></trkpt><trkpt lat="39.9763447" lon="8.412783"><ele>19.0</ele><time>2026-05-02T09:24:03.535Z</time></trkpt><trkpt lat="39.9764425" lon="8.4128318"><ele>19.0</ele><time>2026-05-02T09:24:04.536Z</time></trkpt><trkpt lat="39.9765417" lon="8.4128779"><ele>19.0</ele><time>2026-05-02T09:24:05.537Z</time></trkpt><trkpt lat="39.9766235" lon="8.4129105"><ele>19.0</ele><time>2026-05-02T09:24:06.536Z</time></trkpt><trkpt lat="39.9766967" lon="8.412942"><ele>19.0</ele><time>2026-05-02T09:24:07.535Z</time></trkpt><trkpt lat="39.9767785" lon="8.4129705"><ele>19.0</ele><time>2026-05-02T09:24:08.536Z</time></trkpt><trkpt lat="39.9768581" lon="8.412997"><ele>19.0</ele><time>2026-05-02T09:24:09.535Z</time></trkpt><trkpt lat="39.9769394" lon="8.4130293"><ele>18.666666666666664</ele><time>2026-05-02T09:24:10.536Z</time></trkpt><trkpt lat="39.9770201" lon="8.4130588"><ele>18.333333333333332</ele><time>2026-05-02T09:24:11.538Z</time></trkpt><trkpt lat="39.9771025" lon="8.4130866"><ele>18.0</ele><time>2026-05-02T09:24:12.537Z</time></trkpt><trkpt lat="39.9771766" lon="8.413121"><ele>17.666666666666668</ele><time>2026-05-02T09:24:13.536Z</time></trkpt><trkpt lat="39.9772438" lon="8.4131389"><ele>17.333333333333336</ele><time>2026-05-02T09:24:14.537Z</time></trkpt><trkpt lat="39.9773392" lon="8.4131647"><ele>17.0</ele><time>2026-05-02T09:24:16.537Z</time></trkpt><trkpt lat="39.9774251" lon="8.4131738"><ele>17.0</ele><time>2026-05-02T09:24:25.536Z</time></trkpt><trkpt lat="39.9775528" lon="8.4131818"><ele>17.0</ele><time>2026-05-02T09:24:27.537Z</time></trkpt><trkpt lat="39.9776415" lon="8.4131824"><ele>17.0</ele><time>2026-05-02T09:24:28.536Z</time></trkpt><trkpt lat="39.9777317" lon="8.4131696"><ele>17.0</ele><time>2026-05-02T09:24:29.537Z</time></trkpt><trkpt lat="39.9778274" lon="8.4131596"><ele>17.0</ele><time>2026-05-02T09:24:30.537Z</time></trkpt><trkpt lat="39.9779138" lon="8.413147"><ele>17.0</ele><time>2026-05-02T09:24:31.536Z</time></trkpt><trkpt lat="39.9780078" lon="8.4131262"><ele>17.0</ele><time>2026-05-02T09:24:32.536Z</time></trkpt><trkpt lat="39.9780978" lon="8.4131036"><ele>17.0</ele><time>2026-05-02T09:24:33.535Z</time></trkpt><trkpt lat="39.9781784" lon="8.4130865"><ele>17.0</ele><time>2026-05-02T09:24:34.536Z</time></trkpt><trkpt lat="39.9782555" lon="8.4130652"><ele>17.0</ele><time>2026-05-02T09:24:35.536Z</time></trkpt><trkpt lat="39.9783433" lon="8.4130443"><ele>17.0</ele><time>2026-05-02T09:24:36.538Z</time></trkpt><trkpt lat="39.9784373" lon="8.4130223"><ele>17.0</ele><time>2026-05-02T09:24:37.538Z</time></trkpt><trkpt lat="39.9785283" lon="8.4129966"><ele>17.0</ele><time>2026-05-02T09:24:38.536Z</time></trkpt><trkpt lat="39.9786197" lon="8.4129629"><ele>17.0</ele><time>2026-05-02T09:24:39.535Z</time></trkpt><trkpt lat="39.9787055" lon="8.4129329"><ele>17.0</ele><time>2026-05-02T09:24:40.537Z</time></trkpt><trkpt lat="39.9787934" lon="8.4129072"><ele>17.0</ele><time>2026-05-02T09:24:41.536Z</time></trkpt><trkpt lat="39.9788827" lon="8.4128899"><ele>17.333333333333336</ele><time>2026-05-02T09:24:42.536Z</time></trkpt><trkpt lat="39.9789707" lon="8.4128736"><ele>17.666666666666668</ele><time>2026-05-02T09:24:43.536Z</time></trkpt><trkpt lat="39.9790551" lon="8.4128472"><ele>18.0</ele><time>2026-05-02T09:24:44.537Z</time></trkpt><trkpt lat="39.9791416" lon="8.4128215"><ele>18.333333333333332</ele><time>2026-05-02T09:24:45.537Z</time></trkpt><trkpt lat="39.9792286" lon="8.4127956"><ele>18.666666666666664</ele><time>2026-05-02T09:24:46.535Z</time></trkpt><trkpt lat="39.9793158" lon="8.4127719"><ele>19.0</ele><time>2026-05-02T09:24:47.536Z</time></trkpt><trkpt lat="39.9793941" lon="8.4127678"><ele>19.0</ele><time>2026-05-02T09:24:48.536Z</time></trkpt><trkpt lat="39.9794626" lon="8.4127751"><ele>19.0</ele><time>2026-05-02T09:24:49.536Z</time></trkpt><trkpt lat="39.9795395" lon="8.4127858"><ele>19.0</ele><time>2026-05-02T09:24:50.536Z</time></trkpt><trkpt lat="39.9796133" lon="8.4127978"><ele>19.0</ele><time>2026-05-02T09:24:51.537Z</time></trkpt><trkpt lat="39.9796896" lon="8.4128033"><ele>19.0</ele><time>2026-05-02T09:24:52.537Z</time></trkpt><trkpt lat="39.9797637" lon="8.4128099"><ele>19.0</ele><time>2026-05-02T09:24:53.536Z</time></trkpt><trkpt lat="39.9798479" lon="8.4128088"><ele>19.0</ele><time>2026-05-02T09:24:54.535Z</time></trkpt><trkpt lat="39.9799331" lon="8.4128092"><ele>19.0</ele><time>2026-05-02T09:24:55.537Z</time></trkpt><trkpt lat="39.9800176" lon="8.4128064"><ele>19.0</ele><time>2026-05-02T09:24:56.536Z</time></trkpt><trkpt lat="39.9801033" lon="8.4128021"><ele>19.0</ele><time>2026-05-02T09:24:57.536Z</time></trkpt><trkpt lat="39.9801881" lon="8.4127998"><ele>19.0</ele><time>2026-05-02T09:24:58.536Z</time></trkpt><trkpt lat="39.9802726" lon="8.4128058"><ele>19.0</ele><time>2026-05-02T09:24:59.537Z</time></trkpt><trkpt lat="39.9803612" lon="8.4128161"><ele>19.166666666666664</ele><time>2026-05-02T09:25:00.536Z</time></trkpt><trkpt lat="39.9804456" lon="8.4128182"><ele>19.333333333333332</ele><time>2026-05-02T09:25:01.536Z</time></trkpt><trkpt lat="39.9805289" lon="8.4128244"><ele>19.5</ele><time>2026-05-02T09:25:02.536Z</time></trkpt><trkpt lat="39.9806165" lon="8.4128322"><ele>19.666666666666668</ele><time>2026-05-02T09:25:03.536Z</time></trkpt><trkpt lat="39.9807004" lon="8.4128303"><ele>19.833333333333336</ele><time>2026-05-02T09:25:04.536Z</time></trkpt><trkpt lat="39.9807861" lon="8.4128222"><ele>20.0</ele><time>2026-05-02T09:25:05.536Z</time></trkpt><trkpt lat="39.9808727" lon="8.4128142"><ele>20.0</ele><time>2026-05-02T09:25:06.536Z</time></trkpt><trkpt lat="39.9809635" lon="8.4128095"><ele>20.0</ele><time>2026-05-02T09:25:07.536Z</time></trkpt><trkpt lat="39.9810472" lon="8.4128017"><ele>20.0</ele><time>2026-05-02T09:25:08.536Z</time></trkpt><trkpt lat="39.9811307" lon="8.4127924"><ele>20.0</ele><time>2026-05-02T09:25:09.536Z</time></trkpt><trkpt lat="39.9812071" lon="8.4127748"><ele>20.0</ele><time>2026-05-02T09:25:10.537Z</time></trkpt><trkpt lat="39.9812853" lon="8.4127572"><ele>20.0</ele><time>2026-05-02T09:25:11.535Z</time></trkpt><trkpt lat="39.9813631" lon="8.4127654"><ele>20.0</ele><time>2026-05-02T09:25:12.536Z</time></trkpt><trkpt lat="39.981443" lon="8.4127723"><ele>20.0</ele><time>2026-05-02T09:25:13.537Z</time></trkpt><trkpt lat="39.9815248" lon="8.4127726"><ele>20.0</ele><time>2026-05-02T09:25:14.536Z</time></trkpt><trkpt lat="39.9816025" lon="8.412755"><ele>20.0</ele><time>2026-05-02T09:25:15.535Z</time></trkpt><trkpt lat="39.9816847" lon="8.4127191"><ele>20.0</ele><time>2026-05-02T09:25:16.534Z</time></trkpt><trkpt lat="39.9817648" lon="8.4126785"><ele>20.0</ele><time>2026-05-02T09:25:17.535Z</time></trkpt><trkpt lat="39.9818436" lon="8.4126413"><ele>19.4</ele><time>2026-05-02T09:25:18.535Z</time></trkpt><trkpt lat="39.9819284" lon="8.4126"><ele>18.8</ele><time>2026-05-02T09:25:19.537Z</time></trkpt><trkpt lat="39.982016" lon="8.4125574"><ele>18.2</ele><time>2026-05-02T09:25:20.537Z</time></trkpt><trkpt lat="39.9821015" lon="8.4125181"><ele>17.6</ele><time>2026-05-02T09:25:21.536Z</time></trkpt><trkpt lat="39.9821865" lon="8.4124778"><ele>17.0</ele><time>2026-05-02T09:25:22.536Z</time></trkpt><trkpt lat="39.9822702" lon="8.4124372"><ele>17.0</ele><time>2026-05-02T09:25:23.535Z</time></trkpt><trkpt lat="39.9823556" lon="8.412395"><ele>17.0</ele><time>2026-05-02T09:25:24.536Z</time></trkpt><trkpt lat="39.982441" lon="8.4123523"><ele>17.0</ele><time>2026-05-02T09:25:25.536Z</time></trkpt><trkpt lat="39.9825257" lon="8.4123059"><ele>17.0</ele><time>2026-05-02T09:25:26.536Z</time></trkpt><trkpt lat="39.9826093" lon="8.4122563"><ele>17.0</ele><time>2026-05-02T09:25:27.536Z</time></trkpt><trkpt lat="39.9826875" lon="8.412203"><ele>17.2</ele><time>2026-05-02T09:25:28.536Z</time></trkpt><trkpt lat="39.982767" lon="8.4121457"><ele>17.4</ele><time>2026-05-02T09:25:29.536Z</time></trkpt><trkpt lat="39.982848" lon="8.4120852"><ele>17.6</ele><time>2026-05-02T09:25:30.536Z</time></trkpt><trkpt lat="39.9829296" lon="8.4120252"><ele>17.8</ele><time>2026-05-02T09:25:31.536Z</time></trkpt><trkpt lat="39.983014" lon="8.4119682"><ele>18.0</ele><time>2026-05-02T09:25:32.535Z</time></trkpt><trkpt lat="39.9830979" lon="8.4119103"><ele>18.0</ele><time>2026-05-02T09:25:33.536Z</time></trkpt><trkpt lat="39.9831819" lon="8.4118561"><ele>18.0</ele><time>2026-05-02T09:25:34.536Z</time></trkpt><trkpt lat="39.983268" lon="8.4118071"><ele>18.0</ele><time>2026-05-02T09:25:35.535Z</time></trkpt><trkpt lat="39.9833576" lon="8.4117623"><ele>18.0</ele><time>2026-05-02T09:25:36.536Z</time></trkpt><trkpt lat="39.9834422" lon="8.4117252"><ele>18.0</ele><time>2026-05-02T09:25:37.536Z</time></trkpt><trkpt lat="39.9835217" lon="8.4116937"><ele>17.4</ele><time>2026-05-02T09:25:38.535Z</time></trkpt><trkpt lat="39.9836124" lon="8.4116834"><ele>16.8</ele><time>2026-05-02T09:25:39.535Z</time></trkpt><trkpt lat="39.9837029" lon="8.4116848"><ele>16.2</ele><time>2026-05-02T09:25:40.536Z</time></trkpt><trkpt lat="39.9837952" lon="8.4116838"><ele>15.6</ele><time>2026-05-02T09:25:41.536Z</time></trkpt><trkpt lat="39.9838898" lon="8.4116897"><ele>15.0</ele><time>2026-05-02T09:25:42.536Z</time></trkpt><trkpt lat="39.9839857" lon="8.4117098"><ele>15.0</ele><time>2026-05-02T09:25:43.535Z</time></trkpt><trkpt lat="39.984078" lon="8.4117353"><ele>15.0</ele><time>2026-05-02T09:25:44.536Z</time></trkpt><trkpt lat="39.9841712" lon="8.4117616"><ele>15.0</ele><time>2026-05-02T09:25:45.535Z</time></trkpt><trkpt lat="39.9842502" lon="8.4117932"><ele>15.0</ele><time>2026-05-02T09:25:46.536Z</time></trkpt><trkpt lat="39.984321" lon="8.4118188"><ele>15.0</ele><time>2026-05-02T09:25:47.536Z</time></trkpt><trkpt lat="39.9843846" lon="8.4118491"><ele>15.0</ele><time>2026-05-02T09:25:48.536Z</time></trkpt><trkpt lat="39.9844789" lon="8.4119442"><ele>14.714285714285715</ele><time>2026-05-02T09:25:50.536Z</time></trkpt><trkpt lat="39.9845213" lon="8.4120118"><ele>14.428571428571427</ele><time>2026-05-02T09:25:51.536Z</time></trkpt><trkpt lat="39.9845649" lon="8.412092"><ele>14.142857142857142</ele><time>2026-05-02T09:25:52.535Z</time></trkpt><trkpt lat="39.984615" lon="8.4121762"><ele>13.857142857142858</ele><time>2026-05-02T09:25:53.536Z</time></trkpt><trkpt lat="39.9846601" lon="8.4122632"><ele>13.571428571428573</ele><time>2026-05-02T09:25:54.535Z</time></trkpt><trkpt lat="39.984693" lon="8.4123444"><ele>13.285714285714285</ele><time>2026-05-02T09:25:55.535Z</time></trkpt><trkpt lat="39.9847226" lon="8.4124242"><ele>13.0</ele><time>2026-05-02T09:25:56.536Z</time></trkpt><trkpt lat="39.9847605" lon="8.4125043"><ele>13.0</ele><time>2026-05-02T09:25:57.536Z</time></trkpt><trkpt lat="39.9848334" lon="8.4126052"><ele>13.0</ele><time>2026-05-02T09:25:59.535Z</time></trkpt><trkpt lat="39.9849297" lon="8.4126901"><ele>13.0</ele><time>2026-05-02T09:26:01.536Z</time></trkpt><trkpt lat="39.984986" lon="8.4127309"><ele>13.0</ele><time>2026-05-02T09:26:02.535Z</time></trkpt><trkpt lat="39.9850438" lon="8.4127693"><ele>13.0</ele><time>2026-05-02T09:26:03.536Z</time></trkpt><trkpt lat="39.9851607" lon="8.4127973"><ele>12.999999999999998</ele><time>2026-05-02T09:26:05.535Z</time></trkpt><trkpt lat="39.985266" lon="8.4127634"><ele>13.0</ele><time>2026-05-02T09:26:07.536Z</time></trkpt><trkpt lat="39.9853313" lon="8.4127308"><ele>13.0</ele><time>2026-05-02T09:26:19.535Z</time></trkpt><trkpt lat="39.9853854" lon="8.4126842"><ele>13.0</ele><time>2026-05-02T09:26:21.535Z</time></trkpt><trkpt lat="39.9854453" lon="8.4126434"><ele>12.999999999999998</ele><time>2026-05-02T09:26:22.535Z</time></trkpt><trkpt lat="39.9855082" lon="8.4126085"><ele>13.0</ele><time>2026-05-02T09:26:23.536Z</time></trkpt><trkpt lat="39.9855767" lon="8.4125857"><ele>12.999999999999998</ele><time>2026-05-02T09:26:24.536Z</time></trkpt><trkpt lat="39.9856474" lon="8.4125687"><ele>13.0</ele><time>2026-05-02T09:26:25.534Z</time></trkpt><trkpt lat="39.9857079" lon="8.4125381"><ele>13.0</ele><time>2026-05-02T09:26:26.535Z</time></trkpt><trkpt lat="39.9857569" lon="8.412486"><ele>13.0</ele><time>2026-05-02T09:26:27.534Z</time></trkpt><trkpt lat="39.9858368" lon="8.4123885"><ele>12.999999999999998</ele><time>2026-05-02T09:26:29.535Z</time></trkpt><trkpt lat="39.9859463" lon="8.4122927"><ele>13.0</ele><time>2026-05-02T09:26:31.536Z</time></trkpt><trkpt lat="39.9860149" lon="8.4122663"><ele>12.666666666666666</ele><time>2026-05-02T09:26:32.534Z</time></trkpt><trkpt lat="39.9860862" lon="8.4122486"><ele>12.333333333333332</ele><time>2026-05-02T09:26:33.535Z</time></trkpt><trkpt lat="39.9861495" lon="8.4122137"><ele>12.0</ele><time>2026-05-02T09:26:34.535Z</time></trkpt><trkpt lat="39.9862144" lon="8.4121699"><ele>11.666666666666666</ele><time>2026-05-02T09:26:35.535Z</time></trkpt><trkpt lat="39.9862836" lon="8.4121278"><ele>11.333333333333332</ele><time>2026-05-02T09:26:36.535Z</time></trkpt><trkpt lat="39.9863582" lon="8.4120883"><ele>11.0</ele><time>2026-05-02T09:26:37.535Z</time></trkpt><trkpt lat="39.986435" lon="8.4120429"><ele>11.0</ele><time>2026-05-02T09:26:38.536Z</time></trkpt><trkpt lat="39.9865125" lon="8.4120033"><ele>11.0</ele><time>2026-05-02T09:26:39.536Z</time></trkpt><trkpt lat="39.9865902" lon="8.4119634"><ele>11.0</ele><time>2026-05-02T09:26:40.535Z</time></trkpt><trkpt lat="39.9866717" lon="8.4119291"><ele>11.0</ele><time>2026-05-02T09:26:41.534Z</time></trkpt><trkpt lat="39.9867558" lon="8.4119096"><ele>11.0</ele><time>2026-05-02T09:26:42.534Z</time></trkpt><trkpt lat="39.9868391" lon="8.4118863"><ele>11.0</ele><time>2026-05-02T09:26:43.534Z</time></trkpt><trkpt lat="39.9869213" lon="8.4118587"><ele>11.166666666666666</ele><time>2026-05-02T09:26:44.535Z</time></trkpt><trkpt lat="39.9870017" lon="8.4118265"><ele>11.333333333333332</ele><time>2026-05-02T09:26:45.536Z</time></trkpt><trkpt lat="39.9870825" lon="8.4117901"><ele>11.5</ele><time>2026-05-02T09:26:46.536Z</time></trkpt><trkpt lat="39.9871572" lon="8.4117551"><ele>11.666666666666666</ele><time>2026-05-02T09:26:47.535Z</time></trkpt><trkpt lat="39.9872355" lon="8.411721"><ele>11.833333333333334</ele><time>2026-05-02T09:26:48.534Z</time></trkpt><trkpt lat="39.9873153" lon="8.4116859"><ele>12.0</ele><time>2026-05-02T09:26:49.535Z</time></trkpt><trkpt lat="39.9873888" lon="8.4116474"><ele>12.0</ele><time>2026-05-02T09:26:50.536Z</time></trkpt><trkpt lat="39.9874676" lon="8.4116091"><ele>12.0</ele><time>2026-05-02T09:26:51.535Z</time></trkpt><trkpt lat="39.9875507" lon="8.4115784"><ele>12.0</ele><time>2026-05-02T09:26:52.535Z</time></trkpt><trkpt lat="39.9876346" lon="8.4115475"><ele>12.0</ele><time>2026-05-02T09:26:53.534Z</time></trkpt><trkpt lat="39.9877112" lon="8.411509"><ele>12.0</ele><time>2026-05-02T09:26:54.535Z</time></trkpt><trkpt lat="39.9877924" lon="8.4114727"><ele>12.0</ele><time>2026-05-02T09:26:55.534Z</time></trkpt><trkpt lat="39.9878751" lon="8.4114388"><ele>12.0</ele><time>2026-05-02T09:26:56.535Z</time></trkpt><trkpt lat="39.9879595" lon="8.4114099"><ele>12.0</ele><time>2026-05-02T09:26:57.535Z</time></trkpt><trkpt lat="39.9880433" lon="8.4113765"><ele>12.0</ele><time>2026-05-02T09:26:58.534Z</time></trkpt><trkpt lat="39.9881253" lon="8.4113453"><ele>12.0</ele><time>2026-05-02T09:26:59.535Z</time></trkpt><trkpt lat="39.988209" lon="8.4113164"><ele>12.0</ele><time>2026-05-02T09:27:00.534Z</time></trkpt><trkpt lat="39.9882937" lon="8.4112845"><ele>12.0</ele><time>2026-05-02T09:27:01.535Z</time></trkpt><trkpt lat="39.9883764" lon="8.4112445"><ele>12.166666666666666</ele><time>2026-05-02T09:27:02.535Z</time></trkpt><trkpt lat="39.9884573" lon="8.411201"><ele>12.333333333333332</ele><time>2026-05-02T09:27:03.535Z</time></trkpt><trkpt lat="39.9885408" lon="8.411162"><ele>12.5</ele><time>2026-05-02T09:27:04.535Z</time></trkpt><trkpt lat="39.9886252" lon="8.4111219"><ele>12.666666666666666</ele><time>2026-05-02T09:27:05.535Z</time></trkpt><trkpt lat="39.9887106" lon="8.4110825"><ele>12.833333333333332</ele><time>2026-05-02T09:27:06.535Z</time></trkpt><trkpt lat="39.9887958" lon="8.4110452"><ele>13.0</ele><time>2026-05-02T09:27:07.535Z</time></trkpt><trkpt lat="39.9888783" lon="8.411007"><ele>12.999999999999998</ele><time>2026-05-02T09:27:08.535Z</time></trkpt><trkpt lat="39.9889599" lon="8.4109698"><ele>13.0</ele><time>2026-05-02T09:27:09.535Z</time></trkpt><trkpt lat="39.9890442" lon="8.410931"><ele>13.0</ele><time>2026-05-02T09:27:10.536Z</time></trkpt><trkpt lat="39.9891298" lon="8.4108949"><ele>13.0</ele><time>2026-05-02T09:27:11.535Z</time></trkpt><trkpt lat="39.9892126" lon="8.410866"><ele>12.999999999999998</ele><time>2026-05-02T09:27:12.536Z</time></trkpt><trkpt lat="39.9892948" lon="8.4108353"><ele>13.0</ele><time>2026-05-02T09:27:13.535Z</time></trkpt><trkpt lat="39.9893766" lon="8.4108061"><ele>12.833333333333332</ele><time>2026-05-02T09:27:14.535Z</time></trkpt><trkpt lat="39.9894568" lon="8.4107689"><ele>12.666666666666666</ele><time>2026-05-02T09:27:15.536Z</time></trkpt><trkpt lat="39.9895344" lon="8.4107259"><ele>12.5</ele><time>2026-05-02T09:27:16.535Z</time></trkpt><trkpt lat="39.9896112" lon="8.4106847"><ele>12.333333333333332</ele><time>2026-05-02T09:27:17.534Z</time></trkpt><trkpt lat="39.9896863" lon="8.4106473"><ele>12.166666666666666</ele><time>2026-05-02T09:27:18.535Z</time></trkpt><trkpt lat="39.9897614" lon="8.4106145"><ele>12.0</ele><time>2026-05-02T09:27:19.535Z</time></trkpt><trkpt lat="39.9898292" lon="8.4105852"><ele>11.999999999999998</ele><time>2026-05-02T09:27:20.536Z</time></trkpt><trkpt lat="39.9898975" lon="8.4105561"><ele>12.0</ele><time>2026-05-02T09:27:21.535Z</time></trkpt><trkpt lat="39.9899681" lon="8.4105314"><ele>12.0</ele><time>2026-05-02T09:27:22.534Z</time></trkpt><trkpt lat="39.9900375" lon="8.4105063"><ele>12.0</ele><time>2026-05-02T09:27:23.536Z</time></trkpt><trkpt lat="39.9901079" lon="8.4104854"><ele>12.0</ele><time>2026-05-02T09:27:24.535Z</time></trkpt><trkpt lat="39.9901765" lon="8.4104702"><ele>11.999999999999998</ele><time>2026-05-02T09:27:25.534Z</time></trkpt><trkpt lat="39.9902461" lon="8.4104603"><ele>12.0</ele><time>2026-05-02T09:27:26.534Z</time></trkpt><trkpt lat="39.9903161" lon="8.41045"><ele>11.5</ele><time>2026-05-02T09:27:27.535Z</time></trkpt><trkpt lat="39.990384" lon="8.4104385"><ele>11.0</ele><time>2026-05-02T09:27:28.534Z</time></trkpt><trkpt lat="39.9904601" lon="8.4104188"><ele>10.5</ele><time>2026-05-02T09:27:30.535Z</time></trkpt><trkpt lat="39.990531" lon="8.4104247"><ele>10.0</ele><time>2026-05-02T09:28:02.536Z</time></trkpt><trkpt lat="39.9904539" lon="8.4104141"><ele>9.5</ele><time>2026-05-02T09:28:08.535Z</time></trkpt><trkpt lat="39.9903262" lon="8.410435"><ele>9.0</ele><time>2026-05-02T09:28:10.535Z</time></trkpt><trkpt lat="39.9902579" lon="8.4104451"><ele>9.0</ele><time>2026-05-02T09:28:11.535Z</time></trkpt><trkpt lat="39.9901885" lon="8.4104524"><ele>9.0</ele><time>2026-05-02T09:28:12.534Z</time></trkpt><trkpt lat="39.990122" lon="8.4104684"><ele>9.0</ele><time>2026-05-02T09:28:13.534Z</time></trkpt><trkpt lat="39.9900103" lon="8.4104934"><ele>9.0</ele><time>2026-05-02T09:28:15.541Z</time></trkpt><trkpt lat="39.9899165" lon="8.4105194"><ele>9.0</ele><time>2026-05-02T09:28:17.536Z</time></trkpt><trkpt lat="39.9898377" lon="8.4105529"><ele>9.0</ele><time>2026-05-02T09:28:19.536Z</time></trkpt><trkpt lat="39.9899467" lon="8.410528"><ele>9.0</ele><time>2026-05-02T09:28:36.534Z</time></trkpt><trkpt lat="39.9900146" lon="8.410511"><ele>9.0</ele><time>2026-05-02T09:28:37.536Z</time></trkpt><trkpt lat="39.9900837" lon="8.4104894"><ele>9.0</ele><time>2026-05-02T09:28:38.534Z</time></trkpt><trkpt lat="39.9901581" lon="8.4104767"><ele>9.0</ele><time>2026-05-02T09:28:39.536Z</time></trkpt><trkpt lat="39.9902283" lon="8.4104634"><ele>9.0</ele><time>2026-05-02T09:28:40.534Z</time></trkpt><trkpt lat="39.9903422" lon="8.4104253"><ele>9.0</ele><time>2026-05-02T09:28:42.535Z</time></trkpt><trkpt lat="39.9904186" lon="8.410409"><ele>9.0</ele><time>2026-05-02T09:28:44.535Z</time></trkpt><trkpt lat="39.9904907" lon="8.4104043"><ele>9.0</ele><time>2026-05-02T09:29:15.534Z</time></trkpt><trkpt lat="39.9905873" lon="8.4104537"><ele>9.0</ele><time>2026-05-02T09:29:17.535Z</time></trkpt><trkpt lat="39.9906848" lon="8.4105369"><ele>9.0</ele><time>2026-05-02T09:29:19.535Z</time></trkpt><trkpt lat="39.9907965" lon="8.4106113"><ele>9.0</ele><time>2026-05-02T09:29:21.534Z</time></trkpt><trkpt lat="39.9908585" lon="8.4106486"><ele>9.428571428571429</ele><time>2026-05-02T09:29:22.536Z</time></trkpt><trkpt lat="39.9909205" lon="8.4106859"><ele>9.857142857142858</ele><time>2026-05-02T09:29:23.535Z</time></trkpt><trkpt lat="39.9909832" lon="8.4107126"><ele>10.285714285714285</ele><time>2026-05-02T09:29:24.535Z</time></trkpt><trkpt lat="39.9910473" lon="8.4107544"><ele>10.714285714285715</ele><time>2026-05-02T09:29:25.535Z</time></trkpt><trkpt lat="39.9911104" lon="8.410792"><ele>11.142857142857142</ele><time>2026-05-02T09:29:26.535Z</time></trkpt><trkpt lat="39.9911752" lon="8.4108262"><ele>11.571428571428571</ele><time>2026-05-02T09:29:27.535Z</time></trkpt><trkpt lat="39.9912429" lon="8.4108595"><ele>12.0</ele><time>2026-05-02T09:29:28.535Z</time></trkpt><trkpt lat="39.9913456" lon="8.4109036"><ele>12.0</ele><time>2026-05-02T09:29:30.535Z</time></trkpt><trkpt lat="39.9914269" lon="8.4109717"><ele>12.0</ele><time>2026-05-02T09:29:32.534Z</time></trkpt><trkpt lat="39.9914876" lon="8.4110537"><ele>12.0</ele><time>2026-05-02T09:29:34.534Z</time></trkpt><trkpt lat="39.9915439" lon="8.4111568"><ele>12.0</ele><time>2026-05-02T09:29:36.534Z</time></trkpt><trkpt lat="39.9915952" lon="8.4112535"><ele>12.0</ele><time>2026-05-02T09:29:38.535Z</time></trkpt><trkpt lat="39.9916585" lon="8.4113633"><ele>11.8</ele><time>2026-05-02T09:29:41.537Z</time></trkpt><trkpt lat="39.9917148" lon="8.4114572"><ele>11.6</ele><time>2026-05-02T09:29:43.535Z</time></trkpt><trkpt lat="39.9917566" lon="8.4115853"><ele>11.4</ele><time>2026-05-02T09:29:45.535Z</time></trkpt><trkpt lat="39.9917948" lon="8.4117034"><ele>11.200000000000001</ele><time>2026-05-02T09:29:47.534Z</time></trkpt><trkpt lat="39.9918342" lon="8.4118049"><ele>11.0</ele><time>2026-05-02T09:29:49.535Z</time></trkpt><trkpt lat="39.9918573" lon="8.4119104"><ele>11.0</ele><time>2026-05-02T09:29:51.535Z</time></trkpt><trkpt lat="39.9917791" lon="8.4120066"><ele>11.0</ele><time>2026-05-02T09:31:15.534Z</time></trkpt><trkpt lat="39.9916654" lon="8.4120916"><ele>11.0</ele><time>2026-05-02T09:31:17.536Z</time></trkpt><trkpt lat="39.9916045" lon="8.412128"><ele>11.0</ele><time>2026-05-02T09:31:18.534Z</time></trkpt><trkpt lat="39.9915456" lon="8.4121696"><ele>11.0</ele><time>2026-05-02T09:31:19.534Z</time></trkpt><trkpt lat="39.9914851" lon="8.4122096"><ele>11.0</ele><time>2026-05-02T09:31:20.535Z</time></trkpt><trkpt lat="39.9914207" lon="8.4122503"><ele>11.0</ele><time>2026-05-02T09:31:21.534Z</time></trkpt><trkpt lat="39.9913276" lon="8.4123201"><ele>11.0</ele><time>2026-05-02T09:31:23.536Z</time></trkpt><trkpt lat="39.9912789" lon="8.412413"><ele>11.0</ele><time>2026-05-02T09:31:25.535Z</time></trkpt><trkpt lat="39.9912611" lon="8.412558"><ele>11.0</ele><time>2026-05-02T09:31:27.535Z</time></trkpt><trkpt lat="39.991246" lon="8.4126509"><ele>11.0</ele><time>2026-05-02T09:31:28.534Z</time></trkpt><trkpt lat="39.9912253" lon="8.4127571"><ele>11.0</ele><time>2026-05-02T09:31:29.534Z</time></trkpt><trkpt lat="39.9911973" lon="8.4128705"><ele>11.0</ele><time>2026-05-02T09:31:30.535Z</time></trkpt><trkpt lat="39.9911662" lon="8.4129866"><ele>11.0</ele><time>2026-05-02T09:31:31.536Z</time></trkpt><trkpt lat="39.991129" lon="8.4131106"><ele>11.0</ele><time>2026-05-02T09:31:32.535Z</time></trkpt><trkpt lat="39.9910918" lon="8.4132291"><ele>11.0</ele><time>2026-05-02T09:31:33.535Z</time></trkpt><trkpt lat="39.9910589" lon="8.4133365"><ele>10.666666666666666</ele><time>2026-05-02T09:31:34.536Z</time></trkpt><trkpt lat="39.9910304" lon="8.4134272"><ele>10.333333333333332</ele><time>2026-05-02T09:31:35.534Z</time></trkpt><trkpt lat="39.9910008" lon="8.4135214"><ele>10.0</ele><time>2026-05-02T09:31:36.535Z</time></trkpt><trkpt lat="39.9909702" lon="8.4136287"><ele>9.666666666666666</ele><time>2026-05-02T09:31:37.535Z</time></trkpt><trkpt lat="39.9909425" lon="8.4137398"><ele>9.333333333333334</ele><time>2026-05-02T09:31:38.535Z</time></trkpt><trkpt lat="39.9909149" lon="8.4138421"><ele>9.0</ele><time>2026-05-02T09:31:39.535Z</time></trkpt><trkpt lat="39.9908873" lon="8.4139339"><ele>8.833333333333334</ele><time>2026-05-02T09:31:40.535Z</time></trkpt><trkpt lat="39.9908345" lon="8.4140805"><ele>8.666666666666666</ele><time>2026-05-02T09:31:42.535Z</time></trkpt><trkpt lat="39.9908021" lon="8.4141562"><ele>8.5</ele><time>2026-05-02T09:31:43.536Z</time></trkpt><trkpt lat="39.9907741" lon="8.4142412"><ele>8.333333333333332</ele><time>2026-05-02T09:31:44.535Z</time></trkpt><trkpt lat="39.9907504" lon="8.4143401"><ele>8.166666666666666</ele><time>2026-05-02T09:31:45.534Z</time></trkpt><trkpt lat="39.9907211" lon="8.4144422"><ele>8.0</ele><time>2026-05-02T09:31:46.534Z</time></trkpt><trkpt lat="39.9906887" lon="8.4145413"><ele>7.999999999999999</ele><time>2026-05-02T09:31:47.534Z</time></trkpt><trkpt lat="39.9906534" lon="8.4146421"><ele>8.0</ele><time>2026-05-02T09:31:48.534Z</time></trkpt><trkpt lat="39.990614" lon="8.4147419"><ele>8.0</ele><time>2026-05-02T09:31:49.535Z</time></trkpt><trkpt lat="39.9905735" lon="8.4148423"><ele>8.0</ele><time>2026-05-02T09:31:50.534Z</time></trkpt><trkpt lat="39.9905342" lon="8.414941"><ele>7.999999999999999</ele><time>2026-05-02T09:31:51.536Z</time></trkpt><trkpt lat="39.9904923" lon="8.4150433"><ele>8.0</ele><time>2026-05-02T09:31:52.535Z</time></trkpt><trkpt lat="39.9904507" lon="8.4151389"><ele>8.333333333333332</ele><time>2026-05-02T09:31:53.535Z</time></trkpt><trkpt lat="39.9904022" lon="8.4152338"><ele>8.666666666666666</ele><time>2026-05-02T09:31:54.533Z</time></trkpt><trkpt lat="39.9903525" lon="8.4153336"><ele>9.0</ele><time>2026-05-02T09:31:55.534Z</time></trkpt><trkpt lat="39.9903044" lon="8.4154363"><ele>9.333333333333334</ele><time>2026-05-02T09:31:56.535Z</time></trkpt><trkpt lat="39.9902612" lon="8.4155329"><ele>9.666666666666668</ele><time>2026-05-02T09:31:57.535Z</time></trkpt><trkpt lat="39.9902143" lon="8.4156324"><ele>10.0</ele><time>2026-05-02T09:31:58.535Z</time></trkpt><trkpt lat="39.9901668" lon="8.4157317"><ele>10.0</ele><time>2026-05-02T09:31:59.534Z</time></trkpt><trkpt lat="39.990124" lon="8.415825"><ele>10.0</ele><time>2026-05-02T09:32:00.535Z</time></trkpt><trkpt lat="39.9900855" lon="8.4159064"><ele>10.0</ele><time>2026-05-02T09:32:01.534Z</time></trkpt><trkpt lat="39.9900244" lon="8.4160468"><ele>10.0</ele><time>2026-05-02T09:32:03.534Z</time></trkpt><trkpt lat="39.9899545" lon="8.4161968"><ele>10.0</ele><time>2026-05-02T09:32:05.533Z</time></trkpt><trkpt lat="39.9899144" lon="8.4162848"><ele>9.833333333333334</ele><time>2026-05-02T09:32:06.533Z</time></trkpt><trkpt lat="39.9898709" lon="8.416378"><ele>9.666666666666668</ele><time>2026-05-02T09:32:07.535Z</time></trkpt><trkpt lat="39.989827" lon="8.4164775"><ele>9.5</ele><time>2026-05-02T09:32:08.534Z</time></trkpt><trkpt lat="39.9897862" lon="8.4165743"><ele>9.333333333333334</ele><time>2026-05-02T09:32:09.534Z</time></trkpt><trkpt lat="39.9897317" lon="8.4166619"><ele>9.166666666666666</ele><time>2026-05-02T09:32:10.533Z</time></trkpt><trkpt lat="39.9896677" lon="8.4167264"><ele>9.0</ele><time>2026-05-02T09:32:11.535Z</time></trkpt><trkpt lat="39.9896113" lon="8.4167706"><ele>9.0</ele><time>2026-05-02T09:32:12.535Z</time></trkpt><trkpt lat="39.9895196" lon="8.4168605"><ele>9.0</ele><time>2026-05-02T09:32:14.535Z</time></trkpt><trkpt lat="39.9894721" lon="8.4169382"><ele>9.0</ele><time>2026-05-02T09:32:15.534Z</time></trkpt><trkpt lat="39.9894249" lon="8.4170229"><ele>9.0</ele><time>2026-05-02T09:32:16.535Z</time></trkpt><trkpt lat="39.9893896" lon="8.4171182"><ele>9.0</ele><time>2026-05-02T09:32:17.534Z</time></trkpt><trkpt lat="39.9893634" lon="8.4171936"><ele>9.0</ele><time>2026-05-02T09:32:18.534Z</time></trkpt><trkpt lat="39.9893319" lon="8.4172688"><ele>9.0</ele><time>2026-05-02T09:32:19.533Z</time></trkpt><trkpt lat="39.9892898" lon="8.4173458"><ele>9.0</ele><time>2026-05-02T09:32:20.534Z</time></trkpt><trkpt lat="39.9892376" lon="8.4174064"><ele>9.0</ele><time>2026-05-02T09:32:21.534Z</time></trkpt><trkpt lat="39.9891868" lon="8.4174658"><ele>9.0</ele><time>2026-05-02T09:32:22.533Z</time></trkpt><trkpt lat="39.9891473" lon="8.4175376"><ele>9.0</ele><time>2026-05-02T09:32:23.534Z</time></trkpt><trkpt lat="39.9891088" lon="8.4176862"><ele>9.0</ele><time>2026-05-02T09:32:25.534Z</time></trkpt><trkpt lat="39.9890485" lon="8.4177736"><ele>8.8</ele><time>2026-05-02T09:32:27.533Z</time></trkpt><trkpt lat="39.9889433" lon="8.4178218"><ele>8.600000000000001</ele><time>2026-05-02T09:32:29.533Z</time></trkpt><trkpt lat="39.9888318" lon="8.4179425"><ele>8.4</ele><time>2026-05-02T09:32:31.534Z</time></trkpt><trkpt lat="39.9887779" lon="8.4180318"><ele>8.200000000000001</ele><time>2026-05-02T09:32:32.534Z</time></trkpt><trkpt lat="39.9887315" lon="8.4181226"><ele>8.0</ele><time>2026-05-02T09:32:33.534Z</time></trkpt><trkpt lat="39.9886798" lon="8.4181994"><ele>7.800000000000001</ele><time>2026-05-02T09:32:34.534Z</time></trkpt><trkpt lat="39.9886127" lon="8.4182516"><ele>7.6000000000000005</ele><time>2026-05-02T09:32:35.535Z</time></trkpt><trkpt lat="39.9885275" lon="8.4183094"><ele>7.3999999999999995</ele><time>2026-05-02T09:32:36.534Z</time></trkpt><trkpt lat="39.9884482" lon="8.4183708"><ele>7.199999999999999</ele><time>2026-05-02T09:32:37.534Z</time></trkpt><trkpt lat="39.9883706" lon="8.4184335"><ele>7.0</ele><time>2026-05-02T09:32:38.535Z</time></trkpt><trkpt lat="39.9882877" lon="8.418494"><ele>7.333333333333334</ele><time>2026-05-02T09:32:39.534Z</time></trkpt><trkpt lat="39.9882219" lon="8.4185574"><ele>7.666666666666667</ele><time>2026-05-02T09:32:40.533Z</time></trkpt><trkpt lat="39.9881713" lon="8.418629"><ele>8.0</ele><time>2026-05-02T09:32:41.534Z</time></trkpt><trkpt lat="39.9881191" lon="8.4186806"><ele>8.333333333333334</ele><time>2026-05-02T09:32:42.533Z</time></trkpt><trkpt lat="39.988052" lon="8.4187097"><ele>8.666666666666666</ele><time>2026-05-02T09:32:43.534Z</time></trkpt><trkpt lat="39.9879734" lon="8.4187403"><ele>9.0</ele><time>2026-05-02T09:32:44.534Z</time></trkpt><trkpt lat="39.9878946" lon="8.4187799"><ele>8.833333333333334</ele><time>2026-05-02T09:32:45.535Z</time></trkpt><trkpt lat="39.9878186" lon="8.4188238"><ele>8.666666666666666</ele><time>2026-05-02T09:32:46.535Z</time></trkpt><trkpt lat="39.987742" lon="8.4188784"><ele>8.5</ele><time>2026-05-02T09:32:47.535Z</time></trkpt><trkpt lat="39.9876671" lon="8.4189516"><ele>8.333333333333332</ele><time>2026-05-02T09:32:48.535Z</time></trkpt><trkpt lat="39.9875941" lon="8.4190168"><ele>8.166666666666666</ele><time>2026-05-02T09:32:49.533Z</time></trkpt><trkpt lat="39.9875254" lon="8.4190909"><ele>8.0</ele><time>2026-05-02T09:32:50.533Z</time></trkpt><trkpt lat="39.9874652" lon="8.4191784"><ele>7.999999999999999</ele><time>2026-05-02T09:32:51.533Z</time></trkpt><trkpt lat="39.9874037" lon="8.4192513"><ele>8.0</ele><time>2026-05-02T09:32:52.534Z</time></trkpt><trkpt lat="39.9873492" lon="8.419307"><ele>8.0</ele><time>2026-05-02T09:32:53.535Z</time></trkpt><trkpt lat="39.9873033" lon="8.4194011"><ele>8.0</ele><time>2026-05-02T09:32:55.534Z</time></trkpt><trkpt lat="39.9873175" lon="8.4194884"><ele>7.999999999999999</ele><time>2026-05-02T09:32:57.534Z</time></trkpt><trkpt lat="39.9873805" lon="8.4196293"><ele>8.0</ele><time>2026-05-02T09:32:59.534Z</time></trkpt><trkpt lat="39.9874225" lon="8.4197147"><ele>8.200000000000001</ele><time>2026-05-02T09:33:00.534Z</time></trkpt><trkpt lat="39.9874688" lon="8.4198165"><ele>8.4</ele><time>2026-05-02T09:33:01.534Z</time></trkpt><trkpt lat="39.9875202" lon="8.4199189"><ele>8.600000000000001</ele><time>2026-05-02T09:33:02.534Z</time></trkpt><trkpt lat="39.9875806" lon="8.4200303"><ele>8.8</ele><time>2026-05-02T09:33:03.533Z</time></trkpt><trkpt lat="39.9876413" lon="8.4201452"><ele>9.0</ele><time>2026-05-02T09:33:04.535Z</time></trkpt><trkpt lat="39.9877045" lon="8.4202661"><ele>8.5</ele><time>2026-05-02T09:33:05.534Z</time></trkpt><trkpt lat="39.9877678" lon="8.4203915"><ele>8.0</ele><time>2026-05-02T09:33:06.533Z</time></trkpt><trkpt lat="39.9878323" lon="8.4205125"><ele>7.5</ele><time>2026-05-02T09:33:07.534Z</time></trkpt><trkpt lat="39.9878953" lon="8.4206367"><ele>7.0</ele><time>2026-05-02T09:33:08.534Z</time></trkpt><trkpt lat="39.9879546" lon="8.4207629"><ele>7.0</ele><time>2026-05-02T09:33:09.534Z</time></trkpt><trkpt lat="39.9880077" lon="8.4208894"><ele>6.999999999999999</ele><time>2026-05-02T09:33:10.534Z</time></trkpt><trkpt lat="39.9880517" lon="8.4210207"><ele>6.999999999999999</ele><time>2026-05-02T09:33:11.534Z</time></trkpt><trkpt lat="39.9880821" lon="8.4211543"><ele>7.0</ele><time>2026-05-02T09:33:12.534Z</time></trkpt><trkpt lat="39.9881106" lon="8.4212847"><ele>7.0</ele><time>2026-05-02T09:33:13.533Z</time></trkpt><trkpt lat="39.9881463" lon="8.4214019"><ele>7.0</ele><time>2026-05-02T09:33:14.534Z</time></trkpt><trkpt lat="39.9881729" lon="8.4215077"><ele>6.999999999999999</ele><time>2026-05-02T09:33:15.534Z</time></trkpt><trkpt lat="39.9881535" lon="8.421669"><ele>6.999999999999999</ele><time>2026-05-02T09:33:17.534Z</time></trkpt><trkpt lat="39.9881077" lon="8.4217615"><ele>7.0</ele><time>2026-05-02T09:33:18.533Z</time></trkpt><trkpt lat="39.988047" lon="8.4218548"><ele>7.0</ele><time>2026-05-02T09:33:19.534Z</time></trkpt><trkpt lat="39.9879777" lon="8.4219545"><ele>7.000000000000001</ele><time>2026-05-02T09:33:20.534Z</time></trkpt><trkpt lat="39.9879059" lon="8.4220367"><ele>7.0</ele><time>2026-05-02T09:33:21.534Z</time></trkpt><trkpt lat="39.9878261" lon="8.4220979"><ele>7.0</ele><time>2026-05-02T09:33:22.535Z</time></trkpt><trkpt lat="39.9877516" lon="8.4221404"><ele>7.0</ele><time>2026-05-02T09:33:23.535Z</time></trkpt><trkpt lat="39.9876863" lon="8.422211"><ele>7.000000000000001</ele><time>2026-05-02T09:33:24.534Z</time></trkpt><trkpt lat="39.9876431" lon="8.422313"><ele>7.0</ele><time>2026-05-02T09:33:25.535Z</time></trkpt><trkpt lat="39.9875966" lon="8.4224126"><ele>7.0</ele><time>2026-05-02T09:33:26.534Z</time></trkpt><trkpt lat="39.9875289" lon="8.4224794"><ele>6.999999999999999</ele><time>2026-05-02T09:33:27.534Z</time></trkpt><trkpt lat="39.9874503" lon="8.4225291"><ele>6.999999999999999</ele><time>2026-05-02T09:33:28.534Z</time></trkpt><trkpt lat="39.9873635" lon="8.4225802"><ele>7.0</ele><time>2026-05-02T09:33:29.534Z</time></trkpt><trkpt lat="39.9872946" lon="8.4226605"><ele>7.0</ele><time>2026-05-02T09:33:30.533Z</time></trkpt><trkpt lat="39.98723" lon="8.4227631"><ele>7.0</ele><time>2026-05-02T09:33:31.533Z</time></trkpt><trkpt lat="39.9871493" lon="8.4228592"><ele>6.999999999999999</ele><time>2026-05-02T09:33:32.534Z</time></trkpt><trkpt lat="39.9870544" lon="8.4229428"><ele>6.999999999999999</ele><time>2026-05-02T09:33:33.533Z</time></trkpt><trkpt lat="39.986958" lon="8.423019"><ele>7.0</ele><time>2026-05-02T09:33:34.534Z</time></trkpt><trkpt lat="39.9868676" lon="8.423102"><ele>7.0</ele><time>2026-05-02T09:33:35.534Z</time></trkpt><trkpt lat="39.9867854" lon="8.4232048"><ele>6.8</ele><time>2026-05-02T09:33:36.534Z</time></trkpt><trkpt lat="39.9867041" lon="8.4233205"><ele>6.6</ele><time>2026-05-02T09:33:37.533Z</time></trkpt><trkpt lat="39.9866414" lon="8.4234239"><ele>6.3999999999999995</ele><time>2026-05-02T09:33:38.533Z</time></trkpt><trkpt lat="39.9865768" lon="8.4235157"><ele>6.199999999999999</ele><time>2026-05-02T09:33:39.534Z</time></trkpt><trkpt lat="39.9865049" lon="8.4235929"><ele>6.0</ele><time>2026-05-02T09:33:40.533Z</time></trkpt><trkpt lat="39.9864491" lon="8.4236686"><ele>6.199999999999999</ele><time>2026-05-02T09:33:41.533Z</time></trkpt><trkpt lat="39.986422" lon="8.4237482"><ele>6.3999999999999995</ele><time>2026-05-02T09:33:42.533Z</time></trkpt><trkpt lat="39.9864485" lon="8.4239227"><ele>6.6</ele><time>2026-05-02T09:33:44.533Z</time></trkpt><trkpt lat="39.9864951" lon="8.424032"><ele>6.8</ele><time>2026-05-02T09:33:45.534Z</time></trkpt><trkpt lat="39.9865448" lon="8.4241454"><ele>7.0</ele><time>2026-05-02T09:33:46.533Z</time></trkpt><trkpt lat="39.9865906" lon="8.4242721"><ele>7.0</ele><time>2026-05-02T09:33:47.533Z</time></trkpt><trkpt lat="39.9866447" lon="8.4244064"><ele>6.999999999999999</ele><time>2026-05-02T09:33:48.534Z</time></trkpt><trkpt lat="39.9866986" lon="8.4245361"><ele>6.999999999999999</ele><time>2026-05-02T09:33:49.535Z</time></trkpt><trkpt lat="39.986747" lon="8.4246645"><ele>7.0</ele><time>2026-05-02T09:33:50.535Z</time></trkpt><trkpt lat="39.9867899" lon="8.4247798"><ele>7.0</ele><time>2026-05-02T09:33:51.534Z</time></trkpt><trkpt lat="39.9868288" lon="8.4248845"><ele>7.0</ele><time>2026-05-02T09:33:52.535Z</time></trkpt><trkpt lat="39.9868735" lon="8.4250063"><ele>6.999999999999999</ele><time>2026-05-02T09:33:53.533Z</time></trkpt><trkpt lat="39.9869189" lon="8.4251361"><ele>6.999999999999999</ele><time>2026-05-02T09:33:54.535Z</time></trkpt><trkpt lat="39.9869685" lon="8.4252658"><ele>7.0</ele><time>2026-05-02T09:33:55.535Z</time></trkpt><trkpt lat="39.9870141" lon="8.4253974"><ele>7.0</ele><time>2026-05-02T09:33:56.534Z</time></trkpt><trkpt lat="39.9870548" lon="8.4255332"><ele>7.0</ele><time>2026-05-02T09:33:57.534Z</time></trkpt><trkpt lat="39.9870965" lon="8.4256721"><ele>6.999999999999999</ele><time>2026-05-02T09:33:58.535Z</time></trkpt><trkpt lat="39.9871346" lon="8.4258125"><ele>6.999999999999999</ele><time>2026-05-02T09:33:59.534Z</time></trkpt><trkpt lat="39.9871746" lon="8.4259413"><ele>7.0</ele><time>2026-05-02T09:34:00.534Z</time></trkpt><trkpt lat="39.9872062" lon="8.426056"><ele>7.0</ele><time>2026-05-02T09:34:01.534Z</time></trkpt><trkpt lat="39.9872404" lon="8.4261687"><ele>7.0</ele><time>2026-05-02T09:34:02.533Z</time></trkpt><trkpt lat="39.9872759" lon="8.426287"><ele>6.999999999999999</ele><time>2026-05-02T09:34:03.534Z</time></trkpt><trkpt lat="39.9873195" lon="8.4264062"><ele>6.999999999999999</ele><time>2026-05-02T09:34:04.534Z</time></trkpt><trkpt lat="39.9873728" lon="8.4265205"><ele>7.0</ele><time>2026-05-02T09:34:05.535Z</time></trkpt><trkpt lat="39.987432" lon="8.4266335"><ele>7.0</ele><time>2026-05-02T09:34:06.534Z</time></trkpt><trkpt lat="39.9874939" lon="8.4267493"><ele>6.8</ele><time>2026-05-02T09:34:07.534Z</time></trkpt><trkpt lat="39.9875557" lon="8.4268662"><ele>6.6</ele><time>2026-05-02T09:34:08.534Z</time></trkpt><trkpt lat="39.9876078" lon="8.4269872"><ele>6.3999999999999995</ele><time>2026-05-02T09:34:09.533Z</time></trkpt><trkpt lat="39.9876467" lon="8.4271011"><ele>6.199999999999999</ele><time>2026-05-02T09:34:10.534Z</time></trkpt><trkpt lat="39.9876749" lon="8.427216"><ele>6.0</ele><time>2026-05-02T09:34:11.534Z</time></trkpt><trkpt lat="39.9876948" lon="8.4273457"><ele>5.6</ele><time>2026-05-02T09:34:12.535Z</time></trkpt><trkpt lat="39.9877099" lon="8.4274793"><ele>5.199999999999999</ele><time>2026-05-02T09:34:13.534Z</time></trkpt><trkpt lat="39.9877274" lon="8.4276111"><ele>4.800000000000001</ele><time>2026-05-02T09:34:14.533Z</time></trkpt><trkpt lat="39.9877465" lon="8.4277491"><ele>4.4</ele><time>2026-05-02T09:34:15.534Z</time></trkpt><trkpt lat="39.9877735" lon="8.4278866"><ele>4.0</ele><time>2026-05-02T09:34:16.533Z</time></trkpt><trkpt lat="39.9877995" lon="8.4280229"><ele>4.0</ele><time>2026-05-02T09:34:17.533Z</time></trkpt><trkpt lat="39.9878182" lon="8.4281623"><ele>4.0</ele><time>2026-05-02T09:34:18.533Z</time></trkpt><trkpt lat="39.9878354" lon="8.428303"><ele>4.0</ele><time>2026-05-02T09:34:19.534Z</time></trkpt><trkpt lat="39.9878598" lon="8.4284376"><ele>4.0</ele><time>2026-05-02T09:34:20.535Z</time></trkpt><trkpt lat="39.9878989" lon="8.4285572"><ele>4.0</ele><time>2026-05-02T09:34:21.534Z</time></trkpt><trkpt lat="39.9879533" lon="8.4286695"><ele>3.9999999999999996</ele><time>2026-05-02T09:34:22.534Z</time></trkpt><trkpt lat="39.9880123" lon="8.4287793"><ele>4.0</ele><time>2026-05-02T09:34:23.535Z</time></trkpt><trkpt lat="39.9880717" lon="8.42888"><ele>4.0</ele><time>2026-05-02T09:34:24.534Z</time></trkpt><trkpt lat="39.988122" lon="8.4289632"><ele>4.0</ele><time>2026-05-02T09:34:25.534Z</time></trkpt><trkpt lat="39.9881713" lon="8.4290514"><ele>3.9999999999999996</ele><time>2026-05-02T09:34:26.533Z</time></trkpt><trkpt lat="39.9882071" lon="8.4291481"><ele>4.0</ele><time>2026-05-02T09:34:27.533Z</time></trkpt><trkpt lat="39.988232" lon="8.4292575"><ele>4.2</ele><time>2026-05-02T09:34:28.534Z</time></trkpt><trkpt lat="39.9882575" lon="8.4293766"><ele>4.4</ele><time>2026-05-02T09:34:29.533Z</time></trkpt><trkpt lat="39.9882969" lon="8.4294918"><ele>4.6</ele><time>2026-05-02T09:34:30.533Z</time></trkpt><trkpt lat="39.9883466" lon="8.429606"><ele>4.8</ele><time>2026-05-02T09:34:31.534Z</time></trkpt><trkpt lat="39.9883919" lon="8.4297244"><ele>5.0</ele><time>2026-05-02T09:34:32.534Z</time></trkpt><trkpt lat="39.9884398" lon="8.4298393"><ele>5.0</ele><time>2026-05-02T09:34:33.535Z</time></trkpt><trkpt lat="39.9884924" lon="8.4299475"><ele>5.0</ele><time>2026-05-02T09:34:34.533Z</time></trkpt><trkpt lat="39.9885489" lon="8.4300421"><ele>5.0</ele><time>2026-05-02T09:34:35.533Z</time></trkpt><trkpt lat="39.9886097" lon="8.4301047"><ele>5.0</ele><time>2026-05-02T09:34:36.535Z</time></trkpt><trkpt lat="39.9886658" lon="8.4301437"><ele>5.0</ele><time>2026-05-02T09:34:37.535Z</time></trkpt><trkpt lat="39.9887369" lon="8.4301664"><ele>5.0</ele><time>2026-05-02T09:34:39.534Z</time></trkpt><trkpt lat="39.9888089" lon="8.4301256"><ele>5.0</ele><time>2026-05-02T09:34:41.534Z</time></trkpt><trkpt lat="39.9888436" lon="8.4299818"><ele>5.0</ele><time>2026-05-02T09:34:43.535Z</time></trkpt><trkpt lat="39.9888643" lon="8.429874"><ele>5.0</ele><time>2026-05-02T09:34:44.534Z</time></trkpt><trkpt lat="39.9888858" lon="8.4297632"><ele>5.0</ele><time>2026-05-02T09:34:45.534Z</time></trkpt><trkpt lat="39.988921" lon="8.4296408"><ele>5.0</ele><time>2026-05-02T09:34:46.535Z</time></trkpt><trkpt lat="39.9889648" lon="8.4295155"><ele>5.0</ele><time>2026-05-02T09:34:47.535Z</time></trkpt><trkpt lat="39.9890123" lon="8.4293886"><ele>5.0</ele><time>2026-05-02T09:34:48.534Z</time></trkpt><trkpt lat="39.9890737" lon="8.4292605"><ele>5.0</ele><time>2026-05-02T09:34:49.533Z</time></trkpt><trkpt lat="39.9891412" lon="8.4291325"><ele>5.0</ele><time>2026-05-02T09:34:50.535Z</time></trkpt><trkpt lat="39.9892167" lon="8.4290036"><ele>5.0</ele><time>2026-05-02T09:34:51.533Z</time></trkpt><trkpt lat="39.9892922" lon="8.4288792"><ele>5.0</ele><time>2026-05-02T09:34:52.534Z</time></trkpt><trkpt lat="39.9893666" lon="8.4287534"><ele>5.0</ele><time>2026-05-02T09:34:53.535Z</time></trkpt><trkpt lat="39.9894437" lon="8.4286251"><ele>5.0</ele><time>2026-05-02T09:34:54.535Z</time></trkpt><trkpt lat="39.9895228" lon="8.4284949"><ele>5.0</ele><time>2026-05-02T09:34:55.533Z</time></trkpt><trkpt lat="39.989603" lon="8.4283621"><ele>5.0</ele><time>2026-05-02T09:34:56.535Z</time></trkpt><trkpt lat="39.9896842" lon="8.4282271"><ele>5.0</ele><time>2026-05-02T09:34:57.535Z</time></trkpt><trkpt lat="39.9897671" lon="8.4280911"><ele>5.0</ele><time>2026-05-02T09:34:58.534Z</time></trkpt><trkpt lat="39.9898502" lon="8.4279557"><ele>4.75</ele><time>2026-05-02T09:34:59.533Z</time></trkpt><trkpt lat="39.9899354" lon="8.4278213"><ele>4.5</ele><time>2026-05-02T09:35:00.533Z</time></trkpt><trkpt lat="39.9900219" lon="8.427687"><ele>4.25</ele><time>2026-05-02T09:35:01.533Z</time></trkpt><trkpt lat="39.9901048" lon="8.427549"><ele>4.0</ele><time>2026-05-02T09:35:02.534Z</time></trkpt><trkpt lat="39.99019" lon="8.427409"><ele>4.0</ele><time>2026-05-02T09:35:03.534Z</time></trkpt><trkpt lat="39.9902743" lon="8.4272675"><ele>4.0</ele><time>2026-05-02T09:35:04.533Z</time></trkpt><trkpt lat="39.9903567" lon="8.4271255"><ele>4.0</ele><time>2026-05-02T09:35:05.533Z</time></trkpt><trkpt lat="39.9904416" lon="8.4269782"><ele>4.0</ele><time>2026-05-02T09:35:06.533Z</time></trkpt><trkpt lat="39.9905267" lon="8.426827"><ele>4.0</ele><time>2026-05-02T09:35:07.533Z</time></trkpt><trkpt lat="39.9906121" lon="8.4266728"><ele>4.0</ele><time>2026-05-02T09:35:08.533Z</time></trkpt><trkpt lat="39.9906979" lon="8.426516"><ele>4.0</ele><time>2026-05-02T09:35:09.533Z</time></trkpt><trkpt lat="39.9907853" lon="8.4263578"><ele>4.0</ele><time>2026-05-02T09:35:10.532Z</time></trkpt><trkpt lat="39.9908721" lon="8.4261963"><ele>4.0</ele><time>2026-05-02T09:35:11.533Z</time></trkpt><trkpt lat="39.9909614" lon="8.4260352"><ele>4.0</ele><time>2026-05-02T09:35:12.534Z</time></trkpt><trkpt lat="39.9910505" lon="8.425874"><ele>4.0</ele><time>2026-05-02T09:35:13.534Z</time></trkpt><trkpt lat="39.9911381" lon="8.4257103"><ele>4.0</ele><time>2026-05-02T09:35:14.533Z</time></trkpt><trkpt lat="39.9912275" lon="8.4255447"><ele>4.0</ele><time>2026-05-02T09:35:15.532Z</time></trkpt><trkpt lat="39.991317" lon="8.4253801"><ele>4.0</ele><time>2026-05-02T09:35:16.534Z</time></trkpt><trkpt lat="39.9914023" lon="8.4252163"><ele>3.6666666666666665</ele><time>2026-05-02T09:35:17.532Z</time></trkpt><trkpt lat="39.9914872" lon="8.4250516"><ele>3.333333333333333</ele><time>2026-05-02T09:35:18.534Z</time></trkpt><trkpt lat="39.9915763" lon="8.4248869"><ele>3.0</ele><time>2026-05-02T09:35:19.533Z</time></trkpt><trkpt lat="39.991668" lon="8.4247246"><ele>3.333333333333333</ele><time>2026-05-02T09:35:20.533Z</time></trkpt><trkpt lat="39.9917652" lon="8.424564"><ele>3.6666666666666665</ele><time>2026-05-02T09:35:21.533Z</time></trkpt><trkpt lat="39.9918685" lon="8.4244123"><ele>4.0</ele><time>2026-05-02T09:35:22.532Z</time></trkpt><trkpt lat="39.9919895" lon="8.4242663"><ele>4.0</ele><time>2026-05-02T09:35:23.532Z</time></trkpt><trkpt lat="39.9921201" lon="8.4241334"><ele>4.0</ele><time>2026-05-02T09:35:24.534Z</time></trkpt><trkpt lat="39.9922597" lon="8.4240103"><ele>4.0</ele><time>2026-05-02T09:35:25.532Z</time></trkpt><trkpt lat="39.9924075" lon="8.4238993"><ele>4.0</ele><time>2026-05-02T09:35:26.534Z</time></trkpt><trkpt lat="39.9925635" lon="8.4238006"><ele>4.0</ele><time>2026-05-02T09:35:27.533Z</time></trkpt><trkpt lat="39.9927243" lon="8.4237048"><ele>4.0</ele><time>2026-05-02T09:35:28.533Z</time></trkpt><trkpt lat="39.9928841" lon="8.4236025"><ele>4.0</ele><time>2026-05-02T09:35:29.534Z</time></trkpt><trkpt lat="39.9930425" lon="8.4234997"><ele>4.0</ele><time>2026-05-02T09:35:30.534Z</time></trkpt><trkpt lat="39.9932009" lon="8.4233988"><ele>4.0</ele><time>2026-05-02T09:35:31.533Z</time></trkpt><trkpt lat="39.9933596" lon="8.4232962"><ele>4.0</ele><time>2026-05-02T09:35:32.533Z</time></trkpt><trkpt lat="39.9935188" lon="8.4231951"><ele>4.0</ele><time>2026-05-02T09:35:33.534Z</time></trkpt><trkpt lat="39.9936796" lon="8.4230961"><ele>4.0</ele><time>2026-05-02T09:35:34.533Z</time></trkpt><trkpt lat="39.9938411" lon="8.4229933"><ele>4.333333333333333</ele><time>2026-05-02T09:35:35.533Z</time></trkpt><trkpt lat="39.9940045" lon="8.4228906"><ele>4.666666666666667</ele><time>2026-05-02T09:35:36.532Z</time></trkpt><trkpt lat="39.9941661" lon="8.4227846"><ele>5.0</ele><time>2026-05-02T09:35:37.534Z</time></trkpt><trkpt lat="39.9943292" lon="8.422679"><ele>5.0</ele><time>2026-05-02T09:35:38.533Z</time></trkpt><trkpt lat="39.9944886" lon="8.4225775"><ele>5.0</ele><time>2026-05-02T09:35:39.533Z</time></trkpt><trkpt lat="39.9946464" lon="8.4224728"><ele>5.0</ele><time>2026-05-02T09:35:40.533Z</time></trkpt><trkpt lat="39.9948031" lon="8.4223723"><ele>5.0</ele><time>2026-05-02T09:35:41.532Z</time></trkpt><trkpt lat="39.9949575" lon="8.4222745"><ele>5.0</ele><time>2026-05-02T09:35:42.533Z</time></trkpt><trkpt lat="39.9951108" lon="8.4221788"><ele>5.0</ele><time>2026-05-02T09:35:43.534Z</time></trkpt><trkpt lat="39.9952638" lon="8.4220841"><ele>5.333333333333334</ele><time>2026-05-02T09:35:44.533Z</time></trkpt><trkpt lat="39.9954153" lon="8.4219901"><ele>5.666666666666667</ele><time>2026-05-02T09:35:45.533Z</time></trkpt><trkpt lat="39.9955661" lon="8.4218965"><ele>6.0</ele><time>2026-05-02T09:35:46.533Z</time></trkpt><trkpt lat="39.9957118" lon="8.4218068"><ele>6.0</ele><time>2026-05-02T09:35:47.532Z</time></trkpt><trkpt lat="39.995852" lon="8.4217206"><ele>6.0</ele><time>2026-05-02T09:35:48.532Z</time></trkpt><trkpt lat="39.9959934" lon="8.421631"><ele>6.0</ele><time>2026-05-02T09:35:49.533Z</time></trkpt><trkpt lat="39.9961313" lon="8.4215374"><ele>6.0</ele><time>2026-05-02T09:35:50.532Z</time></trkpt><trkpt lat="39.9962685" lon="8.4214345"><ele>6.0</ele><time>2026-05-02T09:35:51.533Z</time></trkpt><trkpt lat="39.9964013" lon="8.4213224"><ele>6.0</ele><time>2026-05-02T09:35:52.534Z</time></trkpt><trkpt lat="39.996535" lon="8.4212018"><ele>6.333333333333334</ele><time>2026-05-02T09:35:53.534Z</time></trkpt><trkpt lat="39.9966659" lon="8.4210686"><ele>6.666666666666667</ele><time>2026-05-02T09:35:54.533Z</time></trkpt><trkpt lat="39.996799" lon="8.4209241"><ele>7.0</ele><time>2026-05-02T09:35:55.533Z</time></trkpt><trkpt lat="39.9969248" lon="8.4207721"><ele>7.0</ele><time>2026-05-02T09:35:56.532Z</time></trkpt><trkpt lat="39.9970447" lon="8.4206109"><ele>7.0</ele><time>2026-05-02T09:35:57.533Z</time></trkpt><trkpt lat="39.9971637" lon="8.4204417"><ele>7.0</ele><time>2026-05-02T09:35:58.533Z</time></trkpt><trkpt lat="39.9972831" lon="8.420273"><ele>7.666666666666667</ele><time>2026-05-02T09:35:59.532Z</time></trkpt><trkpt lat="39.997395" lon="8.4201047"><ele>8.333333333333334</ele><time>2026-05-02T09:36:00.533Z</time></trkpt><trkpt lat="39.9975132" lon="8.4199388"><ele>9.0</ele><time>2026-05-02T09:36:01.533Z</time></trkpt><trkpt lat="39.9976327" lon="8.4197738"><ele>9.333333333333334</ele><time>2026-05-02T09:36:02.534Z</time></trkpt><trkpt lat="39.9977502" lon="8.4196082"><ele>9.666666666666668</ele><time>2026-05-02T09:36:03.532Z</time></trkpt><trkpt lat="39.9978698" lon="8.4194454"><ele>10.0</ele><time>2026-05-02T09:36:04.534Z</time></trkpt><trkpt lat="39.9979906" lon="8.4192853"><ele>10.0</ele><time>2026-05-02T09:36:05.533Z</time></trkpt><trkpt lat="39.9981139" lon="8.4191257"><ele>10.0</ele><time>2026-05-02T09:36:06.533Z</time></trkpt><trkpt lat="39.9982354" lon="8.4189652"><ele>10.0</ele><time>2026-05-02T09:36:07.533Z</time></trkpt><trkpt lat="39.9983572" lon="8.4188016"><ele>10.0</ele><time>2026-05-02T09:36:08.533Z</time></trkpt><trkpt lat="39.9984801" lon="8.4186394"><ele>10.0</ele><time>2026-05-02T09:36:09.534Z</time></trkpt><trkpt lat="39.9985995" lon="8.4184744"><ele>10.0</ele><time>2026-05-02T09:36:10.534Z</time></trkpt><trkpt lat="39.9987234" lon="8.418311"><ele>10.0</ele><time>2026-05-02T09:36:11.533Z</time></trkpt><trkpt lat="39.9988508" lon="8.4181538"><ele>10.0</ele><time>2026-05-02T09:36:12.533Z</time></trkpt><trkpt lat="39.9989843" lon="8.4180007"><ele>10.0</ele><time>2026-05-02T09:36:13.533Z</time></trkpt><trkpt lat="39.9991224" lon="8.4178524"><ele>10.333333333333334</ele><time>2026-05-02T09:36:14.533Z</time></trkpt><trkpt lat="39.9992644" lon="8.4177076"><ele>10.666666666666666</ele><time>2026-05-02T09:36:15.534Z</time></trkpt><trkpt lat="39.999407" lon="8.4175626"><ele>11.0</ele><time>2026-05-02T09:36:16.533Z</time></trkpt><trkpt lat="39.9995496" lon="8.417419"><ele>11.0</ele><time>2026-05-02T09:36:17.534Z</time></trkpt><trkpt lat="39.9996946" lon="8.4172744"><ele>11.0</ele><time>2026-05-02T09:36:18.533Z</time></trkpt><trkpt lat="39.9998373" lon="8.4171341"><ele>11.0</ele><time>2026-05-02T09:36:19.533Z</time></trkpt><trkpt lat="39.9999813" lon="8.416998"><ele>11.666666666666666</ele><time>2026-05-02T09:36:20.534Z</time></trkpt><trkpt lat="40.000123" lon="8.4168593"><ele>12.333333333333332</ele><time>2026-05-02T09:36:21.533Z</time></trkpt><trkpt lat="40.0002638" lon="8.4167237"><ele>13.0</ele><time>2026-05-02T09:36:22.533Z</time></trkpt><trkpt lat="40.0004051" lon="8.4165856"><ele>13.0</ele><time>2026-05-02T09:36:23.532Z</time></trkpt><trkpt lat="40.0005452" lon="8.4164479"><ele>13.0</ele><time>2026-05-02T09:36:24.534Z</time></trkpt><trkpt lat="40.0006843" lon="8.4163146"><ele>13.0</ele><time>2026-05-02T09:36:25.533Z</time></trkpt><trkpt lat="40.0008251" lon="8.4161849"><ele>13.666666666666666</ele><time>2026-05-02T09:36:26.532Z</time></trkpt><trkpt lat="40.0009714" lon="8.4160729"><ele>14.333333333333332</ele><time>2026-05-02T09:36:27.532Z</time></trkpt><trkpt lat="40.001122" lon="8.4159835"><ele>15.0</ele><time>2026-05-02T09:36:28.533Z</time></trkpt><trkpt lat="40.0012716" lon="8.4159196"><ele>15.0</ele><time>2026-05-02T09:36:29.533Z</time></trkpt><trkpt lat="40.0014338" lon="8.4158862"><ele>15.0</ele><time>2026-05-02T09:36:30.533Z</time></trkpt><trkpt lat="40.0016018" lon="8.4158889"><ele>15.0</ele><time>2026-05-02T09:36:31.534Z</time></trkpt><trkpt lat="40.0017728" lon="8.4159225"><ele>16.0</ele><time>2026-05-02T09:36:32.533Z</time></trkpt><trkpt lat="40.0019436" lon="8.4159723"><ele>17.0</ele><time>2026-05-02T09:36:33.533Z</time></trkpt><trkpt lat="40.0021139" lon="8.4160316"><ele>18.0</ele><time>2026-05-02T09:36:34.532Z</time></trkpt><trkpt lat="40.002288" lon="8.4160964"><ele>18.0</ele><time>2026-05-02T09:36:35.532Z</time></trkpt><trkpt lat="40.0024647" lon="8.4161561"><ele>18.0</ele><time>2026-05-02T09:36:36.532Z</time></trkpt><trkpt lat="40.0026421" lon="8.4161981"><ele>18.0</ele><time>2026-05-02T09:36:37.532Z</time></trkpt><trkpt lat="40.0028207" lon="8.4162193"><ele>19.0</ele><time>2026-05-02T09:36:38.534Z</time></trkpt><trkpt lat="40.0030015" lon="8.4162137"><ele>20.0</ele><time>2026-05-02T09:36:39.533Z</time></trkpt><trkpt lat="40.0031823" lon="8.4161894"><ele>21.0</ele><time>2026-05-02T09:36:40.534Z</time></trkpt><trkpt lat="40.0033611" lon="8.4161505"><ele>21.666666666666668</ele><time>2026-05-02T09:36:41.532Z</time></trkpt><trkpt lat="40.0035363" lon="8.416095"><ele>22.333333333333336</ele><time>2026-05-02T09:36:42.533Z</time></trkpt><trkpt lat="40.0037086" lon="8.4160373"><ele>23.0</ele><time>2026-05-02T09:36:43.533Z</time></trkpt><trkpt lat="40.0038784" lon="8.4159771"><ele>23.0</ele><time>2026-05-02T09:36:44.534Z</time></trkpt><trkpt lat="40.0040491" lon="8.4159137"><ele>23.0</ele><time>2026-05-02T09:36:45.534Z</time></trkpt><trkpt lat="40.0042212" lon="8.4158487"><ele>23.0</ele><time>2026-05-02T09:36:46.534Z</time></trkpt><trkpt lat="40.0043955" lon="8.4157794"><ele>21.666666666666668</ele><time>2026-05-02T09:36:47.532Z</time></trkpt><trkpt lat="40.0045662" lon="8.4157134"><ele>20.333333333333332</ele><time>2026-05-02T09:36:48.532Z</time></trkpt><trkpt lat="40.0047317" lon="8.4156476"><ele>19.0</ele><time>2026-05-02T09:36:49.533Z</time></trkpt><trkpt lat="40.0048956" lon="8.4155832"><ele>18.333333333333332</ele><time>2026-05-02T09:36:50.534Z</time></trkpt><trkpt lat="40.0050577" lon="8.4155212"><ele>17.666666666666668</ele><time>2026-05-02T09:36:51.534Z</time></trkpt><trkpt lat="40.0052194" lon="8.4154586"><ele>17.0</ele><time>2026-05-02T09:36:52.534Z</time></trkpt><trkpt lat="40.0053818" lon="8.415394"><ele>17.333333333333336</ele><time>2026-05-02T09:36:53.534Z</time></trkpt><trkpt lat="40.0055439" lon="8.4153252"><ele>17.666666666666668</ele><time>2026-05-02T09:36:54.533Z</time></trkpt><trkpt lat="40.0057039" lon="8.4152476"><ele>18.0</ele><time>2026-05-02T09:36:55.533Z</time></trkpt><trkpt lat="40.0058651" lon="8.4151641"><ele>18.0</ele><time>2026-05-02T09:36:56.533Z</time></trkpt><trkpt lat="40.0060246" lon="8.4150789"><ele>18.0</ele><time>2026-05-02T09:36:57.533Z</time></trkpt><trkpt lat="40.0061822" lon="8.4149899"><ele>18.0</ele><time>2026-05-02T09:36:58.533Z</time></trkpt><trkpt lat="40.0063387" lon="8.4148955"><ele>18.0</ele><time>2026-05-02T09:36:59.533Z</time></trkpt><trkpt lat="40.006494" lon="8.4147978"><ele>18.0</ele><time>2026-05-02T09:37:00.533Z</time></trkpt><trkpt lat="40.0066501" lon="8.4146953"><ele>18.0</ele><time>2026-05-02T09:37:01.534Z</time></trkpt><trkpt lat="40.0068036" lon="8.4145903"><ele>18.0</ele><time>2026-05-02T09:37:02.534Z</time></trkpt><trkpt lat="40.0069572" lon="8.4144783"><ele>18.0</ele><time>2026-05-02T09:37:03.532Z</time></trkpt><trkpt lat="40.007104" lon="8.4143609"><ele>18.0</ele><time>2026-05-02T09:37:04.533Z</time></trkpt><trkpt lat="40.0072479" lon="8.4142411"><ele>18.0</ele><time>2026-05-02T09:37:05.534Z</time></trkpt><trkpt lat="40.0073863" lon="8.4141202"><ele>18.0</ele><time>2026-05-02T09:37:06.534Z</time></trkpt><trkpt lat="40.0075215" lon="8.4139992"><ele>18.0</ele><time>2026-05-02T09:37:07.534Z</time></trkpt><trkpt lat="40.0076555" lon="8.4138835"><ele>17.25</ele><time>2026-05-02T09:37:08.533Z</time></trkpt><trkpt lat="40.0077814" lon="8.4137729"><ele>16.5</ele><time>2026-05-02T09:37:09.534Z</time></trkpt><trkpt lat="40.0078939" lon="8.4136727"><ele>15.75</ele><time>2026-05-02T09:37:10.533Z</time></trkpt><trkpt lat="40.0080034" lon="8.4135811"><ele>15.0</ele><time>2026-05-02T09:37:11.532Z</time></trkpt><trkpt lat="40.0081202" lon="8.4135091"><ele>15.0</ele><time>2026-05-02T09:37:12.533Z</time></trkpt><trkpt lat="40.0082533" lon="8.4134558"><ele>15.0</ele><time>2026-05-02T09:37:13.532Z</time></trkpt><trkpt lat="40.0084016" lon="8.4134347"><ele>15.0</ele><time>2026-05-02T09:37:14.533Z</time></trkpt><trkpt lat="40.00856" lon="8.4134509"><ele>15.0</ele><time>2026-05-02T09:37:15.533Z</time></trkpt><trkpt lat="40.0087209" lon="8.4135028"><ele>14.666666666666668</ele><time>2026-05-02T09:37:16.534Z</time></trkpt><trkpt lat="40.0088787" lon="8.4135847"><ele>14.333333333333334</ele><time>2026-05-02T09:37:17.533Z</time></trkpt><trkpt lat="40.0090234" lon="8.4136996"><ele>14.0</ele><time>2026-05-02T09:37:18.533Z</time></trkpt><trkpt lat="40.009154" lon="8.4138525"><ele>13.333333333333334</ele><time>2026-05-02T09:37:19.534Z</time></trkpt><trkpt lat="40.009268" lon="8.4140382"><ele>12.666666666666668</ele><time>2026-05-02T09:37:20.534Z</time></trkpt><trkpt lat="40.0093669" lon="8.4142427"><ele>12.0</ele><time>2026-05-02T09:37:21.534Z</time></trkpt><trkpt lat="40.0094628" lon="8.4144492"><ele>12.666666666666668</ele><time>2026-05-02T09:37:22.533Z</time></trkpt><trkpt lat="40.0095543" lon="8.414656"><ele>13.333333333333334</ele><time>2026-05-02T09:37:23.533Z</time></trkpt><trkpt lat="40.0096484" lon="8.4148591"><ele>14.0</ele><time>2026-05-02T09:37:24.533Z</time></trkpt><trkpt lat="40.0097415" lon="8.4150538"><ele>14.0</ele><time>2026-05-02T09:37:25.533Z</time></trkpt><trkpt lat="40.0098355" lon="8.4152477"><ele>14.0</ele><time>2026-05-02T09:37:26.533Z</time></trkpt><trkpt lat="40.0099277" lon="8.4154436"><ele>14.0</ele><time>2026-05-02T09:37:27.532Z</time></trkpt><trkpt lat="40.0100162" lon="8.415637"><ele>12.666666666666668</ele><time>2026-05-02T09:37:28.534Z</time></trkpt><trkpt lat="40.0101074" lon="8.4158276"><ele>11.333333333333334</ele><time>2026-05-02T09:37:29.533Z</time></trkpt><trkpt lat="40.0102084" lon="8.4160084"><ele>10.0</ele><time>2026-05-02T09:37:30.532Z</time></trkpt><trkpt lat="40.0103204" lon="8.4161778"><ele>9.0</ele><time>2026-05-02T09:37:31.534Z</time></trkpt><trkpt lat="40.0104461" lon="8.4163308"><ele>8.0</ele><time>2026-05-02T09:37:32.533Z</time></trkpt><trkpt lat="40.0105776" lon="8.4164725"><ele>7.0</ele><time>2026-05-02T09:37:33.534Z</time></trkpt><trkpt lat="40.0107072" lon="8.4166065"><ele>7.0</ele><time>2026-05-02T09:37:34.533Z</time></trkpt><trkpt lat="40.010839" lon="8.4167358"><ele>7.0</ele><time>2026-05-02T09:37:35.533Z</time></trkpt><trkpt lat="40.0109692" lon="8.4168636"><ele>7.0</ele><time>2026-05-02T09:37:36.533Z</time></trkpt><trkpt lat="40.0110945" lon="8.4169926"><ele>7.0</ele><time>2026-05-02T09:37:37.534Z</time></trkpt><trkpt lat="40.0112269" lon="8.4171237"><ele>7.0</ele><time>2026-05-02T09:37:38.533Z</time></trkpt><trkpt lat="40.0113571" lon="8.4172486"><ele>7.0</ele><time>2026-05-02T09:37:39.533Z</time></trkpt><trkpt lat="40.0114951" lon="8.4173678"><ele>6.666666666666667</ele><time>2026-05-02T09:37:40.533Z</time></trkpt><trkpt lat="40.0116395" lon="8.4174801"><ele>6.333333333333334</ele><time>2026-05-02T09:37:41.533Z</time></trkpt><trkpt lat="40.0117895" lon="8.4175804"><ele>6.0</ele><time>2026-05-02T09:37:42.533Z</time></trkpt><trkpt lat="40.0119482" lon="8.4176645"><ele>5.666666666666667</ele><time>2026-05-02T09:37:43.533Z</time></trkpt><trkpt lat="40.0121097" lon="8.4177382"><ele>5.333333333333334</ele><time>2026-05-02T09:37:44.532Z</time></trkpt><trkpt lat="40.0122733" lon="8.4177971"><ele>5.0</ele><time>2026-05-02T09:37:45.534Z</time></trkpt><trkpt lat="40.012441" lon="8.4178441"><ele>5.0</ele><time>2026-05-02T09:37:46.533Z</time></trkpt><trkpt lat="40.0126119" lon="8.4178889"><ele>5.0</ele><time>2026-05-02T09:37:47.532Z</time></trkpt><trkpt lat="40.012781" lon="8.4179299"><ele>5.0</ele><time>2026-05-02T09:37:48.534Z</time></trkpt><trkpt lat="40.0129524" lon="8.4179714"><ele>4.666666666666667</ele><time>2026-05-02T09:37:49.533Z</time></trkpt><trkpt lat="40.0131247" lon="8.4180134"><ele>4.333333333333333</ele><time>2026-05-02T09:37:50.533Z</time></trkpt><trkpt lat="40.0132974" lon="8.4180553"><ele>4.0</ele><time>2026-05-02T09:37:51.533Z</time></trkpt><trkpt lat="40.013469" lon="8.4180972"><ele>3.6666666666666665</ele><time>2026-05-02T09:37:52.533Z</time></trkpt><trkpt lat="40.0136399" lon="8.4181424"><ele>3.333333333333333</ele><time>2026-05-02T09:37:53.532Z</time></trkpt><trkpt lat="40.0138114" lon="8.4181889"><ele>3.0</ele><time>2026-05-02T09:37:54.533Z</time></trkpt><trkpt lat="40.0139852" lon="8.4182325"><ele>3.0</ele><time>2026-05-02T09:37:55.534Z</time></trkpt><trkpt lat="40.0141599" lon="8.4182779"><ele>3.0</ele><time>2026-05-02T09:37:56.534Z</time></trkpt><trkpt lat="40.0143346" lon="8.4183214"><ele>3.0</ele><time>2026-05-02T09:37:57.534Z</time></trkpt><trkpt lat="40.0145072" lon="8.4183609"><ele>3.0</ele><time>2026-05-02T09:37:58.534Z</time></trkpt><trkpt lat="40.0146803" lon="8.4183885"><ele>3.0</ele><time>2026-05-02T09:37:59.534Z</time></trkpt><trkpt lat="40.0148515" lon="8.418403"><ele>3.0</ele><time>2026-05-02T09:38:00.532Z</time></trkpt><trkpt lat="40.0150226" lon="8.4183985"><ele>3.0</ele><time>2026-05-02T09:38:01.533Z</time></trkpt><trkpt lat="40.0151915" lon="8.4183756"><ele>3.0</ele><time>2026-05-02T09:38:02.534Z</time></trkpt><trkpt lat="40.0153645" lon="8.4183584"><ele>3.0</ele><time>2026-05-02T09:38:03.532Z</time></trkpt><trkpt lat="40.0155366" lon="8.418339"><ele>3.0</ele><time>2026-05-02T09:38:04.533Z</time></trkpt><trkpt lat="40.0157096" lon="8.4183203"><ele>3.0</ele><time>2026-05-02T09:38:05.533Z</time></trkpt><trkpt lat="40.0158836" lon="8.418304"><ele>3.0</ele><time>2026-05-02T09:38:06.532Z</time></trkpt><trkpt lat="40.0160591" lon="8.4182874"><ele>2.6666666666666665</ele><time>2026-05-02T09:38:07.533Z</time></trkpt><trkpt lat="40.0162357" lon="8.4182694"><ele>2.333333333333333</ele><time>2026-05-02T09:38:08.534Z</time></trkpt><trkpt lat="40.0164128" lon="8.4182491"><ele>2.0</ele><time>2026-05-02T09:38:09.533Z</time></trkpt><trkpt lat="40.0165876" lon="8.4182279"><ele>2.333333333333333</ele><time>2026-05-02T09:38:10.532Z</time></trkpt><trkpt lat="40.0167629" lon="8.4182068"><ele>2.6666666666666665</ele><time>2026-05-02T09:38:11.532Z</time></trkpt><trkpt lat="40.0169379" lon="8.4181878"><ele>3.0</ele><time>2026-05-02T09:38:12.533Z</time></trkpt><trkpt lat="40.0171123" lon="8.4181672"><ele>3.0</ele><time>2026-05-02T09:38:13.532Z</time></trkpt><trkpt lat="40.0172806" lon="8.4181496"><ele>3.0</ele><time>2026-05-02T09:38:14.532Z</time></trkpt><trkpt lat="40.0174437" lon="8.4181328"><ele>3.0</ele><time>2026-05-02T09:38:15.533Z</time></trkpt><trkpt lat="40.0175926" lon="8.418117"><ele>3.0</ele><time>2026-05-02T09:38:16.533Z</time></trkpt><trkpt lat="40.0177302" lon="8.4181011"><ele>3.0</ele><time>2026-05-02T09:38:17.534Z</time></trkpt><trkpt lat="40.0178559" lon="8.418087"><ele>3.0</ele><time>2026-05-02T09:38:18.532Z</time></trkpt><trkpt lat="40.0179697" lon="8.4180729"><ele>3.0</ele><time>2026-05-02T09:38:19.534Z</time></trkpt><trkpt lat="40.0180732" lon="8.4180603"><ele>3.0</ele><time>2026-05-02T09:38:20.533Z</time></trkpt><trkpt lat="40.0181673" lon="8.4180484"><ele>3.0</ele><time>2026-05-02T09:38:21.533Z</time></trkpt><trkpt lat="40.0182513" lon="8.4180378"><ele>3.0</ele><time>2026-05-02T09:38:22.533Z</time></trkpt><trkpt lat="40.0183214" lon="8.4180307"><ele>3.0</ele><time>2026-05-02T09:38:23.533Z</time></trkpt><trkpt lat="40.0184129" lon="8.4180644"><ele>3.0</ele><time>2026-05-02T09:38:25.532Z</time></trkpt><trkpt lat="40.0184883" lon="8.4182095"><ele>3.0</ele><time>2026-05-02T09:38:27.532Z</time></trkpt><trkpt lat="40.0185381" lon="8.418292"><ele>3.0</ele><time>2026-05-02T09:38:28.532Z</time></trkpt><trkpt lat="40.0185819" lon="8.4183805"><ele>3.0</ele><time>2026-05-02T09:38:29.531Z</time></trkpt><trkpt lat="40.0186273" lon="8.4184673"><ele>3.0</ele><time>2026-05-02T09:38:30.531Z</time></trkpt><trkpt lat="40.0186781" lon="8.4185529"><ele>3.0</ele><time>2026-05-02T09:38:31.532Z</time></trkpt><trkpt lat="40.018729" lon="8.4186394"><ele>3.0</ele><time>2026-05-02T09:38:32.532Z</time></trkpt><trkpt lat="40.0187785" lon="8.4187229"><ele>2.9999999999999996</ele><time>2026-05-02T09:38:33.531Z</time></trkpt><trkpt lat="40.0188366" lon="8.4187949"><ele>3.0</ele><time>2026-05-02T09:38:34.531Z</time></trkpt><trkpt lat="40.0189046" lon="8.4188424"><ele>3.0</ele><time>2026-05-02T09:38:35.532Z</time></trkpt><trkpt lat="40.0189858" lon="8.4188676"><ele>3.0</ele><time>2026-05-02T09:38:36.531Z</time></trkpt><trkpt lat="40.0190637" lon="8.4188834"><ele>3.0</ele><time>2026-05-02T09:38:37.531Z</time></trkpt><trkpt lat="40.0191296" lon="8.4188966"><ele>2.9999999999999996</ele><time>2026-05-02T09:38:38.533Z</time></trkpt><trkpt lat="40.0191914" lon="8.4189144"><ele>3.0</ele><time>2026-05-02T09:38:39.532Z</time></trkpt><trkpt lat="40.0193011" lon="8.418994"><ele>3.1666666666666665</ele><time>2026-05-02T09:38:41.533Z</time></trkpt><trkpt lat="40.0193536" lon="8.4190662"><ele>3.333333333333333</ele><time>2026-05-02T09:38:42.531Z</time></trkpt><trkpt lat="40.019403" lon="8.4191457"><ele>3.5</ele><time>2026-05-02T09:38:43.533Z</time></trkpt><trkpt lat="40.0194456" lon="8.4192401"><ele>3.6666666666666665</ele><time>2026-05-02T09:38:44.533Z</time></trkpt><trkpt lat="40.0194852" lon="8.4193368"><ele>3.833333333333333</ele><time>2026-05-02T09:38:45.531Z</time></trkpt><trkpt lat="40.0195272" lon="8.4194315"><ele>4.0</ele><time>2026-05-02T09:38:46.532Z</time></trkpt><trkpt lat="40.0195703" lon="8.4195265"><ele>3.9999999999999996</ele><time>2026-05-02T09:38:47.532Z</time></trkpt><trkpt lat="40.0196065" lon="8.4196272"><ele>4.0</ele><time>2026-05-02T09:38:48.532Z</time></trkpt><trkpt lat="40.0196309" lon="8.4197323"><ele>4.0</ele><time>2026-05-02T09:38:49.533Z</time></trkpt><trkpt lat="40.0196432" lon="8.419844"><ele>4.0</ele><time>2026-05-02T09:38:50.532Z</time></trkpt><trkpt lat="40.0196555" lon="8.4199662"><ele>3.9999999999999996</ele><time>2026-05-02T09:38:51.533Z</time></trkpt><trkpt lat="40.0196661" lon="8.4200858"><ele>4.0</ele><time>2026-05-02T09:38:52.533Z</time></trkpt><trkpt lat="40.0196847" lon="8.4202053"><ele>3.9999999999999996</ele><time>2026-05-02T09:38:53.532Z</time></trkpt><trkpt lat="40.0196963" lon="8.4203226"><ele>4.0</ele><time>2026-05-02T09:38:54.532Z</time></trkpt><trkpt lat="40.0197212" lon="8.420436"><ele>4.0</ele><time>2026-05-02T09:38:55.531Z</time></trkpt><trkpt lat="40.0197597" lon="8.42053"><ele>4.0</ele><time>2026-05-02T09:38:56.531Z</time></trkpt><trkpt lat="40.0198006" lon="8.4206123"><ele>3.9999999999999996</ele><time>2026-05-02T09:38:57.531Z</time></trkpt><trkpt lat="40.0198452" lon="8.4206921"><ele>4.0</ele><time>2026-05-02T09:38:58.531Z</time></trkpt><trkpt lat="40.0199061" lon="8.4207613"><ele>4.166666666666666</ele><time>2026-05-02T09:38:59.533Z</time></trkpt><trkpt lat="40.01996" lon="8.4208369"><ele>4.333333333333333</ele><time>2026-05-02T09:39:00.532Z</time></trkpt><trkpt lat="40.0200083" lon="8.4209095"><ele>4.5</ele><time>2026-05-02T09:39:01.532Z</time></trkpt><trkpt lat="40.0200482" lon="8.4210367"><ele>4.666666666666667</ele><time>2026-05-02T09:39:03.533Z</time></trkpt><trkpt lat="40.0200217" lon="8.4211719"><ele>4.833333333333334</ele><time>2026-05-02T09:39:05.532Z</time></trkpt><trkpt lat="40.0199817" lon="8.421255"><ele>5.0</ele><time>2026-05-02T09:39:06.532Z</time></trkpt><trkpt lat="40.019943" lon="8.4213403"><ele>5.2</ele><time>2026-05-02T09:39:07.532Z</time></trkpt><trkpt lat="40.0199215" lon="8.421445"><ele>5.4</ele><time>2026-05-02T09:39:08.531Z</time></trkpt><trkpt lat="40.0199187" lon="8.4215609"><ele>5.6</ele><time>2026-05-02T09:39:09.531Z</time></trkpt><trkpt lat="40.019928" lon="8.4216831"><ele>5.8</ele><time>2026-05-02T09:39:10.533Z</time></trkpt><trkpt lat="40.0199504" lon="8.4218017"><ele>6.0</ele><time>2026-05-02T09:39:11.532Z</time></trkpt><trkpt lat="40.0199856" lon="8.4219245"><ele>6.0</ele><time>2026-05-02T09:39:12.531Z</time></trkpt><trkpt lat="40.0200282" lon="8.4220432"><ele>6.0</ele><time>2026-05-02T09:39:13.531Z</time></trkpt><trkpt lat="40.0200801" lon="8.4221607"><ele>6.0</ele><time>2026-05-02T09:39:14.531Z</time></trkpt><trkpt lat="40.0201377" lon="8.4222695"><ele>6.0</ele><time>2026-05-02T09:39:15.531Z</time></trkpt><trkpt lat="40.0201955" lon="8.4223826"><ele>6.0</ele><time>2026-05-02T09:39:16.531Z</time></trkpt><trkpt lat="40.0202422" lon="8.4225109"><ele>6.0</ele><time>2026-05-02T09:39:17.532Z</time></trkpt><trkpt lat="40.0202832" lon="8.4226432"><ele>6.0</ele><time>2026-05-02T09:39:18.532Z</time></trkpt><trkpt lat="40.020322" lon="8.4227795"><ele>6.0</ele><time>2026-05-02T09:39:19.532Z</time></trkpt><trkpt lat="40.0203526" lon="8.4229205"><ele>6.0</ele><time>2026-05-02T09:39:20.531Z</time></trkpt><trkpt lat="40.0203784" lon="8.4230654"><ele>6.0</ele><time>2026-05-02T09:39:21.532Z</time></trkpt><trkpt lat="40.0204011" lon="8.4232069"><ele>6.4</ele><time>2026-05-02T09:39:22.532Z</time></trkpt><trkpt lat="40.0204182" lon="8.4233498"><ele>6.8</ele><time>2026-05-02T09:39:23.531Z</time></trkpt><trkpt lat="40.0204326" lon="8.4234939"><ele>7.200000000000001</ele><time>2026-05-02T09:39:24.531Z</time></trkpt><trkpt lat="40.0204465" lon="8.4236391"><ele>7.6000000000000005</ele><time>2026-05-02T09:39:25.532Z</time></trkpt><trkpt lat="40.02046" lon="8.4237813"><ele>8.0</ele><time>2026-05-02T09:39:26.532Z</time></trkpt><trkpt lat="40.0204708" lon="8.4239253"><ele>8.200000000000001</ele><time>2026-05-02T09:39:27.533Z</time></trkpt><trkpt lat="40.0204831" lon="8.4240685"><ele>8.4</ele><time>2026-05-02T09:39:28.532Z</time></trkpt><trkpt lat="40.0204978" lon="8.4242099"><ele>8.600000000000001</ele><time>2026-05-02T09:39:29.531Z</time></trkpt><trkpt lat="40.0205094" lon="8.4243501"><ele>8.8</ele><time>2026-05-02T09:39:30.533Z</time></trkpt><trkpt lat="40.0205191" lon="8.4244866"><ele>9.0</ele><time>2026-05-02T09:39:31.533Z</time></trkpt><trkpt lat="40.0205207" lon="8.42462"><ele>9.0</ele><time>2026-05-02T09:39:32.533Z</time></trkpt><trkpt lat="40.0205065" lon="8.4247481"><ele>9.0</ele><time>2026-05-02T09:39:33.532Z</time></trkpt><trkpt lat="40.0204869" lon="8.4248749"><ele>9.0</ele><time>2026-05-02T09:39:34.532Z</time></trkpt><trkpt lat="40.0204708" lon="8.4250047"><ele>9.0</ele><time>2026-05-02T09:39:35.533Z</time></trkpt><trkpt lat="40.0204544" lon="8.4251374"><ele>9.0</ele><time>2026-05-02T09:39:36.532Z</time></trkpt><trkpt lat="40.0204382" lon="8.4252747"><ele>9.0</ele><time>2026-05-02T09:39:37.531Z</time></trkpt><trkpt lat="40.0204174" lon="8.4254082"><ele>9.0</ele><time>2026-05-02T09:39:38.533Z</time></trkpt><trkpt lat="40.0203949" lon="8.4255411"><ele>9.0</ele><time>2026-05-02T09:39:39.532Z</time></trkpt><trkpt lat="40.0203694" lon="8.4256734"><ele>9.0</ele><time>2026-05-02T09:39:40.532Z</time></trkpt><trkpt lat="40.020346" lon="8.4258055"><ele>9.0</ele><time>2026-05-02T09:39:41.531Z</time></trkpt><trkpt lat="40.0203241" lon="8.425936"><ele>9.2</ele><time>2026-05-02T09:39:42.531Z</time></trkpt><trkpt lat="40.020302" lon="8.4260695"><ele>9.4</ele><time>2026-05-02T09:39:43.533Z</time></trkpt><trkpt lat="40.0202779" lon="8.426208"><ele>9.6</ele><time>2026-05-02T09:39:44.532Z</time></trkpt><trkpt lat="40.0202544" lon="8.426349"><ele>9.8</ele><time>2026-05-02T09:39:45.531Z</time></trkpt><trkpt lat="40.0202301" lon="8.4264894"><ele>10.0</ele><time>2026-05-02T09:39:46.531Z</time></trkpt><trkpt lat="40.0202055" lon="8.4266303"><ele>10.0</ele><time>2026-05-02T09:39:47.531Z</time></trkpt><trkpt lat="40.0201793" lon="8.4267685"><ele>10.0</ele><time>2026-05-02T09:39:48.532Z</time></trkpt><trkpt lat="40.0201551" lon="8.4269056"><ele>10.0</ele><time>2026-05-02T09:39:49.531Z</time></trkpt><trkpt lat="40.0201353" lon="8.4270406"><ele>10.0</ele><time>2026-05-02T09:39:50.532Z</time></trkpt><trkpt lat="40.0201123" lon="8.4271688"><ele>10.0</ele><time>2026-05-02T09:39:51.532Z</time></trkpt><trkpt lat="40.0200878" lon="8.427281"><ele>9.833333333333334</ele><time>2026-05-02T09:39:52.532Z</time></trkpt><trkpt lat="40.0200785" lon="8.4273817"><ele>9.666666666666668</ele><time>2026-05-02T09:39:53.531Z</time></trkpt><trkpt lat="40.0200883" lon="8.4274937"><ele>9.5</ele><time>2026-05-02T09:39:54.531Z</time></trkpt><trkpt lat="40.0201208" lon="8.4276007"><ele>9.333333333333334</ele><time>2026-05-02T09:39:55.532Z</time></trkpt><trkpt lat="40.0201568" lon="8.4277037"><ele>9.166666666666666</ele><time>2026-05-02T09:39:56.532Z</time></trkpt><trkpt lat="40.0201956" lon="8.4278059"><ele>9.0</ele><time>2026-05-02T09:39:57.533Z</time></trkpt><trkpt lat="40.0202424" lon="8.4279028"><ele>8.6</ele><time>2026-05-02T09:39:58.531Z</time></trkpt><trkpt lat="40.0202919" lon="8.4280003"><ele>8.2</ele><time>2026-05-02T09:39:59.532Z</time></trkpt><trkpt lat="40.0203431" lon="8.4280973"><ele>7.799999999999999</ele><time>2026-05-02T09:40:00.532Z</time></trkpt><trkpt lat="40.0203999" lon="8.4281902"><ele>7.3999999999999995</ele><time>2026-05-02T09:40:01.532Z</time></trkpt><trkpt lat="40.0204575" lon="8.4282878"><ele>7.0</ele><time>2026-05-02T09:40:02.532Z</time></trkpt><trkpt lat="40.0205183" lon="8.4283788"><ele>7.000000000000001</ele><time>2026-05-02T09:40:03.532Z</time></trkpt><trkpt lat="40.0205757" lon="8.4284628"><ele>7.0</ele><time>2026-05-02T09:40:04.532Z</time></trkpt><trkpt lat="40.0206301" lon="8.4285398"><ele>7.0</ele><time>2026-05-02T09:40:05.532Z</time></trkpt><trkpt lat="40.0206881" lon="8.4286047"><ele>7.0</ele><time>2026-05-02T09:40:06.531Z</time></trkpt><trkpt lat="40.0207359" lon="8.4286774"><ele>7.000000000000001</ele><time>2026-05-02T09:40:07.532Z</time></trkpt><trkpt lat="40.0207657" lon="8.4287658"><ele>7.0</ele><time>2026-05-02T09:40:08.532Z</time></trkpt><trkpt lat="40.0207852" lon="8.4288612"><ele>7.166666666666667</ele><time>2026-05-02T09:40:09.531Z</time></trkpt><trkpt lat="40.0208089" lon="8.4289586"><ele>7.333333333333334</ele><time>2026-05-02T09:40:10.532Z</time></trkpt><trkpt lat="40.0208378" lon="8.4290654"><ele>7.5</ele><time>2026-05-02T09:40:11.531Z</time></trkpt><trkpt lat="40.020852" lon="8.4291769"><ele>7.666666666666666</ele><time>2026-05-02T09:40:12.532Z</time></trkpt><trkpt lat="40.0208691" lon="8.4292908"><ele>7.833333333333333</ele><time>2026-05-02T09:40:13.531Z</time></trkpt><trkpt lat="40.0208883" lon="8.429409"><ele>8.0</ele><time>2026-05-02T09:40:14.531Z</time></trkpt><trkpt lat="40.020905" lon="8.4295281"><ele>7.800000000000001</ele><time>2026-05-02T09:40:15.531Z</time></trkpt><trkpt lat="40.0209245" lon="8.4296469"><ele>7.6000000000000005</ele><time>2026-05-02T09:40:16.531Z</time></trkpt><trkpt lat="40.0209546" lon="8.4297605"><ele>7.3999999999999995</ele><time>2026-05-02T09:40:17.532Z</time></trkpt><trkpt lat="40.0209985" lon="8.4298679"><ele>7.199999999999999</ele><time>2026-05-02T09:40:18.532Z</time></trkpt><trkpt lat="40.0210397" lon="8.4299789"><ele>7.0</ele><time>2026-05-02T09:40:19.533Z</time></trkpt><trkpt lat="40.0210847" lon="8.4300851"><ele>7.0</ele><time>2026-05-02T09:40:20.531Z</time></trkpt><trkpt lat="40.0211336" lon="8.4301896"><ele>6.999999999999999</ele><time>2026-05-02T09:40:21.532Z</time></trkpt><trkpt lat="40.0211797" lon="8.4302959"><ele>6.999999999999999</ele><time>2026-05-02T09:40:22.531Z</time></trkpt><trkpt lat="40.0212199" lon="8.4304012"><ele>7.0</ele><time>2026-05-02T09:40:23.531Z</time></trkpt><trkpt lat="40.0212597" lon="8.4305057"><ele>7.0</ele><time>2026-05-02T09:40:24.532Z</time></trkpt><trkpt lat="40.0212924" lon="8.4306102"><ele>6.833333333333334</ele><time>2026-05-02T09:40:25.532Z</time></trkpt><trkpt lat="40.0213222" lon="8.430716"><ele>6.666666666666667</ele><time>2026-05-02T09:40:26.533Z</time></trkpt><trkpt lat="40.0213492" lon="8.430816"><ele>6.5</ele><time>2026-05-02T09:40:27.532Z</time></trkpt><trkpt lat="40.0213817" lon="8.4309227"><ele>6.333333333333334</ele><time>2026-05-02T09:40:28.533Z</time></trkpt><trkpt lat="40.021421" lon="8.4310292"><ele>6.166666666666667</ele><time>2026-05-02T09:40:29.531Z</time></trkpt><trkpt lat="40.0214622" lon="8.4311374"><ele>6.0</ele><time>2026-05-02T09:40:30.532Z</time></trkpt><trkpt lat="40.0215063" lon="8.4312436"><ele>5.833333333333333</ele><time>2026-05-02T09:40:31.531Z</time></trkpt><trkpt lat="40.0215494" lon="8.4313503"><ele>5.666666666666667</ele><time>2026-05-02T09:40:32.532Z</time></trkpt><trkpt lat="40.0215928" lon="8.4314556"><ele>5.5</ele><time>2026-05-02T09:40:33.533Z</time></trkpt><trkpt lat="40.0216369" lon="8.4315589"><ele>5.333333333333334</ele><time>2026-05-02T09:40:34.532Z</time></trkpt><trkpt lat="40.0216757" lon="8.4316598"><ele>5.166666666666667</ele><time>2026-05-02T09:40:35.532Z</time></trkpt><trkpt lat="40.0217104" lon="8.4317524"><ele>5.0</ele><time>2026-05-02T09:40:36.533Z</time></trkpt><trkpt lat="40.0217537" lon="8.4318463"><ele>5.0</ele><time>2026-05-02T09:40:37.532Z</time></trkpt><trkpt lat="40.0217947" lon="8.4319405"><ele>5.0</ele><time>2026-05-02T09:40:38.532Z</time></trkpt><trkpt lat="40.0218372" lon="8.4320369"><ele>5.0</ele><time>2026-05-02T09:40:39.533Z</time></trkpt><trkpt lat="40.0218845" lon="8.4321334"><ele>5.0</ele><time>2026-05-02T09:40:40.532Z</time></trkpt><trkpt lat="40.0219352" lon="8.4322276"><ele>5.0</ele><time>2026-05-02T09:40:41.532Z</time></trkpt><trkpt lat="40.0219866" lon="8.4323218"><ele>5.0</ele><time>2026-05-02T09:40:42.531Z</time></trkpt><trkpt lat="40.0220387" lon="8.4324144"><ele>4.666666666666667</ele><time>2026-05-02T09:40:43.532Z</time></trkpt><trkpt lat="40.0220909" lon="8.4325085"><ele>4.333333333333334</ele><time>2026-05-02T09:40:44.532Z</time></trkpt><trkpt lat="40.022144" lon="8.4326016"><ele>4.0</ele><time>2026-05-02T09:40:45.531Z</time></trkpt><trkpt lat="40.022199" lon="8.4326943"><ele>3.666666666666667</ele><time>2026-05-02T09:40:46.532Z</time></trkpt><trkpt lat="40.0222624" lon="8.43278"><ele>3.3333333333333335</ele><time>2026-05-02T09:40:47.532Z</time></trkpt><trkpt lat="40.0223256" lon="8.4328613"><ele>3.0</ele><time>2026-05-02T09:40:48.532Z</time></trkpt><trkpt lat="40.0223841" lon="8.4329214"><ele>2.8333333333333335</ele><time>2026-05-02T09:40:49.532Z</time></trkpt><trkpt lat="40.0224444" lon="8.4329878"><ele>2.6666666666666665</ele><time>2026-05-02T09:40:50.532Z</time></trkpt><trkpt lat="40.0225031" lon="8.4330517"><ele>2.5</ele><time>2026-05-02T09:40:51.533Z</time></trkpt><trkpt lat="40.0225569" lon="8.4331236"><ele>2.333333333333333</ele><time>2026-05-02T09:40:52.533Z</time></trkpt><trkpt lat="40.0226099" lon="8.4331969"><ele>2.1666666666666665</ele><time>2026-05-02T09:40:53.531Z</time></trkpt><trkpt lat="40.0226558" lon="8.4332752"><ele>2.0</ele><time>2026-05-02T09:40:54.532Z</time></trkpt><trkpt lat="40.0227023" lon="8.4333544"><ele>1.8333333333333333</ele><time>2026-05-02T09:40:55.532Z</time></trkpt><trkpt lat="40.0227469" lon="8.4334403"><ele>1.6666666666666665</ele><time>2026-05-02T09:40:56.532Z</time></trkpt><trkpt lat="40.0227981" lon="8.4335242"><ele>1.5</ele><time>2026-05-02T09:40:57.532Z</time></trkpt><trkpt lat="40.0228523" lon="8.4336067"><ele>1.3333333333333333</ele><time>2026-05-02T09:40:58.532Z</time></trkpt><trkpt lat="40.0229075" lon="8.4336913"><ele>1.1666666666666665</ele><time>2026-05-02T09:40:59.531Z</time></trkpt><trkpt lat="40.0229667" lon="8.4337787"><ele>1.0</ele><time>2026-05-02T09:41:00.533Z</time></trkpt><trkpt lat="40.0230254" lon="8.433864"><ele>0.9999999999999999</ele><time>2026-05-02T09:41:01.532Z</time></trkpt><trkpt lat="40.0230822" lon="8.4339503"><ele>1.0</ele><time>2026-05-02T09:41:02.532Z</time></trkpt><trkpt lat="40.0231418" lon="8.4340388"><ele>1.0</ele><time>2026-05-02T09:41:03.533Z</time></trkpt><trkpt lat="40.0232032" lon="8.4341197"><ele>1.0</ele><time>2026-05-02T09:41:04.532Z</time></trkpt><trkpt lat="40.0232675" lon="8.434188"><ele>0.9999999999999999</ele><time>2026-05-02T09:41:05.531Z</time></trkpt><trkpt lat="40.023331" lon="8.4342468"><ele>1.0</ele><time>2026-05-02T09:41:06.531Z</time></trkpt><trkpt lat="40.0233922" lon="8.4343088"><ele>0.9999999999999999</ele><time>2026-05-02T09:41:07.531Z</time></trkpt><trkpt lat="40.0234542" lon="8.4343731"><ele>1.0</ele><time>2026-05-02T09:41:08.533Z</time></trkpt><trkpt lat="40.0235201" lon="8.4344371"><ele>1.0</ele><time>2026-05-02T09:41:09.531Z</time></trkpt><trkpt lat="40.0235873" lon="8.4345063"><ele>1.0</ele><time>2026-05-02T09:41:10.532Z</time></trkpt><trkpt lat="40.0236568" lon="8.4345773"><ele>0.9999999999999999</ele><time>2026-05-02T09:41:11.532Z</time></trkpt><trkpt lat="40.0237274" lon="8.434649"><ele>1.0</ele><time>2026-05-02T09:41:12.532Z</time></trkpt><trkpt lat="40.0237935" lon="8.4347193"><ele>0.9999999999999999</ele><time>2026-05-02T09:41:13.533Z</time></trkpt><trkpt lat="40.0238581" lon="8.4347842"><ele>1.0</ele><time>2026-05-02T09:41:14.532Z</time></trkpt><trkpt lat="40.0239202" lon="8.4348526"><ele>1.0</ele><time>2026-05-02T09:41:15.532Z</time></trkpt><trkpt lat="40.0239841" lon="8.4349211"><ele>1.0</ele><time>2026-05-02T09:41:16.532Z</time></trkpt><trkpt lat="40.0240507" lon="8.4349897"><ele>0.9999999999999999</ele><time>2026-05-02T09:41:17.532Z</time></trkpt><trkpt lat="40.0241181" lon="8.4350581"><ele>1.0</ele><time>2026-05-02T09:41:18.532Z</time></trkpt><trkpt lat="40.024187" lon="8.435113"><ele>0.8</ele><time>2026-05-02T09:41:19.532Z</time></trkpt><trkpt lat="40.0242481" lon="8.4351505"><ele>0.6000000000000001</ele><time>2026-05-02T09:41:20.532Z</time></trkpt><trkpt lat="40.0243539" lon="8.4351913"><ele>0.4</ele><time>2026-05-02T09:41:22.531Z</time></trkpt><trkpt lat="40.0244498" lon="8.4352578"><ele>0.2</ele><time>2026-05-02T09:41:24.532Z</time></trkpt><trkpt lat="40.0245333" lon="8.4353563"><ele>0.0</ele><time>2026-05-02T09:41:26.532Z</time></trkpt><trkpt lat="40.0246" lon="8.4354695"><ele>0.0</ele><time>2026-05-02T09:41:28.531Z</time></trkpt><trkpt lat="40.0246525" lon="8.4355715"><ele>0.0</ele><time>2026-05-02T09:41:30.532Z</time></trkpt><trkpt lat="40.024694" lon="8.4356379"><ele>0.0</ele><time>2026-05-02T09:41:32.532Z</time></trkpt><trkpt lat="40.0247359" lon="8.4357014"><ele>0.0</ele><time>2026-05-02T09:41:35.532Z</time></trkpt><trkpt lat="40.0247919" lon="8.4358123"><ele>0.0</ele><time>2026-05-02T09:41:38.533Z</time></trkpt><trkpt lat="40.0248498" lon="8.4359202"><ele>0.0</ele><time>2026-05-02T09:41:40.532Z</time></trkpt><trkpt lat="40.0249287" lon="8.4360164"><ele>0.0</ele><time>2026-05-02T09:41:42.531Z</time></trkpt><trkpt lat="40.025003" lon="8.4361088"><ele>0.0</ele><time>2026-05-02T09:41:44.531Z</time></trkpt><trkpt lat="40.0250807" lon="8.4362064"><ele>0.0</ele><time>2026-05-02T09:41:46.532Z</time></trkpt><trkpt lat="40.0251691" lon="8.4362638"><ele>0.0</ele><time>2026-05-02T09:41:48.531Z</time></trkpt><trkpt lat="40.0252719" lon="8.4363413"><ele>0.0</ele><time>2026-05-02T09:41:50.532Z</time></trkpt><trkpt lat="40.0253414" lon="8.4364185"><ele>0.2</ele><time>2026-05-02T09:41:52.532Z</time></trkpt><trkpt lat="40.0253793" lon="8.4365094"><ele>0.4</ele><time>2026-05-02T09:41:54.533Z</time></trkpt><trkpt lat="40.0254188" lon="8.4366528"><ele>0.6000000000000001</ele><time>2026-05-02T09:41:56.532Z</time></trkpt><trkpt lat="40.0254266" lon="8.4367429"><ele>0.8</ele><time>2026-05-02T09:41:57.531Z</time></trkpt><trkpt lat="40.025426" lon="8.4368567"><ele>1.0</ele><time>2026-05-02T09:41:58.532Z</time></trkpt><trkpt lat="40.0254206" lon="8.4369838"><ele>1.0</ele><time>2026-05-02T09:41:59.531Z</time></trkpt><trkpt lat="40.0254122" lon="8.4371223"><ele>1.0</ele><time>2026-05-02T09:42:00.533Z</time></trkpt><trkpt lat="40.0254012" lon="8.4372717"><ele>1.0</ele><time>2026-05-02T09:42:01.532Z</time></trkpt><trkpt lat="40.0253892" lon="8.4374269"><ele>1.0</ele><time>2026-05-02T09:42:02.531Z</time></trkpt><trkpt lat="40.025373" lon="8.4375905"><ele>1.0</ele><time>2026-05-02T09:42:03.531Z</time></trkpt><trkpt lat="40.0253568" lon="8.4377616"><ele>1.0</ele><time>2026-05-02T09:42:04.532Z</time></trkpt><trkpt lat="40.0253414" lon="8.4379386"><ele>1.0</ele><time>2026-05-02T09:42:05.531Z</time></trkpt><trkpt lat="40.0253243" lon="8.4381235"><ele>1.0</ele><time>2026-05-02T09:42:06.531Z</time></trkpt><trkpt lat="40.0253053" lon="8.4383124"><ele>1.0</ele><time>2026-05-02T09:42:07.532Z</time></trkpt><trkpt lat="40.0252847" lon="8.4385038"><ele>1.0</ele><time>2026-05-02T09:42:08.531Z</time></trkpt><trkpt lat="40.0252626" lon="8.4386952"><ele>1.0</ele><time>2026-05-02T09:42:09.53Z</time></trkpt><trkpt lat="40.0252417" lon="8.4388917"><ele>1.0</ele><time>2026-05-02T09:42:10.531Z</time></trkpt><trkpt lat="40.0252205" lon="8.4390909"><ele>1.0</ele><time>2026-05-02T09:42:11.53Z</time></trkpt><trkpt lat="40.0251994" lon="8.4392924"><ele>1.0</ele><time>2026-05-02T09:42:12.53Z</time></trkpt><trkpt lat="40.0251741" lon="8.4394962"><ele>1.0</ele><time>2026-05-02T09:42:13.53Z</time></trkpt><trkpt lat="40.0251402" lon="8.4397017"><ele>2.0</ele><time>2026-05-02T09:42:14.531Z</time></trkpt><trkpt lat="40.0250944" lon="8.4399041"><ele>3.0</ele><time>2026-05-02T09:42:15.531Z</time></trkpt><trkpt lat="40.0250394" lon="8.4401032"><ele>4.0</ele><time>2026-05-02T09:42:16.53Z</time></trkpt><trkpt lat="40.0249838" lon="8.4403033"><ele>4.333333333333333</ele><time>2026-05-02T09:42:17.53Z</time></trkpt><trkpt lat="40.0249288" lon="8.4405041"><ele>4.666666666666667</ele><time>2026-05-02T09:42:18.53Z</time></trkpt><trkpt lat="40.0248758" lon="8.4407062"><ele>5.0</ele><time>2026-05-02T09:42:19.53Z</time></trkpt><trkpt lat="40.0248238" lon="8.4409115"><ele>5.0</ele><time>2026-05-02T09:42:20.53Z</time></trkpt><trkpt lat="40.0247673" lon="8.4411179"><ele>5.0</ele><time>2026-05-02T09:42:21.53Z</time></trkpt><trkpt lat="40.0247102" lon="8.4413245"><ele>5.0</ele><time>2026-05-02T09:42:22.53Z</time></trkpt><trkpt lat="40.0246544" lon="8.4415341"><ele>4.333333333333334</ele><time>2026-05-02T09:42:23.531Z</time></trkpt><trkpt lat="40.0245988" lon="8.441747"><ele>3.666666666666667</ele><time>2026-05-02T09:42:24.531Z</time></trkpt><trkpt lat="40.0245434" lon="8.4419658"><ele>3.0</ele><time>2026-05-02T09:42:25.531Z</time></trkpt><trkpt lat="40.0244828" lon="8.4421864"><ele>2.6666666666666665</ele><time>2026-05-02T09:42:26.532Z</time></trkpt><trkpt lat="40.0244241" lon="8.4424054"><ele>2.333333333333333</ele><time>2026-05-02T09:42:27.532Z</time></trkpt><trkpt lat="40.0243715" lon="8.4426247"><ele>2.0</ele><time>2026-05-02T09:42:28.531Z</time></trkpt><trkpt lat="40.0243179" lon="8.4428445"><ele>2.0</ele><time>2026-05-02T09:42:29.532Z</time></trkpt><trkpt lat="40.0242492" lon="8.4430777"><ele>2.0</ele><time>2026-05-02T09:42:30.531Z</time></trkpt><trkpt lat="40.0241851" lon="8.4433097"><ele>2.0</ele><time>2026-05-02T09:42:31.531Z</time></trkpt><trkpt lat="40.0241198" lon="8.4435411"><ele>2.0</ele><time>2026-05-02T09:42:32.532Z</time></trkpt><trkpt lat="40.0240589" lon="8.4437753"><ele>2.0</ele><time>2026-05-02T09:42:33.531Z</time></trkpt><trkpt lat="40.0239969" lon="8.4440095"><ele>2.0</ele><time>2026-05-02T09:42:34.531Z</time></trkpt><trkpt lat="40.0239339" lon="8.4442427"><ele>2.6666666666666665</ele><time>2026-05-02T09:42:35.531Z</time></trkpt><trkpt lat="40.023871" lon="8.4444782"><ele>3.333333333333333</ele><time>2026-05-02T09:42:36.531Z</time></trkpt><trkpt lat="40.0238085" lon="8.4447171"><ele>4.0</ele><time>2026-05-02T09:42:37.531Z</time></trkpt><trkpt lat="40.0237472" lon="8.4449493"><ele>4.333333333333333</ele><time>2026-05-02T09:42:38.531Z</time></trkpt><trkpt lat="40.0236837" lon="8.4451824"><ele>4.666666666666667</ele><time>2026-05-02T09:42:39.532Z</time></trkpt><trkpt lat="40.0236198" lon="8.4454104"><ele>5.0</ele><time>2026-05-02T09:42:40.53Z</time></trkpt><trkpt lat="40.0235581" lon="8.4456385"><ele>5.0</ele><time>2026-05-02T09:42:41.531Z</time></trkpt><trkpt lat="40.0234988" lon="8.445868"><ele>5.0</ele><time>2026-05-02T09:42:42.53Z</time></trkpt><trkpt lat="40.0234398" lon="8.4460957"><ele>5.0</ele><time>2026-05-02T09:42:43.532Z</time></trkpt><trkpt lat="40.0233778" lon="8.4463232"><ele>5.0</ele><time>2026-05-02T09:42:44.531Z</time></trkpt><trkpt lat="40.0233177" lon="8.446551"><ele>5.0</ele><time>2026-05-02T09:42:45.532Z</time></trkpt><trkpt lat="40.0232571" lon="8.446779"><ele>5.0</ele><time>2026-05-02T09:42:46.531Z</time></trkpt><trkpt lat="40.0231976" lon="8.4470054"><ele>5.0</ele><time>2026-05-02T09:42:47.531Z</time></trkpt><trkpt lat="40.0231389" lon="8.4472287"><ele>5.0</ele><time>2026-05-02T09:42:48.531Z</time></trkpt><trkpt lat="40.0230801" lon="8.4474559"><ele>5.0</ele><time>2026-05-02T09:42:49.531Z</time></trkpt><trkpt lat="40.0230184" lon="8.4476789"><ele>5.0</ele><time>2026-05-02T09:42:50.531Z</time></trkpt><trkpt lat="40.0229585" lon="8.4479047"><ele>5.0</ele><time>2026-05-02T09:42:51.531Z</time></trkpt><trkpt lat="40.0229" lon="8.4481291"><ele>5.0</ele><time>2026-05-02T09:42:52.53Z</time></trkpt><trkpt lat="40.0228426" lon="8.4483533"><ele>5.0</ele><time>2026-05-02T09:42:53.532Z</time></trkpt><trkpt lat="40.0227826" lon="8.448575"><ele>5.0</ele><time>2026-05-02T09:42:54.53Z</time></trkpt><trkpt lat="40.0227237" lon="8.4487966"><ele>5.0</ele><time>2026-05-02T09:42:55.53Z</time></trkpt><trkpt lat="40.0226642" lon="8.4490172"><ele>5.333333333333334</ele><time>2026-05-02T09:42:56.531Z</time></trkpt><trkpt lat="40.0226054" lon="8.4492401"><ele>5.666666666666667</ele><time>2026-05-02T09:42:57.532Z</time></trkpt><trkpt lat="40.0225449" lon="8.4494631"><ele>6.0</ele><time>2026-05-02T09:42:58.531Z</time></trkpt><trkpt lat="40.0224833" lon="8.4496869"><ele>6.333333333333334</ele><time>2026-05-02T09:42:59.531Z</time></trkpt><trkpt lat="40.0224235" lon="8.449908"><ele>6.666666666666667</ele><time>2026-05-02T09:43:00.531Z</time></trkpt><trkpt lat="40.022365" lon="8.4501302"><ele>7.0</ele><time>2026-05-02T09:43:01.531Z</time></trkpt><trkpt lat="40.0223081" lon="8.4503545"><ele>6.666666666666667</ele><time>2026-05-02T09:43:02.531Z</time></trkpt><trkpt lat="40.0222497" lon="8.4505783"><ele>6.333333333333334</ele><time>2026-05-02T09:43:03.532Z</time></trkpt><trkpt lat="40.0221903" lon="8.4508064"><ele>6.0</ele><time>2026-05-02T09:43:04.53Z</time></trkpt><trkpt lat="40.0221289" lon="8.4510327"><ele>6.0</ele><time>2026-05-02T09:43:05.53Z</time></trkpt><trkpt lat="40.0220694" lon="8.4512588"><ele>6.0</ele><time>2026-05-02T09:43:06.531Z</time></trkpt><trkpt lat="40.0220085" lon="8.451486"><ele>6.0</ele><time>2026-05-02T09:43:07.531Z</time></trkpt><trkpt lat="40.0219483" lon="8.4517115"><ele>6.0</ele><time>2026-05-02T09:43:08.532Z</time></trkpt><trkpt lat="40.0218912" lon="8.4519388"><ele>6.0</ele><time>2026-05-02T09:43:09.53Z</time></trkpt><trkpt lat="40.0218322" lon="8.4521645"><ele>6.0</ele><time>2026-05-02T09:43:10.53Z</time></trkpt><trkpt lat="40.0217731" lon="8.4523864"><ele>6.333333333333334</ele><time>2026-05-02T09:43:11.532Z</time></trkpt><trkpt lat="40.021716" lon="8.4526095"><ele>6.666666666666667</ele><time>2026-05-02T09:43:12.532Z</time></trkpt><trkpt lat="40.0216609" lon="8.452834"><ele>7.0</ele><time>2026-05-02T09:43:13.531Z</time></trkpt><trkpt lat="40.0216113" lon="8.4530597"><ele>7.0</ele><time>2026-05-02T09:43:14.53Z</time></trkpt><trkpt lat="40.0215699" lon="8.4532882"><ele>7.0</ele><time>2026-05-02T09:43:15.531Z</time></trkpt><trkpt lat="40.0215364" lon="8.4535161"><ele>7.0</ele><time>2026-05-02T09:43:16.53Z</time></trkpt><trkpt lat="40.0215037" lon="8.4537455"><ele>6.666666666666667</ele><time>2026-05-02T09:43:17.532Z</time></trkpt><trkpt lat="40.0214775" lon="8.4539769"><ele>6.333333333333334</ele><time>2026-05-02T09:43:18.531Z</time></trkpt><trkpt lat="40.0214581" lon="8.454211"><ele>6.0</ele><time>2026-05-02T09:43:19.532Z</time></trkpt><trkpt lat="40.0214465" lon="8.4544476"><ele>6.0</ele><time>2026-05-02T09:43:20.532Z</time></trkpt><trkpt lat="40.0214389" lon="8.4546802"><ele>6.0</ele><time>2026-05-02T09:43:21.531Z</time></trkpt><trkpt lat="40.0214378" lon="8.4549188"><ele>6.0</ele><time>2026-05-02T09:43:22.531Z</time></trkpt><trkpt lat="40.0214397" lon="8.4551559"><ele>6.0</ele><time>2026-05-02T09:43:23.531Z</time></trkpt><trkpt lat="40.0214468" lon="8.4553941"><ele>6.0</ele><time>2026-05-02T09:43:24.532Z</time></trkpt><trkpt lat="40.0214529" lon="8.4556314"><ele>6.0</ele><time>2026-05-02T09:43:25.531Z</time></trkpt><trkpt lat="40.021459" lon="8.4558684"><ele>6.0</ele><time>2026-05-02T09:43:26.531Z</time></trkpt><trkpt lat="40.0214648" lon="8.4561034"><ele>6.0</ele><time>2026-05-02T09:43:27.53Z</time></trkpt><trkpt lat="40.0214697" lon="8.4563387"><ele>6.0</ele><time>2026-05-02T09:43:28.53Z</time></trkpt><trkpt lat="40.0214758" lon="8.4565706"><ele>6.0</ele><time>2026-05-02T09:43:29.532Z</time></trkpt><trkpt lat="40.0214838" lon="8.456803"><ele>6.0</ele><time>2026-05-02T09:43:30.531Z</time></trkpt><trkpt lat="40.0214899" lon="8.4570361"><ele>6.0</ele><time>2026-05-02T09:43:31.53Z</time></trkpt><trkpt lat="40.0214955" lon="8.4572703"><ele>6.0</ele><time>2026-05-02T09:43:32.531Z</time></trkpt><trkpt lat="40.0215013" lon="8.457502"><ele>6.0</ele><time>2026-05-02T09:43:33.531Z</time></trkpt><trkpt lat="40.0215083" lon="8.4577368"><ele>6.0</ele><time>2026-05-02T09:43:34.531Z</time></trkpt><trkpt lat="40.0215139" lon="8.4579699"><ele>6.0</ele><time>2026-05-02T09:43:35.531Z</time></trkpt><trkpt lat="40.0215198" lon="8.4581968"><ele>6.0</ele><time>2026-05-02T09:43:36.531Z</time></trkpt><trkpt lat="40.0215277" lon="8.4584263"><ele>6.0</ele><time>2026-05-02T09:43:37.531Z</time></trkpt><trkpt lat="40.021534" lon="8.4586571"><ele>6.333333333333334</ele><time>2026-05-02T09:43:38.531Z</time></trkpt><trkpt lat="40.0215395" lon="8.4588891"><ele>6.666666666666667</ele><time>2026-05-02T09:43:39.531Z</time></trkpt><trkpt lat="40.0215445" lon="8.4591215"><ele>7.0</ele><time>2026-05-02T09:43:40.53Z</time></trkpt><trkpt lat="40.0215485" lon="8.4593546"><ele>7.0</ele><time>2026-05-02T09:43:41.532Z</time></trkpt><trkpt lat="40.021554" lon="8.4595878"><ele>7.0</ele><time>2026-05-02T09:43:42.532Z</time></trkpt><trkpt lat="40.0215612" lon="8.4598229"><ele>7.0</ele><time>2026-05-02T09:43:43.531Z</time></trkpt><trkpt lat="40.0215665" lon="8.4600558"><ele>7.0</ele><time>2026-05-02T09:43:44.531Z</time></trkpt><trkpt lat="40.0215725" lon="8.4602899"><ele>7.0</ele><time>2026-05-02T09:43:45.531Z</time></trkpt><trkpt lat="40.0215857" lon="8.4605282"><ele>7.0</ele><time>2026-05-02T09:43:46.531Z</time></trkpt><trkpt lat="40.0216145" lon="8.4607633"><ele>6.333333333333334</ele><time>2026-05-02T09:43:47.531Z</time></trkpt><trkpt lat="40.0216533" lon="8.460992"><ele>5.666666666666667</ele><time>2026-05-02T09:43:48.53Z</time></trkpt><trkpt lat="40.0216957" lon="8.461221"><ele>5.0</ele><time>2026-05-02T09:43:49.531Z</time></trkpt><trkpt lat="40.02174" lon="8.4614519"><ele>5.0</ele><time>2026-05-02T09:43:50.532Z</time></trkpt><trkpt lat="40.0217856" lon="8.4616794"><ele>5.0</ele><time>2026-05-02T09:43:51.532Z</time></trkpt><trkpt lat="40.0218308" lon="8.4619074"><ele>5.0</ele><time>2026-05-02T09:43:52.531Z</time></trkpt><trkpt lat="40.0218799" lon="8.4621364"><ele>4.666666666666667</ele><time>2026-05-02T09:43:53.531Z</time></trkpt><trkpt lat="40.0219242" lon="8.4623646"><ele>4.333333333333333</ele><time>2026-05-02T09:43:54.532Z</time></trkpt><trkpt lat="40.0219648" lon="8.4625965"><ele>4.0</ele><time>2026-05-02T09:43:55.53Z</time></trkpt><trkpt lat="40.0219951" lon="8.4628308"><ele>4.333333333333333</ele><time>2026-05-02T09:43:56.531Z</time></trkpt><trkpt lat="40.0220141" lon="8.4630692"><ele>4.666666666666667</ele><time>2026-05-02T09:43:57.531Z</time></trkpt><trkpt lat="40.0220255" lon="8.4633084"><ele>5.0</ele><time>2026-05-02T09:43:58.531Z</time></trkpt><trkpt lat="40.0220341" lon="8.4635478"><ele>5.333333333333334</ele><time>2026-05-02T09:43:59.531Z</time></trkpt><trkpt lat="40.0220417" lon="8.4637867"><ele>5.666666666666667</ele><time>2026-05-02T09:44:00.532Z</time></trkpt><trkpt lat="40.0220484" lon="8.4640265"><ele>6.0</ele><time>2026-05-02T09:44:01.531Z</time></trkpt><trkpt lat="40.0220558" lon="8.464267"><ele>6.0</ele><time>2026-05-02T09:44:02.531Z</time></trkpt><trkpt lat="40.0220658" lon="8.4645087"><ele>6.0</ele><time>2026-05-02T09:44:03.531Z</time></trkpt><trkpt lat="40.0220745" lon="8.4647491"><ele>6.0</ele><time>2026-05-02T09:44:04.532Z</time></trkpt><trkpt lat="40.0220822" lon="8.4649884"><ele>5.333333333333333</ele><time>2026-05-02T09:44:05.531Z</time></trkpt><trkpt lat="40.022089" lon="8.4652274"><ele>4.666666666666666</ele><time>2026-05-02T09:44:06.531Z</time></trkpt><trkpt lat="40.022098" lon="8.4654647"><ele>4.0</ele><time>2026-05-02T09:44:07.531Z</time></trkpt><trkpt lat="40.0221067" lon="8.4657026"><ele>4.0</ele><time>2026-05-02T09:44:08.531Z</time></trkpt><trkpt lat="40.0221152" lon="8.4659412"><ele>4.0</ele><time>2026-05-02T09:44:09.531Z</time></trkpt><trkpt lat="40.0221239" lon="8.4661824"><ele>4.0</ele><time>2026-05-02T09:44:10.531Z</time></trkpt><trkpt lat="40.0221323" lon="8.4664216"><ele>4.666666666666666</ele><time>2026-05-02T09:44:11.532Z</time></trkpt><trkpt lat="40.0221399" lon="8.4666611"><ele>5.333333333333333</ele><time>2026-05-02T09:44:12.531Z</time></trkpt><trkpt lat="40.0221477" lon="8.4669004"><ele>6.0</ele><time>2026-05-02T09:44:13.531Z</time></trkpt><trkpt lat="40.0221582" lon="8.4671435"><ele>6.0</ele><time>2026-05-02T09:44:14.531Z</time></trkpt><trkpt lat="40.0221663" lon="8.4673837"><ele>6.0</ele><time>2026-05-02T09:44:15.531Z</time></trkpt><trkpt lat="40.0221743" lon="8.467625"><ele>6.0</ele><time>2026-05-02T09:44:16.53Z</time></trkpt><trkpt lat="40.02218" lon="8.467868"><ele>5.333333333333333</ele><time>2026-05-02T09:44:17.531Z</time></trkpt><trkpt lat="40.0221856" lon="8.4681098"><ele>4.666666666666666</ele><time>2026-05-02T09:44:18.531Z</time></trkpt><trkpt lat="40.0221946" lon="8.4683521"><ele>4.0</ele><time>2026-05-02T09:44:19.531Z</time></trkpt><trkpt lat="40.022202" lon="8.468594"><ele>4.333333333333333</ele><time>2026-05-02T09:44:20.53Z</time></trkpt><trkpt lat="40.0222116" lon="8.4688369"><ele>4.666666666666667</ele><time>2026-05-02T09:44:21.53Z</time></trkpt><trkpt lat="40.022221" lon="8.4690808"><ele>5.0</ele><time>2026-05-02T09:44:22.532Z</time></trkpt><trkpt lat="40.02223" lon="8.4693228"><ele>5.0</ele><time>2026-05-02T09:44:23.531Z</time></trkpt><trkpt lat="40.0222391" lon="8.4695622"><ele>5.0</ele><time>2026-05-02T09:44:24.532Z</time></trkpt><trkpt lat="40.022246" lon="8.4698035"><ele>5.0</ele><time>2026-05-02T09:44:25.531Z</time></trkpt><trkpt lat="40.0222544" lon="8.4700457"><ele>5.0</ele><time>2026-05-02T09:44:26.53Z</time></trkpt><trkpt lat="40.022261" lon="8.4702901"><ele>5.0</ele><time>2026-05-02T09:44:27.53Z</time></trkpt><trkpt lat="40.0222681" lon="8.4705319"><ele>5.0</ele><time>2026-05-02T09:44:28.53Z</time></trkpt><trkpt lat="40.0222753" lon="8.4707734"><ele>5.0</ele><time>2026-05-02T09:44:29.53Z</time></trkpt><trkpt lat="40.022282" lon="8.471016"><ele>5.0</ele><time>2026-05-02T09:44:30.531Z</time></trkpt><trkpt lat="40.0222901" lon="8.4712561"><ele>5.0</ele><time>2026-05-02T09:44:31.53Z</time></trkpt><trkpt lat="40.0222979" lon="8.471498"><ele>5.0</ele><time>2026-05-02T09:44:32.531Z</time></trkpt><trkpt lat="40.0223058" lon="8.4717373"><ele>5.0</ele><time>2026-05-02T09:44:33.531Z</time></trkpt><trkpt lat="40.0223137" lon="8.4719799"><ele>5.0</ele><time>2026-05-02T09:44:34.531Z</time></trkpt><trkpt lat="40.0223239" lon="8.4722232"><ele>5.0</ele><time>2026-05-02T09:44:35.531Z</time></trkpt><trkpt lat="40.0223304" lon="8.4724666"><ele>5.0</ele><time>2026-05-02T09:44:36.532Z</time></trkpt><trkpt lat="40.0223369" lon="8.4727109"><ele>5.0</ele><time>2026-05-02T09:44:37.531Z</time></trkpt><trkpt lat="40.0223445" lon="8.4729571"><ele>5.333333333333334</ele><time>2026-05-02T09:44:38.532Z</time></trkpt><trkpt lat="40.0223547" lon="8.4732003"><ele>5.666666666666667</ele><time>2026-05-02T09:44:39.531Z</time></trkpt><trkpt lat="40.0223641" lon="8.4734401"><ele>6.0</ele><time>2026-05-02T09:44:40.531Z</time></trkpt><trkpt lat="40.022373" lon="8.4736792"><ele>6.666666666666666</ele><time>2026-05-02T09:44:41.531Z</time></trkpt><trkpt lat="40.0223795" lon="8.4739177"><ele>7.333333333333333</ele><time>2026-05-02T09:44:42.531Z</time></trkpt><trkpt lat="40.0223846" lon="8.4741551"><ele>8.0</ele><time>2026-05-02T09:44:43.531Z</time></trkpt><trkpt lat="40.0223861" lon="8.4743947"><ele>8.666666666666666</ele><time>2026-05-02T09:44:44.532Z</time></trkpt><trkpt lat="40.0223798" lon="8.4746343"><ele>9.333333333333334</ele><time>2026-05-02T09:44:45.531Z</time></trkpt><trkpt lat="40.0223656" lon="8.4748761"><ele>10.0</ele><time>2026-05-02T09:44:46.531Z</time></trkpt><trkpt lat="40.0223423" lon="8.4751166"><ele>10.0</ele><time>2026-05-02T09:44:47.531Z</time></trkpt><trkpt lat="40.0223212" lon="8.4753577"><ele>10.0</ele><time>2026-05-02T09:44:48.53Z</time></trkpt><trkpt lat="40.0222976" lon="8.4755991"><ele>10.0</ele><time>2026-05-02T09:44:49.53Z</time></trkpt><trkpt lat="40.0222742" lon="8.4758429"><ele>10.0</ele><time>2026-05-02T09:44:50.532Z</time></trkpt><trkpt lat="40.0222501" lon="8.4760854"><ele>10.0</ele><time>2026-05-02T09:44:51.53Z</time></trkpt><trkpt lat="40.022226" lon="8.4763283"><ele>10.0</ele><time>2026-05-02T09:44:52.532Z</time></trkpt><trkpt lat="40.0222012" lon="8.4765717"><ele>10.0</ele><time>2026-05-02T09:44:53.532Z</time></trkpt><trkpt lat="40.0221781" lon="8.4768173"><ele>10.0</ele><time>2026-05-02T09:44:54.53Z</time></trkpt><trkpt lat="40.0221557" lon="8.4770611"><ele>10.0</ele><time>2026-05-02T09:44:55.531Z</time></trkpt><trkpt lat="40.0221335" lon="8.4773039"><ele>9.666666666666668</ele><time>2026-05-02T09:44:56.532Z</time></trkpt><trkpt lat="40.0221126" lon="8.4775437"><ele>9.333333333333334</ele><time>2026-05-02T09:44:57.531Z</time></trkpt><trkpt lat="40.0220926" lon="8.4777851"><ele>9.0</ele><time>2026-05-02T09:44:58.53Z</time></trkpt><trkpt lat="40.0220705" lon="8.4780272"><ele>9.0</ele><time>2026-05-02T09:44:59.531Z</time></trkpt><trkpt lat="40.022046" lon="8.4782685"><ele>9.0</ele><time>2026-05-02T09:45:00.53Z</time></trkpt><trkpt lat="40.0220217" lon="8.4785083"><ele>9.0</ele><time>2026-05-02T09:45:01.53Z</time></trkpt><trkpt lat="40.021991" lon="8.4787484"><ele>8.666666666666666</ele><time>2026-05-02T09:45:02.531Z</time></trkpt><trkpt lat="40.0219474" lon="8.478982"><ele>8.333333333333332</ele><time>2026-05-02T09:45:03.531Z</time></trkpt><trkpt lat="40.0218869" lon="8.4792131"><ele>8.0</ele><time>2026-05-02T09:45:04.53Z</time></trkpt><trkpt lat="40.0218167" lon="8.4794462"><ele>8.0</ele><time>2026-05-02T09:45:05.53Z</time></trkpt><trkpt lat="40.0217444" lon="8.4796748"><ele>8.0</ele><time>2026-05-02T09:45:06.532Z</time></trkpt><trkpt lat="40.0216705" lon="8.4799034"><ele>8.0</ele><time>2026-05-02T09:45:07.53Z</time></trkpt><trkpt lat="40.0215995" lon="8.4801335"><ele>8.0</ele><time>2026-05-02T09:45:08.531Z</time></trkpt><trkpt lat="40.0215318" lon="8.4803631"><ele>8.0</ele><time>2026-05-02T09:45:09.531Z</time></trkpt><trkpt lat="40.0214632" lon="8.4805924"><ele>8.0</ele><time>2026-05-02T09:45:10.53Z</time></trkpt><trkpt lat="40.0213935" lon="8.4808205"><ele>7.666666666666666</ele><time>2026-05-02T09:45:11.532Z</time></trkpt><trkpt lat="40.0213209" lon="8.4810469"><ele>7.333333333333334</ele><time>2026-05-02T09:45:12.53Z</time></trkpt><trkpt lat="40.0212513" lon="8.4812762"><ele>7.0</ele><time>2026-05-02T09:45:13.53Z</time></trkpt><trkpt lat="40.0211801" lon="8.481508"><ele>6.666666666666667</ele><time>2026-05-02T09:45:14.531Z</time></trkpt><trkpt lat="40.021107" lon="8.4817385"><ele>6.333333333333334</ele><time>2026-05-02T09:45:15.532Z</time></trkpt><trkpt lat="40.0210319" lon="8.4819712"><ele>6.0</ele><time>2026-05-02T09:45:16.531Z</time></trkpt><trkpt lat="40.0209576" lon="8.482203"><ele>6.666666666666666</ele><time>2026-05-02T09:45:17.531Z</time></trkpt><trkpt lat="40.0208834" lon="8.4824348"><ele>7.333333333333333</ele><time>2026-05-02T09:45:18.532Z</time></trkpt><trkpt lat="40.0208113" lon="8.4826673"><ele>8.0</ele><time>2026-05-02T09:45:19.531Z</time></trkpt><trkpt lat="40.0207436" lon="8.4828958"><ele>8.333333333333332</ele><time>2026-05-02T09:45:20.531Z</time></trkpt><trkpt lat="40.0206772" lon="8.4831234"><ele>8.666666666666666</ele><time>2026-05-02T09:45:21.531Z</time></trkpt><trkpt lat="40.0206157" lon="8.4833549"><ele>9.0</ele><time>2026-05-02T09:45:22.53Z</time></trkpt><trkpt lat="40.0205562" lon="8.483591"><ele>8.666666666666666</ele><time>2026-05-02T09:45:23.531Z</time></trkpt><trkpt lat="40.0205006" lon="8.4838269"><ele>8.333333333333332</ele><time>2026-05-02T09:45:24.531Z</time></trkpt><trkpt lat="40.0204408" lon="8.4840603"><ele>8.0</ele><time>2026-05-02T09:45:25.53Z</time></trkpt><trkpt lat="40.0203845" lon="8.4842911"><ele>8.0</ele><time>2026-05-02T09:45:26.532Z</time></trkpt><trkpt lat="40.0203271" lon="8.4845233"><ele>8.0</ele><time>2026-05-02T09:45:27.531Z</time></trkpt><trkpt lat="40.0202713" lon="8.4847556"><ele>8.0</ele><time>2026-05-02T09:45:28.531Z</time></trkpt><trkpt lat="40.0202149" lon="8.4849885"><ele>7.666666666666666</ele><time>2026-05-02T09:45:29.532Z</time></trkpt><trkpt lat="40.0201595" lon="8.4852217"><ele>7.333333333333334</ele><time>2026-05-02T09:45:30.531Z</time></trkpt><trkpt lat="40.0201044" lon="8.4854559"><ele>7.0</ele><time>2026-05-02T09:45:31.53Z</time></trkpt><trkpt lat="40.0200503" lon="8.48569"><ele>7.0</ele><time>2026-05-02T09:45:32.53Z</time></trkpt><trkpt lat="40.0199948" lon="8.4859256"><ele>7.0</ele><time>2026-05-02T09:45:33.531Z</time></trkpt><trkpt lat="40.0199388" lon="8.4861614"><ele>7.0</ele><time>2026-05-02T09:45:34.53Z</time></trkpt><trkpt lat="40.0198816" lon="8.4863977"><ele>7.333333333333334</ele><time>2026-05-02T09:45:35.531Z</time></trkpt><trkpt lat="40.019826" lon="8.4866354"><ele>7.666666666666666</ele><time>2026-05-02T09:45:36.53Z</time></trkpt><trkpt lat="40.0197679" lon="8.4868711"><ele>8.0</ele><time>2026-05-02T09:45:37.531Z</time></trkpt><trkpt lat="40.0197101" lon="8.4871022"><ele>8.666666666666666</ele><time>2026-05-02T09:45:38.531Z</time></trkpt><trkpt lat="40.0196585" lon="8.4873264"><ele>9.333333333333334</ele><time>2026-05-02T09:45:39.53Z</time></trkpt><trkpt lat="40.0196039" lon="8.4875484"><ele>10.0</ele><time>2026-05-02T09:45:40.531Z</time></trkpt><trkpt lat="40.0195499" lon="8.4877724"><ele>10.666666666666668</ele><time>2026-05-02T09:45:41.531Z</time></trkpt><trkpt lat="40.0194954" lon="8.487991"><ele>11.333333333333334</ele><time>2026-05-02T09:45:42.532Z</time></trkpt><trkpt lat="40.0194445" lon="8.4882135"><ele>12.0</ele><time>2026-05-02T09:45:43.531Z</time></trkpt><trkpt lat="40.019394" lon="8.4884352"><ele>12.0</ele><time>2026-05-02T09:45:44.532Z</time></trkpt><trkpt lat="40.0193344" lon="8.4886565"><ele>12.0</ele><time>2026-05-02T09:45:45.53Z</time></trkpt><trkpt lat="40.0192734" lon="8.4888789"><ele>12.0</ele><time>2026-05-02T09:45:46.532Z</time></trkpt><trkpt lat="40.0192118" lon="8.4891042"><ele>12.0</ele><time>2026-05-02T09:45:47.531Z</time></trkpt><trkpt lat="40.0191517" lon="8.4893313"><ele>12.0</ele><time>2026-05-02T09:45:48.531Z</time></trkpt><trkpt lat="40.0190962" lon="8.489556"><ele>12.0</ele><time>2026-05-02T09:45:49.531Z</time></trkpt><trkpt lat="40.0190393" lon="8.4897834"><ele>12.333333333333332</ele><time>2026-05-02T09:45:50.53Z</time></trkpt><trkpt lat="40.0189805" lon="8.490009"><ele>12.666666666666666</ele><time>2026-05-02T09:45:51.531Z</time></trkpt><trkpt lat="40.0189216" lon="8.4902325"><ele>13.0</ele><time>2026-05-02T09:45:52.532Z</time></trkpt><trkpt lat="40.0188637" lon="8.490457"><ele>13.0</ele><time>2026-05-02T09:45:53.531Z</time></trkpt><trkpt lat="40.0188061" lon="8.4906814"><ele>13.0</ele><time>2026-05-02T09:45:54.531Z</time></trkpt><trkpt lat="40.0187483" lon="8.4909034"><ele>13.0</ele><time>2026-05-02T09:45:55.531Z</time></trkpt><trkpt lat="40.0186905" lon="8.4911299"><ele>12.666666666666666</ele><time>2026-05-02T09:45:56.53Z</time></trkpt><trkpt lat="40.0186324" lon="8.4913573"><ele>12.333333333333332</ele><time>2026-05-02T09:45:57.531Z</time></trkpt><trkpt lat="40.0185742" lon="8.4915835"><ele>12.0</ele><time>2026-05-02T09:45:58.531Z</time></trkpt><trkpt lat="40.0185168" lon="8.4918096"><ele>12.0</ele><time>2026-05-02T09:45:59.532Z</time></trkpt><trkpt lat="40.0184548" lon="8.4920342"><ele>12.0</ele><time>2026-05-02T09:46:00.531Z</time></trkpt><trkpt lat="40.0183944" lon="8.4922602"><ele>12.0</ele><time>2026-05-02T09:46:01.531Z</time></trkpt><trkpt lat="40.0183319" lon="8.4924849"><ele>12.0</ele><time>2026-05-02T09:46:02.531Z</time></trkpt><trkpt lat="40.0182702" lon="8.4927164"><ele>12.0</ele><time>2026-05-02T09:46:03.532Z</time></trkpt><trkpt lat="40.0182062" lon="8.492945"><ele>12.0</ele><time>2026-05-02T09:46:04.531Z</time></trkpt><trkpt lat="40.0181393" lon="8.4931741"><ele>12.0</ele><time>2026-05-02T09:46:05.531Z</time></trkpt><trkpt lat="40.0180676" lon="8.4934039"><ele>12.0</ele><time>2026-05-02T09:46:06.53Z</time></trkpt><trkpt lat="40.0179967" lon="8.493629"><ele>12.0</ele><time>2026-05-02T09:46:07.532Z</time></trkpt><trkpt lat="40.0179197" lon="8.4938503"><ele>12.0</ele><time>2026-05-02T09:46:08.532Z</time></trkpt><trkpt lat="40.0178423" lon="8.4940759"><ele>12.0</ele><time>2026-05-02T09:46:09.531Z</time></trkpt><trkpt lat="40.017767" lon="8.494297"><ele>12.0</ele><time>2026-05-02T09:46:10.531Z</time></trkpt><trkpt lat="40.0176889" lon="8.4945204"><ele>11.666666666666666</ele><time>2026-05-02T09:46:11.532Z</time></trkpt><trkpt lat="40.0176131" lon="8.4947444"><ele>11.333333333333332</ele><time>2026-05-02T09:46:12.531Z</time></trkpt><trkpt lat="40.0175357" lon="8.4949663"><ele>11.0</ele><time>2026-05-02T09:46:13.532Z</time></trkpt><trkpt lat="40.0174597" lon="8.4951902"><ele>11.0</ele><time>2026-05-02T09:46:14.532Z</time></trkpt><trkpt lat="40.0173831" lon="8.4954125"><ele>11.0</ele><time>2026-05-02T09:46:15.531Z</time></trkpt><trkpt lat="40.0173058" lon="8.4956357"><ele>11.0</ele><time>2026-05-02T09:46:16.531Z</time></trkpt><trkpt lat="40.0172283" lon="8.4958565"><ele>11.0</ele><time>2026-05-02T09:46:17.532Z</time></trkpt><trkpt lat="40.0171529" lon="8.4960774"><ele>11.0</ele><time>2026-05-02T09:46:18.53Z</time></trkpt><trkpt lat="40.0170791" lon="8.4962969"><ele>11.0</ele><time>2026-05-02T09:46:19.532Z</time></trkpt><trkpt lat="40.0170067" lon="8.4965162"><ele>11.333333333333332</ele><time>2026-05-02T09:46:20.53Z</time></trkpt><trkpt lat="40.0169307" lon="8.4967333"><ele>11.666666666666666</ele><time>2026-05-02T09:46:21.531Z</time></trkpt><trkpt lat="40.0168565" lon="8.4969522"><ele>12.0</ele><time>2026-05-02T09:46:22.532Z</time></trkpt><trkpt lat="40.0167809" lon="8.4971731"><ele>12.0</ele><time>2026-05-02T09:46:23.532Z</time></trkpt><trkpt lat="40.0167043" lon="8.4973947"><ele>12.0</ele><time>2026-05-02T09:46:24.532Z</time></trkpt><trkpt lat="40.0166268" lon="8.497617"><ele>12.0</ele><time>2026-05-02T09:46:25.53Z</time></trkpt><trkpt lat="40.0165483" lon="8.4978366"><ele>12.0</ele><time>2026-05-02T09:46:26.532Z</time></trkpt><trkpt lat="40.0164756" lon="8.498056"><ele>12.0</ele><time>2026-05-02T09:46:27.53Z</time></trkpt><trkpt lat="40.0164032" lon="8.4982797"><ele>12.0</ele><time>2026-05-02T09:46:28.531Z</time></trkpt><trkpt lat="40.0163291" lon="8.4984998"><ele>12.0</ele><time>2026-05-02T09:46:29.529Z</time></trkpt><trkpt lat="40.0162543" lon="8.4987196"><ele>12.0</ele><time>2026-05-02T09:46:30.53Z</time></trkpt><trkpt lat="40.0161809" lon="8.498942"><ele>12.0</ele><time>2026-05-02T09:46:31.529Z</time></trkpt><trkpt lat="40.0161079" lon="8.4991619"><ele>11.666666666666666</ele><time>2026-05-02T09:46:32.53Z</time></trkpt><trkpt lat="40.0160386" lon="8.4993701"><ele>11.333333333333332</ele><time>2026-05-02T09:46:33.53Z</time></trkpt><trkpt lat="40.015976" lon="8.4995866"><ele>11.0</ele><time>2026-05-02T09:46:34.53Z</time></trkpt><trkpt lat="40.0159119" lon="8.4998159"><ele>11.0</ele><time>2026-05-02T09:46:35.531Z</time></trkpt><trkpt lat="40.0158541" lon="8.5000402"><ele>11.0</ele><time>2026-05-02T09:46:36.53Z</time></trkpt><trkpt lat="40.0157976" lon="8.5002695"><ele>11.0</ele><time>2026-05-02T09:46:37.531Z</time></trkpt><trkpt lat="40.0157376" lon="8.5004946"><ele>11.333333333333332</ele><time>2026-05-02T09:46:38.53Z</time></trkpt><trkpt lat="40.0156756" lon="8.5007158"><ele>11.666666666666666</ele><time>2026-05-02T09:46:39.53Z</time></trkpt><trkpt lat="40.0156149" lon="8.5009436"><ele>12.0</ele><time>2026-05-02T09:46:40.53Z</time></trkpt><trkpt lat="40.0155557" lon="8.5011686"><ele>12.666666666666668</ele><time>2026-05-02T09:46:41.53Z</time></trkpt><trkpt lat="40.0154963" lon="8.501393"><ele>13.333333333333334</ele><time>2026-05-02T09:46:42.529Z</time></trkpt><trkpt lat="40.0154365" lon="8.5016182"><ele>14.0</ele><time>2026-05-02T09:46:43.53Z</time></trkpt><trkpt lat="40.0153762" lon="8.5018442"><ele>14.0</ele><time>2026-05-02T09:46:44.531Z</time></trkpt><trkpt lat="40.015309" lon="8.5020662"><ele>14.0</ele><time>2026-05-02T09:46:45.531Z</time></trkpt><trkpt lat="40.0152397" lon="8.5022878"><ele>14.0</ele><time>2026-05-02T09:46:46.531Z</time></trkpt><trkpt lat="40.0151684" lon="8.5025082"><ele>14.0</ele><time>2026-05-02T09:46:47.531Z</time></trkpt><trkpt lat="40.0150947" lon="8.5027274"><ele>14.0</ele><time>2026-05-02T09:46:48.531Z</time></trkpt><trkpt lat="40.0150167" lon="8.5029434"><ele>14.0</ele><time>2026-05-02T09:46:49.53Z</time></trkpt><trkpt lat="40.0149415" lon="8.5031585"><ele>14.333333333333334</ele><time>2026-05-02T09:46:50.53Z</time></trkpt><trkpt lat="40.0148692" lon="8.5033766"><ele>14.666666666666668</ele><time>2026-05-02T09:46:51.53Z</time></trkpt><trkpt lat="40.0147939" lon="8.5035936"><ele>15.0</ele><time>2026-05-02T09:46:52.531Z</time></trkpt><trkpt lat="40.014721" lon="8.503814"><ele>15.0</ele><time>2026-05-02T09:46:53.531Z</time></trkpt><trkpt lat="40.0146429" lon="8.5040327"><ele>15.0</ele><time>2026-05-02T09:46:54.53Z</time></trkpt><trkpt lat="40.0145644" lon="8.5042507"><ele>15.0</ele><time>2026-05-02T09:46:55.53Z</time></trkpt><trkpt lat="40.014481" lon="8.504469"><ele>14.333333333333332</ele><time>2026-05-02T09:46:56.53Z</time></trkpt><trkpt lat="40.0143977" lon="8.5046919"><ele>13.666666666666666</ele><time>2026-05-02T09:46:57.531Z</time></trkpt><trkpt lat="40.0143157" lon="8.5049084"><ele>13.0</ele><time>2026-05-02T09:46:58.53Z</time></trkpt><trkpt lat="40.0142341" lon="8.5051267"><ele>13.333333333333332</ele><time>2026-05-02T09:46:59.53Z</time></trkpt><trkpt lat="40.0141537" lon="8.5053462"><ele>13.666666666666668</ele><time>2026-05-02T09:47:00.529Z</time></trkpt><trkpt lat="40.0140769" lon="8.5055669"><ele>14.0</ele><time>2026-05-02T09:47:01.53Z</time></trkpt><trkpt lat="40.0140004" lon="8.505786"><ele>14.333333333333334</ele><time>2026-05-02T09:47:02.53Z</time></trkpt><trkpt lat="40.0139258" lon="8.5060031"><ele>14.666666666666668</ele><time>2026-05-02T09:47:03.531Z</time></trkpt><trkpt lat="40.0138495" lon="8.5062198"><ele>15.0</ele><time>2026-05-02T09:47:04.531Z</time></trkpt><trkpt lat="40.0137725" lon="8.5064318"><ele>15.0</ele><time>2026-05-02T09:47:05.53Z</time></trkpt><trkpt lat="40.0136967" lon="8.5066445"><ele>15.0</ele><time>2026-05-02T09:47:06.531Z</time></trkpt><trkpt lat="40.0136199" lon="8.5068571"><ele>15.0</ele><time>2026-05-02T09:47:07.529Z</time></trkpt><trkpt lat="40.0135438" lon="8.5070753"><ele>14.333333333333332</ele><time>2026-05-02T09:47:08.529Z</time></trkpt><trkpt lat="40.0134656" lon="8.5072852"><ele>13.666666666666666</ele><time>2026-05-02T09:47:09.531Z</time></trkpt><trkpt lat="40.013389" lon="8.5075043"><ele>13.0</ele><time>2026-05-02T09:47:10.53Z</time></trkpt><trkpt lat="40.013315" lon="8.5077185"><ele>12.0</ele><time>2026-05-02T09:47:11.529Z</time></trkpt><trkpt lat="40.0132345" lon="8.5079361"><ele>11.0</ele><time>2026-05-02T09:47:12.529Z</time></trkpt><trkpt lat="40.0131549" lon="8.5081523"><ele>10.0</ele><time>2026-05-02T09:47:13.531Z</time></trkpt><trkpt lat="40.0130773" lon="8.5083785"><ele>10.0</ele><time>2026-05-02T09:47:14.53Z</time></trkpt><trkpt lat="40.0129991" lon="8.5086026"><ele>10.0</ele><time>2026-05-02T09:47:15.529Z</time></trkpt><trkpt lat="40.0129231" lon="8.5088236"><ele>10.0</ele><time>2026-05-02T09:47:16.53Z</time></trkpt><trkpt lat="40.0128476" lon="8.5090405"><ele>10.0</ele><time>2026-05-02T09:47:17.529Z</time></trkpt><trkpt lat="40.0127708" lon="8.5092599"><ele>10.0</ele><time>2026-05-02T09:47:18.531Z</time></trkpt><trkpt lat="40.012696" lon="8.5094762"><ele>10.0</ele><time>2026-05-02T09:47:19.53Z</time></trkpt><trkpt lat="40.0126199" lon="8.5096892"><ele>10.0</ele><time>2026-05-02T09:47:20.531Z</time></trkpt><trkpt lat="40.0125468" lon="8.5099011"><ele>10.0</ele><time>2026-05-02T09:47:21.53Z</time></trkpt><trkpt lat="40.0124748" lon="8.5101143"><ele>10.0</ele><time>2026-05-02T09:47:22.531Z</time></trkpt><trkpt lat="40.0124169" lon="8.5103349"><ele>9.666666666666668</ele><time>2026-05-02T09:47:23.53Z</time></trkpt><trkpt lat="40.0123759" lon="8.5105626"><ele>9.333333333333334</ele><time>2026-05-02T09:47:24.531Z</time></trkpt><trkpt lat="40.012353" lon="8.5107931"><ele>9.0</ele><time>2026-05-02T09:47:25.53Z</time></trkpt><trkpt lat="40.0123451" lon="8.511005"><ele>9.0</ele><time>2026-05-02T09:47:26.53Z</time></trkpt><trkpt lat="40.0123365" lon="8.5111997"><ele>9.0</ele><time>2026-05-02T09:47:27.53Z</time></trkpt><trkpt lat="40.0123233" lon="8.5113758"><ele>9.0</ele><time>2026-05-02T09:47:28.529Z</time></trkpt><trkpt lat="40.0123109" lon="8.5115343"><ele>9.0</ele><time>2026-05-02T09:47:29.53Z</time></trkpt><trkpt lat="40.0122988" lon="8.5116729"><ele>9.4</ele><time>2026-05-02T09:47:30.531Z</time></trkpt><trkpt lat="40.0122879" lon="8.5117953"><ele>9.8</ele><time>2026-05-02T09:47:31.53Z</time></trkpt><trkpt lat="40.0122774" lon="8.5118937"><ele>10.200000000000001</ele><time>2026-05-02T09:47:32.53Z</time></trkpt><trkpt lat="40.0122685" lon="8.5120186"><ele>10.600000000000001</ele><time>2026-05-02T09:47:34.53Z</time></trkpt><trkpt lat="40.0122926" lon="8.5120991"><ele>11.0</ele><time>2026-05-02T09:47:37.529Z</time></trkpt><trkpt lat="40.0123194" lon="8.5119468"><ele>11.0</ele><time>2026-05-02T09:47:40.53Z</time></trkpt><trkpt lat="40.012323" lon="8.5118539"><ele>11.0</ele><time>2026-05-02T09:47:41.531Z</time></trkpt><trkpt lat="40.0123358" lon="8.5117337"><ele>11.0</ele><time>2026-05-02T09:47:42.53Z</time></trkpt><trkpt lat="40.0123444" lon="8.5116072"><ele>11.0</ele><time>2026-05-02T09:47:43.53Z</time></trkpt><trkpt lat="40.0123528" lon="8.5114689"><ele>11.0</ele><time>2026-05-02T09:47:44.531Z</time></trkpt><trkpt lat="40.0123802" lon="8.5113326"><ele>11.0</ele><time>2026-05-02T09:47:45.53Z</time></trkpt><trkpt lat="40.0124204" lon="8.5112063"><ele>11.0</ele><time>2026-05-02T09:47:46.53Z</time></trkpt><trkpt lat="40.0124765" lon="8.5110947"><ele>11.0</ele><time>2026-05-02T09:47:47.531Z</time></trkpt><trkpt lat="40.0125495" lon="8.511029"><ele>11.0</ele><time>2026-05-02T09:47:48.531Z</time></trkpt><trkpt lat="40.01264" lon="8.5109839"><ele>11.0</ele><time>2026-05-02T09:47:49.53Z</time></trkpt><trkpt lat="40.0127429" lon="8.5109802"><ele>11.0</ele><time>2026-05-02T09:47:50.53Z</time></trkpt><trkpt lat="40.0128554" lon="8.5110105"><ele>11.0</ele><time>2026-05-02T09:47:51.531Z</time></trkpt><trkpt lat="40.0129734" lon="8.5110598"><ele>11.0</ele><time>2026-05-02T09:47:52.53Z</time></trkpt><trkpt lat="40.0131001" lon="8.5111012"><ele>11.0</ele><time>2026-05-02T09:47:53.53Z</time></trkpt><trkpt lat="40.013219" lon="8.5111465"><ele>11.0</ele><time>2026-05-02T09:47:54.531Z</time></trkpt><trkpt lat="40.0133378" lon="8.5111931"><ele>11.0</ele><time>2026-05-02T09:47:55.529Z</time></trkpt><trkpt lat="40.0134617" lon="8.5112446"><ele>11.0</ele><time>2026-05-02T09:47:56.53Z</time></trkpt><trkpt lat="40.0135757" lon="8.5113022"><ele>11.0</ele><time>2026-05-02T09:47:57.53Z</time></trkpt><trkpt lat="40.0136908" lon="8.5113578"><ele>11.0</ele><time>2026-05-02T09:47:58.53Z</time></trkpt><trkpt lat="40.0138207" lon="8.5114032"><ele>11.0</ele><time>2026-05-02T09:47:59.531Z</time></trkpt><trkpt lat="40.0139539" lon="8.5114506"><ele>11.0</ele><time>2026-05-02T09:48:00.531Z</time></trkpt><trkpt lat="40.0140899" lon="8.5115002"><ele>11.0</ele><time>2026-05-02T09:48:01.53Z</time></trkpt><trkpt lat="40.0142272" lon="8.5115519"><ele>11.5</ele><time>2026-05-02T09:48:02.531Z</time></trkpt><trkpt lat="40.0143651" lon="8.511604"><ele>12.0</ele><time>2026-05-02T09:48:03.53Z</time></trkpt><trkpt lat="40.0145047" lon="8.5116573"><ele>12.5</ele><time>2026-05-02T09:48:04.529Z</time></trkpt><trkpt lat="40.0146486" lon="8.5117086"><ele>13.0</ele><time>2026-05-02T09:48:05.529Z</time></trkpt><trkpt lat="40.0147902" lon="8.5117632"><ele>13.0</ele><time>2026-05-02T09:48:06.529Z</time></trkpt><trkpt lat="40.0149356" lon="8.5118236"><ele>13.0</ele><time>2026-05-02T09:48:07.53Z</time></trkpt><trkpt lat="40.0150812" lon="8.5118872"><ele>13.0</ele><time>2026-05-02T09:48:08.531Z</time></trkpt><trkpt lat="40.015225" lon="8.5119485"><ele>13.0</ele><time>2026-05-02T09:48:09.53Z</time></trkpt><trkpt lat="40.0153697" lon="8.5120111"><ele>13.0</ele><time>2026-05-02T09:48:10.53Z</time></trkpt><trkpt lat="40.0155151" lon="8.5120658"><ele>13.0</ele><time>2026-05-02T09:48:11.53Z</time></trkpt><trkpt lat="40.0156608" lon="8.5121212"><ele>13.0</ele><time>2026-05-02T09:48:12.529Z</time></trkpt><trkpt lat="40.015807" lon="8.5121803"><ele>13.0</ele><time>2026-05-02T09:48:13.529Z</time></trkpt><trkpt lat="40.015954" lon="8.5122366"><ele>13.0</ele><time>2026-05-02T09:48:14.529Z</time></trkpt><trkpt lat="40.0160991" lon="8.5123035"><ele>13.75</ele><time>2026-05-02T09:48:15.529Z</time></trkpt><trkpt lat="40.016243" lon="8.5123701"><ele>14.5</ele><time>2026-05-02T09:48:16.529Z</time></trkpt><trkpt lat="40.0163871" lon="8.5124288"><ele>15.25</ele><time>2026-05-02T09:48:17.53Z</time></trkpt><trkpt lat="40.0165265" lon="8.5124752"><ele>16.0</ele><time>2026-05-02T09:48:18.531Z</time></trkpt><trkpt lat="40.0166561" lon="8.5125175"><ele>16.0</ele><time>2026-05-02T09:48:19.529Z</time></trkpt><trkpt lat="40.0167842" lon="8.5125401"><ele>16.0</ele><time>2026-05-02T09:48:20.53Z</time></trkpt><trkpt lat="40.0169169" lon="8.5125485"><ele>16.0</ele><time>2026-05-02T09:48:21.529Z</time></trkpt><trkpt lat="40.017045" lon="8.5125454"><ele>16.0</ele><time>2026-05-02T09:48:22.53Z</time></trkpt><trkpt lat="40.0171677" lon="8.5125279"><ele>16.0</ele><time>2026-05-02T09:48:23.529Z</time></trkpt><trkpt lat="40.0172846" lon="8.5125007"><ele>16.0</ele><time>2026-05-02T09:48:24.531Z</time></trkpt><trkpt lat="40.0173992" lon="8.5124662"><ele>16.0</ele><time>2026-05-02T09:48:25.531Z</time></trkpt><trkpt lat="40.0175051" lon="8.5124188"><ele>16.0</ele><time>2026-05-02T09:48:26.529Z</time></trkpt><trkpt lat="40.0176076" lon="8.5123755"><ele>16.2</ele><time>2026-05-02T09:48:27.529Z</time></trkpt><trkpt lat="40.0177089" lon="8.5123331"><ele>16.400000000000002</ele><time>2026-05-02T09:48:28.53Z</time></trkpt><trkpt lat="40.0178127" lon="8.5122958"><ele>16.6</ele><time>2026-05-02T09:48:29.53Z</time></trkpt><trkpt lat="40.0179208" lon="8.51227"><ele>16.8</ele><time>2026-05-02T09:48:30.53Z</time></trkpt><trkpt lat="40.0180332" lon="8.5122566"><ele>17.0</ele><time>2026-05-02T09:48:31.53Z</time></trkpt><trkpt lat="40.0181415" lon="8.5122603"><ele>17.0</ele><time>2026-05-02T09:48:32.53Z</time></trkpt><trkpt lat="40.0182493" lon="8.5122714"><ele>17.0</ele><time>2026-05-02T09:48:33.53Z</time></trkpt><trkpt lat="40.0183598" lon="8.5122995"><ele>17.0</ele><time>2026-05-02T09:48:34.529Z</time></trkpt><trkpt lat="40.0184792" lon="8.5123322"><ele>17.0</ele><time>2026-05-02T09:48:35.529Z</time></trkpt><trkpt lat="40.018599" lon="8.5123704"><ele>17.0</ele><time>2026-05-02T09:48:36.53Z</time></trkpt><trkpt lat="40.0187197" lon="8.5124075"><ele>17.0</ele><time>2026-05-02T09:48:37.53Z</time></trkpt><trkpt lat="40.0188457" lon="8.512437"><ele>17.0</ele><time>2026-05-02T09:48:38.53Z</time></trkpt><trkpt lat="40.0189751" lon="8.5124678"><ele>17.0</ele><time>2026-05-02T09:48:39.531Z</time></trkpt><trkpt lat="40.0191096" lon="8.512494"><ele>17.5</ele><time>2026-05-02T09:48:40.529Z</time></trkpt><trkpt lat="40.0192456" lon="8.5125155"><ele>18.0</ele><time>2026-05-02T09:48:41.531Z</time></trkpt><trkpt lat="40.019385" lon="8.5125253"><ele>18.5</ele><time>2026-05-02T09:48:42.53Z</time></trkpt><trkpt lat="40.0195251" lon="8.5125147"><ele>19.0</ele><time>2026-05-02T09:48:43.53Z</time></trkpt><trkpt lat="40.0196658" lon="8.512499"><ele>19.0</ele><time>2026-05-02T09:48:44.529Z</time></trkpt><trkpt lat="40.0198054" lon="8.5124783"><ele>19.0</ele><time>2026-05-02T09:48:45.531Z</time></trkpt><trkpt lat="40.0199412" lon="8.5124489"><ele>19.0</ele><time>2026-05-02T09:48:46.531Z</time></trkpt><trkpt lat="40.0200767" lon="8.5124091"><ele>19.0</ele><time>2026-05-02T09:48:47.531Z</time></trkpt><trkpt lat="40.020212" lon="8.5123601"><ele>19.25</ele><time>2026-05-02T09:48:48.53Z</time></trkpt><trkpt lat="40.0203497" lon="8.5123069"><ele>19.5</ele><time>2026-05-02T09:48:49.53Z</time></trkpt><trkpt lat="40.0204871" lon="8.5122494"><ele>19.75</ele><time>2026-05-02T09:48:50.53Z</time></trkpt><trkpt lat="40.0206279" lon="8.5121897"><ele>20.0</ele><time>2026-05-02T09:48:51.531Z</time></trkpt><trkpt lat="40.0207742" lon="8.5121346"><ele>20.25</ele><time>2026-05-02T09:48:52.531Z</time></trkpt><trkpt lat="40.020919" lon="8.5120841"><ele>20.5</ele><time>2026-05-02T09:48:53.53Z</time></trkpt><trkpt lat="40.0210618" lon="8.5120239"><ele>20.75</ele><time>2026-05-02T09:48:54.531Z</time></trkpt><trkpt lat="40.0212023" lon="8.5119583"><ele>21.0</ele><time>2026-05-02T09:48:55.53Z</time></trkpt><trkpt lat="40.0213462" lon="8.5118971"><ele>21.333333333333332</ele><time>2026-05-02T09:48:56.529Z</time></trkpt><trkpt lat="40.0214904" lon="8.5118385"><ele>21.666666666666664</ele><time>2026-05-02T09:48:57.53Z</time></trkpt><trkpt lat="40.0216391" lon="8.5117789"><ele>22.0</ele><time>2026-05-02T09:48:58.531Z</time></trkpt><trkpt lat="40.021789" lon="8.5117191"><ele>22.0</ele><time>2026-05-02T09:48:59.53Z</time></trkpt><trkpt lat="40.0219396" lon="8.5116606"><ele>22.0</ele><time>2026-05-02T09:49:00.53Z</time></trkpt><trkpt lat="40.022093" lon="8.5116027"><ele>22.0</ele><time>2026-05-02T09:49:01.531Z</time></trkpt><trkpt lat="40.0222473" lon="8.5115527"><ele>22.0</ele><time>2026-05-02T09:49:02.531Z</time></trkpt><trkpt lat="40.0224064" lon="8.511514"><ele>22.0</ele><time>2026-05-02T09:49:03.53Z</time></trkpt><trkpt lat="40.0225706" lon="8.511479"><ele>22.0</ele><time>2026-05-02T09:49:04.529Z</time></trkpt><trkpt lat="40.0227394" lon="8.5114545"><ele>22.666666666666664</ele><time>2026-05-02T09:49:05.53Z</time></trkpt><trkpt lat="40.0229118" lon="8.511435"><ele>23.333333333333332</ele><time>2026-05-02T09:49:06.531Z</time></trkpt><trkpt lat="40.0230834" lon="8.5114272"><ele>24.0</ele><time>2026-05-02T09:49:07.53Z</time></trkpt><trkpt lat="40.0232584" lon="8.5114269"><ele>23.666666666666668</ele><time>2026-05-02T09:49:08.53Z</time></trkpt><trkpt lat="40.0234284" lon="8.5114373"><ele>23.333333333333336</ele><time>2026-05-02T09:49:09.53Z</time></trkpt><trkpt lat="40.0235973" lon="8.5114518"><ele>23.0</ele><time>2026-05-02T09:49:10.531Z</time></trkpt><trkpt lat="40.0237655" lon="8.5114576"><ele>23.0</ele><time>2026-05-02T09:49:11.531Z</time></trkpt><trkpt lat="40.0239299" lon="8.5114516"><ele>23.0</ele><time>2026-05-02T09:49:12.53Z</time></trkpt><trkpt lat="40.0240853" lon="8.5114316"><ele>23.0</ele><time>2026-05-02T09:49:13.53Z</time></trkpt><trkpt lat="40.0242448" lon="8.511392"><ele>23.333333333333336</ele><time>2026-05-02T09:49:14.53Z</time></trkpt><trkpt lat="40.0244017" lon="8.5113372"><ele>23.666666666666668</ele><time>2026-05-02T09:49:15.53Z</time></trkpt><trkpt lat="40.0245563" lon="8.5112787"><ele>24.0</ele><time>2026-05-02T09:49:16.529Z</time></trkpt><trkpt lat="40.0247082" lon="8.5112147"><ele>24.0</ele><time>2026-05-02T09:49:17.529Z</time></trkpt><trkpt lat="40.0248613" lon="8.5111462"><ele>24.0</ele><time>2026-05-02T09:49:18.529Z</time></trkpt><trkpt lat="40.0250121" lon="8.5110773"><ele>24.0</ele><time>2026-05-02T09:49:19.529Z</time></trkpt><trkpt lat="40.0251595" lon="8.5110087"><ele>25.0</ele><time>2026-05-02T09:49:20.531Z</time></trkpt><trkpt lat="40.0253018" lon="8.5109425"><ele>26.0</ele><time>2026-05-02T09:49:21.529Z</time></trkpt><trkpt lat="40.0254441" lon="8.5108759"><ele>27.0</ele><time>2026-05-02T09:49:22.529Z</time></trkpt><trkpt lat="40.0255831" lon="8.5108158"><ele>28.0</ele><time>2026-05-02T09:49:23.531Z</time></trkpt><trkpt lat="40.025721" lon="8.5107799"><ele>27.75</ele><time>2026-05-02T09:49:24.529Z</time></trkpt><trkpt lat="40.02586" lon="8.5107854"><ele>27.5</ele><time>2026-05-02T09:49:25.53Z</time></trkpt><trkpt lat="40.0259991" lon="8.5108316"><ele>27.25</ele><time>2026-05-02T09:49:26.529Z</time></trkpt><trkpt lat="40.0261278" lon="8.5109166"><ele>27.0</ele><time>2026-05-02T09:49:27.531Z</time></trkpt><trkpt lat="40.0262379" lon="8.511041"><ele>27.0</ele><time>2026-05-02T09:49:28.531Z</time></trkpt><trkpt lat="40.0263178" lon="8.5112065"><ele>27.0</ele><time>2026-05-02T09:49:29.53Z</time></trkpt><trkpt lat="40.0263898" lon="8.5113799"><ele>27.0</ele><time>2026-05-02T09:49:30.53Z</time></trkpt><trkpt lat="40.026446" lon="8.5115637"><ele>27.0</ele><time>2026-05-02T09:49:31.53Z</time></trkpt><trkpt lat="40.0264822" lon="8.5117588"><ele>27.0</ele><time>2026-05-02T09:49:32.529Z</time></trkpt><trkpt lat="40.0264901" lon="8.5119607"><ele>27.0</ele><time>2026-05-02T09:49:33.53Z</time></trkpt><trkpt lat="40.0264773" lon="8.5121638"><ele>26.666666666666664</ele><time>2026-05-02T09:49:34.53Z</time></trkpt><trkpt lat="40.0264563" lon="8.5123683"><ele>26.333333333333332</ele><time>2026-05-02T09:49:35.529Z</time></trkpt><trkpt lat="40.026431" lon="8.5125749"><ele>26.0</ele><time>2026-05-02T09:49:36.529Z</time></trkpt><trkpt lat="40.0264014" lon="8.5127836"><ele>25.666666666666664</ele><time>2026-05-02T09:49:37.529Z</time></trkpt><trkpt lat="40.0263708" lon="8.5129938"><ele>25.333333333333336</ele><time>2026-05-02T09:49:38.53Z</time></trkpt><trkpt lat="40.0263445" lon="8.5132047"><ele>25.0</ele><time>2026-05-02T09:49:39.529Z</time></trkpt><trkpt lat="40.0263183" lon="8.5134187"><ele>25.0</ele><time>2026-05-02T09:49:40.53Z</time></trkpt><trkpt lat="40.0262932" lon="8.5136345"><ele>25.0</ele><time>2026-05-02T09:49:41.529Z</time></trkpt><trkpt lat="40.0262678" lon="8.5138509"><ele>25.0</ele><time>2026-05-02T09:49:42.529Z</time></trkpt><trkpt lat="40.0262429" lon="8.514068"><ele>24.333333333333336</ele><time>2026-05-02T09:49:43.53Z</time></trkpt><trkpt lat="40.0262181" lon="8.5142849"><ele>23.666666666666668</ele><time>2026-05-02T09:49:44.53Z</time></trkpt><trkpt lat="40.0261886" lon="8.5145036"><ele>23.0</ele><time>2026-05-02T09:49:45.529Z</time></trkpt><trkpt lat="40.0261577" lon="8.514723"><ele>23.0</ele><time>2026-05-02T09:49:46.53Z</time></trkpt><trkpt lat="40.0261298" lon="8.5149456"><ele>23.0</ele><time>2026-05-02T09:49:47.531Z</time></trkpt><trkpt lat="40.0261074" lon="8.5151579"><ele>23.0</ele><time>2026-05-02T09:49:48.529Z</time></trkpt><trkpt lat="40.0260936" lon="8.5153211"><ele>23.25</ele><time>2026-05-02T09:49:49.53Z</time></trkpt><trkpt lat="40.0260836" lon="8.5154777"><ele>23.5</ele><time>2026-05-02T09:49:50.529Z</time></trkpt><trkpt lat="40.0260815" lon="8.5156383"><ele>23.75</ele><time>2026-05-02T09:49:51.529Z</time></trkpt><trkpt lat="40.0260789" lon="8.5158157"><ele>24.0</ele><time>2026-05-02T09:49:52.529Z</time></trkpt><trkpt lat="40.0260683" lon="8.516003"><ele>24.0</ele><time>2026-05-02T09:49:53.53Z</time></trkpt><trkpt lat="40.0260607" lon="8.5161976"><ele>24.0</ele><time>2026-05-02T09:49:54.531Z</time></trkpt><trkpt lat="40.0260589" lon="8.5164002"><ele>24.0</ele><time>2026-05-02T09:49:55.53Z</time></trkpt><trkpt lat="40.0260573" lon="8.5166044"><ele>24.0</ele><time>2026-05-02T09:49:56.529Z</time></trkpt><trkpt lat="40.0260557" lon="8.5168056"><ele>24.0</ele><time>2026-05-02T09:49:57.529Z</time></trkpt><trkpt lat="40.0260547" lon="8.5170079"><ele>24.0</ele><time>2026-05-02T09:49:58.53Z</time></trkpt><trkpt lat="40.026055" lon="8.5172065"><ele>24.25</ele><time>2026-05-02T09:49:59.529Z</time></trkpt><trkpt lat="40.0260535" lon="8.5174032"><ele>24.5</ele><time>2026-05-02T09:50:00.529Z</time></trkpt><trkpt lat="40.0260547" lon="8.5175835"><ele>24.75</ele><time>2026-05-02T09:50:01.531Z</time></trkpt><trkpt lat="40.0260541" lon="8.5177484"><ele>25.0</ele><time>2026-05-02T09:50:02.529Z</time></trkpt><trkpt lat="40.0260438" lon="8.5179081"><ele>25.0</ele><time>2026-05-02T09:50:03.53Z</time></trkpt><trkpt lat="40.0260176" lon="8.5180618"><ele>25.0</ele><time>2026-05-02T09:50:04.531Z</time></trkpt><trkpt lat="40.0259801" lon="8.5181846"><ele>25.0</ele><time>2026-05-02T09:50:05.53Z</time></trkpt><trkpt lat="40.0259605" lon="8.518292"><ele>25.0</ele><time>2026-05-02T09:50:06.529Z</time></trkpt><trkpt lat="40.0259599" lon="8.5183793"><ele>25.0</ele><time>2026-05-02T09:50:07.53Z</time></trkpt><trkpt lat="40.0259915" lon="8.5184756"><ele>25.0</ele><time>2026-05-02T09:50:09.531Z</time></trkpt><trkpt lat="40.0261026" lon="8.5184914"><ele>25.0</ele><time>2026-05-02T09:50:11.529Z</time></trkpt><trkpt lat="40.0261705" lon="8.5184533"><ele>25.0</ele><time>2026-05-02T09:50:12.529Z</time></trkpt><trkpt lat="40.0262505" lon="8.5183982"><ele>25.0</ele><time>2026-05-02T09:50:13.53Z</time></trkpt><trkpt lat="40.0263358" lon="8.5183575"><ele>25.0</ele><time>2026-05-02T09:50:14.53Z</time></trkpt><trkpt lat="40.026437" lon="8.5183107"><ele>25.0</ele><time>2026-05-02T09:50:15.529Z</time></trkpt><trkpt lat="40.0265407" lon="8.5182659"><ele>25.0</ele><time>2026-05-02T09:50:16.529Z</time></trkpt><trkpt lat="40.0266537" lon="8.5182351"><ele>25.0</ele><time>2026-05-02T09:50:17.531Z</time></trkpt><trkpt lat="40.0267707" lon="8.5182062"><ele>25.0</ele><time>2026-05-02T09:50:18.531Z</time></trkpt><trkpt lat="40.0268965" lon="8.5181707"><ele>25.0</ele><time>2026-05-02T09:50:19.53Z</time></trkpt><trkpt lat="40.0270271" lon="8.5181374"><ele>25.0</ele><time>2026-05-02T09:50:20.53Z</time></trkpt><trkpt lat="40.0271652" lon="8.5181039"><ele>25.0</ele><time>2026-05-02T09:50:21.529Z</time></trkpt><trkpt lat="40.0273062" lon="8.518072"><ele>25.0</ele><time>2026-05-02T09:50:22.529Z</time></trkpt><trkpt lat="40.027448" lon="8.5180386"><ele>25.5</ele><time>2026-05-02T09:50:23.53Z</time></trkpt><trkpt lat="40.027589" lon="8.5180027"><ele>26.0</ele><time>2026-05-02T09:50:24.531Z</time></trkpt><trkpt lat="40.0277304" lon="8.5179642"><ele>26.5</ele><time>2026-05-02T09:50:25.529Z</time></trkpt><trkpt lat="40.0278755" lon="8.5179296"><ele>27.0</ele><time>2026-05-02T09:50:26.53Z</time></trkpt><trkpt lat="40.0280211" lon="8.5178933"><ele>27.333333333333336</ele><time>2026-05-02T09:50:27.529Z</time></trkpt><trkpt lat="40.0281686" lon="8.5178569"><ele>27.666666666666668</ele><time>2026-05-02T09:50:28.529Z</time></trkpt><trkpt lat="40.0283195" lon="8.5178199"><ele>28.0</ele><time>2026-05-02T09:50:29.531Z</time></trkpt><trkpt lat="40.0284713" lon="8.5177798"><ele>28.666666666666668</ele><time>2026-05-02T09:50:30.531Z</time></trkpt><trkpt lat="40.0286229" lon="8.5177391"><ele>29.333333333333336</ele><time>2026-05-02T09:50:31.529Z</time></trkpt><trkpt lat="40.0287733" lon="8.5176987"><ele>30.0</ele><time>2026-05-02T09:50:32.53Z</time></trkpt><trkpt lat="40.0289232" lon="8.5176615"><ele>30.0</ele><time>2026-05-02T09:50:33.53Z</time></trkpt><trkpt lat="40.0290726" lon="8.5176265"><ele>30.0</ele><time>2026-05-02T09:50:34.53Z</time></trkpt><trkpt lat="40.0292224" lon="8.5175905"><ele>30.0</ele><time>2026-05-02T09:50:35.53Z</time></trkpt><trkpt lat="40.0293724" lon="8.517551"><ele>31.666666666666664</ele><time>2026-05-02T09:50:36.53Z</time></trkpt><trkpt lat="40.0295216" lon="8.5175067"><ele>33.33333333333333</ele><time>2026-05-02T09:50:37.53Z</time></trkpt><trkpt lat="40.0296693" lon="8.5174574"><ele>35.0</ele><time>2026-05-02T09:50:38.53Z</time></trkpt><trkpt lat="40.029814" lon="8.517398"><ele>35.0</ele><time>2026-05-02T09:50:39.53Z</time></trkpt><trkpt lat="40.0299573" lon="8.5173295"><ele>35.0</ele><time>2026-05-02T09:50:40.529Z</time></trkpt><trkpt lat="40.0301002" lon="8.5172573"><ele>35.0</ele><time>2026-05-02T09:50:41.529Z</time></trkpt><trkpt lat="40.0302423" lon="8.5171844"><ele>37.0</ele><time>2026-05-02T09:50:42.53Z</time></trkpt><trkpt lat="40.0303845" lon="8.5171111"><ele>39.0</ele><time>2026-05-02T09:50:43.53Z</time></trkpt><trkpt lat="40.030527" lon="8.5170394"><ele>41.0</ele><time>2026-05-02T09:50:44.53Z</time></trkpt><trkpt lat="40.0306653" lon="8.5169628"><ele>41.0</ele><time>2026-05-02T09:50:45.529Z</time></trkpt><trkpt lat="40.0308071" lon="8.5168817"><ele>41.0</ele><time>2026-05-02T09:50:46.529Z</time></trkpt><trkpt lat="40.0309535" lon="8.5168016"><ele>41.0</ele><time>2026-05-02T09:50:47.529Z</time></trkpt><trkpt lat="40.0311041" lon="8.5167197"><ele>41.33333333333333</ele><time>2026-05-02T09:50:48.531Z</time></trkpt><trkpt lat="40.0312591" lon="8.5166364"><ele>41.666666666666664</ele><time>2026-05-02T09:50:49.531Z</time></trkpt><trkpt lat="40.0314151" lon="8.5165502"><ele>42.0</ele><time>2026-05-02T09:50:50.531Z</time></trkpt><trkpt lat="40.0315726" lon="8.516462"><ele>42.333333333333336</ele><time>2026-05-02T09:50:51.531Z</time></trkpt><trkpt lat="40.0317276" lon="8.5163769"><ele>42.66666666666667</ele><time>2026-05-02T09:50:52.531Z</time></trkpt><trkpt lat="40.0318864" lon="8.5162878"><ele>43.0</ele><time>2026-05-02T09:50:53.53Z</time></trkpt><trkpt lat="40.0320478" lon="8.5161997"><ele>43.333333333333336</ele><time>2026-05-02T09:50:54.53Z</time></trkpt><trkpt lat="40.0322104" lon="8.5161106"><ele>43.666666666666664</ele><time>2026-05-02T09:50:55.529Z</time></trkpt><trkpt lat="40.032375" lon="8.5160178"><ele>44.0</ele><time>2026-05-02T09:50:56.529Z</time></trkpt><trkpt lat="40.0325407" lon="8.5159241"><ele>44.0</ele><time>2026-05-02T09:50:57.529Z</time></trkpt><trkpt lat="40.032708" lon="8.5158314"><ele>44.0</ele><time>2026-05-02T09:50:58.529Z</time></trkpt><trkpt lat="40.0328755" lon="8.5157389"><ele>44.0</ele><time>2026-05-02T09:50:59.531Z</time></trkpt><trkpt lat="40.033043" lon="8.5156434"><ele>44.0</ele><time>2026-05-02T09:51:00.53Z</time></trkpt><trkpt lat="40.0332113" lon="8.5155466"><ele>44.0</ele><time>2026-05-02T09:51:01.531Z</time></trkpt><trkpt lat="40.033378" lon="8.5154501"><ele>44.0</ele><time>2026-05-02T09:51:02.53Z</time></trkpt><trkpt lat="40.0335456" lon="8.5153563"><ele>44.0</ele><time>2026-05-02T09:51:03.529Z</time></trkpt><trkpt lat="40.0337146" lon="8.5152653"><ele>44.0</ele><time>2026-05-02T09:51:04.529Z</time></trkpt><trkpt lat="40.0338841" lon="8.5151774"><ele>44.0</ele><time>2026-05-02T09:51:05.529Z</time></trkpt><trkpt lat="40.0340539" lon="8.5150878"><ele>44.666666666666664</ele><time>2026-05-02T09:51:06.529Z</time></trkpt><trkpt lat="40.0342233" lon="8.5149936"><ele>45.333333333333336</ele><time>2026-05-02T09:51:07.529Z</time></trkpt><trkpt lat="40.0343942" lon="8.5148971"><ele>46.0</ele><time>2026-05-02T09:51:08.529Z</time></trkpt><trkpt lat="40.0345674" lon="8.5147999"><ele>46.0</ele><time>2026-05-02T09:51:09.528Z</time></trkpt><trkpt lat="40.0347411" lon="8.5147033"><ele>46.0</ele><time>2026-05-02T09:51:10.529Z</time></trkpt><trkpt lat="40.0349147" lon="8.5146032"><ele>46.0</ele><time>2026-05-02T09:51:11.528Z</time></trkpt><trkpt lat="40.0350905" lon="8.5145049"><ele>45.333333333333336</ele><time>2026-05-02T09:51:12.528Z</time></trkpt><trkpt lat="40.035265" lon="8.5144089"><ele>44.666666666666664</ele><time>2026-05-02T09:51:13.529Z</time></trkpt><trkpt lat="40.0354398" lon="8.5143154"><ele>44.0</ele><time>2026-05-02T09:51:14.528Z</time></trkpt><trkpt lat="40.0356135" lon="8.5142202"><ele>44.0</ele><time>2026-05-02T09:51:15.53Z</time></trkpt><trkpt lat="40.0357863" lon="8.5141229"><ele>44.0</ele><time>2026-05-02T09:51:16.528Z</time></trkpt><trkpt lat="40.0359576" lon="8.5140264"><ele>44.0</ele><time>2026-05-02T09:51:17.528Z</time></trkpt><trkpt lat="40.036129" lon="8.5139296"><ele>44.33333333333333</ele><time>2026-05-02T09:51:18.529Z</time></trkpt><trkpt lat="40.0363024" lon="8.513835"><ele>44.666666666666664</ele><time>2026-05-02T09:51:19.529Z</time></trkpt><trkpt lat="40.0364756" lon="8.5137455"><ele>45.0</ele><time>2026-05-02T09:51:20.529Z</time></trkpt><trkpt lat="40.0366529" lon="8.513671"><ele>46.0</ele><time>2026-05-02T09:51:21.529Z</time></trkpt><trkpt lat="40.0368312" lon="8.5135976"><ele>47.0</ele><time>2026-05-02T09:51:22.528Z</time></trkpt><trkpt lat="40.0370115" lon="8.5135282"><ele>48.0</ele><time>2026-05-02T09:51:23.53Z</time></trkpt><trkpt lat="40.0371912" lon="8.5134619"><ele>48.0</ele><time>2026-05-02T09:51:24.529Z</time></trkpt><trkpt lat="40.0373724" lon="8.5133959"><ele>48.0</ele><time>2026-05-02T09:51:25.53Z</time></trkpt><trkpt lat="40.037553" lon="8.5133292"><ele>48.0</ele><time>2026-05-02T09:51:26.529Z</time></trkpt><trkpt lat="40.0377332" lon="8.5132606"><ele>48.33333333333333</ele><time>2026-05-02T09:51:27.529Z</time></trkpt><trkpt lat="40.0379124" lon="8.5131905"><ele>48.666666666666664</ele><time>2026-05-02T09:51:28.529Z</time></trkpt><trkpt lat="40.0380917" lon="8.5131213"><ele>49.0</ele><time>2026-05-02T09:51:29.529Z</time></trkpt><trkpt lat="40.0382721" lon="8.5130499"><ele>49.33333333333333</ele><time>2026-05-02T09:51:30.529Z</time></trkpt><trkpt lat="40.0384511" lon="8.5129783"><ele>49.66666666666667</ele><time>2026-05-02T09:51:31.528Z</time></trkpt><trkpt lat="40.0386289" lon="8.5129089"><ele>50.0</ele><time>2026-05-02T09:51:32.529Z</time></trkpt><trkpt lat="40.0388076" lon="8.5128397"><ele>50.0</ele><time>2026-05-02T09:51:33.529Z</time></trkpt><trkpt lat="40.0389664" lon="8.5127766"><ele>50.0</ele><time>2026-05-02T09:51:34.529Z</time></trkpt><trkpt lat="40.039103" lon="8.5127233"><ele>50.0</ele><time>2026-05-02T09:51:35.529Z</time></trkpt><trkpt lat="40.0392144" lon="8.512679"><ele>50.0</ele><time>2026-05-02T09:51:36.529Z</time></trkpt><trkpt lat="40.0392978" lon="8.5126456"><ele>50.2</ele><time>2026-05-02T09:51:37.53Z</time></trkpt><trkpt lat="40.039381" lon="8.5126532"><ele>50.4</ele><time>2026-05-02T09:51:39.53Z</time></trkpt><trkpt lat="40.0394395" lon="8.5127538"><ele>50.599999999999994</ele><time>2026-05-02T09:51:41.528Z</time></trkpt><trkpt lat="40.0394618" lon="8.5128548"><ele>50.8</ele><time>2026-05-02T09:51:42.528Z</time></trkpt><trkpt lat="40.0394993" lon="8.5129733"><ele>51.0</ele><time>2026-05-02T09:51:43.529Z</time></trkpt><trkpt lat="40.039529" lon="8.5131067"><ele>51.199999999999996</ele><time>2026-05-02T09:51:44.528Z</time></trkpt><trkpt lat="40.0395511" lon="8.5132527"><ele>51.4</ele><time>2026-05-02T09:51:45.529Z</time></trkpt><trkpt lat="40.039553" lon="8.5133908"><ele>51.6</ele><time>2026-05-02T09:51:46.53Z</time></trkpt><trkpt lat="40.0395509" lon="8.513511"><ele>51.8</ele><time>2026-05-02T09:51:47.529Z</time></trkpt><trkpt lat="40.0395342" lon="8.5136405"><ele>52.0</ele><time>2026-05-02T09:51:48.53Z</time></trkpt><trkpt lat="40.0395261" lon="8.5137804"><ele>52.5</ele><time>2026-05-02T09:51:49.528Z</time></trkpt><trkpt lat="40.0394986" lon="8.5139033"><ele>53.0</ele><time>2026-05-02T09:51:50.528Z</time></trkpt><trkpt lat="40.0394458" lon="8.5140314"><ele>53.5</ele><time>2026-05-02T09:51:51.528Z</time></trkpt><trkpt lat="40.0393923" lon="8.514176"><ele>54.0</ele><time>2026-05-02T09:51:52.528Z</time></trkpt><trkpt lat="40.0393216" lon="8.5143129"><ele>54.0</ele><time>2026-05-02T09:51:53.529Z</time></trkpt><trkpt lat="40.0392472" lon="8.5144561"><ele>54.0</ele><time>2026-05-02T09:51:54.53Z</time></trkpt><trkpt lat="40.0391774" lon="8.5146024"><ele>54.0</ele><time>2026-05-02T09:51:55.529Z</time></trkpt><trkpt lat="40.0391104" lon="8.5147552"><ele>54.0</ele><time>2026-05-02T09:51:56.529Z</time></trkpt><trkpt lat="40.039044" lon="8.514909"><ele>53.75</ele><time>2026-05-02T09:51:57.529Z</time></trkpt><trkpt lat="40.0389732" lon="8.5150631"><ele>53.5</ele><time>2026-05-02T09:51:58.528Z</time></trkpt><trkpt lat="40.0389029" lon="8.5152147"><ele>53.25</ele><time>2026-05-02T09:51:59.529Z</time></trkpt><trkpt lat="40.0388335" lon="8.5153662"><ele>53.0</ele><time>2026-05-02T09:52:00.529Z</time></trkpt><trkpt lat="40.038764" lon="8.5155157"><ele>53.0</ele><time>2026-05-02T09:52:01.529Z</time></trkpt><trkpt lat="40.0386938" lon="8.5156626"><ele>53.0</ele><time>2026-05-02T09:52:02.529Z</time></trkpt><trkpt lat="40.0386158" lon="8.5157973"><ele>53.0</ele><time>2026-05-02T09:52:03.528Z</time></trkpt><trkpt lat="40.038537" lon="8.5159338"><ele>53.0</ele><time>2026-05-02T09:52:04.529Z</time></trkpt><trkpt lat="40.0384606" lon="8.5160671"><ele>53.0</ele><time>2026-05-02T09:52:05.529Z</time></trkpt><trkpt lat="40.0383806" lon="8.5162012"><ele>53.0</ele><time>2026-05-02T09:52:06.529Z</time></trkpt><trkpt lat="40.038302" lon="8.5163353"><ele>53.0</ele><time>2026-05-02T09:52:07.53Z</time></trkpt><trkpt lat="40.038224" lon="8.5164675"><ele>53.0</ele><time>2026-05-02T09:52:08.53Z</time></trkpt><trkpt lat="40.038147" lon="8.5165932"><ele>52.5</ele><time>2026-05-02T09:52:09.53Z</time></trkpt><trkpt lat="40.0380652" lon="8.5167164"><ele>52.0</ele><time>2026-05-02T09:52:10.528Z</time></trkpt><trkpt lat="40.0379869" lon="8.5168428"><ele>51.5</ele><time>2026-05-02T09:52:11.53Z</time></trkpt><trkpt lat="40.0379195" lon="8.5169564"><ele>51.0</ele><time>2026-05-02T09:52:12.529Z</time></trkpt><trkpt lat="40.0378451" lon="8.5170601"><ele>51.5</ele><time>2026-05-02T09:52:13.531Z</time></trkpt><trkpt lat="40.0377617" lon="8.5171623"><ele>52.0</ele><time>2026-05-02T09:52:14.529Z</time></trkpt><trkpt lat="40.0376622" lon="8.5172632"><ele>52.5</ele><time>2026-05-02T09:52:15.53Z</time></trkpt><trkpt lat="40.0375616" lon="8.5173657"><ele>53.0</ele><time>2026-05-02T09:52:16.53Z</time></trkpt><trkpt lat="40.03746" lon="8.5174746"><ele>53.0</ele><time>2026-05-02T09:52:17.529Z</time></trkpt><trkpt lat="40.0373599" lon="8.5175903"><ele>53.0</ele><time>2026-05-02T09:52:18.528Z</time></trkpt><trkpt lat="40.0372633" lon="8.5177186"><ele>53.0</ele><time>2026-05-02T09:52:19.529Z</time></trkpt><trkpt lat="40.0371706" lon="8.5178589"><ele>53.0</ele><time>2026-05-02T09:52:20.529Z</time></trkpt><trkpt lat="40.0370817" lon="8.518003"><ele>53.5</ele><time>2026-05-02T09:52:21.53Z</time></trkpt><trkpt lat="40.0369883" lon="8.5181437"><ele>54.0</ele><time>2026-05-02T09:52:22.53Z</time></trkpt><trkpt lat="40.0368932" lon="8.5182803"><ele>54.5</ele><time>2026-05-02T09:52:23.529Z</time></trkpt><trkpt lat="40.0367964" lon="8.5184246"><ele>55.0</ele><time>2026-05-02T09:52:24.528Z</time></trkpt><trkpt lat="40.0366999" lon="8.5185677"><ele>55.5</ele><time>2026-05-02T09:52:25.529Z</time></trkpt><trkpt lat="40.036604" lon="8.5187011"><ele>56.0</ele><time>2026-05-02T09:52:26.528Z</time></trkpt><trkpt lat="40.0365106" lon="8.5188467"><ele>56.5</ele><time>2026-05-02T09:52:27.529Z</time></trkpt><trkpt lat="40.0364221" lon="8.5190028"><ele>57.0</ele><time>2026-05-02T09:52:28.529Z</time></trkpt><trkpt lat="40.0363331" lon="8.5191569"><ele>57.75</ele><time>2026-05-02T09:52:29.529Z</time></trkpt><trkpt lat="40.0362418" lon="8.5193048"><ele>58.5</ele><time>2026-05-02T09:52:30.53Z</time></trkpt><trkpt lat="40.0361502" lon="8.5194548"><ele>59.25</ele><time>2026-05-02T09:52:31.53Z</time></trkpt><trkpt lat="40.0360605" lon="8.5196092"><ele>60.0</ele><time>2026-05-02T09:52:32.529Z</time></trkpt><trkpt lat="40.0359733" lon="8.5197631"><ele>60.33333333333333</ele><time>2026-05-02T09:52:33.528Z</time></trkpt><trkpt lat="40.035884" lon="8.5199174"><ele>60.666666666666664</ele><time>2026-05-02T09:52:34.53Z</time></trkpt><trkpt lat="40.0357926" lon="8.5200734"><ele>61.0</ele><time>2026-05-02T09:52:35.528Z</time></trkpt><trkpt lat="40.0357019" lon="8.5202315"><ele>61.0</ele><time>2026-05-02T09:52:36.529Z</time></trkpt><trkpt lat="40.035614" lon="8.5203875"><ele>61.0</ele><time>2026-05-02T09:52:37.53Z</time></trkpt><trkpt lat="40.0355321" lon="8.5205429"><ele>61.0</ele><time>2026-05-02T09:52:38.53Z</time></trkpt><trkpt lat="40.0354575" lon="8.5206989"><ele>61.0</ele><time>2026-05-02T09:52:39.529Z</time></trkpt><trkpt lat="40.035394" lon="8.520857"><ele>60.75</ele><time>2026-05-02T09:52:40.528Z</time></trkpt><trkpt lat="40.0353473" lon="8.5210166"><ele>60.5</ele><time>2026-05-02T09:52:41.53Z</time></trkpt><trkpt lat="40.0353109" lon="8.521179"><ele>60.25</ele><time>2026-05-02T09:52:42.53Z</time></trkpt><trkpt lat="40.0352753" lon="8.5213405"><ele>60.0</ele><time>2026-05-02T09:52:43.53Z</time></trkpt><trkpt lat="40.0352325" lon="8.5214956"><ele>60.5</ele><time>2026-05-02T09:52:44.529Z</time></trkpt><trkpt lat="40.0351838" lon="8.5216465"><ele>61.0</ele><time>2026-05-02T09:52:45.529Z</time></trkpt><trkpt lat="40.0351263" lon="8.5217923"><ele>61.5</ele><time>2026-05-02T09:52:46.528Z</time></trkpt><trkpt lat="40.0350673" lon="8.5219371"><ele>62.0</ele><time>2026-05-02T09:52:47.529Z</time></trkpt><trkpt lat="40.0350039" lon="8.5220723"><ele>62.8</ele><time>2026-05-02T09:52:48.529Z</time></trkpt><trkpt lat="40.034952" lon="8.5221913"><ele>63.6</ele><time>2026-05-02T09:52:49.529Z</time></trkpt><trkpt lat="40.0349022" lon="8.5222997"><ele>64.39999999999999</ele><time>2026-05-02T09:52:50.528Z</time></trkpt><trkpt lat="40.0348611" lon="8.5224098"><ele>65.2</ele><time>2026-05-02T09:52:51.529Z</time></trkpt><trkpt lat="40.0348288" lon="8.5225277"><ele>66.0</ele><time>2026-05-02T09:52:52.528Z</time></trkpt><trkpt lat="40.0348047" lon="8.5226538"><ele>66.0</ele><time>2026-05-02T09:52:53.529Z</time></trkpt><trkpt lat="40.0347815" lon="8.5227877"><ele>66.0</ele><time>2026-05-02T09:52:54.528Z</time></trkpt><trkpt lat="40.0347654" lon="8.5229252"><ele>66.0</ele><time>2026-05-02T09:52:55.529Z</time></trkpt><trkpt lat="40.0347507" lon="8.523063"><ele>66.0</ele><time>2026-05-02T09:52:56.529Z</time></trkpt><trkpt lat="40.0347331" lon="8.5232007"><ele>66.0</ele><time>2026-05-02T09:52:57.528Z</time></trkpt><trkpt lat="40.0347174" lon="8.5233339"><ele>66.0</ele><time>2026-05-02T09:52:58.529Z</time></trkpt><trkpt lat="40.0347063" lon="8.5234573"><ele>66.0</ele><time>2026-05-02T09:52:59.528Z</time></trkpt><trkpt lat="40.0347002" lon="8.5235711"><ele>66.0</ele><time>2026-05-02T09:53:00.529Z</time></trkpt><trkpt lat="40.034697" lon="8.523672"><ele>66.0</ele><time>2026-05-02T09:53:01.529Z</time></trkpt><trkpt lat="40.0346978" lon="8.5237858"><ele>66.0</ele><time>2026-05-02T09:53:03.529Z</time></trkpt><trkpt lat="40.0347106" lon="8.5238754"><ele>66.0</ele><time>2026-05-02T09:53:05.529Z</time></trkpt><trkpt lat="40.0347392" lon="8.5240066"><ele>66.39999999999999</ele><time>2026-05-02T09:53:07.53Z</time></trkpt><trkpt lat="40.0347709" lon="8.5241801"><ele>66.8</ele><time>2026-05-02T09:53:09.528Z</time></trkpt><trkpt lat="40.0347968" lon="8.5242787"><ele>67.19999999999999</ele><time>2026-05-02T09:53:10.528Z</time></trkpt><trkpt lat="40.0348224" lon="8.524383"><ele>67.6</ele><time>2026-05-02T09:53:11.529Z</time></trkpt><trkpt lat="40.0348476" lon="8.5244958"><ele>68.0</ele><time>2026-05-02T09:53:12.528Z</time></trkpt><trkpt lat="40.0348674" lon="8.5246176"><ele>68.2</ele><time>2026-05-02T09:53:13.528Z</time></trkpt><trkpt lat="40.0348836" lon="8.5247421"><ele>68.4</ele><time>2026-05-02T09:53:14.53Z</time></trkpt><trkpt lat="40.0349003" lon="8.5248764"><ele>68.60000000000001</ele><time>2026-05-02T09:53:15.53Z</time></trkpt><trkpt lat="40.0349216" lon="8.5250125"><ele>68.8</ele><time>2026-05-02T09:53:16.528Z</time></trkpt><trkpt lat="40.0349425" lon="8.5251572"><ele>69.0</ele><time>2026-05-02T09:53:17.531Z</time></trkpt><trkpt lat="40.0349664" lon="8.5253064"><ele>68.2</ele><time>2026-05-02T09:53:18.53Z</time></trkpt><trkpt lat="40.0349921" lon="8.525454"><ele>67.4</ele><time>2026-05-02T09:53:19.53Z</time></trkpt><trkpt lat="40.0350258" lon="8.5255894"><ele>66.6</ele><time>2026-05-02T09:53:20.529Z</time></trkpt><trkpt lat="40.035075" lon="8.5257194"><ele>65.8</ele><time>2026-05-02T09:53:21.528Z</time></trkpt><trkpt lat="40.0351282" lon="8.5258493"><ele>65.0</ele><time>2026-05-02T09:53:22.53Z</time></trkpt><trkpt lat="40.0351834" lon="8.5259768"><ele>65.0</ele><time>2026-05-02T09:53:23.529Z</time></trkpt><trkpt lat="40.0352503" lon="8.5260917"><ele>65.0</ele><time>2026-05-02T09:53:24.529Z</time></trkpt><trkpt lat="40.0353264" lon="8.5262024"><ele>65.0</ele><time>2026-05-02T09:53:25.529Z</time></trkpt><trkpt lat="40.0354034" lon="8.5263097"><ele>65.0</ele><time>2026-05-02T09:53:26.529Z</time></trkpt><trkpt lat="40.0354745" lon="8.5264213"><ele>65.0</ele><time>2026-05-02T09:53:27.53Z</time></trkpt><trkpt lat="40.0355354" lon="8.526532"><ele>64.6</ele><time>2026-05-02T09:53:28.528Z</time></trkpt><trkpt lat="40.0355867" lon="8.5266345"><ele>64.2</ele><time>2026-05-02T09:53:29.529Z</time></trkpt><trkpt lat="40.0356293" lon="8.5267121"><ele>63.8</ele><time>2026-05-02T09:53:30.53Z</time></trkpt><trkpt lat="40.0356931" lon="8.5268271"><ele>63.4</ele><time>2026-05-02T09:53:32.528Z</time></trkpt><trkpt lat="40.0356532" lon="8.5267522"><ele>63.0</ele><time>2026-05-02T09:53:37.53Z</time></trkpt><trkpt lat="40.0355887" lon="8.5266144"><ele>63.0</ele><time>2026-05-02T09:53:39.529Z</time></trkpt><trkpt lat="40.0355276" lon="8.5265061"><ele>63.0</ele><time>2026-05-02T09:53:41.529Z</time></trkpt><trkpt lat="40.03545" lon="8.5265101"><ele>63.0</ele><time>2026-05-02T09:53:43.528Z</time></trkpt><trkpt lat="40.0353719" lon="8.5266372"><ele>63.0</ele><time>2026-05-02T09:53:45.528Z</time></trkpt><trkpt lat="40.0353152" lon="8.5267413"><ele>63.0</ele><time>2026-05-02T09:53:46.528Z</time></trkpt><trkpt lat="40.0352466" lon="8.5268418"><ele>63.0</ele><time>2026-05-02T09:53:47.53Z</time></trkpt><trkpt lat="40.0351748" lon="8.526949"><ele>63.0</ele><time>2026-05-02T09:53:48.528Z</time></trkpt><trkpt lat="40.0351041" lon="8.5270701"><ele>63.0</ele><time>2026-05-02T09:53:49.53Z</time></trkpt><trkpt lat="40.0350356" lon="8.5271924"><ele>63.0</ele><time>2026-05-02T09:53:50.529Z</time></trkpt><trkpt lat="40.0349663" lon="8.5273153"><ele>62.2</ele><time>2026-05-02T09:53:51.529Z</time></trkpt><trkpt lat="40.0349043" lon="8.5274417"><ele>61.4</ele><time>2026-05-02T09:53:52.529Z</time></trkpt><trkpt lat="40.0348452" lon="8.5275644"><ele>60.60000000000001</ele><time>2026-05-02T09:53:53.53Z</time></trkpt><trkpt lat="40.0347881" lon="8.5276816"><ele>59.800000000000004</ele><time>2026-05-02T09:53:54.528Z</time></trkpt><trkpt lat="40.0347306" lon="8.527793"><ele>59.0</ele><time>2026-05-02T09:53:55.53Z</time></trkpt><trkpt lat="40.03467" lon="8.5278947"><ele>58.6</ele><time>2026-05-02T09:53:56.529Z</time></trkpt><trkpt lat="40.0346086" lon="8.5279946"><ele>58.2</ele><time>2026-05-02T09:53:57.53Z</time></trkpt><trkpt lat="40.0345493" lon="8.5280965"><ele>57.800000000000004</ele><time>2026-05-02T09:53:58.529Z</time></trkpt><trkpt lat="40.0344837" lon="8.5281928"><ele>57.400000000000006</ele><time>2026-05-02T09:53:59.528Z</time></trkpt><trkpt lat="40.0344184" lon="8.5282919"><ele>57.0</ele><time>2026-05-02T09:54:00.528Z</time></trkpt><trkpt lat="40.0343599" lon="8.5283905"><ele>57.0</ele><time>2026-05-02T09:54:01.528Z</time></trkpt><trkpt lat="40.0342982" lon="8.5284862"><ele>57.0</ele><time>2026-05-02T09:54:02.53Z</time></trkpt><trkpt lat="40.034239" lon="8.5285846"><ele>57.0</ele><time>2026-05-02T09:54:03.529Z</time></trkpt><trkpt lat="40.0341842" lon="8.5286878"><ele>57.0</ele><time>2026-05-02T09:54:04.528Z</time></trkpt><trkpt lat="40.0341298" lon="8.5287886"><ele>57.0</ele><time>2026-05-02T09:54:05.529Z</time></trkpt><trkpt lat="40.0340797" lon="8.5288904"><ele>56.666666666666664</ele><time>2026-05-02T09:54:06.529Z</time></trkpt><trkpt lat="40.0340479" lon="8.5289877"><ele>56.33333333333333</ele><time>2026-05-02T09:54:07.529Z</time></trkpt><trkpt lat="40.0340312" lon="8.529094"><ele>56.0</ele><time>2026-05-02T09:54:08.529Z</time></trkpt><trkpt lat="40.0340247" lon="8.5292118"><ele>55.666666666666664</ele><time>2026-05-02T09:54:09.529Z</time></trkpt><trkpt lat="40.0340136" lon="8.52933"><ele>55.33333333333333</ele><time>2026-05-02T09:54:10.528Z</time></trkpt><trkpt lat="40.033999" lon="8.5294547"><ele>55.0</ele><time>2026-05-02T09:54:11.529Z</time></trkpt><trkpt lat="40.0339886" lon="8.5295853"><ele>54.8</ele><time>2026-05-02T09:54:12.529Z</time></trkpt><trkpt lat="40.0339748" lon="8.5297199"><ele>54.6</ele><time>2026-05-02T09:54:13.528Z</time></trkpt><trkpt lat="40.0339546" lon="8.5298525"><ele>54.400000000000006</ele><time>2026-05-02T09:54:14.529Z</time></trkpt><trkpt lat="40.0339316" lon="8.5299838"><ele>54.2</ele><time>2026-05-02T09:54:15.528Z</time></trkpt><trkpt lat="40.0339114" lon="8.5301259"><ele>54.0</ele><time>2026-05-02T09:54:16.53Z</time></trkpt><trkpt lat="40.0339024" lon="8.5302758"><ele>54.2</ele><time>2026-05-02T09:54:17.529Z</time></trkpt><trkpt lat="40.0339104" lon="8.5304203"><ele>54.400000000000006</ele><time>2026-05-02T09:54:18.528Z</time></trkpt><trkpt lat="40.0339263" lon="8.5305528"><ele>54.6</ele><time>2026-05-02T09:54:19.53Z</time></trkpt><trkpt lat="40.0339316" lon="8.5306819"><ele>54.8</ele><time>2026-05-02T09:54:20.53Z</time></trkpt><trkpt lat="40.033919" lon="8.530812"><ele>55.0</ele><time>2026-05-02T09:54:21.529Z</time></trkpt><trkpt lat="40.0338959" lon="8.5309472"><ele>55.0</ele><time>2026-05-02T09:54:22.529Z</time></trkpt><trkpt lat="40.0338547" lon="8.5310887"><ele>55.0</ele><time>2026-05-02T09:54:23.529Z</time></trkpt><trkpt lat="40.0338094" lon="8.5312363"><ele>55.0</ele><time>2026-05-02T09:54:24.53Z</time></trkpt><trkpt lat="40.0337661" lon="8.5313784"><ele>55.0</ele><time>2026-05-02T09:54:25.528Z</time></trkpt><trkpt lat="40.0337215" lon="8.531492"><ele>55.75</ele><time>2026-05-02T09:54:26.528Z</time></trkpt><trkpt lat="40.0336596" lon="8.5315949"><ele>56.5</ele><time>2026-05-02T09:54:27.528Z</time></trkpt><trkpt lat="40.033583" lon="8.5316965"><ele>57.25</ele><time>2026-05-02T09:54:28.53Z</time></trkpt><trkpt lat="40.0334842" lon="8.5317828"><ele>58.0</ele><time>2026-05-02T09:54:29.528Z</time></trkpt><trkpt lat="40.0333792" lon="8.5318631"><ele>58.25</ele><time>2026-05-02T09:54:30.528Z</time></trkpt><trkpt lat="40.033266" lon="8.5319353"><ele>58.5</ele><time>2026-05-02T09:54:31.528Z</time></trkpt><trkpt lat="40.033149" lon="8.5319951"><ele>58.75</ele><time>2026-05-02T09:54:32.528Z</time></trkpt><trkpt lat="40.033033" lon="8.5320448"><ele>59.0</ele><time>2026-05-02T09:54:33.528Z</time></trkpt><trkpt lat="40.0329183" lon="8.5320987"><ele>59.0</ele><time>2026-05-02T09:54:34.529Z</time></trkpt><trkpt lat="40.0328045" lon="8.5321617"><ele>59.0</ele><time>2026-05-02T09:54:35.529Z</time></trkpt><trkpt lat="40.0326894" lon="8.5322082"><ele>59.0</ele><time>2026-05-02T09:54:36.528Z</time></trkpt><trkpt lat="40.0325772" lon="8.5322545"><ele>59.0</ele><time>2026-05-02T09:54:37.53Z</time></trkpt><trkpt lat="40.0324692" lon="8.5323172"><ele>58.75</ele><time>2026-05-02T09:54:38.53Z</time></trkpt><trkpt lat="40.0323674" lon="8.5323995"><ele>58.5</ele><time>2026-05-02T09:54:39.529Z</time></trkpt><trkpt lat="40.0322708" lon="8.5325018"><ele>58.25</ele><time>2026-05-02T09:54:40.528Z</time></trkpt><trkpt lat="40.0321774" lon="8.5326089"><ele>58.0</ele><time>2026-05-02T09:54:41.528Z</time></trkpt><trkpt lat="40.0320856" lon="8.5327064"><ele>57.99999999999999</ele><time>2026-05-02T09:54:42.529Z</time></trkpt><trkpt lat="40.0319969" lon="8.5327986"><ele>58.0</ele><time>2026-05-02T09:54:43.529Z</time></trkpt><trkpt lat="40.0319124" lon="8.532878"><ele>58.0</ele><time>2026-05-02T09:54:44.528Z</time></trkpt><trkpt lat="40.0318443" lon="8.5329379"><ele>58.0</ele><time>2026-05-02T09:54:45.528Z</time></trkpt><trkpt lat="40.031789" lon="8.5329791"><ele>57.99999999999999</ele><time>2026-05-02T09:54:46.528Z</time></trkpt><trkpt lat="40.0317294" lon="8.5330259"><ele>58.0</ele><time>2026-05-02T09:54:48.528Z</time></trkpt><trkpt lat="40.0317175" lon="8.5331488"><ele>58.599999999999994</ele><time>2026-05-02T09:54:51.528Z</time></trkpt><trkpt lat="40.0317254" lon="8.5332876"><ele>59.199999999999996</ele><time>2026-05-02T09:54:53.529Z</time></trkpt><trkpt lat="40.0317317" lon="8.5334507"><ele>59.8</ele><time>2026-05-02T09:54:55.53Z</time></trkpt><trkpt lat="40.0317364" lon="8.5335417"><ele>60.4</ele><time>2026-05-02T09:54:56.53Z</time></trkpt><trkpt lat="40.0317448" lon="8.5336374"><ele>61.0</ele><time>2026-05-02T09:54:57.529Z</time></trkpt><trkpt lat="40.0317589" lon="8.5337405"><ele>61.99999999999999</ele><time>2026-05-02T09:54:58.528Z</time></trkpt><trkpt lat="40.0317653" lon="8.5338428"><ele>63.0</ele><time>2026-05-02T09:54:59.529Z</time></trkpt><trkpt lat="40.0317737" lon="8.53394"><ele>64.0</ele><time>2026-05-02T09:55:00.528Z</time></trkpt><trkpt lat="40.031777" lon="8.5340402"><ele>65.0</ele><time>2026-05-02T09:55:01.528Z</time></trkpt><trkpt lat="40.03178" lon="8.5341375"><ele>66.0</ele><time>2026-05-02T09:55:02.528Z</time></trkpt><trkpt lat="40.0317841" lon="8.5342426"><ele>67.0</ele><time>2026-05-02T09:55:03.529Z</time></trkpt><trkpt lat="40.03179" lon="8.5343435"><ele>67.0</ele><time>2026-05-02T09:55:04.529Z</time></trkpt><trkpt lat="40.0317913" lon="8.5344305"><ele>67.0</ele><time>2026-05-02T09:55:05.529Z</time></trkpt><trkpt lat="40.031797" lon="8.5345224"><ele>67.0</ele><time>2026-05-02T09:55:06.528Z</time></trkpt><trkpt lat="40.0318049" lon="8.5346143"><ele>67.0</ele><time>2026-05-02T09:55:07.53Z</time></trkpt><trkpt lat="40.0317983" lon="8.5347758"><ele>67.0</ele><time>2026-05-02T09:55:09.529Z</time></trkpt><trkpt lat="40.0318213" lon="8.5349457"><ele>67.83333333333333</ele><time>2026-05-02T09:55:11.529Z</time></trkpt><trkpt lat="40.0318593" lon="8.5350374"><ele>68.66666666666666</ele><time>2026-05-02T09:55:12.529Z</time></trkpt><trkpt lat="40.0318869" lon="8.5351342"><ele>69.5</ele><time>2026-05-02T09:55:13.529Z</time></trkpt><trkpt lat="40.0319168" lon="8.5352375"><ele>70.33333333333333</ele><time>2026-05-02T09:55:14.529Z</time></trkpt><trkpt lat="40.0319504" lon="8.5353389"><ele>71.16666666666667</ele><time>2026-05-02T09:55:15.529Z</time></trkpt><trkpt lat="40.0319821" lon="8.5354443"><ele>72.0</ele><time>2026-05-02T09:55:16.529Z</time></trkpt><trkpt lat="40.0320159" lon="8.5355463"><ele>73.14285714285715</ele><time>2026-05-02T09:55:17.528Z</time></trkpt><trkpt lat="40.0320514" lon="8.5356318"><ele>74.28571428571429</ele><time>2026-05-02T09:55:18.528Z</time></trkpt><trkpt lat="40.0320802" lon="8.5357219"><ele>75.42857142857143</ele><time>2026-05-02T09:55:19.53Z</time></trkpt><trkpt lat="40.0321056" lon="8.5358059"><ele>76.57142857142858</ele><time>2026-05-02T09:55:20.53Z</time></trkpt><trkpt lat="40.0321298" lon="8.5358898"><ele>77.71428571428572</ele><time>2026-05-02T09:55:21.528Z</time></trkpt><trkpt lat="40.0321646" lon="8.5359717"><ele>78.85714285714286</ele><time>2026-05-02T09:55:22.529Z</time></trkpt><trkpt lat="40.0321957" lon="8.5360544"><ele>80.0</ele><time>2026-05-02T09:55:23.53Z</time></trkpt><trkpt lat="40.0322276" lon="8.5361348"><ele>80.83333333333334</ele><time>2026-05-02T09:55:24.529Z</time></trkpt><trkpt lat="40.0322595" lon="8.5362238"><ele>81.66666666666667</ele><time>2026-05-02T09:55:25.529Z</time></trkpt><trkpt lat="40.0322919" lon="8.5363164"><ele>82.5</ele><time>2026-05-02T09:55:26.528Z</time></trkpt><trkpt lat="40.0323199" lon="8.536414"><ele>83.33333333333333</ele><time>2026-05-02T09:55:27.528Z</time></trkpt><trkpt lat="40.0323511" lon="8.5365156"><ele>84.16666666666666</ele><time>2026-05-02T09:55:28.529Z</time></trkpt><trkpt lat="40.0323789" lon="8.5366195"><ele>85.0</ele><time>2026-05-02T09:55:29.53Z</time></trkpt><trkpt lat="40.0323991" lon="8.5366999"><ele>85.0</ele><time>2026-05-02T09:55:30.527Z</time></trkpt><trkpt lat="40.0324232" lon="8.536784"><ele>85.0</ele><time>2026-05-02T09:55:31.528Z</time></trkpt><trkpt lat="40.0324816" lon="8.536886"><ele>85.0</ele><time>2026-05-02T09:55:33.527Z</time></trkpt><trkpt lat="40.0325519" lon="8.5369577"><ele>85.0</ele><time>2026-05-02T09:55:35.527Z</time></trkpt><trkpt lat="40.0325941" lon="8.537041"><ele>85.0</ele><time>2026-05-02T09:55:37.528Z</time></trkpt><trkpt lat="40.032645" lon="8.537127"><ele>85.0</ele><time>2026-05-02T09:55:39.527Z</time></trkpt><trkpt lat="40.0327125" lon="8.5372043"><ele>84.33333333333333</ele><time>2026-05-02T09:55:41.528Z</time></trkpt><trkpt lat="40.0327782" lon="8.5372876"><ele>83.66666666666666</ele><time>2026-05-02T09:55:43.529Z</time></trkpt><trkpt lat="40.0328573" lon="8.5373631"><ele>83.0</ele><time>2026-05-02T09:55:45.529Z</time></trkpt><trkpt lat="40.0329661" lon="8.5374187"><ele>82.33333333333333</ele><time>2026-05-02T09:55:47.529Z</time></trkpt><trkpt lat="40.0330368" lon="8.5374349"><ele>81.66666666666667</ele><time>2026-05-02T09:55:48.527Z</time></trkpt><trkpt lat="40.0331034" lon="8.5374662"><ele>81.0</ele><time>2026-05-02T09:55:49.528Z</time></trkpt><trkpt lat="40.0331711" lon="8.5375221"><ele>81.0</ele><time>2026-05-02T09:55:50.528Z</time></trkpt><trkpt lat="40.0332384" lon="8.5375755"><ele>81.0</ele><time>2026-05-02T09:55:51.528Z</time></trkpt><trkpt lat="40.0333119" lon="8.5376114"><ele>81.0</ele><time>2026-05-02T09:55:52.527Z</time></trkpt><trkpt lat="40.0333865" lon="8.5376494"><ele>81.0</ele><time>2026-05-02T09:55:53.528Z</time></trkpt><trkpt lat="40.0334587" lon="8.5376803"><ele>81.0</ele><time>2026-05-02T09:55:54.527Z</time></trkpt><trkpt lat="40.0335335" lon="8.537706"><ele>81.0</ele><time>2026-05-02T09:55:55.527Z</time></trkpt><trkpt lat="40.033608" lon="8.5377191"><ele>81.16666666666667</ele><time>2026-05-02T09:55:56.527Z</time></trkpt><trkpt lat="40.0336854" lon="8.5377185"><ele>81.33333333333333</ele><time>2026-05-02T09:55:57.527Z</time></trkpt><trkpt lat="40.0337627" lon="8.5377146"><ele>81.5</ele><time>2026-05-02T09:55:58.528Z</time></trkpt><trkpt lat="40.0338325" lon="8.5377117"><ele>81.66666666666666</ele><time>2026-05-02T09:55:59.527Z</time></trkpt><trkpt lat="40.0338953" lon="8.5377049"><ele>81.83333333333333</ele><time>2026-05-02T09:56:00.528Z</time></trkpt><trkpt lat="40.0340006" lon="8.5376944"><ele>82.0</ele><time>2026-05-02T09:56:02.527Z</time></trkpt><trkpt lat="40.0340803" lon="8.5376981"><ele>82.5</ele><time>2026-05-02T09:56:04.527Z</time></trkpt><trkpt lat="40.0341633" lon="8.5377359"><ele>83.0</ele><time>2026-05-02T09:56:07.528Z</time></trkpt><trkpt lat="40.0342174" lon="8.537779"><ele>83.5</ele><time>2026-05-02T09:56:09.528Z</time></trkpt><trkpt lat="40.0342792" lon="8.5378432"><ele>84.0</ele><time>2026-05-02T09:56:11.528Z</time></trkpt><trkpt lat="40.0343578" lon="8.5379269"><ele>84.5</ele><time>2026-05-02T09:56:13.527Z</time></trkpt><trkpt lat="40.0344121" lon="8.5379792"><ele>85.0</ele><time>2026-05-02T09:56:14.529Z</time></trkpt><trkpt lat="40.0344712" lon="8.538035"><ele>82.0</ele><time>2026-05-02T09:56:15.529Z</time></trkpt><trkpt lat="40.0345336" lon="8.5381019"><ele>79.0</ele><time>2026-05-02T09:56:16.527Z</time></trkpt><trkpt lat="40.0345941" lon="8.5381771"><ele>76.0</ele><time>2026-05-02T09:56:17.528Z</time></trkpt><trkpt lat="40.0346553" lon="8.5382503"><ele>73.0</ele><time>2026-05-02T09:56:18.527Z</time></trkpt><trkpt lat="40.0347204" lon="8.5383278"><ele>70.0</ele><time>2026-05-02T09:56:19.527Z</time></trkpt><trkpt lat="40.0347835" lon="8.5384038"><ele>67.0</ele><time>2026-05-02T09:56:20.529Z</time></trkpt><trkpt lat="40.034836" lon="8.538473"><ele>67.0</ele><time>2026-05-02T09:56:21.528Z</time></trkpt><trkpt lat="40.034889" lon="8.5385309"><ele>67.0</ele><time>2026-05-02T09:56:22.528Z</time></trkpt><trkpt lat="40.0349794" lon="8.5386452"><ele>67.0</ele><time>2026-05-02T09:56:24.528Z</time></trkpt><trkpt lat="40.0350372" lon="8.5386862"><ele>67.0</ele><time>2026-05-02T09:56:25.528Z</time></trkpt><trkpt lat="40.0351004" lon="8.5387245"><ele>67.0</ele><time>2026-05-02T09:56:26.527Z</time></trkpt><trkpt lat="40.0351655" lon="8.5387735"><ele>67.0</ele><time>2026-05-02T09:56:27.528Z</time></trkpt><trkpt lat="40.0352223" lon="8.5388183"><ele>66.0</ele><time>2026-05-02T09:56:28.529Z</time></trkpt><trkpt lat="40.035314" lon="8.538903"><ele>65.0</ele><time>2026-05-02T09:56:30.527Z</time></trkpt><trkpt lat="40.0354028" lon="8.5389578"><ele>64.0</ele><time>2026-05-02T09:56:32.529Z</time></trkpt><trkpt lat="40.0354664" lon="8.5390549"><ele>63.0</ele><time>2026-05-02T09:56:34.529Z</time></trkpt><trkpt lat="40.035517" lon="8.5391747"><ele>62.0</ele><time>2026-05-02T09:56:36.529Z</time></trkpt><trkpt lat="40.0355518" lon="8.5392518"><ele>62.0</ele><time>2026-05-02T09:56:37.528Z</time></trkpt><trkpt lat="40.035583" lon="8.5393361"><ele>62.0</ele><time>2026-05-02T09:56:38.528Z</time></trkpt><trkpt lat="40.0356116" lon="8.5394793"><ele>62.0</ele><time>2026-05-02T09:56:40.528Z</time></trkpt><trkpt lat="40.035611" lon="8.5396012"><ele>62.0</ele><time>2026-05-02T09:56:42.527Z</time></trkpt><trkpt lat="40.0355633" lon="8.5397576"><ele>62.0</ele><time>2026-05-02T09:56:44.527Z</time></trkpt><trkpt lat="40.0355213" lon="8.5398476"><ele>60.833333333333336</ele><time>2026-05-02T09:56:45.527Z</time></trkpt><trkpt lat="40.0354838" lon="8.5399506"><ele>59.66666666666667</ele><time>2026-05-02T09:56:46.527Z</time></trkpt><trkpt lat="40.0354432" lon="8.5400604"><ele>58.5</ele><time>2026-05-02T09:56:47.528Z</time></trkpt><trkpt lat="40.0353968" lon="8.5401643"><ele>57.33333333333333</ele><time>2026-05-02T09:56:48.527Z</time></trkpt><trkpt lat="40.0353521" lon="8.5402564"><ele>56.166666666666664</ele><time>2026-05-02T09:56:49.529Z</time></trkpt><trkpt lat="40.0352999" lon="8.540329"><ele>55.0</ele><time>2026-05-02T09:56:50.528Z</time></trkpt><trkpt lat="40.03524" lon="8.5404002"><ele>53.99999999999999</ele><time>2026-05-02T09:56:51.529Z</time></trkpt><trkpt lat="40.0351847" lon="8.5404897"><ele>53.0</ele><time>2026-05-02T09:56:52.528Z</time></trkpt><trkpt lat="40.0351445" lon="8.540579"><ele>52.0</ele><time>2026-05-02T09:56:53.528Z</time></trkpt><trkpt lat="40.0351072" lon="8.5406714"><ele>51.0</ele><time>2026-05-02T09:56:54.529Z</time></trkpt><trkpt lat="40.03508" lon="8.5407747"><ele>49.99999999999999</ele><time>2026-05-02T09:56:55.528Z</time></trkpt><trkpt lat="40.0350592" lon="8.5408869"><ele>49.0</ele><time>2026-05-02T09:56:56.528Z</time></trkpt><trkpt lat="40.0350358" lon="8.5410003"><ele>49.0</ele><time>2026-05-02T09:56:57.528Z</time></trkpt><trkpt lat="40.0350117" lon="8.5411141"><ele>49.0</ele><time>2026-05-02T09:56:58.528Z</time></trkpt><trkpt lat="40.0349871" lon="8.5412288"><ele>49.0</ele><time>2026-05-02T09:56:59.528Z</time></trkpt><trkpt lat="40.0349568" lon="8.5413405"><ele>49.0</ele><time>2026-05-02T09:57:00.528Z</time></trkpt><trkpt lat="40.0349182" lon="8.5414486"><ele>49.0</ele><time>2026-05-02T09:57:01.529Z</time></trkpt><trkpt lat="40.0348778" lon="8.5415542"><ele>48.166666666666664</ele><time>2026-05-02T09:57:02.528Z</time></trkpt><trkpt lat="40.0348457" lon="8.5416618"><ele>47.33333333333333</ele><time>2026-05-02T09:57:03.528Z</time></trkpt><trkpt lat="40.0348276" lon="8.541771"><ele>46.5</ele><time>2026-05-02T09:57:04.528Z</time></trkpt><trkpt lat="40.0348112" lon="8.5418852"><ele>45.666666666666664</ele><time>2026-05-02T09:57:05.528Z</time></trkpt><trkpt lat="40.0347911" lon="8.541994"><ele>44.83333333333333</ele><time>2026-05-02T09:57:06.527Z</time></trkpt><trkpt lat="40.03476" lon="8.5420939"><ele>44.0</ele><time>2026-05-02T09:57:07.527Z</time></trkpt><trkpt lat="40.0347193" lon="8.5421941"><ele>43.6</ele><time>2026-05-02T09:57:08.527Z</time></trkpt><trkpt lat="40.0346745" lon="8.5422952"><ele>43.2</ele><time>2026-05-02T09:57:09.527Z</time></trkpt><trkpt lat="40.0346288" lon="8.5423967"><ele>42.800000000000004</ele><time>2026-05-02T09:57:10.528Z</time></trkpt><trkpt lat="40.0345783" lon="8.542499"><ele>42.400000000000006</ele><time>2026-05-02T09:57:11.528Z</time></trkpt><trkpt lat="40.0345297" lon="8.5426071"><ele>42.0</ele><time>2026-05-02T09:57:12.529Z</time></trkpt><trkpt lat="40.0344776" lon="8.542719"><ele>42.0</ele><time>2026-05-02T09:57:13.528Z</time></trkpt><trkpt lat="40.0344207" lon="8.5428318"><ele>42.0</ele><time>2026-05-02T09:57:14.528Z</time></trkpt><trkpt lat="40.0343607" lon="8.5429481"><ele>42.0</ele><time>2026-05-02T09:57:15.528Z</time></trkpt><trkpt lat="40.0343013" lon="8.5430658"><ele>42.0</ele><time>2026-05-02T09:57:16.528Z</time></trkpt><trkpt lat="40.0342382" lon="8.5431851"><ele>42.0</ele><time>2026-05-02T09:57:17.527Z</time></trkpt><trkpt lat="40.0341701" lon="8.5433023"><ele>40.75</ele><time>2026-05-02T09:57:18.528Z</time></trkpt><trkpt lat="40.034102" lon="8.5434211"><ele>39.5</ele><time>2026-05-02T09:57:19.528Z</time></trkpt><trkpt lat="40.0340309" lon="8.5435372"><ele>38.25</ele><time>2026-05-02T09:57:20.528Z</time></trkpt><trkpt lat="40.0339589" lon="8.5436529"><ele>37.0</ele><time>2026-05-02T09:57:21.528Z</time></trkpt><trkpt lat="40.0338887" lon="8.54377"><ele>36.25</ele><time>2026-05-02T09:57:22.528Z</time></trkpt><trkpt lat="40.033823" lon="8.5438898"><ele>35.5</ele><time>2026-05-02T09:57:23.527Z</time></trkpt><trkpt lat="40.0337661" lon="8.5440163"><ele>34.75</ele><time>2026-05-02T09:57:24.527Z</time></trkpt><trkpt lat="40.0337158" lon="8.5441481"><ele>34.0</ele><time>2026-05-02T09:57:25.528Z</time></trkpt><trkpt lat="40.0336696" lon="8.5442834"><ele>34.0</ele><time>2026-05-02T09:57:26.528Z</time></trkpt><trkpt lat="40.0336288" lon="8.5444176"><ele>34.0</ele><time>2026-05-02T09:57:27.528Z</time></trkpt><trkpt lat="40.033595" lon="8.5445299"><ele>34.0</ele><time>2026-05-02T09:57:28.529Z</time></trkpt><trkpt lat="40.0335717" lon="8.5446157"><ele>34.0</ele><time>2026-05-02T09:57:29.528Z</time></trkpt><trkpt lat="40.0335443" lon="8.544736"><ele>34.0</ele><time>2026-05-02T09:57:31.528Z</time></trkpt><trkpt lat="40.0334773" lon="8.5448164"><ele>33.6</ele><time>2026-05-02T10:04:12.526Z</time></trkpt><trkpt lat="40.0333907" lon="8.5449297"><ele>33.2</ele><time>2026-05-02T10:04:14.526Z</time></trkpt><trkpt lat="40.0333412" lon="8.5450041"><ele>32.800000000000004</ele><time>2026-05-02T10:04:15.525Z</time></trkpt><trkpt lat="40.0332857" lon="8.5450846"><ele>32.4</ele><time>2026-05-02T10:04:16.525Z</time></trkpt><trkpt lat="40.0332268" lon="8.5451693"><ele>32.0</ele><time>2026-05-02T10:04:17.525Z</time></trkpt><trkpt lat="40.033165" lon="8.5452614"><ele>32.0</ele><time>2026-05-02T10:04:18.526Z</time></trkpt><trkpt lat="40.0330988" lon="8.5453559"><ele>32.0</ele><time>2026-05-02T10:04:19.526Z</time></trkpt><trkpt lat="40.0330276" lon="8.5454483"><ele>32.0</ele><time>2026-05-02T10:04:20.525Z</time></trkpt><trkpt lat="40.0329454" lon="8.5455392"><ele>32.0</ele><time>2026-05-02T10:04:21.525Z</time></trkpt><trkpt lat="40.0328568" lon="8.5456261"><ele>32.0</ele><time>2026-05-02T10:04:22.525Z</time></trkpt><trkpt lat="40.0327581" lon="8.5457069"><ele>31.5</ele><time>2026-05-02T10:04:23.527Z</time></trkpt><trkpt lat="40.0326581" lon="8.5457862"><ele>31.0</ele><time>2026-05-02T10:04:24.525Z</time></trkpt><trkpt lat="40.0325545" lon="8.545861"><ele>30.5</ele><time>2026-05-02T10:04:25.527Z</time></trkpt><trkpt lat="40.0324475" lon="8.5459341"><ele>30.0</ele><time>2026-05-02T10:04:26.526Z</time></trkpt><trkpt lat="40.0323403" lon="8.5460029"><ele>29.75</ele><time>2026-05-02T10:04:27.527Z</time></trkpt><trkpt lat="40.0322307" lon="8.5460595"><ele>29.5</ele><time>2026-05-02T10:04:28.527Z</time></trkpt><trkpt lat="40.0321209" lon="8.5461006"><ele>29.25</ele><time>2026-05-02T10:04:29.525Z</time></trkpt><trkpt lat="40.0320094" lon="8.54613"><ele>29.0</ele><time>2026-05-02T10:04:30.527Z</time></trkpt><trkpt lat="40.0318989" lon="8.546158"><ele>29.0</ele><time>2026-05-02T10:04:31.527Z</time></trkpt><trkpt lat="40.0317867" lon="8.54619"><ele>29.0</ele><time>2026-05-02T10:04:32.526Z</time></trkpt><trkpt lat="40.0316772" lon="8.546227"><ele>29.0</ele><time>2026-05-02T10:04:33.525Z</time></trkpt><trkpt lat="40.0315735" lon="8.5462662"><ele>29.0</ele><time>2026-05-02T10:04:34.525Z</time></trkpt><trkpt lat="40.0314672" lon="8.5463076"><ele>29.0</ele><time>2026-05-02T10:04:35.525Z</time></trkpt><trkpt lat="40.0313606" lon="8.5463516"><ele>28.6</ele><time>2026-05-02T10:04:36.525Z</time></trkpt><trkpt lat="40.0312536" lon="8.5463982"><ele>28.2</ele><time>2026-05-02T10:04:37.526Z</time></trkpt><trkpt lat="40.0311468" lon="8.5464507"><ele>27.800000000000004</ele><time>2026-05-02T10:04:38.526Z</time></trkpt><trkpt lat="40.0310445" lon="8.5465145"><ele>27.400000000000002</ele><time>2026-05-02T10:04:39.525Z</time></trkpt><trkpt lat="40.0309527" lon="8.5465831"><ele>27.0</ele><time>2026-05-02T10:04:40.526Z</time></trkpt><trkpt lat="40.0308542" lon="8.5466655"><ele>26.5</ele><time>2026-05-02T10:04:41.525Z</time></trkpt><trkpt lat="40.030756" lon="8.5467533"><ele>26.0</ele><time>2026-05-02T10:04:42.525Z</time></trkpt><trkpt lat="40.0306588" lon="8.5468419"><ele>25.5</ele><time>2026-05-02T10:04:43.526Z</time></trkpt><trkpt lat="40.0305574" lon="8.5469296"><ele>25.0</ele><time>2026-05-02T10:04:44.525Z</time></trkpt><trkpt lat="40.0304568" lon="8.5470222"><ele>24.75</ele><time>2026-05-02T10:04:45.527Z</time></trkpt><trkpt lat="40.0303576" lon="8.5471168"><ele>24.5</ele><time>2026-05-02T10:04:46.527Z</time></trkpt><trkpt lat="40.0302583" lon="8.5472146"><ele>24.25</ele><time>2026-05-02T10:04:47.526Z</time></trkpt><trkpt lat="40.0301578" lon="8.5473083"><ele>24.0</ele><time>2026-05-02T10:04:48.526Z</time></trkpt><trkpt lat="40.0300546" lon="8.5474041"><ele>23.75</ele><time>2026-05-02T10:04:49.526Z</time></trkpt><trkpt lat="40.0299543" lon="8.5475036"><ele>23.5</ele><time>2026-05-02T10:04:50.527Z</time></trkpt><trkpt lat="40.0298563" lon="8.5476078"><ele>23.25</ele><time>2026-05-02T10:04:51.526Z</time></trkpt><trkpt lat="40.0297629" lon="8.5477174"><ele>23.0</ele><time>2026-05-02T10:04:52.525Z</time></trkpt><trkpt lat="40.0296752" lon="8.5478303"><ele>22.75</ele><time>2026-05-02T10:04:53.525Z</time></trkpt><trkpt lat="40.0295904" lon="8.5479456"><ele>22.5</ele><time>2026-05-02T10:04:54.525Z</time></trkpt><trkpt lat="40.0295071" lon="8.5480633"><ele>22.25</ele><time>2026-05-02T10:04:55.526Z</time></trkpt><trkpt lat="40.0294234" lon="8.5481806"><ele>22.0</ele><time>2026-05-02T10:04:56.526Z</time></trkpt><trkpt lat="40.0293371" lon="8.548294"><ele>22.0</ele><time>2026-05-02T10:04:57.526Z</time></trkpt><trkpt lat="40.0292514" lon="8.5484036"><ele>22.0</ele><time>2026-05-02T10:04:58.525Z</time></trkpt><trkpt lat="40.0291635" lon="8.5485082"><ele>22.0</ele><time>2026-05-02T10:04:59.526Z</time></trkpt><trkpt lat="40.0290708" lon="8.548607"><ele>22.0</ele><time>2026-05-02T10:05:00.526Z</time></trkpt><trkpt lat="40.0289724" lon="8.5486927"><ele>21.75</ele><time>2026-05-02T10:05:01.526Z</time></trkpt><trkpt lat="40.0288675" lon="8.5487649"><ele>21.5</ele><time>2026-05-02T10:05:02.526Z</time></trkpt><trkpt lat="40.0287591" lon="8.5488357"><ele>21.25</ele><time>2026-05-02T10:05:03.525Z</time></trkpt><trkpt lat="40.0286483" lon="8.5489022"><ele>21.0</ele><time>2026-05-02T10:05:04.526Z</time></trkpt><trkpt lat="40.0285427" lon="8.5489643"><ele>21.0</ele><time>2026-05-02T10:05:05.526Z</time></trkpt><trkpt lat="40.0284455" lon="8.5490176"><ele>21.0</ele><time>2026-05-02T10:05:06.526Z</time></trkpt><trkpt lat="40.0283483" lon="8.5490743"><ele>21.0</ele><time>2026-05-02T10:05:07.525Z</time></trkpt><trkpt lat="40.0282605" lon="8.5491219"><ele>21.0</ele><time>2026-05-02T10:05:08.526Z</time></trkpt><trkpt lat="40.0281846" lon="8.5491551"><ele>21.0</ele><time>2026-05-02T10:05:09.526Z</time></trkpt><trkpt lat="40.0281172" lon="8.5491861"><ele>21.0</ele><time>2026-05-02T10:05:10.527Z</time></trkpt><trkpt lat="40.0280502" lon="8.5492251"><ele>21.0</ele><time>2026-05-02T10:05:11.525Z</time></trkpt><trkpt lat="40.0279788" lon="8.5492632"><ele>21.0</ele><time>2026-05-02T10:05:12.526Z</time></trkpt><trkpt lat="40.0279167" lon="8.5492955"><ele>21.0</ele><time>2026-05-02T10:05:13.527Z</time></trkpt><trkpt lat="40.0278155" lon="8.5493442"><ele>21.0</ele><time>2026-05-02T10:05:15.525Z</time></trkpt><trkpt lat="40.0277613" lon="8.5493872"><ele>21.0</ele><time>2026-05-02T10:05:17.525Z</time></trkpt><trkpt lat="40.0278339" lon="8.5493793"><ele>21.0</ele><time>2026-05-02T10:05:21.525Z</time></trkpt><trkpt lat="40.0279195" lon="8.5493218"><ele>21.0</ele><time>2026-05-02T10:05:23.526Z</time></trkpt><trkpt lat="40.0279927" lon="8.5492836"><ele>21.0</ele><time>2026-05-02T10:05:25.526Z</time></trkpt><trkpt lat="40.0280648" lon="8.5492405"><ele>21.0</ele><time>2026-05-02T10:05:28.526Z</time></trkpt><trkpt lat="40.0281487" lon="8.5492283"><ele>21.0</ele><time>2026-05-02T10:05:31.526Z</time></trkpt><trkpt lat="40.0281964" lon="8.549286"><ele>21.0</ele><time>2026-05-02T10:05:33.526Z</time></trkpt><trkpt lat="40.0282422" lon="8.5494016"><ele>21.0</ele><time>2026-05-02T10:05:35.527Z</time></trkpt><trkpt lat="40.0283054" lon="8.5495502"><ele>21.0</ele><time>2026-05-02T10:05:37.526Z</time></trkpt><trkpt lat="40.0283502" lon="8.5496396"><ele>21.0</ele><time>2026-05-02T10:05:38.526Z</time></trkpt><trkpt lat="40.0283968" lon="8.5497328"><ele>21.0</ele><time>2026-05-02T10:05:39.526Z</time></trkpt><trkpt lat="40.0284525" lon="8.5498349"><ele>21.0</ele><time>2026-05-02T10:05:40.526Z</time></trkpt><trkpt lat="40.028508" lon="8.549951"><ele>21.0</ele><time>2026-05-02T10:05:41.526Z</time></trkpt><trkpt lat="40.028566" lon="8.550066"><ele>21.0</ele><time>2026-05-02T10:05:42.525Z</time></trkpt><trkpt lat="40.0286332" lon="8.5501698"><ele>21.0</ele><time>2026-05-02T10:05:43.526Z</time></trkpt><trkpt lat="40.0287021" lon="8.5502727"><ele>21.0</ele><time>2026-05-02T10:05:44.526Z</time></trkpt><trkpt lat="40.0287703" lon="8.5503732"><ele>21.0</ele><time>2026-05-02T10:05:45.526Z</time></trkpt><trkpt lat="40.0288412" lon="8.5504809"><ele>21.0</ele><time>2026-05-02T10:05:46.526Z</time></trkpt><trkpt lat="40.0289104" lon="8.5505944"><ele>21.0</ele><time>2026-05-02T10:05:47.526Z</time></trkpt><trkpt lat="40.028984" lon="8.5507164"><ele>21.0</ele><time>2026-05-02T10:05:48.527Z</time></trkpt><trkpt lat="40.0290615" lon="8.5508369"><ele>21.0</ele><time>2026-05-02T10:05:49.525Z</time></trkpt><trkpt lat="40.0291386" lon="8.5509584"><ele>21.0</ele><time>2026-05-02T10:05:50.525Z</time></trkpt><trkpt lat="40.0292209" lon="8.5510729"><ele>21.0</ele><time>2026-05-02T10:05:51.526Z</time></trkpt><trkpt lat="40.0293045" lon="8.5511851"><ele>21.0</ele><time>2026-05-02T10:05:52.525Z</time></trkpt><trkpt lat="40.0293894" lon="8.5512866"><ele>21.0</ele><time>2026-05-02T10:05:53.526Z</time></trkpt><trkpt lat="40.0294797" lon="8.5513882"><ele>21.25</ele><time>2026-05-02T10:05:54.526Z</time></trkpt><trkpt lat="40.0295731" lon="8.5514837"><ele>21.5</ele><time>2026-05-02T10:05:55.526Z</time></trkpt><trkpt lat="40.0296702" lon="8.5515831"><ele>21.75</ele><time>2026-05-02T10:05:56.525Z</time></trkpt><trkpt lat="40.0297624" lon="8.5516829"><ele>22.0</ele><time>2026-05-02T10:05:57.526Z</time></trkpt><trkpt lat="40.0298531" lon="8.5517786"><ele>22.0</ele><time>2026-05-02T10:05:58.526Z</time></trkpt><trkpt lat="40.0299406" lon="8.5518821"><ele>22.0</ele><time>2026-05-02T10:05:59.526Z</time></trkpt><trkpt lat="40.030027" lon="8.5519828"><ele>22.0</ele><time>2026-05-02T10:06:00.526Z</time></trkpt><trkpt lat="40.0301109" lon="8.5520924"><ele>22.0</ele><time>2026-05-02T10:06:01.526Z</time></trkpt><trkpt lat="40.0301959" lon="8.552195"><ele>23.25</ele><time>2026-05-02T10:06:02.527Z</time></trkpt><trkpt lat="40.0302846" lon="8.5522896"><ele>24.5</ele><time>2026-05-02T10:06:03.527Z</time></trkpt><trkpt lat="40.0303778" lon="8.5523718"><ele>25.75</ele><time>2026-05-02T10:06:04.527Z</time></trkpt><trkpt lat="40.0304784" lon="8.5524441"><ele>27.0</ele><time>2026-05-02T10:06:05.526Z</time></trkpt><trkpt lat="40.0305793" lon="8.5525095"><ele>27.0</ele><time>2026-05-02T10:06:06.526Z</time></trkpt><trkpt lat="40.0306772" lon="8.5525836"><ele>27.0</ele><time>2026-05-02T10:06:07.526Z</time></trkpt><trkpt lat="40.0307718" lon="8.5526775"><ele>27.0</ele><time>2026-05-02T10:06:08.525Z</time></trkpt><trkpt lat="40.0308612" lon="8.5527853"><ele>27.0</ele><time>2026-05-02T10:06:09.526Z</time></trkpt><trkpt lat="40.0309444" lon="8.5529009"><ele>27.0</ele><time>2026-05-02T10:06:10.526Z</time></trkpt><trkpt lat="40.0310268" lon="8.5530252"><ele>27.0</ele><time>2026-05-02T10:06:11.525Z</time></trkpt><trkpt lat="40.0311028" lon="8.5531551"><ele>27.0</ele><time>2026-05-02T10:06:12.526Z</time></trkpt><trkpt lat="40.031181" lon="8.5532874"><ele>27.0</ele><time>2026-05-02T10:06:13.526Z</time></trkpt><trkpt lat="40.0312574" lon="8.553415"><ele>27.0</ele><time>2026-05-02T10:06:14.525Z</time></trkpt><trkpt lat="40.0313419" lon="8.5535397"><ele>27.0</ele><time>2026-05-02T10:06:15.525Z</time></trkpt><trkpt lat="40.0314262" lon="8.5536636"><ele>27.0</ele><time>2026-05-02T10:06:16.526Z</time></trkpt><trkpt lat="40.0315105" lon="8.5537821"><ele>27.0</ele><time>2026-05-02T10:06:17.526Z</time></trkpt><trkpt lat="40.0315882" lon="8.5538777"><ele>27.0</ele><time>2026-05-02T10:06:18.525Z</time></trkpt><trkpt lat="40.0316555" lon="8.5539558"><ele>27.0</ele><time>2026-05-02T10:06:19.526Z</time></trkpt><trkpt lat="40.031704" lon="8.5540318"><ele>27.0</ele><time>2026-05-02T10:06:20.525Z</time></trkpt><trkpt lat="40.0317365" lon="8.5541148"><ele>27.0</ele><time>2026-05-02T10:06:21.526Z</time></trkpt><trkpt lat="40.0317759" lon="8.5541797"><ele>27.0</ele><time>2026-05-02T10:06:22.527Z</time></trkpt><trkpt lat="40.0318297" lon="8.5542511"><ele>27.0</ele><time>2026-05-02T10:06:23.526Z</time></trkpt><trkpt lat="40.0318877" lon="8.5543199"><ele>27.0</ele><time>2026-05-02T10:06:24.526Z</time></trkpt><trkpt lat="40.0319506" lon="8.5543969"><ele>27.000000000000004</ele><time>2026-05-02T10:06:25.526Z</time></trkpt><trkpt lat="40.0320189" lon="8.5544795"><ele>27.000000000000004</ele><time>2026-05-02T10:06:26.525Z</time></trkpt><trkpt lat="40.0320879" lon="8.5545693"><ele>27.0</ele><time>2026-05-02T10:06:27.526Z</time></trkpt><trkpt lat="40.0321563" lon="8.5546569"><ele>27.0</ele><time>2026-05-02T10:06:28.526Z</time></trkpt><trkpt lat="40.0322266" lon="8.5547445"><ele>27.0</ele><time>2026-05-02T10:06:29.527Z</time></trkpt><trkpt lat="40.0322996" lon="8.5548335"><ele>27.000000000000004</ele><time>2026-05-02T10:06:30.526Z</time></trkpt><trkpt lat="40.0323707" lon="8.5549184"><ele>27.000000000000004</ele><time>2026-05-02T10:06:31.527Z</time></trkpt><trkpt lat="40.0324467" lon="8.555"><ele>27.0</ele><time>2026-05-02T10:06:32.526Z</time></trkpt><trkpt lat="40.0325182" lon="8.5550794"><ele>27.0</ele><time>2026-05-02T10:06:33.526Z</time></trkpt><trkpt lat="40.0325834" lon="8.5551638"><ele>27.200000000000003</ele><time>2026-05-02T10:06:34.525Z</time></trkpt><trkpt lat="40.0326488" lon="8.5552501"><ele>27.400000000000002</ele><time>2026-05-02T10:06:35.526Z</time></trkpt><trkpt lat="40.0327154" lon="8.5553435"><ele>27.599999999999998</ele><time>2026-05-02T10:06:36.526Z</time></trkpt><trkpt lat="40.0327793" lon="8.555442"><ele>27.799999999999997</ele><time>2026-05-02T10:06:37.527Z</time></trkpt><trkpt lat="40.0328415" lon="8.5555411"><ele>28.0</ele><time>2026-05-02T10:06:38.526Z</time></trkpt><trkpt lat="40.0329038" lon="8.5556434"><ele>27.599999999999998</ele><time>2026-05-02T10:06:39.526Z</time></trkpt><trkpt lat="40.0329704" lon="8.5557396"><ele>27.199999999999996</ele><time>2026-05-02T10:06:40.526Z</time></trkpt><trkpt lat="40.0330411" lon="8.5558282"><ele>26.8</ele><time>2026-05-02T10:06:41.526Z</time></trkpt><trkpt lat="40.033116" lon="8.5559143"><ele>26.4</ele><time>2026-05-02T10:06:42.526Z</time></trkpt><trkpt lat="40.0331986" lon="8.5559929"><ele>26.0</ele><time>2026-05-02T10:06:43.526Z</time></trkpt><trkpt lat="40.033282" lon="8.5560644"><ele>26.200000000000003</ele><time>2026-05-02T10:06:44.526Z</time></trkpt><trkpt lat="40.0333649" lon="8.5561372"><ele>26.400000000000002</ele><time>2026-05-02T10:06:45.526Z</time></trkpt><trkpt lat="40.0334487" lon="8.556208"><ele>26.6</ele><time>2026-05-02T10:06:46.525Z</time></trkpt><trkpt lat="40.0335273" lon="8.5562798"><ele>26.8</ele><time>2026-05-02T10:06:47.526Z</time></trkpt><trkpt lat="40.0336036" lon="8.5563549"><ele>27.0</ele><time>2026-05-02T10:06:48.526Z</time></trkpt><trkpt lat="40.0336756" lon="8.5564338"><ele>26.400000000000002</ele><time>2026-05-02T10:06:49.525Z</time></trkpt><trkpt lat="40.033751" lon="8.5565107"><ele>25.800000000000004</ele><time>2026-05-02T10:06:50.527Z</time></trkpt><trkpt lat="40.0338311" lon="8.5565896"><ele>25.2</ele><time>2026-05-02T10:06:51.526Z</time></trkpt><trkpt lat="40.0339085" lon="8.5566719"><ele>24.6</ele><time>2026-05-02T10:06:52.526Z</time></trkpt><trkpt lat="40.033985" lon="8.5567572"><ele>24.0</ele><time>2026-05-02T10:06:53.527Z</time></trkpt><trkpt lat="40.0340641" lon="8.5568397"><ele>24.2</ele><time>2026-05-02T10:06:54.527Z</time></trkpt><trkpt lat="40.0341446" lon="8.5569188"><ele>24.4</ele><time>2026-05-02T10:06:55.527Z</time></trkpt><trkpt lat="40.0342272" lon="8.5569982"><ele>24.6</ele><time>2026-05-02T10:06:56.525Z</time></trkpt><trkpt lat="40.0343091" lon="8.5570797"><ele>24.8</ele><time>2026-05-02T10:06:57.525Z</time></trkpt><trkpt lat="40.0343948" lon="8.5571631"><ele>25.0</ele><time>2026-05-02T10:06:58.526Z</time></trkpt><trkpt lat="40.0344784" lon="8.5572568"><ele>24.4</ele><time>2026-05-02T10:06:59.527Z</time></trkpt><trkpt lat="40.0345542" lon="8.5573533"><ele>23.8</ele><time>2026-05-02T10:07:00.526Z</time></trkpt><trkpt lat="40.0346254" lon="8.5574542"><ele>23.200000000000003</ele><time>2026-05-02T10:07:01.526Z</time></trkpt><trkpt lat="40.0346983" lon="8.5575545"><ele>22.6</ele><time>2026-05-02T10:07:02.525Z</time></trkpt><trkpt lat="40.0347732" lon="8.5576566"><ele>22.0</ele><time>2026-05-02T10:07:03.525Z</time></trkpt><trkpt lat="40.0348504" lon="8.5577533"><ele>22.0</ele><time>2026-05-02T10:07:04.526Z</time></trkpt><trkpt lat="40.0349192" lon="8.5578494"><ele>22.0</ele><time>2026-05-02T10:07:05.525Z</time></trkpt><trkpt lat="40.0349948" lon="8.5579374"><ele>22.0</ele><time>2026-05-02T10:07:06.526Z</time></trkpt><trkpt lat="40.0350734" lon="8.5580182"><ele>22.0</ele><time>2026-05-02T10:07:07.526Z</time></trkpt><trkpt lat="40.0351593" lon="8.5580921"><ele>22.0</ele><time>2026-05-02T10:07:08.526Z</time></trkpt><trkpt lat="40.0352502" lon="8.5581573"><ele>21.6</ele><time>2026-05-02T10:07:09.526Z</time></trkpt><trkpt lat="40.0353414" lon="8.5582178"><ele>21.200000000000003</ele><time>2026-05-02T10:07:10.526Z</time></trkpt><trkpt lat="40.0354263" lon="8.5582829"><ele>20.8</ele><time>2026-05-02T10:07:11.526Z</time></trkpt><trkpt lat="40.0354977" lon="8.5583472"><ele>20.4</ele><time>2026-05-02T10:07:12.525Z</time></trkpt><trkpt lat="40.0355572" lon="8.5584154"><ele>20.0</ele><time>2026-05-02T10:07:13.526Z</time></trkpt><trkpt lat="40.0356166" lon="8.558501"><ele>20.0</ele><time>2026-05-02T10:07:14.527Z</time></trkpt><trkpt lat="40.0356779" lon="8.5585953"><ele>20.0</ele><time>2026-05-02T10:07:15.527Z</time></trkpt><trkpt lat="40.0357484" lon="8.5586921"><ele>20.0</ele><time>2026-05-02T10:07:16.526Z</time></trkpt><trkpt lat="40.0358211" lon="8.5587876"><ele>20.0</ele><time>2026-05-02T10:07:17.525Z</time></trkpt><trkpt lat="40.0358931" lon="8.558879"><ele>20.0</ele><time>2026-05-02T10:07:18.526Z</time></trkpt><trkpt lat="40.0359699" lon="8.5589688"><ele>20.4</ele><time>2026-05-02T10:07:19.527Z</time></trkpt><trkpt lat="40.0360503" lon="8.5590506"><ele>20.8</ele><time>2026-05-02T10:07:20.526Z</time></trkpt><trkpt lat="40.0361414" lon="8.5591244"><ele>21.200000000000003</ele><time>2026-05-02T10:07:21.526Z</time></trkpt><trkpt lat="40.0362385" lon="8.5591814"><ele>21.6</ele><time>2026-05-02T10:07:22.526Z</time></trkpt><trkpt lat="40.0363331" lon="8.5592377"><ele>22.0</ele><time>2026-05-02T10:07:23.525Z</time></trkpt><trkpt lat="40.0364274" lon="8.5593054"><ele>22.0</ele><time>2026-05-02T10:07:24.526Z</time></trkpt><trkpt lat="40.036516" lon="8.5593833"><ele>22.0</ele><time>2026-05-02T10:07:25.526Z</time></trkpt><trkpt lat="40.0365995" lon="8.5594699"><ele>22.0</ele><time>2026-05-02T10:07:26.526Z</time></trkpt><trkpt lat="40.0366765" lon="8.5595523"><ele>22.0</ele><time>2026-05-02T10:07:27.526Z</time></trkpt><trkpt lat="40.0367549" lon="8.5596339"><ele>22.0</ele><time>2026-05-02T10:07:28.526Z</time></trkpt><trkpt lat="40.0368312" lon="8.5597219"><ele>22.25</ele><time>2026-05-02T10:07:29.526Z</time></trkpt><trkpt lat="40.0369066" lon="8.5598196"><ele>22.5</ele><time>2026-05-02T10:07:30.525Z</time></trkpt><trkpt lat="40.0369836" lon="8.5599257"><ele>22.75</ele><time>2026-05-02T10:07:31.525Z</time></trkpt><trkpt lat="40.0370582" lon="8.5600394"><ele>23.0</ele><time>2026-05-02T10:07:32.526Z</time></trkpt><trkpt lat="40.0371304" lon="8.5601595"><ele>23.0</ele><time>2026-05-02T10:07:33.527Z</time></trkpt><trkpt lat="40.0372027" lon="8.5602759"><ele>23.0</ele><time>2026-05-02T10:07:34.526Z</time></trkpt><trkpt lat="40.0372825" lon="8.5603927"><ele>23.0</ele><time>2026-05-02T10:07:35.526Z</time></trkpt><trkpt lat="40.0373604" lon="8.5605144"><ele>23.0</ele><time>2026-05-02T10:07:36.527Z</time></trkpt><trkpt lat="40.0374386" lon="8.5606334"><ele>22.5</ele><time>2026-05-02T10:07:37.525Z</time></trkpt><trkpt lat="40.0375226" lon="8.5607497"><ele>22.0</ele><time>2026-05-02T10:07:38.525Z</time></trkpt><trkpt lat="40.03761" lon="8.5608712"><ele>21.5</ele><time>2026-05-02T10:07:39.525Z</time></trkpt><trkpt lat="40.0376972" lon="8.5609899"><ele>21.0</ele><time>2026-05-02T10:07:40.527Z</time></trkpt><trkpt lat="40.037783" lon="8.5610986"><ele>20.5</ele><time>2026-05-02T10:07:41.526Z</time></trkpt><trkpt lat="40.0378711" lon="8.5612066"><ele>20.0</ele><time>2026-05-02T10:07:42.527Z</time></trkpt><trkpt lat="40.0379657" lon="8.5613112"><ele>19.5</ele><time>2026-05-02T10:07:43.526Z</time></trkpt><trkpt lat="40.038066" lon="8.5614094"><ele>19.0</ele><time>2026-05-02T10:07:44.527Z</time></trkpt><trkpt lat="40.0381703" lon="8.5614987"><ele>19.0</ele><time>2026-05-02T10:07:45.526Z</time></trkpt><trkpt lat="40.0382645" lon="8.5615841"><ele>19.0</ele><time>2026-05-02T10:07:46.526Z</time></trkpt><trkpt lat="40.0383533" lon="8.5616706"><ele>19.0</ele><time>2026-05-02T10:07:47.526Z</time></trkpt><trkpt lat="40.0384469" lon="8.5617552"><ele>19.0</ele><time>2026-05-02T10:07:48.526Z</time></trkpt><trkpt lat="40.0385468" lon="8.5618364"><ele>19.0</ele><time>2026-05-02T10:07:49.526Z</time></trkpt><trkpt lat="40.0386434" lon="8.5619179"><ele>19.0</ele><time>2026-05-02T10:07:50.526Z</time></trkpt><trkpt lat="40.0387394" lon="8.5619992"><ele>19.0</ele><time>2026-05-02T10:07:51.526Z</time></trkpt><trkpt lat="40.0388318" lon="8.5620821"><ele>19.0</ele><time>2026-05-02T10:07:52.526Z</time></trkpt><trkpt lat="40.0389131" lon="8.5621518"><ele>19.0</ele><time>2026-05-02T10:07:53.526Z</time></trkpt><trkpt lat="40.0389904" lon="8.5622313"><ele>19.0</ele><time>2026-05-02T10:07:54.526Z</time></trkpt><trkpt lat="40.0390596" lon="8.5623253"><ele>19.0</ele><time>2026-05-02T10:07:55.525Z</time></trkpt><trkpt lat="40.0391228" lon="8.5624358"><ele>19.0</ele><time>2026-05-02T10:07:56.526Z</time></trkpt><trkpt lat="40.0391819" lon="8.5625523"><ele>19.0</ele><time>2026-05-02T10:07:57.525Z</time></trkpt><trkpt lat="40.0392441" lon="8.562664"><ele>19.0</ele><time>2026-05-02T10:07:58.526Z</time></trkpt><trkpt lat="40.0393028" lon="8.562775"><ele>19.6</ele><time>2026-05-02T10:07:59.527Z</time></trkpt><trkpt lat="40.0393695" lon="8.5628735"><ele>20.2</ele><time>2026-05-02T10:08:00.526Z</time></trkpt><trkpt lat="40.0394415" lon="8.562963"><ele>20.8</ele><time>2026-05-02T10:08:01.526Z</time></trkpt><trkpt lat="40.0395145" lon="8.5630505"><ele>21.400000000000002</ele><time>2026-05-02T10:08:02.526Z</time></trkpt><trkpt lat="40.0395914" lon="8.5631378"><ele>22.0</ele><time>2026-05-02T10:08:03.526Z</time></trkpt><trkpt lat="40.039673" lon="8.5632183"><ele>22.0</ele><time>2026-05-02T10:08:04.525Z</time></trkpt><trkpt lat="40.0397624" lon="8.563286"><ele>22.0</ele><time>2026-05-02T10:08:05.527Z</time></trkpt><trkpt lat="40.0398542" lon="8.5633434"><ele>22.0</ele><time>2026-05-02T10:08:06.526Z</time></trkpt><trkpt lat="40.0399396" lon="8.5633936"><ele>22.0</ele><time>2026-05-02T10:08:07.524Z</time></trkpt><trkpt lat="40.0400094" lon="8.5634302"><ele>22.0</ele><time>2026-05-02T10:08:08.524Z</time></trkpt><trkpt lat="40.0401099" lon="8.563494"><ele>22.0</ele><time>2026-05-02T10:08:10.525Z</time></trkpt><trkpt lat="40.040183" lon="8.5635489"><ele>22.0</ele><time>2026-05-02T10:08:12.525Z</time></trkpt><trkpt lat="40.0402624" lon="8.5636141"><ele>22.0</ele><time>2026-05-02T10:08:14.525Z</time></trkpt><trkpt lat="40.0403315" lon="8.5636396"><ele>22.0</ele><time>2026-05-02T10:08:15.525Z</time></trkpt><trkpt lat="40.0404067" lon="8.5636626"><ele>22.0</ele><time>2026-05-02T10:08:16.525Z</time></trkpt><trkpt lat="40.040482" lon="8.5636999"><ele>22.0</ele><time>2026-05-02T10:08:17.525Z</time></trkpt><trkpt lat="40.0405623" lon="8.5637539"><ele>22.0</ele><time>2026-05-02T10:08:18.526Z</time></trkpt><trkpt lat="40.0406441" lon="8.5638114"><ele>22.0</ele><time>2026-05-02T10:08:19.525Z</time></trkpt><trkpt lat="40.0407314" lon="8.5638732"><ele>22.0</ele><time>2026-05-02T10:08:20.525Z</time></trkpt><trkpt lat="40.0408188" lon="8.5639356"><ele>22.0</ele><time>2026-05-02T10:08:21.524Z</time></trkpt><trkpt lat="40.0409049" lon="8.5639988"><ele>22.0</ele><time>2026-05-02T10:08:22.526Z</time></trkpt><trkpt lat="40.0409999" lon="8.5640636"><ele>22.25</ele><time>2026-05-02T10:08:23.525Z</time></trkpt><trkpt lat="40.0411024" lon="8.5641265"><ele>22.5</ele><time>2026-05-02T10:08:24.525Z</time></trkpt><trkpt lat="40.0412089" lon="8.564193"><ele>22.75</ele><time>2026-05-02T10:08:25.526Z</time></trkpt><trkpt lat="40.0413179" lon="8.5642557"><ele>23.0</ele><time>2026-05-02T10:08:26.525Z</time></trkpt><trkpt lat="40.0414306" lon="8.5643213"><ele>23.0</ele><time>2026-05-02T10:08:27.526Z</time></trkpt><trkpt lat="40.0415441" lon="8.5643882"><ele>23.0</ele><time>2026-05-02T10:08:28.526Z</time></trkpt><trkpt lat="40.0416554" lon="8.5644582"><ele>23.0</ele><time>2026-05-02T10:08:29.525Z</time></trkpt><trkpt lat="40.0417706" lon="8.5645238"><ele>23.0</ele><time>2026-05-02T10:08:30.525Z</time></trkpt><trkpt lat="40.041887" lon="8.5645883"><ele>23.5</ele><time>2026-05-02T10:08:31.525Z</time></trkpt><trkpt lat="40.0420037" lon="8.5646543"><ele>24.0</ele><time>2026-05-02T10:08:32.526Z</time></trkpt><trkpt lat="40.0421233" lon="8.5647156"><ele>24.5</ele><time>2026-05-02T10:08:33.525Z</time></trkpt><trkpt lat="40.0422483" lon="8.5647745"><ele>25.0</ele><time>2026-05-02T10:08:34.526Z</time></trkpt><trkpt lat="40.0423706" lon="8.5648304"><ele>25.5</ele><time>2026-05-02T10:08:35.526Z</time></trkpt><trkpt lat="40.0424955" lon="8.5648781"><ele>26.0</ele><time>2026-05-02T10:08:36.524Z</time></trkpt><trkpt lat="40.0426183" lon="8.5649303"><ele>26.5</ele><time>2026-05-02T10:08:37.525Z</time></trkpt><trkpt lat="40.0427368" lon="8.5649948"><ele>27.0</ele><time>2026-05-02T10:08:38.525Z</time></trkpt><trkpt lat="40.0428572" lon="8.5650617"><ele>27.0</ele><time>2026-05-02T10:08:39.525Z</time></trkpt><trkpt lat="40.0429759" lon="8.5651336"><ele>27.0</ele><time>2026-05-02T10:08:40.526Z</time></trkpt><trkpt lat="40.0430911" lon="8.5651998"><ele>27.0</ele><time>2026-05-02T10:08:41.525Z</time></trkpt><trkpt lat="40.0431919" lon="8.5652666"><ele>27.0</ele><time>2026-05-02T10:08:42.525Z</time></trkpt><trkpt lat="40.0432772" lon="8.5653458"><ele>27.200000000000003</ele><time>2026-05-02T10:08:43.524Z</time></trkpt><trkpt lat="40.0433511" lon="8.565446"><ele>27.400000000000002</ele><time>2026-05-02T10:08:44.524Z</time></trkpt><trkpt lat="40.0434053" lon="8.5655668"><ele>27.599999999999998</ele><time>2026-05-02T10:08:45.525Z</time></trkpt><trkpt lat="40.0434477" lon="8.5657021"><ele>27.799999999999997</ele><time>2026-05-02T10:08:46.524Z</time></trkpt><trkpt lat="40.0434936" lon="8.5658431"><ele>28.0</ele><time>2026-05-02T10:08:47.526Z</time></trkpt><trkpt lat="40.0435537" lon="8.5659894"><ele>28.0</ele><time>2026-05-02T10:08:48.525Z</time></trkpt><trkpt lat="40.0436301" lon="8.5661276"><ele>28.0</ele><time>2026-05-02T10:08:49.525Z</time></trkpt><trkpt lat="40.0437173" lon="8.5662609"><ele>28.0</ele><time>2026-05-02T10:08:50.524Z</time></trkpt><trkpt lat="40.0438123" lon="8.566389"><ele>28.0</ele><time>2026-05-02T10:08:51.525Z</time></trkpt><trkpt lat="40.0439094" lon="8.5665025"><ele>28.0</ele><time>2026-05-02T10:08:52.526Z</time></trkpt><trkpt lat="40.0440069" lon="8.5666126"><ele>28.0</ele><time>2026-05-02T10:08:53.525Z</time></trkpt><trkpt lat="40.0441042" lon="8.5667228"><ele>28.0</ele><time>2026-05-02T10:08:54.526Z</time></trkpt><trkpt lat="40.0442015" lon="8.5668308"><ele>28.0</ele><time>2026-05-02T10:08:55.525Z</time></trkpt><trkpt lat="40.0443045" lon="8.5669198"><ele>28.25</ele><time>2026-05-02T10:08:56.524Z</time></trkpt><trkpt lat="40.0444203" lon="8.5669928"><ele>28.5</ele><time>2026-05-02T10:08:57.524Z</time></trkpt><trkpt lat="40.0445449" lon="8.5670479"><ele>28.75</ele><time>2026-05-02T10:08:58.525Z</time></trkpt><trkpt lat="40.0446715" lon="8.567096"><ele>29.0</ele><time>2026-05-02T10:08:59.525Z</time></trkpt><trkpt lat="40.0447972" lon="8.5671476"><ele>29.25</ele><time>2026-05-02T10:09:00.524Z</time></trkpt><trkpt lat="40.0449188" lon="8.5672049"><ele>29.5</ele><time>2026-05-02T10:09:01.525Z</time></trkpt><trkpt lat="40.0450402" lon="8.567273"><ele>29.75</ele><time>2026-05-02T10:09:02.525Z</time></trkpt><trkpt lat="40.0451553" lon="8.5673539"><ele>30.0</ele><time>2026-05-02T10:09:03.526Z</time></trkpt><trkpt lat="40.0452616" lon="8.5674478"><ele>30.25</ele><time>2026-05-02T10:09:04.525Z</time></trkpt><trkpt lat="40.0453557" lon="8.567562"><ele>30.5</ele><time>2026-05-02T10:09:05.524Z</time></trkpt><trkpt lat="40.0454384" lon="8.5676892"><ele>30.75</ele><time>2026-05-02T10:09:06.526Z</time></trkpt><trkpt lat="40.0455118" lon="8.5678277"><ele>31.0</ele><time>2026-05-02T10:09:07.526Z</time></trkpt><trkpt lat="40.0455825" lon="8.5679692"><ele>31.25</ele><time>2026-05-02T10:09:08.525Z</time></trkpt><trkpt lat="40.0456526" lon="8.5681062"><ele>31.5</ele><time>2026-05-02T10:09:09.526Z</time></trkpt><trkpt lat="40.0457209" lon="8.5682514"><ele>31.75</ele><time>2026-05-02T10:09:10.524Z</time></trkpt><trkpt lat="40.0457879" lon="8.5683939"><ele>32.0</ele><time>2026-05-02T10:09:11.525Z</time></trkpt><trkpt lat="40.0458578" lon="8.5685253"><ele>32.5</ele><time>2026-05-02T10:09:12.525Z</time></trkpt><trkpt lat="40.0459503" lon="8.5686394"><ele>33.0</ele><time>2026-05-02T10:09:13.525Z</time></trkpt><trkpt lat="40.0460607" lon="8.5687271"><ele>33.5</ele><time>2026-05-02T10:09:14.525Z</time></trkpt><trkpt lat="40.0461832" lon="8.568796"><ele>34.0</ele><time>2026-05-02T10:09:15.526Z</time></trkpt><trkpt lat="40.0463013" lon="8.5688665"><ele>34.0</ele><time>2026-05-02T10:09:16.526Z</time></trkpt><trkpt lat="40.0464134" lon="8.5689368"><ele>34.0</ele><time>2026-05-02T10:09:17.525Z</time></trkpt><trkpt lat="40.0465241" lon="8.5690032"><ele>34.0</ele><time>2026-05-02T10:09:18.525Z</time></trkpt><trkpt lat="40.0466402" lon="8.5690684"><ele>34.0</ele><time>2026-05-02T10:09:19.524Z</time></trkpt><trkpt lat="40.0467578" lon="8.5691246"><ele>34.5</ele><time>2026-05-02T10:09:20.524Z</time></trkpt><trkpt lat="40.0468818" lon="8.5691692"><ele>35.0</ele><time>2026-05-02T10:09:21.525Z</time></trkpt><trkpt lat="40.0470054" lon="8.5692068"><ele>35.5</ele><time>2026-05-02T10:09:22.526Z</time></trkpt><trkpt lat="40.0471331" lon="8.569244"><ele>36.0</ele><time>2026-05-02T10:09:23.525Z</time></trkpt><trkpt lat="40.0472541" lon="8.5692891"><ele>36.0</ele><time>2026-05-02T10:09:24.524Z</time></trkpt><trkpt lat="40.047371" lon="8.5693479"><ele>36.0</ele><time>2026-05-02T10:09:25.525Z</time></trkpt><trkpt lat="40.0474868" lon="8.569419"><ele>36.0</ele><time>2026-05-02T10:09:26.525Z</time></trkpt><trkpt lat="40.0475998" lon="8.5694855"><ele>36.0</ele><time>2026-05-02T10:09:27.524Z</time></trkpt><trkpt lat="40.0477201" lon="8.5695387"><ele>36.5</ele><time>2026-05-02T10:09:28.526Z</time></trkpt><trkpt lat="40.0478418" lon="8.5695839"><ele>37.0</ele><time>2026-05-02T10:09:29.525Z</time></trkpt><trkpt lat="40.0479652" lon="8.5696239"><ele>37.5</ele><time>2026-05-02T10:09:30.524Z</time></trkpt><trkpt lat="40.0480871" lon="8.5696643"><ele>38.0</ele><time>2026-05-02T10:09:31.526Z</time></trkpt><trkpt lat="40.0482118" lon="8.5696974"><ele>38.75</ele><time>2026-05-02T10:09:32.526Z</time></trkpt><trkpt lat="40.0483377" lon="8.5697264"><ele>39.5</ele><time>2026-05-02T10:09:33.525Z</time></trkpt><trkpt lat="40.0484631" lon="8.5697474"><ele>40.25</ele><time>2026-05-02T10:09:34.526Z</time></trkpt><trkpt lat="40.0485876" lon="8.5697734"><ele>41.0</ele><time>2026-05-02T10:09:35.525Z</time></trkpt><trkpt lat="40.0487113" lon="8.569801"><ele>41.0</ele><time>2026-05-02T10:09:36.525Z</time></trkpt><trkpt lat="40.0488344" lon="8.5698315"><ele>41.0</ele><time>2026-05-02T10:09:37.524Z</time></trkpt><trkpt lat="40.0489554" lon="8.5698717"><ele>41.0</ele><time>2026-05-02T10:09:38.525Z</time></trkpt><trkpt lat="40.0490729" lon="8.569919"><ele>41.0</ele><time>2026-05-02T10:09:39.526Z</time></trkpt><trkpt lat="40.0491807" lon="8.5699712"><ele>41.8</ele><time>2026-05-02T10:09:40.525Z</time></trkpt><trkpt lat="40.0492747" lon="8.570039"><ele>42.599999999999994</ele><time>2026-05-02T10:09:41.524Z</time></trkpt><trkpt lat="40.0493475" lon="8.5701334"><ele>43.4</ele><time>2026-05-02T10:09:42.525Z</time></trkpt><trkpt lat="40.0494048" lon="8.5702554"><ele>44.2</ele><time>2026-05-02T10:09:43.526Z</time></trkpt><trkpt lat="40.0494541" lon="8.5703858"><ele>45.0</ele><time>2026-05-02T10:09:44.526Z</time></trkpt><trkpt lat="40.0495096" lon="8.5705211"><ele>45.0</ele><time>2026-05-02T10:09:45.524Z</time></trkpt><trkpt lat="40.0495739" lon="8.5706503"><ele>45.0</ele><time>2026-05-02T10:09:46.526Z</time></trkpt><trkpt lat="40.0496465" lon="8.5707722"><ele>45.0</ele><time>2026-05-02T10:09:47.526Z</time></trkpt><trkpt lat="40.0497239" lon="8.5708943"><ele>45.0</ele><time>2026-05-02T10:09:48.525Z</time></trkpt><trkpt lat="40.0498105" lon="8.5710096"><ele>45.0</ele><time>2026-05-02T10:09:49.525Z</time></trkpt><trkpt lat="40.0498996" lon="8.5711214"><ele>45.0</ele><time>2026-05-02T10:09:50.526Z</time></trkpt><trkpt lat="40.0499897" lon="8.5712337"><ele>45.0</ele><time>2026-05-02T10:09:51.524Z</time></trkpt><trkpt lat="40.0500779" lon="8.5713456"><ele>45.0</ele><time>2026-05-02T10:09:52.526Z</time></trkpt><trkpt lat="40.050154" lon="8.5714588"><ele>46.0</ele><time>2026-05-02T10:09:53.525Z</time></trkpt><trkpt lat="40.0502227" lon="8.5715832"><ele>47.0</ele><time>2026-05-02T10:09:54.526Z</time></trkpt><trkpt lat="40.0502848" lon="8.5717154"><ele>48.0</ele><time>2026-05-02T10:09:55.526Z</time></trkpt><trkpt lat="40.0503444" lon="8.5718483"><ele>49.0</ele><time>2026-05-02T10:09:56.526Z</time></trkpt><trkpt lat="40.0504007" lon="8.5719775"><ele>48.666666666666664</ele><time>2026-05-02T10:09:57.525Z</time></trkpt><trkpt lat="40.0504469" lon="8.5720912"><ele>48.33333333333333</ele><time>2026-05-02T10:09:58.524Z</time></trkpt><trkpt lat="40.0504818" lon="8.5721957"><ele>48.0</ele><time>2026-05-02T10:09:59.525Z</time></trkpt><trkpt lat="40.0505072" lon="8.57228"><ele>47.666666666666664</ele><time>2026-05-02T10:10:00.525Z</time></trkpt><trkpt lat="40.0505334" lon="8.5723759"><ele>47.33333333333333</ele><time>2026-05-02T10:10:02.526Z</time></trkpt><trkpt lat="40.050519" lon="8.5724642"><ele>47.0</ele><time>2026-05-02T10:10:04.524Z</time></trkpt><trkpt lat="40.0504479" lon="8.5725613"><ele>47.0</ele><time>2026-05-02T10:10:06.526Z</time></trkpt><trkpt lat="40.0503382" lon="8.5726279"><ele>47.0</ele><time>2026-05-02T10:10:08.524Z</time></trkpt><trkpt lat="40.050288" lon="8.5726887"><ele>47.0</ele><time>2026-05-02T10:10:09.526Z</time></trkpt><trkpt lat="40.0502444" lon="8.5727692"><ele>47.0</ele><time>2026-05-02T10:10:10.526Z</time></trkpt><trkpt lat="40.0502083" lon="8.5728636"><ele>47.0</ele><time>2026-05-02T10:10:11.526Z</time></trkpt><trkpt lat="40.050177" lon="8.572965"><ele>47.0</ele><time>2026-05-02T10:10:12.525Z</time></trkpt><trkpt lat="40.0501507" lon="8.5730704"><ele>47.166666666666664</ele><time>2026-05-02T10:10:13.525Z</time></trkpt><trkpt lat="40.0501392" lon="8.5731798"><ele>47.33333333333333</ele><time>2026-05-02T10:10:14.525Z</time></trkpt><trkpt lat="40.0501379" lon="8.5732899"><ele>47.5</ele><time>2026-05-02T10:10:15.525Z</time></trkpt><trkpt lat="40.0501299" lon="8.5733979"><ele>47.666666666666664</ele><time>2026-05-02T10:10:16.526Z</time></trkpt><trkpt lat="40.0500974" lon="8.5735237"><ele>47.833333333333336</ele><time>2026-05-02T10:10:18.525Z</time></trkpt><trkpt lat="40.0500686" lon="8.5736406"><ele>48.0</ele><time>2026-05-02T10:10:21.526Z</time></trkpt><trkpt lat="40.0499873" lon="8.5737617"><ele>47.599999999999994</ele><time>2026-05-02T10:10:23.525Z</time></trkpt><trkpt lat="40.0499367" lon="8.5738217"><ele>47.199999999999996</ele><time>2026-05-02T10:10:24.526Z</time></trkpt><trkpt lat="40.0498781" lon="8.5739413"><ele>46.8</ele><time>2026-05-02T10:10:26.524Z</time></trkpt><trkpt lat="40.0498551" lon="8.574095"><ele>46.4</ele><time>2026-05-02T10:10:28.525Z</time></trkpt><trkpt lat="40.0498507" lon="8.5741782"><ele>46.0</ele><time>2026-05-02T10:10:29.526Z</time></trkpt><trkpt lat="40.0498627" lon="8.5742944"><ele>46.0</ele><time>2026-05-02T10:10:31.526Z</time></trkpt><trkpt lat="40.0499524" lon="8.5743486"><ele>46.0</ele><time>2026-05-02T10:10:33.526Z</time></trkpt><trkpt lat="40.0500194" lon="8.5743585"><ele>46.0</ele><time>2026-05-02T10:10:34.525Z</time></trkpt><trkpt lat="40.0500832" lon="8.5743734"><ele>46.0</ele><time>2026-05-02T10:10:35.526Z</time></trkpt><trkpt lat="40.0501842" lon="8.5744165"><ele>46.0</ele><time>2026-05-02T10:10:37.524Z</time></trkpt><trkpt lat="40.050232" lon="8.5744795"><ele>46.0</ele><time>2026-05-02T10:10:40.525Z</time></trkpt><trkpt lat="40.0502184" lon="8.5745954"><ele>47.16666666666667</ele><time>2026-05-02T10:10:42.526Z</time></trkpt><trkpt lat="40.0501972" lon="8.5747303"><ele>48.333333333333336</ele><time>2026-05-02T10:10:44.525Z</time></trkpt><trkpt lat="40.0501777" lon="8.5748287"><ele>49.5</ele><time>2026-05-02T10:10:47.524Z</time></trkpt><trkpt lat="40.0502458" lon="8.5748934"><ele>50.66666666666667</ele><time>2026-05-02T10:10:54.525Z</time></trkpt><trkpt lat="40.0503131" lon="8.5749321"><ele>51.833333333333336</ele><time>2026-05-02T10:10:56.525Z</time></trkpt><trkpt lat="40.0503746" lon="8.5750001"><ele>53.0</ele><time>2026-05-02T10:10:58.525Z</time></trkpt><trkpt lat="40.0504364" lon="8.5750633"><ele>53.00000000000001</ele><time>2026-05-02T10:11:00.524Z</time></trkpt><trkpt lat="40.0505029" lon="8.5751052"><ele>53.0</ele><time>2026-05-02T10:11:02.524Z</time></trkpt><trkpt lat="40.0505718" lon="8.5751091"><ele>53.0</ele><time>2026-05-02T10:11:04.525Z</time></trkpt><trkpt lat="40.0506473" lon="8.5751108"><ele>53.0</ele><time>2026-05-02T10:11:07.524Z</time></trkpt><trkpt lat="40.0506591" lon="8.5749915"><ele>53.00000000000001</ele><time>2026-05-02T10:11:17.525Z</time></trkpt><trkpt lat="40.050699" lon="8.5748878"><ele>53.0</ele><time>2026-05-02T10:11:20.525Z</time></trkpt><trkpt lat="40.0507242" lon="8.5748066"><ele>53.00000000000001</ele><time>2026-05-02T10:11:23.524Z</time></trkpt><trkpt lat="40.0507125" lon="8.5746779"><ele>53.0</ele><time>2026-05-02T10:11:26.525Z</time></trkpt><trkpt lat="40.0507304" lon="8.5745761"><ele>53.0</ele><time>2026-05-02T10:11:28.525Z</time></trkpt><trkpt lat="40.0507443" lon="8.5744837"><ele>53.0</ele><time>2026-05-02T10:11:31.524Z</time></trkpt><trkpt lat="40.0507644" lon="8.5744023"><ele>53.00000000000001</ele><time>2026-05-02T10:11:36.525Z</time></trkpt><trkpt lat="40.0506936" lon="8.5743053"><ele>53.0</ele><time>2026-05-02T10:12:51.525Z</time></trkpt><trkpt lat="40.0506228" lon="8.5742131"><ele>52.8</ele><time>2026-05-02T10:12:53.525Z</time></trkpt><trkpt lat="40.0505741" lon="8.5740828"><ele>52.599999999999994</ele><time>2026-05-02T10:12:55.524Z</time></trkpt><trkpt lat="40.050487" lon="8.5739877"><ele>52.400000000000006</ele><time>2026-05-02T10:12:57.524Z</time></trkpt><trkpt lat="40.0503866" lon="8.5739042"><ele>52.2</ele><time>2026-05-02T10:12:59.525Z</time></trkpt><trkpt lat="40.0503315" lon="8.5738635"><ele>52.0</ele><time>2026-05-02T10:13:00.524Z</time></trkpt><trkpt lat="40.0502721" lon="8.5738266"><ele>51.99999999999999</ele><time>2026-05-02T10:13:01.523Z</time></trkpt><trkpt lat="40.0502096" lon="8.5737976"><ele>52.0</ele><time>2026-05-02T10:13:02.524Z</time></trkpt><trkpt lat="40.0501453" lon="8.5737747"><ele>52.0</ele><time>2026-05-02T10:13:03.524Z</time></trkpt><trkpt lat="40.0500627" lon="8.5737471"><ele>52.0</ele><time>2026-05-02T10:13:05.525Z</time></trkpt><trkpt lat="40.0500653" lon="8.5736461"><ele>51.99999999999999</ele><time>2026-05-02T10:13:08.524Z</time></trkpt><trkpt lat="40.0501064" lon="8.5735359"><ele>52.0</ele><time>2026-05-02T10:13:10.523Z</time></trkpt><trkpt lat="40.0501345" lon="8.5733535"><ele>51.2</ele><time>2026-05-02T10:13:12.523Z</time></trkpt><trkpt lat="40.050138" lon="8.573231"><ele>50.400000000000006</ele><time>2026-05-02T10:13:13.524Z</time></trkpt><trkpt lat="40.0501563" lon="8.5730985"><ele>49.599999999999994</ele><time>2026-05-02T10:13:14.524Z</time></trkpt><trkpt lat="40.0501925" lon="8.5729627"><ele>48.8</ele><time>2026-05-02T10:13:15.524Z</time></trkpt><trkpt lat="40.0502298" lon="8.5728342"><ele>48.0</ele><time>2026-05-02T10:13:16.524Z</time></trkpt><trkpt lat="40.0502795" lon="8.5727181"><ele>47.8</ele><time>2026-05-02T10:13:17.523Z</time></trkpt><trkpt lat="40.0503412" lon="8.5726238"><ele>47.599999999999994</ele><time>2026-05-02T10:13:18.524Z</time></trkpt><trkpt lat="40.0503952" lon="8.5725655"><ele>47.400000000000006</ele><time>2026-05-02T10:13:19.525Z</time></trkpt><trkpt lat="40.0505021" lon="8.5725169"><ele>47.2</ele><time>2026-05-02T10:13:21.525Z</time></trkpt><trkpt lat="40.0505937" lon="8.5724995"><ele>47.0</ele><time>2026-05-02T10:13:23.524Z</time></trkpt><trkpt lat="40.050694" lon="8.5725393"><ele>47.0</ele><time>2026-05-02T10:13:25.523Z</time></trkpt><trkpt lat="40.0507564" lon="8.5725858"><ele>47.0</ele><time>2026-05-02T10:13:26.523Z</time></trkpt><trkpt lat="40.0508278" lon="8.5726364"><ele>47.0</ele><time>2026-05-02T10:13:27.524Z</time></trkpt><trkpt lat="40.0509079" lon="8.5726791"><ele>47.0</ele><time>2026-05-02T10:13:28.525Z</time></trkpt><trkpt lat="40.0509925" lon="8.5727096"><ele>47.0</ele><time>2026-05-02T10:13:29.524Z</time></trkpt><trkpt lat="40.0510823" lon="8.5727361"><ele>47.0</ele><time>2026-05-02T10:13:30.523Z</time></trkpt><trkpt lat="40.0511737" lon="8.5727621"><ele>47.8</ele><time>2026-05-02T10:13:31.523Z</time></trkpt><trkpt lat="40.0512649" lon="8.5727931"><ele>48.6</ele><time>2026-05-02T10:13:32.525Z</time></trkpt><trkpt lat="40.0513664" lon="8.5728321"><ele>49.4</ele><time>2026-05-02T10:13:33.524Z</time></trkpt><trkpt lat="40.0514749" lon="8.5728815"><ele>50.199999999999996</ele><time>2026-05-02T10:13:34.524Z</time></trkpt><trkpt lat="40.0515909" lon="8.5729366"><ele>51.0</ele><time>2026-05-02T10:13:35.524Z</time></trkpt><trkpt lat="40.0517071" lon="8.572989"><ele>51.75</ele><time>2026-05-02T10:13:36.524Z</time></trkpt><trkpt lat="40.0518333" lon="8.5730354"><ele>52.5</ele><time>2026-05-02T10:13:37.523Z</time></trkpt><trkpt lat="40.0519617" lon="8.5730754"><ele>53.25</ele><time>2026-05-02T10:13:38.523Z</time></trkpt><trkpt lat="40.0521007" lon="8.5731034"><ele>54.0</ele><time>2026-05-02T10:13:39.523Z</time></trkpt><trkpt lat="40.052245" lon="8.5731139"><ele>54.0</ele><time>2026-05-02T10:13:40.523Z</time></trkpt><trkpt lat="40.0523931" lon="8.5731166"><ele>54.0</ele><time>2026-05-02T10:13:41.524Z</time></trkpt><trkpt lat="40.0525392" lon="8.573119"><ele>54.0</ele><time>2026-05-02T10:13:42.524Z</time></trkpt><trkpt lat="40.0526854" lon="8.5731215"><ele>54.0</ele><time>2026-05-02T10:13:43.525Z</time></trkpt><trkpt lat="40.0528279" lon="8.5731185"><ele>54.5</ele><time>2026-05-02T10:13:44.524Z</time></trkpt><trkpt lat="40.0529675" lon="8.5731101"><ele>55.0</ele><time>2026-05-02T10:13:45.524Z</time></trkpt><trkpt lat="40.0531047" lon="8.5730884"><ele>55.5</ele><time>2026-05-02T10:13:46.523Z</time></trkpt><trkpt lat="40.053235" lon="8.5730612"><ele>56.0</ele><time>2026-05-02T10:13:47.525Z</time></trkpt><trkpt lat="40.0533587" lon="8.5730374"><ele>56.0</ele><time>2026-05-02T10:13:48.524Z</time></trkpt><trkpt lat="40.0534803" lon="8.5730366"><ele>56.0</ele><time>2026-05-02T10:13:49.523Z</time></trkpt><trkpt lat="40.0536069" lon="8.5730634"><ele>56.0</ele><time>2026-05-02T10:13:50.524Z</time></trkpt><trkpt lat="40.0537373" lon="8.5730962"><ele>56.0</ele><time>2026-05-02T10:13:51.525Z</time></trkpt><trkpt lat="40.0538681" lon="8.5731366"><ele>56.0</ele><time>2026-05-02T10:13:52.524Z</time></trkpt><trkpt lat="40.0539979" lon="8.5731804"><ele>56.0</ele><time>2026-05-02T10:13:53.524Z</time></trkpt><trkpt lat="40.0541266" lon="8.5732266"><ele>56.0</ele><time>2026-05-02T10:13:54.525Z</time></trkpt><trkpt lat="40.0542517" lon="8.5732927"><ele>56.0</ele><time>2026-05-02T10:13:55.525Z</time></trkpt><trkpt lat="40.0543666" lon="8.5733799"><ele>56.75</ele><time>2026-05-02T10:13:56.525Z</time></trkpt><trkpt lat="40.0544799" lon="8.5734804"><ele>57.5</ele><time>2026-05-02T10:13:57.524Z</time></trkpt><trkpt lat="40.0545864" lon="8.5735826"><ele>58.25</ele><time>2026-05-02T10:13:58.524Z</time></trkpt><trkpt lat="40.0546899" lon="8.573694"><ele>59.0</ele><time>2026-05-02T10:13:59.523Z</time></trkpt><trkpt lat="40.0547902" lon="8.5738135"><ele>59.0</ele><time>2026-05-02T10:14:00.523Z</time></trkpt><trkpt lat="40.0548925" lon="8.5739409"><ele>59.0</ele><time>2026-05-02T10:14:01.524Z</time></trkpt><trkpt lat="40.0549897" lon="8.5740728"><ele>59.0</ele><time>2026-05-02T10:14:02.523Z</time></trkpt><trkpt lat="40.0550889" lon="8.5741997"><ele>59.0</ele><time>2026-05-02T10:14:03.524Z</time></trkpt><trkpt lat="40.0551882" lon="8.574323"><ele>58.75</ele><time>2026-05-02T10:14:04.524Z</time></trkpt><trkpt lat="40.0552767" lon="8.5744411"><ele>58.5</ele><time>2026-05-02T10:14:05.523Z</time></trkpt><trkpt lat="40.0553579" lon="8.574541"><ele>58.25</ele><time>2026-05-02T10:14:06.524Z</time></trkpt><trkpt lat="40.0554522" lon="8.5746153"><ele>58.0</ele><time>2026-05-02T10:14:07.525Z</time></trkpt><trkpt lat="40.0555535" lon="8.5746649"><ele>58.4</ele><time>2026-05-02T10:14:08.524Z</time></trkpt><trkpt lat="40.0556543" lon="8.5747057"><ele>58.8</ele><time>2026-05-02T10:14:09.525Z</time></trkpt><trkpt lat="40.0557532" lon="8.5747476"><ele>59.2</ele><time>2026-05-02T10:14:10.525Z</time></trkpt><trkpt lat="40.0558474" lon="8.5748018"><ele>59.6</ele><time>2026-05-02T10:14:11.524Z</time></trkpt><trkpt lat="40.0559421" lon="8.5748584"><ele>60.0</ele><time>2026-05-02T10:14:12.524Z</time></trkpt><trkpt lat="40.0560395" lon="8.5749138"><ele>60.6</ele><time>2026-05-02T10:14:13.525Z</time></trkpt><trkpt lat="40.0561353" lon="8.5749733"><ele>61.2</ele><time>2026-05-02T10:14:14.525Z</time></trkpt><trkpt lat="40.0562195" lon="8.575042"><ele>61.8</ele><time>2026-05-02T10:14:15.524Z</time></trkpt><trkpt lat="40.0562781" lon="8.5751272"><ele>62.4</ele><time>2026-05-02T10:14:16.524Z</time></trkpt><trkpt lat="40.0563091" lon="8.5752281"><ele>63.0</ele><time>2026-05-02T10:14:17.523Z</time></trkpt><trkpt lat="40.0563223" lon="8.5753463"><ele>63.0</ele><time>2026-05-02T10:14:18.523Z</time></trkpt><trkpt lat="40.0563151" lon="8.5754708"><ele>63.0</ele><time>2026-05-02T10:14:19.523Z</time></trkpt><trkpt lat="40.0563107" lon="8.575597"><ele>63.0</ele><time>2026-05-02T10:14:20.523Z</time></trkpt><trkpt lat="40.0563157" lon="8.5757163"><ele>63.0</ele><time>2026-05-02T10:14:21.524Z</time></trkpt><trkpt lat="40.0563291" lon="8.5758366"><ele>63.0</ele><time>2026-05-02T10:14:22.524Z</time></trkpt><trkpt lat="40.0563381" lon="8.5759582"><ele>63.0</ele><time>2026-05-02T10:14:23.525Z</time></trkpt><trkpt lat="40.0563338" lon="8.5760678"><ele>63.0</ele><time>2026-05-02T10:14:24.524Z</time></trkpt><trkpt lat="40.0563151" lon="8.5761565"><ele>63.0</ele><time>2026-05-02T10:14:25.523Z</time></trkpt><trkpt lat="40.0562795" lon="8.5762325"><ele>63.0</ele><time>2026-05-02T10:14:26.524Z</time></trkpt><trkpt lat="40.0562284" lon="8.5763089"><ele>63.0</ele><time>2026-05-02T10:14:27.525Z</time></trkpt><trkpt lat="40.0561672" lon="8.5763777"><ele>63.0</ele><time>2026-05-02T10:14:28.524Z</time></trkpt><trkpt lat="40.0560888" lon="8.5764401"><ele>63.166666666666664</ele><time>2026-05-02T10:14:29.524Z</time></trkpt><trkpt lat="40.0560028" lon="8.5765011"><ele>63.33333333333333</ele><time>2026-05-02T10:14:30.525Z</time></trkpt><trkpt lat="40.0559188" lon="8.5765597"><ele>63.5</ele><time>2026-05-02T10:14:31.524Z</time></trkpt><trkpt lat="40.0558358" lon="8.5766094"><ele>63.666666666666664</ele><time>2026-05-02T10:14:32.524Z</time></trkpt><trkpt lat="40.0557644" lon="8.5766574"><ele>63.83333333333333</ele><time>2026-05-02T10:14:33.524Z</time></trkpt><trkpt lat="40.0556939" lon="8.5767006"><ele>64.0</ele><time>2026-05-02T10:14:34.525Z</time></trkpt><trkpt lat="40.0556095" lon="8.5767226"><ele>65.0</ele><time>2026-05-02T10:14:35.525Z</time></trkpt><trkpt lat="40.0555126" lon="8.5767342"><ele>66.0</ele><time>2026-05-02T10:14:36.524Z</time></trkpt><trkpt lat="40.0554064" lon="8.5767339"><ele>67.0</ele><time>2026-05-02T10:14:37.524Z</time></trkpt><trkpt lat="40.0553023" lon="8.5767269"><ele>68.0</ele><time>2026-05-02T10:14:38.524Z</time></trkpt><trkpt lat="40.0552041" lon="8.5767122"><ele>69.0</ele><time>2026-05-02T10:14:39.524Z</time></trkpt><trkpt lat="40.0551049" lon="8.5767001"><ele>69.0</ele><time>2026-05-02T10:14:40.525Z</time></trkpt><trkpt lat="40.0550055" lon="8.5766927"><ele>69.0</ele><time>2026-05-02T10:14:41.523Z</time></trkpt><trkpt lat="40.0549099" lon="8.5766925"><ele>69.0</ele><time>2026-05-02T10:14:42.523Z</time></trkpt><trkpt lat="40.0548177" lon="8.576695"><ele>69.0</ele><time>2026-05-02T10:14:43.523Z</time></trkpt><trkpt lat="40.0547377" lon="8.5766987"><ele>69.0</ele><time>2026-05-02T10:14:44.524Z</time></trkpt><trkpt lat="40.0546526" lon="8.5767072"><ele>70.33333333333333</ele><time>2026-05-02T10:14:45.524Z</time></trkpt><trkpt lat="40.0545672" lon="8.5767138"><ele>71.66666666666667</ele><time>2026-05-02T10:14:46.522Z</time></trkpt><trkpt lat="40.0544834" lon="8.5767277"><ele>73.0</ele><time>2026-05-02T10:14:47.523Z</time></trkpt><trkpt lat="40.0544075" lon="8.5767499"><ele>74.33333333333334</ele><time>2026-05-02T10:14:48.523Z</time></trkpt><trkpt lat="40.0543354" lon="8.5767682"><ele>75.66666666666667</ele><time>2026-05-02T10:14:49.523Z</time></trkpt><trkpt lat="40.0542662" lon="8.5767825"><ele>77.0</ele><time>2026-05-02T10:14:50.523Z</time></trkpt><trkpt lat="40.0541975" lon="8.5767921"><ele>77.0</ele><time>2026-05-02T10:14:51.523Z</time></trkpt><trkpt lat="40.0541312" lon="8.5768052"><ele>77.0</ele><time>2026-05-02T10:14:52.524Z</time></trkpt><trkpt lat="40.0540679" lon="8.5768338"><ele>77.0</ele><time>2026-05-02T10:14:53.524Z</time></trkpt><trkpt lat="40.0539967" lon="8.5769437"><ele>77.0</ele><time>2026-05-02T10:14:55.524Z</time></trkpt><trkpt lat="40.0539872" lon="8.5770655"><ele>77.0</ele><time>2026-05-02T10:14:57.523Z</time></trkpt><trkpt lat="40.0540535" lon="8.5771739"><ele>77.0</ele><time>2026-05-02T10:14:59.522Z</time></trkpt><trkpt lat="40.0541186" lon="8.577222"><ele>77.2</ele><time>2026-05-02T10:15:00.522Z</time></trkpt><trkpt lat="40.0541843" lon="8.5772744"><ele>77.4</ele><time>2026-05-02T10:15:01.522Z</time></trkpt><trkpt lat="40.0542622" lon="8.577366"><ele>77.6</ele><time>2026-05-02T10:15:03.523Z</time></trkpt><trkpt lat="40.0542427" lon="8.5774593"><ele>77.8</ele><time>2026-05-02T10:15:05.523Z</time></trkpt><trkpt lat="40.0541907" lon="8.5775752"><ele>78.0</ele><time>2026-05-02T10:15:07.523Z</time></trkpt><trkpt lat="40.0541784" lon="8.577748"><ele>78.0</ele><time>2026-05-02T10:15:09.524Z</time></trkpt><trkpt lat="40.0541861" lon="8.5778432"><ele>78.0</ele><time>2026-05-02T10:15:10.523Z</time></trkpt><trkpt lat="40.0542064" lon="8.577947"><ele>78.0</ele><time>2026-05-02T10:15:11.524Z</time></trkpt><trkpt lat="40.0542309" lon="8.5780552"><ele>78.0</ele><time>2026-05-02T10:15:12.523Z</time></trkpt><trkpt lat="40.0542486" lon="8.5781659"><ele>78.0</ele><time>2026-05-02T10:15:13.523Z</time></trkpt><trkpt lat="40.0542561" lon="8.5782863"><ele>78.0</ele><time>2026-05-02T10:15:14.523Z</time></trkpt><trkpt lat="40.0542558" lon="8.5784195"><ele>78.8</ele><time>2026-05-02T10:15:15.524Z</time></trkpt><trkpt lat="40.0542585" lon="8.578558"><ele>79.6</ele><time>2026-05-02T10:15:16.522Z</time></trkpt><trkpt lat="40.0542718" lon="8.5786793"><ele>80.39999999999999</ele><time>2026-05-02T10:15:17.522Z</time></trkpt><trkpt lat="40.0542823" lon="8.5788044"><ele>81.19999999999999</ele><time>2026-05-02T10:15:18.522Z</time></trkpt><trkpt lat="40.0542913" lon="8.5789396"><ele>82.0</ele><time>2026-05-02T10:15:19.523Z</time></trkpt><trkpt lat="40.0543109" lon="8.5790803"><ele>82.75</ele><time>2026-05-02T10:15:20.522Z</time></trkpt><trkpt lat="40.0543404" lon="8.5792195"><ele>83.5</ele><time>2026-05-02T10:15:21.522Z</time></trkpt><trkpt lat="40.0543709" lon="8.5793646"><ele>84.25</ele><time>2026-05-02T10:15:22.523Z</time></trkpt><trkpt lat="40.054404" lon="8.5795072"><ele>85.0</ele><time>2026-05-02T10:15:23.524Z</time></trkpt><trkpt lat="40.0544374" lon="8.5796521"><ele>85.75</ele><time>2026-05-02T10:15:24.523Z</time></trkpt><trkpt lat="40.0544701" lon="8.5797961"><ele>86.5</ele><time>2026-05-02T10:15:25.522Z</time></trkpt><trkpt lat="40.0545031" lon="8.5799368"><ele>87.25</ele><time>2026-05-02T10:15:26.523Z</time></trkpt><trkpt lat="40.0545402" lon="8.5800782"><ele>88.0</ele><time>2026-05-02T10:15:27.523Z</time></trkpt><trkpt lat="40.0545818" lon="8.580224"><ele>89.0</ele><time>2026-05-02T10:15:28.524Z</time></trkpt><trkpt lat="40.054623" lon="8.580375"><ele>90.0</ele><time>2026-05-02T10:15:29.524Z</time></trkpt><trkpt lat="40.0546663" lon="8.5805257"><ele>91.0</ele><time>2026-05-02T10:15:30.522Z</time></trkpt><trkpt lat="40.0547087" lon="8.5806806"><ele>92.0</ele><time>2026-05-02T10:15:31.524Z</time></trkpt><trkpt lat="40.0547556" lon="8.5808302"><ele>92.0</ele><time>2026-05-02T10:15:32.524Z</time></trkpt><trkpt lat="40.054808" lon="8.5809772"><ele>92.0</ele><time>2026-05-02T10:15:33.523Z</time></trkpt><trkpt lat="40.0548561" lon="8.5811273"><ele>92.0</ele><time>2026-05-02T10:15:34.522Z</time></trkpt><trkpt lat="40.0549019" lon="8.5812816"><ele>92.0</ele><time>2026-05-02T10:15:35.523Z</time></trkpt><trkpt lat="40.0549391" lon="8.5814446"><ele>94.25</ele><time>2026-05-02T10:15:36.523Z</time></trkpt><trkpt lat="40.0549725" lon="8.5816104"><ele>96.5</ele><time>2026-05-02T10:15:37.523Z</time></trkpt><trkpt lat="40.0550146" lon="8.5817783"><ele>98.75</ele><time>2026-05-02T10:15:38.523Z</time></trkpt><trkpt lat="40.0550651" lon="8.5819413"><ele>101.0</ele><time>2026-05-02T10:15:39.522Z</time></trkpt><trkpt lat="40.0551195" lon="8.5821041"><ele>102.0</ele><time>2026-05-02T10:15:40.523Z</time></trkpt><trkpt lat="40.0551686" lon="8.5822704"><ele>103.0</ele><time>2026-05-02T10:15:41.523Z</time></trkpt><trkpt lat="40.055211" lon="8.5824415"><ele>104.0</ele><time>2026-05-02T10:15:42.523Z</time></trkpt><trkpt lat="40.0552458" lon="8.5826138"><ele>105.0</ele><time>2026-05-02T10:15:43.522Z</time></trkpt><trkpt lat="40.0552807" lon="8.5827824"><ele>105.8</ele><time>2026-05-02T10:15:44.524Z</time></trkpt><trkpt lat="40.0553128" lon="8.582944"><ele>106.6</ele><time>2026-05-02T10:15:45.522Z</time></trkpt><trkpt lat="40.0553344" lon="8.5830848"><ele>107.4</ele><time>2026-05-02T10:15:46.523Z</time></trkpt><trkpt lat="40.0553488" lon="8.5832065"><ele>108.2</ele><time>2026-05-02T10:15:47.524Z</time></trkpt><trkpt lat="40.0553602" lon="8.5833207"><ele>109.0</ele><time>2026-05-02T10:15:48.524Z</time></trkpt><trkpt lat="40.0553809" lon="8.5834246"><ele>109.0</ele><time>2026-05-02T10:15:49.523Z</time></trkpt><trkpt lat="40.0554112" lon="8.5835382"><ele>109.0</ele><time>2026-05-02T10:15:50.523Z</time></trkpt><trkpt lat="40.0554466" lon="8.5836591"><ele>109.0</ele><time>2026-05-02T10:15:51.523Z</time></trkpt><trkpt lat="40.055489" lon="8.5837785"><ele>109.0</ele><time>2026-05-02T10:15:52.523Z</time></trkpt><trkpt lat="40.0555423" lon="8.5838961"><ele>109.0</ele><time>2026-05-02T10:15:53.522Z</time></trkpt><trkpt lat="40.0556029" lon="8.5840184"><ele>110.0</ele><time>2026-05-02T10:15:54.523Z</time></trkpt><trkpt lat="40.0556636" lon="8.5841494"><ele>111.0</ele><time>2026-05-02T10:15:55.524Z</time></trkpt><trkpt lat="40.0557201" lon="8.5842857"><ele>112.0</ele><time>2026-05-02T10:15:56.523Z</time></trkpt><trkpt lat="40.0557683" lon="8.5844344"><ele>113.0</ele><time>2026-05-02T10:15:57.524Z</time></trkpt><trkpt lat="40.0558104" lon="8.5845805"><ele>113.75</ele><time>2026-05-02T10:15:58.522Z</time></trkpt><trkpt lat="40.0558585" lon="8.5847247"><ele>114.5</ele><time>2026-05-02T10:15:59.522Z</time></trkpt><trkpt lat="40.055921" lon="8.5848594"><ele>115.25</ele><time>2026-05-02T10:16:00.523Z</time></trkpt><trkpt lat="40.0559951" lon="8.5849682"><ele>116.0</ele><time>2026-05-02T10:16:01.523Z</time></trkpt><trkpt lat="40.0560631" lon="8.585072"><ele>116.0</ele><time>2026-05-02T10:16:02.523Z</time></trkpt><trkpt lat="40.0561284" lon="8.5851925"><ele>116.0</ele><time>2026-05-02T10:16:03.524Z</time></trkpt><trkpt lat="40.056188" lon="8.5853152"><ele>116.0</ele><time>2026-05-02T10:16:04.522Z</time></trkpt><trkpt lat="40.0562467" lon="8.5854451"><ele>116.0</ele><time>2026-05-02T10:16:05.522Z</time></trkpt><trkpt lat="40.0563086" lon="8.5855811"><ele>117.25</ele><time>2026-05-02T10:16:06.524Z</time></trkpt><trkpt lat="40.0563708" lon="8.5857178"><ele>118.5</ele><time>2026-05-02T10:16:07.524Z</time></trkpt><trkpt lat="40.0564319" lon="8.5858531"><ele>119.75</ele><time>2026-05-02T10:16:08.524Z</time></trkpt><trkpt lat="40.0564931" lon="8.5859755"><ele>121.0</ele><time>2026-05-02T10:16:09.524Z</time></trkpt><trkpt lat="40.0565562" lon="8.5860772"><ele>121.0</ele><time>2026-05-02T10:16:10.523Z</time></trkpt><trkpt lat="40.0566289" lon="8.5861691"><ele>121.0</ele><time>2026-05-02T10:16:11.523Z</time></trkpt><trkpt lat="40.0567119" lon="8.5862506"><ele>121.0</ele><time>2026-05-02T10:16:12.522Z</time></trkpt><trkpt lat="40.0567906" lon="8.5862983"><ele>121.0</ele><time>2026-05-02T10:16:13.523Z</time></trkpt><trkpt lat="40.056886" lon="8.5863338"><ele>121.0</ele><time>2026-05-02T10:16:14.523Z</time></trkpt><trkpt lat="40.0569924" lon="8.5863722"><ele>121.0</ele><time>2026-05-02T10:16:15.524Z</time></trkpt><trkpt lat="40.0571024" lon="8.586416"><ele>121.0</ele><time>2026-05-02T10:16:16.523Z</time></trkpt><trkpt lat="40.0572147" lon="8.5864632"><ele>121.0</ele><time>2026-05-02T10:16:17.522Z</time></trkpt><trkpt lat="40.0573131" lon="8.5865023"><ele>121.0</ele><time>2026-05-02T10:16:18.523Z</time></trkpt><trkpt lat="40.0574106" lon="8.5865446"><ele>121.0</ele><time>2026-05-02T10:16:19.522Z</time></trkpt><trkpt lat="40.0575112" lon="8.5865931"><ele>121.0</ele><time>2026-05-02T10:16:20.523Z</time></trkpt><trkpt lat="40.0576075" lon="8.5866511"><ele>121.0</ele><time>2026-05-02T10:16:21.524Z</time></trkpt><trkpt lat="40.0576845" lon="8.586717"><ele>121.0</ele><time>2026-05-02T10:16:22.523Z</time></trkpt><trkpt lat="40.0577332" lon="8.5868008"><ele>121.0</ele><time>2026-05-02T10:16:23.524Z</time></trkpt><trkpt lat="40.0577755" lon="8.5869056"><ele>121.0</ele><time>2026-05-02T10:16:24.523Z</time></trkpt><trkpt lat="40.0578134" lon="8.5870308"><ele>122.0</ele><time>2026-05-02T10:16:25.523Z</time></trkpt><trkpt lat="40.0578474" lon="8.5871755"><ele>123.0</ele><time>2026-05-02T10:16:26.522Z</time></trkpt><trkpt lat="40.0578898" lon="8.5872966"><ele>124.0</ele><time>2026-05-02T10:16:27.522Z</time></trkpt><trkpt lat="40.0579457" lon="8.5874099"><ele>125.0</ele><time>2026-05-02T10:16:28.522Z</time></trkpt><trkpt lat="40.0580168" lon="8.5875158"><ele>126.0</ele><time>2026-05-02T10:16:29.522Z</time></trkpt><trkpt lat="40.0580991" lon="8.5876197"><ele>126.0</ele><time>2026-05-02T10:16:30.523Z</time></trkpt><trkpt lat="40.0581825" lon="8.5877259"><ele>126.0</ele><time>2026-05-02T10:16:31.523Z</time></trkpt><trkpt lat="40.0582607" lon="8.5878335"><ele>126.0</ele><time>2026-05-02T10:16:32.523Z</time></trkpt><trkpt lat="40.0583349" lon="8.5879259"><ele>126.0</ele><time>2026-05-02T10:16:33.523Z</time></trkpt><trkpt lat="40.0584085" lon="8.5879871"><ele>126.0</ele><time>2026-05-02T10:16:34.523Z</time></trkpt><trkpt lat="40.0585072" lon="8.5880353"><ele>126.5</ele><time>2026-05-02T10:16:35.524Z</time></trkpt><trkpt lat="40.0586082" lon="8.5880996"><ele>127.0</ele><time>2026-05-02T10:16:36.523Z</time></trkpt><trkpt lat="40.058702" lon="8.5881927"><ele>127.5</ele><time>2026-05-02T10:16:37.524Z</time></trkpt><trkpt lat="40.0587888" lon="8.5883135"><ele>128.0</ele><time>2026-05-02T10:16:38.524Z</time></trkpt><trkpt lat="40.0588836" lon="8.5884334"><ele>128.0</ele><time>2026-05-02T10:16:39.524Z</time></trkpt><trkpt lat="40.0589825" lon="8.5885439"><ele>128.0</ele><time>2026-05-02T10:16:40.522Z</time></trkpt><trkpt lat="40.0590816" lon="8.5886562"><ele>128.0</ele><time>2026-05-02T10:16:41.522Z</time></trkpt><trkpt lat="40.0591711" lon="8.5887848"><ele>128.0</ele><time>2026-05-02T10:16:42.523Z</time></trkpt><trkpt lat="40.059259" lon="8.5889109"><ele>128.25</ele><time>2026-05-02T10:16:43.524Z</time></trkpt><trkpt lat="40.0593414" lon="8.5890211"><ele>128.5</ele><time>2026-05-02T10:16:44.523Z</time></trkpt><trkpt lat="40.059429" lon="8.589125"><ele>128.75</ele><time>2026-05-02T10:16:45.523Z</time></trkpt><trkpt lat="40.059508" lon="8.589228"><ele>129.0</ele><time>2026-05-02T10:16:46.523Z</time></trkpt><trkpt lat="40.0595728" lon="8.5893427"><ele>129.0</ele><time>2026-05-02T10:16:47.523Z</time></trkpt><trkpt lat="40.0596079" lon="8.5894749"><ele>129.0</ele><time>2026-05-02T10:16:48.523Z</time></trkpt><trkpt lat="40.0596392" lon="8.5896219"><ele>129.0</ele><time>2026-05-02T10:16:49.523Z</time></trkpt><trkpt lat="40.0596832" lon="8.589754"><ele>129.0</ele><time>2026-05-02T10:16:50.524Z</time></trkpt><trkpt lat="40.0597422" lon="8.5898782"><ele>129.0</ele><time>2026-05-02T10:16:51.523Z</time></trkpt><trkpt lat="40.0598257" lon="8.5899944"><ele>129.25</ele><time>2026-05-02T10:16:52.522Z</time></trkpt><trkpt lat="40.0599301" lon="8.5900993"><ele>129.5</ele><time>2026-05-02T10:16:53.523Z</time></trkpt><trkpt lat="40.0600419" lon="8.5902001"><ele>129.75</ele><time>2026-05-02T10:16:54.522Z</time></trkpt><trkpt lat="40.0601474" lon="8.5903093"><ele>130.0</ele><time>2026-05-02T10:16:55.523Z</time></trkpt><trkpt lat="40.0602501" lon="8.5904216"><ele>130.0</ele><time>2026-05-02T10:16:56.522Z</time></trkpt><trkpt lat="40.0603538" lon="8.5905126"><ele>130.0</ele><time>2026-05-02T10:16:57.523Z</time></trkpt><trkpt lat="40.060448" lon="8.5905793"><ele>130.0</ele><time>2026-05-02T10:16:58.522Z</time></trkpt><trkpt lat="40.0605351" lon="8.5906317"><ele>130.0</ele><time>2026-05-02T10:16:59.522Z</time></trkpt><trkpt lat="40.0606069" lon="8.5906689"><ele>130.0</ele><time>2026-05-02T10:17:00.522Z</time></trkpt><trkpt lat="40.060687" lon="8.5907259"><ele>130.0</ele><time>2026-05-02T10:17:01.522Z</time></trkpt><trkpt lat="40.0607677" lon="8.5908121"><ele>130.0</ele><time>2026-05-02T10:17:02.522Z</time></trkpt><trkpt lat="40.06085" lon="8.5909162"><ele>130.0</ele><time>2026-05-02T10:17:03.522Z</time></trkpt><trkpt lat="40.0609456" lon="8.5910208"><ele>130.0</ele><time>2026-05-02T10:17:04.523Z</time></trkpt><trkpt lat="40.0610451" lon="8.5911349"><ele>131.5</ele><time>2026-05-02T10:17:05.524Z</time></trkpt><trkpt lat="40.0611481" lon="8.5912557"><ele>133.0</ele><time>2026-05-02T10:17:06.523Z</time></trkpt><trkpt lat="40.0612555" lon="8.591377"><ele>134.5</ele><time>2026-05-02T10:17:07.523Z</time></trkpt><trkpt lat="40.0613668" lon="8.5914953"><ele>136.0</ele><time>2026-05-02T10:17:08.523Z</time></trkpt><trkpt lat="40.0614801" lon="8.5916193"><ele>136.0</ele><time>2026-05-02T10:17:09.524Z</time></trkpt><trkpt lat="40.0615952" lon="8.5917495"><ele>136.0</ele><time>2026-05-02T10:17:10.524Z</time></trkpt><trkpt lat="40.0617116" lon="8.5918847"><ele>136.0</ele><time>2026-05-02T10:17:11.524Z</time></trkpt><trkpt lat="40.0618274" lon="8.5920266"><ele>136.33333333333334</ele><time>2026-05-02T10:17:12.522Z</time></trkpt><trkpt lat="40.0619409" lon="8.5921778"><ele>136.66666666666666</ele><time>2026-05-02T10:17:13.523Z</time></trkpt><trkpt lat="40.0620452" lon="8.5923322"><ele>137.0</ele><time>2026-05-02T10:17:14.523Z</time></trkpt><trkpt lat="40.0621533" lon="8.5924909"><ele>137.0</ele><time>2026-05-02T10:17:15.523Z</time></trkpt><trkpt lat="40.0622648" lon="8.5926507"><ele>137.0</ele><time>2026-05-02T10:17:16.523Z</time></trkpt><trkpt lat="40.0623807" lon="8.5928119"><ele>137.0</ele><time>2026-05-02T10:17:17.522Z</time></trkpt><trkpt lat="40.0624964" lon="8.5929747"><ele>138.0</ele><time>2026-05-02T10:17:18.524Z</time></trkpt><trkpt lat="40.0626145" lon="8.5931402"><ele>139.0</ele><time>2026-05-02T10:17:19.523Z</time></trkpt><trkpt lat="40.0627306" lon="8.5933087"><ele>140.0</ele><time>2026-05-02T10:17:20.524Z</time></trkpt><trkpt lat="40.0628474" lon="8.5934791"><ele>140.0</ele><time>2026-05-02T10:17:21.524Z</time></trkpt><trkpt lat="40.0629646" lon="8.5936506"><ele>140.0</ele><time>2026-05-02T10:17:22.523Z</time></trkpt><trkpt lat="40.0630826" lon="8.5938152"><ele>140.0</ele><time>2026-05-02T10:17:23.523Z</time></trkpt><trkpt lat="40.0632031" lon="8.5939795"><ele>141.0</ele><time>2026-05-02T10:17:24.523Z</time></trkpt><trkpt lat="40.0633244" lon="8.5941474"><ele>142.0</ele><time>2026-05-02T10:17:25.523Z</time></trkpt><trkpt lat="40.0634486" lon="8.5943157"><ele>143.0</ele><time>2026-05-02T10:17:26.523Z</time></trkpt><trkpt lat="40.0635702" lon="8.5944878"><ele>143.66666666666666</ele><time>2026-05-02T10:17:27.523Z</time></trkpt><trkpt lat="40.0636875" lon="8.5946639"><ele>144.33333333333334</ele><time>2026-05-02T10:17:28.523Z</time></trkpt><trkpt lat="40.0638042" lon="8.5948362"><ele>145.0</ele><time>2026-05-02T10:17:29.522Z</time></trkpt><trkpt lat="40.0639214" lon="8.5950055"><ele>145.0</ele><time>2026-05-02T10:17:30.523Z</time></trkpt><trkpt lat="40.0640401" lon="8.5951744"><ele>145.0</ele><time>2026-05-02T10:17:31.523Z</time></trkpt><trkpt lat="40.0641559" lon="8.595346"><ele>145.0</ele><time>2026-05-02T10:17:32.522Z</time></trkpt><trkpt lat="40.0642612" lon="8.5955319"><ele>146.0</ele><time>2026-05-02T10:17:33.523Z</time></trkpt><trkpt lat="40.0643504" lon="8.5957335"><ele>147.0</ele><time>2026-05-02T10:17:34.523Z</time></trkpt><trkpt lat="40.0644232" lon="8.5959484"><ele>148.0</ele><time>2026-05-02T10:17:35.523Z</time></trkpt><trkpt lat="40.0644882" lon="8.596163"><ele>148.33333333333334</ele><time>2026-05-02T10:17:36.522Z</time></trkpt><trkpt lat="40.0645526" lon="8.5963783"><ele>148.66666666666666</ele><time>2026-05-02T10:17:37.524Z</time></trkpt><trkpt lat="40.0646172" lon="8.5965947"><ele>149.0</ele><time>2026-05-02T10:17:38.524Z</time></trkpt><trkpt lat="40.0646832" lon="8.5968123"><ele>149.0</ele><time>2026-05-02T10:17:39.524Z</time></trkpt><trkpt lat="40.0647502" lon="8.5970288"><ele>149.0</ele><time>2026-05-02T10:17:40.524Z</time></trkpt><trkpt lat="40.0648175" lon="8.5972437"><ele>149.0</ele><time>2026-05-02T10:17:41.523Z</time></trkpt><trkpt lat="40.0648833" lon="8.5974586"><ele>150.66666666666666</ele><time>2026-05-02T10:17:42.523Z</time></trkpt><trkpt lat="40.0649467" lon="8.5976741"><ele>152.33333333333334</ele><time>2026-05-02T10:17:43.524Z</time></trkpt><trkpt lat="40.0649946" lon="8.5978956"><ele>154.0</ele><time>2026-05-02T10:17:44.522Z</time></trkpt><trkpt lat="40.0650179" lon="8.5981215"><ele>154.66666666666669</ele><time>2026-05-02T10:17:45.523Z</time></trkpt><trkpt lat="40.0650227" lon="8.5983503"><ele>155.33333333333334</ele><time>2026-05-02T10:17:46.523Z</time></trkpt><trkpt lat="40.0650213" lon="8.5985767"><ele>156.0</ele><time>2026-05-02T10:17:47.524Z</time></trkpt><trkpt lat="40.0650172" lon="8.5987837"><ele>155.5</ele><time>2026-05-02T10:17:48.523Z</time></trkpt><trkpt lat="40.0649941" lon="8.5989778"><ele>155.0</ele><time>2026-05-02T10:17:49.523Z</time></trkpt><trkpt lat="40.0649356" lon="8.5991541"><ele>154.5</ele><time>2026-05-02T10:17:50.524Z</time></trkpt><trkpt lat="40.0648508" lon="8.5993165"><ele>154.0</ele><time>2026-05-02T10:17:51.524Z</time></trkpt><trkpt lat="40.064736" lon="8.5994515"><ele>155.0</ele><time>2026-05-02T10:17:52.523Z</time></trkpt><trkpt lat="40.0646481" lon="8.5995841"><ele>156.0</ele><time>2026-05-02T10:17:53.523Z</time></trkpt><trkpt lat="40.0645986" lon="8.5997453"><ele>157.0</ele><time>2026-05-02T10:17:54.523Z</time></trkpt><trkpt lat="40.0645781" lon="8.599917"><ele>158.0</ele><time>2026-05-02T10:17:55.523Z</time></trkpt><trkpt lat="40.064597" lon="8.6001028"><ele>158.0</ele><time>2026-05-02T10:17:56.524Z</time></trkpt><trkpt lat="40.0646318" lon="8.6002925"><ele>158.0</ele><time>2026-05-02T10:17:57.522Z</time></trkpt><trkpt lat="40.0646627" lon="8.6004857"><ele>158.0</ele><time>2026-05-02T10:17:58.523Z</time></trkpt><trkpt lat="40.064687" lon="8.6006843"><ele>159.33333333333331</ele><time>2026-05-02T10:17:59.523Z</time></trkpt><trkpt lat="40.0647115" lon="8.6008883"><ele>160.66666666666666</ele><time>2026-05-02T10:18:00.523Z</time></trkpt><trkpt lat="40.0647379" lon="8.6010936"><ele>162.0</ele><time>2026-05-02T10:18:01.523Z</time></trkpt><trkpt lat="40.0647633" lon="8.6012914"><ele>162.5</ele><time>2026-05-02T10:18:02.524Z</time></trkpt><trkpt lat="40.0647868" lon="8.6014744"><ele>163.0</ele><time>2026-05-02T10:18:03.523Z</time></trkpt><trkpt lat="40.0648105" lon="8.6016381"><ele>163.5</ele><time>2026-05-02T10:18:04.523Z</time></trkpt><trkpt lat="40.0648329" lon="8.6017845"><ele>164.0</ele><time>2026-05-02T10:18:05.524Z</time></trkpt><trkpt lat="40.0648557" lon="8.6019136"><ele>163.83333333333331</ele><time>2026-05-02T10:18:06.522Z</time></trkpt><trkpt lat="40.0648823" lon="8.6020197"><ele>163.66666666666666</ele><time>2026-05-02T10:18:07.523Z</time></trkpt><trkpt lat="40.0648774" lon="8.6021371"><ele>163.5</ele><time>2026-05-02T10:18:09.523Z</time></trkpt><trkpt lat="40.0647847" lon="8.6021431"><ele>163.33333333333334</ele><time>2026-05-02T10:18:11.523Z</time></trkpt><trkpt lat="40.0647041" lon="8.6021172"><ele>163.16666666666669</ele><time>2026-05-02T10:18:12.524Z</time></trkpt><trkpt lat="40.0646114" lon="8.6020798"><ele>163.0</ele><time>2026-05-02T10:18:13.523Z</time></trkpt><trkpt lat="40.0645087" lon="8.6020357"><ele>163.2</ele><time>2026-05-02T10:18:14.522Z</time></trkpt><trkpt lat="40.064408" lon="8.6019949"><ele>163.4</ele><time>2026-05-02T10:18:15.522Z</time></trkpt><trkpt lat="40.0643016" lon="8.601946"><ele>163.6</ele><time>2026-05-02T10:18:16.524Z</time></trkpt><trkpt lat="40.0641989" lon="8.6018996"><ele>163.79999999999998</ele><time>2026-05-02T10:18:17.523Z</time></trkpt><trkpt lat="40.0640977" lon="8.6018588"><ele>164.0</ele><time>2026-05-02T10:18:18.522Z</time></trkpt><trkpt lat="40.0639902" lon="8.6018393"><ele>163.5</ele><time>2026-05-02T10:18:19.523Z</time></trkpt><trkpt lat="40.0638754" lon="8.6018312"><ele>163.0</ele><time>2026-05-02T10:18:20.521Z</time></trkpt><trkpt lat="40.0637564" lon="8.6018397"><ele>162.5</ele><time>2026-05-02T10:18:21.521Z</time></trkpt><trkpt lat="40.0636354" lon="8.6018611"><ele>162.0</ele><time>2026-05-02T10:18:22.523Z</time></trkpt><trkpt lat="40.0635119" lon="8.601888"><ele>162.0</ele><time>2026-05-02T10:18:23.522Z</time></trkpt><trkpt lat="40.0633905" lon="8.6019126"><ele>162.0</ele><time>2026-05-02T10:18:24.523Z</time></trkpt><trkpt lat="40.0632732" lon="8.6019329"><ele>162.0</ele><time>2026-05-02T10:18:25.522Z</time></trkpt><trkpt lat="40.063157" lon="8.6019561"><ele>162.0</ele><time>2026-05-02T10:18:26.522Z</time></trkpt><trkpt lat="40.063039" lon="8.6019781"><ele>160.75</ele><time>2026-05-02T10:18:27.523Z</time></trkpt><trkpt lat="40.0629171" lon="8.601987"><ele>159.5</ele><time>2026-05-02T10:18:28.522Z</time></trkpt><trkpt lat="40.0627893" lon="8.6019788"><ele>158.25</ele><time>2026-05-02T10:18:29.523Z</time></trkpt><trkpt lat="40.0626624" lon="8.6019642"><ele>157.0</ele><time>2026-05-02T10:18:30.521Z</time></trkpt><trkpt lat="40.0625366" lon="8.6019544"><ele>155.6</ele><time>2026-05-02T10:18:31.521Z</time></trkpt><trkpt lat="40.0624241" lon="8.6019442"><ele>154.2</ele><time>2026-05-02T10:18:32.522Z</time></trkpt><trkpt lat="40.0623179" lon="8.6019304"><ele>152.8</ele><time>2026-05-02T10:18:33.522Z</time></trkpt><trkpt lat="40.0622211" lon="8.601915"><ele>151.4</ele><time>2026-05-02T10:18:34.521Z</time></trkpt><trkpt lat="40.0621307" lon="8.6018888"><ele>150.0</ele><time>2026-05-02T10:18:35.523Z</time></trkpt><trkpt lat="40.0620532" lon="8.601834"><ele>150.0</ele><time>2026-05-02T10:18:36.522Z</time></trkpt><trkpt lat="40.061963" lon="8.6017638"><ele>150.0</ele><time>2026-05-02T10:18:37.523Z</time></trkpt><trkpt lat="40.0618773" lon="8.6016843"><ele>150.0</ele><time>2026-05-02T10:18:38.521Z</time></trkpt><trkpt lat="40.0617899" lon="8.6015981"><ele>150.0</ele><time>2026-05-02T10:18:39.521Z</time></trkpt><trkpt lat="40.0616985" lon="8.6015213"><ele>150.0</ele><time>2026-05-02T10:18:40.521Z</time></trkpt><trkpt lat="40.0616047" lon="8.6014591"><ele>149.2</ele><time>2026-05-02T10:18:41.522Z</time></trkpt><trkpt lat="40.0615093" lon="8.6014147"><ele>148.4</ele><time>2026-05-02T10:18:42.523Z</time></trkpt><trkpt lat="40.0614139" lon="8.6013782"><ele>147.6</ele><time>2026-05-02T10:18:43.523Z</time></trkpt><trkpt lat="40.0613276" lon="8.6013496"><ele>146.8</ele><time>2026-05-02T10:18:44.523Z</time></trkpt><trkpt lat="40.0612455" lon="8.6013185"><ele>146.0</ele><time>2026-05-02T10:18:45.521Z</time></trkpt><trkpt lat="40.0611707" lon="8.6012801"><ele>146.0</ele><time>2026-05-02T10:18:46.522Z</time></trkpt><trkpt lat="40.0610914" lon="8.6012586"><ele>146.0</ele><time>2026-05-02T10:18:48.522Z</time></trkpt><trkpt lat="40.061033" lon="8.6013376"><ele>146.0</ele><time>2026-05-02T10:18:50.523Z</time></trkpt><trkpt lat="40.0610129" lon="8.6014177"><ele>146.0</ele><time>2026-05-02T10:18:51.523Z</time></trkpt><trkpt lat="40.0610176" lon="8.6016053"><ele>146.0</ele><time>2026-05-02T10:18:53.523Z</time></trkpt><trkpt lat="40.0610222" lon="8.6017145"><ele>146.0</ele><time>2026-05-02T10:18:54.522Z</time></trkpt><trkpt lat="40.0610242" lon="8.6018318"><ele>146.0</ele><time>2026-05-02T10:18:55.523Z</time></trkpt><trkpt lat="40.0610288" lon="8.6019468"><ele>146.0</ele><time>2026-05-02T10:18:56.522Z</time></trkpt><trkpt lat="40.0610205" lon="8.6020572"><ele>146.0</ele><time>2026-05-02T10:18:57.523Z</time></trkpt><trkpt lat="40.061001" lon="8.6021821"><ele>146.0</ele><time>2026-05-02T10:18:58.523Z</time></trkpt><trkpt lat="40.0609691" lon="8.6023086"><ele>146.0</ele><time>2026-05-02T10:18:59.522Z</time></trkpt><trkpt lat="40.0609345" lon="8.6024326"><ele>146.0</ele><time>2026-05-02T10:19:00.522Z</time></trkpt><trkpt lat="40.0608902" lon="8.6025507"><ele>146.0</ele><time>2026-05-02T10:19:01.521Z</time></trkpt><trkpt lat="40.0608364" lon="8.6026589"><ele>146.0</ele><time>2026-05-02T10:19:02.522Z</time></trkpt><trkpt lat="40.0607919" lon="8.6027453"><ele>146.0</ele><time>2026-05-02T10:19:03.521Z</time></trkpt><trkpt lat="40.0607484" lon="8.6028067"><ele>146.0</ele><time>2026-05-02T10:19:04.522Z</time></trkpt><trkpt lat="40.0606362" lon="8.6029028"><ele>146.66666666666666</ele><time>2026-05-02T10:19:06.522Z</time></trkpt><trkpt lat="40.0605804" lon="8.6029585"><ele>147.33333333333331</ele><time>2026-05-02T10:19:07.523Z</time></trkpt><trkpt lat="40.0605377" lon="8.603033"><ele>148.0</ele><time>2026-05-02T10:19:08.523Z</time></trkpt><trkpt lat="40.0605048" lon="8.6031209"><ele>148.66666666666666</ele><time>2026-05-02T10:19:09.522Z</time></trkpt><trkpt lat="40.0604837" lon="8.6032241"><ele>149.33333333333334</ele><time>2026-05-02T10:19:10.521Z</time></trkpt><trkpt lat="40.0604912" lon="8.6033222"><ele>150.0</ele><time>2026-05-02T10:19:11.522Z</time></trkpt><trkpt lat="40.0605203" lon="8.6034218"><ele>150.0</ele><time>2026-05-02T10:19:12.522Z</time></trkpt><trkpt lat="40.0605691" lon="8.6035155"><ele>150.0</ele><time>2026-05-02T10:19:13.521Z</time></trkpt><trkpt lat="40.0606153" lon="8.6036117"><ele>150.0</ele><time>2026-05-02T10:19:14.523Z</time></trkpt><trkpt lat="40.0606511" lon="8.6037032"><ele>150.0</ele><time>2026-05-02T10:19:15.522Z</time></trkpt><trkpt lat="40.0606954" lon="8.6037894"><ele>150.0</ele><time>2026-05-02T10:19:16.523Z</time></trkpt><trkpt lat="40.060746" lon="8.6038806"><ele>150.0</ele><time>2026-05-02T10:19:17.522Z</time></trkpt><trkpt lat="40.0608048" lon="8.6039702"><ele>151.2</ele><time>2026-05-02T10:19:18.521Z</time></trkpt><trkpt lat="40.0608578" lon="8.6040692"><ele>152.4</ele><time>2026-05-02T10:19:19.521Z</time></trkpt><trkpt lat="40.0609074" lon="8.6041565"><ele>153.6</ele><time>2026-05-02T10:19:20.522Z</time></trkpt><trkpt lat="40.0609692" lon="8.6042353"><ele>154.8</ele><time>2026-05-02T10:19:21.521Z</time></trkpt><trkpt lat="40.0610448" lon="8.604315"><ele>156.0</ele><time>2026-05-02T10:19:22.521Z</time></trkpt><trkpt lat="40.0611196" lon="8.6043902"><ele>156.0</ele><time>2026-05-02T10:19:23.522Z</time></trkpt><trkpt lat="40.0611801" lon="8.6044608"><ele>156.0</ele><time>2026-05-02T10:19:24.521Z</time></trkpt><trkpt lat="40.0612355" lon="8.6045338"><ele>156.0</ele><time>2026-05-02T10:19:25.522Z</time></trkpt><trkpt lat="40.0612805" lon="8.6046122"><ele>156.0</ele><time>2026-05-02T10:19:26.522Z</time></trkpt><trkpt lat="40.0613138" lon="8.6046907"><ele>156.0</ele><time>2026-05-02T10:19:27.521Z</time></trkpt><trkpt lat="40.0613399" lon="8.6047825"><ele>156.0</ele><time>2026-05-02T10:19:28.522Z</time></trkpt><trkpt lat="40.0613615" lon="8.6048921"><ele>156.5</ele><time>2026-05-02T10:19:29.521Z</time></trkpt><trkpt lat="40.0613706" lon="8.6049957"><ele>157.0</ele><time>2026-05-02T10:19:30.522Z</time></trkpt><trkpt lat="40.0613954" lon="8.6050757"><ele>157.5</ele><time>2026-05-02T10:19:31.522Z</time></trkpt><trkpt lat="40.0614666" lon="8.6051603"><ele>158.0</ele><time>2026-05-02T10:19:33.522Z</time></trkpt><trkpt lat="40.0615657" lon="8.605154"><ele>158.5</ele><time>2026-05-02T10:19:35.522Z</time></trkpt><trkpt lat="40.0616265" lon="8.6051811"><ele>159.0</ele><time>2026-05-02T10:19:36.522Z</time></trkpt><trkpt lat="40.0616946" lon="8.6052398"><ele>160.2</ele><time>2026-05-02T10:19:37.523Z</time></trkpt><trkpt lat="40.0617691" lon="8.6052997"><ele>161.4</ele><time>2026-05-02T10:19:38.522Z</time></trkpt><trkpt lat="40.0618515" lon="8.6053599"><ele>162.6</ele><time>2026-05-02T10:19:39.523Z</time></trkpt><trkpt lat="40.0619314" lon="8.6054315"><ele>163.8</ele><time>2026-05-02T10:19:40.521Z</time></trkpt><trkpt lat="40.0620088" lon="8.6054989"><ele>165.0</ele><time>2026-05-02T10:19:41.522Z</time></trkpt><trkpt lat="40.0620702" lon="8.6055858"><ele>165.0</ele><time>2026-05-02T10:19:42.523Z</time></trkpt><trkpt lat="40.0621241" lon="8.6056826"><ele>165.0</ele><time>2026-05-02T10:19:43.523Z</time></trkpt><trkpt lat="40.0621613" lon="8.6057831"><ele>165.0</ele><time>2026-05-02T10:19:44.523Z</time></trkpt><trkpt lat="40.0621933" lon="8.6058878"><ele>165.0</ele><time>2026-05-02T10:19:45.522Z</time></trkpt><trkpt lat="40.0622361" lon="8.6060034"><ele>165.0</ele><time>2026-05-02T10:19:46.522Z</time></trkpt><trkpt lat="40.0622817" lon="8.6061118"><ele>165.66666666666666</ele><time>2026-05-02T10:19:47.522Z</time></trkpt><trkpt lat="40.0623327" lon="8.606223"><ele>166.33333333333334</ele><time>2026-05-02T10:19:48.522Z</time></trkpt><trkpt lat="40.0623846" lon="8.606332"><ele>167.0</ele><time>2026-05-02T10:19:49.522Z</time></trkpt><trkpt lat="40.0624277" lon="8.6064314"><ele>167.66666666666669</ele><time>2026-05-02T10:19:50.522Z</time></trkpt><trkpt lat="40.0624645" lon="8.6065161"><ele>168.33333333333334</ele><time>2026-05-02T10:19:51.523Z</time></trkpt><trkpt lat="40.062503" lon="8.6066018"><ele>169.0</ele><time>2026-05-02T10:19:52.521Z</time></trkpt><trkpt lat="40.0625331" lon="8.6066787"><ele>170.2</ele><time>2026-05-02T10:19:53.522Z</time></trkpt><trkpt lat="40.062532" lon="8.606835"><ele>171.39999999999998</ele><time>2026-05-02T10:19:55.522Z</time></trkpt><trkpt lat="40.0625051" lon="8.6070008"><ele>172.6</ele><time>2026-05-02T10:19:57.522Z</time></trkpt><trkpt lat="40.062515" lon="8.6070959"><ele>173.8</ele><time>2026-05-02T10:19:58.522Z</time></trkpt><trkpt lat="40.0625919" lon="8.6072212"><ele>175.0</ele><time>2026-05-02T10:20:00.522Z</time></trkpt><trkpt lat="40.0626566" lon="8.6072784"><ele>175.33333333333334</ele><time>2026-05-02T10:20:01.521Z</time></trkpt><trkpt lat="40.0627246" lon="8.6073405"><ele>175.66666666666669</ele><time>2026-05-02T10:20:02.523Z</time></trkpt><trkpt lat="40.0627941" lon="8.6074172"><ele>176.0</ele><time>2026-05-02T10:20:03.523Z</time></trkpt><trkpt lat="40.062858" lon="8.6074922"><ele>176.33333333333334</ele><time>2026-05-02T10:20:04.522Z</time></trkpt><trkpt lat="40.0629088" lon="8.6075709"><ele>176.66666666666666</ele><time>2026-05-02T10:20:05.521Z</time></trkpt><trkpt lat="40.0629676" lon="8.6076513"><ele>177.0</ele><time>2026-05-02T10:20:06.523Z</time></trkpt><trkpt lat="40.0630245" lon="8.6077234"><ele>177.0</ele><time>2026-05-02T10:20:07.522Z</time></trkpt><trkpt lat="40.0630722" lon="8.6077909"><ele>177.0</ele><time>2026-05-02T10:20:08.522Z</time></trkpt><trkpt lat="40.0631661" lon="8.6078906"><ele>177.0</ele><time>2026-05-02T10:20:10.522Z</time></trkpt><trkpt lat="40.0632826" lon="8.6079555"><ele>177.0</ele><time>2026-05-02T10:20:12.521Z</time></trkpt><trkpt lat="40.0633428" lon="8.6079798"><ele>177.0</ele><time>2026-05-02T10:20:13.521Z</time></trkpt><trkpt lat="40.0634363" lon="8.6080689"><ele>178.2</ele><time>2026-05-02T10:20:15.522Z</time></trkpt><trkpt lat="40.0635274" lon="8.6081945"><ele>179.39999999999998</ele><time>2026-05-02T10:20:17.522Z</time></trkpt><trkpt lat="40.0635773" lon="8.6082722"><ele>180.60000000000002</ele><time>2026-05-02T10:20:18.521Z</time></trkpt><trkpt lat="40.0636279" lon="8.6083418"><ele>181.8</ele><time>2026-05-02T10:20:19.521Z</time></trkpt><trkpt lat="40.0636885" lon="8.6084157"><ele>183.0</ele><time>2026-05-02T10:20:20.522Z</time></trkpt><trkpt lat="40.0637489" lon="8.6084983"><ele>183.0</ele><time>2026-05-02T10:20:21.522Z</time></trkpt><trkpt lat="40.0638057" lon="8.6085828"><ele>183.0</ele><time>2026-05-02T10:20:22.522Z</time></trkpt><trkpt lat="40.0638474" lon="8.6086583"><ele>183.0</ele><time>2026-05-02T10:20:23.522Z</time></trkpt><trkpt lat="40.0639207" lon="8.6088051"><ele>183.0</ele><time>2026-05-02T10:20:25.522Z</time></trkpt><trkpt lat="40.0639635" lon="8.6088866"><ele>183.0</ele><time>2026-05-02T10:20:26.523Z</time></trkpt><trkpt lat="40.0640058" lon="8.6089715"><ele>183.0</ele><time>2026-05-02T10:20:27.523Z</time></trkpt><trkpt lat="40.064049" lon="8.6090626"><ele>183.28571428571428</ele><time>2026-05-02T10:20:28.522Z</time></trkpt><trkpt lat="40.0640924" lon="8.6091519"><ele>183.57142857142858</ele><time>2026-05-02T10:20:29.522Z</time></trkpt><trkpt lat="40.0641398" lon="8.6092339"><ele>183.85714285714283</ele><time>2026-05-02T10:20:30.523Z</time></trkpt><trkpt lat="40.0641851" lon="8.6093103"><ele>184.14285714285714</ele><time>2026-05-02T10:20:31.522Z</time></trkpt><trkpt lat="40.0642291" lon="8.609383"><ele>184.42857142857142</ele><time>2026-05-02T10:20:32.521Z</time></trkpt><trkpt lat="40.0642771" lon="8.6094522"><ele>184.7142857142857</ele><time>2026-05-02T10:20:33.522Z</time></trkpt><trkpt lat="40.0643307" lon="8.6095164"><ele>185.0</ele><time>2026-05-02T10:20:34.522Z</time></trkpt><trkpt lat="40.0643885" lon="8.6096214"><ele>187.2</ele><time>2026-05-02T10:20:36.522Z</time></trkpt><trkpt lat="40.0643909" lon="8.6097129"><ele>189.4</ele><time>2026-05-02T10:20:39.521Z</time></trkpt><trkpt lat="40.0643457" lon="8.6098181"><ele>191.60000000000002</ele><time>2026-05-02T10:20:41.522Z</time></trkpt><trkpt lat="40.0643393" lon="8.6099631"><ele>193.8</ele><time>2026-05-02T10:20:43.521Z</time></trkpt><trkpt lat="40.0643213" lon="8.6100768"><ele>196.0</ele><time>2026-05-02T10:20:45.522Z</time></trkpt><trkpt lat="40.0643159" lon="8.6102166"><ele>195.99999999999997</ele><time>2026-05-02T10:20:47.522Z</time></trkpt><trkpt lat="40.064343" lon="8.610317"><ele>196.0</ele><time>2026-05-02T10:20:49.522Z</time></trkpt><trkpt lat="40.0644238" lon="8.6103516"><ele>196.0</ele><time>2026-05-02T10:20:52.522Z</time></trkpt><trkpt lat="40.0645246" lon="8.610395"><ele>196.0</ele><time>2026-05-02T10:20:54.523Z</time></trkpt><trkpt lat="40.0645926" lon="8.6104175"><ele>195.99999999999997</ele><time>2026-05-02T10:20:55.523Z</time></trkpt><trkpt lat="40.0646642" lon="8.6104305"><ele>196.0</ele><time>2026-05-02T10:20:56.522Z</time></trkpt><trkpt lat="40.0647375" lon="8.6104531"><ele>196.16666666666666</ele><time>2026-05-02T10:20:57.522Z</time></trkpt><trkpt lat="40.0648075" lon="8.6104732"><ele>196.33333333333331</ele><time>2026-05-02T10:20:58.522Z</time></trkpt><trkpt lat="40.0648742" lon="8.6105042"><ele>196.5</ele><time>2026-05-02T10:20:59.522Z</time></trkpt><trkpt lat="40.0649424" lon="8.6105287"><ele>196.66666666666669</ele><time>2026-05-02T10:21:00.521Z</time></trkpt><trkpt lat="40.0650761" lon="8.6105549"><ele>196.83333333333334</ele><time>2026-05-02T10:21:02.523Z</time></trkpt><trkpt lat="40.0651536" lon="8.6105614"><ele>197.0</ele><time>2026-05-02T10:21:03.523Z</time></trkpt><trkpt lat="40.0652241" lon="8.6105566"><ele>197.66666666666669</ele><time>2026-05-02T10:21:04.521Z</time></trkpt><trkpt lat="40.065285" lon="8.6105235"><ele>198.33333333333334</ele><time>2026-05-02T10:21:05.522Z</time></trkpt><trkpt lat="40.065345" lon="8.6104883"><ele>199.0</ele><time>2026-05-02T10:21:06.523Z</time></trkpt><trkpt lat="40.0654545" lon="8.6104818"><ele>199.66666666666669</ele><time>2026-05-02T10:21:08.521Z</time></trkpt><trkpt lat="40.0655177" lon="8.6105044"><ele>200.33333333333334</ele><time>2026-05-02T10:21:09.522Z</time></trkpt><trkpt lat="40.0655916" lon="8.6105499"><ele>201.0</ele><time>2026-05-02T10:21:10.523Z</time></trkpt><trkpt lat="40.0656729" lon="8.6105956"><ele>201.0</ele><time>2026-05-02T10:21:11.523Z</time></trkpt><trkpt lat="40.0657495" lon="8.6106287"><ele>201.0</ele><time>2026-05-02T10:21:12.522Z</time></trkpt><trkpt lat="40.0658097" lon="8.6106609"><ele>201.0</ele><time>2026-05-02T10:21:13.522Z</time></trkpt><trkpt lat="40.0659086" lon="8.6107183"><ele>201.0</ele><time>2026-05-02T10:21:15.521Z</time></trkpt><trkpt lat="40.0659459" lon="8.6108515"><ele>201.0</ele><time>2026-05-02T10:21:17.523Z</time></trkpt><trkpt lat="40.0659764" lon="8.610938"><ele>201.0</ele><time>2026-05-02T10:21:18.522Z</time></trkpt><trkpt lat="40.066009" lon="8.6110242"><ele>201.28571428571428</ele><time>2026-05-02T10:21:19.522Z</time></trkpt><trkpt lat="40.0660363" lon="8.6111177"><ele>201.57142857142858</ele><time>2026-05-02T10:21:20.521Z</time></trkpt><trkpt lat="40.0660605" lon="8.61121"><ele>201.85714285714286</ele><time>2026-05-02T10:21:21.522Z</time></trkpt><trkpt lat="40.066086" lon="8.6112977"><ele>202.14285714285714</ele><time>2026-05-02T10:21:22.522Z</time></trkpt><trkpt lat="40.0660868" lon="8.6113826"><ele>202.42857142857144</ele><time>2026-05-02T10:21:23.522Z</time></trkpt><trkpt lat="40.0660759" lon="8.6114866"><ele>202.71428571428572</ele><time>2026-05-02T10:21:24.522Z</time></trkpt><trkpt lat="40.0660845" lon="8.6115699"><ele>203.0</ele><time>2026-05-02T10:21:25.521Z</time></trkpt><trkpt lat="40.0661339" lon="8.6117129"><ele>203.66666666666669</ele><time>2026-05-02T10:21:27.521Z</time></trkpt><trkpt lat="40.0661728" lon="8.6117834"><ele>204.33333333333334</ele><time>2026-05-02T10:21:28.522Z</time></trkpt><trkpt lat="40.0662154" lon="8.6118445"><ele>205.0</ele><time>2026-05-02T10:21:29.522Z</time></trkpt><trkpt lat="40.0662744" lon="8.6119155"><ele>205.66666666666669</ele><time>2026-05-02T10:21:30.522Z</time></trkpt><trkpt lat="40.0663421" lon="8.6119866"><ele>206.33333333333334</ele><time>2026-05-02T10:21:31.522Z</time></trkpt><trkpt lat="40.0663924" lon="8.6120609"><ele>207.0</ele><time>2026-05-02T10:21:32.522Z</time></trkpt><trkpt lat="40.0664752" lon="8.6121481"><ele>207.5</ele><time>2026-05-02T10:21:34.522Z</time></trkpt><trkpt lat="40.0666005" lon="8.6121549"><ele>208.0</ele><time>2026-05-02T10:21:36.523Z</time></trkpt><trkpt lat="40.0666791" lon="8.6121612"><ele>208.5</ele><time>2026-05-02T10:21:37.521Z</time></trkpt><trkpt lat="40.0667638" lon="8.6121647"><ele>209.0</ele><time>2026-05-02T10:21:38.521Z</time></trkpt><trkpt lat="40.0668335" lon="8.6121535"><ele>209.5</ele><time>2026-05-02T10:21:39.522Z</time></trkpt><trkpt lat="40.0668967" lon="8.6121573"><ele>210.0</ele><time>2026-05-02T10:21:40.523Z</time></trkpt><trkpt lat="40.0670103" lon="8.6122082"><ele>210.5</ele><time>2026-05-02T10:21:42.521Z</time></trkpt><trkpt lat="40.0670946" lon="8.6123124"><ele>211.0</ele><time>2026-05-02T10:21:44.523Z</time></trkpt><trkpt lat="40.0671247" lon="8.6123964"><ele>211.5</ele><time>2026-05-02T10:21:45.521Z</time></trkpt><trkpt lat="40.0671384" lon="8.6124807"><ele>212.0</ele><time>2026-05-02T10:21:46.521Z</time></trkpt><trkpt lat="40.0671291" lon="8.6125636"><ele>212.5</ele><time>2026-05-02T10:21:47.522Z</time></trkpt><trkpt lat="40.0671045" lon="8.6126639"><ele>213.0</ele><time>2026-05-02T10:21:48.521Z</time></trkpt><trkpt lat="40.067092" lon="8.6127589"><ele>213.33333333333334</ele><time>2026-05-02T10:21:49.522Z</time></trkpt><trkpt lat="40.067089" lon="8.6128651"><ele>213.66666666666669</ele><time>2026-05-02T10:21:50.522Z</time></trkpt><trkpt lat="40.0671079" lon="8.6129828"><ele>214.0</ele><time>2026-05-02T10:21:51.522Z</time></trkpt><trkpt lat="40.0671373" lon="8.6130915"><ele>214.33333333333334</ele><time>2026-05-02T10:21:52.521Z</time></trkpt><trkpt lat="40.0671573" lon="8.6131793"><ele>214.66666666666669</ele><time>2026-05-02T10:21:53.522Z</time></trkpt><trkpt lat="40.0671772" lon="8.6132598"><ele>215.0</ele><time>2026-05-02T10:21:54.521Z</time></trkpt><trkpt lat="40.0671895" lon="8.6133974"><ele>215.00000000000003</ele><time>2026-05-02T10:21:56.523Z</time></trkpt><trkpt lat="40.0671787" lon="8.6134807"><ele>215.0</ele><time>2026-05-02T10:21:57.523Z</time></trkpt><trkpt lat="40.0672207" lon="8.6136201"><ele>215.0</ele><time>2026-05-02T10:21:59.523Z</time></trkpt><trkpt lat="40.067262" lon="8.6136952"><ele>215.0</ele><time>2026-05-02T10:22:00.522Z</time></trkpt><trkpt lat="40.0673166" lon="8.6137498"><ele>215.00000000000003</ele><time>2026-05-02T10:22:01.523Z</time></trkpt><trkpt lat="40.0673864" lon="8.613797"><ele>215.0</ele><time>2026-05-02T10:22:02.522Z</time></trkpt><trkpt lat="40.0674584" lon="8.6138477"><ele>216.33333333333334</ele><time>2026-05-02T10:22:03.521Z</time></trkpt><trkpt lat="40.0675247" lon="8.613914"><ele>217.66666666666669</ele><time>2026-05-02T10:22:04.52Z</time></trkpt><trkpt lat="40.0675885" lon="8.6139961"><ele>219.0</ele><time>2026-05-02T10:22:05.52Z</time></trkpt><trkpt lat="40.0676418" lon="8.6140843"><ele>220.33333333333331</ele><time>2026-05-02T10:22:06.52Z</time></trkpt><trkpt lat="40.0676868" lon="8.6141787"><ele>221.66666666666666</ele><time>2026-05-02T10:22:07.52Z</time></trkpt><trkpt lat="40.06774" lon="8.6142735"><ele>223.0</ele><time>2026-05-02T10:22:08.52Z</time></trkpt><trkpt lat="40.0678042" lon="8.6143686"><ele>222.99999999999997</ele><time>2026-05-02T10:22:09.521Z</time></trkpt><trkpt lat="40.0678654" lon="8.6144583"><ele>223.0</ele><time>2026-05-02T10:22:10.52Z</time></trkpt><trkpt lat="40.0679214" lon="8.6145524"><ele>223.0</ele><time>2026-05-02T10:22:11.521Z</time></trkpt><trkpt lat="40.0679702" lon="8.6146464"><ele>223.0</ele><time>2026-05-02T10:22:12.521Z</time></trkpt><trkpt lat="40.068017" lon="8.6147368"><ele>222.99999999999997</ele><time>2026-05-02T10:22:13.521Z</time></trkpt><trkpt lat="40.0680696" lon="8.614813"><ele>223.0</ele><time>2026-05-02T10:22:14.521Z</time></trkpt><trkpt lat="40.0681297" lon="8.6148707"><ele>223.49999999999997</ele><time>2026-05-02T10:22:15.522Z</time></trkpt><trkpt lat="40.0681995" lon="8.6149087"><ele>224.0</ele><time>2026-05-02T10:22:16.522Z</time></trkpt><trkpt lat="40.068274" lon="8.6149415"><ele>224.5</ele><time>2026-05-02T10:22:17.521Z</time></trkpt><trkpt lat="40.0683561" lon="8.6149633"><ele>225.0</ele><time>2026-05-02T10:22:18.521Z</time></trkpt><trkpt lat="40.0684468" lon="8.614968"><ele>225.49999999999997</ele><time>2026-05-02T10:22:19.52Z</time></trkpt><trkpt lat="40.0685373" lon="8.6149731"><ele>226.0</ele><time>2026-05-02T10:22:20.521Z</time></trkpt><trkpt lat="40.0686345" lon="8.6149836"><ele>226.49999999999997</ele><time>2026-05-02T10:22:21.52Z</time></trkpt><trkpt lat="40.0687319" lon="8.6149915"><ele>227.0</ele><time>2026-05-02T10:22:22.521Z</time></trkpt><trkpt lat="40.0688228" lon="8.6150107"><ele>227.5</ele><time>2026-05-02T10:22:23.521Z</time></trkpt><trkpt lat="40.0688939" lon="8.615033"><ele>228.0</ele><time>2026-05-02T10:22:24.521Z</time></trkpt><trkpt lat="40.0689955" lon="8.6150889"><ele>228.49999999999997</ele><time>2026-05-02T10:22:26.522Z</time></trkpt><trkpt lat="40.0690446" lon="8.6151474"><ele>229.0</ele><time>2026-05-02T10:22:27.521Z</time></trkpt><trkpt lat="40.0690895" lon="8.6152123"><ele>229.66666666666666</ele><time>2026-05-02T10:22:28.521Z</time></trkpt><trkpt lat="40.0691485" lon="8.6152863"><ele>230.33333333333331</ele><time>2026-05-02T10:22:29.52Z</time></trkpt><trkpt lat="40.0692168" lon="8.6153412"><ele>231.0</ele><time>2026-05-02T10:22:30.521Z</time></trkpt><trkpt lat="40.0692991" lon="8.6153978"><ele>231.66666666666669</ele><time>2026-05-02T10:22:31.522Z</time></trkpt><trkpt lat="40.069382" lon="8.6154642"><ele>232.33333333333334</ele><time>2026-05-02T10:22:32.522Z</time></trkpt><trkpt lat="40.0694602" lon="8.6155354"><ele>233.0</ele><time>2026-05-02T10:22:33.521Z</time></trkpt><trkpt lat="40.0695284" lon="8.6156001"><ele>233.4</ele><time>2026-05-02T10:22:34.522Z</time></trkpt><trkpt lat="40.0695901" lon="8.6156724"><ele>233.8</ele><time>2026-05-02T10:22:35.521Z</time></trkpt><trkpt lat="40.0696458" lon="8.6157587"><ele>234.2</ele><time>2026-05-02T10:22:36.52Z</time></trkpt><trkpt lat="40.0696929" lon="8.6158627"><ele>234.6</ele><time>2026-05-02T10:22:37.522Z</time></trkpt><trkpt lat="40.0697405" lon="8.6159793"><ele>235.0</ele><time>2026-05-02T10:22:38.521Z</time></trkpt><trkpt lat="40.0697986" lon="8.6160908"><ele>236.0</ele><time>2026-05-02T10:22:39.521Z</time></trkpt><trkpt lat="40.0698586" lon="8.6162002"><ele>237.0</ele><time>2026-05-02T10:22:40.522Z</time></trkpt><trkpt lat="40.069918" lon="8.6163019"><ele>238.0</ele><time>2026-05-02T10:22:41.52Z</time></trkpt><trkpt lat="40.0699629" lon="8.6164016"><ele>239.0</ele><time>2026-05-02T10:22:42.52Z</time></trkpt><trkpt lat="40.0699899" lon="8.6164958"><ele>240.0</ele><time>2026-05-02T10:22:43.52Z</time></trkpt><trkpt lat="40.0700119" lon="8.6166012"><ele>240.5</ele><time>2026-05-02T10:22:44.522Z</time></trkpt><trkpt lat="40.0700418" lon="8.6166946"><ele>241.0</ele><time>2026-05-02T10:22:45.52Z</time></trkpt><trkpt lat="40.0700889" lon="8.6167875"><ele>241.5</ele><time>2026-05-02T10:22:46.52Z</time></trkpt><trkpt lat="40.0701381" lon="8.616876"><ele>242.0</ele><time>2026-05-02T10:22:47.52Z</time></trkpt><trkpt lat="40.0701698" lon="8.6169761"><ele>242.5</ele><time>2026-05-02T10:22:48.521Z</time></trkpt><trkpt lat="40.070185" lon="8.6170844"><ele>243.0</ele><time>2026-05-02T10:22:49.52Z</time></trkpt><trkpt lat="40.0701926" lon="8.6171855"><ele>243.0</ele><time>2026-05-02T10:22:50.522Z</time></trkpt><trkpt lat="40.070217" lon="8.6172881"><ele>243.0</ele><time>2026-05-02T10:22:51.521Z</time></trkpt><trkpt lat="40.0702545" lon="8.6173975"><ele>243.0</ele><time>2026-05-02T10:22:52.521Z</time></trkpt><trkpt lat="40.0702721" lon="8.6174997"><ele>243.0</ele><time>2026-05-02T10:22:53.521Z</time></trkpt><trkpt lat="40.0702866" lon="8.6176112"><ele>243.0</ele><time>2026-05-02T10:22:54.521Z</time></trkpt><trkpt lat="40.070296" lon="8.6177009"><ele>243.0</ele><time>2026-05-02T10:22:55.522Z</time></trkpt><trkpt lat="40.0703485" lon="8.6178458"><ele>243.0</ele><time>2026-05-02T10:22:57.52Z</time></trkpt><trkpt lat="40.070454" lon="8.6178934"><ele>243.0</ele><time>2026-05-02T10:22:59.521Z</time></trkpt><trkpt lat="40.0705341" lon="8.6179046"><ele>243.0</ele><time>2026-05-02T10:23:00.52Z</time></trkpt><trkpt lat="40.0706136" lon="8.6179196"><ele>243.0</ele><time>2026-05-02T10:23:01.521Z</time></trkpt><trkpt lat="40.0706798" lon="8.6179269"><ele>243.0</ele><time>2026-05-02T10:23:02.52Z</time></trkpt><trkpt lat="40.0707986" lon="8.6178506"><ele>242.83333333333334</ele><time>2026-05-02T10:23:04.522Z</time></trkpt><trkpt lat="40.07086" lon="8.6178272"><ele>242.66666666666669</ele><time>2026-05-02T10:23:05.52Z</time></trkpt><trkpt lat="40.0709364" lon="8.6178206"><ele>242.5</ele><time>2026-05-02T10:23:06.521Z</time></trkpt><trkpt lat="40.0710147" lon="8.6178398"><ele>242.33333333333334</ele><time>2026-05-02T10:23:07.52Z</time></trkpt><trkpt lat="40.0711069" lon="8.6178828"><ele>242.16666666666669</ele><time>2026-05-02T10:23:08.52Z</time></trkpt><trkpt lat="40.0712155" lon="8.6179299"><ele>242.0</ele><time>2026-05-02T10:23:09.521Z</time></trkpt><trkpt lat="40.0713057" lon="8.6179653"><ele>242.00000000000003</ele><time>2026-05-02T10:23:10.522Z</time></trkpt><trkpt lat="40.0713849" lon="8.6179976"><ele>242.0</ele><time>2026-05-02T10:23:11.52Z</time></trkpt><trkpt lat="40.0714644" lon="8.618031"><ele>242.0</ele><time>2026-05-02T10:23:12.52Z</time></trkpt><trkpt lat="40.0715413" lon="8.6180705"><ele>242.0</ele><time>2026-05-02T10:23:13.52Z</time></trkpt><trkpt lat="40.0716255" lon="8.6181107"><ele>242.00000000000003</ele><time>2026-05-02T10:23:14.521Z</time></trkpt><trkpt lat="40.0717152" lon="8.6181474"><ele>242.0</ele><time>2026-05-02T10:23:15.521Z</time></trkpt><trkpt lat="40.0718093" lon="8.6181978"><ele>242.6</ele><time>2026-05-02T10:23:16.521Z</time></trkpt><trkpt lat="40.0719023" lon="8.6182444"><ele>243.2</ele><time>2026-05-02T10:23:17.521Z</time></trkpt><trkpt lat="40.0719952" lon="8.6182902"><ele>243.8</ele><time>2026-05-02T10:23:18.522Z</time></trkpt><trkpt lat="40.0720931" lon="8.6183303"><ele>244.4</ele><time>2026-05-02T10:23:19.521Z</time></trkpt><trkpt lat="40.0721957" lon="8.6183722"><ele>245.0</ele><time>2026-05-02T10:23:20.52Z</time></trkpt><trkpt lat="40.0722947" lon="8.6184206"><ele>245.0</ele><time>2026-05-02T10:23:21.52Z</time></trkpt><trkpt lat="40.0723912" lon="8.618471"><ele>245.0</ele><time>2026-05-02T10:23:22.521Z</time></trkpt><trkpt lat="40.0724782" lon="8.618536"><ele>245.0</ele><time>2026-05-02T10:23:23.522Z</time></trkpt><trkpt lat="40.0725583" lon="8.6185955"><ele>245.0</ele><time>2026-05-02T10:23:24.521Z</time></trkpt><trkpt lat="40.0726495" lon="8.6186372"><ele>245.0</ele><time>2026-05-02T10:23:25.521Z</time></trkpt><trkpt lat="40.0727464" lon="8.6186612"><ele>244.6</ele><time>2026-05-02T10:23:26.52Z</time></trkpt><trkpt lat="40.0728438" lon="8.6186779"><ele>244.2</ele><time>2026-05-02T10:23:27.522Z</time></trkpt><trkpt lat="40.0729338" lon="8.6187047"><ele>243.8</ele><time>2026-05-02T10:23:28.52Z</time></trkpt><trkpt lat="40.0730271" lon="8.6187373"><ele>243.4</ele><time>2026-05-02T10:23:29.522Z</time></trkpt><trkpt lat="40.0731133" lon="8.618768"><ele>243.0</ele><time>2026-05-02T10:23:30.52Z</time></trkpt><trkpt lat="40.073193" lon="8.6188008"><ele>243.0</ele><time>2026-05-02T10:23:31.52Z</time></trkpt><trkpt lat="40.0732585" lon="8.6188445"><ele>243.0</ele><time>2026-05-02T10:23:32.521Z</time></trkpt><trkpt lat="40.0733341" lon="8.6188899"><ele>243.0</ele><time>2026-05-02T10:23:33.521Z</time></trkpt><trkpt lat="40.0734223" lon="8.6189301"><ele>243.0</ele><time>2026-05-02T10:23:34.521Z</time></trkpt><trkpt lat="40.0735216" lon="8.6189555"><ele>243.0</ele><time>2026-05-02T10:23:35.52Z</time></trkpt><trkpt lat="40.0736326" lon="8.6189778"><ele>243.25</ele><time>2026-05-02T10:23:36.521Z</time></trkpt><trkpt lat="40.0737485" lon="8.6190087"><ele>243.5</ele><time>2026-05-02T10:23:37.521Z</time></trkpt><trkpt lat="40.0738668" lon="8.6190414"><ele>243.75</ele><time>2026-05-02T10:23:38.521Z</time></trkpt><trkpt lat="40.0739851" lon="8.6190734"><ele>244.0</ele><time>2026-05-02T10:23:39.52Z</time></trkpt><trkpt lat="40.0741005" lon="8.6191059"><ele>244.2</ele><time>2026-05-02T10:23:40.522Z</time></trkpt><trkpt lat="40.0742145" lon="8.6191389"><ele>244.39999999999998</ele><time>2026-05-02T10:23:41.521Z</time></trkpt><trkpt lat="40.0743289" lon="8.6191671"><ele>244.6</ele><time>2026-05-02T10:23:42.521Z</time></trkpt><trkpt lat="40.0744373" lon="8.6191817"><ele>244.8</ele><time>2026-05-02T10:23:43.52Z</time></trkpt><trkpt lat="40.0745427" lon="8.6191919"><ele>245.0</ele><time>2026-05-02T10:23:44.521Z</time></trkpt><trkpt lat="40.0746533" lon="8.6192037"><ele>245.0</ele><time>2026-05-02T10:23:45.521Z</time></trkpt><trkpt lat="40.0747668" lon="8.6192179"><ele>245.0</ele><time>2026-05-02T10:23:46.52Z</time></trkpt><trkpt lat="40.0748874" lon="8.6192227"><ele>245.0</ele><time>2026-05-02T10:23:47.521Z</time></trkpt><trkpt lat="40.0750118" lon="8.6192294"><ele>245.0</ele><time>2026-05-02T10:23:48.522Z</time></trkpt><trkpt lat="40.0751387" lon="8.6192487"><ele>245.5</ele><time>2026-05-02T10:23:49.52Z</time></trkpt><trkpt lat="40.0752689" lon="8.619281"><ele>246.0</ele><time>2026-05-02T10:23:50.521Z</time></trkpt><trkpt lat="40.0754033" lon="8.619314"><ele>246.5</ele><time>2026-05-02T10:23:51.521Z</time></trkpt><trkpt lat="40.0755424" lon="8.6193466"><ele>247.0</ele><time>2026-05-02T10:23:52.521Z</time></trkpt><trkpt lat="40.0756848" lon="8.6193797"><ele>247.33333333333331</ele><time>2026-05-02T10:23:53.522Z</time></trkpt><trkpt lat="40.0758279" lon="8.6194163"><ele>247.66666666666669</ele><time>2026-05-02T10:23:54.521Z</time></trkpt><trkpt lat="40.0759785" lon="8.6194532"><ele>248.0</ele><time>2026-05-02T10:23:55.522Z</time></trkpt><trkpt lat="40.0761291" lon="8.6194855"><ele>248.0</ele><time>2026-05-02T10:23:56.521Z</time></trkpt><trkpt lat="40.0762826" lon="8.6195051"><ele>248.0</ele><time>2026-05-02T10:23:57.52Z</time></trkpt><trkpt lat="40.0764375" lon="8.6195134"><ele>248.0</ele><time>2026-05-02T10:23:58.521Z</time></trkpt><trkpt lat="40.0765925" lon="8.6195082"><ele>250.0</ele><time>2026-05-02T10:23:59.522Z</time></trkpt><trkpt lat="40.0767451" lon="8.6194841"><ele>252.0</ele><time>2026-05-02T10:24:00.521Z</time></trkpt><trkpt lat="40.0768968" lon="8.6194456"><ele>254.0</ele><time>2026-05-02T10:24:01.52Z</time></trkpt><trkpt lat="40.077048" lon="8.6194017"><ele>254.0</ele><time>2026-05-02T10:24:02.52Z</time></trkpt><trkpt lat="40.0771997" lon="8.619353"><ele>254.0</ele><time>2026-05-02T10:24:03.521Z</time></trkpt><trkpt lat="40.0773483" lon="8.6193044"><ele>254.0</ele><time>2026-05-02T10:24:04.521Z</time></trkpt><trkpt lat="40.0774965" lon="8.6192535"><ele>255.66666666666669</ele><time>2026-05-02T10:24:05.522Z</time></trkpt><trkpt lat="40.0776452" lon="8.6192044"><ele>257.3333333333333</ele><time>2026-05-02T10:24:06.521Z</time></trkpt><trkpt lat="40.0777956" lon="8.6191556"><ele>259.0</ele><time>2026-05-02T10:24:07.52Z</time></trkpt><trkpt lat="40.0779467" lon="8.6191087"><ele>259.0</ele><time>2026-05-02T10:24:08.521Z</time></trkpt><trkpt lat="40.0780991" lon="8.6190622"><ele>259.0</ele><time>2026-05-02T10:24:09.521Z</time></trkpt><trkpt lat="40.0782499" lon="8.6190143"><ele>259.0</ele><time>2026-05-02T10:24:10.521Z</time></trkpt><trkpt lat="40.0783999" lon="8.6189674"><ele>260.5</ele><time>2026-05-02T10:24:11.522Z</time></trkpt><trkpt lat="40.0785479" lon="8.6189217"><ele>262.0</ele><time>2026-05-02T10:24:12.52Z</time></trkpt><trkpt lat="40.0786924" lon="8.6188778"><ele>263.5</ele><time>2026-05-02T10:24:13.52Z</time></trkpt><trkpt lat="40.0788348" lon="8.6188436"><ele>265.0</ele><time>2026-05-02T10:24:14.521Z</time></trkpt><trkpt lat="40.0789755" lon="8.6188294"><ele>266.5</ele><time>2026-05-02T10:24:15.52Z</time></trkpt><trkpt lat="40.0791196" lon="8.6188402"><ele>268.0</ele><time>2026-05-02T10:24:16.521Z</time></trkpt><trkpt lat="40.0792571" lon="8.6188713"><ele>269.5</ele><time>2026-05-02T10:24:17.52Z</time></trkpt><trkpt lat="40.0793884" lon="8.6189143"><ele>271.0</ele><time>2026-05-02T10:24:18.522Z</time></trkpt><trkpt lat="40.0795131" lon="8.6189549"><ele>271.0</ele><time>2026-05-02T10:24:19.522Z</time></trkpt><trkpt lat="40.0796354" lon="8.6190019"><ele>271.0</ele><time>2026-05-02T10:24:20.522Z</time></trkpt><trkpt lat="40.0797553" lon="8.6190469"><ele>271.0</ele><time>2026-05-02T10:24:21.522Z</time></trkpt><trkpt lat="40.0798652" lon="8.6190854"><ele>271.0</ele><time>2026-05-02T10:24:22.521Z</time></trkpt><trkpt lat="40.0799549" lon="8.6191191"><ele>271.6</ele><time>2026-05-02T10:24:23.522Z</time></trkpt><trkpt lat="40.0800339" lon="8.619155"><ele>272.20000000000005</ele><time>2026-05-02T10:24:24.521Z</time></trkpt><trkpt lat="40.0801007" lon="8.6192145"><ele>272.79999999999995</ele><time>2026-05-02T10:24:25.52Z</time></trkpt><trkpt lat="40.0801603" lon="8.6193071"><ele>273.4</ele><time>2026-05-02T10:24:26.522Z</time></trkpt><trkpt lat="40.0802071" lon="8.6194282"><ele>274.0</ele><time>2026-05-02T10:24:27.521Z</time></trkpt><trkpt lat="40.0802477" lon="8.6195646"><ele>274.0</ele><time>2026-05-02T10:24:28.522Z</time></trkpt><trkpt lat="40.0802893" lon="8.6197171"><ele>274.0</ele><time>2026-05-02T10:24:29.52Z</time></trkpt><trkpt lat="40.0803332" lon="8.6198787"><ele>274.0</ele><time>2026-05-02T10:24:30.522Z</time></trkpt><trkpt lat="40.0803813" lon="8.620053"><ele>274.0</ele><time>2026-05-02T10:24:31.522Z</time></trkpt><trkpt lat="40.0804411" lon="8.6202282"><ele>273.75</ele><time>2026-05-02T10:24:32.521Z</time></trkpt><trkpt lat="40.0805087" lon="8.6204072"><ele>273.5</ele><time>2026-05-02T10:24:33.521Z</time></trkpt><trkpt lat="40.0805743" lon="8.6205813"><ele>273.25</ele><time>2026-05-02T10:24:34.52Z</time></trkpt><trkpt lat="40.0806306" lon="8.6207233"><ele>273.0</ele><time>2026-05-02T10:24:35.521Z</time></trkpt><trkpt lat="40.0806874" lon="8.6208451"><ele>273.0</ele><time>2026-05-02T10:24:36.521Z</time></trkpt><trkpt lat="40.0807437" lon="8.6209553"><ele>273.0</ele><time>2026-05-02T10:24:37.521Z</time></trkpt><trkpt lat="40.0807906" lon="8.621081"><ele>273.0</ele><time>2026-05-02T10:24:38.52Z</time></trkpt><trkpt lat="40.080841" lon="8.6212106"><ele>273.0</ele><time>2026-05-02T10:24:39.522Z</time></trkpt><trkpt lat="40.0808986" lon="8.621338"><ele>273.0</ele><time>2026-05-02T10:24:40.521Z</time></trkpt><trkpt lat="40.0809644" lon="8.6214565"><ele>272.8</ele><time>2026-05-02T10:24:41.521Z</time></trkpt><trkpt lat="40.0810227" lon="8.6215726"><ele>272.6</ele><time>2026-05-02T10:24:42.521Z</time></trkpt><trkpt lat="40.0810738" lon="8.6216951"><ele>272.4</ele><time>2026-05-02T10:24:43.521Z</time></trkpt><trkpt lat="40.0811181" lon="8.6218204"><ele>272.2</ele><time>2026-05-02T10:24:44.522Z</time></trkpt><trkpt lat="40.0811594" lon="8.6219564"><ele>272.0</ele><time>2026-05-02T10:24:45.521Z</time></trkpt><trkpt lat="40.0811982" lon="8.6221"><ele>272.0</ele><time>2026-05-02T10:24:46.522Z</time></trkpt><trkpt lat="40.0812395" lon="8.6222435"><ele>272.0</ele><time>2026-05-02T10:24:47.521Z</time></trkpt><trkpt lat="40.0812851" lon="8.6223867"><ele>272.0</ele><time>2026-05-02T10:24:48.521Z</time></trkpt><trkpt lat="40.0813388" lon="8.6225297"><ele>272.0</ele><time>2026-05-02T10:24:49.52Z</time></trkpt><trkpt lat="40.0813988" lon="8.622676"><ele>272.25</ele><time>2026-05-02T10:24:50.52Z</time></trkpt><trkpt lat="40.0814594" lon="8.6228238"><ele>272.5</ele><time>2026-05-02T10:24:51.521Z</time></trkpt><trkpt lat="40.0815142" lon="8.6229725"><ele>272.75</ele><time>2026-05-02T10:24:52.52Z</time></trkpt><trkpt lat="40.081563" lon="8.6231105"><ele>273.0</ele><time>2026-05-02T10:24:53.521Z</time></trkpt><trkpt lat="40.0816149" lon="8.6232454"><ele>273.0</ele><time>2026-05-02T10:24:54.52Z</time></trkpt><trkpt lat="40.0816615" lon="8.6233801"><ele>273.0</ele><time>2026-05-02T10:24:55.521Z</time></trkpt><trkpt lat="40.0816988" lon="8.6235072"><ele>273.0</ele><time>2026-05-02T10:24:56.52Z</time></trkpt><trkpt lat="40.0817434" lon="8.6236337"><ele>273.0</ele><time>2026-05-02T10:24:57.521Z</time></trkpt><trkpt lat="40.0817885" lon="8.623761"><ele>273.0</ele><time>2026-05-02T10:24:58.522Z</time></trkpt><trkpt lat="40.0818226" lon="8.6238946"><ele>272.8</ele><time>2026-05-02T10:24:59.522Z</time></trkpt><trkpt lat="40.0818599" lon="8.6240244"><ele>272.6</ele><time>2026-05-02T10:25:00.522Z</time></trkpt><trkpt lat="40.0819127" lon="8.6241506"><ele>272.4</ele><time>2026-05-02T10:25:01.522Z</time></trkpt><trkpt lat="40.0819735" lon="8.624273"><ele>272.2</ele><time>2026-05-02T10:25:02.521Z</time></trkpt><trkpt lat="40.0820255" lon="8.6243987"><ele>272.0</ele><time>2026-05-02T10:25:03.521Z</time></trkpt><trkpt lat="40.0820712" lon="8.6245267"><ele>271.6666666666667</ele><time>2026-05-02T10:25:04.52Z</time></trkpt><trkpt lat="40.0821153" lon="8.6246403"><ele>271.33333333333337</ele><time>2026-05-02T10:25:05.52Z</time></trkpt><trkpt lat="40.0821622" lon="8.6247512"><ele>271.0</ele><time>2026-05-02T10:25:06.52Z</time></trkpt><trkpt lat="40.0821928" lon="8.6248426"><ele>270.6666666666667</ele><time>2026-05-02T10:25:07.521Z</time></trkpt><trkpt lat="40.082217" lon="8.6249352"><ele>270.3333333333333</ele><time>2026-05-02T10:25:08.522Z</time></trkpt><trkpt lat="40.0822243" lon="8.6250534"><ele>270.0</ele><time>2026-05-02T10:25:09.522Z</time></trkpt><trkpt lat="40.0822375" lon="8.6251765"><ele>270.0</ele><time>2026-05-02T10:25:10.522Z</time></trkpt><trkpt lat="40.0822628" lon="8.6253022"><ele>270.0</ele><time>2026-05-02T10:25:11.52Z</time></trkpt><trkpt lat="40.0822893" lon="8.6254169"><ele>270.0</ele><time>2026-05-02T10:25:12.522Z</time></trkpt><trkpt lat="40.0823352" lon="8.6255257"><ele>270.0</ele><time>2026-05-02T10:25:13.522Z</time></trkpt><trkpt lat="40.0823893" lon="8.6256213"><ele>270.0</ele><time>2026-05-02T10:25:14.522Z</time></trkpt><trkpt lat="40.0824434" lon="8.6256943"><ele>269.5</ele><time>2026-05-02T10:25:15.522Z</time></trkpt><trkpt lat="40.0825045" lon="8.6257594"><ele>269.0</ele><time>2026-05-02T10:25:16.521Z</time></trkpt><trkpt lat="40.0825769" lon="8.625828"><ele>268.5</ele><time>2026-05-02T10:25:17.52Z</time></trkpt><trkpt lat="40.0826473" lon="8.6258991"><ele>268.0</ele><time>2026-05-02T10:25:18.521Z</time></trkpt><trkpt lat="40.0827139" lon="8.6259813"><ele>267.5</ele><time>2026-05-02T10:25:19.521Z</time></trkpt><trkpt lat="40.0827757" lon="8.6260757"><ele>267.0</ele><time>2026-05-02T10:25:20.522Z</time></trkpt><trkpt lat="40.0828298" lon="8.6261865"><ele>266.4</ele><time>2026-05-02T10:25:21.52Z</time></trkpt><trkpt lat="40.0828771" lon="8.6263071"><ele>265.79999999999995</ele><time>2026-05-02T10:25:22.52Z</time></trkpt><trkpt lat="40.0829106" lon="8.6264444"><ele>265.2</ele><time>2026-05-02T10:25:23.52Z</time></trkpt><trkpt lat="40.0829388" lon="8.6265901"><ele>264.59999999999997</ele><time>2026-05-02T10:25:24.52Z</time></trkpt><trkpt lat="40.0829696" lon="8.6267405"><ele>264.0</ele><time>2026-05-02T10:25:25.521Z</time></trkpt><trkpt lat="40.0830004" lon="8.6268885"><ele>263.0</ele><time>2026-05-02T10:25:26.52Z</time></trkpt><trkpt lat="40.0830338" lon="8.6270336"><ele>262.0</ele><time>2026-05-02T10:25:27.521Z</time></trkpt><trkpt lat="40.0830772" lon="8.6271731"><ele>261.0</ele><time>2026-05-02T10:25:28.52Z</time></trkpt><trkpt lat="40.08311" lon="8.6273028"><ele>260.0</ele><time>2026-05-02T10:25:29.521Z</time></trkpt><trkpt lat="40.0831407" lon="8.6274433"><ele>259.0</ele><time>2026-05-02T10:25:30.521Z</time></trkpt><trkpt lat="40.0831769" lon="8.6275864"><ele>259.0</ele><time>2026-05-02T10:25:31.521Z</time></trkpt><trkpt lat="40.0832083" lon="8.6277305"><ele>259.0</ele><time>2026-05-02T10:25:32.521Z</time></trkpt><trkpt lat="40.0832329" lon="8.6278638"><ele>259.0</ele><time>2026-05-02T10:25:33.521Z</time></trkpt><trkpt lat="40.083262" lon="8.6279797"><ele>259.0</ele><time>2026-05-02T10:25:34.522Z</time></trkpt><trkpt lat="40.0833027" lon="8.6280804"><ele>259.0</ele><time>2026-05-02T10:25:35.522Z</time></trkpt><trkpt lat="40.0833552" lon="8.6281737"><ele>259.0</ele><time>2026-05-02T10:25:36.522Z</time></trkpt><trkpt lat="40.083406" lon="8.6282784"><ele>259.0</ele><time>2026-05-02T10:25:37.521Z</time></trkpt><trkpt lat="40.0834544" lon="8.6283856"><ele>259.0</ele><time>2026-05-02T10:25:38.521Z</time></trkpt><trkpt lat="40.0835087" lon="8.6284774"><ele>259.0</ele><time>2026-05-02T10:25:39.521Z</time></trkpt><trkpt lat="40.083574" lon="8.6285691"><ele>259.0</ele><time>2026-05-02T10:25:40.521Z</time></trkpt><trkpt lat="40.0836352" lon="8.6286711"><ele>259.0</ele><time>2026-05-02T10:25:41.521Z</time></trkpt><trkpt lat="40.0836875" lon="8.6287642"><ele>259.0</ele><time>2026-05-02T10:25:42.521Z</time></trkpt><trkpt lat="40.0837321" lon="8.6288578"><ele>259.0</ele><time>2026-05-02T10:25:43.521Z</time></trkpt><trkpt lat="40.0837553" lon="8.6289459"><ele>259.0</ele><time>2026-05-02T10:25:44.52Z</time></trkpt><trkpt lat="40.0837886" lon="8.6290255"><ele>259.0</ele><time>2026-05-02T10:25:45.521Z</time></trkpt><trkpt lat="40.0838519" lon="8.6290943"><ele>259.0</ele><time>2026-05-02T10:25:46.52Z</time></trkpt><trkpt lat="40.0839327" lon="8.6291667"><ele>259.0</ele><time>2026-05-02T10:25:47.519Z</time></trkpt><trkpt lat="40.0840071" lon="8.6292433"><ele>259.0</ele><time>2026-05-02T10:25:48.52Z</time></trkpt><trkpt lat="40.0840764" lon="8.6293296"><ele>259.0</ele><time>2026-05-02T10:25:49.52Z</time></trkpt><trkpt lat="40.084145" lon="8.6294094"><ele>259.0</ele><time>2026-05-02T10:25:50.52Z</time></trkpt><trkpt lat="40.0842113" lon="8.6294736"><ele>259.0</ele><time>2026-05-02T10:25:51.52Z</time></trkpt><trkpt lat="40.0842854" lon="8.6295444"><ele>260.4</ele><time>2026-05-02T10:25:52.52Z</time></trkpt><trkpt lat="40.0843589" lon="8.6296211"><ele>261.79999999999995</ele><time>2026-05-02T10:25:53.52Z</time></trkpt><trkpt lat="40.084427" lon="8.6296901"><ele>263.20000000000005</ele><time>2026-05-02T10:25:54.52Z</time></trkpt><trkpt lat="40.0845082" lon="8.6297591"><ele>264.6</ele><time>2026-05-02T10:25:55.519Z</time></trkpt><trkpt lat="40.0845866" lon="8.629824"><ele>266.0</ele><time>2026-05-02T10:25:56.521Z</time></trkpt><trkpt lat="40.0846638" lon="8.629893"><ele>266.0</ele><time>2026-05-02T10:25:57.521Z</time></trkpt><trkpt lat="40.0847446" lon="8.6299585"><ele>266.0</ele><time>2026-05-02T10:25:58.52Z</time></trkpt><trkpt lat="40.0848278" lon="8.6300192"><ele>266.0</ele><time>2026-05-02T10:25:59.519Z</time></trkpt><trkpt lat="40.0849136" lon="8.6300874"><ele>266.0</ele><time>2026-05-02T10:26:00.519Z</time></trkpt><trkpt lat="40.0849911" lon="8.6301624"><ele>266.0</ele><time>2026-05-02T10:26:01.52Z</time></trkpt><trkpt lat="40.0850596" lon="8.6302326"><ele>265.6666666666667</ele><time>2026-05-02T10:26:02.52Z</time></trkpt><trkpt lat="40.0851345" lon="8.6302971"><ele>265.33333333333337</ele><time>2026-05-02T10:26:03.52Z</time></trkpt><trkpt lat="40.0852213" lon="8.6303595"><ele>265.0</ele><time>2026-05-02T10:26:04.52Z</time></trkpt><trkpt lat="40.0852898" lon="8.6304202"><ele>264.6666666666667</ele><time>2026-05-02T10:26:05.519Z</time></trkpt><trkpt lat="40.0853522" lon="8.6304925"><ele>264.3333333333333</ele><time>2026-05-02T10:26:06.52Z</time></trkpt><trkpt lat="40.0854222" lon="8.6305538"><ele>264.0</ele><time>2026-05-02T10:26:07.519Z</time></trkpt><trkpt lat="40.0855034" lon="8.6306007"><ele>264.0</ele><time>2026-05-02T10:26:08.52Z</time></trkpt><trkpt lat="40.0855894" lon="8.6306417"><ele>264.0</ele><time>2026-05-02T10:26:09.52Z</time></trkpt><trkpt lat="40.0856778" lon="8.6306927"><ele>264.0</ele><time>2026-05-02T10:26:10.519Z</time></trkpt><trkpt lat="40.0857643" lon="8.6307428"><ele>264.0</ele><time>2026-05-02T10:26:11.52Z</time></trkpt><trkpt lat="40.0858468" lon="8.6307904"><ele>264.0</ele><time>2026-05-02T10:26:12.52Z</time></trkpt><trkpt lat="40.0859209" lon="8.6308149"><ele>264.0</ele><time>2026-05-02T10:26:13.521Z</time></trkpt><trkpt lat="40.0859866" lon="8.6308276"><ele>264.1666666666667</ele><time>2026-05-02T10:26:14.521Z</time></trkpt><trkpt lat="40.0860898" lon="8.6308894"><ele>264.3333333333333</ele><time>2026-05-02T10:26:16.519Z</time></trkpt><trkpt lat="40.08619" lon="8.6309986"><ele>264.5</ele><time>2026-05-02T10:26:18.521Z</time></trkpt><trkpt lat="40.0862334" lon="8.6310664"><ele>264.66666666666663</ele><time>2026-05-02T10:26:19.521Z</time></trkpt><trkpt lat="40.0862784" lon="8.6311382"><ele>264.8333333333333</ele><time>2026-05-02T10:26:20.519Z</time></trkpt><trkpt lat="40.0863184" lon="8.6312027"><ele>265.0</ele><time>2026-05-02T10:26:21.519Z</time></trkpt><trkpt lat="40.0863454" lon="8.6313482"><ele>264.5</ele><time>2026-05-02T10:26:23.519Z</time></trkpt><trkpt lat="40.0863444" lon="8.6314607"><ele>264.0</ele><time>2026-05-02T10:26:24.519Z</time></trkpt><trkpt lat="40.0863508" lon="8.6315801"><ele>263.5</ele><time>2026-05-02T10:26:25.52Z</time></trkpt><trkpt lat="40.0863687" lon="8.6316916"><ele>263.0</ele><time>2026-05-02T10:26:26.521Z</time></trkpt><trkpt lat="40.0863801" lon="8.6317882"><ele>262.5</ele><time>2026-05-02T10:26:27.52Z</time></trkpt><trkpt lat="40.086385" lon="8.6318835"><ele>262.0</ele><time>2026-05-02T10:26:28.519Z</time></trkpt><trkpt lat="40.0863844" lon="8.6319876"><ele>261.0</ele><time>2026-05-02T10:26:29.519Z</time></trkpt><trkpt lat="40.0863838" lon="8.632092"><ele>260.0</ele><time>2026-05-02T10:26:30.52Z</time></trkpt><trkpt lat="40.0863841" lon="8.6321778"><ele>259.0</ele><time>2026-05-02T10:26:31.52Z</time></trkpt><trkpt lat="40.0863777" lon="8.632307"><ele>258.0</ele><time>2026-05-02T10:26:33.52Z</time></trkpt><trkpt lat="40.0863267" lon="8.6324023"><ele>257.0</ele><time>2026-05-02T10:26:35.52Z</time></trkpt><trkpt lat="40.0862141" lon="8.6324713"><ele>257.0</ele><time>2026-05-02T10:26:37.521Z</time></trkpt><trkpt lat="40.0861454" lon="8.6324885"><ele>257.0</ele><time>2026-05-02T10:26:38.519Z</time></trkpt><trkpt lat="40.0860633" lon="8.6325086"><ele>257.0</ele><time>2026-05-02T10:26:39.52Z</time></trkpt><trkpt lat="40.0859699" lon="8.632531"><ele>257.0</ele><time>2026-05-02T10:26:40.52Z</time></trkpt><trkpt lat="40.085876" lon="8.6325553"><ele>257.0</ele><time>2026-05-02T10:26:41.521Z</time></trkpt><trkpt lat="40.0857771" lon="8.6325691"><ele>257.0</ele><time>2026-05-02T10:26:42.52Z</time></trkpt><trkpt lat="40.0856904" lon="8.6325797"><ele>257.0</ele><time>2026-05-02T10:26:43.52Z</time></trkpt><trkpt lat="40.0856073" lon="8.6325994"><ele>257.0</ele><time>2026-05-02T10:26:44.519Z</time></trkpt><trkpt lat="40.0855412" lon="8.6326229"><ele>257.0</ele><time>2026-05-02T10:26:45.519Z</time></trkpt><trkpt lat="40.0854416" lon="8.6326408"><ele>257.0</ele><time>2026-05-02T10:26:47.52Z</time></trkpt><trkpt lat="40.0853727" lon="8.6326144"><ele>257.0</ele><time>2026-05-02T10:26:49.521Z</time></trkpt><trkpt lat="40.0852884" lon="8.6325768"><ele>257.0</ele><time>2026-05-02T10:26:51.521Z</time></trkpt><trkpt lat="40.0853999" lon="8.6326336"><ele>257.0</ele><time>2026-05-02T10:27:02.52Z</time></trkpt><trkpt lat="40.0854682" lon="8.6326451"><ele>257.0</ele><time>2026-05-02T10:27:03.521Z</time></trkpt><trkpt lat="40.0855397" lon="8.6326539"><ele>257.0</ele><time>2026-05-02T10:27:05.521Z</time></trkpt><trkpt lat="40.0855535" lon="8.6327768"><ele>257.0</ele><time>2026-05-02T10:27:08.52Z</time></trkpt><trkpt lat="40.0856194" lon="8.6328871"><ele>257.0</ele><time>2026-05-02T10:27:10.52Z</time></trkpt><trkpt lat="40.0856832" lon="8.6329476"><ele>257.0</ele><time>2026-05-02T10:27:11.521Z</time></trkpt><trkpt lat="40.0857482" lon="8.633015"><ele>256.0</ele><time>2026-05-02T10:27:12.519Z</time></trkpt><trkpt lat="40.0858152" lon="8.6330906"><ele>255.0</ele><time>2026-05-02T10:27:13.52Z</time></trkpt><trkpt lat="40.085878" lon="8.6331815"><ele>254.0</ele><time>2026-05-02T10:27:14.52Z</time></trkpt><trkpt lat="40.0859429" lon="8.6332717"><ele>253.0</ele><time>2026-05-02T10:27:15.52Z</time></trkpt><trkpt lat="40.0859994" lon="8.6333642"><ele>252.0</ele><time>2026-05-02T10:27:16.519Z</time></trkpt><trkpt lat="40.0860584" lon="8.6334614"><ele>252.0</ele><time>2026-05-02T10:27:17.52Z</time></trkpt><trkpt lat="40.0861169" lon="8.6335748"><ele>252.0</ele><time>2026-05-02T10:27:18.52Z</time></trkpt><trkpt lat="40.0861757" lon="8.633689"><ele>252.0</ele><time>2026-05-02T10:27:19.52Z</time></trkpt><trkpt lat="40.086236" lon="8.6337955"><ele>252.0</ele><time>2026-05-02T10:27:20.52Z</time></trkpt><trkpt lat="40.0862943" lon="8.6338828"><ele>252.0</ele><time>2026-05-02T10:27:21.52Z</time></trkpt><trkpt lat="40.0863515" lon="8.6339513"><ele>251.71428571428572</ele><time>2026-05-02T10:27:22.519Z</time></trkpt><trkpt lat="40.0864098" lon="8.6340066"><ele>251.42857142857144</ele><time>2026-05-02T10:27:23.52Z</time></trkpt><trkpt lat="40.0864649" lon="8.6340805"><ele>251.14285714285714</ele><time>2026-05-02T10:27:24.519Z</time></trkpt><trkpt lat="40.0865152" lon="8.6341681"><ele>250.85714285714286</ele><time>2026-05-02T10:27:25.521Z</time></trkpt><trkpt lat="40.0865488" lon="8.6342546"><ele>250.57142857142858</ele><time>2026-05-02T10:27:26.52Z</time></trkpt><trkpt lat="40.0865645" lon="8.6343386"><ele>250.28571428571428</ele><time>2026-05-02T10:27:27.521Z</time></trkpt><trkpt lat="40.0865728" lon="8.634425"><ele>250.0</ele><time>2026-05-02T10:27:28.521Z</time></trkpt><trkpt lat="40.0865689" lon="8.6345145"><ele>249.33333333333331</ele><time>2026-05-02T10:27:29.519Z</time></trkpt><trkpt lat="40.0865519" lon="8.6346121"><ele>248.66666666666666</ele><time>2026-05-02T10:27:30.52Z</time></trkpt><trkpt lat="40.0865399" lon="8.634722"><ele>248.0</ele><time>2026-05-02T10:27:31.52Z</time></trkpt><trkpt lat="40.0865179" lon="8.6348338"><ele>247.33333333333331</ele><time>2026-05-02T10:27:32.52Z</time></trkpt><trkpt lat="40.0864904" lon="8.634945"><ele>246.66666666666666</ele><time>2026-05-02T10:27:33.519Z</time></trkpt><trkpt lat="40.0864723" lon="8.635063"><ele>246.0</ele><time>2026-05-02T10:27:34.521Z</time></trkpt><trkpt lat="40.0864583" lon="8.6351919"><ele>245.20000000000002</ele><time>2026-05-02T10:27:35.521Z</time></trkpt><trkpt lat="40.0864474" lon="8.6353282"><ele>244.40000000000003</ele><time>2026-05-02T10:27:36.521Z</time></trkpt><trkpt lat="40.0864367" lon="8.6354643"><ele>243.6</ele><time>2026-05-02T10:27:37.52Z</time></trkpt><trkpt lat="40.0864229" lon="8.6356021"><ele>242.8</ele><time>2026-05-02T10:27:38.519Z</time></trkpt><trkpt lat="40.0864114" lon="8.6357393"><ele>242.0</ele><time>2026-05-02T10:27:39.519Z</time></trkpt><trkpt lat="40.0864" lon="8.6358687"><ele>242.0</ele><time>2026-05-02T10:27:40.52Z</time></trkpt><trkpt lat="40.0863867" lon="8.635992"><ele>242.0</ele><time>2026-05-02T10:27:41.519Z</time></trkpt><trkpt lat="40.0863696" lon="8.636118"><ele>242.0</ele><time>2026-05-02T10:27:42.52Z</time></trkpt><trkpt lat="40.0863508" lon="8.6362397"><ele>242.0</ele><time>2026-05-02T10:27:43.52Z</time></trkpt><trkpt lat="40.0863394" lon="8.6363456"><ele>242.0</ele><time>2026-05-02T10:27:44.52Z</time></trkpt><trkpt lat="40.0863312" lon="8.6364634"><ele>242.0</ele><time>2026-05-02T10:27:45.52Z</time></trkpt><trkpt lat="40.0863283" lon="8.6365843"><ele>242.0</ele><time>2026-05-02T10:27:46.52Z</time></trkpt><trkpt lat="40.0863316" lon="8.6367073"><ele>242.0</ele><time>2026-05-02T10:27:47.52Z</time></trkpt><trkpt lat="40.0863365" lon="8.6368298"><ele>242.0</ele><time>2026-05-02T10:27:48.519Z</time></trkpt><trkpt lat="40.0863381" lon="8.6369496"><ele>242.0</ele><time>2026-05-02T10:27:49.519Z</time></trkpt><trkpt lat="40.0863311" lon="8.6370671"><ele>242.33333333333334</ele><time>2026-05-02T10:27:50.52Z</time></trkpt><trkpt lat="40.0863093" lon="8.6371606"><ele>242.66666666666669</ele><time>2026-05-02T10:27:51.52Z</time></trkpt><trkpt lat="40.0862785" lon="8.6372675"><ele>243.0</ele><time>2026-05-02T10:27:52.519Z</time></trkpt><trkpt lat="40.0862695" lon="8.6373637"><ele>243.33333333333331</ele><time>2026-05-02T10:27:53.52Z</time></trkpt><trkpt lat="40.0862511" lon="8.6374622"><ele>243.66666666666666</ele><time>2026-05-02T10:27:54.52Z</time></trkpt><trkpt lat="40.0862247" lon="8.6375729"><ele>244.0</ele><time>2026-05-02T10:27:55.519Z</time></trkpt><trkpt lat="40.0861992" lon="8.6376628"><ele>243.99999999999997</ele><time>2026-05-02T10:27:56.52Z</time></trkpt><trkpt lat="40.0861547" lon="8.6377462"><ele>244.0</ele><time>2026-05-02T10:27:57.519Z</time></trkpt><trkpt lat="40.0861065" lon="8.6378298"><ele>244.0</ele><time>2026-05-02T10:27:58.52Z</time></trkpt><trkpt lat="40.0860528" lon="8.6379098"><ele>244.0</ele><time>2026-05-02T10:27:59.519Z</time></trkpt><trkpt lat="40.0859815" lon="8.6379662"><ele>243.99999999999997</ele><time>2026-05-02T10:28:00.519Z</time></trkpt><trkpt lat="40.0859231" lon="8.6380249"><ele>244.0</ele><time>2026-05-02T10:28:01.52Z</time></trkpt><trkpt lat="40.0858753" lon="8.6380867"><ele>244.2</ele><time>2026-05-02T10:28:02.521Z</time></trkpt><trkpt lat="40.0858349" lon="8.6382262"><ele>244.39999999999998</ele><time>2026-05-02T10:28:04.52Z</time></trkpt><trkpt lat="40.085834" lon="8.6383915"><ele>244.6</ele><time>2026-05-02T10:28:06.521Z</time></trkpt><trkpt lat="40.0858401" lon="8.6384784"><ele>244.8</ele><time>2026-05-02T10:28:07.521Z</time></trkpt><trkpt lat="40.0858222" lon="8.6385752"><ele>245.0</ele><time>2026-05-02T10:28:08.521Z</time></trkpt><trkpt lat="40.0858123" lon="8.6386802"><ele>245.00000000000003</ele><time>2026-05-02T10:28:09.521Z</time></trkpt><trkpt lat="40.085817" lon="8.6387868"><ele>245.0</ele><time>2026-05-02T10:28:10.521Z</time></trkpt><trkpt lat="40.0858217" lon="8.638874"><ele>245.0</ele><time>2026-05-02T10:28:11.521Z</time></trkpt><trkpt lat="40.0858282" lon="8.6390299"><ele>245.0</ele><time>2026-05-02T10:28:13.521Z</time></trkpt><trkpt lat="40.0858222" lon="8.6391149"><ele>245.00000000000003</ele><time>2026-05-02T10:28:14.52Z</time></trkpt><trkpt lat="40.085798" lon="8.6392627"><ele>245.0</ele><time>2026-05-02T10:28:16.52Z</time></trkpt><trkpt lat="40.0857379" lon="8.6393748"><ele>244.33333333333334</ele><time>2026-05-02T10:28:18.52Z</time></trkpt><trkpt lat="40.08569" lon="8.6394597"><ele>243.66666666666669</ele><time>2026-05-02T10:28:20.521Z</time></trkpt><trkpt lat="40.0856523" lon="8.639537"><ele>243.0</ele><time>2026-05-02T10:28:22.52Z</time></trkpt><trkpt lat="40.0856136" lon="8.6396259"><ele>242.33333333333331</ele><time>2026-05-02T10:28:25.521Z</time></trkpt><trkpt lat="40.0856022" lon="8.6397551"><ele>241.66666666666666</ele><time>2026-05-02T10:28:28.52Z</time></trkpt><trkpt lat="40.0855539" lon="8.6398589"><ele>241.0</ele><time>2026-05-02T10:28:30.519Z</time></trkpt><trkpt lat="40.0855217" lon="8.6399766"><ele>241.0</ele><time>2026-05-02T10:28:32.52Z</time></trkpt><trkpt lat="40.0854804" lon="8.6400891"><ele>241.0</ele><time>2026-05-02T10:28:34.52Z</time></trkpt><trkpt lat="40.0854458" lon="8.6402318"><ele>241.0</ele><time>2026-05-02T10:28:36.52Z</time></trkpt><trkpt lat="40.085415" lon="8.6403885"><ele>241.0</ele><time>2026-05-02T10:28:38.52Z</time></trkpt><trkpt lat="40.0853764" lon="8.6405498"><ele>240.83333333333331</ele><time>2026-05-02T10:28:40.52Z</time></trkpt><trkpt lat="40.0853467" lon="8.640636"><ele>240.66666666666666</ele><time>2026-05-02T10:28:41.521Z</time></trkpt><trkpt lat="40.0853087" lon="8.6407162"><ele>240.5</ele><time>2026-05-02T10:28:42.519Z</time></trkpt><trkpt lat="40.085275" lon="8.6408015"><ele>240.33333333333331</ele><time>2026-05-02T10:28:43.52Z</time></trkpt><trkpt lat="40.085244" lon="8.6408885"><ele>240.16666666666666</ele><time>2026-05-02T10:28:44.52Z</time></trkpt><trkpt lat="40.0852251" lon="8.6410559"><ele>240.0</ele><time>2026-05-02T10:28:46.521Z</time></trkpt><trkpt lat="40.0852163" lon="8.6411581"><ele>239.83333333333334</ele><time>2026-05-02T10:28:47.52Z</time></trkpt><trkpt lat="40.0852102" lon="8.6412652"><ele>239.66666666666669</ele><time>2026-05-02T10:28:48.52Z</time></trkpt><trkpt lat="40.085203" lon="8.6413659"><ele>239.5</ele><time>2026-05-02T10:28:49.521Z</time></trkpt><trkpt lat="40.0851955" lon="8.6414541"><ele>239.33333333333334</ele><time>2026-05-02T10:28:50.52Z</time></trkpt><trkpt lat="40.0851856" lon="8.6415488"><ele>239.16666666666669</ele><time>2026-05-02T10:28:51.521Z</time></trkpt><trkpt lat="40.0851757" lon="8.6416452"><ele>239.0</ele><time>2026-05-02T10:28:52.519Z</time></trkpt><trkpt lat="40.0851682" lon="8.6417927"><ele>239.0</ele><time>2026-05-02T10:28:54.519Z</time></trkpt><trkpt lat="40.0852115" lon="8.6419229"><ele>238.99999999999997</ele><time>2026-05-02T10:28:56.519Z</time></trkpt><trkpt lat="40.0852778" lon="8.6420219"><ele>238.99999999999997</ele><time>2026-05-02T10:28:58.52Z</time></trkpt><trkpt lat="40.0853688" lon="8.642139"><ele>239.0</ele><time>2026-05-02T10:29:00.52Z</time></trkpt><trkpt lat="40.0854056" lon="8.6422231"><ele>239.0</ele><time>2026-05-02T10:29:01.521Z</time></trkpt><trkpt lat="40.0854395" lon="8.6423072"><ele>239.50000000000003</ele><time>2026-05-02T10:29:02.52Z</time></trkpt><trkpt lat="40.0854778" lon="8.6423875"><ele>240.0</ele><time>2026-05-02T10:29:03.52Z</time></trkpt><trkpt lat="40.085523" lon="8.6424747"><ele>240.5</ele><time>2026-05-02T10:29:04.519Z</time></trkpt><trkpt lat="40.0855725" lon="8.6425598"><ele>241.0</ele><time>2026-05-02T10:29:05.52Z</time></trkpt><trkpt lat="40.0856245" lon="8.6426442"><ele>241.50000000000003</ele><time>2026-05-02T10:29:06.521Z</time></trkpt><trkpt lat="40.0856802" lon="8.6427264"><ele>242.0</ele><time>2026-05-02T10:29:07.52Z</time></trkpt><trkpt lat="40.0857448" lon="8.6427944"><ele>242.39999999999998</ele><time>2026-05-02T10:29:08.52Z</time></trkpt><trkpt lat="40.0858192" lon="8.642854"><ele>242.79999999999998</ele><time>2026-05-02T10:29:09.519Z</time></trkpt><trkpt lat="40.0858929" lon="8.6429119"><ele>243.2</ele><time>2026-05-02T10:29:10.519Z</time></trkpt><trkpt lat="40.0859698" lon="8.6429725"><ele>243.6</ele><time>2026-05-02T10:29:11.52Z</time></trkpt><trkpt lat="40.0860409" lon="8.6430488"><ele>244.0</ele><time>2026-05-02T10:29:12.52Z</time></trkpt><trkpt lat="40.0861177" lon="8.6431336"><ele>244.0</ele><time>2026-05-02T10:29:13.519Z</time></trkpt><trkpt lat="40.0861852" lon="8.6432231"><ele>243.99999999999997</ele><time>2026-05-02T10:29:14.521Z</time></trkpt><trkpt lat="40.086251" lon="8.6433189"><ele>243.99999999999997</ele><time>2026-05-02T10:29:15.52Z</time></trkpt><trkpt lat="40.0863192" lon="8.643414"><ele>244.0</ele><time>2026-05-02T10:29:16.52Z</time></trkpt><trkpt lat="40.0863849" lon="8.6435105"><ele>244.0</ele><time>2026-05-02T10:29:17.52Z</time></trkpt><trkpt lat="40.0864348" lon="8.6436145"><ele>243.99999999999997</ele><time>2026-05-02T10:29:18.52Z</time></trkpt><trkpt lat="40.0864724" lon="8.6436999"><ele>244.0</ele><time>2026-05-02T10:29:19.519Z</time></trkpt><trkpt lat="40.0865113" lon="8.6437752"><ele>244.0</ele><time>2026-05-02T10:29:20.52Z</time></trkpt><trkpt lat="40.0865574" lon="8.6438552"><ele>244.0</ele><time>2026-05-02T10:29:21.521Z</time></trkpt><trkpt lat="40.0866134" lon="8.643938"><ele>243.99999999999997</ele><time>2026-05-02T10:29:22.52Z</time></trkpt><trkpt lat="40.0866733" lon="8.6440235"><ele>244.0</ele><time>2026-05-02T10:29:23.521Z</time></trkpt><trkpt lat="40.0867353" lon="8.6441094"><ele>244.16666666666666</ele><time>2026-05-02T10:29:24.519Z</time></trkpt><trkpt lat="40.0868041" lon="8.6441799"><ele>244.33333333333331</ele><time>2026-05-02T10:29:25.519Z</time></trkpt><trkpt lat="40.0868757" lon="8.6442374"><ele>244.5</ele><time>2026-05-02T10:29:26.52Z</time></trkpt><trkpt lat="40.0869512" lon="8.6442841"><ele>244.66666666666669</ele><time>2026-05-02T10:29:27.52Z</time></trkpt><trkpt lat="40.0870334" lon="8.6443167"><ele>244.83333333333334</ele><time>2026-05-02T10:29:28.521Z</time></trkpt><trkpt lat="40.0871183" lon="8.6443455"><ele>245.0</ele><time>2026-05-02T10:29:29.519Z</time></trkpt><trkpt lat="40.0871961" lon="8.6443858"><ele>245.0</ele><time>2026-05-02T10:29:30.519Z</time></trkpt><trkpt lat="40.0872618" lon="8.6444295"><ele>245.0</ele><time>2026-05-02T10:29:31.519Z</time></trkpt><trkpt lat="40.0873187" lon="8.6444845"><ele>245.0</ele><time>2026-05-02T10:29:32.519Z</time></trkpt><trkpt lat="40.0873673" lon="8.6445475"><ele>245.0</ele><time>2026-05-02T10:29:33.518Z</time></trkpt><trkpt lat="40.0874148" lon="8.6446225"><ele>245.0</ele><time>2026-05-02T10:29:34.519Z</time></trkpt><trkpt lat="40.0874601" lon="8.6446974"><ele>245.0</ele><time>2026-05-02T10:29:35.519Z</time></trkpt><trkpt lat="40.0874904" lon="8.644774"><ele>245.0</ele><time>2026-05-02T10:29:36.519Z</time></trkpt><trkpt lat="40.0875315" lon="8.6449036"><ele>244.83333333333334</ele><time>2026-05-02T10:29:38.518Z</time></trkpt><trkpt lat="40.0875584" lon="8.6449836"><ele>244.66666666666669</ele><time>2026-05-02T10:29:40.519Z</time></trkpt><trkpt lat="40.0875946" lon="8.6450819"><ele>244.5</ele><time>2026-05-02T10:29:42.519Z</time></trkpt><trkpt lat="40.087665" lon="8.645192"><ele>244.33333333333331</ele><time>2026-05-02T10:29:44.518Z</time></trkpt><trkpt lat="40.0877198" lon="8.6452421"><ele>244.16666666666666</ele><time>2026-05-02T10:29:45.52Z</time></trkpt><trkpt lat="40.0877785" lon="8.6452968"><ele>244.0</ele><time>2026-05-02T10:29:46.519Z</time></trkpt><trkpt lat="40.0878424" lon="8.6453563"><ele>243.1428571428571</ele><time>2026-05-02T10:29:47.519Z</time></trkpt><trkpt lat="40.0879041" lon="8.645413"><ele>242.28571428571428</ele><time>2026-05-02T10:29:48.519Z</time></trkpt><trkpt lat="40.0879548" lon="8.6454725"><ele>241.42857142857142</ele><time>2026-05-02T10:29:49.52Z</time></trkpt><trkpt lat="40.0879991" lon="8.6455456"><ele>240.57142857142856</ele><time>2026-05-02T10:29:50.52Z</time></trkpt><trkpt lat="40.0880314" lon="8.6456255"><ele>239.71428571428572</ele><time>2026-05-02T10:29:51.519Z</time></trkpt><trkpt lat="40.0880569" lon="8.6457212"><ele>238.85714285714286</ele><time>2026-05-02T10:29:52.519Z</time></trkpt><trkpt lat="40.0880728" lon="8.6458152"><ele>238.0</ele><time>2026-05-02T10:29:53.518Z</time></trkpt><trkpt lat="40.0880732" lon="8.6459053"><ele>237.99999999999997</ele><time>2026-05-02T10:29:54.52Z</time></trkpt><trkpt lat="40.0880627" lon="8.6460106"><ele>238.0</ele><time>2026-05-02T10:29:55.519Z</time></trkpt><trkpt lat="40.0880492" lon="8.6461059"><ele>238.0</ele><time>2026-05-02T10:29:56.52Z</time></trkpt><trkpt lat="40.0880201" lon="8.6462184"><ele>238.0</ele><time>2026-05-02T10:29:57.518Z</time></trkpt><trkpt lat="40.0880048" lon="8.6463346"><ele>237.99999999999997</ele><time>2026-05-02T10:29:58.519Z</time></trkpt><trkpt lat="40.0879949" lon="8.6464627"><ele>238.0</ele><time>2026-05-02T10:29:59.52Z</time></trkpt><trkpt lat="40.0879864" lon="8.6465931"><ele>239.4</ele><time>2026-05-02T10:30:00.52Z</time></trkpt><trkpt lat="40.087984" lon="8.6467277"><ele>240.8</ele><time>2026-05-02T10:30:01.52Z</time></trkpt><trkpt lat="40.0879759" lon="8.6468662"><ele>242.2</ele><time>2026-05-02T10:30:02.519Z</time></trkpt><trkpt lat="40.0879805" lon="8.6469885"><ele>243.6</ele><time>2026-05-02T10:30:03.518Z</time></trkpt><trkpt lat="40.0880031" lon="8.6471004"><ele>245.0</ele><time>2026-05-02T10:30:04.519Z</time></trkpt><trkpt lat="40.0880384" lon="8.6471949"><ele>246.83333333333334</ele><time>2026-05-02T10:30:05.518Z</time></trkpt><trkpt lat="40.0880713" lon="8.6472863"><ele>248.66666666666669</ele><time>2026-05-02T10:30:06.518Z</time></trkpt><trkpt lat="40.0880907" lon="8.647376"><ele>250.5</ele><time>2026-05-02T10:30:07.518Z</time></trkpt><trkpt lat="40.0880846" lon="8.6474757"><ele>252.33333333333331</ele><time>2026-05-02T10:30:08.518Z</time></trkpt><trkpt lat="40.0880676" lon="8.647589"><ele>254.16666666666666</ele><time>2026-05-02T10:30:09.519Z</time></trkpt><trkpt lat="40.0880394" lon="8.647707"><ele>256.0</ele><time>2026-05-02T10:30:10.52Z</time></trkpt><trkpt lat="40.0880022" lon="8.6478247"><ele>256.2</ele><time>2026-05-02T10:30:11.52Z</time></trkpt><trkpt lat="40.0879659" lon="8.6479472"><ele>256.40000000000003</ele><time>2026-05-02T10:30:12.519Z</time></trkpt><trkpt lat="40.0879425" lon="8.6480776"><ele>256.6</ele><time>2026-05-02T10:30:13.52Z</time></trkpt><trkpt lat="40.0879297" lon="8.6482058"><ele>256.8</ele><time>2026-05-02T10:30:14.519Z</time></trkpt><trkpt lat="40.0879314" lon="8.6483275"><ele>257.0</ele><time>2026-05-02T10:30:15.518Z</time></trkpt><trkpt lat="40.0879496" lon="8.6484546"><ele>257.0</ele><time>2026-05-02T10:30:16.52Z</time></trkpt><trkpt lat="40.0879663" lon="8.6485797"><ele>257.0</ele><time>2026-05-02T10:30:17.52Z</time></trkpt><trkpt lat="40.087984" lon="8.6486867"><ele>257.0</ele><time>2026-05-02T10:30:18.52Z</time></trkpt><trkpt lat="40.0880234" lon="8.6487818"><ele>257.0</ele><time>2026-05-02T10:30:19.519Z</time></trkpt><trkpt lat="40.0880898" lon="8.6488653"><ele>257.0</ele><time>2026-05-02T10:30:20.518Z</time></trkpt><trkpt lat="40.088165" lon="8.6489564"><ele>256.83333333333337</ele><time>2026-05-02T10:30:21.518Z</time></trkpt><trkpt lat="40.088232" lon="8.6490502"><ele>256.6666666666667</ele><time>2026-05-02T10:30:22.519Z</time></trkpt><trkpt lat="40.0882762" lon="8.6491392"><ele>256.5</ele><time>2026-05-02T10:30:23.519Z</time></trkpt><trkpt lat="40.0883027" lon="8.649222"><ele>256.3333333333333</ele><time>2026-05-02T10:30:24.52Z</time></trkpt><trkpt lat="40.0883431" lon="8.649344"><ele>256.16666666666663</ele><time>2026-05-02T10:30:26.519Z</time></trkpt><trkpt lat="40.0883725" lon="8.6494343"><ele>256.0</ele><time>2026-05-02T10:30:29.519Z</time></trkpt><trkpt lat="40.0884169" lon="8.6495562"><ele>255.99999999999997</ele><time>2026-05-02T10:30:32.519Z</time></trkpt><trkpt lat="40.0884581" lon="8.6496187"><ele>256.0</ele><time>2026-05-02T10:30:33.519Z</time></trkpt><trkpt lat="40.0885207" lon="8.6496904"><ele>256.0</ele><time>2026-05-02T10:30:34.519Z</time></trkpt><trkpt lat="40.0885878" lon="8.6497565"><ele>256.0</ele><time>2026-05-02T10:30:35.52Z</time></trkpt><trkpt lat="40.088648" lon="8.6498342"><ele>255.99999999999997</ele><time>2026-05-02T10:30:36.518Z</time></trkpt><trkpt lat="40.0886951" lon="8.6499148"><ele>256.0</ele><time>2026-05-02T10:30:37.52Z</time></trkpt><trkpt lat="40.0887609" lon="8.6500541"><ele>256.0</ele><time>2026-05-02T10:30:39.519Z</time></trkpt><trkpt lat="40.0887858" lon="8.650141"><ele>255.99999999999997</ele><time>2026-05-02T10:30:40.519Z</time></trkpt><trkpt lat="40.0888086" lon="8.6502279"><ele>256.0</ele><time>2026-05-02T10:30:41.518Z</time></trkpt><trkpt lat="40.0888299" lon="8.6503077"><ele>256.0</ele><time>2026-05-02T10:30:42.519Z</time></trkpt><trkpt lat="40.088842" lon="8.6504004"><ele>255.99999999999997</ele><time>2026-05-02T10:30:43.52Z</time></trkpt><trkpt lat="40.0888467" lon="8.6504964"><ele>256.0</ele><time>2026-05-02T10:30:44.519Z</time></trkpt><trkpt lat="40.0888552" lon="8.6505826"><ele>256.0</ele><time>2026-05-02T10:30:45.519Z</time></trkpt><trkpt lat="40.0888683" lon="8.6507306"><ele>254.20000000000002</ele><time>2026-05-02T10:30:47.518Z</time></trkpt><trkpt lat="40.088936" lon="8.6508368"><ele>252.40000000000003</ele><time>2026-05-02T10:30:49.519Z</time></trkpt><trkpt lat="40.0889841" lon="8.6509908"><ele>250.6</ele><time>2026-05-02T10:30:51.518Z</time></trkpt><trkpt lat="40.0890146" lon="8.6510815"><ele>248.8</ele><time>2026-05-02T10:30:52.519Z</time></trkpt><trkpt lat="40.0890452" lon="8.6511708"><ele>247.0</ele><time>2026-05-02T10:30:53.519Z</time></trkpt><trkpt lat="40.0890749" lon="8.6512514"><ele>246.33333333333331</ele><time>2026-05-02T10:30:54.518Z</time></trkpt><trkpt lat="40.0891144" lon="8.6513357"><ele>245.66666666666666</ele><time>2026-05-02T10:30:55.518Z</time></trkpt><trkpt lat="40.0891604" lon="8.6514238"><ele>245.0</ele><time>2026-05-02T10:30:56.519Z</time></trkpt><trkpt lat="40.0892125" lon="8.6515061"><ele>244.33333333333331</ele><time>2026-05-02T10:30:57.518Z</time></trkpt><trkpt lat="40.0892685" lon="8.6515847"><ele>243.66666666666666</ele><time>2026-05-02T10:30:58.52Z</time></trkpt><trkpt lat="40.0893321" lon="8.6516592"><ele>243.0</ele><time>2026-05-02T10:30:59.52Z</time></trkpt><trkpt lat="40.0894018" lon="8.6517241"><ele>243.0</ele><time>2026-05-02T10:31:00.519Z</time></trkpt><trkpt lat="40.0894635" lon="8.6517812"><ele>243.0</ele><time>2026-05-02T10:31:01.519Z</time></trkpt><trkpt lat="40.0895267" lon="8.6518369"><ele>243.0</ele><time>2026-05-02T10:31:02.519Z</time></trkpt><trkpt lat="40.0895905" lon="8.6518908"><ele>243.0</ele><time>2026-05-02T10:31:03.52Z</time></trkpt><trkpt lat="40.0896547" lon="8.6519487"><ele>243.0</ele><time>2026-05-02T10:31:04.519Z</time></trkpt><trkpt lat="40.0897232" lon="8.6520003"><ele>243.0</ele><time>2026-05-02T10:31:05.52Z</time></trkpt><trkpt lat="40.089798" lon="8.652045"><ele>242.0</ele><time>2026-05-02T10:31:06.519Z</time></trkpt><trkpt lat="40.0898756" lon="8.6520937"><ele>241.0</ele><time>2026-05-02T10:31:07.519Z</time></trkpt><trkpt lat="40.0899522" lon="8.6521399"><ele>240.0</ele><time>2026-05-02T10:31:08.519Z</time></trkpt><trkpt lat="40.090026" lon="8.6521797"><ele>239.0</ele><time>2026-05-02T10:31:09.519Z</time></trkpt><trkpt lat="40.0901011" lon="8.652222"><ele>238.0</ele><time>2026-05-02T10:31:10.518Z</time></trkpt><trkpt lat="40.0901779" lon="8.6522643"><ele>237.0</ele><time>2026-05-02T10:31:11.519Z</time></trkpt><trkpt lat="40.0902489" lon="8.6523154"><ele>237.0</ele><time>2026-05-02T10:31:12.519Z</time></trkpt><trkpt lat="40.0903213" lon="8.6523886"><ele>237.0</ele><time>2026-05-02T10:31:13.519Z</time></trkpt><trkpt lat="40.0903952" lon="8.6524704"><ele>237.0</ele><time>2026-05-02T10:31:14.518Z</time></trkpt><trkpt lat="40.0904741" lon="8.6525574"><ele>237.0</ele><time>2026-05-02T10:31:15.518Z</time></trkpt><trkpt lat="40.0905561" lon="8.652651"><ele>237.0</ele><time>2026-05-02T10:31:16.519Z</time></trkpt><trkpt lat="40.0906411" lon="8.6527437"><ele>236.6</ele><time>2026-05-02T10:31:17.519Z</time></trkpt><trkpt lat="40.0907252" lon="8.6528332"><ele>236.2</ele><time>2026-05-02T10:31:18.519Z</time></trkpt><trkpt lat="40.0908143" lon="8.6529106"><ele>235.8</ele><time>2026-05-02T10:31:19.52Z</time></trkpt><trkpt lat="40.0909092" lon="8.6529832"><ele>235.4</ele><time>2026-05-02T10:31:20.519Z</time></trkpt><trkpt lat="40.0910061" lon="8.6530642"><ele>235.0</ele><time>2026-05-02T10:31:21.519Z</time></trkpt><trkpt lat="40.0911018" lon="8.6531521"><ele>235.0</ele><time>2026-05-02T10:31:22.52Z</time></trkpt><trkpt lat="40.0911912" lon="8.653246"><ele>235.0</ele><time>2026-05-02T10:31:23.52Z</time></trkpt><trkpt lat="40.091275" lon="8.6533418"><ele>235.0</ele><time>2026-05-02T10:31:24.52Z</time></trkpt><trkpt lat="40.0913599" lon="8.6534413"><ele>235.0</ele><time>2026-05-02T10:31:25.519Z</time></trkpt><trkpt lat="40.0914433" lon="8.6535354"><ele>235.6</ele><time>2026-05-02T10:31:26.519Z</time></trkpt><trkpt lat="40.0915297" lon="8.6536286"><ele>236.2</ele><time>2026-05-02T10:31:27.52Z</time></trkpt><trkpt lat="40.091616" lon="8.6537172"><ele>236.8</ele><time>2026-05-02T10:31:28.52Z</time></trkpt><trkpt lat="40.0917035" lon="8.6538027"><ele>237.4</ele><time>2026-05-02T10:31:29.519Z</time></trkpt><trkpt lat="40.0917897" lon="8.6538843"><ele>238.0</ele><time>2026-05-02T10:31:30.519Z</time></trkpt><trkpt lat="40.0918759" lon="8.6539644"><ele>238.0</ele><time>2026-05-02T10:31:31.519Z</time></trkpt><trkpt lat="40.0919574" lon="8.6540461"><ele>238.0</ele><time>2026-05-02T10:31:32.52Z</time></trkpt><trkpt lat="40.0920308" lon="8.6541338"><ele>238.0</ele><time>2026-05-02T10:31:33.519Z</time></trkpt><trkpt lat="40.0921048" lon="8.6542307"><ele>238.0</ele><time>2026-05-02T10:31:34.52Z</time></trkpt><trkpt lat="40.092183" lon="8.6543235"><ele>238.0</ele><time>2026-05-02T10:31:35.52Z</time></trkpt><trkpt lat="40.0922592" lon="8.6544128"><ele>238.16666666666666</ele><time>2026-05-02T10:31:36.518Z</time></trkpt><trkpt lat="40.0923218" lon="8.6544913"><ele>238.33333333333331</ele><time>2026-05-02T10:31:37.518Z</time></trkpt><trkpt lat="40.0923791" lon="8.6545635"><ele>238.5</ele><time>2026-05-02T10:31:38.52Z</time></trkpt><trkpt lat="40.0924333" lon="8.6546443"><ele>238.66666666666669</ele><time>2026-05-02T10:31:39.518Z</time></trkpt><trkpt lat="40.0924761" lon="8.6547178"><ele>238.83333333333334</ele><time>2026-05-02T10:31:40.519Z</time></trkpt><trkpt lat="40.0925143" lon="8.6547867"><ele>239.0</ele><time>2026-05-02T10:31:41.519Z</time></trkpt><trkpt lat="40.0925737" lon="8.6549112"><ele>239.00000000000003</ele><time>2026-05-02T10:31:43.52Z</time></trkpt><trkpt lat="40.0926446" lon="8.655045"><ele>239.0</ele><time>2026-05-02T10:31:45.519Z</time></trkpt><trkpt lat="40.0926876" lon="8.655112"><ele>239.0</ele><time>2026-05-02T10:31:46.519Z</time></trkpt><trkpt lat="40.0927336" lon="8.6551766"><ele>239.0</ele><time>2026-05-02T10:31:47.518Z</time></trkpt><trkpt lat="40.0927799" lon="8.6552379"><ele>239.00000000000003</ele><time>2026-05-02T10:31:48.519Z</time></trkpt><trkpt lat="40.0928437" lon="8.6553322"><ele>239.0</ele><time>2026-05-02T10:31:50.519Z</time></trkpt><trkpt lat="40.0929042" lon="8.65542"><ele>238.66666666666669</ele><time>2026-05-02T10:31:52.519Z</time></trkpt><trkpt lat="40.0929716" lon="8.6555148"><ele>238.33333333333334</ele><time>2026-05-02T10:31:54.518Z</time></trkpt><trkpt lat="40.0930449" lon="8.6556239"><ele>238.0</ele><time>2026-05-02T10:31:56.518Z</time></trkpt><trkpt lat="40.0931106" lon="8.6557058"><ele>237.66666666666669</ele><time>2026-05-02T10:31:58.519Z</time></trkpt><trkpt lat="40.0931582" lon="8.6557689"><ele>237.33333333333334</ele><time>2026-05-02T10:32:00.519Z</time></trkpt><trkpt lat="40.0931201" lon="8.65584"><ele>237.0</ele><time>2026-05-02T10:32:02.519Z</time></trkpt><trkpt lat="40.0929876" lon="8.6558437"><ele>237.0</ele><time>2026-05-02T10:32:04.518Z</time></trkpt><trkpt lat="40.0929104" lon="8.6558398"><ele>237.0</ele><time>2026-05-02T10:32:05.52Z</time></trkpt><trkpt lat="40.0928247" lon="8.6558356"><ele>237.0</ele><time>2026-05-02T10:32:06.519Z</time></trkpt><trkpt lat="40.0927353" lon="8.6558259"><ele>237.0</ele><time>2026-05-02T10:32:07.519Z</time></trkpt><trkpt lat="40.0926478" lon="8.6558211"><ele>237.0</ele><time>2026-05-02T10:32:08.519Z</time></trkpt><trkpt lat="40.0925547" lon="8.6558106"><ele>237.0</ele><time>2026-05-02T10:32:09.519Z</time></trkpt><trkpt lat="40.0924604" lon="8.6558029"><ele>235.66666666666666</ele><time>2026-05-02T10:32:10.519Z</time></trkpt><trkpt lat="40.0923649" lon="8.6557965"><ele>234.33333333333331</ele><time>2026-05-02T10:32:11.519Z</time></trkpt><trkpt lat="40.0922813" lon="8.6557963"><ele>233.0</ele><time>2026-05-02T10:32:12.519Z</time></trkpt><trkpt lat="40.0922132" lon="8.6558045"><ele>231.66666666666666</ele><time>2026-05-02T10:32:13.518Z</time></trkpt><trkpt lat="40.0921514" lon="8.6558246"><ele>230.33333333333331</ele><time>2026-05-02T10:32:14.518Z</time></trkpt><trkpt lat="40.0920603" lon="8.6558944"><ele>229.0</ele><time>2026-05-02T10:32:16.519Z</time></trkpt><trkpt lat="40.0920008" lon="8.6559599"><ele>228.99999999999997</ele><time>2026-05-02T10:32:18.52Z</time></trkpt><trkpt lat="40.0919374" lon="8.6559777"><ele>229.0</ele><time>2026-05-02T10:32:20.519Z</time></trkpt><trkpt lat="40.0918668" lon="8.6559939"><ele>229.0</ele><time>2026-05-02T10:40:05.517Z</time></trkpt><trkpt lat="40.0919552" lon="8.6560102"><ele>229.0</ele><time>2026-05-02T10:41:20.517Z</time></trkpt><trkpt lat="40.0920214" lon="8.6559558"><ele>228.99999999999997</ele><time>2026-05-02T10:41:22.518Z</time></trkpt><trkpt lat="40.0920923" lon="8.6559093"><ele>229.0</ele><time>2026-05-02T10:41:24.518Z</time></trkpt><trkpt lat="40.0920633" lon="8.6558066"><ele>229.0</ele><time>2026-05-02T10:41:29.516Z</time></trkpt><trkpt lat="40.0919773" lon="8.6557686"><ele>228.99999999999997</ele><time>2026-05-02T10:41:31.518Z</time></trkpt><trkpt lat="40.0918875" lon="8.6557637"><ele>228.99999999999997</ele><time>2026-05-02T10:41:33.517Z</time></trkpt><trkpt lat="40.0917825" lon="8.6557615"><ele>229.0</ele><time>2026-05-02T10:41:35.516Z</time></trkpt><trkpt lat="40.0916547" lon="8.6557536"><ele>229.0</ele><time>2026-05-02T10:41:37.517Z</time></trkpt><trkpt lat="40.0915903" lon="8.6557506"><ele>228.42857142857142</ele><time>2026-05-02T10:41:38.516Z</time></trkpt><trkpt lat="40.0915218" lon="8.6557518"><ele>227.8571428571429</ele><time>2026-05-02T10:41:39.517Z</time></trkpt><trkpt lat="40.0914506" lon="8.6557507"><ele>227.2857142857143</ele><time>2026-05-02T10:41:40.517Z</time></trkpt><trkpt lat="40.0913772" lon="8.6557484"><ele>226.71428571428572</ele><time>2026-05-02T10:41:41.517Z</time></trkpt><trkpt lat="40.0912984" lon="8.6557491"><ele>226.14285714285717</ele><time>2026-05-02T10:41:42.516Z</time></trkpt><trkpt lat="40.0912183" lon="8.655749"><ele>225.5714285714286</ele><time>2026-05-02T10:41:43.518Z</time></trkpt><trkpt lat="40.0911417" lon="8.6557489"><ele>225.00000000000003</ele><time>2026-05-02T10:41:44.517Z</time></trkpt><trkpt lat="40.0910673" lon="8.6557571"><ele>225.0</ele><time>2026-05-02T10:41:45.517Z</time></trkpt><trkpt lat="40.0909931" lon="8.6557741"><ele>225.0</ele><time>2026-05-02T10:41:46.518Z</time></trkpt><trkpt lat="40.0909228" lon="8.6557786"><ele>225.0</ele><time>2026-05-02T10:41:47.517Z</time></trkpt><trkpt lat="40.0908575" lon="8.6557853"><ele>225.0</ele><time>2026-05-02T10:41:48.518Z</time></trkpt><trkpt lat="40.0907838" lon="8.6558851"><ele>225.0</ele><time>2026-05-02T10:41:50.516Z</time></trkpt><trkpt lat="40.0908167" lon="8.6560141"><ele>225.0</ele><time>2026-05-02T10:41:52.516Z</time></trkpt><trkpt lat="40.0909071" lon="8.6561241"><ele>224.5714285714286</ele><time>2026-05-02T10:41:54.518Z</time></trkpt><trkpt lat="40.0909393" lon="8.6561956"><ele>224.14285714285717</ele><time>2026-05-02T10:41:55.517Z</time></trkpt><trkpt lat="40.0909785" lon="8.6562705"><ele>223.71428571428572</ele><time>2026-05-02T10:41:56.517Z</time></trkpt><trkpt lat="40.0910244" lon="8.6563427"><ele>223.2857142857143</ele><time>2026-05-02T10:41:57.518Z</time></trkpt><trkpt lat="40.0910728" lon="8.6564119"><ele>222.8571428571429</ele><time>2026-05-02T10:41:58.517Z</time></trkpt><trkpt lat="40.0911248" lon="8.656483"><ele>222.42857142857142</ele><time>2026-05-02T10:41:59.517Z</time></trkpt><trkpt lat="40.0911768" lon="8.65656"><ele>222.0</ele><time>2026-05-02T10:42:00.516Z</time></trkpt><trkpt lat="40.0912295" lon="8.656638"><ele>222.0</ele><time>2026-05-02T10:42:01.518Z</time></trkpt><trkpt lat="40.0912823" lon="8.6567177"><ele>222.0</ele><time>2026-05-02T10:42:02.517Z</time></trkpt><trkpt lat="40.0913336" lon="8.6567998"><ele>222.0</ele><time>2026-05-02T10:42:03.517Z</time></trkpt><trkpt lat="40.0913814" lon="8.6568857"><ele>222.0</ele><time>2026-05-02T10:42:04.517Z</time></trkpt><trkpt lat="40.0914242" lon="8.6569703"><ele>222.0</ele><time>2026-05-02T10:42:05.518Z</time></trkpt><trkpt lat="40.0914644" lon="8.657055"><ele>222.0</ele><time>2026-05-02T10:42:06.517Z</time></trkpt><trkpt lat="40.0915014" lon="8.6571438"><ele>222.0</ele><time>2026-05-02T10:42:07.516Z</time></trkpt><trkpt lat="40.0915222" lon="8.6572262"><ele>222.0</ele><time>2026-05-02T10:42:08.516Z</time></trkpt><trkpt lat="40.0915184" lon="8.6573775"><ele>222.0</ele><time>2026-05-02T10:42:10.517Z</time></trkpt><trkpt lat="40.0914765" lon="8.6574979"><ele>222.0</ele><time>2026-05-02T10:42:12.518Z</time></trkpt><trkpt lat="40.0914366" lon="8.657593"><ele>222.0</ele><time>2026-05-02T10:42:14.518Z</time></trkpt><trkpt lat="40.0914318" lon="8.6576751"><ele>222.0</ele><time>2026-05-02T10:42:17.517Z</time></trkpt><trkpt lat="40.0914335" lon="8.6578043"><ele>222.33333333333334</ele><time>2026-05-02T10:42:21.517Z</time></trkpt><trkpt lat="40.0915145" lon="8.6578867"><ele>222.66666666666669</ele><time>2026-05-02T10:42:23.517Z</time></trkpt><trkpt lat="40.091598" lon="8.6579864"><ele>223.0</ele><time>2026-05-02T10:42:25.517Z</time></trkpt><trkpt lat="40.0916541" lon="8.6580355"><ele>223.33333333333334</ele><time>2026-05-02T10:42:26.516Z</time></trkpt><trkpt lat="40.091709" lon="8.6580851"><ele>223.66666666666669</ele><time>2026-05-02T10:42:27.517Z</time></trkpt><trkpt lat="40.091766" lon="8.6581349"><ele>224.0</ele><time>2026-05-02T10:42:28.517Z</time></trkpt><trkpt lat="40.0918214" lon="8.6581843"><ele>224.33333333333334</ele><time>2026-05-02T10:42:29.517Z</time></trkpt><trkpt lat="40.0918763" lon="8.6582358"><ele>224.66666666666669</ele><time>2026-05-02T10:42:30.517Z</time></trkpt><trkpt lat="40.0919408" lon="8.6582911"><ele>225.0</ele><time>2026-05-02T10:42:31.516Z</time></trkpt><trkpt lat="40.0920104" lon="8.658344"><ele>225.33333333333331</ele><time>2026-05-02T10:42:32.517Z</time></trkpt><trkpt lat="40.0920807" lon="8.6584013"><ele>225.66666666666666</ele><time>2026-05-02T10:42:33.517Z</time></trkpt><trkpt lat="40.0921527" lon="8.6584622"><ele>226.0</ele><time>2026-05-02T10:42:34.517Z</time></trkpt><trkpt lat="40.0922273" lon="8.6585224"><ele>225.99999999999997</ele><time>2026-05-02T10:42:35.517Z</time></trkpt><trkpt lat="40.0923014" lon="8.6585876"><ele>226.0</ele><time>2026-05-02T10:42:36.517Z</time></trkpt><trkpt lat="40.0923723" lon="8.6586577"><ele>226.0</ele><time>2026-05-02T10:42:37.518Z</time></trkpt><trkpt lat="40.0924397" lon="8.6587242"><ele>226.0</ele><time>2026-05-02T10:42:38.517Z</time></trkpt><trkpt lat="40.0925111" lon="8.6587916"><ele>225.99999999999997</ele><time>2026-05-02T10:42:39.516Z</time></trkpt><trkpt lat="40.0925895" lon="8.658862"><ele>226.0</ele><time>2026-05-02T10:42:40.516Z</time></trkpt><trkpt lat="40.0926703" lon="8.6589369"><ele>226.4</ele><time>2026-05-02T10:42:41.517Z</time></trkpt><trkpt lat="40.0927549" lon="8.6590147"><ele>226.8</ele><time>2026-05-02T10:42:42.518Z</time></trkpt><trkpt lat="40.0928426" lon="8.6590924"><ele>227.20000000000002</ele><time>2026-05-02T10:42:43.517Z</time></trkpt><trkpt lat="40.0929321" lon="8.6591722"><ele>227.60000000000002</ele><time>2026-05-02T10:42:44.517Z</time></trkpt><trkpt lat="40.0930222" lon="8.6592523"><ele>228.0</ele><time>2026-05-02T10:42:45.517Z</time></trkpt><trkpt lat="40.0931103" lon="8.6593384"><ele>228.0</ele><time>2026-05-02T10:42:46.516Z</time></trkpt><trkpt lat="40.093196" lon="8.659434"><ele>228.0</ele><time>2026-05-02T10:42:47.516Z</time></trkpt><trkpt lat="40.0932776" lon="8.6595315"><ele>228.0</ele><time>2026-05-02T10:42:48.517Z</time></trkpt><trkpt lat="40.0933514" lon="8.6596379"><ele>228.0</ele><time>2026-05-02T10:42:49.517Z</time></trkpt><trkpt lat="40.0934214" lon="8.6597494"><ele>228.0</ele><time>2026-05-02T10:42:50.516Z</time></trkpt><trkpt lat="40.0934919" lon="8.6598618"><ele>228.0</ele><time>2026-05-02T10:42:51.516Z</time></trkpt><trkpt lat="40.0935627" lon="8.6599765"><ele>228.0</ele><time>2026-05-02T10:42:52.517Z</time></trkpt><trkpt lat="40.093636" lon="8.6600901"><ele>228.0</ele><time>2026-05-02T10:42:53.518Z</time></trkpt><trkpt lat="40.0937072" lon="8.6602038"><ele>228.0</ele><time>2026-05-02T10:42:54.517Z</time></trkpt><trkpt lat="40.0937782" lon="8.6603188"><ele>227.75</ele><time>2026-05-02T10:42:55.516Z</time></trkpt><trkpt lat="40.0938498" lon="8.6604336"><ele>227.5</ele><time>2026-05-02T10:42:56.517Z</time></trkpt><trkpt lat="40.0939222" lon="8.6605522"><ele>227.25</ele><time>2026-05-02T10:42:57.517Z</time></trkpt><trkpt lat="40.0939979" lon="8.6606687"><ele>227.0</ele><time>2026-05-02T10:42:58.518Z</time></trkpt><trkpt lat="40.0940727" lon="8.6607921"><ele>227.0</ele><time>2026-05-02T10:42:59.518Z</time></trkpt><trkpt lat="40.0941503" lon="8.6609126"><ele>227.0</ele><time>2026-05-02T10:43:00.517Z</time></trkpt><trkpt lat="40.0942266" lon="8.6610408"><ele>227.0</ele><time>2026-05-02T10:43:01.517Z</time></trkpt><trkpt lat="40.0943063" lon="8.6611635"><ele>227.0</ele><time>2026-05-02T10:43:02.517Z</time></trkpt><trkpt lat="40.0943911" lon="8.6612873"><ele>226.5</ele><time>2026-05-02T10:43:03.516Z</time></trkpt><trkpt lat="40.094477" lon="8.6614076"><ele>226.0</ele><time>2026-05-02T10:43:04.516Z</time></trkpt><trkpt lat="40.094567" lon="8.6615226"><ele>225.5</ele><time>2026-05-02T10:43:05.516Z</time></trkpt><trkpt lat="40.0946568" lon="8.6616325"><ele>225.0</ele><time>2026-05-02T10:43:06.516Z</time></trkpt><trkpt lat="40.0947465" lon="8.6617414"><ele>225.0</ele><time>2026-05-02T10:43:07.517Z</time></trkpt><trkpt lat="40.0948348" lon="8.661853"><ele>225.0</ele><time>2026-05-02T10:43:08.517Z</time></trkpt><trkpt lat="40.0949231" lon="8.6619641"><ele>225.0</ele><time>2026-05-02T10:43:09.517Z</time></trkpt><trkpt lat="40.095013" lon="8.6620684"><ele>225.0</ele><time>2026-05-02T10:43:10.517Z</time></trkpt><trkpt lat="40.0951018" lon="8.6621722"><ele>225.6</ele><time>2026-05-02T10:43:11.517Z</time></trkpt><trkpt lat="40.0951868" lon="8.6622741"><ele>226.2</ele><time>2026-05-02T10:43:12.518Z</time></trkpt><trkpt lat="40.0952644" lon="8.6623785"><ele>226.8</ele><time>2026-05-02T10:43:13.516Z</time></trkpt><trkpt lat="40.0953285" lon="8.6624929"><ele>227.4</ele><time>2026-05-02T10:43:14.517Z</time></trkpt><trkpt lat="40.0953636" lon="8.6626157"><ele>228.0</ele><time>2026-05-02T10:43:15.516Z</time></trkpt><trkpt lat="40.0953724" lon="8.6627425"><ele>228.2</ele><time>2026-05-02T10:43:16.518Z</time></trkpt><trkpt lat="40.0953497" lon="8.6628646"><ele>228.4</ele><time>2026-05-02T10:43:17.517Z</time></trkpt><trkpt lat="40.0953008" lon="8.6629837"><ele>228.59999999999997</ele><time>2026-05-02T10:43:18.517Z</time></trkpt><trkpt lat="40.0952337" lon="8.6630931"><ele>228.79999999999998</ele><time>2026-05-02T10:43:19.517Z</time></trkpt><trkpt lat="40.0951619" lon="8.6632099"><ele>229.0</ele><time>2026-05-02T10:43:20.516Z</time></trkpt><trkpt lat="40.0950916" lon="8.6633322"><ele>229.0</ele><time>2026-05-02T10:43:21.517Z</time></trkpt><trkpt lat="40.095022" lon="8.6634603"><ele>229.0</ele><time>2026-05-02T10:43:22.517Z</time></trkpt><trkpt lat="40.0949504" lon="8.6635895"><ele>229.0</ele><time>2026-05-02T10:43:23.517Z</time></trkpt><trkpt lat="40.0948779" lon="8.6637247"><ele>229.0</ele><time>2026-05-02T10:43:24.517Z</time></trkpt><trkpt lat="40.0948025" lon="8.6638611"><ele>228.25</ele><time>2026-05-02T10:43:25.516Z</time></trkpt><trkpt lat="40.0947298" lon="8.6639974"><ele>227.5</ele><time>2026-05-02T10:43:26.516Z</time></trkpt><trkpt lat="40.0946621" lon="8.6641338"><ele>226.75</ele><time>2026-05-02T10:43:27.518Z</time></trkpt><trkpt lat="40.0946054" lon="8.664273"><ele>226.0</ele><time>2026-05-02T10:43:28.518Z</time></trkpt><trkpt lat="40.0945704" lon="8.6644195"><ele>225.60000000000002</ele><time>2026-05-02T10:43:29.516Z</time></trkpt><trkpt lat="40.0945554" lon="8.6645544"><ele>225.20000000000002</ele><time>2026-05-02T10:43:30.516Z</time></trkpt><trkpt lat="40.094548" lon="8.6646595"><ele>224.79999999999998</ele><time>2026-05-02T10:43:31.517Z</time></trkpt><trkpt lat="40.0945572" lon="8.664764"><ele>224.39999999999998</ele><time>2026-05-02T10:43:33.517Z</time></trkpt><trkpt lat="40.0945868" lon="8.6646253"><ele>224.0</ele><time>2026-05-02T10:43:37.516Z</time></trkpt><trkpt lat="40.0945963" lon="8.664491"><ele>224.00000000000003</ele><time>2026-05-02T10:43:39.517Z</time></trkpt><trkpt lat="40.0946091" lon="8.6643907"><ele>224.0</ele><time>2026-05-02T10:43:41.516Z</time></trkpt><trkpt lat="40.0946351" lon="8.6643065"><ele>224.0</ele><time>2026-05-02T10:43:44.516Z</time></trkpt><trkpt lat="40.0945666" lon="8.6644147"><ele>224.0</ele><time>2026-05-02T10:44:53.518Z</time></trkpt><trkpt lat="40.0945521" lon="8.664529"><ele>224.00000000000003</ele><time>2026-05-02T10:44:54.517Z</time></trkpt><trkpt lat="40.0945431" lon="8.6646562"><ele>224.0</ele><time>2026-05-02T10:44:55.515Z</time></trkpt><trkpt lat="40.0945379" lon="8.6647982"><ele>224.0</ele><time>2026-05-02T10:44:56.516Z</time></trkpt><trkpt lat="40.0945391" lon="8.6649506"><ele>224.0</ele><time>2026-05-02T10:44:57.516Z</time></trkpt><trkpt lat="40.0945408" lon="8.6651171"><ele>224.0</ele><time>2026-05-02T10:44:58.516Z</time></trkpt><trkpt lat="40.0945363" lon="8.6652966"><ele>224.0</ele><time>2026-05-02T10:44:59.516Z</time></trkpt><trkpt lat="40.0945322" lon="8.6654779"><ele>222.66666666666669</ele><time>2026-05-02T10:45:00.516Z</time></trkpt><trkpt lat="40.0945287" lon="8.6656725"><ele>221.33333333333331</ele><time>2026-05-02T10:45:01.517Z</time></trkpt><trkpt lat="40.0945206" lon="8.6658656"><ele>220.0</ele><time>2026-05-02T10:45:02.518Z</time></trkpt><trkpt lat="40.0945162" lon="8.666075"><ele>218.33333333333331</ele><time>2026-05-02T10:45:03.516Z</time></trkpt><trkpt lat="40.0945051" lon="8.6662791"><ele>216.66666666666669</ele><time>2026-05-02T10:45:04.516Z</time></trkpt><trkpt lat="40.0944813" lon="8.666488"><ele>215.0</ele><time>2026-05-02T10:45:05.516Z</time></trkpt><trkpt lat="40.0944492" lon="8.6666952"><ele>215.0</ele><time>2026-05-02T10:45:06.516Z</time></trkpt><trkpt lat="40.0944055" lon="8.6668933"><ele>215.0</ele><time>2026-05-02T10:45:07.517Z</time></trkpt><trkpt lat="40.0943438" lon="8.6670817"><ele>215.0</ele><time>2026-05-02T10:45:08.516Z</time></trkpt><trkpt lat="40.0942651" lon="8.6672654"><ele>215.4</ele><time>2026-05-02T10:45:09.516Z</time></trkpt><trkpt lat="40.094195" lon="8.6674058"><ele>215.8</ele><time>2026-05-02T10:45:10.516Z</time></trkpt><trkpt lat="40.0941326" lon="8.6675125"><ele>216.2</ele><time>2026-05-02T10:45:11.516Z</time></trkpt><trkpt lat="40.0940874" lon="8.6675947"><ele>216.6</ele><time>2026-05-02T10:45:12.515Z</time></trkpt><trkpt lat="40.0940483" lon="8.6676678"><ele>217.0</ele><time>2026-05-02T10:45:13.516Z</time></trkpt><trkpt lat="40.0940031" lon="8.6677511"><ele>217.49999999999997</ele><time>2026-05-02T10:45:14.516Z</time></trkpt><trkpt lat="40.0939507" lon="8.6678516"><ele>218.0</ele><time>2026-05-02T10:45:15.516Z</time></trkpt><trkpt lat="40.0938889" lon="8.6679623"><ele>218.5</ele><time>2026-05-02T10:45:16.516Z</time></trkpt><trkpt lat="40.0938334" lon="8.6680619"><ele>219.0</ele><time>2026-05-02T10:45:17.516Z</time></trkpt><trkpt lat="40.0938048" lon="8.6681406"><ele>219.49999999999997</ele><time>2026-05-02T10:45:18.515Z</time></trkpt><trkpt lat="40.0938376" lon="8.6682268"><ele>220.0</ele><time>2026-05-02T10:45:20.516Z</time></trkpt><trkpt lat="40.0939573" lon="8.6682594"><ele>219.99999999999997</ele><time>2026-05-02T10:45:22.515Z</time></trkpt><trkpt lat="40.0940662" lon="8.6683184"><ele>220.0</ele><time>2026-05-02T10:45:24.517Z</time></trkpt><trkpt lat="40.0941288" lon="8.6683615"><ele>220.0</ele><time>2026-05-02T10:45:25.515Z</time></trkpt><trkpt lat="40.0941978" lon="8.6684084"><ele>220.0</ele><time>2026-05-02T10:45:26.515Z</time></trkpt><trkpt lat="40.0942706" lon="8.6684513"><ele>219.99999999999997</ele><time>2026-05-02T10:45:27.516Z</time></trkpt><trkpt lat="40.094354" lon="8.6684975"><ele>220.0</ele><time>2026-05-02T10:45:28.517Z</time></trkpt><trkpt lat="40.0944454" lon="8.6685482"><ele>221.2</ele><time>2026-05-02T10:45:29.517Z</time></trkpt><trkpt lat="40.0945431" lon="8.6686012"><ele>222.4</ele><time>2026-05-02T10:45:30.515Z</time></trkpt><trkpt lat="40.0946441" lon="8.6686583"><ele>223.60000000000002</ele><time>2026-05-02T10:45:31.515Z</time></trkpt><trkpt lat="40.0947509" lon="8.6687178"><ele>224.8</ele><time>2026-05-02T10:45:32.516Z</time></trkpt><trkpt lat="40.0948581" lon="8.6687777"><ele>226.0</ele><time>2026-05-02T10:45:33.515Z</time></trkpt><trkpt lat="40.094962" lon="8.6688393"><ele>228.25</ele><time>2026-05-02T10:45:34.516Z</time></trkpt><trkpt lat="40.0950727" lon="8.6688768"><ele>230.5</ele><time>2026-05-02T10:45:35.517Z</time></trkpt><trkpt lat="40.0951954" lon="8.6688937"><ele>232.75</ele><time>2026-05-02T10:45:36.517Z</time></trkpt><trkpt lat="40.095325" lon="8.6689009"><ele>235.0</ele><time>2026-05-02T10:45:37.516Z</time></trkpt><trkpt lat="40.0954609" lon="8.6689089"><ele>235.0</ele><time>2026-05-02T10:45:38.516Z</time></trkpt><trkpt lat="40.095603" lon="8.6689194"><ele>235.0</ele><time>2026-05-02T10:45:39.515Z</time></trkpt><trkpt lat="40.0957469" lon="8.6689305"><ele>235.0</ele><time>2026-05-02T10:45:40.516Z</time></trkpt><trkpt lat="40.0958911" lon="8.6689411"><ele>235.0</ele><time>2026-05-02T10:45:41.516Z</time></trkpt><trkpt lat="40.0960398" lon="8.6689507"><ele>236.66666666666666</ele><time>2026-05-02T10:45:42.516Z</time></trkpt><trkpt lat="40.0961929" lon="8.6689575"><ele>238.33333333333331</ele><time>2026-05-02T10:45:43.516Z</time></trkpt><trkpt lat="40.0963495" lon="8.6689645"><ele>240.0</ele><time>2026-05-02T10:45:44.515Z</time></trkpt><trkpt lat="40.0965088" lon="8.6689773"><ele>241.33333333333331</ele><time>2026-05-02T10:45:45.515Z</time></trkpt><trkpt lat="40.0966694" lon="8.6689869"><ele>242.66666666666666</ele><time>2026-05-02T10:45:46.516Z</time></trkpt><trkpt lat="40.0968326" lon="8.6689981"><ele>244.0</ele><time>2026-05-02T10:45:47.517Z</time></trkpt><trkpt lat="40.0969965" lon="8.6690037"><ele>244.0</ele><time>2026-05-02T10:45:48.515Z</time></trkpt><trkpt lat="40.0971641" lon="8.6690039"><ele>244.0</ele><time>2026-05-02T10:45:49.516Z</time></trkpt><trkpt lat="40.0973343" lon="8.6689939"><ele>244.0</ele><time>2026-05-02T10:45:50.517Z</time></trkpt><trkpt lat="40.0975051" lon="8.6689775"><ele>244.66666666666666</ele><time>2026-05-02T10:45:51.516Z</time></trkpt><trkpt lat="40.0976741" lon="8.6689527"><ele>245.33333333333331</ele><time>2026-05-02T10:45:52.516Z</time></trkpt><trkpt lat="40.0978454" lon="8.6689251"><ele>246.0</ele><time>2026-05-02T10:45:53.515Z</time></trkpt><trkpt lat="40.0980054" lon="8.668902"><ele>246.0</ele><time>2026-05-02T10:45:54.515Z</time></trkpt><trkpt lat="40.0981461" lon="8.6688775"><ele>246.0</ele><time>2026-05-02T10:45:55.516Z</time></trkpt><trkpt lat="40.0982731" lon="8.668858"><ele>246.0</ele><time>2026-05-02T10:45:56.516Z</time></trkpt><trkpt lat="40.0983796" lon="8.6688453"><ele>246.0</ele><time>2026-05-02T10:45:57.517Z</time></trkpt><trkpt lat="40.0984638" lon="8.668828"><ele>246.83333333333334</ele><time>2026-05-02T10:45:58.516Z</time></trkpt><trkpt lat="40.0985366" lon="8.6687982"><ele>247.66666666666669</ele><time>2026-05-02T10:45:59.515Z</time></trkpt><trkpt lat="40.0985909" lon="8.6687372"><ele>248.5</ele><time>2026-05-02T10:46:00.517Z</time></trkpt><trkpt lat="40.0986517" lon="8.6686811"><ele>249.33333333333334</ele><time>2026-05-02T10:46:01.516Z</time></trkpt><trkpt lat="40.0987125" lon="8.6686323"><ele>250.16666666666669</ele><time>2026-05-02T10:46:02.515Z</time></trkpt><trkpt lat="40.0987821" lon="8.6685973"><ele>251.0</ele><time>2026-05-02T10:46:03.517Z</time></trkpt><trkpt lat="40.0988618" lon="8.6685702"><ele>251.0</ele><time>2026-05-02T10:46:04.516Z</time></trkpt><trkpt lat="40.0989517" lon="8.668556"><ele>251.00000000000003</ele><time>2026-05-02T10:46:05.515Z</time></trkpt><trkpt lat="40.0990481" lon="8.66855"><ele>251.00000000000003</ele><time>2026-05-02T10:46:06.517Z</time></trkpt><trkpt lat="40.0991469" lon="8.668552"><ele>251.0</ele><time>2026-05-02T10:46:07.516Z</time></trkpt><trkpt lat="40.0992484" lon="8.6685414"><ele>251.0</ele><time>2026-05-02T10:46:08.516Z</time></trkpt><trkpt lat="40.0993443" lon="8.66852"><ele>251.60000000000002</ele><time>2026-05-02T10:46:09.517Z</time></trkpt><trkpt lat="40.0994386" lon="8.6684922"><ele>252.20000000000002</ele><time>2026-05-02T10:46:10.516Z</time></trkpt><trkpt lat="40.099535" lon="8.6684522"><ele>252.79999999999998</ele><time>2026-05-02T10:46:11.516Z</time></trkpt><trkpt lat="40.0996368" lon="8.6684146"><ele>253.39999999999998</ele><time>2026-05-02T10:46:12.517Z</time></trkpt><trkpt lat="40.0997311" lon="8.6683708"><ele>254.0</ele><time>2026-05-02T10:46:13.517Z</time></trkpt><trkpt lat="40.0998196" lon="8.6683163"><ele>254.0</ele><time>2026-05-02T10:46:14.517Z</time></trkpt><trkpt lat="40.0999009" lon="8.6682524"><ele>253.99999999999997</ele><time>2026-05-02T10:46:15.517Z</time></trkpt><trkpt lat="40.0999828" lon="8.6681835"><ele>253.99999999999997</ele><time>2026-05-02T10:46:16.516Z</time></trkpt><trkpt lat="40.1000675" lon="8.6681277"><ele>254.0</ele><time>2026-05-02T10:46:17.516Z</time></trkpt><trkpt lat="40.1001584" lon="8.6680791"><ele>254.0</ele><time>2026-05-02T10:46:18.516Z</time></trkpt><trkpt lat="40.1002606" lon="8.6680436"><ele>255.0</ele><time>2026-05-02T10:46:19.516Z</time></trkpt><trkpt lat="40.100361" lon="8.6680042"><ele>256.0</ele><time>2026-05-02T10:46:20.515Z</time></trkpt><trkpt lat="40.1004648" lon="8.6679488"><ele>257.0</ele><time>2026-05-02T10:46:21.516Z</time></trkpt><trkpt lat="40.1005831" lon="8.667876"><ele>258.0</ele><time>2026-05-02T10:46:22.517Z</time></trkpt><trkpt lat="40.1006901" lon="8.6678018"><ele>258.0</ele><time>2026-05-02T10:46:23.515Z</time></trkpt><trkpt lat="40.1007985" lon="8.6677383"><ele>258.0</ele><time>2026-05-02T10:46:24.515Z</time></trkpt><trkpt lat="40.1009061" lon="8.6676737"><ele>258.0</ele><time>2026-05-02T10:46:25.516Z</time></trkpt><trkpt lat="40.100996" lon="8.6676178"><ele>258.0</ele><time>2026-05-02T10:46:26.516Z</time></trkpt><trkpt lat="40.1010642" lon="8.667577"><ele>258.0</ele><time>2026-05-02T10:46:27.516Z</time></trkpt><trkpt lat="40.101132" lon="8.6675333"><ele>258.0</ele><time>2026-05-02T10:46:28.515Z</time></trkpt><trkpt lat="40.1012076" lon="8.6674858"><ele>258.0</ele><time>2026-05-02T10:46:29.516Z</time></trkpt><trkpt lat="40.10128" lon="8.6674571"><ele>258.0</ele><time>2026-05-02T10:46:30.516Z</time></trkpt><trkpt lat="40.1013636" lon="8.6674425"><ele>258.0</ele><time>2026-05-02T10:46:31.516Z</time></trkpt><trkpt lat="40.1014586" lon="8.6674305"><ele>258.0</ele><time>2026-05-02T10:46:32.516Z</time></trkpt><trkpt lat="40.1015561" lon="8.6674201"><ele>258.0</ele><time>2026-05-02T10:46:33.517Z</time></trkpt><trkpt lat="40.1016544" lon="8.667398"><ele>259.2</ele><time>2026-05-02T10:46:34.515Z</time></trkpt><trkpt lat="40.1017547" lon="8.6673745"><ele>260.4</ele><time>2026-05-02T10:46:35.516Z</time></trkpt><trkpt lat="40.1018571" lon="8.6673503"><ele>261.59999999999997</ele><time>2026-05-02T10:46:36.516Z</time></trkpt><trkpt lat="40.1019639" lon="8.6673248"><ele>262.8</ele><time>2026-05-02T10:46:37.517Z</time></trkpt><trkpt lat="40.1020639" lon="8.6673035"><ele>264.0</ele><time>2026-05-02T10:46:38.516Z</time></trkpt><trkpt lat="40.1021515" lon="8.6672821"><ele>264.0</ele><time>2026-05-02T10:46:39.516Z</time></trkpt><trkpt lat="40.1022315" lon="8.667264"><ele>264.0</ele><time>2026-05-02T10:46:40.515Z</time></trkpt><trkpt lat="40.1023218" lon="8.6672432"><ele>264.0</ele><time>2026-05-02T10:46:41.515Z</time></trkpt><trkpt lat="40.1024286" lon="8.6672181"><ele>264.0</ele><time>2026-05-02T10:46:42.515Z</time></trkpt><trkpt lat="40.1025399" lon="8.6671953"><ele>264.0</ele><time>2026-05-02T10:46:43.516Z</time></trkpt><trkpt lat="40.1026509" lon="8.6671745"><ele>264.8</ele><time>2026-05-02T10:46:44.516Z</time></trkpt><trkpt lat="40.1027602" lon="8.6671543"><ele>265.59999999999997</ele><time>2026-05-02T10:46:45.516Z</time></trkpt><trkpt lat="40.1028702" lon="8.6671377"><ele>266.4</ele><time>2026-05-02T10:46:46.517Z</time></trkpt><trkpt lat="40.1029771" lon="8.6671216"><ele>267.2</ele><time>2026-05-02T10:46:47.516Z</time></trkpt><trkpt lat="40.1030898" lon="8.6671109"><ele>268.0</ele><time>2026-05-02T10:46:48.517Z</time></trkpt><trkpt lat="40.1031994" lon="8.6671005"><ele>268.6</ele><time>2026-05-02T10:46:49.516Z</time></trkpt><trkpt lat="40.103303" lon="8.6670854"><ele>269.20000000000005</ele><time>2026-05-02T10:46:50.515Z</time></trkpt><trkpt lat="40.1033995" lon="8.667078"><ele>269.8</ele><time>2026-05-02T10:46:51.515Z</time></trkpt><trkpt lat="40.1034899" lon="8.6670599"><ele>270.40000000000003</ele><time>2026-05-02T10:46:52.516Z</time></trkpt><trkpt lat="40.1035799" lon="8.6670213"><ele>271.0</ele><time>2026-05-02T10:46:53.516Z</time></trkpt><trkpt lat="40.1036853" lon="8.6669813"><ele>271.0</ele><time>2026-05-02T10:46:54.516Z</time></trkpt><trkpt lat="40.1037921" lon="8.6669547"><ele>271.0</ele><time>2026-05-02T10:46:55.516Z</time></trkpt><trkpt lat="40.1038991" lon="8.6669379"><ele>271.0</ele><time>2026-05-02T10:46:56.516Z</time></trkpt><trkpt lat="40.1040072" lon="8.6669168"><ele>271.0</ele><time>2026-05-02T10:46:57.515Z</time></trkpt><trkpt lat="40.1041274" lon="8.6669012"><ele>271.0</ele><time>2026-05-02T10:46:58.516Z</time></trkpt><trkpt lat="40.1042432" lon="8.6668952"><ele>271.25</ele><time>2026-05-02T10:46:59.515Z</time></trkpt><trkpt lat="40.104355" lon="8.6668878"><ele>271.5</ele><time>2026-05-02T10:47:00.517Z</time></trkpt><trkpt lat="40.1044652" lon="8.6668839"><ele>271.75</ele><time>2026-05-02T10:47:01.518Z</time></trkpt><trkpt lat="40.1045751" lon="8.6668872"><ele>272.0</ele><time>2026-05-02T10:47:02.517Z</time></trkpt><trkpt lat="40.1046948" lon="8.6668948"><ele>272.0</ele><time>2026-05-02T10:47:03.516Z</time></trkpt><trkpt lat="40.1048164" lon="8.6669019"><ele>272.0</ele><time>2026-05-02T10:47:04.517Z</time></trkpt><trkpt lat="40.1049356" lon="8.6669182"><ele>272.0</ele><time>2026-05-02T10:47:05.517Z</time></trkpt><trkpt lat="40.1050506" lon="8.6669319"><ele>272.0</ele><time>2026-05-02T10:47:06.515Z</time></trkpt><trkpt lat="40.1051422" lon="8.6669502"><ele>273.5</ele><time>2026-05-02T10:47:07.515Z</time></trkpt><trkpt lat="40.1052312" lon="8.6669733"><ele>275.0</ele><time>2026-05-02T10:47:08.515Z</time></trkpt><trkpt lat="40.1053168" lon="8.6670026"><ele>276.5</ele><time>2026-05-02T10:47:09.516Z</time></trkpt><trkpt lat="40.1053875" lon="8.6670405"><ele>278.0</ele><time>2026-05-02T10:47:10.516Z</time></trkpt><trkpt lat="40.1054612" lon="8.6670733"><ele>279.5</ele><time>2026-05-02T10:47:11.515Z</time></trkpt><trkpt lat="40.1055414" lon="8.6670877"><ele>281.0</ele><time>2026-05-02T10:47:12.516Z</time></trkpt><trkpt lat="40.1056203" lon="8.6671021"><ele>281.0</ele><time>2026-05-02T10:47:13.515Z</time></trkpt><trkpt lat="40.1056883" lon="8.6671366"><ele>281.0</ele><time>2026-05-02T10:47:14.516Z</time></trkpt><trkpt lat="40.1057609" lon="8.6671817"><ele>281.0</ele><time>2026-05-02T10:47:15.515Z</time></trkpt><trkpt lat="40.1058395" lon="8.6672407"><ele>281.0</ele><time>2026-05-02T10:47:16.515Z</time></trkpt><trkpt lat="40.1059247" lon="8.667292"><ele>281.0</ele><time>2026-05-02T10:47:17.515Z</time></trkpt><trkpt lat="40.1060073" lon="8.6673399"><ele>281.0</ele><time>2026-05-02T10:47:18.517Z</time></trkpt><trkpt lat="40.106087" lon="8.6673671"><ele>282.0</ele><time>2026-05-02T10:47:19.516Z</time></trkpt><trkpt lat="40.1061721" lon="8.6673842"><ele>283.0</ele><time>2026-05-02T10:47:20.516Z</time></trkpt><trkpt lat="40.1062592" lon="8.6673966"><ele>284.0</ele><time>2026-05-02T10:47:21.516Z</time></trkpt><trkpt lat="40.1063295" lon="8.6673819"><ele>285.0</ele><time>2026-05-02T10:47:22.516Z</time></trkpt><trkpt lat="40.1064014" lon="8.6673628"><ele>286.0</ele><time>2026-05-02T10:47:23.516Z</time></trkpt><trkpt lat="40.1064819" lon="8.6673693"><ele>287.0</ele><time>2026-05-02T10:47:24.517Z</time></trkpt><trkpt lat="40.1065699" lon="8.6673869"><ele>287.8</ele><time>2026-05-02T10:47:25.516Z</time></trkpt><trkpt lat="40.106663" lon="8.6674209"><ele>288.6</ele><time>2026-05-02T10:47:26.516Z</time></trkpt><trkpt lat="40.1067663" lon="8.6674651"><ele>289.40000000000003</ele><time>2026-05-02T10:47:27.515Z</time></trkpt><trkpt lat="40.1068556" lon="8.6674916"><ele>290.2</ele><time>2026-05-02T10:47:28.515Z</time></trkpt><trkpt lat="40.1069298" lon="8.6675375"><ele>291.0</ele><time>2026-05-02T10:47:29.515Z</time></trkpt><trkpt lat="40.1069873" lon="8.6676052"><ele>291.0</ele><time>2026-05-02T10:47:30.515Z</time></trkpt><trkpt lat="40.1070466" lon="8.6676901"><ele>291.0</ele><time>2026-05-02T10:47:31.516Z</time></trkpt><trkpt lat="40.1071101" lon="8.6677892"><ele>291.0</ele><time>2026-05-02T10:47:32.515Z</time></trkpt><trkpt lat="40.1071791" lon="8.6678625"><ele>291.0</ele><time>2026-05-02T10:47:33.516Z</time></trkpt><trkpt lat="40.1072652" lon="8.667929"><ele>291.0</ele><time>2026-05-02T10:47:34.517Z</time></trkpt><trkpt lat="40.1073586" lon="8.6679975"><ele>292.1666666666667</ele><time>2026-05-02T10:47:35.515Z</time></trkpt><trkpt lat="40.1074346" lon="8.6680615"><ele>293.3333333333333</ele><time>2026-05-02T10:47:36.515Z</time></trkpt><trkpt lat="40.1075139" lon="8.6680984"><ele>294.5</ele><time>2026-05-02T10:47:37.516Z</time></trkpt><trkpt lat="40.1076044" lon="8.6681369"><ele>295.66666666666663</ele><time>2026-05-02T10:47:38.516Z</time></trkpt><trkpt lat="40.1076761" lon="8.6681589"><ele>296.8333333333333</ele><time>2026-05-02T10:47:39.517Z</time></trkpt><trkpt lat="40.107755" lon="8.6681519"><ele>298.0</ele><time>2026-05-02T10:47:40.517Z</time></trkpt><trkpt lat="40.1078466" lon="8.668129"><ele>298.0</ele><time>2026-05-02T10:47:41.515Z</time></trkpt><trkpt lat="40.1079514" lon="8.6681139"><ele>298.0</ele><time>2026-05-02T10:47:42.515Z</time></trkpt><trkpt lat="40.1080588" lon="8.6680979"><ele>298.0</ele><time>2026-05-02T10:47:43.515Z</time></trkpt><trkpt lat="40.1081608" lon="8.6680757"><ele>298.0</ele><time>2026-05-02T10:47:44.517Z</time></trkpt><trkpt lat="40.1082549" lon="8.6680508"><ele>298.0</ele><time>2026-05-02T10:47:45.517Z</time></trkpt><trkpt lat="40.1083387" lon="8.6680262"><ele>298.8</ele><time>2026-05-02T10:47:46.516Z</time></trkpt><trkpt lat="40.1084254" lon="8.6679787"><ele>299.6</ele><time>2026-05-02T10:47:47.517Z</time></trkpt><trkpt lat="40.108514" lon="8.6679328"><ele>300.4</ele><time>2026-05-02T10:47:48.515Z</time></trkpt><trkpt lat="40.1086113" lon="8.6678699"><ele>301.2</ele><time>2026-05-02T10:47:49.516Z</time></trkpt><trkpt lat="40.1086955" lon="8.6678193"><ele>302.0</ele><time>2026-05-02T10:47:50.515Z</time></trkpt><trkpt lat="40.1087843" lon="8.667754"><ele>302.0</ele><time>2026-05-02T10:47:51.516Z</time></trkpt><trkpt lat="40.1088718" lon="8.6676819"><ele>302.0</ele><time>2026-05-02T10:47:52.515Z</time></trkpt><trkpt lat="40.1089509" lon="8.667597"><ele>302.0</ele><time>2026-05-02T10:47:53.515Z</time></trkpt><trkpt lat="40.1090172" lon="8.6675163"><ele>302.0</ele><time>2026-05-02T10:47:54.515Z</time></trkpt><trkpt lat="40.109074" lon="8.667449"><ele>302.0</ele><time>2026-05-02T10:47:55.516Z</time></trkpt><trkpt lat="40.1091265" lon="8.6673891"><ele>302.0</ele><time>2026-05-02T10:47:56.517Z</time></trkpt><trkpt lat="40.1092307" lon="8.6672837"><ele>303.33333333333337</ele><time>2026-05-02T10:47:58.516Z</time></trkpt><trkpt lat="40.1092976" lon="8.6672286"><ele>304.6666666666667</ele><time>2026-05-02T10:47:59.515Z</time></trkpt><trkpt lat="40.1093713" lon="8.6671833"><ele>306.0</ele><time>2026-05-02T10:48:00.516Z</time></trkpt><trkpt lat="40.109446" lon="8.6671271"><ele>307.3333333333333</ele><time>2026-05-02T10:48:01.517Z</time></trkpt><trkpt lat="40.1095154" lon="8.6670714"><ele>308.66666666666663</ele><time>2026-05-02T10:48:02.517Z</time></trkpt><trkpt lat="40.1095715" lon="8.6670313"><ele>310.0</ele><time>2026-05-02T10:48:03.516Z</time></trkpt><trkpt lat="40.1096886" lon="8.6669925"><ele>309.66666666666663</ele><time>2026-05-02T10:48:05.515Z</time></trkpt><trkpt lat="40.1098118" lon="8.6669203"><ele>309.3333333333333</ele><time>2026-05-02T10:48:07.516Z</time></trkpt><trkpt lat="40.109887" lon="8.6668957"><ele>309.0</ele><time>2026-05-02T10:48:08.515Z</time></trkpt><trkpt lat="40.1099577" lon="8.6668562"><ele>308.6666666666667</ele><time>2026-05-02T10:48:09.516Z</time></trkpt><trkpt lat="40.1100367" lon="8.6668294"><ele>308.33333333333337</ele><time>2026-05-02T10:48:10.515Z</time></trkpt><trkpt lat="40.110112" lon="8.6668086"><ele>308.0</ele><time>2026-05-02T10:48:11.517Z</time></trkpt><trkpt lat="40.1101985" lon="8.6667994"><ele>308.6666666666667</ele><time>2026-05-02T10:48:12.516Z</time></trkpt><trkpt lat="40.1102935" lon="8.6667953"><ele>309.33333333333337</ele><time>2026-05-02T10:48:13.515Z</time></trkpt><trkpt lat="40.1103757" lon="8.6668042"><ele>310.0</ele><time>2026-05-02T10:48:14.515Z</time></trkpt><trkpt lat="40.1104611" lon="8.6668167"><ele>310.6666666666667</ele><time>2026-05-02T10:48:15.515Z</time></trkpt><trkpt lat="40.1105486" lon="8.6668274"><ele>311.3333333333333</ele><time>2026-05-02T10:48:16.515Z</time></trkpt><trkpt lat="40.1106266" lon="8.6668363"><ele>312.0</ele><time>2026-05-02T10:48:17.516Z</time></trkpt><trkpt lat="40.110703" lon="8.6668454"><ele>312.8333333333333</ele><time>2026-05-02T10:48:18.515Z</time></trkpt><trkpt lat="40.1107805" lon="8.6668511"><ele>313.6666666666667</ele><time>2026-05-02T10:48:19.515Z</time></trkpt><trkpt lat="40.1108584" lon="8.6668542"><ele>314.5</ele><time>2026-05-02T10:48:20.514Z</time></trkpt><trkpt lat="40.1109441" lon="8.666855"><ele>315.33333333333337</ele><time>2026-05-02T10:48:21.515Z</time></trkpt><trkpt lat="40.1110289" lon="8.6668594"><ele>316.1666666666667</ele><time>2026-05-02T10:48:22.515Z</time></trkpt><trkpt lat="40.1111109" lon="8.6668632"><ele>317.0</ele><time>2026-05-02T10:48:23.514Z</time></trkpt><trkpt lat="40.1111968" lon="8.6668762"><ele>317.0</ele><time>2026-05-02T10:48:24.514Z</time></trkpt><trkpt lat="40.1112855" lon="8.6668916"><ele>317.0</ele><time>2026-05-02T10:48:25.516Z</time></trkpt><trkpt lat="40.1113696" lon="8.6669131"><ele>317.0</ele><time>2026-05-02T10:48:26.514Z</time></trkpt><trkpt lat="40.1114529" lon="8.666935"><ele>317.0</ele><time>2026-05-02T10:48:27.516Z</time></trkpt><trkpt lat="40.1115275" lon="8.6669425"><ele>317.0</ele><time>2026-05-02T10:48:28.515Z</time></trkpt><trkpt lat="40.111594" lon="8.6669401"><ele>317.0</ele><time>2026-05-02T10:48:29.515Z</time></trkpt><trkpt lat="40.1116807" lon="8.6669834"><ele>316.5</ele><time>2026-05-02T10:48:31.515Z</time></trkpt><trkpt lat="40.1117875" lon="8.6670749"><ele>316.0</ele><time>2026-05-02T10:48:33.515Z</time></trkpt><trkpt lat="40.1118544" lon="8.667126"><ele>315.5</ele><time>2026-05-02T10:48:34.514Z</time></trkpt><trkpt lat="40.1119134" lon="8.6671721"><ele>315.0</ele><time>2026-05-02T10:48:35.515Z</time></trkpt><trkpt lat="40.1119857" lon="8.6672174"><ele>314.5</ele><time>2026-05-02T10:48:36.515Z</time></trkpt><trkpt lat="40.1120696" lon="8.6672618"><ele>314.0</ele><time>2026-05-02T10:48:37.515Z</time></trkpt><trkpt lat="40.112154" lon="8.6673187"><ele>314.0</ele><time>2026-05-02T10:48:38.515Z</time></trkpt><trkpt lat="40.1122312" lon="8.6673745"><ele>314.0</ele><time>2026-05-02T10:48:39.514Z</time></trkpt><trkpt lat="40.1123033" lon="8.6674216"><ele>314.0</ele><time>2026-05-02T10:48:40.515Z</time></trkpt><trkpt lat="40.1123754" lon="8.6674512"><ele>314.0</ele><time>2026-05-02T10:48:41.515Z</time></trkpt><trkpt lat="40.1124519" lon="8.6674817"><ele>314.0</ele><time>2026-05-02T10:48:42.515Z</time></trkpt><trkpt lat="40.1125252" lon="8.6675052"><ele>314.0</ele><time>2026-05-02T10:48:43.514Z</time></trkpt><trkpt lat="40.112603" lon="8.6675104"><ele>315.1666666666667</ele><time>2026-05-02T10:48:44.515Z</time></trkpt><trkpt lat="40.1126868" lon="8.6675179"><ele>316.33333333333337</ele><time>2026-05-02T10:48:45.515Z</time></trkpt><trkpt lat="40.1127668" lon="8.6675068"><ele>317.5</ele><time>2026-05-02T10:48:46.515Z</time></trkpt><trkpt lat="40.1128439" lon="8.6674682"><ele>318.6666666666667</ele><time>2026-05-02T10:48:47.514Z</time></trkpt><trkpt lat="40.1129311" lon="8.6674155"><ele>319.8333333333333</ele><time>2026-05-02T10:48:48.515Z</time></trkpt><trkpt lat="40.1130109" lon="8.6673593"><ele>321.0</ele><time>2026-05-02T10:48:49.515Z</time></trkpt><trkpt lat="40.1130996" lon="8.6672996"><ele>321.0</ele><time>2026-05-02T10:48:50.515Z</time></trkpt><trkpt lat="40.113191" lon="8.6672345"><ele>321.0</ele><time>2026-05-02T10:48:51.515Z</time></trkpt><trkpt lat="40.1132723" lon="8.6671558"><ele>321.0</ele><time>2026-05-02T10:48:52.516Z</time></trkpt><trkpt lat="40.1133625" lon="8.6670872"><ele>321.0</ele><time>2026-05-02T10:48:53.517Z</time></trkpt><trkpt lat="40.1134531" lon="8.6670236"><ele>321.0</ele><time>2026-05-02T10:48:54.515Z</time></trkpt><trkpt lat="40.1135385" lon="8.6669634"><ele>322.3333333333333</ele><time>2026-05-02T10:48:55.516Z</time></trkpt><trkpt lat="40.113625" lon="8.6669114"><ele>323.6666666666667</ele><time>2026-05-02T10:48:56.516Z</time></trkpt><trkpt lat="40.1137013" lon="8.6668738"><ele>325.0</ele><time>2026-05-02T10:48:57.516Z</time></trkpt><trkpt lat="40.1137765" lon="8.6668484"><ele>326.33333333333337</ele><time>2026-05-02T10:48:58.515Z</time></trkpt><trkpt lat="40.1138596" lon="8.6668311"><ele>327.6666666666667</ele><time>2026-05-02T10:48:59.516Z</time></trkpt><trkpt lat="40.1139338" lon="8.6668256"><ele>329.0</ele><time>2026-05-02T10:49:00.516Z</time></trkpt><trkpt lat="40.11402" lon="8.6668152"><ele>329.0</ele><time>2026-05-02T10:49:01.516Z</time></trkpt><trkpt lat="40.1141094" lon="8.6667936"><ele>329.0</ele><time>2026-05-02T10:49:02.515Z</time></trkpt><trkpt lat="40.1141908" lon="8.666771"><ele>329.0</ele><time>2026-05-02T10:49:03.514Z</time></trkpt><trkpt lat="40.1142627" lon="8.6667539"><ele>329.0</ele><time>2026-05-02T10:49:04.515Z</time></trkpt><trkpt lat="40.1143665" lon="8.6667236"><ele>329.0</ele><time>2026-05-02T10:49:06.515Z</time></trkpt><trkpt lat="40.114429" lon="8.6667025"><ele>329.0</ele><time>2026-05-02T10:59:32.511Z</time></trkpt><trkpt lat="40.1145103" lon="8.6666777"><ele>329.0</ele><time>2026-05-02T10:59:34.513Z</time></trkpt><trkpt lat="40.1146057" lon="8.6666828"><ele>329.0</ele><time>2026-05-02T10:59:36.512Z</time></trkpt><trkpt lat="40.1146957" lon="8.6666639"><ele>329.0</ele><time>2026-05-02T10:59:38.513Z</time></trkpt><trkpt lat="40.114807" lon="8.6666432"><ele>329.0</ele><time>2026-05-02T10:59:40.513Z</time></trkpt><trkpt lat="40.1149078" lon="8.6666195"><ele>329.0</ele><time>2026-05-02T10:59:42.513Z</time></trkpt><trkpt lat="40.1149987" lon="8.6665524"><ele>329.83333333333337</ele><time>2026-05-02T10:59:44.511Z</time></trkpt><trkpt lat="40.11509" lon="8.6665269"><ele>330.6666666666667</ele><time>2026-05-02T10:59:46.512Z</time></trkpt><trkpt lat="40.1152058" lon="8.6665306"><ele>331.5</ele><time>2026-05-02T10:59:48.512Z</time></trkpt><trkpt lat="40.115275" lon="8.6665418"><ele>332.3333333333333</ele><time>2026-05-02T10:59:49.512Z</time></trkpt><trkpt lat="40.1153439" lon="8.6665543"><ele>333.16666666666663</ele><time>2026-05-02T10:59:50.512Z</time></trkpt><trkpt lat="40.1154126" lon="8.6665607"><ele>334.0</ele><time>2026-05-02T10:59:51.512Z</time></trkpt><trkpt lat="40.1154776" lon="8.6665439"><ele>334.0</ele><time>2026-05-02T10:59:52.512Z</time></trkpt><trkpt lat="40.1155413" lon="8.6665405"><ele>334.0</ele><time>2026-05-02T10:59:53.511Z</time></trkpt><trkpt lat="40.1156436" lon="8.6665465"><ele>334.0</ele><time>2026-05-02T10:59:55.511Z</time></trkpt><trkpt lat="40.1157439" lon="8.6665368"><ele>334.0</ele><time>2026-05-02T10:59:57.51Z</time></trkpt><trkpt lat="40.1158524" lon="8.6665255"><ele>334.0</ele><time>2026-05-02T10:59:59.511Z</time></trkpt><trkpt lat="40.1159188" lon="8.666529"><ele>334.0</ele><time>2026-05-02T11:00:00.512Z</time></trkpt><trkpt lat="40.1160164" lon="8.666555"><ele>335.5</ele><time>2026-05-02T11:00:02.511Z</time></trkpt><trkpt lat="40.1161273" lon="8.6666106"><ele>337.0</ele><time>2026-05-02T11:00:04.511Z</time></trkpt><trkpt lat="40.1161862" lon="8.6666419"><ele>338.5</ele><time>2026-05-02T11:00:05.51Z</time></trkpt><trkpt lat="40.116254" lon="8.6666764"><ele>340.0</ele><time>2026-05-02T11:00:06.512Z</time></trkpt><trkpt lat="40.1163361" lon="8.6667057"><ele>341.5</ele><time>2026-05-02T11:00:07.513Z</time></trkpt><trkpt lat="40.1164168" lon="8.666726"><ele>343.0</ele><time>2026-05-02T11:00:08.512Z</time></trkpt><trkpt lat="40.1164886" lon="8.6667331"><ele>343.0</ele><time>2026-05-02T11:00:09.511Z</time></trkpt><trkpt lat="40.11656" lon="8.6667381"><ele>343.0</ele><time>2026-05-02T11:00:10.511Z</time></trkpt><trkpt lat="40.1166329" lon="8.666744"><ele>343.0</ele><time>2026-05-02T11:00:11.511Z</time></trkpt><trkpt lat="40.1167098" lon="8.6667525"><ele>343.0</ele><time>2026-05-02T11:00:12.513Z</time></trkpt><trkpt lat="40.1167832" lon="8.6667758"><ele>343.0</ele><time>2026-05-02T11:00:13.513Z</time></trkpt><trkpt lat="40.1168495" lon="8.6668092"><ele>343.0</ele><time>2026-05-02T11:00:14.511Z</time></trkpt><trkpt lat="40.1169093" lon="8.6668442"><ele>343.0</ele><time>2026-05-02T11:00:15.51Z</time></trkpt><trkpt lat="40.1169719" lon="8.6668786"><ele>344.16666666666663</ele><time>2026-05-02T11:00:16.512Z</time></trkpt><trkpt lat="40.1170821" lon="8.6669018"><ele>345.3333333333333</ele><time>2026-05-02T11:00:18.51Z</time></trkpt><trkpt lat="40.1172077" lon="8.6669186"><ele>346.5</ele><time>2026-05-02T11:00:20.512Z</time></trkpt><trkpt lat="40.1172707" lon="8.6669269"><ele>347.6666666666667</ele><time>2026-05-02T11:00:21.51Z</time></trkpt><trkpt lat="40.117334" lon="8.6669272"><ele>348.83333333333337</ele><time>2026-05-02T11:00:22.511Z</time></trkpt><trkpt lat="40.1174002" lon="8.6669193"><ele>350.0</ele><time>2026-05-02T11:00:23.511Z</time></trkpt><trkpt lat="40.1174752" lon="8.6669116"><ele>351.1666666666667</ele><time>2026-05-02T11:00:24.512Z</time></trkpt><trkpt lat="40.1175566" lon="8.6669027"><ele>352.33333333333337</ele><time>2026-05-02T11:00:25.511Z</time></trkpt><trkpt lat="40.1176386" lon="8.6668856"><ele>353.5</ele><time>2026-05-02T11:00:26.512Z</time></trkpt><trkpt lat="40.1177222" lon="8.6668597"><ele>354.6666666666667</ele><time>2026-05-02T11:00:27.513Z</time></trkpt><trkpt lat="40.1178084" lon="8.6668267"><ele>355.8333333333333</ele><time>2026-05-02T11:00:28.512Z</time></trkpt><trkpt lat="40.1178881" lon="8.6667951"><ele>357.0</ele><time>2026-05-02T11:00:29.512Z</time></trkpt><trkpt lat="40.1179698" lon="8.6667628"><ele>357.0</ele><time>2026-05-02T11:00:30.512Z</time></trkpt><trkpt lat="40.1180518" lon="8.6667242"><ele>357.0</ele><time>2026-05-02T11:00:31.511Z</time></trkpt><trkpt lat="40.1181302" lon="8.666678"><ele>357.0</ele><time>2026-05-02T11:00:32.513Z</time></trkpt><trkpt lat="40.1182126" lon="8.6666471"><ele>357.0</ele><time>2026-05-02T11:00:33.51Z</time></trkpt><trkpt lat="40.1182873" lon="8.6666178"><ele>357.0</ele><time>2026-05-02T11:00:34.512Z</time></trkpt><trkpt lat="40.1183736" lon="8.6665925"><ele>357.0</ele><time>2026-05-02T11:00:35.512Z</time></trkpt><trkpt lat="40.118465" lon="8.6665692"><ele>357.3333333333333</ele><time>2026-05-02T11:00:36.512Z</time></trkpt><trkpt lat="40.1185422" lon="8.6665547"><ele>357.6666666666667</ele><time>2026-05-02T11:00:37.511Z</time></trkpt><trkpt lat="40.118609" lon="8.6665454"><ele>358.0</ele><time>2026-05-02T11:00:38.512Z</time></trkpt><trkpt lat="40.1187082" lon="8.6665156"><ele>358.33333333333337</ele><time>2026-05-02T11:00:40.51Z</time></trkpt><trkpt lat="40.1187781" lon="8.666489"><ele>358.6666666666667</ele><time>2026-05-02T11:00:42.512Z</time></trkpt><trkpt lat="40.1188861" lon="8.6664559"><ele>359.0</ele><time>2026-05-02T11:00:44.51Z</time></trkpt><trkpt lat="40.1189861" lon="8.6664498"><ele>359.1666666666667</ele><time>2026-05-02T11:00:46.51Z</time></trkpt><trkpt lat="40.1191007" lon="8.6664729"><ele>359.33333333333337</ele><time>2026-05-02T11:00:48.512Z</time></trkpt><trkpt lat="40.1191636" lon="8.6664872"><ele>359.5</ele><time>2026-05-02T11:00:49.512Z</time></trkpt><trkpt lat="40.1192304" lon="8.6665019"><ele>359.6666666666667</ele><time>2026-05-02T11:00:50.512Z</time></trkpt><trkpt lat="40.1193036" lon="8.6665129"><ele>359.8333333333333</ele><time>2026-05-02T11:00:51.51Z</time></trkpt><trkpt lat="40.1193752" lon="8.6665197"><ele>360.0</ele><time>2026-05-02T11:00:52.511Z</time></trkpt><trkpt lat="40.1194484" lon="8.6665237"><ele>360.0</ele><time>2026-05-02T11:00:53.511Z</time></trkpt><trkpt lat="40.1195196" lon="8.6665106"><ele>360.0</ele><time>2026-05-02T11:00:54.511Z</time></trkpt><trkpt lat="40.1195925" lon="8.666495"><ele>360.0</ele><time>2026-05-02T11:00:55.511Z</time></trkpt><trkpt lat="40.119667" lon="8.6664647"><ele>360.0</ele><time>2026-05-02T11:00:56.511Z</time></trkpt><trkpt lat="40.1197501" lon="8.6664222"><ele>360.0</ele><time>2026-05-02T11:00:57.512Z</time></trkpt><trkpt lat="40.1198368" lon="8.6663777"><ele>360.0</ele><time>2026-05-02T11:00:58.512Z</time></trkpt><trkpt lat="40.1199227" lon="8.6663339"><ele>360.6</ele><time>2026-05-02T11:00:59.51Z</time></trkpt><trkpt lat="40.1199982" lon="8.6662975"><ele>361.2</ele><time>2026-05-02T11:01:00.512Z</time></trkpt><trkpt lat="40.120075" lon="8.6662599"><ele>361.79999999999995</ele><time>2026-05-02T11:01:01.512Z</time></trkpt><trkpt lat="40.1201619" lon="8.6662268"><ele>362.4</ele><time>2026-05-02T11:01:02.511Z</time></trkpt><trkpt lat="40.1202495" lon="8.6661719"><ele>363.0</ele><time>2026-05-02T11:01:03.511Z</time></trkpt><trkpt lat="40.1203394" lon="8.6661038"><ele>364.4</ele><time>2026-05-02T11:01:04.511Z</time></trkpt><trkpt lat="40.1204326" lon="8.6660278"><ele>365.79999999999995</ele><time>2026-05-02T11:01:05.511Z</time></trkpt><trkpt lat="40.1205177" lon="8.6659511"><ele>367.2</ele><time>2026-05-02T11:01:06.511Z</time></trkpt><trkpt lat="40.1206089" lon="8.6658669"><ele>368.6</ele><time>2026-05-02T11:01:07.511Z</time></trkpt><trkpt lat="40.1206948" lon="8.665789"><ele>370.0</ele><time>2026-05-02T11:01:08.511Z</time></trkpt><trkpt lat="40.120772" lon="8.6657209"><ele>371.0</ele><time>2026-05-02T11:01:09.511Z</time></trkpt><trkpt lat="40.1208508" lon="8.6656608"><ele>372.0</ele><time>2026-05-02T11:01:10.511Z</time></trkpt><trkpt lat="40.1209284" lon="8.6656163"><ele>373.0</ele><time>2026-05-02T11:01:11.511Z</time></trkpt><trkpt lat="40.1210022" lon="8.6655964"><ele>374.0</ele><time>2026-05-02T11:01:12.512Z</time></trkpt><trkpt lat="40.1210662" lon="8.6655996"><ele>375.0</ele><time>2026-05-02T11:01:13.51Z</time></trkpt><trkpt lat="40.1211364" lon="8.6656237"><ele>376.0</ele><time>2026-05-02T11:01:14.512Z</time></trkpt><trkpt lat="40.121207" lon="8.665662"><ele>376.0</ele><time>2026-05-02T11:01:15.51Z</time></trkpt><trkpt lat="40.1212778" lon="8.6657149"><ele>376.0</ele><time>2026-05-02T11:01:16.511Z</time></trkpt><trkpt lat="40.1213547" lon="8.6657694"><ele>376.0</ele><time>2026-05-02T11:01:17.512Z</time></trkpt><trkpt lat="40.1214355" lon="8.6658154"><ele>376.0</ele><time>2026-05-02T11:01:18.511Z</time></trkpt><trkpt lat="40.1215209" lon="8.6658569"><ele>376.0</ele><time>2026-05-02T11:01:19.51Z</time></trkpt><trkpt lat="40.1216109" lon="8.6658946"><ele>376.0</ele><time>2026-05-02T11:01:20.512Z</time></trkpt><trkpt lat="40.1217046" lon="8.6659351"><ele>377.20000000000005</ele><time>2026-05-02T11:01:21.512Z</time></trkpt><trkpt lat="40.1217978" lon="8.66598"><ele>378.40000000000003</ele><time>2026-05-02T11:01:22.511Z</time></trkpt><trkpt lat="40.1218878" lon="8.6660314"><ele>379.6</ele><time>2026-05-02T11:01:23.511Z</time></trkpt><trkpt lat="40.1219692" lon="8.6660888"><ele>380.8</ele><time>2026-05-02T11:01:24.51Z</time></trkpt><trkpt lat="40.1220496" lon="8.6661572"><ele>382.0</ele><time>2026-05-02T11:01:25.511Z</time></trkpt><trkpt lat="40.1221283" lon="8.6662339"><ele>382.0</ele><time>2026-05-02T11:01:26.51Z</time></trkpt><trkpt lat="40.1222061" lon="8.6663116"><ele>382.0</ele><time>2026-05-02T11:01:27.511Z</time></trkpt><trkpt lat="40.122287" lon="8.6663892"><ele>382.0</ele><time>2026-05-02T11:01:28.511Z</time></trkpt><trkpt lat="40.1223703" lon="8.6664699"><ele>382.0</ele><time>2026-05-02T11:01:29.511Z</time></trkpt><trkpt lat="40.122455" lon="8.666551"><ele>382.0</ele><time>2026-05-02T11:01:30.511Z</time></trkpt><trkpt lat="40.1225362" lon="8.6666383"><ele>384.20000000000005</ele><time>2026-05-02T11:01:31.512Z</time></trkpt><trkpt lat="40.1226168" lon="8.6667304"><ele>386.4</ele><time>2026-05-02T11:01:32.511Z</time></trkpt><trkpt lat="40.1226977" lon="8.6668224"><ele>388.6</ele><time>2026-05-02T11:01:33.51Z</time></trkpt><trkpt lat="40.1227774" lon="8.6669171"><ele>390.79999999999995</ele><time>2026-05-02T11:01:34.511Z</time></trkpt><trkpt lat="40.1228556" lon="8.6670051"><ele>393.0</ele><time>2026-05-02T11:01:35.511Z</time></trkpt><trkpt lat="40.1229372" lon="8.6670884"><ele>393.0</ele><time>2026-05-02T11:01:36.512Z</time></trkpt><trkpt lat="40.123016" lon="8.6671716"><ele>393.0</ele><time>2026-05-02T11:01:37.512Z</time></trkpt><trkpt lat="40.1230981" lon="8.6672602"><ele>393.0</ele><time>2026-05-02T11:01:38.51Z</time></trkpt><trkpt lat="40.1231765" lon="8.66735"><ele>393.0</ele><time>2026-05-02T11:01:39.512Z</time></trkpt><trkpt lat="40.1232564" lon="8.6674374"><ele>393.0</ele><time>2026-05-02T11:01:40.512Z</time></trkpt><trkpt lat="40.1233403" lon="8.6675182"><ele>395.2</ele><time>2026-05-02T11:01:41.51Z</time></trkpt><trkpt lat="40.1234256" lon="8.6675854"><ele>397.4</ele><time>2026-05-02T11:01:42.512Z</time></trkpt><trkpt lat="40.1235169" lon="8.6676546"><ele>399.59999999999997</ele><time>2026-05-02T11:01:43.51Z</time></trkpt><trkpt lat="40.1236024" lon="8.6677106"><ele>401.79999999999995</ele><time>2026-05-02T11:01:44.512Z</time></trkpt><trkpt lat="40.1236908" lon="8.6677641"><ele>404.0</ele><time>2026-05-02T11:01:45.511Z</time></trkpt><trkpt lat="40.1237802" lon="8.6678104"><ele>404.0</ele><time>2026-05-02T11:01:46.511Z</time></trkpt><trkpt lat="40.1238759" lon="8.6678485"><ele>404.0</ele><time>2026-05-02T11:01:47.511Z</time></trkpt><trkpt lat="40.1239767" lon="8.667867"><ele>404.0</ele><time>2026-05-02T11:01:48.511Z</time></trkpt><trkpt lat="40.1240793" lon="8.6678846"><ele>404.0</ele><time>2026-05-02T11:01:49.511Z</time></trkpt><trkpt lat="40.1241753" lon="8.6679015"><ele>404.0</ele><time>2026-05-02T11:01:50.51Z</time></trkpt><trkpt lat="40.1242698" lon="8.6679157"><ele>405.6</ele><time>2026-05-02T11:01:51.511Z</time></trkpt><trkpt lat="40.1243612" lon="8.6679275"><ele>407.2</ele><time>2026-05-02T11:01:52.512Z</time></trkpt><trkpt lat="40.1244558" lon="8.6679466"><ele>408.8</ele><time>2026-05-02T11:01:53.511Z</time></trkpt><trkpt lat="40.1245486" lon="8.6679596"><ele>410.40000000000003</ele><time>2026-05-02T11:01:54.511Z</time></trkpt><trkpt lat="40.1246487" lon="8.6679779"><ele>412.0</ele><time>2026-05-02T11:01:55.511Z</time></trkpt><trkpt lat="40.124749" lon="8.6679896"><ele>412.00000000000006</ele><time>2026-05-02T11:01:56.511Z</time></trkpt><trkpt lat="40.1248448" lon="8.6680089"><ele>412.0</ele><time>2026-05-02T11:01:57.512Z</time></trkpt><trkpt lat="40.1249267" lon="8.6680215"><ele>412.0</ele><time>2026-05-02T11:01:58.511Z</time></trkpt><trkpt lat="40.124991" lon="8.6680336"><ele>412.0</ele><time>2026-05-02T11:01:59.511Z</time></trkpt><trkpt lat="40.1250654" lon="8.6680512"><ele>412.00000000000006</ele><time>2026-05-02T11:02:00.511Z</time></trkpt><trkpt lat="40.125153" lon="8.6680622"><ele>412.0</ele><time>2026-05-02T11:02:01.512Z</time></trkpt><trkpt lat="40.1252513" lon="8.6680917"><ele>413.0</ele><time>2026-05-02T11:02:02.511Z</time></trkpt><trkpt lat="40.1253507" lon="8.6681102"><ele>414.0</ele><time>2026-05-02T11:02:03.511Z</time></trkpt><trkpt lat="40.1254557" lon="8.6681237"><ele>415.0</ele><time>2026-05-02T11:02:04.512Z</time></trkpt><trkpt lat="40.1255607" lon="8.6681409"><ele>416.0</ele><time>2026-05-02T11:02:05.51Z</time></trkpt><trkpt lat="40.1256682" lon="8.6681572"><ele>417.0</ele><time>2026-05-02T11:02:06.511Z</time></trkpt><trkpt lat="40.1257693" lon="8.6681702"><ele>418.20000000000005</ele><time>2026-05-02T11:02:07.511Z</time></trkpt><trkpt lat="40.1258682" lon="8.6681899"><ele>419.4</ele><time>2026-05-02T11:02:08.511Z</time></trkpt><trkpt lat="40.1259595" lon="8.6682124"><ele>420.6</ele><time>2026-05-02T11:02:09.511Z</time></trkpt><trkpt lat="40.1260509" lon="8.6682434"><ele>421.79999999999995</ele><time>2026-05-02T11:02:10.51Z</time></trkpt><trkpt lat="40.1261404" lon="8.6682678"><ele>423.0</ele><time>2026-05-02T11:02:11.511Z</time></trkpt><trkpt lat="40.1262197" lon="8.6682956"><ele>423.0</ele><time>2026-05-02T11:02:12.51Z</time></trkpt><trkpt lat="40.1262975" lon="8.668329"><ele>423.0</ele><time>2026-05-02T11:02:13.511Z</time></trkpt><trkpt lat="40.1263779" lon="8.6683455"><ele>423.0</ele><time>2026-05-02T11:02:14.512Z</time></trkpt><trkpt lat="40.1264674" lon="8.6683515"><ele>423.0</ele><time>2026-05-02T11:02:15.51Z</time></trkpt><trkpt lat="40.1265658" lon="8.6683501"><ele>423.0</ele><time>2026-05-02T11:02:16.511Z</time></trkpt><trkpt lat="40.1266752" lon="8.6683465"><ele>424.0</ele><time>2026-05-02T11:02:17.512Z</time></trkpt><trkpt lat="40.126785" lon="8.6683344"><ele>425.0</ele><time>2026-05-02T11:02:18.511Z</time></trkpt><trkpt lat="40.1268972" lon="8.6683239"><ele>425.99999999999994</ele><time>2026-05-02T11:02:19.51Z</time></trkpt><trkpt lat="40.1270116" lon="8.6683263"><ele>427.0</ele><time>2026-05-02T11:02:20.509Z</time></trkpt><trkpt lat="40.12712" lon="8.6683258"><ele>428.0</ele><time>2026-05-02T11:02:21.512Z</time></trkpt><trkpt lat="40.1272156" lon="8.6683424"><ele>427.99999999999994</ele><time>2026-05-02T11:02:22.511Z</time></trkpt><trkpt lat="40.1272953" lon="8.6683616"><ele>428.0</ele><time>2026-05-02T11:02:23.511Z</time></trkpt><trkpt lat="40.1273601" lon="8.668372"><ele>428.0</ele><time>2026-05-02T11:02:24.512Z</time></trkpt><trkpt lat="40.1274546" lon="8.6682857"><ele>428.0</ele><time>2026-05-02T11:02:26.51Z</time></trkpt><trkpt lat="40.1274733" lon="8.6682049"><ele>427.99999999999994</ele><time>2026-05-02T11:02:27.51Z</time></trkpt><trkpt lat="40.1275217" lon="8.6680713"><ele>428.0</ele><time>2026-05-02T11:02:29.512Z</time></trkpt><trkpt lat="40.1276289" lon="8.6680274"><ele>428.49999999999994</ele><time>2026-05-02T11:02:31.511Z</time></trkpt><trkpt lat="40.1277078" lon="8.6680385"><ele>429.0</ele><time>2026-05-02T11:02:32.512Z</time></trkpt><trkpt lat="40.1277954" lon="8.6680496"><ele>429.5</ele><time>2026-05-02T11:02:33.512Z</time></trkpt><trkpt lat="40.1278898" lon="8.6680623"><ele>430.0</ele><time>2026-05-02T11:02:34.509Z</time></trkpt><trkpt lat="40.1279852" lon="8.6680539"><ele>430.49999999999994</ele><time>2026-05-02T11:02:35.511Z</time></trkpt><trkpt lat="40.128061" lon="8.6680359"><ele>431.0</ele><time>2026-05-02T11:02:36.512Z</time></trkpt><trkpt lat="40.1281931" lon="8.6680834"><ele>431.49999999999994</ele><time>2026-05-02T11:02:38.512Z</time></trkpt><trkpt lat="40.1282613" lon="8.668156"><ele>432.0</ele><time>2026-05-02T11:02:39.511Z</time></trkpt><trkpt lat="40.1283327" lon="8.6682419"><ele>432.5</ele><time>2026-05-02T11:02:40.51Z</time></trkpt><trkpt lat="40.1283948" lon="8.6683343"><ele>433.0</ele><time>2026-05-02T11:02:41.511Z</time></trkpt><trkpt lat="40.1284487" lon="8.6683893"><ele>433.49999999999994</ele><time>2026-05-02T11:02:42.51Z</time></trkpt><trkpt lat="40.1285265" lon="8.6684145"><ele>434.0</ele><time>2026-05-02T11:02:43.511Z</time></trkpt><trkpt lat="40.1286265" lon="8.6683992"><ele>433.99999999999994</ele><time>2026-05-02T11:02:44.51Z</time></trkpt><trkpt lat="40.1286983" lon="8.6684141"><ele>434.0</ele><time>2026-05-02T11:02:45.511Z</time></trkpt><trkpt lat="40.1287546" lon="8.668456"><ele>434.0</ele><time>2026-05-02T11:02:46.512Z</time></trkpt><trkpt lat="40.1288017" lon="8.6685221"><ele>434.0</ele><time>2026-05-02T11:02:47.512Z</time></trkpt><trkpt lat="40.1288305" lon="8.6686136"><ele>433.99999999999994</ele><time>2026-05-02T11:02:48.51Z</time></trkpt><trkpt lat="40.1288914" lon="8.6687402"><ele>434.0</ele><time>2026-05-02T11:02:50.51Z</time></trkpt><trkpt lat="40.1289643" lon="8.6687843"><ele>434.16666666666663</ele><time>2026-05-02T11:02:51.511Z</time></trkpt><trkpt lat="40.1290432" lon="8.6688196"><ele>434.3333333333333</ele><time>2026-05-02T11:02:52.511Z</time></trkpt><trkpt lat="40.1291201" lon="8.6688366"><ele>434.5</ele><time>2026-05-02T11:02:53.512Z</time></trkpt><trkpt lat="40.1292061" lon="8.6688411"><ele>434.66666666666663</ele><time>2026-05-02T11:02:54.509Z</time></trkpt><trkpt lat="40.1293008" lon="8.6688305"><ele>434.8333333333333</ele><time>2026-05-02T11:02:55.511Z</time></trkpt><trkpt lat="40.129401" lon="8.6688273"><ele>435.0</ele><time>2026-05-02T11:02:56.51Z</time></trkpt><trkpt lat="40.1295113" lon="8.6688359"><ele>435.0</ele><time>2026-05-02T11:02:57.511Z</time></trkpt><trkpt lat="40.129623" lon="8.6688546"><ele>435.0</ele><time>2026-05-02T11:02:58.511Z</time></trkpt><trkpt lat="40.1297394" lon="8.6688803"><ele>435.0</ele><time>2026-05-02T11:02:59.512Z</time></trkpt><trkpt lat="40.1298556" lon="8.6689127"><ele>435.0</ele><time>2026-05-02T11:03:00.509Z</time></trkpt><trkpt lat="40.1299686" lon="8.6689376"><ele>436.4</ele><time>2026-05-02T11:03:01.51Z</time></trkpt><trkpt lat="40.1300842" lon="8.6689572"><ele>437.8</ele><time>2026-05-02T11:03:02.509Z</time></trkpt><trkpt lat="40.1301929" lon="8.6689884"><ele>439.20000000000005</ele><time>2026-05-02T11:03:03.511Z</time></trkpt><trkpt lat="40.1302924" lon="8.6690231"><ele>440.6</ele><time>2026-05-02T11:03:04.512Z</time></trkpt><trkpt lat="40.1303954" lon="8.6690725"><ele>442.0</ele><time>2026-05-02T11:03:05.509Z</time></trkpt><trkpt lat="40.1304918" lon="8.6691172"><ele>442.0</ele><time>2026-05-02T11:03:06.511Z</time></trkpt><trkpt lat="40.1305797" lon="8.6691567"><ele>442.00000000000006</ele><time>2026-05-02T11:03:07.511Z</time></trkpt><trkpt lat="40.1306605" lon="8.6691861"><ele>442.00000000000006</ele><time>2026-05-02T11:03:08.511Z</time></trkpt><trkpt lat="40.1307293" lon="8.6692197"><ele>442.0</ele><time>2026-05-02T11:03:09.51Z</time></trkpt><trkpt lat="40.1308295" lon="8.6692962"><ele>442.0</ele><time>2026-05-02T11:03:11.51Z</time></trkpt><trkpt lat="40.1309033" lon="8.6694214"><ele>442.83333333333337</ele><time>2026-05-02T11:03:13.509Z</time></trkpt><trkpt lat="40.1309455" lon="8.6694843"><ele>443.6666666666667</ele><time>2026-05-02T11:03:14.511Z</time></trkpt><trkpt lat="40.1309986" lon="8.6695502"><ele>444.5</ele><time>2026-05-02T11:03:15.509Z</time></trkpt><trkpt lat="40.1310568" lon="8.6696074"><ele>445.33333333333337</ele><time>2026-05-02T11:03:16.509Z</time></trkpt><trkpt lat="40.1311178" lon="8.6696601"><ele>446.1666666666667</ele><time>2026-05-02T11:03:17.51Z</time></trkpt><trkpt lat="40.1311866" lon="8.6697132"><ele>447.0</ele><time>2026-05-02T11:03:18.51Z</time></trkpt><trkpt lat="40.1312617" lon="8.6697743"><ele>447.0</ele><time>2026-05-02T11:03:19.511Z</time></trkpt><trkpt lat="40.131344" lon="8.6698335"><ele>447.00000000000006</ele><time>2026-05-02T11:03:20.511Z</time></trkpt><trkpt lat="40.1314336" lon="8.6698952"><ele>447.00000000000006</ele><time>2026-05-02T11:03:21.511Z</time></trkpt><trkpt lat="40.1315252" lon="8.6699577"><ele>447.0</ele><time>2026-05-02T11:03:22.509Z</time></trkpt><trkpt lat="40.1316204" lon="8.6700284"><ele>447.0</ele><time>2026-05-02T11:03:23.51Z</time></trkpt><trkpt lat="40.1317124" lon="8.6700998"><ele>448.20000000000005</ele><time>2026-05-02T11:03:24.509Z</time></trkpt><trkpt lat="40.131802" lon="8.6701691"><ele>449.40000000000003</ele><time>2026-05-02T11:03:25.51Z</time></trkpt><trkpt lat="40.1318942" lon="8.6702269"><ele>450.59999999999997</ele><time>2026-05-02T11:03:26.509Z</time></trkpt><trkpt lat="40.1319848" lon="8.6702866"><ele>451.79999999999995</ele><time>2026-05-02T11:03:27.512Z</time></trkpt><trkpt lat="40.1320744" lon="8.6703439"><ele>453.0</ele><time>2026-05-02T11:03:28.51Z</time></trkpt><trkpt lat="40.132155" lon="8.6704063"><ele>453.0</ele><time>2026-05-02T11:03:29.509Z</time></trkpt><trkpt lat="40.1322261" lon="8.6704485"><ele>452.99999999999994</ele><time>2026-05-02T11:03:30.511Z</time></trkpt><trkpt lat="40.1323262" lon="8.6704272"><ele>452.99999999999994</ele><time>2026-05-02T11:03:32.511Z</time></trkpt><trkpt lat="40.1323709" lon="8.6702748"><ele>453.0</ele><time>2026-05-02T11:03:34.51Z</time></trkpt><trkpt lat="40.1324015" lon="8.6701648"><ele>453.0</ele><time>2026-05-02T11:03:35.511Z</time></trkpt><trkpt lat="40.1324345" lon="8.6700412"><ele>456.0</ele><time>2026-05-02T11:03:36.51Z</time></trkpt><trkpt lat="40.1324738" lon="8.6699343"><ele>458.99999999999994</ele><time>2026-05-02T11:03:37.511Z</time></trkpt><trkpt lat="40.132529" lon="8.669856"><ele>461.99999999999994</ele><time>2026-05-02T11:03:38.509Z</time></trkpt><trkpt lat="40.132605" lon="8.6697856"><ele>465.0</ele><time>2026-05-02T11:03:39.512Z</time></trkpt><trkpt lat="40.132703" lon="8.6697248"><ele>468.0</ele><time>2026-05-02T11:03:40.511Z</time></trkpt><trkpt lat="40.1328153" lon="8.6696731"><ele>468.0</ele><time>2026-05-02T11:03:41.51Z</time></trkpt><trkpt lat="40.1329383" lon="8.6696321"><ele>468.0</ele><time>2026-05-02T11:03:42.511Z</time></trkpt><trkpt lat="40.1330745" lon="8.6696097"><ele>468.0</ele><time>2026-05-02T11:03:43.51Z</time></trkpt><trkpt lat="40.1332207" lon="8.6695942"><ele>468.0</ele><time>2026-05-02T11:03:44.511Z</time></trkpt><trkpt lat="40.133368" lon="8.6695848"><ele>470.25</ele><time>2026-05-02T11:03:45.509Z</time></trkpt><trkpt lat="40.1335145" lon="8.6695862"><ele>472.5</ele><time>2026-05-02T11:03:46.511Z</time></trkpt><trkpt lat="40.1336653" lon="8.6695887"><ele>474.75</ele><time>2026-05-02T11:03:47.51Z</time></trkpt><trkpt lat="40.1337956" lon="8.6696019"><ele>477.0</ele><time>2026-05-02T11:03:48.511Z</time></trkpt><trkpt lat="40.1339105" lon="8.6696257"><ele>477.0</ele><time>2026-05-02T11:03:49.509Z</time></trkpt><trkpt lat="40.1340229" lon="8.669676"><ele>477.0</ele><time>2026-05-02T11:03:50.51Z</time></trkpt><trkpt lat="40.1341232" lon="8.66975"><ele>477.0</ele><time>2026-05-02T11:03:51.511Z</time></trkpt><trkpt lat="40.13422" lon="8.6698222"><ele>477.0</ele><time>2026-05-02T11:03:52.511Z</time></trkpt><trkpt lat="40.1343278" lon="8.6698632"><ele>479.5</ele><time>2026-05-02T11:03:53.511Z</time></trkpt><trkpt lat="40.1344457" lon="8.6698748"><ele>482.0</ele><time>2026-05-02T11:03:54.51Z</time></trkpt><trkpt lat="40.1345661" lon="8.6698615"><ele>484.5</ele><time>2026-05-02T11:03:55.51Z</time></trkpt><trkpt lat="40.1346877" lon="8.6698425"><ele>487.0</ele><time>2026-05-02T11:03:56.51Z</time></trkpt><trkpt lat="40.134795" lon="8.6698595"><ele>487.0</ele><time>2026-05-02T11:03:57.51Z</time></trkpt><trkpt lat="40.1348697" lon="8.6698791"><ele>487.0</ele><time>2026-05-02T11:03:58.509Z</time></trkpt><trkpt lat="40.1349529" lon="8.6698982"><ele>487.0</ele><time>2026-05-02T11:04:00.511Z</time></trkpt><trkpt lat="40.1350318" lon="8.6698744"><ele>487.0</ele><time>2026-05-02T11:04:02.51Z</time></trkpt><trkpt lat="40.1350739" lon="8.6698125"><ele>487.0</ele><time>2026-05-02T11:04:03.51Z</time></trkpt><trkpt lat="40.1351116" lon="8.669746"><ele>487.0</ele><time>2026-05-02T11:04:04.51Z</time></trkpt><trkpt lat="40.1351664" lon="8.6696767"><ele>487.0</ele><time>2026-05-02T11:04:05.511Z</time></trkpt><trkpt lat="40.1352199" lon="8.6696018"><ele>488.40000000000003</ele><time>2026-05-02T11:04:06.51Z</time></trkpt><trkpt lat="40.1352811" lon="8.6695216"><ele>489.80000000000007</ele><time>2026-05-02T11:04:07.51Z</time></trkpt><trkpt lat="40.135354" lon="8.6694441"><ele>491.2</ele><time>2026-05-02T11:04:08.51Z</time></trkpt><trkpt lat="40.1354371" lon="8.6693846"><ele>492.6</ele><time>2026-05-02T11:04:09.509Z</time></trkpt><trkpt lat="40.1355473" lon="8.6693397"><ele>494.0</ele><time>2026-05-02T11:04:10.51Z</time></trkpt><trkpt lat="40.1356628" lon="8.6692989"><ele>495.5</ele><time>2026-05-02T11:04:11.512Z</time></trkpt><trkpt lat="40.1357819" lon="8.6692746"><ele>497.0</ele><time>2026-05-02T11:04:12.51Z</time></trkpt><trkpt lat="40.1359026" lon="8.66927"><ele>498.5</ele><time>2026-05-02T11:04:13.51Z</time></trkpt><trkpt lat="40.13602" lon="8.6692772"><ele>500.0</ele><time>2026-05-02T11:04:14.512Z</time></trkpt><trkpt lat="40.1361293" lon="8.6692932"><ele>500.0</ele><time>2026-05-02T11:04:15.511Z</time></trkpt><trkpt lat="40.136219" lon="8.6693242"><ele>500.0</ele><time>2026-05-02T11:04:16.51Z</time></trkpt><trkpt lat="40.1362875" lon="8.6693698"><ele>500.0</ele><time>2026-05-02T11:04:17.51Z</time></trkpt><trkpt lat="40.1363763" lon="8.6694353"><ele>500.0</ele><time>2026-05-02T11:04:19.51Z</time></trkpt><trkpt lat="40.1364412" lon="8.6694448"><ele>500.0</ele><time>2026-05-02T11:04:26.512Z</time></trkpt><trkpt lat="40.1365296" lon="8.6693258"><ele>501.8</ele><time>2026-05-02T11:04:28.509Z</time></trkpt><trkpt lat="40.136584" lon="8.6692228"><ele>503.6</ele><time>2026-05-02T11:04:29.511Z</time></trkpt><trkpt lat="40.1366445" lon="8.6691119"><ele>505.4</ele><time>2026-05-02T11:04:30.51Z</time></trkpt><trkpt lat="40.1367126" lon="8.66899"><ele>507.2</ele><time>2026-05-02T11:04:31.511Z</time></trkpt><trkpt lat="40.1367899" lon="8.6688631"><ele>509.0</ele><time>2026-05-02T11:04:32.509Z</time></trkpt><trkpt lat="40.1368686" lon="8.668731"><ele>508.75</ele><time>2026-05-02T11:04:33.511Z</time></trkpt><trkpt lat="40.13695" lon="8.6685906"><ele>508.5</ele><time>2026-05-02T11:04:34.51Z</time></trkpt><trkpt lat="40.1370362" lon="8.6684334"><ele>508.25</ele><time>2026-05-02T11:04:35.511Z</time></trkpt><trkpt lat="40.1371195" lon="8.6682712"><ele>508.0</ele><time>2026-05-02T11:04:36.51Z</time></trkpt><trkpt lat="40.1372111" lon="8.6681103"><ele>508.0</ele><time>2026-05-02T11:04:37.51Z</time></trkpt><trkpt lat="40.1373077" lon="8.6679396"><ele>508.0</ele><time>2026-05-02T11:04:38.51Z</time></trkpt><trkpt lat="40.1374015" lon="8.6677694"><ele>508.0</ele><time>2026-05-02T11:04:39.51Z</time></trkpt><trkpt lat="40.1375022" lon="8.6675932"><ele>509.6666666666667</ele><time>2026-05-02T11:04:40.511Z</time></trkpt><trkpt lat="40.1376051" lon="8.6674183"><ele>511.33333333333337</ele><time>2026-05-02T11:04:41.509Z</time></trkpt><trkpt lat="40.1377089" lon="8.6672434"><ele>513.0</ele><time>2026-05-02T11:04:42.51Z</time></trkpt><trkpt lat="40.1378063" lon="8.6670694"><ele>511.0</ele><time>2026-05-02T11:04:43.51Z</time></trkpt><trkpt lat="40.1379043" lon="8.6668889"><ele>509.0</ele><time>2026-05-02T11:04:44.512Z</time></trkpt><trkpt lat="40.1380006" lon="8.6667165"><ele>507.0</ele><time>2026-05-02T11:04:45.51Z</time></trkpt><trkpt lat="40.138101" lon="8.6665433"><ele>507.0</ele><time>2026-05-02T11:04:46.509Z</time></trkpt><trkpt lat="40.1382075" lon="8.6663788"><ele>507.0</ele><time>2026-05-02T11:04:47.51Z</time></trkpt><trkpt lat="40.1383246" lon="8.6662233"><ele>507.0</ele><time>2026-05-02T11:04:48.51Z</time></trkpt><trkpt lat="40.13845" lon="8.6660797"><ele>508.0</ele><time>2026-05-02T11:04:49.509Z</time></trkpt><trkpt lat="40.1385884" lon="8.6659426"><ele>509.0</ele><time>2026-05-02T11:04:50.51Z</time></trkpt><trkpt lat="40.138728" lon="8.6658082"><ele>510.0</ele><time>2026-05-02T11:04:51.509Z</time></trkpt><trkpt lat="40.1388666" lon="8.6656921"><ele>510.0</ele><time>2026-05-02T11:04:52.51Z</time></trkpt><trkpt lat="40.1390115" lon="8.6655984"><ele>510.0</ele><time>2026-05-02T11:04:53.511Z</time></trkpt><trkpt lat="40.1391555" lon="8.6655513"><ele>510.0</ele><time>2026-05-02T11:04:54.509Z</time></trkpt><trkpt lat="40.1392869" lon="8.6655532"><ele>510.0</ele><time>2026-05-02T11:04:55.51Z</time></trkpt><trkpt lat="40.1394105" lon="8.6656148"><ele>512.25</ele><time>2026-05-02T11:04:56.511Z</time></trkpt><trkpt lat="40.1395264" lon="8.6657141"><ele>514.5</ele><time>2026-05-02T11:04:57.51Z</time></trkpt><trkpt lat="40.1396445" lon="8.6658341"><ele>516.75</ele><time>2026-05-02T11:04:58.51Z</time></trkpt><trkpt lat="40.1397667" lon="8.6659449"><ele>519.0</ele><time>2026-05-02T11:04:59.51Z</time></trkpt><trkpt lat="40.1399064" lon="8.6660466"><ele>522.75</ele><time>2026-05-02T11:05:00.51Z</time></trkpt><trkpt lat="40.1400517" lon="8.6661203"><ele>526.5</ele><time>2026-05-02T11:05:01.509Z</time></trkpt><trkpt lat="40.140195" lon="8.6661728"><ele>530.25</ele><time>2026-05-02T11:05:02.511Z</time></trkpt><trkpt lat="40.1403181" lon="8.6661977"><ele>534.0</ele><time>2026-05-02T11:05:03.511Z</time></trkpt><trkpt lat="40.1404233" lon="8.6662105"><ele>534.0</ele><time>2026-05-02T11:05:04.51Z</time></trkpt><trkpt lat="40.1405126" lon="8.666208"><ele>534.0</ele><time>2026-05-02T11:05:05.509Z</time></trkpt><trkpt lat="40.1405914" lon="8.6661787"><ele>534.0</ele><time>2026-05-02T11:05:06.51Z</time></trkpt><trkpt lat="40.1406573" lon="8.6661275"><ele>534.0</ele><time>2026-05-02T11:05:07.51Z</time></trkpt><trkpt lat="40.1406941" lon="8.6659825"><ele>534.0</ele><time>2026-05-02T11:05:08.511Z</time></trkpt><trkpt lat="40.1407227" lon="8.6658205"><ele>533.25</ele><time>2026-05-02T11:05:09.51Z</time></trkpt><trkpt lat="40.1407315" lon="8.6656444"><ele>532.5</ele><time>2026-05-02T11:05:10.509Z</time></trkpt><trkpt lat="40.1407437" lon="8.665447"><ele>531.75</ele><time>2026-05-02T11:05:11.511Z</time></trkpt><trkpt lat="40.1407658" lon="8.6652457"><ele>531.0</ele><time>2026-05-02T11:05:12.511Z</time></trkpt><trkpt lat="40.1407875" lon="8.6650281"><ele>531.0</ele><time>2026-05-02T11:05:13.509Z</time></trkpt><trkpt lat="40.1407948" lon="8.6648008"><ele>531.0</ele><time>2026-05-02T11:05:14.511Z</time></trkpt><trkpt lat="40.140791" lon="8.6645772"><ele>531.0</ele><time>2026-05-02T11:05:15.511Z</time></trkpt><trkpt lat="40.1407882" lon="8.6643516"><ele>531.3333333333334</ele><time>2026-05-02T11:05:16.508Z</time></trkpt><trkpt lat="40.1408047" lon="8.6641213"><ele>531.6666666666667</ele><time>2026-05-02T11:05:17.51Z</time></trkpt><trkpt lat="40.1408347" lon="8.6638907"><ele>532.0</ele><time>2026-05-02T11:05:18.51Z</time></trkpt><trkpt lat="40.140874" lon="8.6636615"><ele>531.3333333333334</ele><time>2026-05-02T11:05:19.51Z</time></trkpt><trkpt lat="40.1409097" lon="8.6634335"><ele>530.6666666666666</ele><time>2026-05-02T11:05:20.51Z</time></trkpt><trkpt lat="40.1409559" lon="8.6631996"><ele>530.0</ele><time>2026-05-02T11:05:21.511Z</time></trkpt><trkpt lat="40.1409949" lon="8.6629621"><ele>529.6666666666666</ele><time>2026-05-02T11:05:22.509Z</time></trkpt><trkpt lat="40.1410378" lon="8.662746"><ele>529.3333333333334</ele><time>2026-05-02T11:05:23.51Z</time></trkpt><trkpt lat="40.1410799" lon="8.6625259"><ele>529.0</ele><time>2026-05-02T11:05:24.51Z</time></trkpt><trkpt lat="40.1411234" lon="8.6623202"><ele>529.0</ele><time>2026-05-02T11:05:25.51Z</time></trkpt><trkpt lat="40.1411688" lon="8.6621142"><ele>529.0</ele><time>2026-05-02T11:05:26.509Z</time></trkpt><trkpt lat="40.141215" lon="8.661912"><ele>529.0</ele><time>2026-05-02T11:05:27.511Z</time></trkpt><trkpt lat="40.1412617" lon="8.6617071"><ele>531.3333333333334</ele><time>2026-05-02T11:05:28.511Z</time></trkpt><trkpt lat="40.1413055" lon="8.6615075"><ele>533.6666666666666</ele><time>2026-05-02T11:05:29.509Z</time></trkpt><trkpt lat="40.1413409" lon="8.6613154"><ele>536.0</ele><time>2026-05-02T11:05:30.51Z</time></trkpt><trkpt lat="40.1413779" lon="8.661127"><ele>537.25</ele><time>2026-05-02T11:05:31.51Z</time></trkpt><trkpt lat="40.1414102" lon="8.6609361"><ele>538.5</ele><time>2026-05-02T11:05:32.511Z</time></trkpt><trkpt lat="40.1414541" lon="8.6607521"><ele>539.75</ele><time>2026-05-02T11:05:33.51Z</time></trkpt><trkpt lat="40.1414894" lon="8.6605617"><ele>541.0</ele><time>2026-05-02T11:05:34.511Z</time></trkpt><trkpt lat="40.1415282" lon="8.6603743"><ele>542.0</ele><time>2026-05-02T11:05:35.509Z</time></trkpt><trkpt lat="40.1415565" lon="8.6602085"><ele>543.0</ele><time>2026-05-02T11:05:36.509Z</time></trkpt><trkpt lat="40.1415779" lon="8.6600516"><ele>544.0</ele><time>2026-05-02T11:05:37.51Z</time></trkpt><trkpt lat="40.1415964" lon="8.6598995"><ele>545.0</ele><time>2026-05-02T11:05:38.509Z</time></trkpt><trkpt lat="40.1416145" lon="8.6597535"><ele>545.0</ele><time>2026-05-02T11:05:39.509Z</time></trkpt><trkpt lat="40.1416267" lon="8.6596298"><ele>545.0</ele><time>2026-05-02T11:05:40.509Z</time></trkpt><trkpt lat="40.1416374" lon="8.6595267"><ele>545.0</ele><time>2026-05-02T11:05:41.51Z</time></trkpt><trkpt lat="40.1416536" lon="8.6594445"><ele>545.0</ele><time>2026-05-02T11:05:42.51Z</time></trkpt><trkpt lat="40.1417291" lon="8.6593167"><ele>545.0</ele><time>2026-05-02T11:05:44.509Z</time></trkpt><trkpt lat="40.1417991" lon="8.6592739"><ele>545.0</ele><time>2026-05-02T11:05:45.509Z</time></trkpt><trkpt lat="40.1418965" lon="8.6592572"><ele>546.25</ele><time>2026-05-02T11:05:46.509Z</time></trkpt><trkpt lat="40.1420062" lon="8.6592588"><ele>547.5</ele><time>2026-05-02T11:05:47.508Z</time></trkpt><trkpt lat="40.1421233" lon="8.6592669"><ele>548.75</ele><time>2026-05-02T11:05:48.508Z</time></trkpt><trkpt lat="40.1422526" lon="8.6592787"><ele>550.0</ele><time>2026-05-02T11:05:49.51Z</time></trkpt><trkpt lat="40.142388" lon="8.659297"><ele>550.4</ele><time>2026-05-02T11:05:50.51Z</time></trkpt><trkpt lat="40.1425201" lon="8.6593204"><ele>550.8</ele><time>2026-05-02T11:05:51.509Z</time></trkpt><trkpt lat="40.1426287" lon="8.6593536"><ele>551.2</ele><time>2026-05-02T11:05:52.508Z</time></trkpt><trkpt lat="40.1427142" lon="8.6593963"><ele>551.6</ele><time>2026-05-02T11:05:53.508Z</time></trkpt><trkpt lat="40.1427829" lon="8.6594472"><ele>552.0</ele><time>2026-05-02T11:05:54.509Z</time></trkpt><trkpt lat="40.1428365" lon="8.6595022"><ele>552.0</ele><time>2026-05-02T11:05:55.509Z</time></trkpt><trkpt lat="40.1429351" lon="8.6596093"><ele>552.0</ele><time>2026-05-02T11:05:57.508Z</time></trkpt><trkpt lat="40.142985" lon="8.6596651"><ele>552.0</ele><time>2026-05-02T11:05:58.508Z</time></trkpt><trkpt lat="40.1430475" lon="8.6597438"><ele>552.0</ele><time>2026-05-02T11:06:00.508Z</time></trkpt><trkpt lat="40.1431529" lon="8.6597742"><ele>552.0</ele><time>2026-05-02T11:09:46.508Z</time></trkpt><trkpt lat="40.1432165" lon="8.6598193"><ele>552.0</ele><time>2026-05-02T11:09:47.509Z</time></trkpt><trkpt lat="40.1433006" lon="8.6598779"><ele>552.0</ele><time>2026-05-02T11:09:48.509Z</time></trkpt><trkpt lat="40.1434004" lon="8.6599349"><ele>552.0</ele><time>2026-05-02T11:09:49.507Z</time></trkpt><trkpt lat="40.1435104" lon="8.6599875"><ele>552.0</ele><time>2026-05-02T11:09:50.508Z</time></trkpt><trkpt lat="40.1436352" lon="8.6600374"><ele>552.0</ele><time>2026-05-02T11:09:51.507Z</time></trkpt><trkpt lat="40.1437669" lon="8.6600865"><ele>552.0</ele><time>2026-05-02T11:09:52.512Z</time></trkpt><trkpt lat="40.1439116" lon="8.6601372"><ele>552.0</ele><time>2026-05-02T11:09:53.516Z</time></trkpt><trkpt lat="40.1440671" lon="8.6601734"><ele>552.0</ele><time>2026-05-02T11:09:54.508Z</time></trkpt><trkpt lat="40.14423" lon="8.6601859"><ele>554.75</ele><time>2026-05-02T11:09:55.508Z</time></trkpt><trkpt lat="40.1443868" lon="8.6601808"><ele>557.5</ele><time>2026-05-02T11:09:56.507Z</time></trkpt><trkpt lat="40.1445279" lon="8.660157"><ele>560.25</ele><time>2026-05-02T11:09:57.51Z</time></trkpt><trkpt lat="40.1446608" lon="8.6601033"><ele>563.0</ele><time>2026-05-02T11:09:58.508Z</time></trkpt><trkpt lat="40.1447786" lon="8.6599906"><ele>562.0</ele><time>2026-05-02T11:09:59.509Z</time></trkpt><trkpt lat="40.1448805" lon="8.6598495"><ele>561.0</ele><time>2026-05-02T11:10:00.511Z</time></trkpt><trkpt lat="40.1449643" lon="8.6596836"><ele>560.0</ele><time>2026-05-02T11:10:01.51Z</time></trkpt><trkpt lat="40.1450394" lon="8.6595064"><ele>563.3333333333333</ele><time>2026-05-02T11:10:02.513Z</time></trkpt><trkpt lat="40.1451171" lon="8.6593247"><ele>566.6666666666666</ele><time>2026-05-02T11:10:03.513Z</time></trkpt><trkpt lat="40.1452018" lon="8.6591414"><ele>570.0</ele><time>2026-05-02T11:10:04.511Z</time></trkpt><trkpt lat="40.1453019" lon="8.658969"><ele>570.0</ele><time>2026-05-02T11:10:05.508Z</time></trkpt><trkpt lat="40.1454206" lon="8.6588031"><ele>570.0</ele><time>2026-05-02T11:10:06.508Z</time></trkpt><trkpt lat="40.1455561" lon="8.6586512"><ele>570.0</ele><time>2026-05-02T11:10:07.51Z</time></trkpt><trkpt lat="40.1457098" lon="8.6585142"><ele>572.3333333333334</ele><time>2026-05-02T11:10:08.516Z</time></trkpt><trkpt lat="40.14587" lon="8.6583764"><ele>574.6666666666667</ele><time>2026-05-02T11:10:09.514Z</time></trkpt><trkpt lat="40.1460287" lon="8.658223"><ele>577.0</ele><time>2026-05-02T11:10:10.509Z</time></trkpt><trkpt lat="40.1461774" lon="8.6580507"><ele>577.0</ele><time>2026-05-02T11:10:11.508Z</time></trkpt><trkpt lat="40.1463196" lon="8.657861"><ele>577.0</ele><time>2026-05-02T11:10:12.509Z</time></trkpt><trkpt lat="40.1464512" lon="8.6576616"><ele>577.0</ele><time>2026-05-02T11:10:13.507Z</time></trkpt><trkpt lat="40.1465689" lon="8.6574532"><ele>577.6666666666667</ele><time>2026-05-02T11:10:14.51Z</time></trkpt><trkpt lat="40.1466633" lon="8.6572371"><ele>578.3333333333334</ele><time>2026-05-02T11:10:15.509Z</time></trkpt><trkpt lat="40.1467394" lon="8.6570125"><ele>579.0</ele><time>2026-05-02T11:10:16.508Z</time></trkpt><trkpt lat="40.1468163" lon="8.6567866"><ele>582.6666666666666</ele><time>2026-05-02T11:10:17.514Z</time></trkpt><trkpt lat="40.1469002" lon="8.656573"><ele>586.3333333333333</ele><time>2026-05-02T11:10:18.512Z</time></trkpt><trkpt lat="40.1469779" lon="8.6563857"><ele>590.0</ele><time>2026-05-02T11:10:19.51Z</time></trkpt><trkpt lat="40.1470285" lon="8.6561858"><ele>594.0</ele><time>2026-05-02T11:10:20.509Z</time></trkpt><trkpt lat="40.1470485" lon="8.6559729"><ele>598.0</ele><time>2026-05-02T11:10:21.507Z</time></trkpt><trkpt lat="40.1470548" lon="8.6557651"><ele>602.0</ele><time>2026-05-02T11:10:22.509Z</time></trkpt><trkpt lat="40.1470786" lon="8.6555636"><ele>602.0</ele><time>2026-05-02T11:10:23.508Z</time></trkpt><trkpt lat="40.1471181" lon="8.6553847"><ele>602.0</ele><time>2026-05-02T11:10:24.508Z</time></trkpt><trkpt lat="40.1471629" lon="8.6552493"><ele>602.0</ele><time>2026-05-02T11:10:25.509Z</time></trkpt><trkpt lat="40.1472231" lon="8.6551693"><ele>602.0</ele><time>2026-05-02T11:10:26.507Z</time></trkpt><trkpt lat="40.147292" lon="8.655147"><ele>602.0</ele><time>2026-05-02T11:10:27.51Z</time></trkpt><trkpt lat="40.1473686" lon="8.6551726"><ele>601.8000000000001</ele><time>2026-05-02T11:10:28.509Z</time></trkpt><trkpt lat="40.1474246" lon="8.6552476"><ele>601.6</ele><time>2026-05-02T11:10:29.509Z</time></trkpt><trkpt lat="40.1474681" lon="8.6553674"><ele>601.4000000000001</ele><time>2026-05-02T11:10:30.509Z</time></trkpt><trkpt lat="40.1474923" lon="8.6555152"><ele>601.2</ele><time>2026-05-02T11:10:31.51Z</time></trkpt><trkpt lat="40.1475174" lon="8.6556883"><ele>601.0</ele><time>2026-05-02T11:10:32.508Z</time></trkpt><trkpt lat="40.1475507" lon="8.6558674"><ele>600.6666666666667</ele><time>2026-05-02T11:10:33.508Z</time></trkpt><trkpt lat="40.1475874" lon="8.6560512"><ele>600.3333333333334</ele><time>2026-05-02T11:10:34.508Z</time></trkpt><trkpt lat="40.1476287" lon="8.6562452"><ele>600.0</ele><time>2026-05-02T11:10:35.508Z</time></trkpt><trkpt lat="40.1476611" lon="8.6564482"><ele>599.3333333333334</ele><time>2026-05-02T11:10:36.51Z</time></trkpt><trkpt lat="40.1476808" lon="8.656663"><ele>598.6666666666667</ele><time>2026-05-02T11:10:37.508Z</time></trkpt><trkpt lat="40.1477017" lon="8.6568865"><ele>598.0</ele><time>2026-05-02T11:10:38.507Z</time></trkpt><trkpt lat="40.1477119" lon="8.6571149"><ele>598.0</ele><time>2026-05-02T11:10:39.509Z</time></trkpt><trkpt lat="40.1477159" lon="8.6573535"><ele>598.0</ele><time>2026-05-02T11:10:40.507Z</time></trkpt><trkpt lat="40.1477181" lon="8.6575956"><ele>598.0</ele><time>2026-05-02T11:10:41.508Z</time></trkpt><trkpt lat="40.1477151" lon="8.657833"><ele>599.3333333333334</ele><time>2026-05-02T11:10:42.508Z</time></trkpt><trkpt lat="40.1477101" lon="8.6580623"><ele>600.6666666666666</ele><time>2026-05-02T11:10:43.509Z</time></trkpt><trkpt lat="40.1477052" lon="8.6582729"><ele>602.0</ele><time>2026-05-02T11:10:44.509Z</time></trkpt><trkpt lat="40.1477032" lon="8.6584606"><ele>602.0</ele><time>2026-05-02T11:10:45.509Z</time></trkpt><trkpt lat="40.1477132" lon="8.6586162"><ele>602.0</ele><time>2026-05-02T11:10:46.507Z</time></trkpt><trkpt lat="40.1477474" lon="8.6587567"><ele>602.0</ele><time>2026-05-02T11:10:47.508Z</time></trkpt><trkpt lat="40.1478209" lon="8.6588706"><ele>602.0</ele><time>2026-05-02T11:10:48.508Z</time></trkpt><trkpt lat="40.1479228" lon="8.6589615"><ele>602.75</ele><time>2026-05-02T11:10:49.509Z</time></trkpt><trkpt lat="40.1480448" lon="8.6590081"><ele>603.5</ele><time>2026-05-02T11:10:50.509Z</time></trkpt><trkpt lat="40.148171" lon="8.6590372"><ele>604.25</ele><time>2026-05-02T11:10:51.513Z</time></trkpt><trkpt lat="40.1482875" lon="8.659092"><ele>605.0</ele><time>2026-05-02T11:10:52.509Z</time></trkpt><trkpt lat="40.1483797" lon="8.659188"><ele>607.75</ele><time>2026-05-02T11:10:53.509Z</time></trkpt><trkpt lat="40.1484336" lon="8.6593265"><ele>610.5</ele><time>2026-05-02T11:10:54.512Z</time></trkpt><trkpt lat="40.1484526" lon="8.6594923"><ele>613.25</ele><time>2026-05-02T11:10:55.509Z</time></trkpt><trkpt lat="40.1484468" lon="8.6596667"><ele>616.0</ele><time>2026-05-02T11:10:56.509Z</time></trkpt><trkpt lat="40.148453" lon="8.6598542"><ele>616.0</ele><time>2026-05-02T11:10:57.51Z</time></trkpt><trkpt lat="40.1484911" lon="8.6600415"><ele>616.0</ele><time>2026-05-02T11:10:58.509Z</time></trkpt><trkpt lat="40.148542" lon="8.6602298"><ele>616.0</ele><time>2026-05-02T11:10:59.508Z</time></trkpt><trkpt lat="40.148611" lon="8.6604163"><ele>614.6666666666667</ele><time>2026-05-02T11:11:00.509Z</time></trkpt><trkpt lat="40.1486976" lon="8.660596"><ele>613.3333333333334</ele><time>2026-05-02T11:11:01.509Z</time></trkpt><trkpt lat="40.1488004" lon="8.6607653"><ele>612.0</ele><time>2026-05-02T11:11:02.507Z</time></trkpt><trkpt lat="40.1489129" lon="8.6609284"><ele>612.0</ele><time>2026-05-02T11:11:03.508Z</time></trkpt><trkpt lat="40.1490394" lon="8.6610856"><ele>612.0</ele><time>2026-05-02T11:11:04.508Z</time></trkpt><trkpt lat="40.1491758" lon="8.661228"><ele>612.0</ele><time>2026-05-02T11:11:05.507Z</time></trkpt><trkpt lat="40.149325" lon="8.6613485"><ele>613.6666666666666</ele><time>2026-05-02T11:11:06.507Z</time></trkpt><trkpt lat="40.1494889" lon="8.6614449"><ele>615.3333333333333</ele><time>2026-05-02T11:11:07.507Z</time></trkpt><trkpt lat="40.1496597" lon="8.6615127"><ele>617.0</ele><time>2026-05-02T11:11:08.507Z</time></trkpt><trkpt lat="40.1498379" lon="8.6615608"><ele>620.6666666666666</ele><time>2026-05-02T11:11:09.508Z</time></trkpt><trkpt lat="40.1500183" lon="8.6615907"><ele>624.3333333333334</ele><time>2026-05-02T11:11:10.509Z</time></trkpt><trkpt lat="40.1501991" lon="8.6615918"><ele>628.0</ele><time>2026-05-02T11:11:11.508Z</time></trkpt><trkpt lat="40.1503795" lon="8.6615581"><ele>628.0</ele><time>2026-05-02T11:11:12.508Z</time></trkpt><trkpt lat="40.1505608" lon="8.6614934"><ele>628.0</ele><time>2026-05-02T11:11:13.509Z</time></trkpt><trkpt lat="40.1507299" lon="8.6613875"><ele>628.0</ele><time>2026-05-02T11:11:14.509Z</time></trkpt><trkpt lat="40.1508966" lon="8.6612776"><ele>629.6666666666667</ele><time>2026-05-02T11:11:15.51Z</time></trkpt><trkpt lat="40.1510578" lon="8.6611621"><ele>631.3333333333334</ele><time>2026-05-02T11:11:16.508Z</time></trkpt><trkpt lat="40.1512093" lon="8.6610317"><ele>633.0</ele><time>2026-05-02T11:11:17.508Z</time></trkpt><trkpt lat="40.1513579" lon="8.6608976"><ele>635.6666666666666</ele><time>2026-05-02T11:11:18.509Z</time></trkpt><trkpt lat="40.1514807" lon="8.660738"><ele>638.3333333333333</ele><time>2026-05-02T11:11:19.509Z</time></trkpt><trkpt lat="40.1516253" lon="8.6606094"><ele>641.0</ele><time>2026-05-02T11:11:20.509Z</time></trkpt><trkpt lat="40.1517894" lon="8.6605151"><ele>641.0</ele><time>2026-05-02T11:11:21.509Z</time></trkpt><trkpt lat="40.1519579" lon="8.6604376"><ele>641.0</ele><time>2026-05-02T11:11:22.508Z</time></trkpt><trkpt lat="40.1521291" lon="8.6603727"><ele>641.0</ele><time>2026-05-02T11:11:23.51Z</time></trkpt><trkpt lat="40.1523033" lon="8.660326"><ele>641.3333333333333</ele><time>2026-05-02T11:11:24.508Z</time></trkpt><trkpt lat="40.1524766" lon="8.660327"><ele>641.6666666666666</ele><time>2026-05-02T11:11:25.509Z</time></trkpt><trkpt lat="40.152648" lon="8.6603634"><ele>642.0</ele><time>2026-05-02T11:11:26.51Z</time></trkpt><trkpt lat="40.1528054" lon="8.6604314"><ele>642.0</ele><time>2026-05-02T11:11:27.508Z</time></trkpt><trkpt lat="40.1529495" lon="8.6605445"><ele>642.0</ele><time>2026-05-02T11:11:28.509Z</time></trkpt><trkpt lat="40.1530851" lon="8.6606462"><ele>642.0</ele><time>2026-05-02T11:11:29.508Z</time></trkpt><trkpt lat="40.1532186" lon="8.6606998"><ele>643.75</ele><time>2026-05-02T11:11:30.508Z</time></trkpt><trkpt lat="40.153353" lon="8.6607059"><ele>645.5</ele><time>2026-05-02T11:11:31.51Z</time></trkpt><trkpt lat="40.1534833" lon="8.6606496"><ele>647.25</ele><time>2026-05-02T11:11:32.51Z</time></trkpt><trkpt lat="40.1536041" lon="8.6605363"><ele>649.0</ele><time>2026-05-02T11:11:33.509Z</time></trkpt><trkpt lat="40.1537047" lon="8.6603924"><ele>652.6666666666667</ele><time>2026-05-02T11:11:34.51Z</time></trkpt><trkpt lat="40.1537949" lon="8.6602315"><ele>656.3333333333334</ele><time>2026-05-02T11:11:35.509Z</time></trkpt><trkpt lat="40.1538663" lon="8.6600396"><ele>660.0</ele><time>2026-05-02T11:11:36.51Z</time></trkpt><trkpt lat="40.1539343" lon="8.6598461"><ele>660.0</ele><time>2026-05-02T11:11:37.509Z</time></trkpt><trkpt lat="40.1540023" lon="8.6596468"><ele>660.0</ele><time>2026-05-02T11:11:38.509Z</time></trkpt><trkpt lat="40.1540724" lon="8.6594523"><ele>660.0</ele><time>2026-05-02T11:11:39.508Z</time></trkpt><trkpt lat="40.1541511" lon="8.6592571"><ele>661.0</ele><time>2026-05-02T11:11:40.509Z</time></trkpt><trkpt lat="40.1542426" lon="8.6590686"><ele>662.0</ele><time>2026-05-02T11:11:41.509Z</time></trkpt><trkpt lat="40.1543462" lon="8.6588915"><ele>663.0</ele><time>2026-05-02T11:11:42.507Z</time></trkpt><trkpt lat="40.1544619" lon="8.6587223"><ele>667.3333333333334</ele><time>2026-05-02T11:11:43.508Z</time></trkpt><trkpt lat="40.1545846" lon="8.6585629"><ele>671.6666666666667</ele><time>2026-05-02T11:11:44.509Z</time></trkpt><trkpt lat="40.1547193" lon="8.6584177"><ele>676.0</ele><time>2026-05-02T11:11:45.507Z</time></trkpt><trkpt lat="40.1548621" lon="8.6582864"><ele>672.3333333333334</ele><time>2026-05-02T11:11:46.509Z</time></trkpt><trkpt lat="40.1550026" lon="8.6581482"><ele>668.6666666666666</ele><time>2026-05-02T11:11:47.508Z</time></trkpt><trkpt lat="40.1551378" lon="8.6580128"><ele>665.0</ele><time>2026-05-02T11:11:48.507Z</time></trkpt><trkpt lat="40.1552767" lon="8.657874"><ele>671.3333333333333</ele><time>2026-05-02T11:11:49.508Z</time></trkpt><trkpt lat="40.1554154" lon="8.6577331"><ele>677.6666666666666</ele><time>2026-05-02T11:11:50.507Z</time></trkpt><trkpt lat="40.1555512" lon="8.6575843"><ele>684.0</ele><time>2026-05-02T11:11:51.507Z</time></trkpt><trkpt lat="40.1556796" lon="8.6574277"><ele>679.3333333333334</ele><time>2026-05-02T11:11:52.507Z</time></trkpt><trkpt lat="40.1558092" lon="8.6572663"><ele>674.6666666666667</ele><time>2026-05-02T11:11:53.508Z</time></trkpt><trkpt lat="40.155944" lon="8.6571106"><ele>670.0</ele><time>2026-05-02T11:11:54.508Z</time></trkpt><trkpt lat="40.1560822" lon="8.6569592"><ele>677.3333333333334</ele><time>2026-05-02T11:11:55.507Z</time></trkpt><trkpt lat="40.1562235" lon="8.6568108"><ele>684.6666666666666</ele><time>2026-05-02T11:11:56.508Z</time></trkpt><trkpt lat="40.1563662" lon="8.656669"><ele>692.0</ele><time>2026-05-02T11:11:57.508Z</time></trkpt><trkpt lat="40.1565154" lon="8.6565412"><ele>688.3333333333333</ele><time>2026-05-02T11:11:58.509Z</time></trkpt><trkpt lat="40.156674" lon="8.6564269"><ele>684.6666666666666</ele><time>2026-05-02T11:11:59.508Z</time></trkpt><trkpt lat="40.1568357" lon="8.6563246"><ele>681.0</ele><time>2026-05-02T11:12:00.508Z</time></trkpt><trkpt lat="40.1569963" lon="8.6562107"><ele>684.6666666666666</ele><time>2026-05-02T11:12:01.508Z</time></trkpt><trkpt lat="40.1571471" lon="8.6560744"><ele>688.3333333333333</ele><time>2026-05-02T11:12:02.508Z</time></trkpt><trkpt lat="40.1572902" lon="8.6559222"><ele>692.0</ele><time>2026-05-02T11:12:03.507Z</time></trkpt><trkpt lat="40.1574269" lon="8.6557615"><ele>692.0</ele><time>2026-05-02T11:12:04.507Z</time></trkpt><trkpt lat="40.1575537" lon="8.6556012"><ele>692.0</ele><time>2026-05-02T11:12:05.508Z</time></trkpt><trkpt lat="40.1576691" lon="8.6554583"><ele>692.0</ele><time>2026-05-02T11:12:06.507Z</time></trkpt><trkpt lat="40.1577658" lon="8.6553472"><ele>692.0</ele><time>2026-05-02T11:12:07.508Z</time></trkpt><trkpt lat="40.1578594" lon="8.6552807"><ele>692.0</ele><time>2026-05-02T11:12:08.508Z</time></trkpt><trkpt lat="40.1579466" lon="8.6552833"><ele>692.0</ele><time>2026-05-02T11:12:09.508Z</time></trkpt><trkpt lat="40.1580304" lon="8.6553381"><ele>692.0</ele><time>2026-05-02T11:12:10.509Z</time></trkpt><trkpt lat="40.1581012" lon="8.6554396"><ele>692.0</ele><time>2026-05-02T11:12:11.507Z</time></trkpt><trkpt lat="40.1581438" lon="8.6555749"><ele>692.0</ele><time>2026-05-02T11:12:12.507Z</time></trkpt><trkpt lat="40.1581486" lon="8.6557392"><ele>692.0</ele><time>2026-05-02T11:12:13.508Z</time></trkpt><trkpt lat="40.1581319" lon="8.6559087"><ele>692.0</ele><time>2026-05-02T11:12:14.508Z</time></trkpt><trkpt lat="40.1580914" lon="8.6561081"><ele>692.0</ele><time>2026-05-02T11:12:15.508Z</time></trkpt><trkpt lat="40.1580589" lon="8.6563181"><ele>689.6666666666666</ele><time>2026-05-02T11:12:16.507Z</time></trkpt><trkpt lat="40.1580319" lon="8.6565352"><ele>687.3333333333334</ele><time>2026-05-02T11:12:17.508Z</time></trkpt><trkpt lat="40.158" lon="8.6567634"><ele>685.0</ele><time>2026-05-02T11:12:18.508Z</time></trkpt><trkpt lat="40.1579696" lon="8.6570035"><ele>685.0</ele><time>2026-05-02T11:12:19.509Z</time></trkpt><trkpt lat="40.1579404" lon="8.6572425"><ele>685.0</ele><time>2026-05-02T11:12:20.508Z</time></trkpt><trkpt lat="40.1579124" lon="8.6574936"><ele>685.0</ele><time>2026-05-02T11:12:21.508Z</time></trkpt><trkpt lat="40.1578815" lon="8.6577445"><ele>686.6666666666667</ele><time>2026-05-02T11:12:22.507Z</time></trkpt><trkpt lat="40.157846" lon="8.6579965"><ele>688.3333333333334</ele><time>2026-05-02T11:12:23.508Z</time></trkpt><trkpt lat="40.1578072" lon="8.658245"><ele>690.0</ele><time>2026-05-02T11:12:24.508Z</time></trkpt><trkpt lat="40.1577698" lon="8.6584945"><ele>692.3333333333334</ele><time>2026-05-02T11:12:25.508Z</time></trkpt><trkpt lat="40.1577342" lon="8.6587335"><ele>694.6666666666667</ele><time>2026-05-02T11:12:26.508Z</time></trkpt><trkpt lat="40.1577031" lon="8.6589507"><ele>697.0</ele><time>2026-05-02T11:12:27.508Z</time></trkpt><trkpt lat="40.1576872" lon="8.6591501"><ele>697.0</ele><time>2026-05-02T11:12:28.507Z</time></trkpt><trkpt lat="40.1577119" lon="8.6593425"><ele>697.0</ele><time>2026-05-02T11:12:29.508Z</time></trkpt><trkpt lat="40.1577646" lon="8.6595338"><ele>697.0</ele><time>2026-05-02T11:12:30.508Z</time></trkpt><trkpt lat="40.1578367" lon="8.6596942"><ele>697.0</ele><time>2026-05-02T11:12:31.509Z</time></trkpt><trkpt lat="40.1579441" lon="8.6598428"><ele>695.6666666666667</ele><time>2026-05-02T11:12:32.508Z</time></trkpt><trkpt lat="40.158073" lon="8.6599765"><ele>694.3333333333334</ele><time>2026-05-02T11:12:33.508Z</time></trkpt><trkpt lat="40.1582107" lon="8.6601039"><ele>693.0</ele><time>2026-05-02T11:12:34.508Z</time></trkpt><trkpt lat="40.1583525" lon="8.6602356"><ele>696.3333333333334</ele><time>2026-05-02T11:12:35.508Z</time></trkpt><trkpt lat="40.1584859" lon="8.6603559"><ele>699.6666666666667</ele><time>2026-05-02T11:12:36.508Z</time></trkpt><trkpt lat="40.1586166" lon="8.6604407"><ele>703.0</ele><time>2026-05-02T11:12:37.509Z</time></trkpt><trkpt lat="40.1587565" lon="8.6604843"><ele>703.0</ele><time>2026-05-02T11:12:38.507Z</time></trkpt><trkpt lat="40.1588988" lon="8.6604697"><ele>703.0</ele><time>2026-05-02T11:12:39.507Z</time></trkpt><trkpt lat="40.1590462" lon="8.6603978"><ele>703.0</ele><time>2026-05-02T11:12:40.508Z</time></trkpt><trkpt lat="40.1591896" lon="8.6603047"><ele>708.3333333333334</ele><time>2026-05-02T11:12:41.507Z</time></trkpt><trkpt lat="40.1593348" lon="8.6601781"><ele>713.6666666666666</ele><time>2026-05-02T11:12:42.508Z</time></trkpt><trkpt lat="40.1594911" lon="8.6600414"><ele>719.0</ele><time>2026-05-02T11:12:43.508Z</time></trkpt><trkpt lat="40.159661" lon="8.6599109"><ele>719.0</ele><time>2026-05-02T11:12:44.507Z</time></trkpt><trkpt lat="40.1598433" lon="8.6597873"><ele>719.0</ele><time>2026-05-02T11:12:45.506Z</time></trkpt><trkpt lat="40.1600195" lon="8.6596873"><ele>719.0</ele><time>2026-05-02T11:12:46.506Z</time></trkpt><trkpt lat="40.1601925" lon="8.6596059"><ele>720.0</ele><time>2026-05-02T11:12:47.509Z</time></trkpt><trkpt lat="40.1603623" lon="8.6595803"><ele>721.0</ele><time>2026-05-02T11:12:48.508Z</time></trkpt><trkpt lat="40.1605347" lon="8.659599"><ele>722.0</ele><time>2026-05-02T11:12:49.508Z</time></trkpt><trkpt lat="40.1606998" lon="8.6596646"><ele>722.0</ele><time>2026-05-02T11:12:50.509Z</time></trkpt><trkpt lat="40.1608511" lon="8.6597758"><ele>722.0</ele><time>2026-05-02T11:12:51.507Z</time></trkpt><trkpt lat="40.16099" lon="8.6599268"><ele>722.0</ele><time>2026-05-02T11:12:52.508Z</time></trkpt><trkpt lat="40.1611088" lon="8.6601145"><ele>720.6666666666666</ele><time>2026-05-02T11:12:53.507Z</time></trkpt><trkpt lat="40.1612175" lon="8.6603067"><ele>719.3333333333334</ele><time>2026-05-02T11:12:54.508Z</time></trkpt><trkpt lat="40.1613448" lon="8.6604813"><ele>718.0</ele><time>2026-05-02T11:12:55.509Z</time></trkpt><trkpt lat="40.1614939" lon="8.6606494"><ele>721.0</ele><time>2026-05-02T11:12:56.508Z</time></trkpt><trkpt lat="40.1616596" lon="8.6607974"><ele>724.0</ele><time>2026-05-02T11:12:57.508Z</time></trkpt><trkpt lat="40.1618293" lon="8.6609365"><ele>727.0</ele><time>2026-05-02T11:12:58.509Z</time></trkpt><trkpt lat="40.1619859" lon="8.6610517"><ele>724.3333333333334</ele><time>2026-05-02T11:12:59.507Z</time></trkpt><trkpt lat="40.1621352" lon="8.6611244"><ele>721.6666666666666</ele><time>2026-05-02T11:13:00.509Z</time></trkpt><trkpt lat="40.1622886" lon="8.661153"><ele>719.0</ele><time>2026-05-02T11:13:01.508Z</time></trkpt><trkpt lat="40.1624439" lon="8.6611238"><ele>723.25</ele><time>2026-05-02T11:13:02.509Z</time></trkpt><trkpt lat="40.1625966" lon="8.6610602"><ele>727.5</ele><time>2026-05-02T11:13:03.507Z</time></trkpt><trkpt lat="40.1627274" lon="8.6609767"><ele>731.75</ele><time>2026-05-02T11:13:04.508Z</time></trkpt><trkpt lat="40.1628453" lon="8.6608733"><ele>736.0</ele><time>2026-05-02T11:13:05.507Z</time></trkpt><trkpt lat="40.1629461" lon="8.6607184"><ele>736.0</ele><time>2026-05-02T11:13:06.508Z</time></trkpt><trkpt lat="40.1630275" lon="8.6605406"><ele>736.0</ele><time>2026-05-02T11:13:07.507Z</time></trkpt><trkpt lat="40.1631104" lon="8.6603584"><ele>736.0</ele><time>2026-05-02T11:13:08.507Z</time></trkpt><trkpt lat="40.1632028" lon="8.6601981"><ele>735.0</ele><time>2026-05-02T11:13:09.508Z</time></trkpt><trkpt lat="40.1632878" lon="8.6600509"><ele>734.0</ele><time>2026-05-02T11:13:10.51Z</time></trkpt><trkpt lat="40.163345" lon="8.6598985"><ele>733.0</ele><time>2026-05-02T11:13:11.507Z</time></trkpt><trkpt lat="40.1633647" lon="8.6597283"><ele>732.0</ele><time>2026-05-02T11:13:12.509Z</time></trkpt><trkpt lat="40.163338" lon="8.659537"><ele>733.3333333333334</ele><time>2026-05-02T11:13:13.508Z</time></trkpt><trkpt lat="40.1632838" lon="8.6593384"><ele>734.6666666666667</ele><time>2026-05-02T11:13:14.508Z</time></trkpt><trkpt lat="40.1632221" lon="8.6591386"><ele>736.0</ele><time>2026-05-02T11:13:15.507Z</time></trkpt><trkpt lat="40.1631618" lon="8.65893"><ele>739.6666666666667</ele><time>2026-05-02T11:13:16.509Z</time></trkpt><trkpt lat="40.163103" lon="8.6587115"><ele>743.3333333333334</ele><time>2026-05-02T11:13:17.508Z</time></trkpt><trkpt lat="40.1630428" lon="8.6584909"><ele>747.0</ele><time>2026-05-02T11:13:18.508Z</time></trkpt><trkpt lat="40.1629849" lon="8.6582849"><ele>747.0</ele><time>2026-05-02T11:13:19.507Z</time></trkpt><trkpt lat="40.1629252" lon="8.6581007"><ele>747.0</ele><time>2026-05-02T11:13:20.508Z</time></trkpt><trkpt lat="40.1628384" lon="8.6579472"><ele>747.0</ele><time>2026-05-02T11:13:21.508Z</time></trkpt><trkpt lat="40.1627181" lon="8.6578184"><ele>746.3333333333334</ele><time>2026-05-02T11:13:22.507Z</time></trkpt><trkpt lat="40.1625728" lon="8.6577228"><ele>745.6666666666667</ele><time>2026-05-02T11:13:23.508Z</time></trkpt><trkpt lat="40.1624192" lon="8.6576537"><ele>745.0</ele><time>2026-05-02T11:13:24.507Z</time></trkpt><trkpt lat="40.1622784" lon="8.6575858"><ele>745.0</ele><time>2026-05-02T11:13:25.509Z</time></trkpt><trkpt lat="40.1621618" lon="8.6574981"><ele>745.0</ele><time>2026-05-02T11:13:26.508Z</time></trkpt><trkpt lat="40.1620656" lon="8.6573877"><ele>745.0</ele><time>2026-05-02T11:13:27.507Z</time></trkpt><trkpt lat="40.1619987" lon="8.6572542"><ele>745.0</ele><time>2026-05-02T11:13:28.508Z</time></trkpt><trkpt lat="40.1619548" lon="8.6571071"><ele>745.5</ele><time>2026-05-02T11:13:29.508Z</time></trkpt><trkpt lat="40.1619465" lon="8.6569463"><ele>746.0</ele><time>2026-05-02T11:13:30.508Z</time></trkpt><trkpt lat="40.1619599" lon="8.6567724"><ele>746.5</ele><time>2026-05-02T11:13:31.507Z</time></trkpt><trkpt lat="40.1619911" lon="8.65659"><ele>747.0</ele><time>2026-05-02T11:13:32.508Z</time></trkpt><trkpt lat="40.1620307" lon="8.6564007"><ele>747.0</ele><time>2026-05-02T11:13:33.507Z</time></trkpt><trkpt lat="40.1620681" lon="8.6561997"><ele>747.0</ele><time>2026-05-02T11:13:34.507Z</time></trkpt><trkpt lat="40.1621052" lon="8.6560018"><ele>747.0</ele><time>2026-05-02T11:13:35.509Z</time></trkpt><trkpt lat="40.1621427" lon="8.6558167"><ele>748.25</ele><time>2026-05-02T11:13:36.508Z</time></trkpt><trkpt lat="40.162186" lon="8.6556425"><ele>749.5</ele><time>2026-05-02T11:13:37.508Z</time></trkpt><trkpt lat="40.1622512" lon="8.655474"><ele>750.75</ele><time>2026-05-02T11:13:38.509Z</time></trkpt><trkpt lat="40.162342" lon="8.6553362"><ele>752.0</ele><time>2026-05-02T11:13:39.509Z</time></trkpt><trkpt lat="40.1624582" lon="8.6552323"><ele>754.0</ele><time>2026-05-02T11:13:40.509Z</time></trkpt><trkpt lat="40.1625888" lon="8.655156"><ele>756.0</ele><time>2026-05-02T11:13:41.508Z</time></trkpt><trkpt lat="40.1627427" lon="8.6551308"><ele>758.0</ele><time>2026-05-02T11:13:42.507Z</time></trkpt><trkpt lat="40.1628991" lon="8.6551232"><ele>758.0</ele><time>2026-05-02T11:13:43.508Z</time></trkpt><trkpt lat="40.1630588" lon="8.6551326"><ele>758.0</ele><time>2026-05-02T11:13:44.507Z</time></trkpt><trkpt lat="40.1632242" lon="8.6551696"><ele>758.0</ele><time>2026-05-02T11:13:45.509Z</time></trkpt><trkpt lat="40.1633888" lon="8.6552297"><ele>756.3333333333333</ele><time>2026-05-02T11:13:46.507Z</time></trkpt><trkpt lat="40.1635534" lon="8.6552979"><ele>754.6666666666666</ele><time>2026-05-02T11:13:47.509Z</time></trkpt><trkpt lat="40.1637191" lon="8.6553614"><ele>753.0</ele><time>2026-05-02T11:13:48.507Z</time></trkpt><trkpt lat="40.1638922" lon="8.6554066"><ele>754.6666666666666</ele><time>2026-05-02T11:13:49.509Z</time></trkpt><trkpt lat="40.1640698" lon="8.6554354"><ele>756.3333333333333</ele><time>2026-05-02T11:13:50.509Z</time></trkpt><trkpt lat="40.1642471" lon="8.6554597"><ele>758.0</ele><time>2026-05-02T11:13:51.507Z</time></trkpt><trkpt lat="40.1644219" lon="8.655479"><ele>758.0</ele><time>2026-05-02T11:13:52.507Z</time></trkpt><trkpt lat="40.1645977" lon="8.6554938"><ele>758.0</ele><time>2026-05-02T11:13:53.509Z</time></trkpt><trkpt lat="40.1647723" lon="8.6555409"><ele>758.0</ele><time>2026-05-02T11:13:54.507Z</time></trkpt><trkpt lat="40.1649399" lon="8.6556193"><ele>761.6666666666666</ele><time>2026-05-02T11:13:55.507Z</time></trkpt><trkpt lat="40.1650945" lon="8.6557292"><ele>765.3333333333333</ele><time>2026-05-02T11:13:56.507Z</time></trkpt><trkpt lat="40.1652467" lon="8.6558562"><ele>769.0</ele><time>2026-05-02T11:13:57.506Z</time></trkpt><trkpt lat="40.1653808" lon="8.6560091"><ele>765.0</ele><time>2026-05-02T11:13:58.508Z</time></trkpt><trkpt lat="40.1654869" lon="8.6561916"><ele>761.0</ele><time>2026-05-02T11:13:59.509Z</time></trkpt><trkpt lat="40.1655711" lon="8.6563837"><ele>757.0</ele><time>2026-05-02T11:14:00.507Z</time></trkpt><trkpt lat="40.165637" lon="8.6565865"><ele>758.25</ele><time>2026-05-02T11:14:01.507Z</time></trkpt><trkpt lat="40.1657057" lon="8.6567668"><ele>759.5</ele><time>2026-05-02T11:14:02.507Z</time></trkpt><trkpt lat="40.1657907" lon="8.6568932"><ele>760.75</ele><time>2026-05-02T11:14:03.508Z</time></trkpt><trkpt lat="40.1658904" lon="8.6569753"><ele>762.0</ele><time>2026-05-02T11:14:04.508Z</time></trkpt><trkpt lat="40.1660193" lon="8.6570045"><ele>762.0</ele><time>2026-05-02T11:14:05.507Z</time></trkpt><trkpt lat="40.1661583" lon="8.6569788"><ele>762.0</ele><time>2026-05-02T11:14:06.506Z</time></trkpt><trkpt lat="40.1662971" lon="8.6569406"><ele>762.0</ele><time>2026-05-02T11:14:07.507Z</time></trkpt><trkpt lat="40.1664479" lon="8.6568924"><ele>762.0</ele><time>2026-05-02T11:14:08.508Z</time></trkpt><trkpt lat="40.1666007" lon="8.6568471"><ele>767.75</ele><time>2026-05-02T11:14:09.507Z</time></trkpt><trkpt lat="40.1667562" lon="8.6568179"><ele>773.5</ele><time>2026-05-02T11:14:10.508Z</time></trkpt><trkpt lat="40.1668964" lon="8.6567992"><ele>779.25</ele><time>2026-05-02T11:14:11.506Z</time></trkpt><trkpt lat="40.1670416" lon="8.656772"><ele>785.0</ele><time>2026-05-02T11:14:12.507Z</time></trkpt><trkpt lat="40.1671914" lon="8.6567498"><ele>785.0</ele><time>2026-05-02T11:14:13.508Z</time></trkpt><trkpt lat="40.1673489" lon="8.6567365"><ele>785.0</ele><time>2026-05-02T11:14:14.507Z</time></trkpt><trkpt lat="40.1675085" lon="8.6567303"><ele>785.0</ele><time>2026-05-02T11:14:15.507Z</time></trkpt><trkpt lat="40.1676702" lon="8.6567488"><ele>786.0</ele><time>2026-05-02T11:14:16.508Z</time></trkpt><trkpt lat="40.167836" lon="8.6567592"><ele>787.0</ele><time>2026-05-02T11:14:17.506Z</time></trkpt><trkpt lat="40.1680031" lon="8.6567462"><ele>788.0</ele><time>2026-05-02T11:14:18.506Z</time></trkpt><trkpt lat="40.1681669" lon="8.6567122"><ele>788.3333333333334</ele><time>2026-05-02T11:14:19.508Z</time></trkpt><trkpt lat="40.168329" lon="8.656662"><ele>788.6666666666667</ele><time>2026-05-02T11:14:20.509Z</time></trkpt><trkpt lat="40.1684907" lon="8.6565914"><ele>789.0</ele><time>2026-05-02T11:14:21.508Z</time></trkpt><trkpt lat="40.1686484" lon="8.6564915"><ele>789.0</ele><time>2026-05-02T11:14:22.508Z</time></trkpt><trkpt lat="40.168801" lon="8.6563841"><ele>789.0</ele><time>2026-05-02T11:14:23.507Z</time></trkpt><trkpt lat="40.1689541" lon="8.6562711"><ele>789.0</ele><time>2026-05-02T11:14:24.507Z</time></trkpt><trkpt lat="40.1691085" lon="8.6561503"><ele>793.3333333333333</ele><time>2026-05-02T11:14:25.508Z</time></trkpt><trkpt lat="40.169261" lon="8.6560151"><ele>797.6666666666666</ele><time>2026-05-02T11:14:26.506Z</time></trkpt><trkpt lat="40.1694059" lon="8.655866"><ele>802.0</ele><time>2026-05-02T11:14:27.507Z</time></trkpt><trkpt lat="40.1695462" lon="8.6557128"><ele>802.0</ele><time>2026-05-02T11:14:28.507Z</time></trkpt><trkpt lat="40.1696848" lon="8.6555627"><ele>802.0</ele><time>2026-05-02T11:14:29.507Z</time></trkpt><trkpt lat="40.1698295" lon="8.6554214"><ele>802.0</ele><time>2026-05-02T11:14:30.508Z</time></trkpt><trkpt lat="40.1699825" lon="8.6552893"><ele>803.6666666666666</ele><time>2026-05-02T11:14:31.506Z</time></trkpt><trkpt lat="40.1701436" lon="8.6551659"><ele>805.3333333333333</ele><time>2026-05-02T11:14:32.507Z</time></trkpt><trkpt lat="40.1703099" lon="8.6550467"><ele>807.0</ele><time>2026-05-02T11:14:33.506Z</time></trkpt><trkpt lat="40.1704843" lon="8.6549426"><ele>807.0</ele><time>2026-05-02T11:14:34.506Z</time></trkpt><trkpt lat="40.1706642" lon="8.6548603"><ele>807.0</ele><time>2026-05-02T11:14:35.506Z</time></trkpt><trkpt lat="40.1708474" lon="8.6547843"><ele>807.0</ele><time>2026-05-02T11:14:36.507Z</time></trkpt><trkpt lat="40.1710281" lon="8.6546974"><ele>804.6666666666667</ele><time>2026-05-02T11:14:37.506Z</time></trkpt><trkpt lat="40.1712028" lon="8.6546063"><ele>802.3333333333334</ele><time>2026-05-02T11:14:38.508Z</time></trkpt><trkpt lat="40.1713652" lon="8.6545245"><ele>800.0</ele><time>2026-05-02T11:14:39.506Z</time></trkpt><trkpt lat="40.1715293" lon="8.6544488"><ele>804.6666666666667</ele><time>2026-05-02T11:14:40.507Z</time></trkpt><trkpt lat="40.1716846" lon="8.654368"><ele>809.3333333333333</ele><time>2026-05-02T11:14:41.507Z</time></trkpt><trkpt lat="40.1718295" lon="8.6542714"><ele>814.0</ele><time>2026-05-02T11:14:42.507Z</time></trkpt><trkpt lat="40.1719672" lon="8.6541514"><ele>814.0</ele><time>2026-05-02T11:14:43.508Z</time></trkpt><trkpt lat="40.1720849" lon="8.653992"><ele>814.0</ele><time>2026-05-02T11:14:44.507Z</time></trkpt><trkpt lat="40.1721742" lon="8.6538065"><ele>814.0</ele><time>2026-05-02T11:14:45.507Z</time></trkpt><trkpt lat="40.1722344" lon="8.6535959"><ele>816.6666666666666</ele><time>2026-05-02T11:14:46.507Z</time></trkpt><trkpt lat="40.1722665" lon="8.6533778"><ele>819.3333333333333</ele><time>2026-05-02T11:14:47.507Z</time></trkpt><trkpt lat="40.1722647" lon="8.6531528"><ele>822.0</ele><time>2026-05-02T11:14:48.507Z</time></trkpt><trkpt lat="40.1722367" lon="8.6529223"><ele>822.6666666666667</ele><time>2026-05-02T11:14:49.507Z</time></trkpt><trkpt lat="40.172195" lon="8.6526894"><ele>823.3333333333334</ele><time>2026-05-02T11:14:50.506Z</time></trkpt><trkpt lat="40.1721351" lon="8.6524604"><ele>824.0</ele><time>2026-05-02T11:14:51.506Z</time></trkpt><trkpt lat="40.1720633" lon="8.6522362"><ele>824.0</ele><time>2026-05-02T11:14:52.507Z</time></trkpt><trkpt lat="40.1719915" lon="8.6520134"><ele>824.0</ele><time>2026-05-02T11:14:53.506Z</time></trkpt><trkpt lat="40.1719183" lon="8.6517853"><ele>824.0</ele><time>2026-05-02T11:14:54.507Z</time></trkpt><trkpt lat="40.171843" lon="8.6515568"><ele>824.0</ele><time>2026-05-02T11:14:55.507Z</time></trkpt><trkpt lat="40.1717625" lon="8.651323"><ele>824.0</ele><time>2026-05-02T11:14:56.506Z</time></trkpt><trkpt lat="40.1716841" lon="8.6510799"><ele>824.0</ele><time>2026-05-02T11:14:57.507Z</time></trkpt><trkpt lat="40.1716033" lon="8.6508307"><ele>825.3333333333334</ele><time>2026-05-02T11:14:58.507Z</time></trkpt><trkpt lat="40.1715221" lon="8.6505731"><ele>826.6666666666667</ele><time>2026-05-02T11:14:59.507Z</time></trkpt><trkpt lat="40.1714414" lon="8.6503163"><ele>828.0</ele><time>2026-05-02T11:15:00.508Z</time></trkpt><trkpt lat="40.1713577" lon="8.65006"><ele>828.0</ele><time>2026-05-02T11:15:01.507Z</time></trkpt><trkpt lat="40.1712803" lon="8.6498134"><ele>828.0</ele><time>2026-05-02T11:15:02.507Z</time></trkpt><trkpt lat="40.1712098" lon="8.6495867"><ele>828.0</ele><time>2026-05-02T11:15:03.508Z</time></trkpt><trkpt lat="40.1711432" lon="8.6493719"><ele>827.3333333333333</ele><time>2026-05-02T11:15:04.507Z</time></trkpt><trkpt lat="40.1710728" lon="8.6491528"><ele>826.6666666666666</ele><time>2026-05-02T11:15:05.507Z</time></trkpt><trkpt lat="40.1710023" lon="8.6489375"><ele>826.0</ele><time>2026-05-02T11:15:06.508Z</time></trkpt><trkpt lat="40.1709294" lon="8.6487211"><ele>827.0</ele><time>2026-05-02T11:15:07.507Z</time></trkpt><trkpt lat="40.170867" lon="8.648503"><ele>828.0</ele><time>2026-05-02T11:15:08.507Z</time></trkpt><trkpt lat="40.1708208" lon="8.6482748"><ele>829.0</ele><time>2026-05-02T11:15:09.507Z</time></trkpt><trkpt lat="40.1707857" lon="8.6480384"><ele>829.0</ele><time>2026-05-02T11:15:10.507Z</time></trkpt><trkpt lat="40.1707543" lon="8.6477991"><ele>829.0</ele><time>2026-05-02T11:15:11.507Z</time></trkpt><trkpt lat="40.1707253" lon="8.6475548"><ele>829.0</ele><time>2026-05-02T11:15:12.507Z</time></trkpt><trkpt lat="40.1706929" lon="8.6473101"><ele>832.0</ele><time>2026-05-02T11:15:13.507Z</time></trkpt><trkpt lat="40.170666" lon="8.6470597"><ele>835.0</ele><time>2026-05-02T11:15:14.507Z</time></trkpt><trkpt lat="40.1706515" lon="8.646807"><ele>838.0</ele><time>2026-05-02T11:15:15.507Z</time></trkpt><trkpt lat="40.1706539" lon="8.6465516"><ele>838.0</ele><time>2026-05-02T11:15:16.507Z</time></trkpt><trkpt lat="40.1706773" lon="8.6462962"><ele>838.0</ele><time>2026-05-02T11:15:17.507Z</time></trkpt><trkpt lat="40.1707164" lon="8.6460437"><ele>838.0</ele><time>2026-05-02T11:15:18.507Z</time></trkpt><trkpt lat="40.1707615" lon="8.6457921"><ele>838.3333333333333</ele><time>2026-05-02T11:15:19.507Z</time></trkpt><trkpt lat="40.1708111" lon="8.6455418"><ele>838.6666666666667</ele><time>2026-05-02T11:15:20.508Z</time></trkpt><trkpt lat="40.170855" lon="8.6452903"><ele>839.0</ele><time>2026-05-02T11:15:21.507Z</time></trkpt><trkpt lat="40.1708855" lon="8.6450342"><ele>839.0</ele><time>2026-05-02T11:15:22.506Z</time></trkpt><trkpt lat="40.1708989" lon="8.6447796"><ele>839.0</ele><time>2026-05-02T11:15:23.506Z</time></trkpt><trkpt lat="40.1708951" lon="8.6445399"><ele>839.0</ele><time>2026-05-02T11:15:24.507Z</time></trkpt><trkpt lat="40.1708787" lon="8.6443372"><ele>839.8000000000001</ele><time>2026-05-02T11:15:25.507Z</time></trkpt><trkpt lat="40.1708693" lon="8.6441684"><ele>840.6</ele><time>2026-05-02T11:15:26.507Z</time></trkpt><trkpt lat="40.1708627" lon="8.6440355"><ele>841.4</ele><time>2026-05-02T11:15:27.507Z</time></trkpt><trkpt lat="40.1708514" lon="8.6439367"><ele>842.2</ele><time>2026-05-02T11:15:28.508Z</time></trkpt><trkpt lat="40.1707668" lon="8.6438956"><ele>843.0</ele><time>2026-05-02T11:15:31.506Z</time></trkpt><trkpt lat="40.1707058" lon="8.6439322"><ele>844.4</ele><time>2026-05-02T11:15:32.506Z</time></trkpt><trkpt lat="40.170633" lon="8.6439935"><ele>845.8</ele><time>2026-05-02T11:15:33.507Z</time></trkpt><trkpt lat="40.1705545" lon="8.6440696"><ele>847.2</ele><time>2026-05-02T11:15:34.507Z</time></trkpt><trkpt lat="40.1704712" lon="8.6441418"><ele>848.6</ele><time>2026-05-02T11:15:35.507Z</time></trkpt><trkpt lat="40.1703932" lon="8.6441897"><ele>850.0</ele><time>2026-05-02T11:15:36.506Z</time></trkpt><trkpt lat="40.1703025" lon="8.6442152"><ele>850.0</ele><time>2026-05-02T11:15:37.506Z</time></trkpt><trkpt lat="40.1701999" lon="8.6442251"><ele>850.0</ele><time>2026-05-02T11:15:38.507Z</time></trkpt><trkpt lat="40.1701018" lon="8.6442336"><ele>850.0</ele><time>2026-05-02T11:15:39.507Z</time></trkpt><trkpt lat="40.1699904" lon="8.6442382"><ele>850.0</ele><time>2026-05-02T11:15:40.508Z</time></trkpt><trkpt lat="40.169871" lon="8.6442431"><ele>850.0</ele><time>2026-05-02T11:15:41.506Z</time></trkpt><trkpt lat="40.1697469" lon="8.6442533"><ele>852.0</ele><time>2026-05-02T11:15:42.506Z</time></trkpt><trkpt lat="40.1696246" lon="8.6442581"><ele>854.0</ele><time>2026-05-02T11:15:43.507Z</time></trkpt><trkpt lat="40.1695024" lon="8.6442603"><ele>856.0</ele><time>2026-05-02T11:15:44.506Z</time></trkpt><trkpt lat="40.1693785" lon="8.644268"><ele>858.0</ele><time>2026-05-02T11:15:45.506Z</time></trkpt><trkpt lat="40.1692534" lon="8.6442799"><ele>858.0</ele><time>2026-05-02T11:15:46.507Z</time></trkpt><trkpt lat="40.169127" lon="8.6442863"><ele>858.0</ele><time>2026-05-02T11:15:47.506Z</time></trkpt><trkpt lat="40.1690008" lon="8.6442887"><ele>858.0</ele><time>2026-05-02T11:15:48.508Z</time></trkpt><trkpt lat="40.1688693" lon="8.6442869"><ele>858.0</ele><time>2026-05-02T11:15:49.507Z</time></trkpt><trkpt lat="40.1687363" lon="8.6442868"><ele>860.25</ele><time>2026-05-02T11:15:50.507Z</time></trkpt><trkpt lat="40.1686066" lon="8.6442803"><ele>862.5</ele><time>2026-05-02T11:15:51.508Z</time></trkpt><trkpt lat="40.1684801" lon="8.6442752"><ele>864.75</ele><time>2026-05-02T11:15:52.507Z</time></trkpt><trkpt lat="40.1683557" lon="8.6442692"><ele>867.0</ele><time>2026-05-02T11:15:53.508Z</time></trkpt><trkpt lat="40.168236" lon="8.6442627"><ele>868.75</ele><time>2026-05-02T11:15:54.508Z</time></trkpt><trkpt lat="40.1681137" lon="8.6442568"><ele>870.5</ele><time>2026-05-02T11:15:55.507Z</time></trkpt><trkpt lat="40.1679929" lon="8.6442596"><ele>872.25</ele><time>2026-05-02T11:15:56.506Z</time></trkpt><trkpt lat="40.1678769" lon="8.6442801"><ele>874.0</ele><time>2026-05-02T11:15:57.507Z</time></trkpt><trkpt lat="40.1677572" lon="8.6443093"><ele>874.0</ele><time>2026-05-02T11:15:58.507Z</time></trkpt><trkpt lat="40.1676372" lon="8.644347"><ele>874.0</ele><time>2026-05-02T11:15:59.507Z</time></trkpt><trkpt lat="40.167512" lon="8.6443825"><ele>874.0</ele><time>2026-05-02T11:16:00.507Z</time></trkpt><trkpt lat="40.1673826" lon="8.6444221"><ele>874.0</ele><time>2026-05-02T11:16:01.506Z</time></trkpt><trkpt lat="40.167254" lon="8.6444639"><ele>874.0</ele><time>2026-05-02T11:16:02.507Z</time></trkpt><trkpt lat="40.1671232" lon="8.644502"><ele>874.0</ele><time>2026-05-02T11:16:03.507Z</time></trkpt><trkpt lat="40.1669907" lon="8.6445332"><ele>874.0</ele><time>2026-05-02T11:16:04.507Z</time></trkpt><trkpt lat="40.1668594" lon="8.6445448"><ele>874.0</ele><time>2026-05-02T11:16:05.506Z</time></trkpt><trkpt lat="40.1667262" lon="8.6445449"><ele>874.0</ele><time>2026-05-02T11:16:06.507Z</time></trkpt><trkpt lat="40.1665934" lon="8.6445383"><ele>874.0</ele><time>2026-05-02T11:16:07.506Z</time></trkpt><trkpt lat="40.166458" lon="8.6445242"><ele>874.0</ele><time>2026-05-02T11:16:08.507Z</time></trkpt><trkpt lat="40.1663207" lon="8.6445103"><ele>874.0</ele><time>2026-05-02T11:16:09.507Z</time></trkpt><trkpt lat="40.1661841" lon="8.6444972"><ele>875.0</ele><time>2026-05-02T11:16:10.507Z</time></trkpt><trkpt lat="40.1660517" lon="8.6444863"><ele>876.0</ele><time>2026-05-02T11:16:11.507Z</time></trkpt><trkpt lat="40.1659246" lon="8.6444706"><ele>877.0</ele><time>2026-05-02T11:16:12.506Z</time></trkpt><trkpt lat="40.1658127" lon="8.6444541"><ele>878.0</ele><time>2026-05-02T11:16:13.506Z</time></trkpt><trkpt lat="40.1657216" lon="8.644438"><ele>879.0</ele><time>2026-05-02T11:16:14.506Z</time></trkpt><trkpt lat="40.1656226" lon="8.6443824"><ele>880.0</ele><time>2026-05-02T11:16:16.507Z</time></trkpt><trkpt lat="40.1655982" lon="8.6442713"><ele>881.0</ele><time>2026-05-02T11:16:18.508Z</time></trkpt><trkpt lat="40.1656672" lon="8.6441263"><ele>882.0</ele><time>2026-05-02T11:16:20.508Z</time></trkpt><trkpt lat="40.1657438" lon="8.6440409"><ele>883.0</ele><time>2026-05-02T11:16:21.508Z</time></trkpt><trkpt lat="40.1658298" lon="8.6439494"><ele>883.0</ele><time>2026-05-02T11:16:22.508Z</time></trkpt><trkpt lat="40.1659186" lon="8.6438513"><ele>883.0</ele><time>2026-05-02T11:16:23.507Z</time></trkpt><trkpt lat="40.1660003" lon="8.6437595"><ele>883.0</ele><time>2026-05-02T11:16:24.507Z</time></trkpt><trkpt lat="40.1660836" lon="8.6436631"><ele>883.0</ele><time>2026-05-02T11:16:25.508Z</time></trkpt><trkpt lat="40.1661473" lon="8.6435697"><ele>883.0</ele><time>2026-05-02T11:16:26.507Z</time></trkpt><trkpt lat="40.1661946" lon="8.6434736"><ele>884.4999999999999</ele><time>2026-05-02T11:16:27.507Z</time></trkpt><trkpt lat="40.1662279" lon="8.6433588"><ele>886.0</ele><time>2026-05-02T11:16:28.506Z</time></trkpt><trkpt lat="40.1662401" lon="8.6432358"><ele>887.5</ele><time>2026-05-02T11:16:29.508Z</time></trkpt><trkpt lat="40.166237" lon="8.64313"><ele>889.0</ele><time>2026-05-02T11:16:30.508Z</time></trkpt><trkpt lat="40.1662112" lon="8.6430277"><ele>890.4999999999999</ele><time>2026-05-02T11:16:31.508Z</time></trkpt><trkpt lat="40.1661615" lon="8.6429273"><ele>892.0</ele><time>2026-05-02T11:16:32.507Z</time></trkpt><trkpt lat="40.1660913" lon="8.6428196"><ele>892.75</ele><time>2026-05-02T11:16:33.508Z</time></trkpt><trkpt lat="40.16601" lon="8.6427039"><ele>893.5</ele><time>2026-05-02T11:16:34.508Z</time></trkpt><trkpt lat="40.1659206" lon="8.6425896"><ele>894.25</ele><time>2026-05-02T11:16:35.507Z</time></trkpt><trkpt lat="40.1658179" lon="8.6424759"><ele>895.0</ele><time>2026-05-02T11:16:36.507Z</time></trkpt><trkpt lat="40.1657075" lon="8.6423605"><ele>896.0</ele><time>2026-05-02T11:16:37.506Z</time></trkpt><trkpt lat="40.1656063" lon="8.6422452"><ele>897.0</ele><time>2026-05-02T11:16:38.507Z</time></trkpt><trkpt lat="40.165504" lon="8.6421281"><ele>898.0</ele><time>2026-05-02T11:16:39.507Z</time></trkpt><trkpt lat="40.1654033" lon="8.6420167"><ele>899.0</ele><time>2026-05-02T11:16:40.507Z</time></trkpt><trkpt lat="40.1653018" lon="8.6419047"><ele>899.5</ele><time>2026-05-02T11:16:41.506Z</time></trkpt><trkpt lat="40.1651941" lon="8.6417783"><ele>900.0</ele><time>2026-05-02T11:16:42.506Z</time></trkpt><trkpt lat="40.1650824" lon="8.6416508"><ele>900.5</ele><time>2026-05-02T11:16:43.506Z</time></trkpt><trkpt lat="40.1649697" lon="8.64153"><ele>901.0</ele><time>2026-05-02T11:16:44.507Z</time></trkpt><trkpt lat="40.1648562" lon="8.6414057"><ele>902.1999999999999</ele><time>2026-05-02T11:16:45.507Z</time></trkpt><trkpt lat="40.1647556" lon="8.6413012"><ele>903.3999999999999</ele><time>2026-05-02T11:16:46.508Z</time></trkpt><trkpt lat="40.1646723" lon="8.6412144"><ele>904.6</ele><time>2026-05-02T11:16:47.508Z</time></trkpt><trkpt lat="40.1645961" lon="8.6411407"><ele>905.8</ele><time>2026-05-02T11:16:48.508Z</time></trkpt><trkpt lat="40.164535" lon="8.6410771"><ele>907.0</ele><time>2026-05-02T11:16:49.508Z</time></trkpt><trkpt lat="40.1644725" lon="8.6410152"><ele>907.4000000000001</ele><time>2026-05-02T11:16:50.506Z</time></trkpt><trkpt lat="40.1644002" lon="8.6409426"><ele>907.8000000000001</ele><time>2026-05-02T11:16:51.508Z</time></trkpt><trkpt lat="40.1643327" lon="8.6408719"><ele>908.2</ele><time>2026-05-02T11:16:52.506Z</time></trkpt><trkpt lat="40.1642528" lon="8.6407919"><ele>908.6</ele><time>2026-05-02T11:16:53.506Z</time></trkpt><trkpt lat="40.1641656" lon="8.6406895"><ele>909.0</ele><time>2026-05-02T11:16:54.508Z</time></trkpt><trkpt lat="40.164079" lon="8.6405829"><ele>910.25</ele><time>2026-05-02T11:16:55.506Z</time></trkpt><trkpt lat="40.1639869" lon="8.6404754"><ele>911.5</ele><time>2026-05-02T11:16:56.506Z</time></trkpt><trkpt lat="40.1638906" lon="8.6403697"><ele>912.75</ele><time>2026-05-02T11:16:57.506Z</time></trkpt><trkpt lat="40.1637972" lon="8.6402629"><ele>914.0</ele><time>2026-05-02T11:16:58.507Z</time></trkpt><trkpt lat="40.1637062" lon="8.640155"><ele>914.0</ele><time>2026-05-02T11:16:59.508Z</time></trkpt><trkpt lat="40.1636142" lon="8.6400471"><ele>914.0</ele><time>2026-05-02T11:17:00.507Z</time></trkpt><trkpt lat="40.1635144" lon="8.6399318"><ele>914.0</ele><time>2026-05-02T11:17:01.507Z</time></trkpt><trkpt lat="40.1634193" lon="8.6398245"><ele>914.0</ele><time>2026-05-02T11:17:02.506Z</time></trkpt><trkpt lat="40.1633248" lon="8.6397175"><ele>914.0</ele><time>2026-05-02T11:17:03.506Z</time></trkpt><trkpt lat="40.1632229" lon="8.6396002"><ele>914.0</ele><time>2026-05-02T11:17:04.507Z</time></trkpt><trkpt lat="40.1631278" lon="8.6394808"><ele>914.0</ele><time>2026-05-02T11:17:05.507Z</time></trkpt><trkpt lat="40.1630289" lon="8.6393629"><ele>914.0</ele><time>2026-05-02T11:17:06.506Z</time></trkpt><trkpt lat="40.1629241" lon="8.6392356"><ele>914.5</ele><time>2026-05-02T11:17:07.506Z</time></trkpt><trkpt lat="40.162821" lon="8.6391134"><ele>915.0</ele><time>2026-05-02T11:17:08.507Z</time></trkpt><trkpt lat="40.1627085" lon="8.6389937"><ele>915.5</ele><time>2026-05-02T11:17:09.507Z</time></trkpt><trkpt lat="40.1625989" lon="8.6388732"><ele>916.0</ele><time>2026-05-02T11:17:10.506Z</time></trkpt><trkpt lat="40.1624876" lon="8.6387548"><ele>916.0</ele><time>2026-05-02T11:17:11.505Z</time></trkpt><trkpt lat="40.1623783" lon="8.6386369"><ele>916.0</ele><time>2026-05-02T11:17:12.506Z</time></trkpt><trkpt lat="40.16227" lon="8.638523"><ele>916.0</ele><time>2026-05-02T11:17:13.507Z</time></trkpt><trkpt lat="40.1621639" lon="8.638412"><ele>916.0</ele><time>2026-05-02T11:17:14.507Z</time></trkpt><trkpt lat="40.1620571" lon="8.6383011"><ele>917.5</ele><time>2026-05-02T11:17:15.506Z</time></trkpt><trkpt lat="40.161951" lon="8.6381829"><ele>919.0</ele><time>2026-05-02T11:17:16.505Z</time></trkpt><trkpt lat="40.1618463" lon="8.638062"><ele>920.5</ele><time>2026-05-02T11:17:17.507Z</time></trkpt><trkpt lat="40.1617399" lon="8.6379397"><ele>922.0</ele><time>2026-05-02T11:17:18.507Z</time></trkpt><trkpt lat="40.1616323" lon="8.6378154"><ele>923.25</ele><time>2026-05-02T11:17:19.506Z</time></trkpt><trkpt lat="40.1615241" lon="8.6376949"><ele>924.5</ele><time>2026-05-02T11:17:20.507Z</time></trkpt><trkpt lat="40.1614202" lon="8.6375795"><ele>925.75</ele><time>2026-05-02T11:17:21.506Z</time></trkpt><trkpt lat="40.1613215" lon="8.6374666"><ele>927.0</ele><time>2026-05-02T11:17:22.507Z</time></trkpt><trkpt lat="40.1612306" lon="8.6373618"><ele>927.0</ele><time>2026-05-02T11:17:23.505Z</time></trkpt><trkpt lat="40.1611488" lon="8.637273"><ele>927.0</ele><time>2026-05-02T11:17:24.507Z</time></trkpt><trkpt lat="40.1610723" lon="8.6371798"><ele>927.0</ele><time>2026-05-02T11:17:25.507Z</time></trkpt><trkpt lat="40.1609919" lon="8.6370967"><ele>927.0</ele><time>2026-05-02T11:17:26.507Z</time></trkpt><trkpt lat="40.1609113" lon="8.6370113"><ele>927.0</ele><time>2026-05-02T11:17:27.505Z</time></trkpt><trkpt lat="40.1608435" lon="8.6369187"><ele>927.75</ele><time>2026-05-02T11:17:28.506Z</time></trkpt><trkpt lat="40.1607611" lon="8.6368189"><ele>928.5</ele><time>2026-05-02T11:17:29.506Z</time></trkpt><trkpt lat="40.1606679" lon="8.636719"><ele>929.25</ele><time>2026-05-02T11:17:30.505Z</time></trkpt><trkpt lat="40.1605746" lon="8.6366193"><ele>930.0</ele><time>2026-05-02T11:17:31.506Z</time></trkpt><trkpt lat="40.1604855" lon="8.6365163"><ele>931.25</ele><time>2026-05-02T11:17:32.506Z</time></trkpt><trkpt lat="40.1603891" lon="8.6364137"><ele>932.5</ele><time>2026-05-02T11:17:33.505Z</time></trkpt><trkpt lat="40.1602887" lon="8.6363148"><ele>933.75</ele><time>2026-05-02T11:17:34.506Z</time></trkpt><trkpt lat="40.1601754" lon="8.6362155"><ele>935.0</ele><time>2026-05-02T11:17:35.506Z</time></trkpt><trkpt lat="40.1600661" lon="8.6361173"><ele>935.0</ele><time>2026-05-02T11:17:36.507Z</time></trkpt><trkpt lat="40.1599483" lon="8.6360124"><ele>935.0</ele><time>2026-05-02T11:17:37.507Z</time></trkpt><trkpt lat="40.1598356" lon="8.6359118"><ele>935.0</ele><time>2026-05-02T11:17:38.507Z</time></trkpt><trkpt lat="40.1597254" lon="8.6358129"><ele>935.0</ele><time>2026-05-02T11:17:39.506Z</time></trkpt><trkpt lat="40.1596147" lon="8.6357127"><ele>935.25</ele><time>2026-05-02T11:17:40.507Z</time></trkpt><trkpt lat="40.1595089" lon="8.6356207"><ele>935.5</ele><time>2026-05-02T11:17:41.507Z</time></trkpt><trkpt lat="40.1594044" lon="8.6355098"><ele>935.75</ele><time>2026-05-02T11:17:42.506Z</time></trkpt><trkpt lat="40.1593059" lon="8.6353873"><ele>936.0</ele><time>2026-05-02T11:17:43.507Z</time></trkpt><trkpt lat="40.1592086" lon="8.6352602"><ele>936.75</ele><time>2026-05-02T11:17:44.508Z</time></trkpt><trkpt lat="40.1591126" lon="8.6351322"><ele>937.5</ele><time>2026-05-02T11:17:45.508Z</time></trkpt><trkpt lat="40.1590173" lon="8.6349949"><ele>938.25</ele><time>2026-05-02T11:17:46.507Z</time></trkpt><trkpt lat="40.1589249" lon="8.6348649"><ele>939.0</ele><time>2026-05-02T11:17:47.508Z</time></trkpt><trkpt lat="40.1588426" lon="8.6347345"><ele>939.0</ele><time>2026-05-02T11:17:48.506Z</time></trkpt><trkpt lat="40.1587589" lon="8.6346001"><ele>939.0</ele><time>2026-05-02T11:17:49.507Z</time></trkpt><trkpt lat="40.158669" lon="8.634465"><ele>939.0</ele><time>2026-05-02T11:17:50.506Z</time></trkpt><trkpt lat="40.1585796" lon="8.6343268"><ele>939.0</ele><time>2026-05-02T11:17:51.508Z</time></trkpt><trkpt lat="40.1584944" lon="8.6341869"><ele>940.0</ele><time>2026-05-02T11:17:52.508Z</time></trkpt><trkpt lat="40.1584179" lon="8.6340483"><ele>941.0</ele><time>2026-05-02T11:17:53.507Z</time></trkpt><trkpt lat="40.1583499" lon="8.6339067"><ele>942.0</ele><time>2026-05-02T11:17:54.507Z</time></trkpt><trkpt lat="40.1582833" lon="8.6337687"><ele>943.0</ele><time>2026-05-02T11:17:55.507Z</time></trkpt><trkpt lat="40.1582166" lon="8.6336261"><ele>942.75</ele><time>2026-05-02T11:17:56.506Z</time></trkpt><trkpt lat="40.1581529" lon="8.6334874"><ele>942.5</ele><time>2026-05-02T11:17:57.507Z</time></trkpt><trkpt lat="40.1580826" lon="8.63333"><ele>942.25</ele><time>2026-05-02T11:17:58.507Z</time></trkpt><trkpt lat="40.1580128" lon="8.6331772"><ele>942.0</ele><time>2026-05-02T11:17:59.506Z</time></trkpt><trkpt lat="40.1579442" lon="8.6330185"><ele>942.0</ele><time>2026-05-02T11:18:00.506Z</time></trkpt><trkpt lat="40.1578755" lon="8.6328565"><ele>942.0</ele><time>2026-05-02T11:18:01.506Z</time></trkpt><trkpt lat="40.1578032" lon="8.6326887"><ele>942.0</ele><time>2026-05-02T11:18:02.507Z</time></trkpt><trkpt lat="40.1577292" lon="8.6325161"><ele>942.0</ele><time>2026-05-02T11:18:03.507Z</time></trkpt><trkpt lat="40.1576577" lon="8.6323452"><ele>943.5</ele><time>2026-05-02T11:18:04.506Z</time></trkpt><trkpt lat="40.1575896" lon="8.6321824"><ele>945.0</ele><time>2026-05-02T11:18:05.508Z</time></trkpt><trkpt lat="40.1575219" lon="8.6320162"><ele>946.5</ele><time>2026-05-02T11:18:06.507Z</time></trkpt><trkpt lat="40.1574574" lon="8.6318477"><ele>948.0</ele><time>2026-05-02T11:18:07.507Z</time></trkpt><trkpt lat="40.1574006" lon="8.6316879"><ele>947.75</ele><time>2026-05-02T11:18:08.507Z</time></trkpt><trkpt lat="40.1573457" lon="8.6315445"><ele>947.5</ele><time>2026-05-02T11:18:09.506Z</time></trkpt><trkpt lat="40.1572898" lon="8.6314043"><ele>947.25</ele><time>2026-05-02T11:18:10.506Z</time></trkpt><trkpt lat="40.1572368" lon="8.6312731"><ele>947.0</ele><time>2026-05-02T11:18:11.507Z</time></trkpt><trkpt lat="40.1571843" lon="8.6311364"><ele>947.0</ele><time>2026-05-02T11:18:12.507Z</time></trkpt><trkpt lat="40.1571392" lon="8.6309921"><ele>947.0</ele><time>2026-05-02T11:18:13.507Z</time></trkpt><trkpt lat="40.1571012" lon="8.6308357"><ele>947.0</ele><time>2026-05-02T11:18:14.506Z</time></trkpt><trkpt lat="40.1570643" lon="8.63068"><ele>947.0</ele><time>2026-05-02T11:18:15.506Z</time></trkpt><trkpt lat="40.1570349" lon="8.6305422"><ele>947.0</ele><time>2026-05-02T11:18:16.506Z</time></trkpt><trkpt lat="40.1570157" lon="8.6304152"><ele>947.0</ele><time>2026-05-02T11:18:17.507Z</time></trkpt><trkpt lat="40.1570048" lon="8.630285"><ele>947.0</ele><time>2026-05-02T11:18:18.507Z</time></trkpt><trkpt lat="40.1569957" lon="8.6301504"><ele>947.0</ele><time>2026-05-02T11:18:19.508Z</time></trkpt><trkpt lat="40.1569892" lon="8.6300183"><ele>947.0</ele><time>2026-05-02T11:18:20.508Z</time></trkpt><trkpt lat="40.1569876" lon="8.6298869"><ele>947.8333333333334</ele><time>2026-05-02T11:18:21.507Z</time></trkpt><trkpt lat="40.1569843" lon="8.6297847"><ele>948.6666666666667</ele><time>2026-05-02T11:18:22.507Z</time></trkpt><trkpt lat="40.1569744" lon="8.6296651"><ele>949.5</ele><time>2026-05-02T11:18:24.508Z</time></trkpt><trkpt lat="40.1569057" lon="8.6296695"><ele>950.3333333333333</ele><time>2026-05-02T11:19:39.505Z</time></trkpt><trkpt lat="40.1568428" lon="8.6297259"><ele>951.1666666666666</ele><time>2026-05-02T11:19:43.507Z</time></trkpt><trkpt lat="40.1567865" lon="8.6297727"><ele>952.0</ele><time>2026-05-02T11:19:46.506Z</time></trkpt><trkpt lat="40.1567101" lon="8.6298403"><ele>951.9999999999999</ele><time>2026-05-02T11:19:49.505Z</time></trkpt><trkpt lat="40.1566494" lon="8.6298907"><ele>952.0</ele><time>2026-05-02T11:19:51.505Z</time></trkpt><trkpt lat="40.1565613" lon="8.6299585"><ele>952.0</ele><time>2026-05-02T11:19:53.506Z</time></trkpt><trkpt lat="40.1564577" lon="8.6300423"><ele>952.0</ele><time>2026-05-02T11:19:55.505Z</time></trkpt><trkpt lat="40.1563918" lon="8.630095"><ele>951.9999999999999</ele><time>2026-05-02T11:19:56.507Z</time></trkpt><trkpt lat="40.1563308" lon="8.6301454"><ele>952.0</ele><time>2026-05-02T11:19:57.507Z</time></trkpt><trkpt lat="40.1562621" lon="8.6302039"><ele>950.4000000000001</ele><time>2026-05-02T11:19:58.505Z</time></trkpt><trkpt lat="40.1561904" lon="8.6302683"><ele>948.8000000000001</ele><time>2026-05-02T11:19:59.505Z</time></trkpt><trkpt lat="40.156114" lon="8.630333"><ele>947.2</ele><time>2026-05-02T11:20:00.506Z</time></trkpt><trkpt lat="40.1560342" lon="8.6303979"><ele>945.6</ele><time>2026-05-02T11:20:01.506Z</time></trkpt><trkpt lat="40.1559525" lon="8.6304614"><ele>944.0</ele><time>2026-05-02T11:20:02.505Z</time></trkpt><trkpt lat="40.1558771" lon="8.6305208"><ele>943.5000000000001</ele><time>2026-05-02T11:20:03.506Z</time></trkpt><trkpt lat="40.155801" lon="8.6305832"><ele>943.0</ele><time>2026-05-02T11:20:04.506Z</time></trkpt><trkpt lat="40.1557317" lon="8.6306412"><ele>942.5</ele><time>2026-05-02T11:20:05.507Z</time></trkpt><trkpt lat="40.1556628" lon="8.6306949"><ele>942.0</ele><time>2026-05-02T11:20:06.506Z</time></trkpt><trkpt lat="40.1555984" lon="8.6307443"><ele>941.5000000000001</ele><time>2026-05-02T11:20:07.506Z</time></trkpt><trkpt lat="40.1555304" lon="8.6307938"><ele>941.0</ele><time>2026-05-02T11:20:08.506Z</time></trkpt><trkpt lat="40.1554619" lon="8.630843"><ele>940.1999999999999</ele><time>2026-05-02T11:20:09.507Z</time></trkpt><trkpt lat="40.1553876" lon="8.6308897"><ele>939.3999999999999</ele><time>2026-05-02T11:20:10.506Z</time></trkpt><trkpt lat="40.1553098" lon="8.6309491"><ele>938.6</ele><time>2026-05-02T11:20:11.507Z</time></trkpt><trkpt lat="40.1552247" lon="8.6310148"><ele>937.8</ele><time>2026-05-02T11:20:12.506Z</time></trkpt><trkpt lat="40.1551417" lon="8.6310709"><ele>937.0</ele><time>2026-05-02T11:20:13.505Z</time></trkpt><trkpt lat="40.1550639" lon="8.6311298"><ele>936.4999999999999</ele><time>2026-05-02T11:20:14.508Z</time></trkpt><trkpt lat="40.1549873" lon="8.6311864"><ele>936.0</ele><time>2026-05-02T11:20:15.506Z</time></trkpt><trkpt lat="40.154911" lon="8.6312415"><ele>935.5</ele><time>2026-05-02T11:20:16.507Z</time></trkpt><trkpt lat="40.1548369" lon="8.6312982"><ele>935.0</ele><time>2026-05-02T11:20:17.506Z</time></trkpt><trkpt lat="40.1547643" lon="8.6313581"><ele>934.4999999999999</ele><time>2026-05-02T11:20:18.507Z</time></trkpt><trkpt lat="40.1546863" lon="8.6314133"><ele>934.0</ele><time>2026-05-02T11:20:19.505Z</time></trkpt><trkpt lat="40.1546115" lon="8.6314731"><ele>932.9999999999999</ele><time>2026-05-02T11:20:20.506Z</time></trkpt><trkpt lat="40.1545385" lon="8.6315358"><ele>932.0</ele><time>2026-05-02T11:20:21.506Z</time></trkpt><trkpt lat="40.1544685" lon="8.6315975"><ele>931.0</ele><time>2026-05-02T11:20:22.506Z</time></trkpt><trkpt lat="40.1543991" lon="8.6316586"><ele>930.0</ele><time>2026-05-02T11:20:23.507Z</time></trkpt><trkpt lat="40.1543291" lon="8.6317206"><ele>928.9999999999999</ele><time>2026-05-02T11:20:24.505Z</time></trkpt><trkpt lat="40.1542488" lon="8.6317821"><ele>928.0</ele><time>2026-05-02T11:20:25.507Z</time></trkpt><trkpt lat="40.1541765" lon="8.6318356"><ele>927.9999999999999</ele><time>2026-05-02T11:20:26.506Z</time></trkpt><trkpt lat="40.1541092" lon="8.6318906"><ele>928.0</ele><time>2026-05-02T11:20:27.507Z</time></trkpt><trkpt lat="40.1540451" lon="8.6319546"><ele>928.0</ele><time>2026-05-02T11:20:28.506Z</time></trkpt><trkpt lat="40.1539746" lon="8.6320169"><ele>928.0</ele><time>2026-05-02T11:20:29.506Z</time></trkpt><trkpt lat="40.1539086" lon="8.6320832"><ele>927.9999999999999</ele><time>2026-05-02T11:20:30.506Z</time></trkpt><trkpt lat="40.1538403" lon="8.6321512"><ele>928.0</ele><time>2026-05-02T11:20:31.505Z</time></trkpt><trkpt lat="40.1537641" lon="8.6322148"><ele>926.8333333333333</ele><time>2026-05-02T11:20:32.505Z</time></trkpt><trkpt lat="40.1536839" lon="8.6322649"><ele>925.6666666666666</ele><time>2026-05-02T11:20:33.507Z</time></trkpt><trkpt lat="40.1536052" lon="8.6323038"><ele>924.5</ele><time>2026-05-02T11:20:34.506Z</time></trkpt><trkpt lat="40.1535193" lon="8.6323323"><ele>923.3333333333333</ele><time>2026-05-02T11:20:35.507Z</time></trkpt><trkpt lat="40.1534276" lon="8.6323526"><ele>922.1666666666666</ele><time>2026-05-02T11:20:36.507Z</time></trkpt><trkpt lat="40.1533349" lon="8.6323695"><ele>921.0</ele><time>2026-05-02T11:20:37.505Z</time></trkpt><trkpt lat="40.1532391" lon="8.6323813"><ele>919.5999999999999</ele><time>2026-05-02T11:20:38.506Z</time></trkpt><trkpt lat="40.1531521" lon="8.6323895"><ele>918.1999999999999</ele><time>2026-05-02T11:20:39.505Z</time></trkpt><trkpt lat="40.1530605" lon="8.6323941"><ele>916.8000000000001</ele><time>2026-05-02T11:20:40.507Z</time></trkpt><trkpt lat="40.1529628" lon="8.6323972"><ele>915.4000000000001</ele><time>2026-05-02T11:20:41.506Z</time></trkpt><trkpt lat="40.1528671" lon="8.6324051"><ele>914.0</ele><time>2026-05-02T11:20:42.507Z</time></trkpt><trkpt lat="40.1527698" lon="8.6324157"><ele>914.0000000000001</ele><time>2026-05-02T11:20:43.507Z</time></trkpt><trkpt lat="40.1526824" lon="8.6324225"><ele>914.0</ele><time>2026-05-02T11:20:44.508Z</time></trkpt><trkpt lat="40.1526029" lon="8.6324363"><ele>914.0</ele><time>2026-05-02T11:20:45.507Z</time></trkpt><trkpt lat="40.1525332" lon="8.6324459"><ele>914.0</ele><time>2026-05-02T11:20:46.508Z</time></trkpt><trkpt lat="40.1524637" lon="8.6324708"><ele>914.0000000000001</ele><time>2026-05-02T11:20:47.507Z</time></trkpt><trkpt lat="40.1523511" lon="8.6325722"><ele>914.0</ele><time>2026-05-02T11:20:49.505Z</time></trkpt><trkpt lat="40.1522833" lon="8.6326296"><ele>912.1666666666667</ele><time>2026-05-02T11:20:50.508Z</time></trkpt><trkpt lat="40.1522255" lon="8.6326958"><ele>910.3333333333334</ele><time>2026-05-02T11:20:51.506Z</time></trkpt><trkpt lat="40.152156" lon="8.6327692"><ele>908.5</ele><time>2026-05-02T11:20:52.505Z</time></trkpt><trkpt lat="40.1520826" lon="8.6328397"><ele>906.6666666666667</ele><time>2026-05-02T11:20:53.506Z</time></trkpt><trkpt lat="40.1520104" lon="8.632909"><ele>904.8333333333334</ele><time>2026-05-02T11:20:54.506Z</time></trkpt><trkpt lat="40.1519412" lon="8.6329814"><ele>903.0</ele><time>2026-05-02T11:20:55.506Z</time></trkpt><trkpt lat="40.1518748" lon="8.6330439"><ele>903.0</ele><time>2026-05-02T11:20:56.506Z</time></trkpt><trkpt lat="40.1518046" lon="8.6330986"><ele>903.0</ele><time>2026-05-02T11:20:57.506Z</time></trkpt><trkpt lat="40.1517433" lon="8.6331504"><ele>903.0</ele><time>2026-05-02T11:20:58.505Z</time></trkpt><trkpt lat="40.1516816" lon="8.6332057"><ele>903.0</ele><time>2026-05-02T11:20:59.506Z</time></trkpt><trkpt lat="40.1516205" lon="8.633271"><ele>903.0</ele><time>2026-05-02T11:21:00.506Z</time></trkpt><trkpt lat="40.1515609" lon="8.6333389"><ele>903.0</ele><time>2026-05-02T11:21:01.506Z</time></trkpt><trkpt lat="40.1515008" lon="8.6334118"><ele>900.8333333333334</ele><time>2026-05-02T11:21:02.508Z</time></trkpt><trkpt lat="40.1514402" lon="8.6334893"><ele>898.6666666666667</ele><time>2026-05-02T11:21:03.506Z</time></trkpt><trkpt lat="40.1513801" lon="8.6335577"><ele>896.5</ele><time>2026-05-02T11:21:04.507Z</time></trkpt><trkpt lat="40.1513199" lon="8.6336177"><ele>894.3333333333334</ele><time>2026-05-02T11:21:05.506Z</time></trkpt><trkpt lat="40.1512472" lon="8.6337006"><ele>892.1666666666667</ele><time>2026-05-02T11:21:07.506Z</time></trkpt><trkpt lat="40.1511864" lon="8.6337847"><ele>890.0</ele><time>2026-05-02T11:21:09.506Z</time></trkpt><trkpt lat="40.1511205" lon="8.6338438"><ele>890.0</ele><time>2026-05-02T11:21:11.506Z</time></trkpt><trkpt lat="40.1511833" lon="8.633786"><ele>890.0</ele><time>2026-05-02T11:21:38.505Z</time></trkpt><trkpt lat="40.1512577" lon="8.6336806"><ele>890.0</ele><time>2026-05-02T11:21:40.506Z</time></trkpt><trkpt lat="40.1513522" lon="8.6335803"><ele>890.0</ele><time>2026-05-02T11:21:42.507Z</time></trkpt><trkpt lat="40.1514069" lon="8.63352"><ele>890.0</ele><time>2026-05-02T11:21:43.507Z</time></trkpt><trkpt lat="40.1514706" lon="8.6334426"><ele>889.4</ele><time>2026-05-02T11:21:44.506Z</time></trkpt><trkpt lat="40.1515283" lon="8.6333705"><ele>888.8</ele><time>2026-05-02T11:21:45.506Z</time></trkpt><trkpt lat="40.1515868" lon="8.6333023"><ele>888.2</ele><time>2026-05-02T11:21:46.506Z</time></trkpt><trkpt lat="40.1516427" lon="8.6332426"><ele>887.6</ele><time>2026-05-02T11:21:47.506Z</time></trkpt><trkpt lat="40.1517047" lon="8.6331807"><ele>887.0</ele><time>2026-05-02T11:21:48.507Z</time></trkpt><trkpt lat="40.1589249" lon="8.6348649"><ele>900.0</ele><time>2026-05-02T11:17:47.508Z</time></trkpt><trkpt lat="40.1588426" lon="8.6347345"><ele>913.0</ele><time>2026-05-02T11:17:48.506Z</time></trkpt><trkpt lat="40.1587589" lon="8.6346001"><ele>926.0</ele><time>2026-05-02T11:17:49.507Z</time></trkpt><trkpt lat="40.158669" lon="8.634465"><ele>939.0</ele><time>2026-05-02T11:17:50.506Z</time></trkpt><trkpt lat="40.1585796" lon="8.6343268"><ele>940.0</ele><time>2026-05-02T11:17:51.508Z</time></trkpt><trkpt lat="40.1584944" lon="8.6341869"><ele>941.0</ele><time>2026-05-02T11:17:52.508Z</time></trkpt><trkpt lat="40.1584179" lon="8.6340483"><ele>942.0</ele><time>2026-05-02T11:17:53.507Z</time></trkpt><trkpt lat="40.1583499" lon="8.6339067"><ele>943.0</ele><time>2026-05-02T11:17:54.507Z</time></trkpt><trkpt lat="40.1582833" lon="8.6337687"><ele>942.75</ele><time>2026-05-02T11:17:55.507Z</time></trkpt><trkpt lat="40.1582166" lon="8.6336261"><ele>942.5</ele><time>2026-05-02T11:17:56.506Z</time></trkpt><trkpt lat="40.1581529" lon="8.6334874"><ele>942.25</ele><time>2026-05-02T11:17:57.507Z</time></trkpt><trkpt lat="40.1580826" lon="8.63333"><ele>942.0</ele><time>2026-05-02T11:17:58.507Z</time></trkpt><trkpt lat="40.1580128" lon="8.6331772"><ele>942.0</ele><time>2026-05-02T11:17:59.506Z</time></trkpt><trkpt lat="40.1579442" lon="8.6330185"><ele>942.0</ele><time>2026-05-02T11:18:00.506Z</time></trkpt><trkpt lat="40.1578755" lon="8.6328565"><ele>942.0</ele><time>2026-05-02T11:18:01.506Z</time></trkpt><trkpt lat="40.1578032" lon="8.6326887"><ele>942.0</ele><time>2026-05-02T11:18:02.507Z</time></trkpt><trkpt lat="40.1577292" lon="8.6325161"><ele>943.5</ele><time>2026-05-02T11:18:03.507Z</time></trkpt><trkpt lat="40.1576577" lon="8.6323452"><ele>945.0</ele><time>2026-05-02T11:18:04.506Z</time></trkpt><trkpt lat="40.1575896" lon="8.6321824"><ele>946.5</ele><time>2026-05-02T11:18:05.508Z</time></trkpt><trkpt lat="40.1575219" lon="8.6320162"><ele>948.0</ele><time>2026-05-02T11:18:06.507Z</time></trkpt><trkpt lat="40.1574574" lon="8.6318477"><ele>948.5</ele><time>2026-05-02T11:18:07.507Z</time></trkpt><trkpt lat="40.1574006" lon="8.6316879"><ele>949.0</ele><time>2026-05-02T11:18:08.507Z</time></trkpt><trkpt lat="40.1573457" lon="8.6315445"><ele>949.5</ele><time>2026-05-02T11:18:09.506Z</time></trkpt><trkpt lat="40.1572898" lon="8.6314043"><ele>950.0</ele><time>2026-05-02T11:18:10.506Z</time></trkpt><trkpt lat="40.1572368" lon="8.6312731"><ele>949.25</ele><time>2026-05-02T11:18:11.507Z</time></trkpt><trkpt lat="40.1571843" lon="8.6311364"><ele>948.5</ele><time>2026-05-02T11:18:12.507Z</time></trkpt><trkpt lat="40.1571392" lon="8.6309921"><ele>947.75</ele><time>2026-05-02T11:18:13.507Z</time></trkpt><trkpt lat="40.1571012" lon="8.6308357"><ele>947.0</ele><time>2026-05-02T11:18:14.506Z</time></trkpt><trkpt lat="40.1570643" lon="8.63068"><ele>947.0</ele><time>2026-05-02T11:18:15.506Z</time></trkpt><trkpt lat="40.1570349" lon="8.6305422"><ele>947.0</ele><time>2026-05-02T11:18:16.506Z</time></trkpt><trkpt lat="40.1570157" lon="8.6304152"><ele>947.0</ele><time>2026-05-02T11:18:17.507Z</time></trkpt><trkpt lat="40.1570048" lon="8.630285"><ele>947.0</ele><time>2026-05-02T11:18:18.507Z</time></trkpt><trkpt lat="40.1569957" lon="8.6301504"><ele>947.0</ele><time>2026-05-02T11:18:19.508Z</time></trkpt><trkpt lat="40.1569892" lon="8.6300183"><ele>947.8333333333334</ele><time>2026-05-02T11:18:20.508Z</time></trkpt><trkpt lat="40.1569876" lon="8.6298869"><ele>948.6666666666667</ele><time>2026-05-02T11:18:21.507Z</time></trkpt><trkpt lat="40.1569843" lon="8.6297847"><ele>949.5</ele><time>2026-05-02T11:18:22.507Z</time></trkpt><trkpt lat="40.1569744" lon="8.6296651"><ele>950.3333333333333</ele><time>2026-05-02T11:18:24.508Z</time></trkpt><trkpt lat="40.1569057" lon="8.6296695"><ele>951.1666666666666</ele><time>2026-05-02T11:19:39.505Z</time></trkpt><trkpt lat="40.1568428" lon="8.6297259"><ele>952.0</ele><time>2026-05-02T11:19:43.507Z</time></trkpt><trkpt lat="40.1567865" lon="8.6297727"><ele>952.0</ele><time>2026-05-02T11:19:46.506Z</time></trkpt><trkpt lat="40.1567101" lon="8.6298403"><ele>952.0</ele><time>2026-05-02T11:19:49.505Z</time></trkpt><trkpt lat="40.1566494" lon="8.6298907"><ele>952.0</ele><time>2026-05-02T11:19:51.505Z</time></trkpt><trkpt lat="40.1565613" lon="8.6299585"><ele>952.0</ele><time>2026-05-02T11:19:53.506Z</time></trkpt><trkpt lat="40.1564577" lon="8.6300423"><ele>952.0</ele><time>2026-05-02T11:19:55.505Z</time></trkpt><trkpt lat="40.1563918" lon="8.630095"><ele>950.6666666666666</ele><time>2026-05-02T11:19:56.507Z</time></trkpt><trkpt lat="40.1563308" lon="8.6301454"><ele>949.3333333333333</ele><time>2026-05-02T11:19:57.507Z</time></trkpt><trkpt lat="40.1562621" lon="8.6302039"><ele>948.0</ele><time>2026-05-02T11:19:58.505Z</time></trkpt><trkpt lat="40.1561904" lon="8.6302683"><ele>946.6666666666667</ele><time>2026-05-02T11:19:59.505Z</time></trkpt><trkpt lat="40.156114" lon="8.630333"><ele>945.3333333333334</ele><time>2026-05-02T11:20:00.506Z</time></trkpt><trkpt lat="40.1560342" lon="8.6303979"><ele>944.0</ele><time>2026-05-02T11:20:01.506Z</time></trkpt><trkpt lat="40.1559525" lon="8.6304614"><ele>943.5000000000001</ele><time>2026-05-02T11:20:02.505Z</time></trkpt><trkpt lat="40.1558771" lon="8.6305208"><ele>943.0</ele><time>2026-05-02T11:20:03.506Z</time></trkpt><trkpt lat="40.155801" lon="8.6305832"><ele>942.5</ele><time>2026-05-02T11:20:04.506Z</time></trkpt><trkpt lat="40.1557317" lon="8.6306412"><ele>942.0</ele><time>2026-05-02T11:20:05.507Z</time></trkpt><trkpt lat="40.1556628" lon="8.6306949"><ele>941.5000000000001</ele><time>2026-05-02T11:20:06.506Z</time></trkpt><trkpt lat="40.1555984" lon="8.6307443"><ele>941.0</ele><time>2026-05-02T11:20:07.506Z</time></trkpt><trkpt lat="40.1555304" lon="8.6307938"><ele>940.3333333333334</ele><time>2026-05-02T11:20:08.506Z</time></trkpt><trkpt lat="40.1554619" lon="8.630843"><ele>939.6666666666667</ele><time>2026-05-02T11:20:09.507Z</time></trkpt><trkpt lat="40.1553876" lon="8.6308897"><ele>939.0</ele><time>2026-05-02T11:20:10.506Z</time></trkpt><trkpt lat="40.1553098" lon="8.6309491"><ele>938.3333333333333</ele><time>2026-05-02T11:20:11.507Z</time></trkpt><trkpt lat="40.1552247" lon="8.6310148"><ele>937.6666666666666</ele><time>2026-05-02T11:20:12.506Z</time></trkpt><trkpt lat="40.1551417" lon="8.6310709"><ele>937.0</ele><time>2026-05-02T11:20:13.505Z</time></trkpt><trkpt lat="40.1550639" lon="8.6311298"><ele>936.4999999999999</ele><time>2026-05-02T11:20:14.508Z</time></trkpt><trkpt lat="40.1549873" lon="8.6311864"><ele>936.0</ele><time>2026-05-02T11:20:15.506Z</time></trkpt><trkpt lat="40.154911" lon="8.6312415"><ele>935.5</ele><time>2026-05-02T11:20:16.507Z</time></trkpt><trkpt lat="40.1548369" lon="8.6312982"><ele>935.0</ele><time>2026-05-02T11:20:17.506Z</time></trkpt><trkpt lat="40.1547643" lon="8.6313581"><ele>934.4999999999999</ele><time>2026-05-02T11:20:18.507Z</time></trkpt><trkpt lat="40.1546863" lon="8.6314133"><ele>934.0</ele><time>2026-05-02T11:20:19.505Z</time></trkpt><trkpt lat="40.1546115" lon="8.6314731"><ele>932.9999999999999</ele><time>2026-05-02T11:20:20.506Z</time></trkpt><trkpt lat="40.1545385" lon="8.6315358"><ele>932.0</ele><time>2026-05-02T11:20:21.506Z</time></trkpt><trkpt lat="40.1544685" lon="8.6315975"><ele>931.0</ele><time>2026-05-02T11:20:22.506Z</time></trkpt><trkpt lat="40.1543991" lon="8.6316586"><ele>930.0</ele><time>2026-05-02T11:20:23.507Z</time></trkpt><trkpt lat="40.1543291" lon="8.6317206"><ele>928.9999999999999</ele><time>2026-05-02T11:20:24.505Z</time></trkpt><trkpt lat="40.1542488" lon="8.6317821"><ele>928.0</ele><time>2026-05-02T11:20:25.507Z</time></trkpt><trkpt lat="40.1541765" lon="8.6318356"><ele>927.9999999999999</ele><time>2026-05-02T11:20:26.506Z</time></trkpt><trkpt lat="40.1541092" lon="8.6318906"><ele>928.0</ele><time>2026-05-02T11:20:27.507Z</time></trkpt><trkpt lat="40.1540451" lon="8.6319546"><ele>928.0</ele><time>2026-05-02T11:20:28.506Z</time></trkpt><trkpt lat="40.1539746" lon="8.6320169"><ele>928.0</ele><time>2026-05-02T11:20:29.506Z</time></trkpt><trkpt lat="40.1539086" lon="8.6320832"><ele>927.9999999999999</ele><time>2026-05-02T11:20:30.506Z</time></trkpt><trkpt lat="40.1538403" lon="8.6321512"><ele>928.0</ele><time>2026-05-02T11:20:31.505Z</time></trkpt><trkpt lat="40.1537641" lon="8.6322148"><ele>926.8333333333333</ele><time>2026-05-02T11:20:32.505Z</time></trkpt><trkpt lat="40.1536839" lon="8.6322649"><ele>925.6666666666666</ele><time>2026-05-02T11:20:33.507Z</time></trkpt><trkpt lat="40.1536052" lon="8.6323038"><ele>924.5</ele><time>2026-05-02T11:20:34.506Z</time></trkpt><trkpt lat="40.1535193" lon="8.6323323"><ele>923.3333333333333</ele><time>2026-05-02T11:20:35.507Z</time></trkpt><trkpt lat="40.1534276" lon="8.6323526"><ele>922.1666666666666</ele><time>2026-05-02T11:20:36.507Z</time></trkpt><trkpt lat="40.1533349" lon="8.6323695"><ele>921.0</ele><time>2026-05-02T11:20:37.505Z</time></trkpt><trkpt lat="40.1532391" lon="8.6323813"><ele>919.5999999999999</ele><time>2026-05-02T11:20:38.506Z</time></trkpt><trkpt lat="40.1531521" lon="8.6323895"><ele>918.1999999999999</ele><time>2026-05-02T11:20:39.505Z</time></trkpt><trkpt lat="40.1530605" lon="8.6323941"><ele>916.8000000000001</ele><time>2026-05-02T11:20:40.507Z</time></trkpt><trkpt lat="40.1529628" lon="8.6323972"><ele>915.4000000000001</ele><time>2026-05-02T11:20:41.506Z</time></trkpt><trkpt lat="40.1528671" lon="8.6324051"><ele>914.0</ele><time>2026-05-02T11:20:42.507Z</time></trkpt><trkpt lat="40.1527698" lon="8.6324157"><ele>914.0000000000001</ele><time>2026-05-02T11:20:43.507Z</time></trkpt><trkpt lat="40.1526824" lon="8.6324225"><ele>914.0</ele><time>2026-05-02T11:20:44.508Z</time></trkpt><trkpt lat="40.1526029" lon="8.6324363"><ele>914.0</ele><time>2026-05-02T11:20:45.507Z</time></trkpt><trkpt lat="40.1525332" lon="8.6324459"><ele>914.0</ele><time>2026-05-02T11:20:46.508Z</time></trkpt><trkpt lat="40.1524637" lon="8.6324708"><ele>914.0000000000001</ele><time>2026-05-02T11:20:47.507Z</time></trkpt><trkpt lat="40.1523511" lon="8.6325722"><ele>914.0</ele><time>2026-05-02T11:20:49.505Z</time></trkpt><trkpt lat="40.1522833" lon="8.6326296"><ele>912.1666666666667</ele><time>2026-05-02T11:20:50.508Z</time></trkpt><trkpt lat="40.1522255" lon="8.6326958"><ele>910.3333333333334</ele><time>2026-05-02T11:20:51.506Z</time></trkpt><trkpt lat="40.152156" lon="8.6327692"><ele>908.5</ele><time>2026-05-02T11:20:52.505Z</time></trkpt><trkpt lat="40.1520826" lon="8.6328397"><ele>906.6666666666667</ele><time>2026-05-02T11:20:53.506Z</time></trkpt><trkpt lat="40.1520104" lon="8.632909"><ele>904.8333333333334</ele><time>2026-05-02T11:20:54.506Z</time></trkpt><trkpt lat="40.1519412" lon="8.6329814"><ele>903.0</ele><time>2026-05-02T11:20:55.506Z</time></trkpt><trkpt lat="40.1518748" lon="8.6330439"><ele>903.0</ele><time>2026-05-02T11:20:56.506Z</time></trkpt><trkpt lat="40.1518046" lon="8.6330986"><ele>903.0</ele><time>2026-05-02T11:20:57.506Z</time></trkpt><trkpt lat="40.1517433" lon="8.6331504"><ele>903.0</ele><time>2026-05-02T11:20:58.505Z</time></trkpt><trkpt lat="40.1516816" lon="8.6332057"><ele>903.0</ele><time>2026-05-02T11:20:59.506Z</time></trkpt><trkpt lat="40.1516205" lon="8.633271"><ele>903.0</ele><time>2026-05-02T11:21:00.506Z</time></trkpt><trkpt lat="40.1515609" lon="8.6333389"><ele>903.0</ele><time>2026-05-02T11:21:01.506Z</time></trkpt><trkpt lat="40.1515008" lon="8.6334118"><ele>900.8333333333334</ele><time>2026-05-02T11:21:02.508Z</time></trkpt><trkpt lat="40.1514402" lon="8.6334893"><ele>898.6666666666667</ele><time>2026-05-02T11:21:03.506Z</time></trkpt><trkpt lat="40.1513801" lon="8.6335577"><ele>896.5</ele><time>2026-05-02T11:21:04.507Z</time></trkpt><trkpt lat="40.1513199" lon="8.6336177"><ele>894.3333333333334</ele><time>2026-05-02T11:21:05.506Z</time></trkpt><trkpt lat="40.1512472" lon="8.6337006"><ele>892.1666666666667</ele><time>2026-05-02T11:21:07.506Z</time></trkpt><trkpt lat="40.1511864" lon="8.6337847"><ele>890.0</ele><time>2026-05-02T11:21:09.506Z</time></trkpt><trkpt lat="40.1511205" lon="8.6338438"><ele>890.0</ele><time>2026-05-02T11:21:11.506Z</time></trkpt><trkpt lat="40.1511833" lon="8.633786"><ele>890.0</ele><time>2026-05-02T11:21:38.505Z</time></trkpt><trkpt lat="40.1512577" lon="8.6336806"><ele>890.0</ele><time>2026-05-02T11:21:40.506Z</time></trkpt><trkpt lat="40.1513522" lon="8.6335803"><ele>890.0</ele><time>2026-05-02T11:21:42.507Z</time></trkpt><trkpt lat="40.1514069" lon="8.63352"><ele>890.0</ele><time>2026-05-02T11:21:43.507Z</time></trkpt><trkpt lat="40.1514706" lon="8.6334426"><ele>889.5000000000001</ele><time>2026-05-02T11:21:44.506Z</time></trkpt><trkpt lat="40.1515283" lon="8.6333705"><ele>889.0</ele><time>2026-05-02T11:21:45.506Z</time></trkpt><trkpt lat="40.1515868" lon="8.6333023"><ele>888.5</ele><time>2026-05-02T11:21:46.506Z</time></trkpt><trkpt lat="40.1516427" lon="8.6332426"><ele>888.0</ele><time>2026-05-02T11:21:47.506Z</time></trkpt><trkpt lat="40.1517047" lon="8.6331807"><ele>887.5000000000001</ele><time>2026-05-02T11:21:48.507Z</time></trkpt><trkpt lat="40.151762" lon="8.6331326"><ele>887.0</ele><time>2026-05-02T11:21:49.506Z</time></trkpt><trkpt lat="40.1518296" lon="8.6330813"><ele>889.3333333333334</ele><time>2026-05-02T11:21:50.506Z</time></trkpt><trkpt lat="40.151898" lon="8.6330232"><ele>891.6666666666667</ele><time>2026-05-02T11:21:51.506Z</time></trkpt><trkpt lat="40.1519667" lon="8.6329607"><ele>894.0</ele><time>2026-05-02T11:21:52.505Z</time></trkpt><trkpt lat="40.1520338" lon="8.632895"><ele>896.3333333333333</ele><time>2026-05-02T11:21:53.507Z</time></trkpt><trkpt lat="40.1520987" lon="8.6328346"><ele>898.6666666666666</ele><time>2026-05-02T11:21:54.506Z</time></trkpt><trkpt lat="40.1521557" lon="8.632776"><ele>901.0</ele><time>2026-05-02T11:21:55.506Z</time></trkpt><trkpt lat="40.1522097" lon="8.6327173"><ele>900.9999999999999</ele><time>2026-05-02T11:21:56.505Z</time></trkpt><trkpt lat="40.1522666" lon="8.6326566"><ele>901.0</ele><time>2026-05-02T11:21:57.506Z</time></trkpt><trkpt lat="40.1523287" lon="8.6326023"><ele>901.0</ele><time>2026-05-02T11:21:58.506Z</time></trkpt><trkpt lat="40.1523896" lon="8.6325532"><ele>901.0</ele><time>2026-05-02T11:21:59.506Z</time></trkpt><trkpt lat="40.1524472" lon="8.63251"><ele>900.9999999999999</ele><time>2026-05-02T11:22:00.506Z</time></trkpt><trkpt lat="40.1525647" lon="8.632461"><ele>901.0</ele><time>2026-05-02T11:22:02.505Z</time></trkpt><trkpt lat="40.1526307" lon="8.6324436"><ele>902.8571428571429</ele><time>2026-05-02T11:22:03.505Z</time></trkpt><trkpt lat="40.1527002" lon="8.6324319"><ele>904.7142857142858</ele><time>2026-05-02T11:22:04.505Z</time></trkpt><trkpt lat="40.1527707" lon="8.6324224"><ele>906.5714285714287</ele><time>2026-05-02T11:22:05.506Z</time></trkpt><trkpt lat="40.1528348" lon="8.6324173"><ele>908.4285714285716</ele><time>2026-05-02T11:22:06.506Z</time></trkpt><trkpt lat="40.1529014" lon="8.6324092"><ele>910.2857142857143</ele><time>2026-05-02T11:22:07.506Z</time></trkpt><trkpt lat="40.1529719" lon="8.6324055"><ele>912.1428571428573</ele><time>2026-05-02T11:22:08.507Z</time></trkpt><trkpt lat="40.1530463" lon="8.6324003"><ele>914.0000000000001</ele><time>2026-05-02T11:22:09.505Z</time></trkpt><trkpt lat="40.1531259" lon="8.6323953"><ele>914.0000000000001</ele><time>2026-05-02T11:22:10.506Z</time></trkpt><trkpt lat="40.153205" lon="8.6323952"><ele>914.0</ele><time>2026-05-02T11:22:11.505Z</time></trkpt><trkpt lat="40.1532792" lon="8.63239"><ele>914.0</ele><time>2026-05-02T11:22:12.505Z</time></trkpt><trkpt lat="40.1533505" lon="8.6323689"><ele>914.0</ele><time>2026-05-02T11:22:13.507Z</time></trkpt><trkpt lat="40.1534738" lon="8.6323434"><ele>914.0000000000001</ele><time>2026-05-02T11:22:15.507Z</time></trkpt><trkpt lat="40.1535377" lon="8.6323277"><ele>914.0</ele><time>2026-05-02T11:22:16.506Z</time></trkpt><trkpt lat="40.1536026" lon="8.6323058"><ele>915.0000000000001</ele><time>2026-05-02T11:22:17.506Z</time></trkpt><trkpt lat="40.1536696" lon="8.6322783"><ele>916.0</ele><time>2026-05-02T11:22:18.506Z</time></trkpt><trkpt lat="40.1537543" lon="8.6322241"><ele>917.0</ele><time>2026-05-02T11:22:20.506Z</time></trkpt><trkpt lat="40.1537867" lon="8.6321466"><ele>918.0</ele><time>2026-05-02T11:22:23.505Z</time></trkpt><trkpt lat="40.1537221" lon="8.6320774"><ele>919.0000000000001</ele><time>2026-05-02T11:22:35.506Z</time></trkpt><trkpt lat="40.1536374" lon="8.6319669"><ele>920.0</ele><time>2026-05-02T11:22:37.506Z</time></trkpt><trkpt lat="40.1535897" lon="8.6319034"><ele>920.0000000000001</ele><time>2026-05-02T11:22:38.506Z</time></trkpt><trkpt lat="40.1535415" lon="8.6318347"><ele>920.0</ele><time>2026-05-02T11:22:39.506Z</time></trkpt><trkpt lat="40.1534925" lon="8.6317551"><ele>920.0</ele><time>2026-05-02T11:22:40.506Z</time></trkpt><trkpt lat="40.15345" lon="8.6316796"><ele>920.0</ele><time>2026-05-02T11:22:41.506Z</time></trkpt><trkpt lat="40.1534169" lon="8.6316024"><ele>920.0000000000001</ele><time>2026-05-02T11:22:42.506Z</time></trkpt><trkpt lat="40.1533739" lon="8.6314771"><ele>920.0</ele><time>2026-05-02T11:22:44.506Z</time></trkpt><trkpt lat="40.1533861" lon="8.6313478"><ele>920.0</ele><time>2026-05-02T11:22:46.506Z</time></trkpt><trkpt lat="40.1534206" lon="8.6312175"><ele>920.0</ele><time>2026-05-02T11:22:48.505Z</time></trkpt><trkpt lat="40.1534364" lon="8.6310815"><ele>920.0</ele><time>2026-05-02T11:22:50.506Z</time></trkpt><trkpt lat="40.1534203" lon="8.6309512"><ele>920.0</ele><time>2026-05-02T11:22:52.505Z</time></trkpt><trkpt lat="40.1533745" lon="8.6308081"><ele>920.0</ele><time>2026-05-02T11:22:54.505Z</time></trkpt><trkpt lat="40.1533117" lon="8.6306774"><ele>920.1666666666667</ele><time>2026-05-02T11:22:56.505Z</time></trkpt><trkpt lat="40.1532289" lon="8.6305743"><ele>920.3333333333334</ele><time>2026-05-02T11:22:58.506Z</time></trkpt><trkpt lat="40.1531797" lon="8.6305195"><ele>920.5</ele><time>2026-05-02T11:22:59.506Z</time></trkpt><trkpt lat="40.1531228" lon="8.630465"><ele>920.6666666666667</ele><time>2026-05-02T11:23:00.506Z</time></trkpt><trkpt lat="40.1530685" lon="8.6304188"><ele>920.8333333333334</ele><time>2026-05-02T11:23:01.506Z</time></trkpt><trkpt lat="40.1529981" lon="8.6303276"><ele>921.0</ele><time>2026-05-02T11:23:03.506Z</time></trkpt><trkpt lat="40.152923" lon="8.6302056"><ele>921.0000000000001</ele><time>2026-05-02T11:23:05.507Z</time></trkpt><trkpt lat="40.1528789" lon="8.6301349"><ele>921.0</ele><time>2026-05-02T11:23:06.506Z</time></trkpt><trkpt lat="40.1528333" lon="8.6300593"><ele>921.0000000000001</ele><time>2026-05-02T11:23:07.506Z</time></trkpt><trkpt lat="40.1527889" lon="8.6299817"><ele>921.0000000000001</ele><time>2026-05-02T11:23:08.506Z</time></trkpt><trkpt lat="40.1527492" lon="8.6299039"><ele>921.0</ele><time>2026-05-02T11:23:09.506Z</time></trkpt><trkpt lat="40.1527111" lon="8.629829"><ele>921.0000000000001</ele><time>2026-05-02T11:23:10.506Z</time></trkpt><trkpt lat="40.1526706" lon="8.6297634"><ele>921.0000000000001</ele><time>2026-05-02T11:23:11.507Z</time></trkpt><trkpt lat="40.1526244" lon="8.6297052"><ele>921.0</ele><time>2026-05-02T11:23:12.507Z</time></trkpt><trkpt lat="40.1525472" lon="8.6296042"><ele>921.0</ele><time>2026-05-02T11:23:14.505Z</time></trkpt><trkpt lat="40.1524888" lon="8.6294735"><ele>921.0</ele><time>2026-05-02T11:23:16.506Z</time></trkpt><trkpt lat="40.1524604" lon="8.6293849"><ele>921.0</ele><time>2026-05-02T11:23:17.506Z</time></trkpt><trkpt lat="40.1524228" lon="8.629303"><ele>921.0</ele><time>2026-05-02T11:23:18.506Z</time></trkpt><trkpt lat="40.152382" lon="8.6292205"><ele>921.0</ele><time>2026-05-02T11:23:19.507Z</time></trkpt><trkpt lat="40.1523378" lon="8.6291408"><ele>921.1666666666666</ele><time>2026-05-02T11:23:20.506Z</time></trkpt><trkpt lat="40.1522995" lon="8.6290689"><ele>921.3333333333333</ele><time>2026-05-02T11:23:21.506Z</time></trkpt><trkpt lat="40.1522514" lon="8.6289523"><ele>921.5</ele><time>2026-05-02T11:23:23.507Z</time></trkpt><trkpt lat="40.1522318" lon="8.6288677"><ele>921.6666666666666</ele><time>2026-05-02T11:23:25.506Z</time></trkpt><trkpt lat="40.1522566" lon="8.6287628"><ele>921.8333333333333</ele><time>2026-05-02T11:23:27.507Z</time></trkpt><trkpt lat="40.1522701" lon="8.6286756"><ele>922.0</ele><time>2026-05-02T11:23:28.505Z</time></trkpt><trkpt lat="40.152287" lon="8.6285816"><ele>921.9999999999999</ele><time>2026-05-02T11:23:29.506Z</time></trkpt><trkpt lat="40.1523047" lon="8.628481"><ele>922.0</ele><time>2026-05-02T11:23:30.506Z</time></trkpt><trkpt lat="40.1523228" lon="8.6283694"><ele>922.0</ele><time>2026-05-02T11:23:31.507Z</time></trkpt><trkpt lat="40.1523418" lon="8.6282686"><ele>922.0</ele><time>2026-05-02T11:23:32.506Z</time></trkpt><trkpt lat="40.1523578" lon="8.628172"><ele>921.9999999999999</ele><time>2026-05-02T11:23:33.507Z</time></trkpt><trkpt lat="40.1523694" lon="8.62808"><ele>922.0</ele><time>2026-05-02T11:23:34.507Z</time></trkpt><trkpt lat="40.1523786" lon="8.6279854"><ele>922.8333333333333</ele><time>2026-05-02T11:23:35.507Z</time></trkpt><trkpt lat="40.1523815" lon="8.6278822"><ele>923.6666666666666</ele><time>2026-05-02T11:23:36.507Z</time></trkpt><trkpt lat="40.1523877" lon="8.6277694"><ele>924.5</ele><time>2026-05-02T11:23:37.506Z</time></trkpt><trkpt lat="40.1523925" lon="8.6276604"><ele>925.3333333333333</ele><time>2026-05-02T11:23:38.507Z</time></trkpt><trkpt lat="40.1523889" lon="8.6275585"><ele>926.1666666666666</ele><time>2026-05-02T11:23:39.506Z</time></trkpt><trkpt lat="40.1523735" lon="8.6274469"><ele>927.0</ele><time>2026-05-02T11:23:40.506Z</time></trkpt><trkpt lat="40.152361" lon="8.6273396"><ele>927.0</ele><time>2026-05-02T11:23:41.505Z</time></trkpt><trkpt lat="40.1523434" lon="8.6272286"><ele>927.0</ele><time>2026-05-02T11:23:42.505Z</time></trkpt><trkpt lat="40.152314" lon="8.6271146"><ele>927.0</ele><time>2026-05-02T11:23:43.505Z</time></trkpt><trkpt lat="40.1522854" lon="8.6270009"><ele>927.0</ele><time>2026-05-02T11:23:44.506Z</time></trkpt><trkpt lat="40.1522649" lon="8.6268908"><ele>927.0</ele><time>2026-05-02T11:23:45.505Z</time></trkpt><trkpt lat="40.1522525" lon="8.626779"><ele>927.0</ele><time>2026-05-02T11:23:46.505Z</time></trkpt><trkpt lat="40.1522503" lon="8.6266683"><ele>927.3333333333334</ele><time>2026-05-02T11:23:47.505Z</time></trkpt><trkpt lat="40.1522534" lon="8.6265647"><ele>927.6666666666667</ele><time>2026-05-02T11:23:48.506Z</time></trkpt><trkpt lat="40.1522513" lon="8.6264739"><ele>928.0</ele><time>2026-05-02T11:23:49.505Z</time></trkpt><trkpt lat="40.1522584" lon="8.6263576"><ele>928.3333333333334</ele><time>2026-05-02T11:23:51.505Z</time></trkpt><trkpt lat="40.1522593" lon="8.6262322"><ele>928.6666666666667</ele><time>2026-05-02T11:23:53.505Z</time></trkpt><trkpt lat="40.1522575" lon="8.6260892"><ele>929.0</ele><time>2026-05-02T11:23:55.506Z</time></trkpt><trkpt lat="40.1522737" lon="8.6259383"><ele>928.3333333333334</ele><time>2026-05-02T11:23:57.506Z</time></trkpt><trkpt lat="40.1523061" lon="8.6258148"><ele>927.6666666666667</ele><time>2026-05-02T11:23:59.506Z</time></trkpt><trkpt lat="40.152344" lon="8.6257119"><ele>927.0</ele><time>2026-05-02T11:24:01.506Z</time></trkpt><trkpt lat="40.1523872" lon="8.6256282"><ele>926.3333333333333</ele><time>2026-05-02T11:24:03.506Z</time></trkpt><trkpt lat="40.15241" lon="8.6255202"><ele>925.6666666666666</ele><time>2026-05-02T11:24:05.506Z</time></trkpt><trkpt lat="40.1524243" lon="8.6253924"><ele>925.0</ele><time>2026-05-02T11:24:07.505Z</time></trkpt><trkpt lat="40.1524131" lon="8.6252666"><ele>925.8333333333333</ele><time>2026-05-02T11:24:09.506Z</time></trkpt><trkpt lat="40.1524096" lon="8.6251568"><ele>926.6666666666666</ele><time>2026-05-02T11:24:11.506Z</time></trkpt><trkpt lat="40.1524048" lon="8.6250705"><ele>927.5</ele><time>2026-05-02T11:24:13.506Z</time></trkpt><trkpt lat="40.1524124" lon="8.6249747"><ele>928.3333333333333</ele><time>2026-05-02T11:25:10.506Z</time></trkpt><trkpt lat="40.1524014" lon="8.6248508"><ele>929.1666666666666</ele><time>2026-05-02T11:25:13.505Z</time></trkpt><trkpt lat="40.1523962" lon="8.6247223"><ele>930.0</ele><time>2026-05-02T11:25:15.505Z</time></trkpt><trkpt lat="40.1523665" lon="8.624587"><ele>930.0</ele><time>2026-05-02T11:25:17.507Z</time></trkpt><trkpt lat="40.1523566" lon="8.6244655"><ele>930.0</ele><time>2026-05-02T11:25:19.506Z</time></trkpt><trkpt lat="40.1523748" lon="8.6243393"><ele>930.0</ele><time>2026-05-02T11:25:21.506Z</time></trkpt><trkpt lat="40.1524304" lon="8.6242359"><ele>930.0</ele><time>2026-05-02T11:25:23.505Z</time></trkpt><trkpt lat="40.1524826" lon="8.6240942"><ele>930.0</ele><time>2026-05-02T11:25:25.506Z</time></trkpt><trkpt lat="40.1525622" lon="8.6239587"><ele>932.1428571428571</ele><time>2026-05-02T11:25:27.505Z</time></trkpt><trkpt lat="40.1526138" lon="8.6239031"><ele>934.2857142857143</ele><time>2026-05-02T11:25:28.505Z</time></trkpt><trkpt lat="40.1526685" lon="8.6238471"><ele>936.4285714285714</ele><time>2026-05-02T11:25:29.506Z</time></trkpt><trkpt lat="40.1527275" lon="8.6237897"><ele>938.5714285714286</ele><time>2026-05-02T11:25:30.507Z</time></trkpt><trkpt lat="40.1527816" lon="8.6237273"><ele>940.7142857142858</ele><time>2026-05-02T11:25:31.507Z</time></trkpt><trkpt lat="40.1528314" lon="8.6236645"><ele>942.8571428571429</ele><time>2026-05-02T11:25:32.505Z</time></trkpt><trkpt lat="40.1528855" lon="8.6236062"><ele>945.0</ele><time>2026-05-02T11:25:33.506Z</time></trkpt><trkpt lat="40.1529333" lon="8.6235442"><ele>945.0</ele><time>2026-05-02T11:25:34.506Z</time></trkpt><trkpt lat="40.1529819" lon="8.6234776"><ele>945.0</ele><time>2026-05-02T11:25:35.506Z</time></trkpt><trkpt lat="40.1530267" lon="8.6234074"><ele>945.0</ele><time>2026-05-02T11:25:36.506Z</time></trkpt><trkpt lat="40.1530658" lon="8.6233238"><ele>945.0</ele><time>2026-05-02T11:25:37.505Z</time></trkpt><trkpt lat="40.1530993" lon="8.6232364"><ele>945.0</ele><time>2026-05-02T11:25:38.506Z</time></trkpt><trkpt lat="40.153132" lon="8.6231484"><ele>945.0</ele><time>2026-05-02T11:25:39.507Z</time></trkpt><trkpt lat="40.1531704" lon="8.6230608"><ele>945.0</ele><time>2026-05-02T11:25:40.504Z</time></trkpt><trkpt lat="40.1532067" lon="8.6229722"><ele>945.8333333333334</ele><time>2026-05-02T11:25:41.504Z</time></trkpt><trkpt lat="40.1532377" lon="8.6228949"><ele>946.6666666666667</ele><time>2026-05-02T11:25:42.505Z</time></trkpt><trkpt lat="40.1532842" lon="8.6227759"><ele>947.5</ele><time>2026-05-02T11:25:44.504Z</time></trkpt><trkpt lat="40.1533091" lon="8.622697"><ele>948.3333333333334</ele><time>2026-05-02T11:25:45.506Z</time></trkpt><trkpt lat="40.1533408" lon="8.6226055"><ele>949.1666666666667</ele><time>2026-05-02T11:25:46.505Z</time></trkpt><trkpt lat="40.1533742" lon="8.6225065"><ele>950.0</ele><time>2026-05-02T11:25:47.506Z</time></trkpt><trkpt lat="40.1534093" lon="8.6224057"><ele>950.0000000000001</ele><time>2026-05-02T11:25:48.505Z</time></trkpt><trkpt lat="40.1534487" lon="8.6223013"><ele>950.0</ele><time>2026-05-02T11:25:49.505Z</time></trkpt><trkpt lat="40.1534879" lon="8.6221962"><ele>950.0</ele><time>2026-05-02T11:25:50.504Z</time></trkpt><trkpt lat="40.1535324" lon="8.6220998"><ele>950.0</ele><time>2026-05-02T11:25:51.504Z</time></trkpt><trkpt lat="40.1535754" lon="8.6220224"><ele>950.0000000000001</ele><time>2026-05-02T11:25:52.505Z</time></trkpt><trkpt lat="40.1536183" lon="8.6219465"><ele>950.0</ele><time>2026-05-02T11:25:53.505Z</time></trkpt><trkpt lat="40.1536592" lon="8.6218782"><ele>949.0</ele><time>2026-05-02T11:25:54.504Z</time></trkpt><trkpt lat="40.153704" lon="8.6217407"><ele>948.0</ele><time>2026-05-02T11:25:56.504Z</time></trkpt><trkpt lat="40.1537065" lon="8.6215869"><ele>947.0</ele><time>2026-05-02T11:25:58.506Z</time></trkpt><trkpt lat="40.1537003" lon="8.6214255"><ele>946.0</ele><time>2026-05-02T11:26:00.505Z</time></trkpt><trkpt lat="40.1537074" lon="8.6212585"><ele>945.3333333333333</ele><time>2026-05-02T11:26:02.505Z</time></trkpt><trkpt lat="40.1537114" lon="8.6210921"><ele>944.6666666666666</ele><time>2026-05-02T11:26:04.504Z</time></trkpt><trkpt lat="40.1537201" lon="8.6210028"><ele>944.0</ele><time>2026-05-02T11:26:05.504Z</time></trkpt><trkpt lat="40.1537282" lon="8.620901"><ele>943.3333333333333</ele><time>2026-05-02T11:26:06.505Z</time></trkpt><trkpt lat="40.1537352" lon="8.6208005"><ele>942.6666666666666</ele><time>2026-05-02T11:26:07.505Z</time></trkpt><trkpt lat="40.1537461" lon="8.6207035"><ele>942.0</ele><time>2026-05-02T11:26:08.506Z</time></trkpt><trkpt lat="40.1537543" lon="8.6206059"><ele>942.0000000000001</ele><time>2026-05-02T11:26:09.504Z</time></trkpt><trkpt lat="40.1537644" lon="8.6205083"><ele>942.0</ele><time>2026-05-02T11:26:10.504Z</time></trkpt><trkpt lat="40.153782" lon="8.6204104"><ele>942.0000000000001</ele><time>2026-05-02T11:26:11.505Z</time></trkpt><trkpt lat="40.1538031" lon="8.6203219"><ele>942.0000000000001</ele><time>2026-05-02T11:26:12.505Z</time></trkpt><trkpt lat="40.1538278" lon="8.6202421"><ele>942.0</ele><time>2026-05-02T11:26:13.505Z</time></trkpt><trkpt lat="40.1538507" lon="8.6201529"><ele>942.0000000000001</ele><time>2026-05-02T11:26:14.505Z</time></trkpt><trkpt lat="40.1538643" lon="8.6200648"><ele>942.0000000000001</ele><time>2026-05-02T11:26:15.505Z</time></trkpt><trkpt lat="40.1538987" lon="8.6199322"><ele>942.3333333333334</ele><time>2026-05-02T11:26:17.505Z</time></trkpt><trkpt lat="40.1539257" lon="8.6198297"><ele>942.6666666666667</ele><time>2026-05-02T11:26:19.505Z</time></trkpt><trkpt lat="40.1539364" lon="8.6197005"><ele>943.0</ele><time>2026-05-02T11:26:21.504Z</time></trkpt><trkpt lat="40.1539629" lon="8.6196066"><ele>943.3333333333334</ele><time>2026-05-02T11:26:23.505Z</time></trkpt><trkpt lat="40.1540096" lon="8.6195266"><ele>943.6666666666667</ele><time>2026-05-02T11:26:25.505Z</time></trkpt><trkpt lat="40.154038" lon="8.6194484"><ele>944.0</ele><time>2026-05-02T11:26:27.505Z</time></trkpt><trkpt lat="40.1540265" lon="8.6193673"><ele>944.8000000000001</ele><time>2026-05-02T11:26:31.505Z</time></trkpt><trkpt lat="40.1540328" lon="8.6192074"><ele>945.6000000000001</ele><time>2026-05-02T11:27:04.505Z</time></trkpt><trkpt lat="40.1540502" lon="8.6191159"><ele>946.4</ele><time>2026-05-02T11:27:05.506Z</time></trkpt><trkpt lat="40.1540729" lon="8.6190183"><ele>947.2</ele><time>2026-05-02T11:27:06.505Z</time></trkpt><trkpt lat="40.1541001" lon="8.618907"><ele>948.0</ele><time>2026-05-02T11:27:07.505Z</time></trkpt><trkpt lat="40.15412" lon="8.6187883"><ele>947.5</ele><time>2026-05-02T11:27:08.504Z</time></trkpt><trkpt lat="40.1541338" lon="8.6186637"><ele>947.0</ele><time>2026-05-02T11:27:09.504Z</time></trkpt><trkpt lat="40.1541439" lon="8.6185378"><ele>946.5</ele><time>2026-05-02T11:27:10.505Z</time></trkpt><trkpt lat="40.1541545" lon="8.6184149"><ele>946.0</ele><time>2026-05-02T11:27:11.505Z</time></trkpt><trkpt lat="40.1541666" lon="8.618311"><ele>945.5</ele><time>2026-05-02T11:27:12.506Z</time></trkpt><trkpt lat="40.1541911" lon="8.6182202"><ele>945.0</ele><time>2026-05-02T11:27:13.505Z</time></trkpt><trkpt lat="40.15423" lon="8.6181442"><ele>945.0</ele><time>2026-05-02T11:27:14.505Z</time></trkpt><trkpt lat="40.1542881" lon="8.6180824"><ele>945.0</ele><time>2026-05-02T11:27:15.506Z</time></trkpt><trkpt lat="40.1543544" lon="8.6180172"><ele>945.0</ele><time>2026-05-02T11:27:16.505Z</time></trkpt><trkpt lat="40.1544231" lon="8.6179438"><ele>945.0</ele><time>2026-05-02T11:27:17.505Z</time></trkpt><trkpt lat="40.1544987" lon="8.6178647"><ele>945.0</ele><time>2026-05-02T11:27:18.505Z</time></trkpt><trkpt lat="40.15457" lon="8.617777"><ele>945.0</ele><time>2026-05-02T11:27:19.506Z</time></trkpt><trkpt lat="40.1546425" lon="8.6176844"><ele>945.6</ele><time>2026-05-02T11:27:20.504Z</time></trkpt><trkpt lat="40.1547181" lon="8.6175884"><ele>946.2</ele><time>2026-05-02T11:27:21.506Z</time></trkpt><trkpt lat="40.154793" lon="8.617492"><ele>946.8</ele><time>2026-05-02T11:27:22.505Z</time></trkpt><trkpt lat="40.1548669" lon="8.6173928"><ele>947.4</ele><time>2026-05-02T11:27:23.504Z</time></trkpt><trkpt lat="40.1549443" lon="8.6172915"><ele>948.0</ele><time>2026-05-02T11:27:24.505Z</time></trkpt><trkpt lat="40.1550203" lon="8.6171937"><ele>948.0</ele><time>2026-05-02T11:27:25.506Z</time></trkpt><trkpt lat="40.155096" lon="8.6170952"><ele>948.0</ele><time>2026-05-02T11:27:26.505Z</time></trkpt><trkpt lat="40.1551682" lon="8.6170048"><ele>948.0</ele><time>2026-05-02T11:27:27.504Z</time></trkpt><trkpt lat="40.1552433" lon="8.6169048"><ele>948.0</ele><time>2026-05-02T11:27:28.506Z</time></trkpt><trkpt lat="40.1553161" lon="8.6167953"><ele>948.0</ele><time>2026-05-02T11:27:29.505Z</time></trkpt><trkpt lat="40.1553866" lon="8.616702"><ele>950.5999999999999</ele><time>2026-05-02T11:27:30.505Z</time></trkpt><trkpt lat="40.1554536" lon="8.6166208"><ele>953.1999999999999</ele><time>2026-05-02T11:27:31.505Z</time></trkpt><trkpt lat="40.1554982" lon="8.6165546"><ele>955.8</ele><time>2026-05-02T11:27:32.505Z</time></trkpt><trkpt lat="40.1555289" lon="8.6164279"><ele>958.4</ele><time>2026-05-02T11:27:34.505Z</time></trkpt><trkpt lat="40.1554646" lon="8.6163066"><ele>961.0</ele><time>2026-05-02T11:27:36.505Z</time></trkpt><trkpt lat="40.1554035" lon="8.6162408"><ele>961.0</ele><time>2026-05-02T11:27:37.505Z</time></trkpt><trkpt lat="40.1553292" lon="8.6161893"><ele>960.9999999999999</ele><time>2026-05-02T11:27:38.504Z</time></trkpt><trkpt lat="40.155237" lon="8.6161489"><ele>960.9999999999999</ele><time>2026-05-02T11:27:39.505Z</time></trkpt><trkpt lat="40.1551277" lon="8.6161143"><ele>961.0</ele><time>2026-05-02T11:27:40.505Z</time></trkpt><trkpt lat="40.1550128" lon="8.616076"><ele>961.0</ele><time>2026-05-02T11:27:41.505Z</time></trkpt><trkpt lat="40.154898" lon="8.6160299"><ele>965.0</ele><time>2026-05-02T11:27:42.506Z</time></trkpt><trkpt lat="40.1547814" lon="8.6159729"><ele>969.0</ele><time>2026-05-02T11:27:43.506Z</time></trkpt><trkpt lat="40.1546652" lon="8.6159167"><ele>973.0</ele><time>2026-05-02T11:27:44.505Z</time></trkpt><trkpt lat="40.1545563" lon="8.6158614"><ele>977.0</ele><time>2026-05-02T11:27:45.505Z</time></trkpt><trkpt lat="40.1544704" lon="8.6158014"><ele>977.0000000000001</ele><time>2026-05-02T11:27:46.505Z</time></trkpt><trkpt lat="40.1544084" lon="8.6157346"><ele>977.0</ele><time>2026-05-02T11:27:47.506Z</time></trkpt><trkpt lat="40.1543758" lon="8.615659"><ele>977.0</ele><time>2026-05-02T11:27:48.506Z</time></trkpt><trkpt lat="40.1543577" lon="8.6155654"><ele>977.0</ele><time>2026-05-02T11:27:49.505Z</time></trkpt><trkpt lat="40.1543558" lon="8.6154532"><ele>977.0000000000001</ele><time>2026-05-02T11:27:50.505Z</time></trkpt><trkpt lat="40.1543579" lon="8.6153277"><ele>977.0</ele><time>2026-05-02T11:27:51.505Z</time></trkpt><trkpt lat="40.1543514" lon="8.6151937"><ele>978.2</ele><time>2026-05-02T11:27:52.505Z</time></trkpt><trkpt lat="40.1543293" lon="8.61507"><ele>979.4000000000001</ele><time>2026-05-02T11:27:53.505Z</time></trkpt><trkpt lat="40.154302" lon="8.6149852"><ele>980.5999999999999</ele><time>2026-05-02T11:27:54.504Z</time></trkpt><trkpt lat="40.1542242" lon="8.6148761"><ele>981.8</ele><time>2026-05-02T11:27:56.505Z</time></trkpt><trkpt lat="40.1541074" lon="8.6147993"><ele>983.0</ele><time>2026-05-02T11:27:58.504Z</time></trkpt><trkpt lat="40.1540339" lon="8.6147311"><ele>978.75</ele><time>2026-05-02T11:27:59.504Z</time></trkpt><trkpt lat="40.1539532" lon="8.6146215"><ele>974.5</ele><time>2026-05-02T11:28:00.506Z</time></trkpt><trkpt lat="40.1538527" lon="8.6144896"><ele>970.25</ele><time>2026-05-02T11:28:01.505Z</time></trkpt><trkpt lat="40.1537524" lon="8.6143573"><ele>966.0</ele><time>2026-05-02T11:28:02.506Z</time></trkpt><trkpt lat="40.153655" lon="8.6142259"><ele>965.5</ele><time>2026-05-02T11:28:03.506Z</time></trkpt><trkpt lat="40.1535574" lon="8.6140939"><ele>965.0</ele><time>2026-05-02T11:28:04.505Z</time></trkpt><trkpt lat="40.1534683" lon="8.6139589"><ele>964.5</ele><time>2026-05-02T11:28:05.506Z</time></trkpt><trkpt lat="40.1533816" lon="8.6138056"><ele>964.0</ele><time>2026-05-02T11:28:06.504Z</time></trkpt><trkpt lat="40.1533015" lon="8.6136367"><ele>965.5</ele><time>2026-05-02T11:28:07.505Z</time></trkpt><trkpt lat="40.1532258" lon="8.6134603"><ele>967.0</ele><time>2026-05-02T11:28:08.506Z</time></trkpt><trkpt lat="40.1531582" lon="8.6133091"><ele>968.5</ele><time>2026-05-02T11:28:09.506Z</time></trkpt><trkpt lat="40.1530749" lon="8.613169"><ele>970.0</ele><time>2026-05-02T11:28:10.505Z</time></trkpt><trkpt lat="40.152973" lon="8.6130379"><ele>970.0</ele><time>2026-05-02T11:28:11.505Z</time></trkpt><trkpt lat="40.1528718" lon="8.612921"><ele>970.0</ele><time>2026-05-02T11:28:12.504Z</time></trkpt><trkpt lat="40.1527779" lon="8.6128212"><ele>970.0</ele><time>2026-05-02T11:28:13.504Z</time></trkpt><trkpt lat="40.1526818" lon="8.6127581"><ele>970.0</ele><time>2026-05-02T11:28:14.504Z</time></trkpt><trkpt lat="40.1525702" lon="8.6127162"><ele>970.0</ele><time>2026-05-02T11:28:15.504Z</time></trkpt><trkpt lat="40.1524426" lon="8.6126744"><ele>970.0</ele><time>2026-05-02T11:28:16.505Z</time></trkpt><trkpt lat="40.1523075" lon="8.6126542"><ele>970.0</ele><time>2026-05-02T11:28:17.505Z</time></trkpt><trkpt lat="40.1521621" lon="8.6126486"><ele>970.0</ele><time>2026-05-02T11:28:18.506Z</time></trkpt><trkpt lat="40.1520096" lon="8.6126536"><ele>970.3333333333333</ele><time>2026-05-02T11:28:19.505Z</time></trkpt><trkpt lat="40.1518525" lon="8.6126565"><ele>970.6666666666667</ele><time>2026-05-02T11:28:20.505Z</time></trkpt><trkpt lat="40.151692" lon="8.6126531"><ele>971.0</ele><time>2026-05-02T11:28:21.504Z</time></trkpt><trkpt lat="40.151535" lon="8.6126512"><ele>971.25</ele><time>2026-05-02T11:28:22.504Z</time></trkpt><trkpt lat="40.1513965" lon="8.6126498"><ele>971.5</ele><time>2026-05-02T11:28:23.504Z</time></trkpt><trkpt lat="40.1512701" lon="8.6126495"><ele>971.75</ele><time>2026-05-02T11:28:24.504Z</time></trkpt><trkpt lat="40.1511633" lon="8.6126457"><ele>972.0</ele><time>2026-05-02T11:28:25.506Z</time></trkpt><trkpt lat="40.1510637" lon="8.6126214"><ele>972.0</ele><time>2026-05-02T11:28:26.505Z</time></trkpt><trkpt lat="40.1509876" lon="8.6125749"><ele>972.0</ele><time>2026-05-02T11:28:27.505Z</time></trkpt><trkpt lat="40.1509321" lon="8.6125127"><ele>972.0</ele><time>2026-05-02T11:28:28.505Z</time></trkpt><trkpt lat="40.1509013" lon="8.6124016"><ele>972.0</ele><time>2026-05-02T11:28:29.506Z</time></trkpt><trkpt lat="40.1508888" lon="8.6122617"><ele>972.0</ele><time>2026-05-02T11:28:30.505Z</time></trkpt><trkpt lat="40.1508883" lon="8.6121208"><ele>972.0</ele><time>2026-05-02T11:28:31.506Z</time></trkpt><trkpt lat="40.1508857" lon="8.6120021"><ele>972.0</ele><time>2026-05-02T11:28:32.505Z</time></trkpt><trkpt lat="40.1508752" lon="8.6119177"><ele>972.0</ele><time>2026-05-02T11:28:33.504Z</time></trkpt><trkpt lat="40.1508649" lon="8.611817"><ele>972.0</ele><time>2026-05-02T11:28:35.504Z</time></trkpt><trkpt lat="40.1508089" lon="8.6118563"><ele>972.0</ele><time>2026-05-02T11:28:39.505Z</time></trkpt><trkpt lat="40.1508561" lon="8.6119583"><ele>972.0</ele><time>2026-05-02T11:28:42.505Z</time></trkpt><trkpt lat="40.150869" lon="8.6120523"><ele>972.0</ele><time>2026-05-02T11:28:44.504Z</time></trkpt><trkpt lat="40.1508791" lon="8.6122031"><ele>972.0</ele><time>2026-05-02T11:28:46.504Z</time></trkpt><trkpt lat="40.150887" lon="8.6123633"><ele>972.0</ele><time>2026-05-02T11:28:48.506Z</time></trkpt><trkpt lat="40.1509161" lon="8.6124741"><ele>972.0</ele><time>2026-05-02T11:28:50.504Z</time></trkpt><trkpt lat="40.1509558" lon="8.612544"><ele>972.0</ele><time>2026-05-02T11:29:45.506Z</time></trkpt><trkpt lat="40.1509965" lon="8.6126181"><ele>972.0</ele><time>2026-05-02T11:29:47.505Z</time></trkpt><trkpt lat="40.1511084" lon="8.6126637"><ele>972.0</ele><time>2026-05-02T11:29:49.503Z</time></trkpt><trkpt lat="40.1511723" lon="8.612672"><ele>972.0</ele><time>2026-05-02T11:29:50.504Z</time></trkpt><trkpt lat="40.1512471" lon="8.6126712"><ele>972.0</ele><time>2026-05-02T11:29:51.504Z</time></trkpt><trkpt lat="40.1513257" lon="8.6126676"><ele>972.0</ele><time>2026-05-02T11:29:52.504Z</time></trkpt><trkpt lat="40.1514078" lon="8.6126671"><ele>972.0</ele><time>2026-05-02T11:29:53.504Z</time></trkpt><trkpt lat="40.1514912" lon="8.6126688"><ele>972.0</ele><time>2026-05-02T11:29:54.504Z</time></trkpt><trkpt lat="40.1515696" lon="8.6126716"><ele>972.0</ele><time>2026-05-02T11:29:55.504Z</time></trkpt><trkpt lat="40.1516571" lon="8.6126666"><ele>972.0</ele><time>2026-05-02T11:29:57.504Z</time></trkpt><trkpt lat="40.1515372" lon="8.6126602"><ele>972.0</ele><time>2026-05-02T11:30:06.503Z</time></trkpt><trkpt lat="40.1514597" lon="8.6126615"><ele>972.0</ele><time>2026-05-02T11:30:07.503Z</time></trkpt><trkpt lat="40.1513609" lon="8.612664"><ele>972.0</ele><time>2026-05-02T11:30:08.504Z</time></trkpt><trkpt lat="40.1512467" lon="8.6126629"><ele>972.0</ele><time>2026-05-02T11:30:09.504Z</time></trkpt><trkpt lat="40.1511393" lon="8.6126599"><ele>972.0</ele><time>2026-05-02T11:30:10.505Z</time></trkpt><trkpt lat="40.1510604" lon="8.6126356"><ele>972.0</ele><time>2026-05-02T11:30:11.504Z</time></trkpt><trkpt lat="40.1509882" lon="8.6125788"><ele>972.0</ele><time>2026-05-02T11:30:12.504Z</time></trkpt><trkpt lat="40.150924" lon="8.6124804"><ele>972.0</ele><time>2026-05-02T11:30:13.504Z</time></trkpt><trkpt lat="40.1508907" lon="8.6123657"><ele>972.0</ele><time>2026-05-02T11:30:14.504Z</time></trkpt><trkpt lat="40.1508776" lon="8.6122456"><ele>972.0</ele><time>2026-05-02T11:30:15.503Z</time></trkpt><trkpt lat="40.1508843" lon="8.6121242"><ele>972.0</ele><time>2026-05-02T11:30:16.503Z</time></trkpt><trkpt lat="40.1508855" lon="8.612029"><ele>972.0</ele><time>2026-05-02T11:30:17.503Z</time></trkpt><trkpt lat="40.1508606" lon="8.6119054"><ele>973.2</ele><time>2026-05-02T11:30:19.504Z</time></trkpt><trkpt lat="40.1507977" lon="8.6118601"><ele>974.4000000000001</ele><time>2026-05-02T11:30:22.503Z</time></trkpt><trkpt lat="40.1508574" lon="8.6117969"><ele>975.5999999999999</ele><time>2026-05-02T11:30:48.504Z</time></trkpt><trkpt lat="40.1508659" lon="8.6116686"><ele>976.8</ele><time>2026-05-02T11:30:50.504Z</time></trkpt><trkpt lat="40.1508357" lon="8.6115169"><ele>978.0</ele><time>2026-05-02T11:30:52.503Z</time></trkpt><trkpt lat="40.1508167" lon="8.6113575"><ele>978.0</ele><time>2026-05-02T11:30:54.504Z</time></trkpt><trkpt lat="40.1507987" lon="8.611266"><ele>978.0</ele><time>2026-05-02T11:30:55.505Z</time></trkpt><trkpt lat="40.150785" lon="8.6111702"><ele>978.0</ele><time>2026-05-02T11:30:56.503Z</time></trkpt><trkpt lat="40.1507759" lon="8.6110765"><ele>978.0</ele><time>2026-05-02T11:30:57.504Z</time></trkpt><trkpt lat="40.1507831" lon="8.610916"><ele>978.0</ele><time>2026-05-02T11:30:59.505Z</time></trkpt><trkpt lat="40.1508086" lon="8.6107876"><ele>978.0</ele><time>2026-05-02T11:31:01.504Z</time></trkpt><trkpt lat="40.1507971" lon="8.6109376"><ele>978.0</ele><time>2026-05-02T11:31:12.504Z</time></trkpt><trkpt lat="40.150788" lon="8.6110733"><ele>978.0</ele><time>2026-05-02T11:31:14.505Z</time></trkpt><trkpt lat="40.1507852" lon="8.6112483"><ele>978.0</ele><time>2026-05-02T11:31:16.503Z</time></trkpt><trkpt lat="40.1508036" lon="8.611354"><ele>978.0</ele><time>2026-05-02T11:31:17.504Z</time></trkpt><trkpt lat="40.1508185" lon="8.6114784"><ele>978.0</ele><time>2026-05-02T11:31:18.504Z</time></trkpt><trkpt lat="40.1508337" lon="8.6115923"><ele>978.0</ele><time>2026-05-02T11:31:19.504Z</time></trkpt><trkpt lat="40.1508494" lon="8.6116914"><ele>978.0</ele><time>2026-05-02T11:31:20.504Z</time></trkpt><trkpt lat="40.1508431" lon="8.6118045"><ele>978.0</ele><time>2026-05-02T11:31:22.503Z</time></trkpt><trkpt lat="40.150745" lon="8.6118412"><ele>978.0</ele><time>2026-05-02T11:31:25.505Z</time></trkpt><trkpt lat="40.1506695" lon="8.6117871"><ele>978.0</ele><time>2026-05-02T11:31:27.503Z</time></trkpt><trkpt lat="40.1506178" lon="8.6116837"><ele>978.0</ele><time>2026-05-02T11:31:30.504Z</time></trkpt><trkpt lat="40.1505637" lon="8.6115229"><ele>975.0</ele><time>2026-05-02T11:31:32.504Z</time></trkpt><trkpt lat="40.1505393" lon="8.6114241"><ele>972.0</ele><time>2026-05-02T11:31:33.503Z</time></trkpt><trkpt lat="40.1505215" lon="8.6113159"><ele>969.0</ele><time>2026-05-02T11:31:34.503Z</time></trkpt><trkpt lat="40.1505005" lon="8.6111963"><ele>966.0</ele><time>2026-05-02T11:31:35.504Z</time></trkpt><trkpt lat="40.1504827" lon="8.611076"><ele>963.0</ele><time>2026-05-02T11:31:36.503Z</time></trkpt><trkpt lat="40.150471" lon="8.6109635"><ele>960.0</ele><time>2026-05-02T11:31:37.503Z</time></trkpt><trkpt lat="40.1504576" lon="8.6108473"><ele>959.8571428571429</ele><time>2026-05-02T11:31:38.504Z</time></trkpt><trkpt lat="40.1504431" lon="8.6107472"><ele>959.7142857142857</ele><time>2026-05-02T11:31:39.505Z</time></trkpt><trkpt lat="40.1504245" lon="8.6106663"><ele>959.5714285714286</ele><time>2026-05-02T11:31:40.505Z</time></trkpt><trkpt lat="40.1503953" lon="8.610584"><ele>959.4285714285714</ele><time>2026-05-02T11:31:41.504Z</time></trkpt><trkpt lat="40.1503575" lon="8.61051"><ele>959.2857142857142</ele><time>2026-05-02T11:31:42.503Z</time></trkpt><trkpt lat="40.1503203" lon="8.6104269"><ele>959.1428571428571</ele><time>2026-05-02T11:31:43.503Z</time></trkpt><trkpt lat="40.1502757" lon="8.6103335"><ele>959.0</ele><time>2026-05-02T11:31:44.504Z</time></trkpt><trkpt lat="40.150221" lon="8.6102432"><ele>960.4000000000001</ele><time>2026-05-02T11:31:45.503Z</time></trkpt><trkpt lat="40.1501634" lon="8.6101569"><ele>961.8000000000001</ele><time>2026-05-02T11:31:46.504Z</time></trkpt><trkpt lat="40.1500974" lon="8.6100585"><ele>963.1999999999999</ele><time>2026-05-02T11:31:47.504Z</time></trkpt><trkpt lat="40.1500277" lon="8.6099496"><ele>964.5999999999999</ele><time>2026-05-02T11:31:48.504Z</time></trkpt><trkpt lat="40.1499534" lon="8.6098483"><ele>966.0</ele><time>2026-05-02T11:31:49.504Z</time></trkpt><trkpt lat="40.1498653" lon="8.6097603"><ele>966.0</ele><time>2026-05-02T11:31:50.505Z</time></trkpt><trkpt lat="40.1497663" lon="8.6096769"><ele>966.0</ele><time>2026-05-02T11:31:51.505Z</time></trkpt><trkpt lat="40.1496603" lon="8.6096015"><ele>966.0</ele><time>2026-05-02T11:31:52.503Z</time></trkpt><trkpt lat="40.1495511" lon="8.6095354"><ele>966.0</ele><time>2026-05-02T11:31:53.504Z</time></trkpt><trkpt lat="40.1494372" lon="8.6094809"><ele>966.0</ele><time>2026-05-02T11:31:54.503Z</time></trkpt><trkpt lat="40.1493282" lon="8.6094276"><ele>966.0</ele><time>2026-05-02T11:31:55.503Z</time></trkpt><trkpt lat="40.1492188" lon="8.6093747"><ele>966.0</ele><time>2026-05-02T11:31:56.504Z</time></trkpt><trkpt lat="40.1491074" lon="8.6093198"><ele>966.0</ele><time>2026-05-02T11:31:57.504Z</time></trkpt><trkpt lat="40.1489952" lon="8.6092672"><ele>962.5</ele><time>2026-05-02T11:31:58.505Z</time></trkpt><trkpt lat="40.1488817" lon="8.609211"><ele>959.0</ele><time>2026-05-02T11:31:59.504Z</time></trkpt><trkpt lat="40.1487684" lon="8.6091587"><ele>955.5</ele><time>2026-05-02T11:32:00.505Z</time></trkpt><trkpt lat="40.1486575" lon="8.6091083"><ele>952.0</ele><time>2026-05-02T11:32:01.503Z</time></trkpt><trkpt lat="40.1485477" lon="8.6090559"><ele>952.0</ele><time>2026-05-02T11:32:02.504Z</time></trkpt><trkpt lat="40.1484354" lon="8.6090002"><ele>952.0</ele><time>2026-05-02T11:32:03.505Z</time></trkpt><trkpt lat="40.1483308" lon="8.6089478"><ele>952.0</ele><time>2026-05-02T11:32:04.503Z</time></trkpt><trkpt lat="40.1482311" lon="8.608901"><ele>952.0</ele><time>2026-05-02T11:32:05.503Z</time></trkpt><trkpt lat="40.1481223" lon="8.6088681"><ele>952.2</ele><time>2026-05-02T11:32:06.504Z</time></trkpt><trkpt lat="40.1480009" lon="8.6088401"><ele>952.4000000000001</ele><time>2026-05-02T11:32:07.503Z</time></trkpt><trkpt lat="40.1478856" lon="8.6088042"><ele>952.5999999999999</ele><time>2026-05-02T11:32:08.504Z</time></trkpt><trkpt lat="40.1477836" lon="8.6087791"><ele>952.8</ele><time>2026-05-02T11:32:09.505Z</time></trkpt><trkpt lat="40.1476851" lon="8.6087787"><ele>953.0</ele><time>2026-05-02T11:32:10.505Z</time></trkpt><trkpt lat="40.1475878" lon="8.6088048"><ele>953.0</ele><time>2026-05-02T11:32:11.504Z</time></trkpt><trkpt lat="40.147494" lon="8.6088582"><ele>953.0</ele><time>2026-05-02T11:32:12.504Z</time></trkpt><trkpt lat="40.1473938" lon="8.6089333"><ele>953.0</ele><time>2026-05-02T11:32:13.504Z</time></trkpt><trkpt lat="40.1472891" lon="8.6090198"><ele>953.0</ele><time>2026-05-02T11:32:14.505Z</time></trkpt><trkpt lat="40.1471846" lon="8.6091188"><ele>951.75</ele><time>2026-05-02T11:32:15.503Z</time></trkpt><trkpt lat="40.1470855" lon="8.6092325"><ele>950.5</ele><time>2026-05-02T11:32:16.504Z</time></trkpt><trkpt lat="40.1469882" lon="8.6093476"><ele>949.25</ele><time>2026-05-02T11:32:17.504Z</time></trkpt><trkpt lat="40.1468956" lon="8.6094461"><ele>948.0</ele><time>2026-05-02T11:32:18.504Z</time></trkpt><trkpt lat="40.1467955" lon="8.609535"><ele>948.0</ele><time>2026-05-02T11:32:19.505Z</time></trkpt><trkpt lat="40.1466928" lon="8.6096223"><ele>948.0</ele><time>2026-05-02T11:32:20.504Z</time></trkpt><trkpt lat="40.1466068" lon="8.6096818"><ele>948.0</ele><time>2026-05-02T11:32:21.505Z</time></trkpt><trkpt lat="40.1465263" lon="8.6097095"><ele>948.0</ele><time>2026-05-02T11:32:22.503Z</time></trkpt><trkpt lat="40.146436" lon="8.6097236"><ele>948.0</ele><time>2026-05-02T11:32:23.505Z</time></trkpt><trkpt lat="40.1463195" lon="8.6097444"><ele>950.5</ele><time>2026-05-02T11:32:24.503Z</time></trkpt><trkpt lat="40.1461945" lon="8.6097865"><ele>953.0</ele><time>2026-05-02T11:32:25.503Z</time></trkpt><trkpt lat="40.1460556" lon="8.6098621"><ele>955.5</ele><time>2026-05-02T11:32:26.505Z</time></trkpt><trkpt lat="40.1459251" lon="8.6099486"><ele>958.0</ele><time>2026-05-02T11:32:27.504Z</time></trkpt><trkpt lat="40.1457973" lon="8.6100384"><ele>957.0</ele><time>2026-05-02T11:32:28.505Z</time></trkpt><trkpt lat="40.1456743" lon="8.610134"><ele>956.0</ele><time>2026-05-02T11:32:29.504Z</time></trkpt><trkpt lat="40.1455656" lon="8.6102233"><ele>955.0</ele><time>2026-05-02T11:32:30.505Z</time></trkpt><trkpt lat="40.1454746" lon="8.6103206"><ele>954.0</ele><time>2026-05-02T11:32:31.505Z</time></trkpt><trkpt lat="40.1453951" lon="8.6104276"><ele>954.0</ele><time>2026-05-02T11:32:32.505Z</time></trkpt><trkpt lat="40.1453215" lon="8.6105242"><ele>954.0000000000001</ele><time>2026-05-02T11:32:33.505Z</time></trkpt><trkpt lat="40.1452608" lon="8.6106042"><ele>954.0000000000001</ele><time>2026-05-02T11:32:34.505Z</time></trkpt><trkpt lat="40.1452045" lon="8.6106771"><ele>954.0</ele><time>2026-05-02T11:32:35.504Z</time></trkpt><trkpt lat="40.1451475" lon="8.6107301"><ele>954.0</ele><time>2026-05-02T11:32:36.503Z</time></trkpt><trkpt lat="40.1449898" lon="8.6107505"><ele>954.0</ele><time>2026-05-02T11:32:38.505Z</time></trkpt><trkpt lat="40.14488" lon="8.6107372"><ele>954.0</ele><time>2026-05-02T11:32:39.504Z</time></trkpt><trkpt lat="40.1447557" lon="8.6107194"><ele>954.0</ele><time>2026-05-02T11:32:40.503Z</time></trkpt><trkpt lat="40.1446262" lon="8.6106988"><ele>954.0</ele><time>2026-05-02T11:32:41.503Z</time></trkpt><trkpt lat="40.1444931" lon="8.6106708"><ele>954.4000000000001</ele><time>2026-05-02T11:32:42.503Z</time></trkpt><trkpt lat="40.14437" lon="8.6106508"><ele>954.8000000000001</ele><time>2026-05-02T11:32:43.503Z</time></trkpt><trkpt lat="40.144256" lon="8.6106239"><ele>955.1999999999999</ele><time>2026-05-02T11:32:44.504Z</time></trkpt><trkpt lat="40.1441535" lon="8.6106047"><ele>955.5999999999999</ele><time>2026-05-02T11:32:45.505Z</time></trkpt><trkpt lat="40.1440493" lon="8.6106014"><ele>956.0</ele><time>2026-05-02T11:32:46.504Z</time></trkpt><trkpt lat="40.1439463" lon="8.6106218"><ele>959.25</ele><time>2026-05-02T11:32:47.503Z</time></trkpt><trkpt lat="40.1438455" lon="8.6106602"><ele>962.5</ele><time>2026-05-02T11:32:48.503Z</time></trkpt><trkpt lat="40.1437503" lon="8.6107285"><ele>965.75</ele><time>2026-05-02T11:32:49.503Z</time></trkpt><trkpt lat="40.1436436" lon="8.6108251"><ele>969.0</ele><time>2026-05-02T11:32:50.503Z</time></trkpt><trkpt lat="40.1435339" lon="8.6109232"><ele>969.0</ele><time>2026-05-02T11:32:51.503Z</time></trkpt><trkpt lat="40.143435" lon="8.611023"><ele>969.0</ele><time>2026-05-02T11:32:52.505Z</time></trkpt><trkpt lat="40.1433548" lon="8.6111315"><ele>969.0</ele><time>2026-05-02T11:32:53.503Z</time></trkpt><trkpt lat="40.1432798" lon="8.6112557"><ele>969.0</ele><time>2026-05-02T11:32:54.505Z</time></trkpt><trkpt lat="40.1432032" lon="8.6113782"><ele>970.25</ele><time>2026-05-02T11:32:55.505Z</time></trkpt><trkpt lat="40.1431423" lon="8.6115095"><ele>971.5</ele><time>2026-05-02T11:32:56.503Z</time></trkpt><trkpt lat="40.1430869" lon="8.6116463"><ele>972.75</ele><time>2026-05-02T11:32:57.504Z</time></trkpt><trkpt lat="40.1430295" lon="8.6117712"><ele>974.0</ele><time>2026-05-02T11:32:58.504Z</time></trkpt><trkpt lat="40.1429737" lon="8.6118871"><ele>970.2</ele><time>2026-05-02T11:32:59.504Z</time></trkpt><trkpt lat="40.1429191" lon="8.6120185"><ele>966.4000000000001</ele><time>2026-05-02T11:33:00.504Z</time></trkpt><trkpt lat="40.1428679" lon="8.6121454"><ele>962.6</ele><time>2026-05-02T11:33:01.505Z</time></trkpt><trkpt lat="40.1428156" lon="8.6122743"><ele>958.8</ele><time>2026-05-02T11:33:02.503Z</time></trkpt><trkpt lat="40.1427676" lon="8.6124031"><ele>955.0</ele><time>2026-05-02T11:33:03.504Z</time></trkpt><trkpt lat="40.1427191" lon="8.6125177"><ele>955.0</ele><time>2026-05-02T11:33:04.503Z</time></trkpt><trkpt lat="40.1426621" lon="8.6126229"><ele>955.0</ele><time>2026-05-02T11:33:05.503Z</time></trkpt><trkpt lat="40.1425889" lon="8.6127236"><ele>955.0</ele><time>2026-05-02T11:33:06.504Z</time></trkpt><trkpt lat="40.1425045" lon="8.6128188"><ele>955.0</ele><time>2026-05-02T11:33:07.503Z</time></trkpt><trkpt lat="40.1424126" lon="8.6128987"><ele>955.0</ele><time>2026-05-02T11:33:08.504Z</time></trkpt><trkpt lat="40.1423135" lon="8.6129569"><ele>950.8</ele><time>2026-05-02T11:33:09.505Z</time></trkpt><trkpt lat="40.1421988" lon="8.6130035"><ele>946.6</ele><time>2026-05-02T11:33:10.504Z</time></trkpt><trkpt lat="40.1420816" lon="8.6130472"><ele>942.4000000000001</ele><time>2026-05-02T11:33:11.505Z</time></trkpt><trkpt lat="40.1419753" lon="8.6130692"><ele>938.2</ele><time>2026-05-02T11:33:12.504Z</time></trkpt><trkpt lat="40.1418793" lon="8.6130642"><ele>934.0</ele><time>2026-05-02T11:33:13.505Z</time></trkpt><trkpt lat="40.1417743" lon="8.6130475"><ele>934.0</ele><time>2026-05-02T11:33:14.504Z</time></trkpt><trkpt lat="40.1416703" lon="8.6130266"><ele>934.0</ele><time>2026-05-02T11:33:15.505Z</time></trkpt><trkpt lat="40.141552" lon="8.6130063"><ele>934.0</ele><time>2026-05-02T11:33:16.504Z</time></trkpt><trkpt lat="40.1414368" lon="8.6129738"><ele>934.0</ele><time>2026-05-02T11:33:17.502Z</time></trkpt><trkpt lat="40.1413245" lon="8.6129283"><ele>933.0</ele><time>2026-05-02T11:33:18.503Z</time></trkpt><trkpt lat="40.1412098" lon="8.6128724"><ele>932.0</ele><time>2026-05-02T11:33:19.502Z</time></trkpt><trkpt lat="40.1411001" lon="8.6128156"><ele>931.0</ele><time>2026-05-02T11:33:20.502Z</time></trkpt><trkpt lat="40.140986" lon="8.6127568"><ele>930.0</ele><time>2026-05-02T11:33:21.503Z</time></trkpt><trkpt lat="40.1408815" lon="8.6126947"><ele>933.4</ele><time>2026-05-02T11:33:22.504Z</time></trkpt><trkpt lat="40.1407792" lon="8.6126365"><ele>936.8</ele><time>2026-05-02T11:33:23.504Z</time></trkpt><trkpt lat="40.1406819" lon="8.612585"><ele>940.2</ele><time>2026-05-02T11:33:24.502Z</time></trkpt><trkpt lat="40.1405966" lon="8.6125372"><ele>943.6</ele><time>2026-05-02T11:33:25.502Z</time></trkpt><trkpt lat="40.140508" lon="8.6125013"><ele>947.0</ele><time>2026-05-02T11:33:26.502Z</time></trkpt><trkpt lat="40.1404051" lon="8.6124657"><ele>947.0</ele><time>2026-05-02T11:33:27.503Z</time></trkpt><trkpt lat="40.1403194" lon="8.6124249"><ele>947.0</ele><time>2026-05-02T11:33:28.504Z</time></trkpt><trkpt lat="40.1402542" lon="8.6123714"><ele>947.0</ele><time>2026-05-02T11:33:29.503Z</time></trkpt><trkpt lat="40.1401891" lon="8.6123021"><ele>947.0</ele><time>2026-05-02T11:33:30.502Z</time></trkpt><trkpt lat="40.1401154" lon="8.6122223"><ele>947.0</ele><time>2026-05-02T11:33:31.502Z</time></trkpt><trkpt lat="40.1400311" lon="8.6121381"><ele>947.0</ele><time>2026-05-02T11:33:32.502Z</time></trkpt><trkpt lat="40.1399306" lon="8.6120489"><ele>947.0</ele><time>2026-05-02T11:33:33.503Z</time></trkpt><trkpt lat="40.1398225" lon="8.6119706"><ele>947.0</ele><time>2026-05-02T11:33:34.503Z</time></trkpt><trkpt lat="40.1397144" lon="8.6118935"><ele>947.0</ele><time>2026-05-02T11:33:35.504Z</time></trkpt><trkpt lat="40.1396057" lon="8.6118048"><ele>949.5</ele><time>2026-05-02T11:33:36.503Z</time></trkpt><trkpt lat="40.1394921" lon="8.6117072"><ele>952.0</ele><time>2026-05-02T11:33:37.502Z</time></trkpt><trkpt lat="40.1393824" lon="8.611605"><ele>954.5</ele><time>2026-05-02T11:33:38.504Z</time></trkpt><trkpt lat="40.1392741" lon="8.6115089"><ele>957.0</ele><time>2026-05-02T11:33:39.504Z</time></trkpt><trkpt lat="40.139159" lon="8.611411"><ele>957.25</ele><time>2026-05-02T11:33:40.503Z</time></trkpt><trkpt lat="40.1390419" lon="8.6113071"><ele>957.5</ele><time>2026-05-02T11:33:41.503Z</time></trkpt><trkpt lat="40.138922" lon="8.6111958"><ele>957.75</ele><time>2026-05-02T11:33:42.503Z</time></trkpt><trkpt lat="40.1388024" lon="8.6110813"><ele>958.0</ele><time>2026-05-02T11:33:43.504Z</time></trkpt><trkpt lat="40.1386822" lon="8.610974"><ele>958.0</ele><time>2026-05-02T11:33:44.504Z</time></trkpt><trkpt lat="40.1385746" lon="8.6108827"><ele>958.0</ele><time>2026-05-02T11:33:45.503Z</time></trkpt><trkpt lat="40.1384654" lon="8.6107917"><ele>958.0</ele><time>2026-05-02T11:33:46.503Z</time></trkpt><trkpt lat="40.1383588" lon="8.6107073"><ele>958.0</ele><time>2026-05-02T11:33:47.503Z</time></trkpt><trkpt lat="40.1382586" lon="8.6106339"><ele>957.0</ele><time>2026-05-02T11:33:48.503Z</time></trkpt><trkpt lat="40.1381597" lon="8.6105589"><ele>956.0</ele><time>2026-05-02T11:33:49.502Z</time></trkpt><trkpt lat="40.1380678" lon="8.6104903"><ele>955.0</ele><time>2026-05-02T11:33:50.503Z</time></trkpt><trkpt lat="40.1379806" lon="8.6104178"><ele>954.0</ele><time>2026-05-02T11:33:51.504Z</time></trkpt><trkpt lat="40.1378918" lon="8.610342"><ele>953.0</ele><time>2026-05-02T11:33:52.503Z</time></trkpt><trkpt lat="40.1378024" lon="8.6102664"><ele>952.8</ele><time>2026-05-02T11:33:53.504Z</time></trkpt><trkpt lat="40.1377103" lon="8.6101847"><ele>952.5999999999999</ele><time>2026-05-02T11:33:54.504Z</time></trkpt><trkpt lat="40.1376209" lon="8.6100991"><ele>952.4000000000001</ele><time>2026-05-02T11:33:55.503Z</time></trkpt><trkpt lat="40.1375266" lon="8.610014"><ele>952.2</ele><time>2026-05-02T11:33:56.503Z</time></trkpt><trkpt lat="40.1374347" lon="8.6099284"><ele>952.0</ele><time>2026-05-02T11:33:57.504Z</time></trkpt><trkpt lat="40.1373442" lon="8.6098453"><ele>950.75</ele><time>2026-05-02T11:33:58.503Z</time></trkpt><trkpt lat="40.1372526" lon="8.6097654"><ele>949.5</ele><time>2026-05-02T11:33:59.504Z</time></trkpt><trkpt lat="40.1371545" lon="8.609686"><ele>948.25</ele><time>2026-05-02T11:34:00.503Z</time></trkpt><trkpt lat="40.1370548" lon="8.6096065"><ele>947.0</ele><time>2026-05-02T11:34:01.503Z</time></trkpt><trkpt lat="40.1369479" lon="8.6095297"><ele>947.0</ele><time>2026-05-02T11:34:02.502Z</time></trkpt><trkpt lat="40.1368352" lon="8.6094477"><ele>947.0</ele><time>2026-05-02T11:34:03.503Z</time></trkpt><trkpt lat="40.1367243" lon="8.609364"><ele>947.0</ele><time>2026-05-02T11:34:04.503Z</time></trkpt><trkpt lat="40.1366142" lon="8.6092727"><ele>947.0</ele><time>2026-05-02T11:34:05.503Z</time></trkpt><trkpt lat="40.1365059" lon="8.6091776"><ele>947.0</ele><time>2026-05-02T11:34:06.504Z</time></trkpt><trkpt lat="40.1363966" lon="8.609079"><ele>947.0</ele><time>2026-05-02T11:34:07.503Z</time></trkpt><trkpt lat="40.136292" lon="8.6089753"><ele>947.0</ele><time>2026-05-02T11:34:08.503Z</time></trkpt><trkpt lat="40.1361981" lon="8.6088747"><ele>947.0</ele><time>2026-05-02T11:34:09.503Z</time></trkpt><trkpt lat="40.1361217" lon="8.6087709"><ele>948.0</ele><time>2026-05-02T11:34:10.503Z</time></trkpt><trkpt lat="40.1360588" lon="8.6086329"><ele>949.0</ele><time>2026-05-02T11:34:11.503Z</time></trkpt><trkpt lat="40.1360007" lon="8.6084873"><ele>950.0</ele><time>2026-05-02T11:34:12.504Z</time></trkpt><trkpt lat="40.1359426" lon="8.6083377"><ele>951.0</ele><time>2026-05-02T11:34:13.503Z</time></trkpt><trkpt lat="40.1358808" lon="8.6081756"><ele>951.0</ele><time>2026-05-02T11:34:14.503Z</time></trkpt><trkpt lat="40.1358245" lon="8.6080025"><ele>951.0</ele><time>2026-05-02T11:34:15.504Z</time></trkpt><trkpt lat="40.1357745" lon="8.6078241"><ele>951.0</ele><time>2026-05-02T11:34:16.502Z</time></trkpt><trkpt lat="40.1357295" lon="8.6076599"><ele>951.0</ele><time>2026-05-02T11:34:17.503Z</time></trkpt><trkpt lat="40.1356768" lon="8.6075081"><ele>951.75</ele><time>2026-05-02T11:34:18.503Z</time></trkpt><trkpt lat="40.1356218" lon="8.6073574"><ele>952.5</ele><time>2026-05-02T11:34:19.503Z</time></trkpt><trkpt lat="40.1355601" lon="8.6072153"><ele>953.25</ele><time>2026-05-02T11:34:20.502Z</time></trkpt><trkpt lat="40.1354931" lon="8.6070726"><ele>954.0</ele><time>2026-05-02T11:34:21.502Z</time></trkpt><trkpt lat="40.1354165" lon="8.6069305"><ele>954.0</ele><time>2026-05-02T11:34:22.502Z</time></trkpt><trkpt lat="40.1353297" lon="8.6068011"><ele>954.0</ele><time>2026-05-02T11:34:23.502Z</time></trkpt><trkpt lat="40.1352552" lon="8.6066976"><ele>954.0</ele><time>2026-05-02T11:34:24.503Z</time></trkpt><trkpt lat="40.1351747" lon="8.6066171"><ele>954.0</ele><time>2026-05-02T11:34:25.503Z</time></trkpt><trkpt lat="40.1350663" lon="8.6065451"><ele>954.0</ele><time>2026-05-02T11:34:26.502Z</time></trkpt><trkpt lat="40.1349467" lon="8.6064803"><ele>954.0</ele><time>2026-05-02T11:34:27.504Z</time></trkpt><trkpt lat="40.1348241" lon="8.6064141"><ele>954.0</ele><time>2026-05-02T11:34:28.503Z</time></trkpt><trkpt lat="40.1346978" lon="8.6063331"><ele>954.0</ele><time>2026-05-02T11:34:29.503Z</time></trkpt><trkpt lat="40.134588" lon="8.6062644"><ele>955.75</ele><time>2026-05-02T11:34:30.504Z</time></trkpt><trkpt lat="40.1344723" lon="8.6061981"><ele>957.5</ele><time>2026-05-02T11:34:31.503Z</time></trkpt><trkpt lat="40.1343527" lon="8.606126"><ele>959.25</ele><time>2026-05-02T11:34:32.503Z</time></trkpt><trkpt lat="40.1342333" lon="8.6060539"><ele>961.0</ele><time>2026-05-02T11:34:33.504Z</time></trkpt><trkpt lat="40.1341111" lon="8.6059862"><ele>958.0</ele><time>2026-05-02T11:34:34.504Z</time></trkpt><trkpt lat="40.1339717" lon="8.6059321"><ele>955.0</ele><time>2026-05-02T11:34:35.503Z</time></trkpt><trkpt lat="40.1338406" lon="8.6058673"><ele>952.0</ele><time>2026-05-02T11:34:36.502Z</time></trkpt><trkpt lat="40.1337121" lon="8.6058159"><ele>949.0</ele><time>2026-05-02T11:34:37.503Z</time></trkpt><trkpt lat="40.1335952" lon="8.6057494"><ele>949.0</ele><time>2026-05-02T11:34:38.503Z</time></trkpt><trkpt lat="40.1334881" lon="8.6056893"><ele>949.0000000000001</ele><time>2026-05-02T11:34:39.503Z</time></trkpt><trkpt lat="40.1334045" lon="8.6056294"><ele>949.0000000000001</ele><time>2026-05-02T11:34:40.503Z</time></trkpt><trkpt lat="40.1333309" lon="8.6055577"><ele>949.0</ele><time>2026-05-02T11:34:41.502Z</time></trkpt><trkpt lat="40.1332616" lon="8.6054843"><ele>949.0</ele><time>2026-05-02T11:34:42.503Z</time></trkpt><trkpt lat="40.133174" lon="8.6053676"><ele>945.5</ele><time>2026-05-02T11:34:43.504Z</time></trkpt><trkpt lat="40.1330859" lon="8.6052711"><ele>942.0</ele><time>2026-05-02T11:34:44.503Z</time></trkpt><trkpt lat="40.1329923" lon="8.6051777"><ele>938.5</ele><time>2026-05-02T11:34:45.503Z</time></trkpt><trkpt lat="40.1329022" lon="8.6050829"><ele>935.0</ele><time>2026-05-02T11:34:46.502Z</time></trkpt><trkpt lat="40.1328089" lon="8.6049989"><ele>935.0</ele><time>2026-05-02T11:34:47.503Z</time></trkpt><trkpt lat="40.132709" lon="8.6049034"><ele>935.0</ele><time>2026-05-02T11:34:48.504Z</time></trkpt><trkpt lat="40.1326116" lon="8.6048069"><ele>935.0</ele><time>2026-05-02T11:34:49.503Z</time></trkpt><trkpt lat="40.1325075" lon="8.6046991"><ele>935.0</ele><time>2026-05-02T11:34:50.504Z</time></trkpt><trkpt lat="40.1324073" lon="8.6045947"><ele>932.25</ele><time>2026-05-02T11:34:51.504Z</time></trkpt><trkpt lat="40.1323155" lon="8.6044923"><ele>929.5</ele><time>2026-05-02T11:34:52.503Z</time></trkpt><trkpt lat="40.1322139" lon="8.6043808"><ele>926.75</ele><time>2026-05-02T11:34:53.502Z</time></trkpt><trkpt lat="40.1321072" lon="8.6042605"><ele>924.0</ele><time>2026-05-02T11:34:54.502Z</time></trkpt><trkpt lat="40.1320155" lon="8.6041356"><ele>924.0</ele><time>2026-05-02T11:34:55.502Z</time></trkpt><trkpt lat="40.1319094" lon="8.6040171"><ele>924.0</ele><time>2026-05-02T11:34:56.503Z</time></trkpt><trkpt lat="40.1318107" lon="8.6038877"><ele>924.0</ele><time>2026-05-02T11:34:57.503Z</time></trkpt><trkpt lat="40.1317196" lon="8.6037653"><ele>924.0</ele><time>2026-05-02T11:34:58.504Z</time></trkpt><trkpt lat="40.1316261" lon="8.6036435"><ele>922.0</ele><time>2026-05-02T11:34:59.502Z</time></trkpt><trkpt lat="40.1315229" lon="8.6035244"><ele>920.0</ele><time>2026-05-02T11:35:00.504Z</time></trkpt><trkpt lat="40.1314275" lon="8.6034075"><ele>918.0</ele><time>2026-05-02T11:35:01.503Z</time></trkpt><trkpt lat="40.1313378" lon="8.6032967"><ele>916.0</ele><time>2026-05-02T11:35:02.503Z</time></trkpt><trkpt lat="40.1312517" lon="8.603193"><ele>916.0</ele><time>2026-05-02T11:35:03.503Z</time></trkpt><trkpt lat="40.1311774" lon="8.603081"><ele>916.0</ele><time>2026-05-02T11:35:04.504Z</time></trkpt><trkpt lat="40.1310899" lon="8.6029699"><ele>916.0</ele><time>2026-05-02T11:35:05.504Z</time></trkpt><trkpt lat="40.1310034" lon="8.6028711"><ele>916.0</ele><time>2026-05-02T11:35:06.504Z</time></trkpt><trkpt lat="40.1308956" lon="8.6027792"><ele>915.0</ele><time>2026-05-02T11:35:07.503Z</time></trkpt><trkpt lat="40.1307673" lon="8.6026971"><ele>914.0</ele><time>2026-05-02T11:35:08.503Z</time></trkpt><trkpt lat="40.1306312" lon="8.6026207"><ele>913.0</ele><time>2026-05-02T11:35:09.503Z</time></trkpt><trkpt lat="40.1304971" lon="8.6025595"><ele>912.0</ele><time>2026-05-02T11:35:10.503Z</time></trkpt><trkpt lat="40.1303725" lon="8.6025139"><ele>912.0</ele><time>2026-05-02T11:35:11.503Z</time></trkpt><trkpt lat="40.13026" lon="8.6024783"><ele>912.0</ele><time>2026-05-02T11:35:12.502Z</time></trkpt><trkpt lat="40.1301512" lon="8.6024583"><ele>912.0</ele><time>2026-05-02T11:35:13.503Z</time></trkpt><trkpt lat="40.1300498" lon="8.6024364"><ele>912.0</ele><time>2026-05-02T11:35:14.504Z</time></trkpt><trkpt lat="40.129945" lon="8.602423"><ele>912.0</ele><time>2026-05-02T11:35:15.504Z</time></trkpt><trkpt lat="40.1298378" lon="8.6024079"><ele>910.8</ele><time>2026-05-02T11:35:16.503Z</time></trkpt><trkpt lat="40.1297324" lon="8.6024048"><ele>909.6</ele><time>2026-05-02T11:35:17.504Z</time></trkpt><trkpt lat="40.12964" lon="8.6024101"><ele>908.3999999999999</ele><time>2026-05-02T11:35:18.503Z</time></trkpt><trkpt lat="40.129552" lon="8.6024048"><ele>907.1999999999999</ele><time>2026-05-02T11:35:19.503Z</time></trkpt><trkpt lat="40.1294722" lon="8.6024134"><ele>906.0</ele><time>2026-05-02T11:35:20.504Z</time></trkpt><trkpt lat="40.1293875" lon="8.6024057"><ele>906.0</ele><time>2026-05-02T11:35:21.503Z</time></trkpt><trkpt lat="40.129268" lon="8.6023958"><ele>906.0</ele><time>2026-05-02T11:35:22.504Z</time></trkpt><trkpt lat="40.1291503" lon="8.6023811"><ele>906.0</ele><time>2026-05-02T11:35:23.504Z</time></trkpt><trkpt lat="40.1290287" lon="8.6023576"><ele>906.0</ele><time>2026-05-02T11:35:24.504Z</time></trkpt><trkpt lat="40.1289069" lon="8.6023459"><ele>904.0</ele><time>2026-05-02T11:35:25.504Z</time></trkpt><trkpt lat="40.1287871" lon="8.6023322"><ele>902.0</ele><time>2026-05-02T11:35:26.502Z</time></trkpt><trkpt lat="40.1286732" lon="8.6023148"><ele>900.0</ele><time>2026-05-02T11:35:27.502Z</time></trkpt><trkpt lat="40.1285503" lon="8.6022913"><ele>898.0</ele><time>2026-05-02T11:35:28.504Z</time></trkpt><trkpt lat="40.128417" lon="8.602259"><ele>898.0</ele><time>2026-05-02T11:35:29.504Z</time></trkpt><trkpt lat="40.1282876" lon="8.6022283"><ele>898.0</ele><time>2026-05-02T11:35:30.503Z</time></trkpt><trkpt lat="40.1281544" lon="8.6021954"><ele>898.0</ele><time>2026-05-02T11:35:31.504Z</time></trkpt><trkpt lat="40.1280249" lon="8.6021534"><ele>898.0</ele><time>2026-05-02T11:35:32.503Z</time></trkpt><trkpt lat="40.1278905" lon="8.6021185"><ele>896.75</ele><time>2026-05-02T11:35:33.503Z</time></trkpt><trkpt lat="40.1277589" lon="8.6020834"><ele>895.5</ele><time>2026-05-02T11:35:34.503Z</time></trkpt><trkpt lat="40.1276291" lon="8.6020461"><ele>894.25</ele><time>2026-05-02T11:35:35.502Z</time></trkpt><trkpt lat="40.127502" lon="8.6020149"><ele>893.0</ele><time>2026-05-02T11:35:36.504Z</time></trkpt><trkpt lat="40.1273697" lon="8.6019799"><ele>891.5</ele><time>2026-05-02T11:35:37.503Z</time></trkpt><trkpt lat="40.127239" lon="8.6019453"><ele>890.0</ele><time>2026-05-02T11:35:38.503Z</time></trkpt><trkpt lat="40.1271038" lon="8.6019087"><ele>888.5</ele><time>2026-05-02T11:35:39.504Z</time></trkpt><trkpt lat="40.1269692" lon="8.6018753"><ele>887.0</ele><time>2026-05-02T11:35:40.503Z</time></trkpt><trkpt lat="40.1268434" lon="8.601841"><ele>887.0</ele><time>2026-05-02T11:35:41.502Z</time></trkpt><trkpt lat="40.1267293" lon="8.6018078"><ele>887.0</ele><time>2026-05-02T11:35:42.503Z</time></trkpt><trkpt lat="40.1266149" lon="8.6017734"><ele>887.0</ele><time>2026-05-02T11:35:43.503Z</time></trkpt><trkpt lat="40.1265106" lon="8.6017536"><ele>887.0</ele><time>2026-05-02T11:35:44.503Z</time></trkpt><trkpt lat="40.1264151" lon="8.6017388"><ele>887.0</ele><time>2026-05-02T11:35:45.503Z</time></trkpt><trkpt lat="40.1263329" lon="8.6017195"><ele>886.4000000000001</ele><time>2026-05-02T11:35:46.503Z</time></trkpt><trkpt lat="40.1262173" lon="8.6016891"><ele>885.8000000000001</ele><time>2026-05-02T11:35:48.502Z</time></trkpt><trkpt lat="40.1261207" lon="8.6016546"><ele>885.2</ele><time>2026-05-02T11:35:50.503Z</time></trkpt><trkpt lat="40.1260459" lon="8.6016358"><ele>884.6</ele><time>2026-05-02T11:35:53.504Z</time></trkpt><trkpt lat="40.1259677" lon="8.6016018"><ele>884.0</ele><time>2026-05-02T11:35:57.503Z</time></trkpt><trkpt lat="40.1258905" lon="8.6015589"><ele>884.0000000000001</ele><time>2026-05-02T11:36:00.504Z</time></trkpt><trkpt lat="40.1258283" lon="8.6015356"><ele>884.0</ele><time>2026-05-02T11:36:02.502Z</time></trkpt><trkpt lat="40.1257552" lon="8.6015232"><ele>884.0</ele><time>2026-05-02T11:36:04.503Z</time></trkpt><trkpt lat="40.1256709" lon="8.6015146"><ele>884.0</ele><time>2026-05-02T11:36:06.502Z</time></trkpt><trkpt lat="40.1255881" lon="8.6015181"><ele>884.0000000000001</ele><time>2026-05-02T11:36:08.503Z</time></trkpt><trkpt lat="40.1254908" lon="8.601497"><ele>884.0</ele><time>2026-05-02T11:37:12.502Z</time></trkpt><trkpt lat="40.1254161" lon="8.6014857"><ele>882.8000000000001</ele><time>2026-05-02T11:37:13.503Z</time></trkpt><trkpt lat="40.1253208" lon="8.6014719"><ele>881.6000000000001</ele><time>2026-05-02T11:37:14.503Z</time></trkpt><trkpt lat="40.1252206" lon="8.6014572"><ele>880.4</ele><time>2026-05-02T11:37:15.503Z</time></trkpt><trkpt lat="40.1251193" lon="8.60144"><ele>879.2</ele><time>2026-05-02T11:37:16.502Z</time></trkpt><trkpt lat="40.1250211" lon="8.6014271"><ele>878.0</ele><time>2026-05-02T11:37:17.502Z</time></trkpt><trkpt lat="40.1249219" lon="8.6014138"><ele>876.6666666666667</ele><time>2026-05-02T11:37:18.504Z</time></trkpt><trkpt lat="40.1248306" lon="8.6013969"><ele>875.3333333333334</ele><time>2026-05-02T11:37:19.503Z</time></trkpt><trkpt lat="40.1247414" lon="8.6013828"><ele>874.0</ele><time>2026-05-02T11:37:20.503Z</time></trkpt><trkpt lat="40.124666" lon="8.6013601"><ele>872.6666666666667</ele><time>2026-05-02T11:37:21.503Z</time></trkpt><trkpt lat="40.1245938" lon="8.6013433"><ele>871.3333333333334</ele><time>2026-05-02T11:37:22.503Z</time></trkpt><trkpt lat="40.1245112" lon="8.6013225"><ele>870.0</ele><time>2026-05-02T11:37:23.502Z</time></trkpt><trkpt lat="40.1244194" lon="8.6012999"><ele>870.0</ele><time>2026-05-02T11:37:24.503Z</time></trkpt><trkpt lat="40.1243336" lon="8.6012768"><ele>870.0</ele><time>2026-05-02T11:37:25.503Z</time></trkpt><trkpt lat="40.1242617" lon="8.601268"><ele>870.0</ele><time>2026-05-02T11:37:26.502Z</time></trkpt><trkpt lat="40.1241908" lon="8.6012513"><ele>870.0</ele><time>2026-05-02T11:37:27.503Z</time></trkpt><trkpt lat="40.1241044" lon="8.6012265"><ele>870.0</ele><time>2026-05-02T11:37:28.503Z</time></trkpt><trkpt lat="40.1240088" lon="8.6011973"><ele>870.0</ele><time>2026-05-02T11:37:29.503Z</time></trkpt><trkpt lat="40.1239086" lon="8.6011681"><ele>868.2</ele><time>2026-05-02T11:37:30.502Z</time></trkpt><trkpt lat="40.1238155" lon="8.6011341"><ele>866.4</ele><time>2026-05-02T11:37:31.504Z</time></trkpt><trkpt lat="40.1237189" lon="8.6011035"><ele>864.5999999999999</ele><time>2026-05-02T11:37:32.503Z</time></trkpt><trkpt lat="40.1236151" lon="8.6010765"><ele>862.8</ele><time>2026-05-02T11:37:33.502Z</time></trkpt><trkpt lat="40.1235081" lon="8.6010578"><ele>861.0</ele><time>2026-05-02T11:37:34.503Z</time></trkpt><trkpt lat="40.1234151" lon="8.6010469"><ele>861.0</ele><time>2026-05-02T11:37:35.503Z</time></trkpt><trkpt lat="40.1233393" lon="8.601036"><ele>861.0</ele><time>2026-05-02T11:37:36.503Z</time></trkpt><trkpt lat="40.1232793" lon="8.6009987"><ele>861.0</ele><time>2026-05-02T11:37:37.504Z</time></trkpt><trkpt lat="40.1232258" lon="8.6009377"><ele>861.0</ele><time>2026-05-02T11:37:38.502Z</time></trkpt><trkpt lat="40.123176" lon="8.6008515"><ele>861.0</ele><time>2026-05-02T11:37:39.504Z</time></trkpt><trkpt lat="40.1231331" lon="8.600735"><ele>861.0</ele><time>2026-05-02T11:37:40.503Z</time></trkpt><trkpt lat="40.1230881" lon="8.6006056"><ele>859.5999999999999</ele><time>2026-05-02T11:37:41.504Z</time></trkpt><trkpt lat="40.1230469" lon="8.6004868"><ele>858.1999999999999</ele><time>2026-05-02T11:37:42.502Z</time></trkpt><trkpt lat="40.1230053" lon="8.6004127"><ele>856.8000000000001</ele><time>2026-05-02T11:37:43.502Z</time></trkpt><trkpt lat="40.1228941" lon="8.6003642"><ele>855.4000000000001</ele><time>2026-05-02T11:37:45.504Z</time></trkpt><trkpt lat="40.1228092" lon="8.600379"><ele>854.0</ele><time>2026-05-02T11:37:46.503Z</time></trkpt><trkpt lat="40.1227221" lon="8.6004014"><ele>854.0</ele><time>2026-05-02T11:37:47.502Z</time></trkpt><trkpt lat="40.12265" lon="8.6004028"><ele>854.0000000000001</ele><time>2026-05-02T11:37:48.504Z</time></trkpt><trkpt lat="40.122565" lon="8.6004248"><ele>854.0000000000001</ele><time>2026-05-02T11:37:49.503Z</time></trkpt><trkpt lat="40.1224664" lon="8.6004494"><ele>854.0</ele><time>2026-05-02T11:37:50.503Z</time></trkpt><trkpt lat="40.1223654" lon="8.6004873"><ele>854.0</ele><time>2026-05-02T11:37:51.502Z</time></trkpt><trkpt lat="40.122262" lon="8.6005402"><ele>852.4000000000001</ele><time>2026-05-02T11:37:52.502Z</time></trkpt><trkpt lat="40.1221579" lon="8.6005778"><ele>850.8000000000001</ele><time>2026-05-02T11:37:53.503Z</time></trkpt><trkpt lat="40.1220659" lon="8.6006099"><ele>849.2</ele><time>2026-05-02T11:37:54.503Z</time></trkpt><trkpt lat="40.1219771" lon="8.6006486"><ele>847.5999999999999</ele><time>2026-05-02T11:37:55.503Z</time></trkpt><trkpt lat="40.1218948" lon="8.6006714"><ele>846.0</ele><time>2026-05-02T11:37:56.503Z</time></trkpt><trkpt lat="40.1218077" lon="8.6006756"><ele>846.0</ele><time>2026-05-02T11:37:57.503Z</time></trkpt><trkpt lat="40.1217079" lon="8.6006621"><ele>846.0</ele><time>2026-05-02T11:37:58.502Z</time></trkpt><trkpt lat="40.121602" lon="8.600639"><ele>846.0</ele><time>2026-05-02T11:37:59.502Z</time></trkpt><trkpt lat="40.1214913" lon="8.6006045"><ele>846.0</ele><time>2026-05-02T11:38:00.503Z</time></trkpt><trkpt lat="40.1213734" lon="8.600574"><ele>846.0</ele><time>2026-05-02T11:38:01.502Z</time></trkpt><trkpt lat="40.1212682" lon="8.6005567"><ele>844.5999999999999</ele><time>2026-05-02T11:38:02.503Z</time></trkpt><trkpt lat="40.1211782" lon="8.6005278"><ele>843.2</ele><time>2026-05-02T11:38:03.503Z</time></trkpt><trkpt lat="40.1210783" lon="8.6004965"><ele>841.8</ele><time>2026-05-02T11:38:04.504Z</time></trkpt><trkpt lat="40.1209676" lon="8.6004742"><ele>840.4000000000001</ele><time>2026-05-02T11:38:05.502Z</time></trkpt><trkpt lat="40.1208493" lon="8.6004483"><ele>839.0</ele><time>2026-05-02T11:38:06.502Z</time></trkpt><trkpt lat="40.1207329" lon="8.6004206"><ele>837.8000000000001</ele><time>2026-05-02T11:38:07.504Z</time></trkpt><trkpt lat="40.1206201" lon="8.6003915"><ele>836.6</ele><time>2026-05-02T11:38:08.504Z</time></trkpt><trkpt lat="40.1205186" lon="8.6003618"><ele>835.4</ele><time>2026-05-02T11:38:09.503Z</time></trkpt><trkpt lat="40.120425" lon="8.6003319"><ele>834.2</ele><time>2026-05-02T11:38:10.504Z</time></trkpt><trkpt lat="40.1203405" lon="8.6003062"><ele>833.0</ele><time>2026-05-02T11:38:11.504Z</time></trkpt><trkpt lat="40.1202739" lon="8.6002772"><ele>832.5999999999999</ele><time>2026-05-02T11:38:12.504Z</time></trkpt><trkpt lat="40.1202172" lon="8.600232"><ele>832.1999999999999</ele><time>2026-05-02T11:38:13.503Z</time></trkpt><trkpt lat="40.1201583" lon="8.6001055"><ele>831.8</ele><time>2026-05-02T11:38:15.503Z</time></trkpt><trkpt lat="40.1201574" lon="8.6000121"><ele>831.4</ele><time>2026-05-02T11:38:16.502Z</time></trkpt><trkpt lat="40.1201884" lon="8.5998821"><ele>831.0</ele><time>2026-05-02T11:38:17.502Z</time></trkpt><trkpt lat="40.1202126" lon="8.5997288"><ele>831.0</ele><time>2026-05-02T11:38:18.501Z</time></trkpt><trkpt lat="40.12024" lon="8.5995487"><ele>831.0</ele><time>2026-05-02T11:38:19.502Z</time></trkpt><trkpt lat="40.1202743" lon="8.5993539"><ele>831.0</ele><time>2026-05-02T11:38:20.502Z</time></trkpt><trkpt lat="40.1203012" lon="8.5991501"><ele>830.5</ele><time>2026-05-02T11:38:21.503Z</time></trkpt><trkpt lat="40.1203251" lon="8.5989527"><ele>830.0</ele><time>2026-05-02T11:38:22.501Z</time></trkpt><trkpt lat="40.1203449" lon="8.5987786"><ele>829.5</ele><time>2026-05-02T11:38:23.503Z</time></trkpt><trkpt lat="40.1203669" lon="8.5986275"><ele>829.0</ele><time>2026-05-02T11:38:24.502Z</time></trkpt><trkpt lat="40.1203936" lon="8.598492"><ele>828.8333333333333</ele><time>2026-05-02T11:38:25.501Z</time></trkpt><trkpt lat="40.1204138" lon="8.5983712"><ele>828.6666666666666</ele><time>2026-05-02T11:38:26.502Z</time></trkpt><trkpt lat="40.1204299" lon="8.5982574"><ele>828.5</ele><time>2026-05-02T11:38:27.501Z</time></trkpt><trkpt lat="40.1204518" lon="8.5981332"><ele>828.3333333333333</ele><time>2026-05-02T11:38:28.502Z</time></trkpt><trkpt lat="40.120469" lon="8.5980176"><ele>828.1666666666666</ele><time>2026-05-02T11:38:29.502Z</time></trkpt><trkpt lat="40.12049" lon="8.5979313"><ele>828.0</ele><time>2026-05-02T11:38:30.502Z</time></trkpt><trkpt lat="40.1205185" lon="8.5978478"><ele>828.1666666666666</ele><time>2026-05-02T11:38:31.503Z</time></trkpt><trkpt lat="40.1205477" lon="8.597762"><ele>828.3333333333333</ele><time>2026-05-02T11:38:32.501Z</time></trkpt><trkpt lat="40.1205609" lon="8.597671"><ele>828.5</ele><time>2026-05-02T11:38:33.502Z</time></trkpt><trkpt lat="40.1205489" lon="8.5975768"><ele>828.6666666666666</ele><time>2026-05-02T11:38:34.503Z</time></trkpt><trkpt lat="40.1205215" lon="8.5974618"><ele>828.8333333333333</ele><time>2026-05-02T11:38:35.502Z</time></trkpt><trkpt lat="40.1204864" lon="8.5973483"><ele>829.0</ele><time>2026-05-02T11:38:36.501Z</time></trkpt><trkpt lat="40.1204385" lon="8.597219"><ele>829.0</ele><time>2026-05-02T11:38:37.503Z</time></trkpt><trkpt lat="40.1203894" lon="8.5970873"><ele>829.0</ele><time>2026-05-02T11:38:38.502Z</time></trkpt><trkpt lat="40.1203419" lon="8.5969554"><ele>829.0</ele><time>2026-05-02T11:38:39.503Z</time></trkpt><trkpt lat="40.1202842" lon="8.5968336"><ele>829.0</ele><time>2026-05-02T11:38:40.503Z</time></trkpt><trkpt lat="40.1202327" lon="8.5967166"><ele>829.0</ele><time>2026-05-02T11:38:41.502Z</time></trkpt><trkpt lat="40.1201847" lon="8.5966087"><ele>829.8000000000001</ele><time>2026-05-02T11:38:42.501Z</time></trkpt><trkpt lat="40.1201326" lon="8.596512"><ele>830.6</ele><time>2026-05-02T11:38:43.502Z</time></trkpt><trkpt lat="40.120078" lon="8.5964211"><ele>831.4</ele><time>2026-05-02T11:38:44.501Z</time></trkpt><trkpt lat="40.1200103" lon="8.5963284"><ele>832.2</ele><time>2026-05-02T11:38:45.503Z</time></trkpt><trkpt lat="40.1199477" lon="8.5962244"><ele>833.0</ele><time>2026-05-02T11:38:46.501Z</time></trkpt><trkpt lat="40.1198658" lon="8.5961151"><ele>831.0</ele><time>2026-05-02T11:38:47.503Z</time></trkpt><trkpt lat="40.1198116" lon="8.5960077"><ele>829.0</ele><time>2026-05-02T11:38:48.501Z</time></trkpt><trkpt lat="40.119759" lon="8.5958922"><ele>827.0</ele><time>2026-05-02T11:38:49.502Z</time></trkpt><trkpt lat="40.119724" lon="8.5957753"><ele>825.0</ele><time>2026-05-02T11:38:50.502Z</time></trkpt><trkpt lat="40.1196987" lon="8.5956493"><ele>823.0</ele><time>2026-05-02T11:38:51.501Z</time></trkpt><trkpt lat="40.1196737" lon="8.5955068"><ele>823.0</ele><time>2026-05-02T11:38:52.502Z</time></trkpt><trkpt lat="40.1196474" lon="8.5953416"><ele>823.0</ele><time>2026-05-02T11:38:53.501Z</time></trkpt><trkpt lat="40.1196323" lon="8.5951736"><ele>823.0</ele><time>2026-05-02T11:38:54.502Z</time></trkpt><trkpt lat="40.1196201" lon="8.5950102"><ele>823.0</ele><time>2026-05-02T11:38:55.502Z</time></trkpt><trkpt lat="40.1196122" lon="8.5948516"><ele>823.25</ele><time>2026-05-02T11:38:56.501Z</time></trkpt><trkpt lat="40.1196034" lon="8.5946984"><ele>823.5</ele><time>2026-05-02T11:38:57.503Z</time></trkpt><trkpt lat="40.1195885" lon="8.5945475"><ele>823.75</ele><time>2026-05-02T11:38:58.502Z</time></trkpt><trkpt lat="40.1195744" lon="8.5944003"><ele>824.0</ele><time>2026-05-02T11:38:59.502Z</time></trkpt><trkpt lat="40.1195484" lon="8.5942561"><ele>824.2</ele><time>2026-05-02T11:39:00.501Z</time></trkpt><trkpt lat="40.119518" lon="8.5941176"><ele>824.4000000000001</ele><time>2026-05-02T11:39:01.501Z</time></trkpt><trkpt lat="40.119477" lon="8.5939736"><ele>824.6</ele><time>2026-05-02T11:39:02.502Z</time></trkpt><trkpt lat="40.119425" lon="8.5938347"><ele>824.8</ele><time>2026-05-02T11:39:03.501Z</time></trkpt><trkpt lat="40.1193721" lon="8.5937229"><ele>825.0</ele><time>2026-05-02T11:39:04.502Z</time></trkpt><trkpt lat="40.1193138" lon="8.5935795"><ele>825.75</ele><time>2026-05-02T11:39:05.503Z</time></trkpt><trkpt lat="40.1192691" lon="8.5934365"><ele>826.5</ele><time>2026-05-02T11:39:06.502Z</time></trkpt><trkpt lat="40.1192076" lon="8.593305"><ele>827.25</ele><time>2026-05-02T11:39:07.503Z</time></trkpt><trkpt lat="40.1191443" lon="8.5931672"><ele>828.0</ele><time>2026-05-02T11:39:08.501Z</time></trkpt><trkpt lat="40.1190873" lon="8.5930386"><ele>826.5</ele><time>2026-05-02T11:39:09.502Z</time></trkpt><trkpt lat="40.1190334" lon="8.5929091"><ele>825.0</ele><time>2026-05-02T11:39:10.502Z</time></trkpt><trkpt lat="40.1189899" lon="8.5927651"><ele>823.5</ele><time>2026-05-02T11:39:11.502Z</time></trkpt><trkpt lat="40.1189693" lon="8.5925884"><ele>822.0</ele><time>2026-05-02T11:39:12.502Z</time></trkpt><trkpt lat="40.1189481" lon="8.5924335"><ele>822.0</ele><time>2026-05-02T11:39:13.503Z</time></trkpt><trkpt lat="40.1189241" lon="8.5922754"><ele>822.0</ele><time>2026-05-02T11:39:14.503Z</time></trkpt><trkpt lat="40.1189074" lon="8.5921414"><ele>822.0</ele><time>2026-05-02T11:39:15.501Z</time></trkpt><trkpt lat="40.1188887" lon="8.5920199"><ele>822.0</ele><time>2026-05-02T11:39:16.501Z</time></trkpt><trkpt lat="40.1188571" lon="8.5919058"><ele>822.0</ele><time>2026-05-02T11:39:17.501Z</time></trkpt><trkpt lat="40.1188196" lon="8.5917924"><ele>822.5</ele><time>2026-05-02T11:39:18.501Z</time></trkpt><trkpt lat="40.1187744" lon="8.5916548"><ele>823.0</ele><time>2026-05-02T11:39:19.502Z</time></trkpt><trkpt lat="40.1187355" lon="8.5915094"><ele>823.5</ele><time>2026-05-02T11:39:20.502Z</time></trkpt><trkpt lat="40.1186978" lon="8.5913683"><ele>824.0</ele><time>2026-05-02T11:39:21.501Z</time></trkpt><trkpt lat="40.1186626" lon="8.5912373"><ele>824.0000000000001</ele><time>2026-05-02T11:39:22.502Z</time></trkpt><trkpt lat="40.1186364" lon="8.5911253"><ele>824.0</ele><time>2026-05-02T11:39:23.502Z</time></trkpt><trkpt lat="40.1186111" lon="8.5910278"><ele>824.0</ele><time>2026-05-02T11:39:24.501Z</time></trkpt><trkpt lat="40.1185776" lon="8.5909329"><ele>824.0</ele><time>2026-05-02T11:39:25.502Z</time></trkpt><trkpt lat="40.1185508" lon="8.5908285"><ele>824.0000000000001</ele><time>2026-05-02T11:39:26.501Z</time></trkpt><trkpt lat="40.1185438" lon="8.5907141"><ele>824.0</ele><time>2026-05-02T11:39:27.503Z</time></trkpt><trkpt lat="40.1185434" lon="8.5905792"><ele>824.0</ele><time>2026-05-02T11:39:28.502Z</time></trkpt><trkpt lat="40.1185447" lon="8.5904308"><ele>824.0</ele><time>2026-05-02T11:39:29.502Z</time></trkpt><trkpt lat="40.1185496" lon="8.5902732"><ele>824.0</ele><time>2026-05-02T11:39:30.503Z</time></trkpt><trkpt lat="40.118554" lon="8.5901148"><ele>824.0</ele><time>2026-05-02T11:39:31.502Z</time></trkpt><trkpt lat="40.1185573" lon="8.5899558"><ele>824.0</ele><time>2026-05-02T11:39:32.503Z</time></trkpt><trkpt lat="40.1185584" lon="8.5898041"><ele>824.0</ele><time>2026-05-02T11:39:33.502Z</time></trkpt><trkpt lat="40.1185553" lon="8.589664"><ele>824.0</ele><time>2026-05-02T11:39:34.502Z</time></trkpt><trkpt lat="40.1185495" lon="8.5895213"><ele>824.0</ele><time>2026-05-02T11:39:35.502Z</time></trkpt><trkpt lat="40.1185568" lon="8.5893657"><ele>824.0</ele><time>2026-05-02T11:39:36.502Z</time></trkpt><trkpt lat="40.1185647" lon="8.5892128"><ele>824.0</ele><time>2026-05-02T11:39:37.501Z</time></trkpt><trkpt lat="40.1185675" lon="8.5890573"><ele>824.0</ele><time>2026-05-02T11:39:38.502Z</time></trkpt><trkpt lat="40.1185658" lon="8.5889007"><ele>824.0</ele><time>2026-05-02T11:39:39.501Z</time></trkpt><trkpt lat="40.1185753" lon="8.5887415"><ele>824.0</ele><time>2026-05-02T11:39:40.501Z</time></trkpt><trkpt lat="40.1185843" lon="8.5885948"><ele>824.0</ele><time>2026-05-02T11:39:41.502Z</time></trkpt><trkpt lat="40.1185847" lon="8.588438"><ele>824.0</ele><time>2026-05-02T11:39:42.502Z</time></trkpt><trkpt lat="40.1185976" lon="8.5882959"><ele>824.0</ele><time>2026-05-02T11:39:43.502Z</time></trkpt><trkpt lat="40.118591" lon="8.5881721"><ele>824.0</ele><time>2026-05-02T11:39:44.501Z</time></trkpt><trkpt lat="40.1185869" lon="8.5880896"><ele>824.0</ele><time>2026-05-02T11:39:45.503Z</time></trkpt><trkpt lat="40.118571" lon="8.5879958"><ele>824.0</ele><time>2026-05-02T11:39:46.503Z</time></trkpt><trkpt lat="40.1184957" lon="8.5879221"><ele>824.0</ele><time>2026-05-02T11:39:47.503Z</time></trkpt><trkpt lat="40.1184366" lon="8.587825"><ele>824.0</ele><time>2026-05-02T11:39:48.501Z</time></trkpt><trkpt lat="40.1183414" lon="8.5877398"><ele>824.0</ele><time>2026-05-02T11:39:49.502Z</time></trkpt><trkpt lat="40.1182489" lon="8.5876842"><ele>821.8000000000001</ele><time>2026-05-02T11:39:50.502Z</time></trkpt><trkpt lat="40.1181635" lon="8.5875745"><ele>819.6</ele><time>2026-05-02T11:39:52.502Z</time></trkpt><trkpt lat="40.1181725" lon="8.5874878"><ele>817.4</ele><time>2026-05-02T11:39:53.501Z</time></trkpt><trkpt lat="40.118158" lon="8.5873748"><ele>815.2</ele><time>2026-05-02T11:39:55.503Z</time></trkpt><trkpt lat="40.1180783" lon="8.5873069"><ele>813.0</ele><time>2026-05-02T11:39:57.503Z</time></trkpt><trkpt lat="40.1179469" lon="8.5873261"><ele>813.0</ele><time>2026-05-02T11:39:59.503Z</time></trkpt><trkpt lat="40.1178716" lon="8.5873195"><ele>813.0</ele><time>2026-05-02T11:40:00.502Z</time></trkpt><trkpt lat="40.1178084" lon="8.587302"><ele>813.0</ele><time>2026-05-02T11:40:01.501Z</time></trkpt><trkpt lat="40.1177246" lon="8.5872922"><ele>813.0</ele><time>2026-05-02T11:40:02.501Z</time></trkpt><trkpt lat="40.1176321" lon="8.5872489"><ele>813.0</ele><time>2026-05-02T11:40:03.501Z</time></trkpt><trkpt lat="40.1175322" lon="8.5872132"><ele>813.0</ele><time>2026-05-02T11:40:04.501Z</time></trkpt><trkpt lat="40.1174533" lon="8.5872173"><ele>812.0</ele><time>2026-05-02T11:40:05.501Z</time></trkpt><trkpt lat="40.1173766" lon="8.5872087"><ele>811.0</ele><time>2026-05-02T11:40:06.503Z</time></trkpt><trkpt lat="40.1172996" lon="8.5872195"><ele>810.0</ele><time>2026-05-02T11:40:07.503Z</time></trkpt><trkpt lat="40.117224" lon="8.5872578"><ele>809.0</ele><time>2026-05-02T11:40:08.502Z</time></trkpt><trkpt lat="40.1171032" lon="8.5872853"><ele>808.0</ele><time>2026-05-02T11:40:10.502Z</time></trkpt><trkpt lat="40.116962" lon="8.5873084"><ele>807.9999999999999</ele><time>2026-05-02T11:40:12.502Z</time></trkpt><trkpt lat="40.1168794" lon="8.5873167"><ele>808.0</ele><time>2026-05-02T11:40:13.501Z</time></trkpt><trkpt lat="40.1167974" lon="8.5873092"><ele>808.0</ele><time>2026-05-02T11:40:14.502Z</time></trkpt><trkpt lat="40.1167105" lon="8.5872929"><ele>808.0</ele><time>2026-05-02T11:40:15.503Z</time></trkpt><trkpt lat="40.1166213" lon="8.5872464"><ele>807.9999999999999</ele><time>2026-05-02T11:40:16.503Z</time></trkpt><trkpt lat="40.1165291" lon="8.5872261"><ele>808.0</ele><time>2026-05-02T11:40:17.501Z</time></trkpt><trkpt lat="40.1164222" lon="8.5872115"><ele>807.3333333333333</ele><time>2026-05-02T11:40:18.502Z</time></trkpt><trkpt lat="40.1163525" lon="8.5871972"><ele>806.6666666666666</ele><time>2026-05-02T11:40:19.502Z</time></trkpt><trkpt lat="40.1162687" lon="8.5871251"><ele>806.0</ele><time>2026-05-02T11:40:21.501Z</time></trkpt><trkpt lat="40.116262" lon="8.5870235"><ele>805.3333333333333</ele><time>2026-05-02T11:40:22.501Z</time></trkpt><trkpt lat="40.1162271" lon="8.5869329"><ele>804.6666666666666</ele><time>2026-05-02T11:40:23.503Z</time></trkpt><trkpt lat="40.116174" lon="8.5868345"><ele>804.0</ele><time>2026-05-02T11:40:24.502Z</time></trkpt><trkpt lat="40.1161216" lon="8.5867414"><ele>803.0</ele><time>2026-05-02T11:40:25.501Z</time></trkpt><trkpt lat="40.116084" lon="8.5866728"><ele>802.0</ele><time>2026-05-02T11:40:26.502Z</time></trkpt><trkpt lat="40.1159971" lon="8.5866103"><ele>801.0</ele><time>2026-05-02T11:40:28.502Z</time></trkpt><trkpt lat="40.1159318" lon="8.5865946"><ele>800.0</ele><time>2026-05-02T11:40:29.501Z</time></trkpt><trkpt lat="40.115856" lon="8.5865604"><ele>799.0</ele><time>2026-05-02T11:40:30.501Z</time></trkpt><trkpt lat="40.1157834" lon="8.5865284"><ele>798.0</ele><time>2026-05-02T11:40:31.502Z</time></trkpt><trkpt lat="40.1157033" lon="8.5865029"><ele>797.0</ele><time>2026-05-02T11:40:32.501Z</time></trkpt><trkpt lat="40.1156205" lon="8.586471"><ele>796.0</ele><time>2026-05-02T11:40:33.502Z</time></trkpt><trkpt lat="40.1155375" lon="8.5864297"><ele>795.0</ele><time>2026-05-02T11:40:34.502Z</time></trkpt><trkpt lat="40.1154691" lon="8.5863846"><ele>794.0</ele><time>2026-05-02T11:40:35.503Z</time></trkpt><trkpt lat="40.115412" lon="8.5863425"><ele>793.0</ele><time>2026-05-02T11:40:36.502Z</time></trkpt><trkpt lat="40.1153402" lon="8.5863213"><ele>792.0</ele><time>2026-05-02T11:40:37.503Z</time></trkpt><trkpt lat="40.1152525" lon="8.5863322"><ele>792.0</ele><time>2026-05-02T11:40:39.501Z</time></trkpt><trkpt lat="40.1151666" lon="8.5863273"><ele>792.0</ele><time>2026-05-02T11:40:41.502Z</time></trkpt><trkpt lat="40.1150707" lon="8.5863501"><ele>792.0</ele><time>2026-05-02T11:40:43.501Z</time></trkpt><trkpt lat="40.1149802" lon="8.5863387"><ele>792.0</ele><time>2026-05-02T11:40:45.502Z</time></trkpt><trkpt lat="40.1149224" lon="8.586272"><ele>792.0</ele><time>2026-05-02T11:40:47.501Z</time></trkpt><trkpt lat="40.1148725" lon="8.5861969"><ele>792.0</ele><time>2026-05-02T11:40:49.502Z</time></trkpt><trkpt lat="40.1148235" lon="8.5861192"><ele>790.1666666666666</ele><time>2026-05-02T11:40:50.502Z</time></trkpt><trkpt lat="40.114756" lon="8.5860575"><ele>788.3333333333333</ele><time>2026-05-02T11:40:51.501Z</time></trkpt><trkpt lat="40.1146981" lon="8.5859941"><ele>786.5</ele><time>2026-05-02T11:40:52.501Z</time></trkpt><trkpt lat="40.1146501" lon="8.5859243"><ele>784.6666666666666</ele><time>2026-05-02T11:40:53.502Z</time></trkpt><trkpt lat="40.1146028" lon="8.585867"><ele>782.8333333333333</ele><time>2026-05-02T11:40:55.501Z</time></trkpt><trkpt lat="40.1145448" lon="8.5857849"><ele>781.0</ele><time>2026-05-02T11:40:57.501Z</time></trkpt><trkpt lat="40.1144945" lon="8.585662"><ele>781.0</ele><time>2026-05-02T11:40:59.502Z</time></trkpt><trkpt lat="40.1144402" lon="8.5856018"><ele>781.0</ele><time>2026-05-02T11:41:00.502Z</time></trkpt><trkpt lat="40.1143779" lon="8.5855324"><ele>781.0</ele><time>2026-05-02T11:41:01.502Z</time></trkpt><trkpt lat="40.1143167" lon="8.5854872"><ele>781.0</ele><time>2026-05-02T11:41:02.502Z</time></trkpt><trkpt lat="40.11426" lon="8.5854444"><ele>781.0</ele><time>2026-05-02T11:41:03.502Z</time></trkpt><trkpt lat="40.1141976" lon="8.5854155"><ele>781.0</ele><time>2026-05-02T11:41:05.501Z</time></trkpt><trkpt lat="40.114119" lon="8.5853949"><ele>781.0</ele><time>2026-05-02T11:41:07.503Z</time></trkpt><trkpt lat="40.114005" lon="8.5853484"><ele>778.6666666666666</ele><time>2026-05-02T11:41:09.501Z</time></trkpt><trkpt lat="40.1139352" lon="8.585342"><ele>776.3333333333333</ele><time>2026-05-02T11:41:10.502Z</time></trkpt><trkpt lat="40.1138497" lon="8.5853058"><ele>774.0</ele><time>2026-05-02T11:41:12.502Z</time></trkpt><trkpt lat="40.1138241" lon="8.5852176"><ele>771.6666666666666</ele><time>2026-05-02T11:41:15.503Z</time></trkpt><trkpt lat="40.113766" lon="8.5851186"><ele>769.3333333333333</ele><time>2026-05-02T11:41:18.503Z</time></trkpt><trkpt lat="40.113687" lon="8.5850477"><ele>767.0</ele><time>2026-05-02T11:41:20.501Z</time></trkpt><trkpt lat="40.1136208" lon="8.5849768"><ele>767.0</ele><time>2026-05-02T11:41:22.502Z</time></trkpt><trkpt lat="40.1134981" lon="8.5848823"><ele>767.0</ele><time>2026-05-02T11:41:24.502Z</time></trkpt><trkpt lat="40.113383" lon="8.5847915"><ele>767.0</ele><time>2026-05-02T11:41:26.502Z</time></trkpt><trkpt lat="40.1133274" lon="8.5847289"><ele>767.0</ele><time>2026-05-02T11:41:27.503Z</time></trkpt><trkpt lat="40.1132653" lon="8.5846788"><ele>767.0</ele><time>2026-05-02T11:41:28.502Z</time></trkpt><trkpt lat="40.1131648" lon="8.58458"><ele>764.0</ele><time>2026-05-02T11:41:30.503Z</time></trkpt><trkpt lat="40.1130574" lon="8.5845097"><ele>761.0</ele><time>2026-05-02T11:41:32.503Z</time></trkpt><trkpt lat="40.1129487" lon="8.5844365"><ele>758.0</ele><time>2026-05-02T11:41:34.502Z</time></trkpt><trkpt lat="40.1128831" lon="8.5844059"><ele>755.0</ele><time>2026-05-02T11:41:35.501Z</time></trkpt><trkpt lat="40.1127877" lon="8.5843649"><ele>752.0</ele><time>2026-05-02T11:41:36.501Z</time></trkpt><trkpt lat="40.1127152" lon="8.5843178"><ele>752.0</ele><time>2026-05-02T11:41:37.501Z</time></trkpt><trkpt lat="40.1126487" lon="8.5842571"><ele>752.0</ele><time>2026-05-02T11:41:38.502Z</time></trkpt><trkpt lat="40.1125803" lon="8.5842121"><ele>752.0</ele><time>2026-05-02T11:41:39.503Z</time></trkpt><trkpt lat="40.1125586" lon="8.584125"><ele>752.0</ele><time>2026-05-02T11:41:43.503Z</time></trkpt><trkpt lat="40.1125909" lon="8.5840008"><ele>752.0</ele><time>2026-05-02T11:42:18.503Z</time></trkpt><trkpt lat="40.1126494" lon="8.5838426"><ele>752.0</ele><time>2026-05-02T11:42:20.503Z</time></trkpt><trkpt lat="40.1126856" lon="8.5837274"><ele>752.0</ele><time>2026-05-02T11:42:21.502Z</time></trkpt><trkpt lat="40.1127224" lon="8.5836138"><ele>752.0</ele><time>2026-05-02T11:42:22.502Z</time></trkpt><trkpt lat="40.112765" lon="8.5834871"><ele>752.0</ele><time>2026-05-02T11:42:23.501Z</time></trkpt><trkpt lat="40.1128006" lon="8.5833452"><ele>752.0</ele><time>2026-05-02T11:42:24.502Z</time></trkpt><trkpt lat="40.1128347" lon="8.5832032"><ele>751.0</ele><time>2026-05-02T11:42:25.502Z</time></trkpt><trkpt lat="40.1128543" lon="8.583057"><ele>750.0</ele><time>2026-05-02T11:42:26.502Z</time></trkpt><trkpt lat="40.1128663" lon="8.5829053"><ele>749.0</ele><time>2026-05-02T11:42:27.501Z</time></trkpt><trkpt lat="40.1128756" lon="8.5827538"><ele>748.0</ele><time>2026-05-02T11:42:28.502Z</time></trkpt><trkpt lat="40.1128814" lon="8.5825801"><ele>747.5</ele><time>2026-05-02T11:42:29.502Z</time></trkpt><trkpt lat="40.1129283" lon="8.5824191"><ele>747.0</ele><time>2026-05-02T11:42:30.502Z</time></trkpt><trkpt lat="40.1129975" lon="8.5822758"><ele>746.5</ele><time>2026-05-02T11:42:31.501Z</time></trkpt><trkpt lat="40.1130772" lon="8.5821263"><ele>746.0</ele><time>2026-05-02T11:42:32.503Z</time></trkpt><trkpt lat="40.1131564" lon="8.5819817"><ele>747.25</ele><time>2026-05-02T11:42:33.501Z</time></trkpt><trkpt lat="40.1132514" lon="8.5818342"><ele>748.5</ele><time>2026-05-02T11:42:34.501Z</time></trkpt><trkpt lat="40.1133465" lon="8.5816884"><ele>749.75</ele><time>2026-05-02T11:42:35.501Z</time></trkpt><trkpt lat="40.1134424" lon="8.5815379"><ele>751.0</ele><time>2026-05-02T11:42:36.501Z</time></trkpt><trkpt lat="40.1135404" lon="8.5813887"><ele>751.0</ele><time>2026-05-02T11:42:37.502Z</time></trkpt><trkpt lat="40.1136487" lon="8.5812354"><ele>751.0</ele><time>2026-05-02T11:42:38.501Z</time></trkpt><trkpt lat="40.1137474" lon="8.5810835"><ele>751.0</ele><time>2026-05-02T11:42:39.501Z</time></trkpt><trkpt lat="40.1138374" lon="8.5809254"><ele>750.3333333333334</ele><time>2026-05-02T11:42:40.503Z</time></trkpt><trkpt lat="40.1139144" lon="8.5807453"><ele>749.6666666666666</ele><time>2026-05-02T11:42:41.503Z</time></trkpt><trkpt lat="40.1139682" lon="8.5805565"><ele>749.0</ele><time>2026-05-02T11:42:42.502Z</time></trkpt><trkpt lat="40.1140203" lon="8.580365"><ele>748.0</ele><time>2026-05-02T11:42:43.502Z</time></trkpt><trkpt lat="40.1140634" lon="8.5801665"><ele>747.0</ele><time>2026-05-02T11:42:44.501Z</time></trkpt><trkpt lat="40.1141066" lon="8.579957"><ele>746.0</ele><time>2026-05-02T11:42:45.502Z</time></trkpt><trkpt lat="40.1141506" lon="8.5797475"><ele>748.3333333333333</ele><time>2026-05-02T11:42:46.501Z</time></trkpt><trkpt lat="40.1141754" lon="8.57955"><ele>750.6666666666666</ele><time>2026-05-02T11:42:47.502Z</time></trkpt><trkpt lat="40.1141973" lon="8.5793386"><ele>753.0</ele><time>2026-05-02T11:42:48.503Z</time></trkpt><trkpt lat="40.114201" lon="8.5791535"><ele>753.0</ele><time>2026-05-02T11:42:49.503Z</time></trkpt><trkpt lat="40.114222" lon="8.5789515"><ele>753.0</ele><time>2026-05-02T11:42:50.501Z</time></trkpt><trkpt lat="40.1142385" lon="8.5787595"><ele>753.0</ele><time>2026-05-02T11:42:51.502Z</time></trkpt><trkpt lat="40.1142506" lon="8.5785595"><ele>753.0</ele><time>2026-05-02T11:42:52.501Z</time></trkpt><trkpt lat="40.1142419" lon="8.5783661"><ele>753.0</ele><time>2026-05-02T11:42:53.502Z</time></trkpt><trkpt lat="40.1142398" lon="8.5781894"><ele>753.0</ele><time>2026-05-02T11:42:54.502Z</time></trkpt><trkpt lat="40.1142362" lon="8.5780254"><ele>753.0</ele><time>2026-05-02T11:42:55.503Z</time></trkpt><trkpt lat="40.1142295" lon="8.5778635"><ele>752.4</ele><time>2026-05-02T11:42:56.503Z</time></trkpt><trkpt lat="40.1142296" lon="8.5777035"><ele>751.8</ele><time>2026-05-02T11:42:57.502Z</time></trkpt><trkpt lat="40.1142301" lon="8.5775531"><ele>751.2</ele><time>2026-05-02T11:42:58.502Z</time></trkpt><trkpt lat="40.1142419" lon="8.5774213"><ele>750.6</ele><time>2026-05-02T11:42:59.502Z</time></trkpt><trkpt lat="40.1142509" lon="8.5773103"><ele>750.0</ele><time>2026-05-02T11:43:00.503Z</time></trkpt><trkpt lat="40.1142634" lon="8.5772105"><ele>750.0</ele><time>2026-05-02T11:43:01.502Z</time></trkpt><trkpt lat="40.114286" lon="8.5770918"><ele>750.0</ele><time>2026-05-02T11:43:03.502Z</time></trkpt><trkpt lat="40.1143079" lon="8.5769825"><ele>750.0</ele><time>2026-05-02T11:43:06.503Z</time></trkpt><trkpt lat="40.1142963" lon="8.5768887"><ele>750.0</ele><time>2026-05-02T11:49:23.501Z</time></trkpt><trkpt lat="40.1142624" lon="8.576819"><ele>750.0</ele><time>2026-05-02T11:49:31.5Z</time></trkpt><trkpt lat="40.1141635" lon="8.5768096"><ele>750.0</ele><time>2026-05-02T11:57:38.499Z</time></trkpt><trkpt lat="40.1143584" lon="8.5769003"><ele>749.0</ele><time>2026-05-02T12:28:13.493Z</time></trkpt><trkpt lat="40.1143951" lon="8.5767865"><ele>748.0</ele><time>2026-05-02T12:30:59.494Z</time></trkpt><trkpt lat="40.1144324" lon="8.5767186"><ele>747.0</ele><time>2026-05-02T12:31:00.494Z</time></trkpt><trkpt lat="40.114477" lon="8.5766374"><ele>746.0</ele><time>2026-05-02T12:31:01.495Z</time></trkpt><trkpt lat="40.1145264" lon="8.5765283"><ele>745.0</ele><time>2026-05-02T12:31:02.495Z</time></trkpt><trkpt lat="40.1145928" lon="8.5764254"><ele>744.0</ele><time>2026-05-02T12:31:03.495Z</time></trkpt><trkpt lat="40.1146536" lon="8.5763276"><ele>744.0</ele><time>2026-05-02T12:31:04.493Z</time></trkpt><trkpt lat="40.1147069" lon="8.5762264"><ele>744.0</ele><time>2026-05-02T12:31:05.493Z</time></trkpt><trkpt lat="40.1147613" lon="8.5761205"><ele>744.0</ele><time>2026-05-02T12:31:06.493Z</time></trkpt><trkpt lat="40.1148173" lon="8.5760078"><ele>744.0</ele><time>2026-05-02T12:31:07.494Z</time></trkpt><trkpt lat="40.114873" lon="8.5758947"><ele>744.0</ele><time>2026-05-02T12:31:08.494Z</time></trkpt><trkpt lat="40.1149271" lon="8.5757845"><ele>743.6</ele><time>2026-05-02T12:31:09.494Z</time></trkpt><trkpt lat="40.1149901" lon="8.5756777"><ele>743.2</ele><time>2026-05-02T12:31:10.494Z</time></trkpt><trkpt lat="40.1150541" lon="8.5755671"><ele>742.8000000000001</ele><time>2026-05-02T12:31:11.494Z</time></trkpt><trkpt lat="40.11512" lon="8.5754606"><ele>742.4000000000001</ele><time>2026-05-02T12:31:12.494Z</time></trkpt><trkpt lat="40.1151864" lon="8.5753473"><ele>742.0</ele><time>2026-05-02T12:31:13.493Z</time></trkpt><trkpt lat="40.1152562" lon="8.5752382"><ele>742.0</ele><time>2026-05-02T12:31:14.493Z</time></trkpt><trkpt lat="40.1153258" lon="8.5751366"><ele>742.0</ele><time>2026-05-02T12:31:15.493Z</time></trkpt><trkpt lat="40.1153925" lon="8.575043"><ele>742.0</ele><time>2026-05-02T12:31:16.495Z</time></trkpt><trkpt lat="40.1154674" lon="8.5749531"><ele>742.0</ele><time>2026-05-02T12:31:17.495Z</time></trkpt><trkpt lat="40.1155474" lon="8.5748645"><ele>742.0</ele><time>2026-05-02T12:31:18.494Z</time></trkpt><trkpt lat="40.1156326" lon="8.5747763"><ele>742.0</ele><time>2026-05-02T12:31:19.495Z</time></trkpt><trkpt lat="40.1157198" lon="8.5746924"><ele>742.0</ele><time>2026-05-02T12:31:20.494Z</time></trkpt><trkpt lat="40.1158123" lon="8.5746031"><ele>742.0</ele><time>2026-05-02T12:31:21.493Z</time></trkpt><trkpt lat="40.1159033" lon="8.5745103"><ele>742.0</ele><time>2026-05-02T12:31:22.493Z</time></trkpt><trkpt lat="40.1159997" lon="8.5744211"><ele>741.75</ele><time>2026-05-02T12:31:23.494Z</time></trkpt><trkpt lat="40.116093" lon="8.5743234"><ele>741.5</ele><time>2026-05-02T12:31:24.494Z</time></trkpt><trkpt lat="40.1161834" lon="8.5742227"><ele>741.25</ele><time>2026-05-02T12:31:25.494Z</time></trkpt><trkpt lat="40.1162762" lon="8.5741166"><ele>741.0</ele><time>2026-05-02T12:31:26.494Z</time></trkpt><trkpt lat="40.116375" lon="8.5740084"><ele>741.0</ele><time>2026-05-02T12:31:27.493Z</time></trkpt><trkpt lat="40.1164722" lon="8.5738928"><ele>741.0</ele><time>2026-05-02T12:31:28.494Z</time></trkpt><trkpt lat="40.1165687" lon="8.5737782"><ele>741.0</ele><time>2026-05-02T12:31:29.493Z</time></trkpt><trkpt lat="40.1166713" lon="8.5736662"><ele>741.0</ele><time>2026-05-02T12:31:30.494Z</time></trkpt><trkpt lat="40.1167746" lon="8.5735453"><ele>740.25</ele><time>2026-05-02T12:31:31.494Z</time></trkpt><trkpt lat="40.1168754" lon="8.5734337"><ele>739.5</ele><time>2026-05-02T12:31:32.494Z</time></trkpt><trkpt lat="40.1169652" lon="8.5733043"><ele>738.75</ele><time>2026-05-02T12:31:33.494Z</time></trkpt><trkpt lat="40.1170385" lon="8.5731544"><ele>738.0</ele><time>2026-05-02T12:31:34.494Z</time></trkpt><trkpt lat="40.1170875" lon="8.5729692"><ele>734.0</ele><time>2026-05-02T12:31:35.495Z</time></trkpt><trkpt lat="40.1171232" lon="8.572791"><ele>730.0</ele><time>2026-05-02T12:31:36.494Z</time></trkpt><trkpt lat="40.1171642" lon="8.5726152"><ele>726.0</ele><time>2026-05-02T12:31:37.495Z</time></trkpt><trkpt lat="40.1172098" lon="8.57245"><ele>722.0</ele><time>2026-05-02T12:31:38.495Z</time></trkpt><trkpt lat="40.1172667" lon="8.5723066"><ele>722.0</ele><time>2026-05-02T12:31:39.493Z</time></trkpt><trkpt lat="40.1173354" lon="8.5721673"><ele>722.0</ele><time>2026-05-02T12:31:40.493Z</time></trkpt><trkpt lat="40.1174108" lon="8.5720853"><ele>722.0</ele><time>2026-05-02T12:31:41.495Z</time></trkpt><trkpt lat="40.1175149" lon="8.5720213"><ele>722.0</ele><time>2026-05-02T12:31:42.494Z</time></trkpt><trkpt lat="40.1175986" lon="8.5719435"><ele>722.0</ele><time>2026-05-02T12:31:43.495Z</time></trkpt><trkpt lat="40.1176742" lon="8.5718804"><ele>721.5</ele><time>2026-05-02T12:31:44.494Z</time></trkpt><trkpt lat="40.117721" lon="8.5718032"><ele>721.0</ele><time>2026-05-02T12:31:45.493Z</time></trkpt><trkpt lat="40.1177448" lon="8.5717024"><ele>720.5</ele><time>2026-05-02T12:31:46.493Z</time></trkpt><trkpt lat="40.1177477" lon="8.5715852"><ele>720.0</ele><time>2026-05-02T12:31:47.494Z</time></trkpt><trkpt lat="40.1177167" lon="8.5714635"><ele>719.5</ele><time>2026-05-02T12:31:48.493Z</time></trkpt><trkpt lat="40.1176681" lon="8.5713441"><ele>719.0</ele><time>2026-05-02T12:31:49.495Z</time></trkpt><trkpt lat="40.1176047" lon="8.5712219"><ele>716.75</ele><time>2026-05-02T12:31:50.493Z</time></trkpt><trkpt lat="40.1175466" lon="8.571088"><ele>714.5</ele><time>2026-05-02T12:31:51.493Z</time></trkpt><trkpt lat="40.1175028" lon="8.5709401"><ele>712.25</ele><time>2026-05-02T12:31:52.493Z</time></trkpt><trkpt lat="40.1174787" lon="8.5707857"><ele>710.0</ele><time>2026-05-02T12:31:53.494Z</time></trkpt><trkpt lat="40.1174657" lon="8.5706191"><ele>710.0</ele><time>2026-05-02T12:31:54.493Z</time></trkpt><trkpt lat="40.1174539" lon="8.5704541"><ele>710.0</ele><time>2026-05-02T12:31:55.493Z</time></trkpt><trkpt lat="40.1174504" lon="8.5702818"><ele>710.0</ele><time>2026-05-02T12:31:56.495Z</time></trkpt><trkpt lat="40.1174491" lon="8.570101"><ele>710.0</ele><time>2026-05-02T12:31:57.495Z</time></trkpt><trkpt lat="40.11744" lon="8.5699321"><ele>710.25</ele><time>2026-05-02T12:31:58.494Z</time></trkpt><trkpt lat="40.1174364" lon="8.5697595"><ele>710.5</ele><time>2026-05-02T12:31:59.494Z</time></trkpt><trkpt lat="40.117435" lon="8.5695867"><ele>710.75</ele><time>2026-05-02T12:32:00.494Z</time></trkpt><trkpt lat="40.1174332" lon="8.5694167"><ele>711.0</ele><time>2026-05-02T12:32:01.494Z</time></trkpt><trkpt lat="40.1174301" lon="8.5692463"><ele>713.0</ele><time>2026-05-02T12:32:02.494Z</time></trkpt><trkpt lat="40.117429" lon="8.5690752"><ele>715.0</ele><time>2026-05-02T12:32:03.494Z</time></trkpt><trkpt lat="40.1174419" lon="8.568903"><ele>717.0</ele><time>2026-05-02T12:32:04.494Z</time></trkpt><trkpt lat="40.1174557" lon="8.5687312"><ele>719.0</ele><time>2026-05-02T12:32:05.494Z</time></trkpt><trkpt lat="40.1174853" lon="8.5685669"><ele>720.6666666666666</ele><time>2026-05-02T12:32:06.494Z</time></trkpt><trkpt lat="40.1175174" lon="8.5684341"><ele>722.3333333333333</ele><time>2026-05-02T12:32:07.494Z</time></trkpt><trkpt lat="40.117548" lon="8.5683426"><ele>724.0</ele><time>2026-05-02T12:32:08.494Z</time></trkpt><trkpt lat="40.11758" lon="8.5681892"><ele>725.6666666666666</ele><time>2026-05-02T12:32:10.493Z</time></trkpt><trkpt lat="40.1175859" lon="8.5681061"><ele>727.3333333333334</ele><time>2026-05-02T12:32:11.494Z</time></trkpt><trkpt lat="40.1175793" lon="8.5680043"><ele>729.0</ele><time>2026-05-02T12:32:12.493Z</time></trkpt><trkpt lat="40.1175661" lon="8.5679002"><ele>730.5</ele><time>2026-05-02T12:32:13.493Z</time></trkpt><trkpt lat="40.1175472" lon="8.5677943"><ele>732.0</ele><time>2026-05-02T12:32:14.493Z</time></trkpt><trkpt lat="40.1175264" lon="8.5677034"><ele>733.5</ele><time>2026-05-02T12:32:15.494Z</time></trkpt><trkpt lat="40.1174886" lon="8.5676237"><ele>735.0</ele><time>2026-05-02T12:32:16.494Z</time></trkpt><trkpt lat="40.1174462" lon="8.5675553"><ele>736.5</ele><time>2026-05-02T12:32:17.494Z</time></trkpt><trkpt lat="40.1173778" lon="8.5675031"><ele>738.0</ele><time>2026-05-02T12:32:18.494Z</time></trkpt><trkpt lat="40.1172867" lon="8.5674258"><ele>738.0</ele><time>2026-05-02T12:32:20.495Z</time></trkpt><trkpt lat="40.1172394" lon="8.5672585"><ele>738.0</ele><time>2026-05-02T12:32:22.495Z</time></trkpt><trkpt lat="40.1172301" lon="8.5671705"><ele>738.0</ele><time>2026-05-02T12:32:23.493Z</time></trkpt><trkpt lat="40.1172112" lon="8.5670883"><ele>738.0</ele><time>2026-05-02T12:32:24.495Z</time></trkpt><trkpt lat="40.1171868" lon="8.5669787"><ele>738.0</ele><time>2026-05-02T12:32:25.493Z</time></trkpt><trkpt lat="40.117156" lon="8.5668088"><ele>739.3333333333334</ele><time>2026-05-02T12:32:27.494Z</time></trkpt><trkpt lat="40.117107" lon="8.5667202"><ele>740.6666666666666</ele><time>2026-05-02T12:32:28.494Z</time></trkpt><trkpt lat="40.1170771" lon="8.5666468"><ele>742.0</ele><time>2026-05-02T12:32:29.493Z</time></trkpt><trkpt lat="40.117026" lon="8.5665609"><ele>743.3333333333333</ele><time>2026-05-02T12:32:30.495Z</time></trkpt><trkpt lat="40.1169676" lon="8.5664915"><ele>744.6666666666666</ele><time>2026-05-02T12:32:31.495Z</time></trkpt><trkpt lat="40.1168883" lon="8.5664085"><ele>746.0</ele><time>2026-05-02T12:32:32.495Z</time></trkpt><trkpt lat="40.1168101" lon="8.5663168"><ele>746.0</ele><time>2026-05-02T12:32:33.494Z</time></trkpt><trkpt lat="40.1167256" lon="8.5662347"><ele>746.0</ele><time>2026-05-02T12:32:34.495Z</time></trkpt><trkpt lat="40.1166492" lon="8.5661568"><ele>746.0</ele><time>2026-05-02T12:32:35.495Z</time></trkpt><trkpt lat="40.116548" lon="8.5661232"><ele>746.0</ele><time>2026-05-02T12:32:36.495Z</time></trkpt><trkpt lat="40.1164448" lon="8.5660738"><ele>746.0</ele><time>2026-05-02T12:32:37.495Z</time></trkpt><trkpt lat="40.1163873" lon="8.5660185"><ele>744.4</ele><time>2026-05-02T12:32:38.493Z</time></trkpt><trkpt lat="40.1162932" lon="8.5659293"><ele>742.8</ele><time>2026-05-02T12:32:39.495Z</time></trkpt><trkpt lat="40.1162137" lon="8.5658618"><ele>741.1999999999999</ele><time>2026-05-02T12:32:40.494Z</time></trkpt><trkpt lat="40.1161483" lon="8.5658027"><ele>739.5999999999999</ele><time>2026-05-02T12:32:41.494Z</time></trkpt><trkpt lat="40.1161004" lon="8.5656744"><ele>738.0</ele><time>2026-05-02T12:32:43.495Z</time></trkpt><trkpt lat="40.1160784" lon="8.5655813"><ele>738.0</ele><time>2026-05-02T12:32:44.494Z</time></trkpt><trkpt lat="40.1160515" lon="8.5654967"><ele>738.0</ele><time>2026-05-02T12:32:45.493Z</time></trkpt><trkpt lat="40.1160033" lon="8.5654036"><ele>738.0</ele><time>2026-05-02T12:32:46.493Z</time></trkpt><trkpt lat="40.1159533" lon="8.5653142"><ele>738.0</ele><time>2026-05-02T12:32:47.493Z</time></trkpt><trkpt lat="40.1158904" lon="8.5652225"><ele>738.0</ele><time>2026-05-02T12:32:48.493Z</time></trkpt><trkpt lat="40.1158031" lon="8.5651586"><ele>738.0</ele><time>2026-05-02T12:32:49.494Z</time></trkpt><trkpt lat="40.1157496" lon="8.5650652"><ele>734.5999999999999</ele><time>2026-05-02T12:32:50.495Z</time></trkpt><trkpt lat="40.1156836" lon="8.5649825"><ele>731.1999999999999</ele><time>2026-05-02T12:32:51.494Z</time></trkpt><trkpt lat="40.1156237" lon="8.5649025"><ele>727.8</ele><time>2026-05-02T12:32:52.494Z</time></trkpt><trkpt lat="40.1155611" lon="8.5648126"><ele>724.4</ele><time>2026-05-02T12:32:53.495Z</time></trkpt><trkpt lat="40.1154981" lon="8.5647099"><ele>721.0</ele><time>2026-05-02T12:32:54.494Z</time></trkpt><trkpt lat="40.115444" lon="8.564599"><ele>721.8333333333334</ele><time>2026-05-02T12:32:55.493Z</time></trkpt><trkpt lat="40.1153891" lon="8.564496"><ele>722.6666666666667</ele><time>2026-05-02T12:32:56.494Z</time></trkpt><trkpt lat="40.1153206" lon="8.5644142"><ele>723.5</ele><time>2026-05-02T12:32:57.493Z</time></trkpt><trkpt lat="40.1152591" lon="8.564335"><ele>724.3333333333334</ele><time>2026-05-02T12:32:58.493Z</time></trkpt><trkpt lat="40.1151925" lon="8.5642659"><ele>725.1666666666666</ele><time>2026-05-02T12:32:59.494Z</time></trkpt><trkpt lat="40.1151151" lon="8.5642265"><ele>726.0</ele><time>2026-05-02T12:33:00.494Z</time></trkpt><trkpt lat="40.1150527" lon="8.5641787"><ele>726.0</ele><time>2026-05-02T12:33:01.495Z</time></trkpt><trkpt lat="40.1149899" lon="8.5640876"><ele>726.0</ele><time>2026-05-02T12:33:03.494Z</time></trkpt><trkpt lat="40.1149544" lon="8.5640159"><ele>726.0</ele><time>2026-05-02T12:33:04.493Z</time></trkpt><trkpt lat="40.1149135" lon="8.5639212"><ele>726.0</ele><time>2026-05-02T12:33:05.494Z</time></trkpt><trkpt lat="40.1148717" lon="8.5638139"><ele>726.0</ele><time>2026-05-02T12:33:06.495Z</time></trkpt><trkpt lat="40.1148414" lon="8.5637215"><ele>726.0</ele><time>2026-05-02T12:33:07.494Z</time></trkpt><trkpt lat="40.1148064" lon="8.5636293"><ele>722.4</ele><time>2026-05-02T12:33:08.494Z</time></trkpt><trkpt lat="40.1147746" lon="8.563529"><ele>718.8</ele><time>2026-05-02T12:33:09.494Z</time></trkpt><trkpt lat="40.1147673" lon="8.5634405"><ele>715.1999999999999</ele><time>2026-05-02T12:33:10.493Z</time></trkpt><trkpt lat="40.1147978" lon="8.5632666"><ele>711.5999999999999</ele><time>2026-05-02T12:33:12.494Z</time></trkpt><trkpt lat="40.1147815" lon="8.5631428"><ele>708.0</ele><time>2026-05-02T12:33:13.493Z</time></trkpt><trkpt lat="40.1147819" lon="8.5630292"><ele>708.0</ele><time>2026-05-02T12:33:14.493Z</time></trkpt><trkpt lat="40.1147891" lon="8.5628906"><ele>708.0</ele><time>2026-05-02T12:33:15.493Z</time></trkpt><trkpt lat="40.1147919" lon="8.5627846"><ele>708.0</ele><time>2026-05-02T12:33:16.493Z</time></trkpt><trkpt lat="40.1148536" lon="8.56269"><ele>708.0</ele><time>2026-05-02T12:33:17.494Z</time></trkpt><trkpt lat="40.1148715" lon="8.5625755"><ele>708.0</ele><time>2026-05-02T12:33:18.494Z</time></trkpt><trkpt lat="40.1148842" lon="8.5624913"><ele>708.0</ele><time>2026-05-02T12:33:19.493Z</time></trkpt><trkpt lat="40.1149028" lon="8.5624015"><ele>708.8</ele><time>2026-05-02T12:33:20.494Z</time></trkpt><trkpt lat="40.1149083" lon="8.5622579"><ele>709.5999999999999</ele><time>2026-05-02T12:33:21.494Z</time></trkpt><trkpt lat="40.1149202" lon="8.5621098"><ele>710.4000000000001</ele><time>2026-05-02T12:33:22.494Z</time></trkpt><trkpt lat="40.1149284" lon="8.561984"><ele>711.2</ele><time>2026-05-02T12:33:23.494Z</time></trkpt><trkpt lat="40.1149301" lon="8.5618682"><ele>712.0</ele><time>2026-05-02T12:33:24.494Z</time></trkpt><trkpt lat="40.1149186" lon="8.5617612"><ele>712.0</ele><time>2026-05-02T12:33:25.494Z</time></trkpt><trkpt lat="40.1149137" lon="8.5616625"><ele>712.0</ele><time>2026-05-02T12:33:26.494Z</time></trkpt><trkpt lat="40.1149313" lon="8.5615754"><ele>712.0</ele><time>2026-05-02T12:33:27.495Z</time></trkpt><trkpt lat="40.11489" lon="8.5614654"><ele>712.0</ele><time>2026-05-02T12:33:29.493Z</time></trkpt><trkpt lat="40.1147759" lon="8.561446"><ele>712.0</ele><time>2026-05-02T12:33:31.493Z</time></trkpt><trkpt lat="40.1146862" lon="8.5614754"><ele>712.0</ele><time>2026-05-02T12:33:32.494Z</time></trkpt><trkpt lat="40.1146113" lon="8.5614613"><ele>709.0</ele><time>2026-05-02T12:33:33.493Z</time></trkpt><trkpt lat="40.1145187" lon="8.5613925"><ele>706.0</ele><time>2026-05-02T12:33:35.494Z</time></trkpt><trkpt lat="40.114465" lon="8.5613143"><ele>703.0</ele><time>2026-05-02T12:33:37.494Z</time></trkpt><trkpt lat="40.1145205" lon="8.561166"><ele>700.0</ele><time>2026-05-02T12:33:39.494Z</time></trkpt><trkpt lat="40.1145851" lon="8.5611036"><ele>697.0</ele><time>2026-05-02T12:33:40.494Z</time></trkpt><trkpt lat="40.1146575" lon="8.5610318"><ele>697.3333333333334</ele><time>2026-05-02T12:33:41.493Z</time></trkpt><trkpt lat="40.1147225" lon="8.5609534"><ele>697.6666666666667</ele><time>2026-05-02T12:33:42.494Z</time></trkpt><trkpt lat="40.1147811" lon="8.560899"><ele>698.0</ele><time>2026-05-02T12:33:43.493Z</time></trkpt><trkpt lat="40.1148325" lon="8.5608431"><ele>698.3333333333334</ele><time>2026-05-02T12:33:44.495Z</time></trkpt><trkpt lat="40.1148855" lon="8.560764"><ele>698.6666666666666</ele><time>2026-05-02T12:33:45.495Z</time></trkpt><trkpt lat="40.1149269" lon="8.5606647"><ele>699.0</ele><time>2026-05-02T12:33:46.495Z</time></trkpt><trkpt lat="40.1149792" lon="8.5605763"><ele>699.0</ele><time>2026-05-02T12:33:47.494Z</time></trkpt><trkpt lat="40.1150401" lon="8.5604837"><ele>699.0</ele><time>2026-05-02T12:33:48.494Z</time></trkpt><trkpt lat="40.1150666" lon="8.5604022"><ele>699.0</ele><time>2026-05-02T12:33:49.495Z</time></trkpt><trkpt lat="40.1150954" lon="8.5603262"><ele>699.0</ele><time>2026-05-02T12:33:50.494Z</time></trkpt><trkpt lat="40.1150499" lon="8.5602136"><ele>699.0</ele><time>2026-05-02T12:33:52.494Z</time></trkpt><trkpt lat="40.1149457" lon="8.5600986"><ele>696.2</ele><time>2026-05-02T12:33:54.494Z</time></trkpt><trkpt lat="40.1149074" lon="8.5599488"><ele>693.4000000000001</ele><time>2026-05-02T12:33:56.495Z</time></trkpt><trkpt lat="40.1149031" lon="8.5598255"><ele>690.6</ele><time>2026-05-02T12:33:57.495Z</time></trkpt><trkpt lat="40.1148968" lon="8.5597116"><ele>687.8</ele><time>2026-05-02T12:33:58.493Z</time></trkpt><trkpt lat="40.1148833" lon="8.55957"><ele>685.0</ele><time>2026-05-02T12:33:59.495Z</time></trkpt><trkpt lat="40.1148764" lon="8.5594374"><ele>682.1666666666667</ele><time>2026-05-02T12:34:00.495Z</time></trkpt><trkpt lat="40.1148893" lon="8.5593427"><ele>679.3333333333334</ele><time>2026-05-02T12:34:01.494Z</time></trkpt><trkpt lat="40.114871" lon="8.5592264"><ele>676.5</ele><time>2026-05-02T12:34:02.494Z</time></trkpt><trkpt lat="40.1148373" lon="8.5590961"><ele>673.6666666666666</ele><time>2026-05-02T12:34:03.493Z</time></trkpt><trkpt lat="40.114813" lon="8.5589927"><ele>670.8333333333333</ele><time>2026-05-02T12:34:04.493Z</time></trkpt><trkpt lat="40.1147888" lon="8.5588864"><ele>668.0</ele><time>2026-05-02T12:34:05.494Z</time></trkpt><trkpt lat="40.114811" lon="8.5587724"><ele>666.5999999999999</ele><time>2026-05-02T12:34:06.495Z</time></trkpt><trkpt lat="40.1148099" lon="8.558639"><ele>665.1999999999999</ele><time>2026-05-02T12:34:07.495Z</time></trkpt><trkpt lat="40.1147837" lon="8.5584912"><ele>663.8</ele><time>2026-05-02T12:34:08.494Z</time></trkpt><trkpt lat="40.1147625" lon="8.5583751"><ele>662.4</ele><time>2026-05-02T12:34:09.493Z</time></trkpt><trkpt lat="40.114747" lon="8.5582578"><ele>661.0</ele><time>2026-05-02T12:34:10.492Z</time></trkpt><trkpt lat="40.1147402" lon="8.558164"><ele>661.0</ele><time>2026-05-02T12:34:11.492Z</time></trkpt><trkpt lat="40.1147032" lon="8.5580864"><ele>661.0</ele><time>2026-05-02T12:34:12.492Z</time></trkpt><trkpt lat="40.1146496" lon="8.5579087"><ele>661.0</ele><time>2026-05-02T12:34:14.493Z</time></trkpt><trkpt lat="40.1145873" lon="8.5578025"><ele>661.0</ele><time>2026-05-02T12:34:15.494Z</time></trkpt><trkpt lat="40.1145541" lon="8.557683"><ele>661.0</ele><time>2026-05-02T12:34:16.493Z</time></trkpt><trkpt lat="40.1145511" lon="8.5575583"><ele>659.8</ele><time>2026-05-02T12:34:17.494Z</time></trkpt><trkpt lat="40.1145312" lon="8.557451"><ele>658.5999999999999</ele><time>2026-05-02T12:34:18.493Z</time></trkpt><trkpt lat="40.1145114" lon="8.557339"><ele>657.4</ele><time>2026-05-02T12:34:19.493Z</time></trkpt><trkpt lat="40.1144881" lon="8.5572405"><ele>656.2</ele><time>2026-05-02T12:34:20.493Z</time></trkpt><trkpt lat="40.1144114" lon="8.5571241"><ele>655.0</ele><time>2026-05-02T12:34:21.493Z</time></trkpt><trkpt lat="40.114365" lon="8.557019"><ele>652.25</ele><time>2026-05-02T12:34:22.492Z</time></trkpt><trkpt lat="40.1143148" lon="8.5568942"><ele>649.5</ele><time>2026-05-02T12:34:23.493Z</time></trkpt><trkpt lat="40.1142618" lon="8.5567707"><ele>646.75</ele><time>2026-05-02T12:34:24.493Z</time></trkpt><trkpt lat="40.1142093" lon="8.5566041"><ele>644.0</ele><time>2026-05-02T12:34:25.493Z</time></trkpt><trkpt lat="40.1141528" lon="8.5564707"><ele>644.0</ele><time>2026-05-02T12:34:26.493Z</time></trkpt><trkpt lat="40.1140859" lon="8.5563407"><ele>644.0</ele><time>2026-05-02T12:34:27.492Z</time></trkpt><trkpt lat="40.1140275" lon="8.5562081"><ele>644.0</ele><time>2026-05-02T12:34:28.494Z</time></trkpt><trkpt lat="40.1139697" lon="8.5561184"><ele>644.0</ele><time>2026-05-02T12:34:29.493Z</time></trkpt><trkpt lat="40.1139173" lon="8.5560023"><ele>644.0</ele><time>2026-05-02T12:34:30.492Z</time></trkpt><trkpt lat="40.1138676" lon="8.5558859"><ele>642.0</ele><time>2026-05-02T12:34:31.492Z</time></trkpt><trkpt lat="40.1138351" lon="8.5557631"><ele>640.0</ele><time>2026-05-02T12:34:32.493Z</time></trkpt><trkpt lat="40.113833" lon="8.5556264"><ele>638.0</ele><time>2026-05-02T12:34:33.493Z</time></trkpt><trkpt lat="40.1138067" lon="8.5554971"><ele>636.0</ele><time>2026-05-02T12:34:34.494Z</time></trkpt><trkpt lat="40.1137907" lon="8.5553925"><ele>634.0</ele><time>2026-05-02T12:34:35.493Z</time></trkpt><trkpt lat="40.1137793" lon="8.5552899"><ele>631.6</ele><time>2026-05-02T12:34:36.493Z</time></trkpt><trkpt lat="40.1137598" lon="8.5551586"><ele>629.2</ele><time>2026-05-02T12:34:37.492Z</time></trkpt><trkpt lat="40.1136932" lon="8.5550882"><ele>626.8000000000001</ele><time>2026-05-02T12:34:38.492Z</time></trkpt><trkpt lat="40.1135875" lon="8.5549881"><ele>624.4</ele><time>2026-05-02T12:34:39.493Z</time></trkpt><trkpt lat="40.1134824" lon="8.5549218"><ele>622.0</ele><time>2026-05-02T12:34:40.494Z</time></trkpt><trkpt lat="40.1134014" lon="8.5548632"><ele>622.0</ele><time>2026-05-02T12:34:41.494Z</time></trkpt><trkpt lat="40.1133341" lon="8.5548143"><ele>622.0</ele><time>2026-05-02T12:34:42.494Z</time></trkpt><trkpt lat="40.1133295" lon="8.5546904"><ele>622.0</ele><time>2026-05-02T12:34:44.492Z</time></trkpt><trkpt lat="40.1133627" lon="8.554606"><ele>622.0</ele><time>2026-05-02T12:34:45.493Z</time></trkpt><trkpt lat="40.113394" lon="8.5544967"><ele>622.0</ele><time>2026-05-02T12:34:46.493Z</time></trkpt><trkpt lat="40.1134228" lon="8.5543714"><ele>622.0</ele><time>2026-05-02T12:34:47.492Z</time></trkpt><trkpt lat="40.1134492" lon="8.5542755"><ele>619.0</ele><time>2026-05-02T12:34:48.493Z</time></trkpt><trkpt lat="40.1134885" lon="8.554207"><ele>616.0</ele><time>2026-05-02T12:34:49.493Z</time></trkpt><trkpt lat="40.1135923" lon="8.5541652"><ele>613.0</ele><time>2026-05-02T12:34:51.493Z</time></trkpt><trkpt lat="40.1136903" lon="8.5541403"><ele>610.0</ele><time>2026-05-02T12:34:53.493Z</time></trkpt><trkpt lat="40.11369" lon="8.5539854"><ele>607.0</ele><time>2026-05-02T12:34:55.494Z</time></trkpt><trkpt lat="40.1136743" lon="8.5539041"><ele>607.0</ele><time>2026-05-02T12:34:56.492Z</time></trkpt><trkpt lat="40.1136488" lon="8.553796"><ele>607.0</ele><time>2026-05-02T12:34:57.493Z</time></trkpt><trkpt lat="40.113619" lon="8.5536796"><ele>607.0</ele><time>2026-05-02T12:34:58.493Z</time></trkpt><trkpt lat="40.1135813" lon="8.5535789"><ele>607.0</ele><time>2026-05-02T12:34:59.492Z</time></trkpt><trkpt lat="40.1135571" lon="8.5534908"><ele>607.0</ele><time>2026-05-02T12:35:00.493Z</time></trkpt><trkpt lat="40.1135027" lon="8.5534422"><ele>607.0</ele><time>2026-05-02T12:35:01.492Z</time></trkpt><trkpt lat="40.1134326" lon="8.553348"><ele>604.6666666666667</ele><time>2026-05-02T12:35:03.494Z</time></trkpt><trkpt lat="40.1134555" lon="8.5532501"><ele>602.3333333333334</ele><time>2026-05-02T12:35:06.492Z</time></trkpt><trkpt lat="40.1135191" lon="8.553206"><ele>600.0</ele><time>2026-05-02T12:35:08.494Z</time></trkpt><trkpt lat="40.11362" lon="8.5531283"><ele>597.6666666666666</ele><time>2026-05-02T12:35:10.493Z</time></trkpt><trkpt lat="40.1136861" lon="8.5531018"><ele>595.3333333333333</ele><time>2026-05-02T12:35:11.494Z</time></trkpt><trkpt lat="40.1137654" lon="8.553065"><ele>593.0</ele><time>2026-05-02T12:35:12.493Z</time></trkpt><trkpt lat="40.1138428" lon="8.5529844"><ele>593.0</ele><time>2026-05-02T12:35:13.492Z</time></trkpt><trkpt lat="40.1138913" lon="8.5529192"><ele>593.0</ele><time>2026-05-02T12:35:14.493Z</time></trkpt><trkpt lat="40.113932" lon="8.5528275"><ele>593.0</ele><time>2026-05-02T12:35:16.493Z</time></trkpt><trkpt lat="40.113934" lon="8.5527137"><ele>593.0</ele><time>2026-05-02T12:35:18.494Z</time></trkpt><trkpt lat="40.1138737" lon="8.5526283"><ele>593.0</ele><time>2026-05-02T12:35:19.492Z</time></trkpt><trkpt lat="40.1138082" lon="8.5525769"><ele>593.0</ele><time>2026-05-02T12:35:20.493Z</time></trkpt><trkpt lat="40.1137392" lon="8.552517"><ele>591.1666666666666</ele><time>2026-05-02T12:35:21.493Z</time></trkpt><trkpt lat="40.1136679" lon="8.552487"><ele>589.3333333333333</ele><time>2026-05-02T12:35:22.494Z</time></trkpt><trkpt lat="40.1135708" lon="8.5524341"><ele>587.5</ele><time>2026-05-02T12:35:23.494Z</time></trkpt><trkpt lat="40.1134924" lon="8.5524034"><ele>585.6666666666666</ele><time>2026-05-02T12:35:24.494Z</time></trkpt><trkpt lat="40.1134179" lon="8.552361"><ele>583.8333333333334</ele><time>2026-05-02T12:35:25.494Z</time></trkpt><trkpt lat="40.113354" lon="8.5523542"><ele>582.0</ele><time>2026-05-02T12:35:26.492Z</time></trkpt><trkpt lat="40.1132466" lon="8.5523864"><ele>579.6666666666666</ele><time>2026-05-02T12:35:28.492Z</time></trkpt><trkpt lat="40.1131842" lon="8.5524339"><ele>577.3333333333334</ele><time>2026-05-02T12:35:29.493Z</time></trkpt><trkpt lat="40.1131043" lon="8.552451"><ele>575.0</ele><time>2026-05-02T12:35:30.493Z</time></trkpt><trkpt lat="40.1130114" lon="8.5524763"><ele>572.6666666666667</ele><time>2026-05-02T12:35:31.493Z</time></trkpt><trkpt lat="40.1129187" lon="8.5524744"><ele>570.3333333333334</ele><time>2026-05-02T12:35:32.494Z</time></trkpt><trkpt lat="40.1128421" lon="8.5524366"><ele>568.0</ele><time>2026-05-02T12:35:33.493Z</time></trkpt><trkpt lat="40.1127539" lon="8.5523952"><ele>568.0</ele><time>2026-05-02T12:35:34.494Z</time></trkpt><trkpt lat="40.1126693" lon="8.5523569"><ele>568.0</ele><time>2026-05-02T12:35:35.492Z</time></trkpt><trkpt lat="40.1125914" lon="8.5523386"><ele>568.0</ele><time>2026-05-02T12:35:36.493Z</time></trkpt><trkpt lat="40.112477" lon="8.5523925"><ele>568.0</ele><time>2026-05-02T12:35:38.492Z</time></trkpt><trkpt lat="40.1123943" lon="8.5524441"><ele>568.0</ele><time>2026-05-02T12:35:39.493Z</time></trkpt><trkpt lat="40.1123151" lon="8.5525012"><ele>564.5</ele><time>2026-05-02T12:35:40.493Z</time></trkpt><trkpt lat="40.1122665" lon="8.5525668"><ele>561.0</ele><time>2026-05-02T12:35:41.494Z</time></trkpt><trkpt lat="40.1122224" lon="8.5526586"><ele>557.5</ele><time>2026-05-02T12:35:42.493Z</time></trkpt><trkpt lat="40.1121723" lon="8.5527623"><ele>554.0</ele><time>2026-05-02T12:35:43.492Z</time></trkpt><trkpt lat="40.1121544" lon="8.5528567"><ele>550.5</ele><time>2026-05-02T12:35:44.492Z</time></trkpt><trkpt lat="40.1121426" lon="8.5529559"><ele>547.0</ele><time>2026-05-02T12:35:45.494Z</time></trkpt><trkpt lat="40.1121472" lon="8.553069"><ele>547.0</ele><time>2026-05-02T12:35:46.492Z</time></trkpt><trkpt lat="40.1121529" lon="8.5531757"><ele>547.0</ele><time>2026-05-02T12:35:47.492Z</time></trkpt><trkpt lat="40.1121556" lon="8.5532638"><ele>547.0</ele><time>2026-05-02T12:35:48.492Z</time></trkpt><trkpt lat="40.1121582" lon="8.5533556"><ele>547.0</ele><time>2026-05-02T12:35:49.494Z</time></trkpt><trkpt lat="40.1121281" lon="8.553461"><ele>547.0</ele><time>2026-05-02T12:35:50.493Z</time></trkpt><trkpt lat="40.1121002" lon="8.5535559"><ele>547.0</ele><time>2026-05-02T12:35:51.493Z</time></trkpt><trkpt lat="40.1120565" lon="8.5536344"><ele>547.0</ele><time>2026-05-02T12:35:52.493Z</time></trkpt><trkpt lat="40.1120107" lon="8.553704"><ele>547.0</ele><time>2026-05-02T12:35:53.493Z</time></trkpt><trkpt lat="40.1119296" lon="8.5538191"><ele>547.0</ele><time>2026-05-02T12:35:55.493Z</time></trkpt><trkpt lat="40.1118727" lon="8.5538608"><ele>547.0</ele><time>2026-05-02T12:35:56.493Z</time></trkpt><trkpt lat="40.1118028" lon="8.5539341"><ele>547.0</ele><time>2026-05-02T12:35:58.494Z</time></trkpt><trkpt lat="40.1117019" lon="8.5539863"><ele>547.8333333333334</ele><time>2026-05-02T12:36:00.492Z</time></trkpt><trkpt lat="40.1116419" lon="8.5540247"><ele>548.6666666666667</ele><time>2026-05-02T12:36:01.493Z</time></trkpt><trkpt lat="40.1115314" lon="8.5540794"><ele>549.5</ele><time>2026-05-02T12:36:03.493Z</time></trkpt><trkpt lat="40.1114689" lon="8.5541223"><ele>550.3333333333334</ele><time>2026-05-02T12:36:04.493Z</time></trkpt><trkpt lat="40.1114164" lon="8.5541931"><ele>551.1666666666666</ele><time>2026-05-02T12:36:05.493Z</time></trkpt><trkpt lat="40.1113558" lon="8.5542739"><ele>552.0</ele><time>2026-05-02T12:36:06.492Z</time></trkpt><trkpt lat="40.111284" lon="8.5543671"><ele>549.5</ele><time>2026-05-02T12:36:07.493Z</time></trkpt><trkpt lat="40.1111749" lon="8.5544307"><ele>547.0</ele><time>2026-05-02T12:36:09.492Z</time></trkpt><trkpt lat="40.1111165" lon="8.5544811"><ele>544.5</ele><time>2026-05-02T12:36:10.492Z</time></trkpt><trkpt lat="40.1110369" lon="8.5545826"><ele>542.0</ele><time>2026-05-02T12:36:12.494Z</time></trkpt><trkpt lat="40.1109783" lon="8.5546185"><ele>539.5</ele><time>2026-05-02T12:36:13.492Z</time></trkpt><trkpt lat="40.1109133" lon="8.5546611"><ele>537.0</ele><time>2026-05-02T12:36:14.493Z</time></trkpt><trkpt lat="40.1108521" lon="8.5547268"><ele>537.0</ele><time>2026-05-02T12:36:15.493Z</time></trkpt><trkpt lat="40.1107918" lon="8.5547977"><ele>537.0</ele><time>2026-05-02T12:36:16.493Z</time></trkpt><trkpt lat="40.1107422" lon="8.5548577"><ele>537.0</ele><time>2026-05-02T12:36:17.493Z</time></trkpt><trkpt lat="40.1106932" lon="8.5549203"><ele>537.0</ele><time>2026-05-02T12:36:18.494Z</time></trkpt><trkpt lat="40.1106329" lon="8.5549715"><ele>537.0</ele><time>2026-05-02T12:36:19.493Z</time></trkpt><trkpt lat="40.1105331" lon="8.5550397"><ele>537.0</ele><time>2026-05-02T12:36:21.493Z</time></trkpt><trkpt lat="40.1104566" lon="8.5551055"><ele>533.3333333333334</ele><time>2026-05-02T12:36:23.493Z</time></trkpt><trkpt lat="40.1104077" lon="8.5551872"><ele>529.6666666666666</ele><time>2026-05-02T12:36:26.494Z</time></trkpt><trkpt lat="40.1103732" lon="8.5552919"><ele>526.0</ele><time>2026-05-02T12:36:29.492Z</time></trkpt><trkpt lat="40.1103564" lon="8.5553791"><ele>522.3333333333333</ele><time>2026-05-02T12:36:30.492Z</time></trkpt><trkpt lat="40.1103541" lon="8.5554691"><ele>518.6666666666666</ele><time>2026-05-02T12:36:31.494Z</time></trkpt><trkpt lat="40.1103569" lon="8.5555881"><ele>515.0</ele><time>2026-05-02T12:36:32.493Z</time></trkpt><trkpt lat="40.1103528" lon="8.5557215"><ele>514.6</ele><time>2026-05-02T12:36:33.493Z</time></trkpt><trkpt lat="40.1103395" lon="8.5558425"><ele>514.2</ele><time>2026-05-02T12:36:34.493Z</time></trkpt><trkpt lat="40.1103474" lon="8.5559605"><ele>513.8</ele><time>2026-05-02T12:36:35.492Z</time></trkpt><trkpt lat="40.1103613" lon="8.5560778"><ele>513.4</ele><time>2026-05-02T12:36:36.493Z</time></trkpt><trkpt lat="40.1103744" lon="8.5561965"><ele>513.0</ele><time>2026-05-02T12:36:37.492Z</time></trkpt><trkpt lat="40.1103749" lon="8.556305"><ele>513.8</ele><time>2026-05-02T12:36:38.493Z</time></trkpt><trkpt lat="40.110363" lon="8.5564328"><ele>514.5999999999999</ele><time>2026-05-02T12:36:39.493Z</time></trkpt><trkpt lat="40.1103502" lon="8.5565482"><ele>515.4000000000001</ele><time>2026-05-02T12:36:40.493Z</time></trkpt><trkpt lat="40.1103392" lon="8.5566559"><ele>516.2</ele><time>2026-05-02T12:36:41.492Z</time></trkpt><trkpt lat="40.110325" lon="8.5567821"><ele>517.0</ele><time>2026-05-02T12:36:42.494Z</time></trkpt><trkpt lat="40.1103137" lon="8.5568982"><ele>517.0</ele><time>2026-05-02T12:36:43.492Z</time></trkpt><trkpt lat="40.1103117" lon="8.556997"><ele>517.0</ele><time>2026-05-02T12:36:44.492Z</time></trkpt><trkpt lat="40.1103264" lon="8.5571061"><ele>517.0</ele><time>2026-05-02T12:36:45.492Z</time></trkpt><trkpt lat="40.1103579" lon="8.5572134"><ele>517.0</ele><time>2026-05-02T12:36:46.493Z</time></trkpt><trkpt lat="40.1103889" lon="8.5573068"><ele>517.0</ele><time>2026-05-02T12:36:47.493Z</time></trkpt><trkpt lat="40.11049" lon="8.5574363"><ele>515.3333333333334</ele><time>2026-05-02T12:36:49.493Z</time></trkpt><trkpt lat="40.1105628" lon="8.5574836"><ele>513.6666666666667</ele><time>2026-05-02T12:36:50.493Z</time></trkpt><trkpt lat="40.1106209" lon="8.5575197"><ele>512.0</ele><time>2026-05-02T12:36:51.493Z</time></trkpt><trkpt lat="40.1107078" lon="8.5575838"><ele>510.33333333333337</ele><time>2026-05-02T12:36:53.494Z</time></trkpt><trkpt lat="40.1107681" lon="8.5576778"><ele>508.6666666666667</ele><time>2026-05-02T12:36:55.493Z</time></trkpt><trkpt lat="40.1107614" lon="8.5577841"><ele>507.0</ele><time>2026-05-02T12:36:56.492Z</time></trkpt><trkpt lat="40.1107787" lon="8.5579404"><ele>506.3333333333333</ele><time>2026-05-02T12:36:57.493Z</time></trkpt><trkpt lat="40.110796" lon="8.5580719"><ele>505.66666666666663</ele><time>2026-05-02T12:36:58.493Z</time></trkpt><trkpt lat="40.1107939" lon="8.5581713"><ele>505.0</ele><time>2026-05-02T12:36:59.493Z</time></trkpt><trkpt lat="40.1107848" lon="8.5582926"><ele>504.3333333333333</ele><time>2026-05-02T12:37:00.493Z</time></trkpt><trkpt lat="40.1107685" lon="8.5583897"><ele>503.66666666666663</ele><time>2026-05-02T12:37:01.493Z</time></trkpt><trkpt lat="40.1107513" lon="8.5584758"><ele>503.0</ele><time>2026-05-02T12:37:02.492Z</time></trkpt><trkpt lat="40.1107044" lon="8.5585711"><ele>502.99999999999994</ele><time>2026-05-02T12:37:03.494Z</time></trkpt><trkpt lat="40.1106619" lon="8.558674"><ele>503.0</ele><time>2026-05-02T12:37:04.493Z</time></trkpt><trkpt lat="40.1106147" lon="8.558762"><ele>503.0</ele><time>2026-05-02T12:37:05.492Z</time></trkpt><trkpt lat="40.1105682" lon="8.5588517"><ele>503.0</ele><time>2026-05-02T12:37:06.493Z</time></trkpt><trkpt lat="40.1105262" lon="8.5589382"><ele>502.99999999999994</ele><time>2026-05-02T12:37:07.492Z</time></trkpt><trkpt lat="40.1104819" lon="8.5590229"><ele>503.0</ele><time>2026-05-02T12:37:08.493Z</time></trkpt><trkpt lat="40.1104431" lon="8.5591142"><ele>505.99999999999994</ele><time>2026-05-02T12:37:09.493Z</time></trkpt><trkpt lat="40.1104069" lon="8.5592171"><ele>509.0</ele><time>2026-05-02T12:37:10.493Z</time></trkpt><trkpt lat="40.1103804" lon="8.5593151"><ele>512.0</ele><time>2026-05-02T12:37:11.493Z</time></trkpt><trkpt lat="40.1103543" lon="8.5593932"><ele>515.0</ele><time>2026-05-02T12:37:12.492Z</time></trkpt><trkpt lat="40.1102676" lon="8.5595136"><ele>518.0</ele><time>2026-05-02T12:37:14.492Z</time></trkpt><trkpt lat="40.1102159" lon="8.5595782"><ele>521.0</ele><time>2026-05-02T12:37:15.494Z</time></trkpt><trkpt lat="40.1101599" lon="8.5597043"><ele>522.6</ele><time>2026-05-02T12:37:17.492Z</time></trkpt><trkpt lat="40.1101115" lon="8.5598039"><ele>524.2</ele><time>2026-05-02T12:37:19.493Z</time></trkpt><trkpt lat="40.1100839" lon="8.5599067"><ele>525.8</ele><time>2026-05-02T12:37:21.493Z</time></trkpt><trkpt lat="40.110067" lon="8.5600338"><ele>527.4</ele><time>2026-05-02T12:37:23.493Z</time></trkpt><trkpt lat="40.1100639" lon="8.5601963"><ele>529.0</ele><time>2026-05-02T12:37:25.493Z</time></trkpt><trkpt lat="40.1100612" lon="8.560299"><ele>529.8333333333334</ele><time>2026-05-02T12:37:26.492Z</time></trkpt><trkpt lat="40.1100503" lon="8.5604072"><ele>530.6666666666667</ele><time>2026-05-02T12:37:27.493Z</time></trkpt><trkpt lat="40.1100405" lon="8.5605287"><ele>531.5</ele><time>2026-05-02T12:37:28.492Z</time></trkpt><trkpt lat="40.1100268" lon="8.5606575"><ele>532.3333333333334</ele><time>2026-05-02T12:37:29.493Z</time></trkpt><trkpt lat="40.1100229" lon="8.5607796"><ele>533.1666666666666</ele><time>2026-05-02T12:37:30.493Z</time></trkpt><trkpt lat="40.1100132" lon="8.5608821"><ele>534.0</ele><time>2026-05-02T12:37:31.493Z</time></trkpt><trkpt lat="40.1100072" lon="8.5609774"><ele>534.0</ele><time>2026-05-02T12:37:32.493Z</time></trkpt><trkpt lat="40.1099927" lon="8.5610674"><ele>534.0</ele><time>2026-05-02T12:37:33.492Z</time></trkpt><trkpt lat="40.1099732" lon="8.5611625"><ele>534.0</ele><time>2026-05-02T12:37:34.492Z</time></trkpt><trkpt lat="40.1099588" lon="8.5612619"><ele>534.0</ele><time>2026-05-02T12:37:35.493Z</time></trkpt><trkpt lat="40.109934" lon="8.5613637"><ele>534.0</ele><time>2026-05-02T12:37:36.492Z</time></trkpt><trkpt lat="40.1098598" lon="8.5615085"><ele>534.0</ele><time>2026-05-02T12:37:38.493Z</time></trkpt><trkpt lat="40.109813" lon="8.5615938"><ele>532.1666666666666</ele><time>2026-05-02T12:37:39.493Z</time></trkpt><trkpt lat="40.1097682" lon="8.5616659"><ele>530.3333333333334</ele><time>2026-05-02T12:37:40.494Z</time></trkpt><trkpt lat="40.1097263" lon="8.5617342"><ele>528.5</ele><time>2026-05-02T12:37:41.494Z</time></trkpt><trkpt lat="40.1096868" lon="8.5618034"><ele>526.6666666666667</ele><time>2026-05-02T12:37:42.493Z</time></trkpt><trkpt lat="40.1096228" lon="8.5619279"><ele>524.8333333333334</ele><time>2026-05-02T12:37:44.493Z</time></trkpt><trkpt lat="40.1095388" lon="8.5620337"><ele>523.0</ele><time>2026-05-02T12:37:46.493Z</time></trkpt><trkpt lat="40.1094842" lon="8.5620906"><ele>523.0</ele><time>2026-05-02T12:37:47.493Z</time></trkpt><trkpt lat="40.1094484" lon="8.5621637"><ele>523.0</ele><time>2026-05-02T12:37:48.493Z</time></trkpt><trkpt lat="40.1094145" lon="8.56224"><ele>523.0</ele><time>2026-05-02T12:37:49.493Z</time></trkpt><trkpt lat="40.1093876" lon="8.5623263"><ele>523.0</ele><time>2026-05-02T12:37:50.493Z</time></trkpt><trkpt lat="40.1093651" lon="8.5624184"><ele>523.0</ele><time>2026-05-02T12:37:51.494Z</time></trkpt><trkpt lat="40.1093403" lon="8.5625041"><ele>523.0</ele><time>2026-05-02T12:37:52.494Z</time></trkpt><trkpt lat="40.1092669" lon="8.5626279"><ele>523.0</ele><time>2026-05-02T12:37:54.492Z</time></trkpt><trkpt lat="40.1092157" lon="8.5626884"><ele>523.0</ele><time>2026-05-02T12:37:55.494Z</time></trkpt><trkpt lat="40.1091654" lon="8.5627524"><ele>523.0</ele><time>2026-05-02T12:37:56.492Z</time></trkpt><trkpt lat="40.1091082" lon="8.5628038"><ele>523.0</ele><time>2026-05-02T12:37:57.491Z</time></trkpt><trkpt lat="40.1090477" lon="8.5628457"><ele>523.0</ele><time>2026-05-02T12:37:58.493Z</time></trkpt><trkpt lat="40.1089942" lon="8.56289"><ele>523.0</ele><time>2026-05-02T12:37:59.492Z</time></trkpt><trkpt lat="40.1088806" lon="8.5629711"><ele>522.6666666666667</ele><time>2026-05-02T12:38:01.492Z</time></trkpt><trkpt lat="40.1088185" lon="8.5630228"><ele>522.3333333333334</ele><time>2026-05-02T12:38:02.491Z</time></trkpt><trkpt lat="40.1087531" lon="8.5630809"><ele>522.0</ele><time>2026-05-02T12:38:03.491Z</time></trkpt><trkpt lat="40.1086811" lon="8.5631319"><ele>521.6666666666666</ele><time>2026-05-02T12:38:04.492Z</time></trkpt><trkpt lat="40.108604" lon="8.5631753"><ele>521.3333333333333</ele><time>2026-05-02T12:38:05.492Z</time></trkpt><trkpt lat="40.1085199" lon="8.5632194"><ele>521.0</ele><time>2026-05-02T12:38:06.491Z</time></trkpt><trkpt lat="40.1084254" lon="8.5632732"><ele>521.0</ele><time>2026-05-02T12:38:07.492Z</time></trkpt><trkpt lat="40.1083286" lon="8.5633295"><ele>521.0</ele><time>2026-05-02T12:38:08.492Z</time></trkpt><trkpt lat="40.1082291" lon="8.5633855"><ele>521.0</ele><time>2026-05-02T12:38:09.492Z</time></trkpt><trkpt lat="40.1081332" lon="8.563424"><ele>521.0</ele><time>2026-05-02T12:38:10.492Z</time></trkpt><trkpt lat="40.1080468" lon="8.5634838"><ele>521.0</ele><time>2026-05-02T12:38:11.492Z</time></trkpt><trkpt lat="40.1079513" lon="8.5635392"><ele>521.0</ele><time>2026-05-02T12:38:12.491Z</time></trkpt><trkpt lat="40.1078455" lon="8.5635921"><ele>521.0</ele><time>2026-05-02T12:38:13.492Z</time></trkpt><trkpt lat="40.1077362" lon="8.5636316"><ele>521.0</ele><time>2026-05-02T12:38:14.491Z</time></trkpt><trkpt lat="40.1076551" lon="8.5636883"><ele>521.0</ele><time>2026-05-02T12:38:15.492Z</time></trkpt><trkpt lat="40.1075534" lon="8.5637732"><ele>521.0</ele><time>2026-05-02T12:38:16.492Z</time></trkpt><trkpt lat="40.1074556" lon="8.5638604"><ele>519.8</ele><time>2026-05-02T12:38:17.491Z</time></trkpt><trkpt lat="40.107377" lon="8.5639453"><ele>518.6</ele><time>2026-05-02T12:38:18.493Z</time></trkpt><trkpt lat="40.107316" lon="8.5640363"><ele>517.4</ele><time>2026-05-02T12:38:19.491Z</time></trkpt><trkpt lat="40.1072641" lon="8.564139"><ele>516.2</ele><time>2026-05-02T12:38:20.492Z</time></trkpt><trkpt lat="40.1072311" lon="8.5642466"><ele>515.0</ele><time>2026-05-02T12:38:21.492Z</time></trkpt><trkpt lat="40.1072036" lon="8.5643618"><ele>515.0</ele><time>2026-05-02T12:38:22.492Z</time></trkpt><trkpt lat="40.1071729" lon="8.564508"><ele>515.0</ele><time>2026-05-02T12:38:23.492Z</time></trkpt><trkpt lat="40.1071362" lon="8.5646595"><ele>515.0</ele><time>2026-05-02T12:38:24.491Z</time></trkpt><trkpt lat="40.1070881" lon="8.5648145"><ele>515.0</ele><time>2026-05-02T12:38:25.492Z</time></trkpt><trkpt lat="40.1070407" lon="8.5649542"><ele>517.2</ele><time>2026-05-02T12:38:26.492Z</time></trkpt><trkpt lat="40.1069975" lon="8.5650776"><ele>519.4</ele><time>2026-05-02T12:38:27.492Z</time></trkpt><trkpt lat="40.10696" lon="8.565207"><ele>521.6</ele><time>2026-05-02T12:38:28.491Z</time></trkpt><trkpt lat="40.1069359" lon="8.5653036"><ele>523.8</ele><time>2026-05-02T12:38:29.491Z</time></trkpt><trkpt lat="40.1069173" lon="8.5654212"><ele>526.0</ele><time>2026-05-02T12:38:30.493Z</time></trkpt><trkpt lat="40.1069062" lon="8.5655656"><ele>526.5</ele><time>2026-05-02T12:38:31.493Z</time></trkpt><trkpt lat="40.1068905" lon="8.5657466"><ele>527.0</ele><time>2026-05-02T12:38:32.491Z</time></trkpt><trkpt lat="40.1068633" lon="8.5659339"><ele>527.5</ele><time>2026-05-02T12:38:33.491Z</time></trkpt><trkpt lat="40.1068449" lon="8.5661284"><ele>528.0</ele><time>2026-05-02T12:38:34.492Z</time></trkpt><trkpt lat="40.1068239" lon="8.566284"><ele>528.0</ele><time>2026-05-02T12:38:35.491Z</time></trkpt><trkpt lat="40.1068073" lon="8.5664233"><ele>528.0</ele><time>2026-05-02T12:38:36.491Z</time></trkpt><trkpt lat="40.1067831" lon="8.5665539"><ele>528.0</ele><time>2026-05-02T12:38:37.493Z</time></trkpt><trkpt lat="40.1067599" lon="8.5666507"><ele>528.0</ele><time>2026-05-02T12:38:38.492Z</time></trkpt><trkpt lat="40.1067334" lon="8.5667637"><ele>528.0</ele><time>2026-05-02T12:38:39.492Z</time></trkpt><trkpt lat="40.1066966" lon="8.5668773"><ele>528.0</ele><time>2026-05-02T12:38:40.492Z</time></trkpt><trkpt lat="40.1066458" lon="8.5670184"><ele>528.0</ele><time>2026-05-02T12:38:41.492Z</time></trkpt><trkpt lat="40.106572" lon="8.5671619"><ele>528.0</ele><time>2026-05-02T12:38:42.492Z</time></trkpt><trkpt lat="40.1064982" lon="8.5672978"><ele>528.0</ele><time>2026-05-02T12:38:43.492Z</time></trkpt><trkpt lat="40.10643" lon="8.5674307"><ele>526.75</ele><time>2026-05-02T12:38:44.493Z</time></trkpt><trkpt lat="40.1063644" lon="8.5675639"><ele>525.5</ele><time>2026-05-02T12:38:45.492Z</time></trkpt><trkpt lat="40.1063087" lon="8.5677159"><ele>524.25</ele><time>2026-05-02T12:38:46.493Z</time></trkpt><trkpt lat="40.106266" lon="8.5678801"><ele>523.0</ele><time>2026-05-02T12:38:47.492Z</time></trkpt><trkpt lat="40.1062334" lon="8.568042"><ele>522.75</ele><time>2026-05-02T12:38:48.492Z</time></trkpt><trkpt lat="40.1061971" lon="8.5682099"><ele>522.5</ele><time>2026-05-02T12:38:49.492Z</time></trkpt><trkpt lat="40.1061561" lon="8.5683801"><ele>522.25</ele><time>2026-05-02T12:38:50.492Z</time></trkpt><trkpt lat="40.1061165" lon="8.5685451"><ele>522.0</ele><time>2026-05-02T12:38:51.493Z</time></trkpt><trkpt lat="40.1060718" lon="8.5687119"><ele>523.5</ele><time>2026-05-02T12:38:52.491Z</time></trkpt><trkpt lat="40.1060175" lon="8.5688784"><ele>525.0</ele><time>2026-05-02T12:38:53.491Z</time></trkpt><trkpt lat="40.1059638" lon="8.5690226"><ele>526.5</ele><time>2026-05-02T12:38:54.491Z</time></trkpt><trkpt lat="40.1059133" lon="8.5691537"><ele>528.0</ele><time>2026-05-02T12:38:55.492Z</time></trkpt><trkpt lat="40.1058612" lon="8.569293"><ele>528.0</ele><time>2026-05-02T12:38:56.492Z</time></trkpt><trkpt lat="40.105815" lon="8.5694484"><ele>528.0</ele><time>2026-05-02T12:38:57.491Z</time></trkpt><trkpt lat="40.1057682" lon="8.5695952"><ele>528.0</ele><time>2026-05-02T12:38:58.493Z</time></trkpt><trkpt lat="40.1057254" lon="8.5697439"><ele>528.0</ele><time>2026-05-02T12:38:59.493Z</time></trkpt><trkpt lat="40.1056471" lon="8.5698983"><ele>526.0</ele><time>2026-05-02T12:39:01.492Z</time></trkpt><trkpt lat="40.1055898" lon="8.5699589"><ele>524.0</ele><time>2026-05-02T12:39:02.491Z</time></trkpt><trkpt lat="40.1054946" lon="8.5699945"><ele>522.0</ele><time>2026-05-02T12:39:03.491Z</time></trkpt><trkpt lat="40.1054144" lon="8.5700558"><ele>520.0</ele><time>2026-05-02T12:39:04.491Z</time></trkpt><trkpt lat="40.1053332" lon="8.5701451"><ele>518.0</ele><time>2026-05-02T12:39:05.492Z</time></trkpt><trkpt lat="40.1052462" lon="8.5702367"><ele>518.5</ele><time>2026-05-02T12:39:06.491Z</time></trkpt><trkpt lat="40.1051611" lon="8.5703841"><ele>519.0</ele><time>2026-05-02T12:39:07.492Z</time></trkpt><trkpt lat="40.1050875" lon="8.5705384"><ele>519.5</ele><time>2026-05-02T12:39:08.492Z</time></trkpt><trkpt lat="40.1050185" lon="8.5706751"><ele>520.0</ele><time>2026-05-02T12:39:09.491Z</time></trkpt><trkpt lat="40.1049551" lon="8.5708023"><ele>516.5</ele><time>2026-05-02T12:39:10.492Z</time></trkpt><trkpt lat="40.1048934" lon="8.5709278"><ele>513.0</ele><time>2026-05-02T12:39:11.493Z</time></trkpt><trkpt lat="40.1048104" lon="8.5710452"><ele>509.5</ele><time>2026-05-02T12:39:12.493Z</time></trkpt><trkpt lat="40.1047245" lon="8.5711496"><ele>506.0</ele><time>2026-05-02T12:39:13.491Z</time></trkpt><trkpt lat="40.1046059" lon="8.5712197"><ele>506.0</ele><time>2026-05-02T12:39:14.492Z</time></trkpt><trkpt lat="40.1045174" lon="8.5712942"><ele>506.0</ele><time>2026-05-02T12:39:15.492Z</time></trkpt><trkpt lat="40.1044323" lon="8.5713922"><ele>506.0</ele><time>2026-05-02T12:39:16.492Z</time></trkpt><trkpt lat="40.1043331" lon="8.5714949"><ele>506.0</ele><time>2026-05-02T12:39:17.492Z</time></trkpt><trkpt lat="40.1042444" lon="8.5716176"><ele>506.0</ele><time>2026-05-02T12:39:18.492Z</time></trkpt><trkpt lat="40.1041448" lon="8.5717205"><ele>506.0</ele><time>2026-05-02T12:39:19.492Z</time></trkpt><trkpt lat="40.1040609" lon="8.5718284"><ele>506.0</ele><time>2026-05-02T12:39:20.492Z</time></trkpt><trkpt lat="40.1039837" lon="8.5719166"><ele>506.0</ele><time>2026-05-02T12:39:21.492Z</time></trkpt><trkpt lat="40.1038733" lon="8.5720044"><ele>505.0</ele><time>2026-05-02T12:39:22.491Z</time></trkpt><trkpt lat="40.1037576" lon="8.5720741"><ele>504.0</ele><time>2026-05-02T12:39:23.492Z</time></trkpt><trkpt lat="40.1036392" lon="8.5721339"><ele>503.0</ele><time>2026-05-02T12:39:24.492Z</time></trkpt><trkpt lat="40.1035312" lon="8.572207"><ele>502.0</ele><time>2026-05-02T12:39:25.493Z</time></trkpt><trkpt lat="40.1034254" lon="8.5722901"><ele>502.0</ele><time>2026-05-02T12:39:26.492Z</time></trkpt><trkpt lat="40.1033199" lon="8.5723706"><ele>502.00000000000006</ele><time>2026-05-02T12:39:27.491Z</time></trkpt><trkpt lat="40.1032257" lon="8.5724408"><ele>502.00000000000006</ele><time>2026-05-02T12:39:28.491Z</time></trkpt><trkpt lat="40.1031284" lon="8.5725162"><ele>502.0</ele><time>2026-05-02T12:39:29.491Z</time></trkpt><trkpt lat="40.1030385" lon="8.5725745"><ele>502.0</ele><time>2026-05-02T12:39:30.492Z</time></trkpt><trkpt lat="40.1029462" lon="8.5726333"><ele>503.20000000000005</ele><time>2026-05-02T12:39:31.492Z</time></trkpt><trkpt lat="40.1028771" lon="8.5726722"><ele>504.40000000000003</ele><time>2026-05-02T12:39:32.493Z</time></trkpt><trkpt lat="40.1027845" lon="8.5727352"><ele>505.59999999999997</ele><time>2026-05-02T12:39:33.493Z</time></trkpt><trkpt lat="40.1026878" lon="8.5727864"><ele>506.79999999999995</ele><time>2026-05-02T12:39:34.492Z</time></trkpt><trkpt lat="40.1025967" lon="8.5727996"><ele>508.0</ele><time>2026-05-02T12:39:35.491Z</time></trkpt><trkpt lat="40.1024891" lon="8.5728107"><ele>509.0</ele><time>2026-05-02T12:39:36.493Z</time></trkpt><trkpt lat="40.1023633" lon="8.5728065"><ele>510.0</ele><time>2026-05-02T12:39:37.493Z</time></trkpt><trkpt lat="40.1022167" lon="8.5727866"><ele>511.0</ele><time>2026-05-02T12:39:38.493Z</time></trkpt><trkpt lat="40.1020757" lon="8.5727638"><ele>512.0</ele><time>2026-05-02T12:39:39.492Z</time></trkpt><trkpt lat="40.1019427" lon="8.572728"><ele>512.0</ele><time>2026-05-02T12:39:40.492Z</time></trkpt><trkpt lat="40.1017996" lon="8.5726843"><ele>512.0</ele><time>2026-05-02T12:39:41.492Z</time></trkpt><trkpt lat="40.1016771" lon="8.5726679"><ele>512.0</ele><time>2026-05-02T12:39:42.492Z</time></trkpt><trkpt lat="40.1015927" lon="8.5726511"><ele>512.0</ele><time>2026-05-02T12:39:43.493Z</time></trkpt><trkpt lat="40.1014993" lon="8.5726108"><ele>512.75</ele><time>2026-05-02T12:39:44.492Z</time></trkpt><trkpt lat="40.1013967" lon="8.5725551"><ele>513.5</ele><time>2026-05-02T12:39:45.492Z</time></trkpt><trkpt lat="40.1012925" lon="8.5725323"><ele>514.25</ele><time>2026-05-02T12:39:46.492Z</time></trkpt><trkpt lat="40.1011827" lon="8.5725011"><ele>515.0</ele><time>2026-05-02T12:39:47.491Z</time></trkpt><trkpt lat="40.1010408" lon="8.5725308"><ele>515.0</ele><time>2026-05-02T12:39:48.493Z</time></trkpt><trkpt lat="40.1009029" lon="8.5725196"><ele>515.0</ele><time>2026-05-02T12:39:49.492Z</time></trkpt><trkpt lat="40.1007604" lon="8.5724818"><ele>515.0</ele><time>2026-05-02T12:39:50.491Z</time></trkpt><trkpt lat="40.1006181" lon="8.5724284"><ele>515.0</ele><time>2026-05-02T12:39:51.492Z</time></trkpt><trkpt lat="40.1004684" lon="8.5723816"><ele>516.5</ele><time>2026-05-02T12:39:52.492Z</time></trkpt><trkpt lat="40.1003432" lon="8.5723471"><ele>518.0</ele><time>2026-05-02T12:39:53.492Z</time></trkpt><trkpt lat="40.1002296" lon="8.5722885"><ele>519.5</ele><time>2026-05-02T12:39:54.492Z</time></trkpt><trkpt lat="40.1001152" lon="8.5722391"><ele>521.0</ele><time>2026-05-02T12:39:55.492Z</time></trkpt><trkpt lat="40.1000231" lon="8.5722314"><ele>521.75</ele><time>2026-05-02T12:39:56.493Z</time></trkpt><trkpt lat="40.0999052" lon="8.5722375"><ele>522.5</ele><time>2026-05-02T12:39:57.493Z</time></trkpt><trkpt lat="40.0997739" lon="8.5722368"><ele>523.25</ele><time>2026-05-02T12:39:58.494Z</time></trkpt><trkpt lat="40.0996239" lon="8.5722259"><ele>524.0</ele><time>2026-05-02T12:39:59.492Z</time></trkpt><trkpt lat="40.0994625" lon="8.5722017"><ele>524.0</ele><time>2026-05-02T12:40:00.491Z</time></trkpt><trkpt lat="40.0993105" lon="8.5721814"><ele>524.0</ele><time>2026-05-02T12:40:01.492Z</time></trkpt><trkpt lat="40.0991662" lon="8.5721617"><ele>524.0</ele><time>2026-05-02T12:40:02.491Z</time></trkpt><trkpt lat="40.0990109" lon="8.5721396"><ele>527.75</ele><time>2026-05-02T12:40:03.491Z</time></trkpt><trkpt lat="40.0988693" lon="8.5721219"><ele>531.5</ele><time>2026-05-02T12:40:04.493Z</time></trkpt><trkpt lat="40.0987511" lon="8.572088"><ele>535.25</ele><time>2026-05-02T12:40:05.493Z</time></trkpt><trkpt lat="40.0986307" lon="8.5720228"><ele>539.0</ele><time>2026-05-02T12:40:06.492Z</time></trkpt><trkpt lat="40.0985299" lon="8.571968"><ele>533.5</ele><time>2026-05-02T12:40:07.492Z</time></trkpt><trkpt lat="40.0984356" lon="8.5719283"><ele>528.0</ele><time>2026-05-02T12:40:08.492Z</time></trkpt><trkpt lat="40.0983335" lon="8.5718859"><ele>522.5</ele><time>2026-05-02T12:40:09.493Z</time></trkpt><trkpt lat="40.0981972" lon="8.5718814"><ele>517.0</ele><time>2026-05-02T12:40:10.492Z</time></trkpt><trkpt lat="40.0980815" lon="8.5718576"><ele>517.0</ele><time>2026-05-02T12:40:11.491Z</time></trkpt><trkpt lat="40.0979279" lon="8.5718205"><ele>517.0</ele><time>2026-05-02T12:40:12.491Z</time></trkpt><trkpt lat="40.0977804" lon="8.571774"><ele>517.0</ele><time>2026-05-02T12:40:13.493Z</time></trkpt><trkpt lat="40.0976344" lon="8.5717371"><ele>517.0</ele><time>2026-05-02T12:40:14.493Z</time></trkpt><trkpt lat="40.0974977" lon="8.571706"><ele>517.0</ele><time>2026-05-02T12:40:15.493Z</time></trkpt><trkpt lat="40.0973578" lon="8.5716692"><ele>517.0</ele><time>2026-05-02T12:40:16.491Z</time></trkpt><trkpt lat="40.0972267" lon="8.5716331"><ele>517.0</ele><time>2026-05-02T12:40:17.491Z</time></trkpt><trkpt lat="40.0971074" lon="8.5715802"><ele>520.5</ele><time>2026-05-02T12:40:18.492Z</time></trkpt><trkpt lat="40.0969842" lon="8.5715261"><ele>524.0</ele><time>2026-05-02T12:40:19.492Z</time></trkpt><trkpt lat="40.0968561" lon="8.5714739"><ele>527.5</ele><time>2026-05-02T12:40:20.492Z</time></trkpt><trkpt lat="40.0967298" lon="8.5714296"><ele>531.0</ele><time>2026-05-02T12:40:21.491Z</time></trkpt><trkpt lat="40.096599" lon="8.5713913"><ele>534.0</ele><time>2026-05-02T12:40:22.491Z</time></trkpt><trkpt lat="40.0964718" lon="8.5713512"><ele>537.0</ele><time>2026-05-02T12:40:23.491Z</time></trkpt><trkpt lat="40.0963619" lon="8.5713258"><ele>540.0</ele><time>2026-05-02T12:40:24.491Z</time></trkpt><trkpt lat="40.0962517" lon="8.5713259"><ele>543.0</ele><time>2026-05-02T12:40:25.492Z</time></trkpt><trkpt lat="40.0961306" lon="8.5713386"><ele>543.0</ele><time>2026-05-02T12:40:26.492Z</time></trkpt><trkpt lat="40.0960143" lon="8.5713615"><ele>543.0</ele><time>2026-05-02T12:40:27.492Z</time></trkpt><trkpt lat="40.0959025" lon="8.5713752"><ele>543.0</ele><time>2026-05-02T12:40:28.492Z</time></trkpt><trkpt lat="40.0957944" lon="8.5713909"><ele>543.0</ele><time>2026-05-02T12:40:29.492Z</time></trkpt><trkpt lat="40.0956806" lon="8.5714144"><ele>542.4</ele><time>2026-05-02T12:40:30.491Z</time></trkpt><trkpt lat="40.0955657" lon="8.5714533"><ele>541.8</ele><time>2026-05-02T12:40:31.492Z</time></trkpt><trkpt lat="40.0954636" lon="8.571488"><ele>541.2</ele><time>2026-05-02T12:40:32.492Z</time></trkpt><trkpt lat="40.0953523" lon="8.5715086"><ele>540.6</ele><time>2026-05-02T12:40:33.491Z</time></trkpt><trkpt lat="40.0952445" lon="8.5715325"><ele>540.0</ele><time>2026-05-02T12:40:34.492Z</time></trkpt><trkpt lat="40.0951594" lon="8.5715417"><ele>540.0</ele><time>2026-05-02T12:40:35.493Z</time></trkpt><trkpt lat="40.0950788" lon="8.5715551"><ele>540.0</ele><time>2026-05-02T12:40:36.492Z</time></trkpt><trkpt lat="40.0949858" lon="8.5715543"><ele>540.0</ele><time>2026-05-02T12:40:37.491Z</time></trkpt><trkpt lat="40.0948792" lon="8.5715561"><ele>540.0</ele><time>2026-05-02T12:40:38.491Z</time></trkpt><trkpt lat="40.0947528" lon="8.5715323"><ele>540.0</ele><time>2026-05-02T12:40:39.491Z</time></trkpt><trkpt lat="40.0946325" lon="8.5715077"><ele>541.6666666666666</ele><time>2026-05-02T12:40:40.492Z</time></trkpt><trkpt lat="40.0945239" lon="8.5714818"><ele>543.3333333333334</ele><time>2026-05-02T12:40:41.492Z</time></trkpt><trkpt lat="40.0944367" lon="8.5714486"><ele>545.0</ele><time>2026-05-02T12:40:42.492Z</time></trkpt><trkpt lat="40.094368" lon="8.5714092"><ele>546.6666666666667</ele><time>2026-05-02T12:40:43.492Z</time></trkpt><trkpt lat="40.0942951" lon="8.5713735"><ele>548.3333333333334</ele><time>2026-05-02T12:40:44.491Z</time></trkpt><trkpt lat="40.0942043" lon="8.5713499"><ele>550.0</ele><time>2026-05-02T12:40:45.493Z</time></trkpt><trkpt lat="40.0941191" lon="8.5713261"><ele>551.2</ele><time>2026-05-02T12:40:46.492Z</time></trkpt><trkpt lat="40.094027" lon="8.571301"><ele>552.4</ele><time>2026-05-02T12:40:47.492Z</time></trkpt><trkpt lat="40.0939362" lon="8.5713231"><ele>553.6</ele><time>2026-05-02T12:40:48.493Z</time></trkpt><trkpt lat="40.0938413" lon="8.5713537"><ele>554.8</ele><time>2026-05-02T12:40:49.493Z</time></trkpt><trkpt lat="40.0937342" lon="8.571378"><ele>556.0</ele><time>2026-05-02T12:40:50.492Z</time></trkpt><trkpt lat="40.0936325" lon="8.5713898"><ele>556.0</ele><time>2026-05-02T12:40:51.492Z</time></trkpt><trkpt lat="40.0935345" lon="8.5714054"><ele>556.0</ele><time>2026-05-02T12:40:52.492Z</time></trkpt><trkpt lat="40.0934138" lon="8.5714088"><ele>556.0</ele><time>2026-05-02T12:40:53.492Z</time></trkpt><trkpt lat="40.0932907" lon="8.5714135"><ele>556.0</ele><time>2026-05-02T12:40:54.492Z</time></trkpt><trkpt lat="40.0931693" lon="8.5714164"><ele>554.8</ele><time>2026-05-02T12:40:55.492Z</time></trkpt><trkpt lat="40.0930431" lon="8.5714116"><ele>553.6</ele><time>2026-05-02T12:40:56.493Z</time></trkpt><trkpt lat="40.0929255" lon="8.5714094"><ele>552.4</ele><time>2026-05-02T12:40:57.491Z</time></trkpt><trkpt lat="40.092815" lon="8.5714089"><ele>551.2</ele><time>2026-05-02T12:40:58.492Z</time></trkpt><trkpt lat="40.09272" lon="8.5714087"><ele>550.0</ele><time>2026-05-02T12:40:59.491Z</time></trkpt><trkpt lat="40.0926333" lon="8.5713992"><ele>550.0</ele><time>2026-05-02T12:41:00.493Z</time></trkpt><trkpt lat="40.0925574" lon="8.5713663"><ele>550.0</ele><time>2026-05-02T12:41:01.492Z</time></trkpt><trkpt lat="40.0924957" lon="8.5713215"><ele>550.0</ele><time>2026-05-02T12:41:02.493Z</time></trkpt><trkpt lat="40.0924429" lon="8.5712584"><ele>550.0</ele><time>2026-05-02T12:41:03.493Z</time></trkpt><trkpt lat="40.0923807" lon="8.5711691"><ele>550.0</ele><time>2026-05-02T12:41:04.491Z</time></trkpt><trkpt lat="40.0923099" lon="8.5710759"><ele>550.0</ele><time>2026-05-02T12:41:05.491Z</time></trkpt><trkpt lat="40.0922098" lon="8.5709811"><ele>548.0</ele><time>2026-05-02T12:41:06.492Z</time></trkpt><trkpt lat="40.0920942" lon="8.5708897"><ele>546.0</ele><time>2026-05-02T12:41:07.493Z</time></trkpt><trkpt lat="40.0919825" lon="8.5708266"><ele>544.0</ele><time>2026-05-02T12:41:08.491Z</time></trkpt><trkpt lat="40.091852" lon="8.5707733"><ele>542.0</ele><time>2026-05-02T12:41:09.493Z</time></trkpt><trkpt lat="40.0917339" lon="8.5707122"><ele>542.0</ele><time>2026-05-02T12:41:10.491Z</time></trkpt><trkpt lat="40.0916318" lon="8.5706622"><ele>542.0</ele><time>2026-05-02T12:41:11.491Z</time></trkpt><trkpt lat="40.0915384" lon="8.5706367"><ele>542.0</ele><time>2026-05-02T12:41:12.492Z</time></trkpt><trkpt lat="40.0914323" lon="8.570635"><ele>542.0</ele><time>2026-05-02T12:41:13.492Z</time></trkpt><trkpt lat="40.0913169" lon="8.5706554"><ele>542.0</ele><time>2026-05-02T12:41:14.491Z</time></trkpt><trkpt lat="40.0912016" lon="8.5707023"><ele>544.75</ele><time>2026-05-02T12:41:15.493Z</time></trkpt><trkpt lat="40.0910816" lon="8.5707708"><ele>547.5</ele><time>2026-05-02T12:41:16.492Z</time></trkpt><trkpt lat="40.0909564" lon="8.5708499"><ele>550.25</ele><time>2026-05-02T12:41:17.492Z</time></trkpt><trkpt lat="40.090824" lon="8.5709272"><ele>553.0</ele><time>2026-05-02T12:41:18.492Z</time></trkpt><trkpt lat="40.0906921" lon="8.5709939"><ele>555.25</ele><time>2026-05-02T12:41:19.493Z</time></trkpt><trkpt lat="40.0905589" lon="8.5710433"><ele>557.5</ele><time>2026-05-02T12:41:20.492Z</time></trkpt><trkpt lat="40.0904307" lon="8.5710606"><ele>559.75</ele><time>2026-05-02T12:41:21.492Z</time></trkpt><trkpt lat="40.0902999" lon="8.5710634"><ele>562.0</ele><time>2026-05-02T12:41:22.492Z</time></trkpt><trkpt lat="40.0901722" lon="8.571065"><ele>562.0</ele><time>2026-05-02T12:41:23.491Z</time></trkpt><trkpt lat="40.0900623" lon="8.5710654"><ele>562.0</ele><time>2026-05-02T12:41:24.492Z</time></trkpt><trkpt lat="40.0899776" lon="8.5710677"><ele>562.0</ele><time>2026-05-02T12:41:25.493Z</time></trkpt><trkpt lat="40.0899129" lon="8.5710494"><ele>562.0</ele><time>2026-05-02T12:41:26.491Z</time></trkpt><trkpt lat="40.0898579" lon="8.5710041"><ele>562.0</ele><time>2026-05-02T12:41:27.493Z</time></trkpt><trkpt lat="40.0898114" lon="8.5708522"><ele>563.3333333333334</ele><time>2026-05-02T12:41:29.492Z</time></trkpt><trkpt lat="40.0897792" lon="8.570755"><ele>564.6666666666667</ele><time>2026-05-02T12:41:30.492Z</time></trkpt><trkpt lat="40.0897225" lon="8.5706823"><ele>566.0</ele><time>2026-05-02T12:41:31.492Z</time></trkpt><trkpt lat="40.0896438" lon="8.5706142"><ele>567.3333333333334</ele><time>2026-05-02T12:41:32.491Z</time></trkpt><trkpt lat="40.089556" lon="8.5705543"><ele>568.6666666666666</ele><time>2026-05-02T12:41:33.492Z</time></trkpt><trkpt lat="40.089476" lon="8.570492"><ele>570.0</ele><time>2026-05-02T12:41:34.491Z</time></trkpt><trkpt lat="40.0893943" lon="8.5704287"><ele>570.0</ele><time>2026-05-02T12:41:35.492Z</time></trkpt><trkpt lat="40.089324" lon="8.5703675"><ele>570.0</ele><time>2026-05-02T12:41:36.491Z</time></trkpt><trkpt lat="40.0892484" lon="8.5702948"><ele>570.0</ele><time>2026-05-02T12:41:37.492Z</time></trkpt><trkpt lat="40.0891776" lon="8.5702259"><ele>570.0</ele><time>2026-05-02T12:41:38.492Z</time></trkpt><trkpt lat="40.0891113" lon="8.570124"><ele>570.0</ele><time>2026-05-02T12:41:39.492Z</time></trkpt><trkpt lat="40.0890518" lon="8.5700546"><ele>570.0</ele><time>2026-05-02T12:41:40.491Z</time></trkpt><trkpt lat="40.088981" lon="8.5700006"><ele>569.6</ele><time>2026-05-02T12:41:41.493Z</time></trkpt><trkpt lat="40.0889163" lon="8.5699766"><ele>569.2</ele><time>2026-05-02T12:41:42.492Z</time></trkpt><trkpt lat="40.0888395" lon="8.5699868"><ele>568.8</ele><time>2026-05-02T12:41:43.492Z</time></trkpt><trkpt lat="40.0887416" lon="8.5700121"><ele>568.4</ele><time>2026-05-02T12:41:44.492Z</time></trkpt><trkpt lat="40.088634" lon="8.57003"><ele>568.0</ele><time>2026-05-02T12:41:45.493Z</time></trkpt><trkpt lat="40.0885145" lon="8.5700621"><ele>568.0</ele><time>2026-05-02T12:41:46.492Z</time></trkpt><trkpt lat="40.0883939" lon="8.5701019"><ele>568.0</ele><time>2026-05-02T12:41:47.492Z</time></trkpt><trkpt lat="40.0882822" lon="8.5701661"><ele>568.0</ele><time>2026-05-02T12:41:48.491Z</time></trkpt><trkpt lat="40.0881674" lon="8.5702494"><ele>568.0</ele><time>2026-05-02T12:41:49.492Z</time></trkpt><trkpt lat="40.088058" lon="8.5703373"><ele>567.1999999999999</ele><time>2026-05-02T12:41:50.492Z</time></trkpt><trkpt lat="40.0879732" lon="8.5704276"><ele>566.4</ele><time>2026-05-02T12:41:51.492Z</time></trkpt><trkpt lat="40.0879103" lon="8.5705136"><ele>565.5999999999999</ele><time>2026-05-02T12:41:52.492Z</time></trkpt><trkpt lat="40.0878424" lon="8.5706034"><ele>564.8</ele><time>2026-05-02T12:41:53.493Z</time></trkpt><trkpt lat="40.0877565" lon="8.570669"><ele>564.0</ele><time>2026-05-02T12:41:54.491Z</time></trkpt><trkpt lat="40.0876639" lon="8.570719"><ele>564.0</ele><time>2026-05-02T12:41:55.493Z</time></trkpt><trkpt lat="40.0875629" lon="8.5707579"><ele>564.0</ele><time>2026-05-02T12:41:56.491Z</time></trkpt><trkpt lat="40.0874548" lon="8.5708011"><ele>564.0</ele><time>2026-05-02T12:41:57.492Z</time></trkpt><trkpt lat="40.0873483" lon="8.5708393"><ele>564.0</ele><time>2026-05-02T12:41:58.492Z</time></trkpt><trkpt lat="40.0872462" lon="8.5708581"><ele>564.0</ele><time>2026-05-02T12:41:59.492Z</time></trkpt><trkpt lat="40.0871538" lon="8.5708861"><ele>562.4</ele><time>2026-05-02T12:42:00.492Z</time></trkpt><trkpt lat="40.0870602" lon="8.5709112"><ele>560.8</ele><time>2026-05-02T12:42:01.491Z</time></trkpt><trkpt lat="40.0869565" lon="8.5709288"><ele>559.2</ele><time>2026-05-02T12:42:02.493Z</time></trkpt><trkpt lat="40.0868539" lon="8.5709434"><ele>557.6</ele><time>2026-05-02T12:42:03.492Z</time></trkpt><trkpt lat="40.0867582" lon="8.5709641"><ele>556.0</ele><time>2026-05-02T12:42:04.493Z</time></trkpt><trkpt lat="40.0866479" lon="8.570971"><ele>553.2</ele><time>2026-05-02T12:42:05.491Z</time></trkpt><trkpt lat="40.0865317" lon="8.5709749"><ele>550.4000000000001</ele><time>2026-05-02T12:42:06.491Z</time></trkpt><trkpt lat="40.0864205" lon="8.5709904"><ele>547.6</ele><time>2026-05-02T12:42:07.492Z</time></trkpt><trkpt lat="40.0863153" lon="8.571006"><ele>544.8000000000001</ele><time>2026-05-02T12:42:08.491Z</time></trkpt><trkpt lat="40.0862186" lon="8.571016"><ele>542.0</ele><time>2026-05-02T12:42:09.491Z</time></trkpt><trkpt lat="40.0861247" lon="8.571028"><ele>542.0</ele><time>2026-05-02T12:42:10.493Z</time></trkpt><trkpt lat="40.0860329" lon="8.5710447"><ele>542.0</ele><time>2026-05-02T12:42:11.492Z</time></trkpt><trkpt lat="40.0859447" lon="8.5710589"><ele>542.0</ele><time>2026-05-02T12:42:12.492Z</time></trkpt><trkpt lat="40.0858491" lon="8.5710729"><ele>542.0</ele><time>2026-05-02T12:42:13.493Z</time></trkpt><trkpt lat="40.0857417" lon="8.5710899"><ele>542.0</ele><time>2026-05-02T12:42:14.491Z</time></trkpt><trkpt lat="40.0856354" lon="8.5711116"><ele>539.8000000000001</ele><time>2026-05-02T12:42:15.492Z</time></trkpt><trkpt lat="40.0855319" lon="8.5711328"><ele>537.6</ele><time>2026-05-02T12:42:16.493Z</time></trkpt><trkpt lat="40.0854389" lon="8.5711515"><ele>535.4000000000001</ele><time>2026-05-02T12:42:17.492Z</time></trkpt><trkpt lat="40.0853486" lon="8.5711583"><ele>533.2</ele><time>2026-05-02T12:42:18.493Z</time></trkpt><trkpt lat="40.0852513" lon="8.5711516"><ele>531.0</ele><time>2026-05-02T12:42:19.492Z</time></trkpt><trkpt lat="40.085166" lon="8.5711292"><ele>531.0</ele><time>2026-05-02T12:42:20.492Z</time></trkpt><trkpt lat="40.0850795" lon="8.5710903"><ele>531.0</ele><time>2026-05-02T12:42:21.493Z</time></trkpt><trkpt lat="40.0849968" lon="8.5710399"><ele>531.0</ele><time>2026-05-02T12:42:22.491Z</time></trkpt><trkpt lat="40.0849189" lon="8.5710012"><ele>531.0</ele><time>2026-05-02T12:42:23.492Z</time></trkpt><trkpt lat="40.0848289" lon="8.5709813"><ele>531.0</ele><time>2026-05-02T12:42:24.492Z</time></trkpt><trkpt lat="40.0847246" lon="8.5709707"><ele>528.0</ele><time>2026-05-02T12:42:25.493Z</time></trkpt><trkpt lat="40.0846186" lon="8.5709524"><ele>525.0</ele><time>2026-05-02T12:42:26.492Z</time></trkpt><trkpt lat="40.0845054" lon="8.5709326"><ele>522.0</ele><time>2026-05-02T12:42:27.493Z</time></trkpt><trkpt lat="40.0843899" lon="8.5709043"><ele>519.0</ele><time>2026-05-02T12:42:28.492Z</time></trkpt><trkpt lat="40.0842747" lon="8.5708817"><ele>519.0</ele><time>2026-05-02T12:42:29.491Z</time></trkpt><trkpt lat="40.0841664" lon="8.5708552"><ele>519.0</ele><time>2026-05-02T12:42:30.492Z</time></trkpt><trkpt lat="40.0840694" lon="8.5708252"><ele>519.0</ele><time>2026-05-02T12:42:31.492Z</time></trkpt><trkpt lat="40.0839921" lon="8.5708016"><ele>519.0</ele><time>2026-05-02T12:42:32.493Z</time></trkpt><trkpt lat="40.083895" lon="8.5707717"><ele>519.0</ele><time>2026-05-02T12:42:34.491Z</time></trkpt><trkpt lat="40.0838337" lon="8.5707358"><ele>517.5</ele><time>2026-05-02T12:42:37.491Z</time></trkpt><trkpt lat="40.0838442" lon="8.5706354"><ele>516.0</ele><time>2026-05-02T12:43:26.491Z</time></trkpt><trkpt lat="40.0838508" lon="8.5705532"><ele>514.5</ele><time>2026-05-02T12:43:27.49Z</time></trkpt><trkpt lat="40.0838518" lon="8.5704419"><ele>513.0</ele><time>2026-05-02T12:43:28.49Z</time></trkpt><trkpt lat="40.0838402" lon="8.5703178"><ele>511.5</ele><time>2026-05-02T12:43:29.492Z</time></trkpt><trkpt lat="40.0838295" lon="8.5701853"><ele>510.0</ele><time>2026-05-02T12:43:30.492Z</time></trkpt><trkpt lat="40.0838154" lon="8.5700517"><ele>510.0</ele><time>2026-05-02T12:43:31.491Z</time></trkpt><trkpt lat="40.083808" lon="8.5699159"><ele>510.0</ele><time>2026-05-02T12:43:32.49Z</time></trkpt><trkpt lat="40.0838142" lon="8.5697707"><ele>510.0</ele><time>2026-05-02T12:43:33.491Z</time></trkpt><trkpt lat="40.08381" lon="8.5696225"><ele>510.0</ele><time>2026-05-02T12:43:34.491Z</time></trkpt><trkpt lat="40.0837943" lon="8.5694599"><ele>509.0</ele><time>2026-05-02T12:43:35.491Z</time></trkpt><trkpt lat="40.0837802" lon="8.5693031"><ele>508.0</ele><time>2026-05-02T12:43:36.492Z</time></trkpt><trkpt lat="40.0837725" lon="8.5691422"><ele>507.0</ele><time>2026-05-02T12:43:37.491Z</time></trkpt><trkpt lat="40.0837662" lon="8.5689795"><ele>506.0</ele><time>2026-05-02T12:43:38.491Z</time></trkpt><trkpt lat="40.0837411" lon="8.5688108"><ele>506.5</ele><time>2026-05-02T12:43:39.49Z</time></trkpt><trkpt lat="40.0837081" lon="8.568639"><ele>507.0</ele><time>2026-05-02T12:43:40.492Z</time></trkpt><trkpt lat="40.0836766" lon="8.5684701"><ele>507.5</ele><time>2026-05-02T12:43:41.491Z</time></trkpt><trkpt lat="40.083655" lon="8.5683026"><ele>508.0</ele><time>2026-05-02T12:43:42.49Z</time></trkpt><trkpt lat="40.0836447" lon="8.5681481"><ele>508.0</ele><time>2026-05-02T12:43:43.491Z</time></trkpt><trkpt lat="40.083645" lon="8.5679915"><ele>507.99999999999994</ele><time>2026-05-02T12:43:44.491Z</time></trkpt><trkpt lat="40.083658" lon="8.5678382"><ele>507.99999999999994</ele><time>2026-05-02T12:43:45.492Z</time></trkpt><trkpt lat="40.0836788" lon="8.5677046"><ele>508.0</ele><time>2026-05-02T12:43:46.491Z</time></trkpt><trkpt lat="40.0836947" lon="8.567587"><ele>508.0</ele><time>2026-05-02T12:43:47.492Z</time></trkpt><trkpt lat="40.083692" lon="8.5674687"><ele>507.79999999999995</ele><time>2026-05-02T12:43:48.491Z</time></trkpt><trkpt lat="40.0836636" lon="8.5673479"><ele>507.59999999999997</ele><time>2026-05-02T12:43:49.491Z</time></trkpt><trkpt lat="40.0836484" lon="8.5672287"><ele>507.40000000000003</ele><time>2026-05-02T12:43:50.491Z</time></trkpt><trkpt lat="40.0836361" lon="8.5670937"><ele>507.20000000000005</ele><time>2026-05-02T12:43:51.492Z</time></trkpt><trkpt lat="40.0836436" lon="8.5669297"><ele>507.0</ele><time>2026-05-02T12:43:52.491Z</time></trkpt><trkpt lat="40.0836348" lon="8.5667585"><ele>507.0</ele><time>2026-05-02T12:43:53.492Z</time></trkpt><trkpt lat="40.0836286" lon="8.5666025"><ele>507.00000000000006</ele><time>2026-05-02T12:43:54.492Z</time></trkpt><trkpt lat="40.0836161" lon="8.5664588"><ele>507.00000000000006</ele><time>2026-05-02T12:43:55.492Z</time></trkpt><trkpt lat="40.0835833" lon="8.5663187"><ele>507.0</ele><time>2026-05-02T12:43:56.491Z</time></trkpt><trkpt lat="40.0835596" lon="8.5662029"><ele>507.0</ele><time>2026-05-02T12:43:57.491Z</time></trkpt><trkpt lat="40.0835398" lon="8.5660964"><ele>506.1666666666667</ele><time>2026-05-02T12:43:58.491Z</time></trkpt><trkpt lat="40.0835312" lon="8.5659873"><ele>505.33333333333337</ele><time>2026-05-02T12:43:59.491Z</time></trkpt><trkpt lat="40.0835326" lon="8.5658651"><ele>504.5</ele><time>2026-05-02T12:44:00.491Z</time></trkpt><trkpt lat="40.0835187" lon="8.5657508"><ele>503.6666666666667</ele><time>2026-05-02T12:44:01.49Z</time></trkpt><trkpt lat="40.0835007" lon="8.5656289"><ele>502.83333333333337</ele><time>2026-05-02T12:44:02.492Z</time></trkpt><trkpt lat="40.0834924" lon="8.5655172"><ele>502.0</ele><time>2026-05-02T12:44:03.491Z</time></trkpt><trkpt lat="40.0834795" lon="8.5654107"><ele>500.6</ele><time>2026-05-02T12:44:04.49Z</time></trkpt><trkpt lat="40.0834661" lon="8.5653124"><ele>499.20000000000005</ele><time>2026-05-02T12:44:05.491Z</time></trkpt><trkpt lat="40.0834303" lon="8.565235"><ele>497.8</ele><time>2026-05-02T12:44:06.49Z</time></trkpt><trkpt lat="40.0833241" lon="8.5651779"><ele>496.4</ele><time>2026-05-02T12:44:08.491Z</time></trkpt><trkpt lat="40.0832291" lon="8.5651676"><ele>495.0</ele><time>2026-05-02T12:44:09.49Z</time></trkpt><trkpt lat="40.0831306" lon="8.5651428"><ele>494.1666666666667</ele><time>2026-05-02T12:44:10.491Z</time></trkpt><trkpt lat="40.0830373" lon="8.5651077"><ele>493.33333333333337</ele><time>2026-05-02T12:44:11.491Z</time></trkpt><trkpt lat="40.0829671" lon="8.5650745"><ele>492.5</ele><time>2026-05-02T12:44:12.492Z</time></trkpt><trkpt lat="40.0829141" lon="8.5650246"><ele>491.6666666666667</ele><time>2026-05-02T12:44:13.491Z</time></trkpt><trkpt lat="40.0828506" lon="8.5649663"><ele>490.83333333333337</ele><time>2026-05-02T12:44:14.492Z</time></trkpt><trkpt lat="40.0827932" lon="8.5648932"><ele>490.0</ele><time>2026-05-02T12:44:15.492Z</time></trkpt><trkpt lat="40.0827318" lon="8.5648708"><ele>490.0</ele><time>2026-05-02T12:44:16.491Z</time></trkpt><trkpt lat="40.0825956" lon="8.5649058"><ele>490.0</ele><time>2026-05-02T12:44:18.49Z</time></trkpt><trkpt lat="40.0825199" lon="8.5649474"><ele>490.0</ele><time>2026-05-02T12:44:19.491Z</time></trkpt><trkpt lat="40.0824008" lon="8.5650101"><ele>490.0</ele><time>2026-05-02T12:44:20.491Z</time></trkpt><trkpt lat="40.0822931" lon="8.5650653"><ele>488.2</ele><time>2026-05-02T12:44:21.491Z</time></trkpt><trkpt lat="40.0821903" lon="8.5651234"><ele>486.4</ele><time>2026-05-02T12:44:22.49Z</time></trkpt><trkpt lat="40.0821008" lon="8.5651723"><ele>484.6</ele><time>2026-05-02T12:44:23.491Z</time></trkpt><trkpt lat="40.0820205" lon="8.5652451"><ele>482.8</ele><time>2026-05-02T12:44:24.492Z</time></trkpt><trkpt lat="40.0819396" lon="8.5653398"><ele>481.0</ele><time>2026-05-02T12:44:25.491Z</time></trkpt><trkpt lat="40.0818614" lon="8.5654547"><ele>480.8</ele><time>2026-05-02T12:44:26.492Z</time></trkpt><trkpt lat="40.0817878" lon="8.5655527"><ele>480.6</ele><time>2026-05-02T12:44:27.492Z</time></trkpt><trkpt lat="40.0817119" lon="8.5656286"><ele>480.4</ele><time>2026-05-02T12:44:28.492Z</time></trkpt><trkpt lat="40.0816241" lon="8.5657065"><ele>480.2</ele><time>2026-05-02T12:44:29.491Z</time></trkpt><trkpt lat="40.0815244" lon="8.5657599"><ele>480.0</ele><time>2026-05-02T12:44:30.491Z</time></trkpt><trkpt lat="40.0814355" lon="8.5658232"><ele>478.3333333333333</ele><time>2026-05-02T12:44:31.49Z</time></trkpt><trkpt lat="40.0813637" lon="8.5658781"><ele>476.66666666666663</ele><time>2026-05-02T12:44:32.492Z</time></trkpt><trkpt lat="40.0812883" lon="8.5659161"><ele>475.0</ele><time>2026-05-02T12:44:33.491Z</time></trkpt><trkpt lat="40.0812232" lon="8.5659502"><ele>473.3333333333333</ele><time>2026-05-02T12:44:34.492Z</time></trkpt><trkpt lat="40.0811678" lon="8.5660037"><ele>471.66666666666663</ele><time>2026-05-02T12:44:35.491Z</time></trkpt><trkpt lat="40.0811333" lon="8.566088"><ele>470.0</ele><time>2026-05-02T12:44:36.491Z</time></trkpt><trkpt lat="40.0810903" lon="8.5661935"><ele>469.2</ele><time>2026-05-02T12:44:37.49Z</time></trkpt><trkpt lat="40.0810277" lon="8.5662974"><ele>468.4</ele><time>2026-05-02T12:44:38.491Z</time></trkpt><trkpt lat="40.0809728" lon="8.5663882"><ele>467.6</ele><time>2026-05-02T12:44:39.491Z</time></trkpt><trkpt lat="40.0809204" lon="8.5664855"><ele>466.8</ele><time>2026-05-02T12:44:40.492Z</time></trkpt><trkpt lat="40.0808913" lon="8.5665903"><ele>466.0</ele><time>2026-05-02T12:44:41.491Z</time></trkpt><trkpt lat="40.0808692" lon="8.5667223"><ele>466.0</ele><time>2026-05-02T12:44:42.49Z</time></trkpt><trkpt lat="40.0808455" lon="8.5668673"><ele>466.0</ele><time>2026-05-02T12:44:43.491Z</time></trkpt><trkpt lat="40.0808075" lon="8.5669949"><ele>466.0</ele><time>2026-05-02T12:44:44.491Z</time></trkpt><trkpt lat="40.0807458" lon="8.5671371"><ele>466.0</ele><time>2026-05-02T12:44:45.491Z</time></trkpt><trkpt lat="40.0806786" lon="8.5672919"><ele>464.0</ele><time>2026-05-02T12:44:46.492Z</time></trkpt><trkpt lat="40.0806238" lon="8.567433"><ele>462.0</ele><time>2026-05-02T12:44:47.492Z</time></trkpt><trkpt lat="40.0805528" lon="8.5675625"><ele>460.0</ele><time>2026-05-02T12:44:48.49Z</time></trkpt><trkpt lat="40.0804663" lon="8.5676911"><ele>458.0</ele><time>2026-05-02T12:44:49.491Z</time></trkpt><trkpt lat="40.0803715" lon="8.5678139"><ele>459.25</ele><time>2026-05-02T12:44:50.492Z</time></trkpt><trkpt lat="40.0802842" lon="8.5679386"><ele>460.5</ele><time>2026-05-02T12:44:51.491Z</time></trkpt><trkpt lat="40.0802049" lon="8.5680486"><ele>461.75</ele><time>2026-05-02T12:44:52.491Z</time></trkpt><trkpt lat="40.0801193" lon="8.5681474"><ele>463.0</ele><time>2026-05-02T12:44:53.49Z</time></trkpt><trkpt lat="40.0800217" lon="8.5682772"><ele>463.0</ele><time>2026-05-02T12:44:54.49Z</time></trkpt><trkpt lat="40.0799358" lon="8.5683954"><ele>463.0</ele><time>2026-05-02T12:44:55.49Z</time></trkpt><trkpt lat="40.0798459" lon="8.5684918"><ele>463.0</ele><time>2026-05-02T12:44:56.491Z</time></trkpt><trkpt lat="40.0797644" lon="8.5686094"><ele>463.0</ele><time>2026-05-02T12:44:57.49Z</time></trkpt><trkpt lat="40.0796914" lon="8.5687434"><ele>461.0</ele><time>2026-05-02T12:44:58.491Z</time></trkpt><trkpt lat="40.0796274" lon="8.5688945"><ele>459.0</ele><time>2026-05-02T12:44:59.491Z</time></trkpt><trkpt lat="40.079568" lon="8.5690529"><ele>457.0</ele><time>2026-05-02T12:45:00.491Z</time></trkpt><trkpt lat="40.0795191" lon="8.5692177"><ele>455.0</ele><time>2026-05-02T12:45:01.49Z</time></trkpt><trkpt lat="40.0794826" lon="8.5693625"><ele>455.0</ele><time>2026-05-02T12:45:02.492Z</time></trkpt><trkpt lat="40.0794648" lon="8.5694867"><ele>455.0</ele><time>2026-05-02T12:45:03.492Z</time></trkpt><trkpt lat="40.0794678" lon="8.5696266"><ele>455.0</ele><time>2026-05-02T12:45:04.49Z</time></trkpt><trkpt lat="40.0794823" lon="8.5697584"><ele>455.0</ele><time>2026-05-02T12:45:05.491Z</time></trkpt><trkpt lat="40.079499" lon="8.5698524"><ele>455.0</ele><time>2026-05-02T12:45:06.49Z</time></trkpt><trkpt lat="40.0794438" lon="8.5699899"><ele>454.4</ele><time>2026-05-02T12:45:08.491Z</time></trkpt><trkpt lat="40.0793891" lon="8.5700468"><ele>453.8</ele><time>2026-05-02T12:45:09.49Z</time></trkpt><trkpt lat="40.079331" lon="8.5701785"><ele>453.20000000000005</ele><time>2026-05-02T12:45:11.491Z</time></trkpt><trkpt lat="40.079324" lon="8.5702926"><ele>452.6</ele><time>2026-05-02T12:45:12.492Z</time></trkpt><trkpt lat="40.0793215" lon="8.5704321"><ele>452.0</ele><time>2026-05-02T12:45:13.491Z</time></trkpt><trkpt lat="40.0793082" lon="8.5705649"><ele>451.40000000000003</ele><time>2026-05-02T12:45:14.491Z</time></trkpt><trkpt lat="40.0792821" lon="8.5706987"><ele>450.80000000000007</ele><time>2026-05-02T12:45:15.491Z</time></trkpt><trkpt lat="40.0792503" lon="8.5708022"><ele>450.2</ele><time>2026-05-02T12:45:16.491Z</time></trkpt><trkpt lat="40.0792394" lon="8.5709125"><ele>449.6</ele><time>2026-05-02T12:45:17.491Z</time></trkpt><trkpt lat="40.0792439" lon="8.5710461"><ele>449.0</ele><time>2026-05-02T12:45:18.492Z</time></trkpt><trkpt lat="40.0792431" lon="8.5711896"><ele>448.0</ele><time>2026-05-02T12:45:19.49Z</time></trkpt><trkpt lat="40.0792249" lon="8.5713422"><ele>447.0</ele><time>2026-05-02T12:45:20.491Z</time></trkpt><trkpt lat="40.0791976" lon="8.5714904"><ele>446.0</ele><time>2026-05-02T12:45:21.491Z</time></trkpt><trkpt lat="40.0791694" lon="8.5716544"><ele>445.0</ele><time>2026-05-02T12:45:22.491Z</time></trkpt><trkpt lat="40.0791557" lon="8.571814"><ele>445.0</ele><time>2026-05-02T12:45:23.492Z</time></trkpt><trkpt lat="40.0791427" lon="8.5719483"><ele>445.0</ele><time>2026-05-02T12:45:24.492Z</time></trkpt><trkpt lat="40.0791191" lon="8.5720737"><ele>445.0</ele><time>2026-05-02T12:45:25.49Z</time></trkpt><trkpt lat="40.0790732" lon="8.5722206"><ele>445.0</ele><time>2026-05-02T12:45:26.491Z</time></trkpt><trkpt lat="40.0790327" lon="8.5723493"><ele>445.0</ele><time>2026-05-02T12:45:27.491Z</time></trkpt><trkpt lat="40.0790131" lon="8.5724786"><ele>441.4</ele><time>2026-05-02T12:45:28.49Z</time></trkpt><trkpt lat="40.0789894" lon="8.572613"><ele>437.8</ele><time>2026-05-02T12:45:29.491Z</time></trkpt><trkpt lat="40.0789505" lon="8.5727221"><ele>434.20000000000005</ele><time>2026-05-02T12:45:30.49Z</time></trkpt><trkpt lat="40.0789165" lon="8.5727991"><ele>430.6</ele><time>2026-05-02T12:45:31.492Z</time></trkpt><trkpt lat="40.0789088" lon="8.5729608"><ele>427.0</ele><time>2026-05-02T12:45:33.49Z</time></trkpt><trkpt lat="40.0789276" lon="8.573066"><ele>425.6666666666667</ele><time>2026-05-02T12:45:34.491Z</time></trkpt><trkpt lat="40.0789446" lon="8.5731524"><ele>424.33333333333337</ele><time>2026-05-02T12:45:35.49Z</time></trkpt><trkpt lat="40.0789164" lon="8.5732767"><ele>423.0</ele><time>2026-05-02T12:45:37.49Z</time></trkpt><trkpt lat="40.0788619" lon="8.5733468"><ele>421.66666666666663</ele><time>2026-05-02T12:45:38.491Z</time></trkpt><trkpt lat="40.0788182" lon="8.5734259"><ele>420.3333333333333</ele><time>2026-05-02T12:45:39.491Z</time></trkpt><trkpt lat="40.0788053" lon="8.5735104"><ele>419.0</ele><time>2026-05-02T12:45:40.49Z</time></trkpt><trkpt lat="40.0787976" lon="8.5736548"><ele>419.0</ele><time>2026-05-02T12:45:42.491Z</time></trkpt><trkpt lat="40.0787105" lon="8.5737089"><ele>419.0</ele><time>2026-05-02T12:45:45.491Z</time></trkpt><trkpt lat="40.0786125" lon="8.5736643"><ele>419.0</ele><time>2026-05-02T12:45:47.491Z</time></trkpt><trkpt lat="40.0785547" lon="8.5736071"><ele>419.0</ele><time>2026-05-02T12:45:48.49Z</time></trkpt><trkpt lat="40.0784874" lon="8.5735348"><ele>419.0</ele><time>2026-05-02T12:45:49.49Z</time></trkpt><trkpt lat="40.0784121" lon="8.5734558"><ele>419.0</ele><time>2026-05-02T12:45:50.491Z</time></trkpt><trkpt lat="40.0783362" lon="8.5733439"><ele>419.0</ele><time>2026-05-02T12:45:51.492Z</time></trkpt><trkpt lat="40.0782686" lon="8.5732073"><ele>419.0</ele><time>2026-05-02T12:45:52.492Z</time></trkpt><trkpt lat="40.0782063" lon="8.5730447"><ele>419.0</ele><time>2026-05-02T12:45:53.492Z</time></trkpt><trkpt lat="40.0781421" lon="8.5728754"><ele>417.75</ele><time>2026-05-02T12:45:54.491Z</time></trkpt><trkpt lat="40.0780773" lon="8.5726988"><ele>416.5</ele><time>2026-05-02T12:45:55.491Z</time></trkpt><trkpt lat="40.0780103" lon="8.5725254"><ele>415.25</ele><time>2026-05-02T12:45:56.491Z</time></trkpt><trkpt lat="40.077952" lon="8.5723773"><ele>414.0</ele><time>2026-05-02T12:45:57.492Z</time></trkpt><trkpt lat="40.0778909" lon="8.5722261"><ele>414.0</ele><time>2026-05-02T12:45:58.49Z</time></trkpt><trkpt lat="40.077822" lon="8.5720723"><ele>414.0</ele><time>2026-05-02T12:45:59.491Z</time></trkpt><trkpt lat="40.0777491" lon="8.57192"><ele>414.0</ele><time>2026-05-02T12:46:00.491Z</time></trkpt><trkpt lat="40.0776821" lon="8.5717641"><ele>414.0</ele><time>2026-05-02T12:46:01.491Z</time></trkpt><trkpt lat="40.0776258" lon="8.5716065"><ele>415.25</ele><time>2026-05-02T12:46:02.491Z</time></trkpt><trkpt lat="40.0775763" lon="8.571458"><ele>416.5</ele><time>2026-05-02T12:46:03.491Z</time></trkpt><trkpt lat="40.0775196" lon="8.5713109"><ele>417.75</ele><time>2026-05-02T12:46:04.491Z</time></trkpt><trkpt lat="40.0774447" lon="8.5711651"><ele>419.0</ele><time>2026-05-02T12:46:05.491Z</time></trkpt><trkpt lat="40.0773582" lon="8.5710151"><ele>415.0</ele><time>2026-05-02T12:46:06.491Z</time></trkpt><trkpt lat="40.0772614" lon="8.5708634"><ele>411.0</ele><time>2026-05-02T12:46:07.491Z</time></trkpt><trkpt lat="40.0771598" lon="8.5707067"><ele>407.0</ele><time>2026-05-02T12:46:08.491Z</time></trkpt><trkpt lat="40.077054" lon="8.5705483"><ele>407.0</ele><time>2026-05-02T12:46:09.491Z</time></trkpt><trkpt lat="40.0769481" lon="8.5703915"><ele>407.0</ele><time>2026-05-02T12:46:10.491Z</time></trkpt><trkpt lat="40.0768365" lon="8.5702298"><ele>407.0</ele><time>2026-05-02T12:46:11.492Z</time></trkpt><trkpt lat="40.0767239" lon="8.5700597"><ele>407.3333333333333</ele><time>2026-05-02T12:46:12.49Z</time></trkpt><trkpt lat="40.0766146" lon="8.5698847"><ele>407.66666666666663</ele><time>2026-05-02T12:46:13.492Z</time></trkpt><trkpt lat="40.0765026" lon="8.5697142"><ele>408.0</ele><time>2026-05-02T12:46:14.492Z</time></trkpt><trkpt lat="40.0763872" lon="8.569544"><ele>405.66666666666663</ele><time>2026-05-02T12:46:15.492Z</time></trkpt><trkpt lat="40.0762806" lon="8.5693792"><ele>403.3333333333333</ele><time>2026-05-02T12:46:16.492Z</time></trkpt><trkpt lat="40.0761759" lon="8.5692224"><ele>401.0</ele><time>2026-05-02T12:46:17.491Z</time></trkpt><trkpt lat="40.0760839" lon="8.5690772"><ele>401.0</ele><time>2026-05-02T12:46:18.491Z</time></trkpt><trkpt lat="40.0760001" lon="8.568929"><ele>401.0</ele><time>2026-05-02T12:46:19.492Z</time></trkpt><trkpt lat="40.0759293" lon="8.5687854"><ele>401.0</ele><time>2026-05-02T12:46:20.491Z</time></trkpt><trkpt lat="40.075879" lon="8.5686458"><ele>401.0</ele><time>2026-05-02T12:46:21.491Z</time></trkpt><trkpt lat="40.0758405" lon="8.5684958"><ele>402.0</ele><time>2026-05-02T12:46:22.491Z</time></trkpt><trkpt lat="40.0758193" lon="8.5683407"><ele>403.0</ele><time>2026-05-02T12:46:23.491Z</time></trkpt><trkpt lat="40.075828" lon="8.5681827"><ele>404.0</ele><time>2026-05-02T12:46:24.492Z</time></trkpt><trkpt lat="40.0758558" lon="8.5680264"><ele>405.0</ele><time>2026-05-02T12:46:25.49Z</time></trkpt><trkpt lat="40.0759073" lon="8.5678732"><ele>405.0</ele><time>2026-05-02T12:46:26.491Z</time></trkpt><trkpt lat="40.0759795" lon="8.5677291"><ele>405.0</ele><time>2026-05-02T12:46:27.491Z</time></trkpt><trkpt lat="40.0760624" lon="8.5675918"><ele>405.0</ele><time>2026-05-02T12:46:28.491Z</time></trkpt><trkpt lat="40.0761382" lon="8.5674504"><ele>405.0</ele><time>2026-05-02T12:46:29.492Z</time></trkpt><trkpt lat="40.0761933" lon="8.5672956"><ele>405.0</ele><time>2026-05-02T12:46:30.491Z</time></trkpt><trkpt lat="40.076224" lon="8.5671476"><ele>405.0</ele><time>2026-05-02T12:46:31.49Z</time></trkpt><trkpt lat="40.0762234" lon="8.5670125"><ele>405.0</ele><time>2026-05-02T12:46:32.49Z</time></trkpt><trkpt lat="40.0762108" lon="8.566865"><ele>405.0</ele><time>2026-05-02T12:46:33.49Z</time></trkpt><trkpt lat="40.0761737" lon="8.5667124"><ele>405.25</ele><time>2026-05-02T12:46:34.49Z</time></trkpt><trkpt lat="40.0761093" lon="8.5665593"><ele>405.5</ele><time>2026-05-02T12:46:35.49Z</time></trkpt><trkpt lat="40.0760268" lon="8.5664053"><ele>405.75</ele><time>2026-05-02T12:46:36.492Z</time></trkpt><trkpt lat="40.0759385" lon="8.5662463"><ele>406.0</ele><time>2026-05-02T12:46:37.491Z</time></trkpt><trkpt lat="40.0758512" lon="8.5660832"><ele>405.0</ele><time>2026-05-02T12:46:38.49Z</time></trkpt><trkpt lat="40.0757617" lon="8.565922"><ele>404.0</ele><time>2026-05-02T12:46:39.492Z</time></trkpt><trkpt lat="40.0756764" lon="8.5657587"><ele>403.0</ele><time>2026-05-02T12:46:40.491Z</time></trkpt><trkpt lat="40.0755838" lon="8.5655996"><ele>403.0</ele><time>2026-05-02T12:46:41.491Z</time></trkpt><trkpt lat="40.0754924" lon="8.5654417"><ele>403.0</ele><time>2026-05-02T12:46:42.491Z</time></trkpt><trkpt lat="40.0754197" lon="8.5652639"><ele>403.0</ele><time>2026-05-02T12:46:43.49Z</time></trkpt><trkpt lat="40.0753553" lon="8.5650721"><ele>404.6666666666667</ele><time>2026-05-02T12:46:44.49Z</time></trkpt><trkpt lat="40.0753105" lon="8.5648742"><ele>406.33333333333337</ele><time>2026-05-02T12:46:45.491Z</time></trkpt><trkpt lat="40.0752939" lon="8.5646629"><ele>408.0</ele><time>2026-05-02T12:46:46.492Z</time></trkpt><trkpt lat="40.0752847" lon="8.5644492"><ele>410.0</ele><time>2026-05-02T12:46:47.492Z</time></trkpt><trkpt lat="40.075266" lon="8.5642272"><ele>412.0</ele><time>2026-05-02T12:46:48.49Z</time></trkpt><trkpt lat="40.0752315" lon="8.5639988"><ele>414.0</ele><time>2026-05-02T12:46:49.49Z</time></trkpt><trkpt lat="40.0751884" lon="8.5637719"><ele>414.66666666666663</ele><time>2026-05-02T12:46:50.492Z</time></trkpt><trkpt lat="40.0751332" lon="8.5635469"><ele>415.3333333333333</ele><time>2026-05-02T12:46:51.49Z</time></trkpt><trkpt lat="40.0750832" lon="8.5633252"><ele>416.0</ele><time>2026-05-02T12:46:52.491Z</time></trkpt><trkpt lat="40.0750531" lon="8.5631122"><ele>416.0</ele><time>2026-05-02T12:46:53.492Z</time></trkpt><trkpt lat="40.0750348" lon="8.5628934"><ele>416.0</ele><time>2026-05-02T12:46:54.491Z</time></trkpt><trkpt lat="40.0750224" lon="8.5626778"><ele>416.0</ele><time>2026-05-02T12:46:55.491Z</time></trkpt><trkpt lat="40.0750139" lon="8.5624709"><ele>418.66666666666663</ele><time>2026-05-02T12:46:56.491Z</time></trkpt><trkpt lat="40.0750138" lon="8.5622733"><ele>421.33333333333337</ele><time>2026-05-02T12:46:57.49Z</time></trkpt><trkpt lat="40.0750156" lon="8.5620681"><ele>424.0</ele><time>2026-05-02T12:46:58.49Z</time></trkpt><trkpt lat="40.0750318" lon="8.5618655"><ele>426.0</ele><time>2026-05-02T12:46:59.491Z</time></trkpt><trkpt lat="40.0750554" lon="8.5616604"><ele>428.0</ele><time>2026-05-02T12:47:00.491Z</time></trkpt><trkpt lat="40.0750759" lon="8.5614457"><ele>430.0</ele><time>2026-05-02T12:47:01.491Z</time></trkpt><trkpt lat="40.0750911" lon="8.5612254"><ele>430.6666666666667</ele><time>2026-05-02T12:47:02.492Z</time></trkpt><trkpt lat="40.0751037" lon="8.5610048"><ele>431.33333333333337</ele><time>2026-05-02T12:47:03.491Z</time></trkpt><trkpt lat="40.0751163" lon="8.5607883"><ele>432.0</ele><time>2026-05-02T12:47:04.49Z</time></trkpt><trkpt lat="40.0751284" lon="8.5606062"><ele>432.0</ele><time>2026-05-02T12:47:05.491Z</time></trkpt><trkpt lat="40.075134" lon="8.5604385"><ele>432.0</ele><time>2026-05-02T12:47:06.49Z</time></trkpt><trkpt lat="40.0751249" lon="8.5602775"><ele>432.0</ele><time>2026-05-02T12:47:07.491Z</time></trkpt><trkpt lat="40.0750984" lon="8.560116"><ele>432.0</ele><time>2026-05-02T12:47:08.492Z</time></trkpt><trkpt lat="40.0750615" lon="8.5599788"><ele>431.5</ele><time>2026-05-02T12:47:09.491Z</time></trkpt><trkpt lat="40.0750042" lon="8.5598304"><ele>431.0</ele><time>2026-05-02T12:47:10.491Z</time></trkpt><trkpt lat="40.0749306" lon="8.5596791"><ele>430.5</ele><time>2026-05-02T12:47:11.491Z</time></trkpt><trkpt lat="40.0748387" lon="8.5595236"><ele>430.0</ele><time>2026-05-02T12:47:12.491Z</time></trkpt><trkpt lat="40.0747449" lon="8.559365"><ele>430.0</ele><time>2026-05-02T12:47:13.492Z</time></trkpt><trkpt lat="40.0746531" lon="8.5592037"><ele>430.0</ele><time>2026-05-02T12:47:14.491Z</time></trkpt><trkpt lat="40.0745656" lon="8.5590402"><ele>430.0</ele><time>2026-05-02T12:47:15.491Z</time></trkpt><trkpt lat="40.0744792" lon="8.5588737"><ele>430.0</ele><time>2026-05-02T12:47:16.49Z</time></trkpt><trkpt lat="40.0743923" lon="8.5587036"><ele>430.0</ele><time>2026-05-02T12:47:17.49Z</time></trkpt><trkpt lat="40.0743084" lon="8.5585202"><ele>430.0</ele><time>2026-05-02T12:47:18.49Z</time></trkpt><trkpt lat="40.0742351" lon="8.5583241"><ele>428.33333333333337</ele><time>2026-05-02T12:47:19.491Z</time></trkpt><trkpt lat="40.0741614" lon="8.5581184"><ele>426.66666666666663</ele><time>2026-05-02T12:47:20.49Z</time></trkpt><trkpt lat="40.0740844" lon="8.5579065"><ele>425.0</ele><time>2026-05-02T12:47:21.491Z</time></trkpt><trkpt lat="40.0740064" lon="8.5576903"><ele>422.66666666666663</ele><time>2026-05-02T12:47:22.491Z</time></trkpt><trkpt lat="40.0739272" lon="8.5574724"><ele>420.33333333333337</ele><time>2026-05-02T12:47:23.491Z</time></trkpt><trkpt lat="40.0738475" lon="8.5572538"><ele>418.0</ele><time>2026-05-02T12:47:24.492Z</time></trkpt><trkpt lat="40.0737681" lon="8.5570328"><ele>416.0</ele><time>2026-05-02T12:47:25.49Z</time></trkpt><trkpt lat="40.0736878" lon="8.5568108"><ele>414.0</ele><time>2026-05-02T12:47:26.491Z</time></trkpt><trkpt lat="40.0736072" lon="8.5565886"><ele>412.0</ele><time>2026-05-02T12:47:27.491Z</time></trkpt><trkpt lat="40.0735289" lon="8.556369"><ele>409.6666666666667</ele><time>2026-05-02T12:47:28.49Z</time></trkpt><trkpt lat="40.0734559" lon="8.556152"><ele>407.33333333333337</ele><time>2026-05-02T12:47:29.492Z</time></trkpt><trkpt lat="40.0733828" lon="8.5559363"><ele>405.0</ele><time>2026-05-02T12:47:30.492Z</time></trkpt><trkpt lat="40.0733093" lon="8.5557229"><ele>406.66666666666663</ele><time>2026-05-02T12:47:31.492Z</time></trkpt><trkpt lat="40.0732366" lon="8.5555094"><ele>408.3333333333333</ele><time>2026-05-02T12:47:32.492Z</time></trkpt><trkpt lat="40.0731637" lon="8.5553003"><ele>410.0</ele><time>2026-05-02T12:47:33.491Z</time></trkpt><trkpt lat="40.0730947" lon="8.5551137"><ele>410.0</ele><time>2026-05-02T12:47:34.491Z</time></trkpt><trkpt lat="40.0730327" lon="8.5549421"><ele>410.0</ele><time>2026-05-02T12:47:35.49Z</time></trkpt><trkpt lat="40.0729779" lon="8.554786"><ele>410.0</ele><time>2026-05-02T12:47:36.492Z</time></trkpt><trkpt lat="40.0729293" lon="8.5546364"><ele>410.0</ele><time>2026-05-02T12:47:37.49Z</time></trkpt><trkpt lat="40.0729041" lon="8.5544847"><ele>408.0</ele><time>2026-05-02T12:47:38.492Z</time></trkpt><trkpt lat="40.072893" lon="8.5543159"><ele>406.0</ele><time>2026-05-02T12:47:39.49Z</time></trkpt><trkpt lat="40.0729033" lon="8.5541457"><ele>404.0</ele><time>2026-05-02T12:47:40.49Z</time></trkpt><trkpt lat="40.072929" lon="8.5539722"><ele>402.0</ele><time>2026-05-02T12:47:41.491Z</time></trkpt><trkpt lat="40.0729639" lon="8.5537972"><ele>400.0</ele><time>2026-05-02T12:47:42.492Z</time></trkpt><trkpt lat="40.0729947" lon="8.553619"><ele>398.0</ele><time>2026-05-02T12:47:43.49Z</time></trkpt><trkpt lat="40.0730236" lon="8.5534525"><ele>396.0</ele><time>2026-05-02T12:47:44.491Z</time></trkpt><trkpt lat="40.0730398" lon="8.5532895"><ele>394.0</ele><time>2026-05-02T12:47:45.49Z</time></trkpt><trkpt lat="40.0730348" lon="8.5531285"><ele>394.0</ele><time>2026-05-02T12:47:46.491Z</time></trkpt><trkpt lat="40.073016" lon="8.5529584"><ele>394.0</ele><time>2026-05-02T12:47:47.491Z</time></trkpt><trkpt lat="40.0729756" lon="8.5527804"><ele>394.0</ele><time>2026-05-02T12:47:48.491Z</time></trkpt><trkpt lat="40.0729244" lon="8.5526062"><ele>394.0</ele><time>2026-05-02T12:47:49.49Z</time></trkpt><trkpt lat="40.0728672" lon="8.5524265"><ele>391.33333333333337</ele><time>2026-05-02T12:47:50.492Z</time></trkpt><trkpt lat="40.0728082" lon="8.5522427"><ele>388.66666666666663</ele><time>2026-05-02T12:47:51.491Z</time></trkpt><trkpt lat="40.0727455" lon="8.5520508"><ele>386.0</ele><time>2026-05-02T12:47:52.491Z</time></trkpt><trkpt lat="40.0726803" lon="8.5518566"><ele>383.66666666666663</ele><time>2026-05-02T12:47:53.491Z</time></trkpt><trkpt lat="40.0726128" lon="8.5516573"><ele>381.3333333333333</ele><time>2026-05-02T12:47:54.491Z</time></trkpt><trkpt lat="40.0725343" lon="8.5514619"><ele>379.0</ele><time>2026-05-02T12:47:55.491Z</time></trkpt><trkpt lat="40.0724521" lon="8.5512733"><ele>377.3333333333333</ele><time>2026-05-02T12:47:56.492Z</time></trkpt><trkpt lat="40.0723656" lon="8.5510875"><ele>375.6666666666667</ele><time>2026-05-02T12:47:57.491Z</time></trkpt><trkpt lat="40.0722764" lon="8.5508999"><ele>374.0</ele><time>2026-05-02T12:47:58.491Z</time></trkpt><trkpt lat="40.0721857" lon="8.5507104"><ele>374.0</ele><time>2026-05-02T12:47:59.491Z</time></trkpt><trkpt lat="40.0720936" lon="8.5505197"><ele>374.0</ele><time>2026-05-02T12:48:00.49Z</time></trkpt><trkpt lat="40.0720047" lon="8.5503284"><ele>374.0</ele><time>2026-05-02T12:48:01.492Z</time></trkpt><trkpt lat="40.0719273" lon="8.5501526"><ele>372.0</ele><time>2026-05-02T12:48:02.491Z</time></trkpt><trkpt lat="40.0718638" lon="8.5499864"><ele>370.0</ele><time>2026-05-02T12:48:03.49Z</time></trkpt><trkpt lat="40.0718153" lon="8.5498262"><ele>368.0</ele><time>2026-05-02T12:48:04.491Z</time></trkpt><trkpt lat="40.0717861" lon="8.5496687"><ele>366.0</ele><time>2026-05-02T12:48:05.491Z</time></trkpt><trkpt lat="40.0717785" lon="8.5495004"><ele>364.25</ele><time>2026-05-02T12:48:06.491Z</time></trkpt><trkpt lat="40.0717895" lon="8.5493438"><ele>362.5</ele><time>2026-05-02T12:48:07.491Z</time></trkpt><trkpt lat="40.0718146" lon="8.5491929"><ele>360.75</ele><time>2026-05-02T12:48:08.492Z</time></trkpt><trkpt lat="40.0718561" lon="8.5490417"><ele>359.0</ele><time>2026-05-02T12:48:09.491Z</time></trkpt><trkpt lat="40.0719052" lon="8.5488938"><ele>359.0</ele><time>2026-05-02T12:48:10.491Z</time></trkpt><trkpt lat="40.0719444" lon="8.548758"><ele>359.0</ele><time>2026-05-02T12:48:11.491Z</time></trkpt><trkpt lat="40.0719687" lon="8.5486221"><ele>359.0</ele><time>2026-05-02T12:48:12.49Z</time></trkpt><trkpt lat="40.0719758" lon="8.5484991"><ele>359.0</ele><time>2026-05-02T12:48:13.492Z</time></trkpt><trkpt lat="40.071968" lon="8.5483857"><ele>359.0</ele><time>2026-05-02T12:48:14.491Z</time></trkpt><trkpt lat="40.0719347" lon="8.5482719"><ele>358.25</ele><time>2026-05-02T12:48:15.49Z</time></trkpt><trkpt lat="40.0718895" lon="8.548148"><ele>357.5</ele><time>2026-05-02T12:48:16.49Z</time></trkpt><trkpt lat="40.0718209" lon="8.5480207"><ele>356.75</ele><time>2026-05-02T12:48:17.49Z</time></trkpt><trkpt lat="40.0717379" lon="8.5479034"><ele>356.0</ele><time>2026-05-02T12:48:18.491Z</time></trkpt><trkpt lat="40.071646" lon="8.5477805"><ele>356.0</ele><time>2026-05-02T12:48:19.49Z</time></trkpt><trkpt lat="40.071546" lon="8.5476544"><ele>356.0</ele><time>2026-05-02T12:48:20.491Z</time></trkpt><trkpt lat="40.0714577" lon="8.5475373"><ele>356.0</ele><time>2026-05-02T12:48:21.49Z</time></trkpt><trkpt lat="40.0713777" lon="8.5474009"><ele>356.0</ele><time>2026-05-02T12:48:22.491Z</time></trkpt><trkpt lat="40.071306" lon="8.5472369"><ele>356.0</ele><time>2026-05-02T12:48:23.491Z</time></trkpt><trkpt lat="40.0712415" lon="8.5470701"><ele>356.0</ele><time>2026-05-02T12:48:24.492Z</time></trkpt><trkpt lat="40.0711858" lon="8.5469135"><ele>356.0</ele><time>2026-05-02T12:48:25.491Z</time></trkpt><trkpt lat="40.0711416" lon="8.5467706"><ele>356.0</ele><time>2026-05-02T12:48:26.491Z</time></trkpt><trkpt lat="40.0711231" lon="8.5466446"><ele>354.5</ele><time>2026-05-02T12:48:27.49Z</time></trkpt><trkpt lat="40.0711316" lon="8.5464985"><ele>353.0</ele><time>2026-05-02T12:48:28.491Z</time></trkpt><trkpt lat="40.0711697" lon="8.5463376"><ele>351.5</ele><time>2026-05-02T12:48:29.49Z</time></trkpt><trkpt lat="40.0712228" lon="8.5461636"><ele>350.0</ele><time>2026-05-02T12:48:30.492Z</time></trkpt><trkpt lat="40.0712658" lon="8.5459799"><ele>347.33333333333337</ele><time>2026-05-02T12:48:31.491Z</time></trkpt><trkpt lat="40.071312" lon="8.545794"><ele>344.6666666666667</ele><time>2026-05-02T12:48:32.491Z</time></trkpt><trkpt lat="40.0713615" lon="8.5456039"><ele>342.0</ele><time>2026-05-02T12:48:33.49Z</time></trkpt><trkpt lat="40.0714036" lon="8.5454089"><ele>339.75</ele><time>2026-05-02T12:48:34.491Z</time></trkpt><trkpt lat="40.0714318" lon="8.5452073"><ele>337.5</ele><time>2026-05-02T12:48:35.491Z</time></trkpt><trkpt lat="40.071439" lon="8.5450147"><ele>335.25</ele><time>2026-05-02T12:48:36.49Z</time></trkpt><trkpt lat="40.0714389" lon="8.5448415"><ele>333.0</ele><time>2026-05-02T12:48:37.491Z</time></trkpt><trkpt lat="40.0714449" lon="8.5446853"><ele>333.0</ele><time>2026-05-02T12:48:38.491Z</time></trkpt><trkpt lat="40.0714565" lon="8.544549"><ele>333.0</ele><time>2026-05-02T12:48:39.49Z</time></trkpt><trkpt lat="40.0714853" lon="8.5444081"><ele>333.0</ele><time>2026-05-02T12:48:40.491Z</time></trkpt><trkpt lat="40.0715376" lon="8.5442584"><ele>333.0</ele><time>2026-05-02T12:48:41.489Z</time></trkpt><trkpt lat="40.0716097" lon="8.5441124"><ele>330.0</ele><time>2026-05-02T12:48:42.489Z</time></trkpt><trkpt lat="40.0717141" lon="8.5439752"><ele>327.0</ele><time>2026-05-02T12:48:43.49Z</time></trkpt><trkpt lat="40.0718321" lon="8.5438495"><ele>324.0</ele><time>2026-05-02T12:48:44.49Z</time></trkpt><trkpt lat="40.0719466" lon="8.5437154"><ele>321.0</ele><time>2026-05-02T12:48:45.49Z</time></trkpt><trkpt lat="40.0720521" lon="8.5435943"><ele>318.0</ele><time>2026-05-02T12:48:46.491Z</time></trkpt><trkpt lat="40.072165" lon="8.5434813"><ele>315.0</ele><time>2026-05-02T12:48:47.489Z</time></trkpt><trkpt lat="40.0722843" lon="8.5433694"><ele>312.0</ele><time>2026-05-02T12:48:48.49Z</time></trkpt><trkpt lat="40.072402" lon="8.5432509"><ele>311.5</ele><time>2026-05-02T12:48:49.49Z</time></trkpt><trkpt lat="40.0725188" lon="8.5431332"><ele>311.0</ele><time>2026-05-02T12:48:50.49Z</time></trkpt><trkpt lat="40.0726333" lon="8.5430163"><ele>310.5</ele><time>2026-05-02T12:48:51.49Z</time></trkpt><trkpt lat="40.0727504" lon="8.5428942"><ele>310.0</ele><time>2026-05-02T12:48:52.49Z</time></trkpt><trkpt lat="40.072873" lon="8.5427754"><ele>307.75</ele><time>2026-05-02T12:48:53.491Z</time></trkpt><trkpt lat="40.0729965" lon="8.5426665"><ele>305.5</ele><time>2026-05-02T12:48:54.491Z</time></trkpt><trkpt lat="40.0731141" lon="8.5425758"><ele>303.25</ele><time>2026-05-02T12:48:55.49Z</time></trkpt><trkpt lat="40.0732324" lon="8.5425017"><ele>301.0</ele><time>2026-05-02T12:48:56.49Z</time></trkpt><trkpt lat="40.0733708" lon="8.5424595"><ele>299.66666666666663</ele><time>2026-05-02T12:48:57.491Z</time></trkpt><trkpt lat="40.0735234" lon="8.5424401"><ele>298.3333333333333</ele><time>2026-05-02T12:48:58.489Z</time></trkpt><trkpt lat="40.073675" lon="8.5424257"><ele>297.0</ele><time>2026-05-02T12:48:59.491Z</time></trkpt><trkpt lat="40.0738213" lon="8.5424192"><ele>297.0</ele><time>2026-05-02T12:49:00.491Z</time></trkpt><trkpt lat="40.0739541" lon="8.5424103"><ele>297.0</ele><time>2026-05-02T12:49:01.491Z</time></trkpt><trkpt lat="40.0740784" lon="8.5423816"><ele>297.0</ele><time>2026-05-02T12:49:02.49Z</time></trkpt><trkpt lat="40.0741835" lon="8.5423228"><ele>297.0</ele><time>2026-05-02T12:49:03.491Z</time></trkpt><trkpt lat="40.0742747" lon="8.5422355"><ele>296.0</ele><time>2026-05-02T12:49:04.49Z</time></trkpt><trkpt lat="40.0743614" lon="8.5421307"><ele>295.0</ele><time>2026-05-02T12:49:05.49Z</time></trkpt><trkpt lat="40.0744354" lon="8.5420145"><ele>294.0</ele><time>2026-05-02T12:49:06.49Z</time></trkpt><trkpt lat="40.0744858" lon="8.5418866"><ele>293.0</ele><time>2026-05-02T12:49:07.491Z</time></trkpt><trkpt lat="40.0745196" lon="8.5417335"><ele>290.25</ele><time>2026-05-02T12:49:08.49Z</time></trkpt><trkpt lat="40.0745322" lon="8.5415662"><ele>287.5</ele><time>2026-05-02T12:49:09.49Z</time></trkpt><trkpt lat="40.0745303" lon="8.541383"><ele>284.75</ele><time>2026-05-02T12:49:10.489Z</time></trkpt><trkpt lat="40.074524" lon="8.5411891"><ele>282.0</ele><time>2026-05-02T12:49:11.491Z</time></trkpt><trkpt lat="40.0745198" lon="8.5410099"><ele>280.4</ele><time>2026-05-02T12:49:12.49Z</time></trkpt><trkpt lat="40.0745162" lon="8.5408404"><ele>278.79999999999995</ele><time>2026-05-02T12:49:13.49Z</time></trkpt><trkpt lat="40.0745138" lon="8.5406861"><ele>277.2</ele><time>2026-05-02T12:49:14.49Z</time></trkpt><trkpt lat="40.0745106" lon="8.5405545"><ele>275.59999999999997</ele><time>2026-05-02T12:49:15.49Z</time></trkpt><trkpt lat="40.0745094" lon="8.5404497"><ele>274.0</ele><time>2026-05-02T12:49:16.49Z</time></trkpt><trkpt lat="40.074509" lon="8.5403658"><ele>271.8</ele><time>2026-05-02T12:49:17.49Z</time></trkpt><trkpt lat="40.0745042" lon="8.5402464"><ele>269.59999999999997</ele><time>2026-05-02T12:49:19.489Z</time></trkpt><trkpt lat="40.0744886" lon="8.540142"><ele>267.4</ele><time>2026-05-02T12:49:39.49Z</time></trkpt><trkpt lat="40.0744604" lon="8.5400204"><ele>265.2</ele><time>2026-05-02T12:49:41.49Z</time></trkpt><trkpt lat="40.0744044" lon="8.5398739"><ele>263.0</ele><time>2026-05-02T12:49:43.49Z</time></trkpt><trkpt lat="40.0743574" lon="8.5397906"><ele>263.0</ele><time>2026-05-02T12:49:44.49Z</time></trkpt><trkpt lat="40.0742996" lon="8.5397067"><ele>263.0</ele><time>2026-05-02T12:49:45.49Z</time></trkpt><trkpt lat="40.0742202" lon="8.5396326"><ele>263.0</ele><time>2026-05-02T12:49:46.489Z</time></trkpt><trkpt lat="40.0741299" lon="8.5395775"><ele>263.0</ele><time>2026-05-02T12:49:47.49Z</time></trkpt><trkpt lat="40.0740286" lon="8.5395445"><ele>263.0</ele><time>2026-05-02T12:49:48.491Z</time></trkpt><trkpt lat="40.0739189" lon="8.5395328"><ele>262.75</ele><time>2026-05-02T12:49:49.49Z</time></trkpt><trkpt lat="40.0737975" lon="8.5395445"><ele>262.5</ele><time>2026-05-02T12:49:50.491Z</time></trkpt><trkpt lat="40.0736684" lon="8.5395632"><ele>262.25</ele><time>2026-05-02T12:49:51.49Z</time></trkpt><trkpt lat="40.0735395" lon="8.5395727"><ele>262.0</ele><time>2026-05-02T12:49:52.491Z</time></trkpt><trkpt lat="40.0734114" lon="8.5395833"><ele>262.0</ele><time>2026-05-02T12:49:53.491Z</time></trkpt><trkpt lat="40.0732971" lon="8.5395995"><ele>262.0</ele><time>2026-05-02T12:49:54.49Z</time></trkpt><trkpt lat="40.0731836" lon="8.5396049"><ele>262.0</ele><time>2026-05-02T12:49:55.49Z</time></trkpt><trkpt lat="40.0730709" lon="8.5396197"><ele>262.0</ele><time>2026-05-02T12:49:56.49Z</time></trkpt><trkpt lat="40.0729562" lon="8.5396472"><ele>262.0</ele><time>2026-05-02T12:49:57.491Z</time></trkpt><trkpt lat="40.072845" lon="8.539675"><ele>262.0</ele><time>2026-05-02T12:49:58.49Z</time></trkpt><trkpt lat="40.072734" lon="8.5397013"><ele>262.0</ele><time>2026-05-02T12:49:59.49Z</time></trkpt><trkpt lat="40.0726216" lon="8.5397235"><ele>262.0</ele><time>2026-05-02T12:50:00.491Z</time></trkpt><trkpt lat="40.0725068" lon="8.5397407"><ele>261.0</ele><time>2026-05-02T12:50:01.49Z</time></trkpt><trkpt lat="40.0723923" lon="8.5397522"><ele>260.0</ele><time>2026-05-02T12:50:02.489Z</time></trkpt><trkpt lat="40.0722754" lon="8.5397576"><ele>259.0</ele><time>2026-05-02T12:50:03.49Z</time></trkpt><trkpt lat="40.0721577" lon="8.5397385"><ele>258.0</ele><time>2026-05-02T12:50:04.489Z</time></trkpt><trkpt lat="40.0720413" lon="8.5397087"><ele>258.0</ele><time>2026-05-02T12:50:05.49Z</time></trkpt><trkpt lat="40.0719281" lon="8.5396681"><ele>258.0</ele><time>2026-05-02T12:50:06.491Z</time></trkpt><trkpt lat="40.0718137" lon="8.5396181"><ele>258.0</ele><time>2026-05-02T12:50:07.491Z</time></trkpt><trkpt lat="40.0716992" lon="8.5395622"><ele>258.0</ele><time>2026-05-02T12:50:08.49Z</time></trkpt><trkpt lat="40.0715851" lon="8.5394989"><ele>253.75</ele><time>2026-05-02T12:50:09.491Z</time></trkpt><trkpt lat="40.0714768" lon="8.5394327"><ele>249.5</ele><time>2026-05-02T12:50:10.49Z</time></trkpt><trkpt lat="40.0713693" lon="8.5393678"><ele>245.25</ele><time>2026-05-02T12:50:11.49Z</time></trkpt><trkpt lat="40.0712619" lon="8.5393037"><ele>241.0</ele><time>2026-05-02T12:50:12.49Z</time></trkpt><trkpt lat="40.0711603" lon="8.5392364"><ele>241.0</ele><time>2026-05-02T12:50:13.491Z</time></trkpt><trkpt lat="40.071062" lon="8.5391605"><ele>241.00000000000003</ele><time>2026-05-02T12:50:14.491Z</time></trkpt><trkpt lat="40.0709669" lon="8.5390804"><ele>241.00000000000003</ele><time>2026-05-02T12:50:15.489Z</time></trkpt><trkpt lat="40.070872" lon="8.539003"><ele>241.0</ele><time>2026-05-02T12:50:16.49Z</time></trkpt><trkpt lat="40.0707864" lon="8.5389201"><ele>241.0</ele><time>2026-05-02T12:50:17.489Z</time></trkpt><trkpt lat="40.0707096" lon="8.5388303"><ele>238.20000000000002</ele><time>2026-05-02T12:50:18.491Z</time></trkpt><trkpt lat="40.0706356" lon="8.5387379"><ele>235.40000000000003</ele><time>2026-05-02T12:50:19.49Z</time></trkpt><trkpt lat="40.0705717" lon="8.5386422"><ele>232.6</ele><time>2026-05-02T12:50:20.49Z</time></trkpt><trkpt lat="40.0705179" lon="8.5385487"><ele>229.8</ele><time>2026-05-02T12:50:21.49Z</time></trkpt><trkpt lat="40.0704573" lon="8.5384468"><ele>227.0</ele><time>2026-05-02T12:50:22.49Z</time></trkpt><trkpt lat="40.0703985" lon="8.5383423"><ele>226.39999999999998</ele><time>2026-05-02T12:50:23.489Z</time></trkpt><trkpt lat="40.0703415" lon="8.5382233"><ele>225.79999999999998</ele><time>2026-05-02T12:50:24.491Z</time></trkpt><trkpt lat="40.0702902" lon="8.5381"><ele>225.2</ele><time>2026-05-02T12:50:25.489Z</time></trkpt><trkpt lat="40.070246" lon="8.5379874"><ele>224.6</ele><time>2026-05-02T12:50:26.491Z</time></trkpt><trkpt lat="40.0701911" lon="8.5378641"><ele>224.0</ele><time>2026-05-02T12:50:27.489Z</time></trkpt><trkpt lat="40.0701456" lon="8.5377433"><ele>223.2</ele><time>2026-05-02T12:50:28.49Z</time></trkpt><trkpt lat="40.0701048" lon="8.5376211"><ele>222.39999999999998</ele><time>2026-05-02T12:50:29.49Z</time></trkpt><trkpt lat="40.0700571" lon="8.5374988"><ele>221.6</ele><time>2026-05-02T12:50:30.489Z</time></trkpt><trkpt lat="40.0700109" lon="8.5373904"><ele>220.8</ele><time>2026-05-02T12:50:31.49Z</time></trkpt><trkpt lat="40.0699623" lon="8.5372964"><ele>220.0</ele><time>2026-05-02T12:50:32.49Z</time></trkpt><trkpt lat="40.0699088" lon="8.5372232"><ele>217.83333333333331</ele><time>2026-05-02T12:50:33.489Z</time></trkpt><trkpt lat="40.0698497" lon="8.5371787"><ele>215.66666666666666</ele><time>2026-05-02T12:50:34.49Z</time></trkpt><trkpt lat="40.069725" lon="8.5371752"><ele>213.5</ele><time>2026-05-02T12:50:36.49Z</time></trkpt><trkpt lat="40.069667" lon="8.5372135"><ele>211.33333333333331</ele><time>2026-05-02T12:50:37.49Z</time></trkpt><trkpt lat="40.0696129" lon="8.5372764"><ele>209.16666666666666</ele><time>2026-05-02T12:50:38.491Z</time></trkpt><trkpt lat="40.0695743" lon="8.5373519"><ele>207.0</ele><time>2026-05-02T12:50:39.49Z</time></trkpt><trkpt lat="40.0695486" lon="8.5374552"><ele>207.0</ele><time>2026-05-02T12:50:40.49Z</time></trkpt><trkpt lat="40.0695458" lon="8.5375728"><ele>207.0</ele><time>2026-05-02T12:50:41.489Z</time></trkpt><trkpt lat="40.0695614" lon="8.5376974"><ele>207.0</ele><time>2026-05-02T12:50:42.491Z</time></trkpt><trkpt lat="40.0695879" lon="8.5378244"><ele>207.0</ele><time>2026-05-02T12:50:43.49Z</time></trkpt><trkpt lat="40.0696088" lon="8.5379578"><ele>207.0</ele><time>2026-05-02T12:50:44.49Z</time></trkpt><trkpt lat="40.0696281" lon="8.5380921"><ele>207.6</ele><time>2026-05-02T12:50:45.49Z</time></trkpt><trkpt lat="40.069645" lon="8.5382284"><ele>208.2</ele><time>2026-05-02T12:50:46.49Z</time></trkpt><trkpt lat="40.0696605" lon="8.5383612"><ele>208.8</ele><time>2026-05-02T12:50:47.489Z</time></trkpt><trkpt lat="40.0696776" lon="8.538497"><ele>209.4</ele><time>2026-05-02T12:50:48.489Z</time></trkpt><trkpt lat="40.0696928" lon="8.5386246"><ele>210.0</ele><time>2026-05-02T12:50:49.489Z</time></trkpt><trkpt lat="40.0697044" lon="8.5387451"><ele>211.33333333333334</ele><time>2026-05-02T12:50:50.49Z</time></trkpt><trkpt lat="40.0697104" lon="8.538857"><ele>212.66666666666669</ele><time>2026-05-02T12:50:51.489Z</time></trkpt><trkpt lat="40.0696932" lon="8.5389529"><ele>214.0</ele><time>2026-05-02T12:50:52.489Z</time></trkpt><trkpt lat="40.0696518" lon="8.5390269"><ele>215.33333333333334</ele><time>2026-05-02T12:50:53.489Z</time></trkpt><trkpt lat="40.0696069" lon="8.5390855"><ele>216.66666666666669</ele><time>2026-05-02T12:50:54.49Z</time></trkpt><trkpt lat="40.0694749" lon="8.5391166"><ele>218.0</ele><time>2026-05-02T12:50:56.489Z</time></trkpt><trkpt lat="40.0693951" lon="8.5390919"><ele>218.00000000000003</ele><time>2026-05-02T12:50:57.489Z</time></trkpt><trkpt lat="40.0693207" lon="8.5390349"><ele>218.0</ele><time>2026-05-02T12:50:58.49Z</time></trkpt><trkpt lat="40.0692594" lon="8.5389567"><ele>218.0</ele><time>2026-05-02T12:50:59.49Z</time></trkpt><trkpt lat="40.0692164" lon="8.538866"><ele>218.0</ele><time>2026-05-02T12:51:00.489Z</time></trkpt><trkpt lat="40.0691714" lon="8.5387663"><ele>218.00000000000003</ele><time>2026-05-02T12:51:01.49Z</time></trkpt><trkpt lat="40.0691206" lon="8.5386615"><ele>218.0</ele><time>2026-05-02T12:51:02.491Z</time></trkpt><trkpt lat="40.069068" lon="8.5385596"><ele>217.8</ele><time>2026-05-02T12:51:03.489Z</time></trkpt><trkpt lat="40.0690123" lon="8.5384562"><ele>217.60000000000002</ele><time>2026-05-02T12:51:04.49Z</time></trkpt><trkpt lat="40.0689583" lon="8.5383542"><ele>217.39999999999998</ele><time>2026-05-02T12:51:05.491Z</time></trkpt><trkpt lat="40.0689012" lon="8.5382555"><ele>217.2</ele><time>2026-05-02T12:51:06.49Z</time></trkpt><trkpt lat="40.0688509" lon="8.5381492"><ele>217.0</ele><time>2026-05-02T12:51:07.491Z</time></trkpt><trkpt lat="40.0687999" lon="8.5380428"><ele>216.99999999999997</ele><time>2026-05-02T12:51:08.49Z</time></trkpt><trkpt lat="40.0687506" lon="8.5379447"><ele>217.0</ele><time>2026-05-02T12:51:09.49Z</time></trkpt><trkpt lat="40.0687012" lon="8.537844"><ele>217.0</ele><time>2026-05-02T12:51:10.489Z</time></trkpt><trkpt lat="40.0686508" lon="8.5377402"><ele>217.0</ele><time>2026-05-02T12:51:11.49Z</time></trkpt><trkpt lat="40.0686049" lon="8.5376471"><ele>216.99999999999997</ele><time>2026-05-02T12:51:12.49Z</time></trkpt><trkpt lat="40.0685651" lon="8.5375489"><ele>217.0</ele><time>2026-05-02T12:51:13.49Z</time></trkpt><trkpt lat="40.06852" lon="8.537459"><ele>215.16666666666666</ele><time>2026-05-02T12:51:14.488Z</time></trkpt><trkpt lat="40.0684734" lon="8.5373706"><ele>213.33333333333331</ele><time>2026-05-02T12:51:15.491Z</time></trkpt><trkpt lat="40.0684314" lon="8.5372749"><ele>211.5</ele><time>2026-05-02T12:51:16.49Z</time></trkpt><trkpt lat="40.068396" lon="8.5371775"><ele>209.66666666666669</ele><time>2026-05-02T12:51:17.49Z</time></trkpt><trkpt lat="40.0683642" lon="8.5370771"><ele>207.83333333333334</ele><time>2026-05-02T12:51:18.49Z</time></trkpt><trkpt lat="40.0683304" lon="8.5369715"><ele>206.0</ele><time>2026-05-02T12:51:19.49Z</time></trkpt><trkpt lat="40.0682888" lon="8.5368704"><ele>206.20000000000002</ele><time>2026-05-02T12:51:20.489Z</time></trkpt><trkpt lat="40.0682483" lon="8.5367752"><ele>206.4</ele><time>2026-05-02T12:51:21.489Z</time></trkpt><trkpt lat="40.0682083" lon="8.5366741"><ele>206.6</ele><time>2026-05-02T12:51:22.49Z</time></trkpt><trkpt lat="40.0681686" lon="8.5365663"><ele>206.8</ele><time>2026-05-02T12:51:23.49Z</time></trkpt><trkpt lat="40.0681258" lon="8.536457"><ele>207.0</ele><time>2026-05-02T12:51:24.49Z</time></trkpt><trkpt lat="40.0680795" lon="8.5363418"><ele>207.0</ele><time>2026-05-02T12:51:25.489Z</time></trkpt><trkpt lat="40.0680342" lon="8.536223"><ele>207.0</ele><time>2026-05-02T12:51:26.49Z</time></trkpt><trkpt lat="40.0679933" lon="8.536086"><ele>207.0</ele><time>2026-05-02T12:51:27.49Z</time></trkpt><trkpt lat="40.0679527" lon="8.5359541"><ele>207.0</ele><time>2026-05-02T12:51:28.489Z</time></trkpt><trkpt lat="40.0679037" lon="8.5358225"><ele>207.0</ele><time>2026-05-02T12:51:29.489Z</time></trkpt><trkpt lat="40.0678519" lon="8.5357025"><ele>206.5</ele><time>2026-05-02T12:51:30.49Z</time></trkpt><trkpt lat="40.0677985" lon="8.5355753"><ele>206.0</ele><time>2026-05-02T12:51:31.489Z</time></trkpt><trkpt lat="40.0677404" lon="8.5354469"><ele>205.5</ele><time>2026-05-02T12:51:32.49Z</time></trkpt><trkpt lat="40.0676759" lon="8.5353155"><ele>205.0</ele><time>2026-05-02T12:51:33.489Z</time></trkpt><trkpt lat="40.0675885" lon="8.5352043"><ele>204.75</ele><time>2026-05-02T12:51:34.491Z</time></trkpt><trkpt lat="40.0674871" lon="8.5351036"><ele>204.5</ele><time>2026-05-02T12:51:35.489Z</time></trkpt><trkpt lat="40.0673645" lon="8.5350241"><ele>204.25</ele><time>2026-05-02T12:51:36.49Z</time></trkpt><trkpt lat="40.0672371" lon="8.5349683"><ele>204.0</ele><time>2026-05-02T12:51:37.489Z</time></trkpt><trkpt lat="40.0671006" lon="8.5349268"><ele>203.75</ele><time>2026-05-02T12:51:38.49Z</time></trkpt><trkpt lat="40.0669575" lon="8.5349084"><ele>203.5</ele><time>2026-05-02T12:51:39.489Z</time></trkpt><trkpt lat="40.0668172" lon="8.5349043"><ele>203.25</ele><time>2026-05-02T12:51:40.49Z</time></trkpt><trkpt lat="40.0666879" lon="8.5348949"><ele>203.0</ele><time>2026-05-02T12:51:41.49Z</time></trkpt><trkpt lat="40.0665668" lon="8.5348862"><ele>200.0</ele><time>2026-05-02T12:51:42.489Z</time></trkpt><trkpt lat="40.0664418" lon="8.5348728"><ele>197.0</ele><time>2026-05-02T12:51:43.49Z</time></trkpt><trkpt lat="40.0663117" lon="8.5348548"><ele>194.0</ele><time>2026-05-02T12:51:44.491Z</time></trkpt><trkpt lat="40.0661885" lon="8.5348242"><ele>191.0</ele><time>2026-05-02T12:51:45.49Z</time></trkpt><trkpt lat="40.0660712" lon="8.534783"><ele>191.0</ele><time>2026-05-02T12:51:46.49Z</time></trkpt><trkpt lat="40.0659618" lon="8.5347143"><ele>191.0</ele><time>2026-05-02T12:51:47.49Z</time></trkpt><trkpt lat="40.0658567" lon="8.5346215"><ele>191.0</ele><time>2026-05-02T12:51:48.49Z</time></trkpt><trkpt lat="40.0657514" lon="8.5345093"><ele>191.0</ele><time>2026-05-02T12:51:49.489Z</time></trkpt><trkpt lat="40.0656478" lon="8.534382"><ele>187.75</ele><time>2026-05-02T12:51:50.49Z</time></trkpt><trkpt lat="40.0655437" lon="8.5342493"><ele>184.5</ele><time>2026-05-02T12:51:51.491Z</time></trkpt><trkpt lat="40.0654378" lon="8.5341166"><ele>181.25</ele><time>2026-05-02T12:51:52.491Z</time></trkpt><trkpt lat="40.0653337" lon="8.5339803"><ele>178.0</ele><time>2026-05-02T12:51:53.49Z</time></trkpt><trkpt lat="40.0652286" lon="8.5338466"><ele>179.0</ele><time>2026-05-02T12:51:54.49Z</time></trkpt><trkpt lat="40.0651205" lon="8.5337139"><ele>180.0</ele><time>2026-05-02T12:51:55.489Z</time></trkpt><trkpt lat="40.0650155" lon="8.5335829"><ele>181.0</ele><time>2026-05-02T12:51:56.49Z</time></trkpt><trkpt lat="40.0649113" lon="8.5334486"><ele>182.0</ele><time>2026-05-02T12:51:57.49Z</time></trkpt><trkpt lat="40.0648053" lon="8.5332987"><ele>177.33333333333331</ele><time>2026-05-02T12:51:58.49Z</time></trkpt><trkpt lat="40.0647021" lon="8.5331424"><ele>172.66666666666666</ele><time>2026-05-02T12:51:59.491Z</time></trkpt><trkpt lat="40.0645943" lon="8.5329693"><ele>168.0</ele><time>2026-05-02T12:52:00.49Z</time></trkpt><trkpt lat="40.0644884" lon="8.532786"><ele>168.0</ele><time>2026-05-02T12:52:01.489Z</time></trkpt><trkpt lat="40.0643818" lon="8.5325924"><ele>168.0</ele><time>2026-05-02T12:52:02.49Z</time></trkpt><trkpt lat="40.0642722" lon="8.5323956"><ele>168.0</ele><time>2026-05-02T12:52:03.489Z</time></trkpt><trkpt lat="40.064161" lon="8.5321992"><ele>163.33333333333334</ele><time>2026-05-02T12:52:04.49Z</time></trkpt><trkpt lat="40.0640513" lon="8.532005"><ele>158.66666666666669</ele><time>2026-05-02T12:52:05.49Z</time></trkpt><trkpt lat="40.0639412" lon="8.5318051"><ele>154.0</ele><time>2026-05-02T12:52:06.491Z</time></trkpt><trkpt lat="40.0638329" lon="8.5316045"><ele>154.0</ele><time>2026-05-02T12:52:07.489Z</time></trkpt><trkpt lat="40.0637256" lon="8.5313992"><ele>154.0</ele><time>2026-05-02T12:52:08.491Z</time></trkpt><trkpt lat="40.0636213" lon="8.5311832"><ele>154.0</ele><time>2026-05-02T12:52:09.489Z</time></trkpt><trkpt lat="40.063515" lon="8.5309633"><ele>153.66666666666669</ele><time>2026-05-02T12:52:10.489Z</time></trkpt><trkpt lat="40.0634103" lon="8.5307399"><ele>153.33333333333334</ele><time>2026-05-02T12:52:11.488Z</time></trkpt><trkpt lat="40.0633069" lon="8.5305172"><ele>153.0</ele><time>2026-05-02T12:52:12.488Z</time></trkpt><trkpt lat="40.0632101" lon="8.5302978"><ele>149.0</ele><time>2026-05-02T12:52:13.491Z</time></trkpt><trkpt lat="40.0631099" lon="8.5300852"><ele>145.0</ele><time>2026-05-02T12:52:14.491Z</time></trkpt><trkpt lat="40.0630151" lon="8.5298698"><ele>141.0</ele><time>2026-05-02T12:52:15.489Z</time></trkpt><trkpt lat="40.0629179" lon="8.5296555"><ele>141.0</ele><time>2026-05-02T12:52:16.489Z</time></trkpt><trkpt lat="40.0628216" lon="8.5294354"><ele>141.0</ele><time>2026-05-02T12:52:17.489Z</time></trkpt><trkpt lat="40.0627325" lon="8.5292135"><ele>141.0</ele><time>2026-05-02T12:52:18.491Z</time></trkpt><trkpt lat="40.0626359" lon="8.5289907"><ele>141.0</ele><time>2026-05-02T12:52:19.49Z</time></trkpt><trkpt lat="40.0625381" lon="8.5287649"><ele>141.0</ele><time>2026-05-02T12:52:20.49Z</time></trkpt><trkpt lat="40.0624383" lon="8.5285392"><ele>141.0</ele><time>2026-05-02T12:52:21.489Z</time></trkpt><trkpt lat="40.0623394" lon="8.5283078"><ele>138.0</ele><time>2026-05-02T12:52:22.49Z</time></trkpt><trkpt lat="40.0622371" lon="8.528077"><ele>135.0</ele><time>2026-05-02T12:52:23.489Z</time></trkpt><trkpt lat="40.0621334" lon="8.5278516"><ele>132.0</ele><time>2026-05-02T12:52:24.489Z</time></trkpt><trkpt lat="40.0620203" lon="8.5276229"><ele>132.0</ele><time>2026-05-02T12:52:25.488Z</time></trkpt><trkpt lat="40.0618928" lon="8.527407"><ele>132.0</ele><time>2026-05-02T12:52:26.488Z</time></trkpt><trkpt lat="40.0617579" lon="8.5272034"><ele>132.0</ele><time>2026-05-02T12:52:27.49Z</time></trkpt><trkpt lat="40.0616289" lon="8.526997"><ele>129.0</ele><time>2026-05-02T12:52:28.49Z</time></trkpt><trkpt lat="40.0615002" lon="8.5267922"><ele>126.0</ele><time>2026-05-02T12:52:29.489Z</time></trkpt><trkpt lat="40.0613702" lon="8.5265908"><ele>123.0</ele><time>2026-05-02T12:52:30.488Z</time></trkpt><trkpt lat="40.061241" lon="8.5263898"><ele>124.0</ele><time>2026-05-02T12:52:31.489Z</time></trkpt><trkpt lat="40.0611167" lon="8.5261871"><ele>125.0</ele><time>2026-05-02T12:52:32.489Z</time></trkpt><trkpt lat="40.0609981" lon="8.5259813"><ele>126.0</ele><time>2026-05-02T12:52:33.49Z</time></trkpt><trkpt lat="40.0608899" lon="8.525768"><ele>126.0</ele><time>2026-05-02T12:52:34.489Z</time></trkpt><trkpt lat="40.0607896" lon="8.5255481"><ele>126.0</ele><time>2026-05-02T12:52:35.489Z</time></trkpt><trkpt lat="40.0606948" lon="8.5253253"><ele>126.0</ele><time>2026-05-02T12:52:36.489Z</time></trkpt><trkpt lat="40.0606033" lon="8.5251015"><ele>124.33333333333334</ele><time>2026-05-02T12:52:37.488Z</time></trkpt><trkpt lat="40.060513" lon="8.5248822"><ele>122.66666666666667</ele><time>2026-05-02T12:52:38.49Z</time></trkpt><trkpt lat="40.0604205" lon="8.5246736"><ele>121.0</ele><time>2026-05-02T12:52:39.49Z</time></trkpt><trkpt lat="40.0603251" lon="8.5244573"><ele>120.66666666666667</ele><time>2026-05-02T12:52:40.49Z</time></trkpt><trkpt lat="40.060229" lon="8.5242486"><ele>120.33333333333334</ele><time>2026-05-02T12:52:41.488Z</time></trkpt><trkpt lat="40.0601262" lon="8.5240448"><ele>120.0</ele><time>2026-05-02T12:52:42.488Z</time></trkpt><trkpt lat="40.0600195" lon="8.5238394"><ele>118.33333333333334</ele><time>2026-05-02T12:52:43.489Z</time></trkpt><trkpt lat="40.0599129" lon="8.5236392"><ele>116.66666666666667</ele><time>2026-05-02T12:52:44.488Z</time></trkpt><trkpt lat="40.0598105" lon="8.5234331"><ele>115.0</ele><time>2026-05-02T12:52:45.489Z</time></trkpt><trkpt lat="40.0597067" lon="8.5232317"><ele>115.0</ele><time>2026-05-02T12:52:46.489Z</time></trkpt><trkpt lat="40.0595982" lon="8.5230318"><ele>115.0</ele><time>2026-05-02T12:52:47.49Z</time></trkpt><trkpt lat="40.059493" lon="8.5228341"><ele>115.0</ele><time>2026-05-02T12:52:48.49Z</time></trkpt><trkpt lat="40.059386" lon="8.5226456"><ele>115.33333333333334</ele><time>2026-05-02T12:52:49.488Z</time></trkpt><trkpt lat="40.0592767" lon="8.522459"><ele>115.66666666666666</ele><time>2026-05-02T12:52:50.488Z</time></trkpt><trkpt lat="40.0591704" lon="8.5222744"><ele>116.0</ele><time>2026-05-02T12:52:51.49Z</time></trkpt><trkpt lat="40.059065" lon="8.5220933"><ele>114.0</ele><time>2026-05-02T12:52:52.49Z</time></trkpt><trkpt lat="40.0589633" lon="8.5219171"><ele>112.0</ele><time>2026-05-02T12:52:53.489Z</time></trkpt><trkpt lat="40.0588707" lon="8.5217542"><ele>110.0</ele><time>2026-05-02T12:52:54.489Z</time></trkpt><trkpt lat="40.0587813" lon="8.5215952"><ele>110.0</ele><time>2026-05-02T12:52:55.49Z</time></trkpt><trkpt lat="40.0586994" lon="8.521449"><ele>110.0</ele><time>2026-05-02T12:52:56.488Z</time></trkpt><trkpt lat="40.0586157" lon="8.5213034"><ele>110.0</ele><time>2026-05-02T12:52:57.489Z</time></trkpt><trkpt lat="40.0585217" lon="8.5211473"><ele>110.0</ele><time>2026-05-02T12:52:58.49Z</time></trkpt><trkpt lat="40.0584318" lon="8.520989"><ele>110.0</ele><time>2026-05-02T12:52:59.489Z</time></trkpt><trkpt lat="40.0583452" lon="8.5208372"><ele>110.0</ele><time>2026-05-02T12:53:00.488Z</time></trkpt><trkpt lat="40.0582583" lon="8.5206874"><ele>110.0</ele><time>2026-05-02T12:53:01.488Z</time></trkpt><trkpt lat="40.0581728" lon="8.5205476"><ele>110.0</ele><time>2026-05-02T12:53:02.49Z</time></trkpt><trkpt lat="40.0580966" lon="8.5204207"><ele>109.0</ele><time>2026-05-02T12:53:03.489Z</time></trkpt><trkpt lat="40.058033" lon="8.5203087"><ele>108.0</ele><time>2026-05-02T12:53:04.489Z</time></trkpt><trkpt lat="40.0579777" lon="8.5202086"><ele>107.0</ele><time>2026-05-02T12:53:05.489Z</time></trkpt><trkpt lat="40.0579291" lon="8.5201338"><ele>106.0</ele><time>2026-05-02T12:53:06.489Z</time></trkpt><trkpt lat="40.0578306" lon="8.5200854"><ele>105.0</ele><time>2026-05-02T12:53:08.49Z</time></trkpt><trkpt lat="40.0577052" lon="8.5201463"><ele>105.0</ele><time>2026-05-02T12:53:10.489Z</time></trkpt><trkpt lat="40.0576143" lon="8.5202135"><ele>105.0</ele><time>2026-05-02T12:53:11.489Z</time></trkpt><trkpt lat="40.0575126" lon="8.5202877"><ele>105.0</ele><time>2026-05-02T12:53:12.489Z</time></trkpt><trkpt lat="40.0573895" lon="8.5203637"><ele>105.0</ele><time>2026-05-02T12:53:13.488Z</time></trkpt><trkpt lat="40.0572597" lon="8.5204327"><ele>103.25</ele><time>2026-05-02T12:53:14.489Z</time></trkpt><trkpt lat="40.0571227" lon="8.5205069"><ele>101.5</ele><time>2026-05-02T12:53:15.488Z</time></trkpt><trkpt lat="40.0569783" lon="8.5205788"><ele>99.75</ele><time>2026-05-02T12:53:16.489Z</time></trkpt><trkpt lat="40.0568475" lon="8.5206471"><ele>98.0</ele><time>2026-05-02T12:53:17.489Z</time></trkpt><trkpt lat="40.0567266" lon="8.5206998"><ele>96.5</ele><time>2026-05-02T12:53:18.49Z</time></trkpt><trkpt lat="40.0566088" lon="8.5207414"><ele>95.0</ele><time>2026-05-02T12:53:19.488Z</time></trkpt><trkpt lat="40.0564984" lon="8.5207855"><ele>93.5</ele><time>2026-05-02T12:53:20.488Z</time></trkpt><trkpt lat="40.0563964" lon="8.5208543"><ele>92.0</ele><time>2026-05-02T12:53:21.489Z</time></trkpt><trkpt lat="40.0562847" lon="8.5209556"><ele>92.0</ele><time>2026-05-02T12:53:22.489Z</time></trkpt><trkpt lat="40.0561653" lon="8.5210684"><ele>92.0</ele><time>2026-05-02T12:53:23.489Z</time></trkpt><trkpt lat="40.0560339" lon="8.5211763"><ele>92.0</ele><time>2026-05-02T12:53:24.488Z</time></trkpt><trkpt lat="40.0559053" lon="8.5212718"><ele>91.5</ele><time>2026-05-02T12:53:25.488Z</time></trkpt><trkpt lat="40.0557768" lon="8.5213583"><ele>91.0</ele><time>2026-05-02T12:53:26.488Z</time></trkpt><trkpt lat="40.0556473" lon="8.5214399"><ele>90.5</ele><time>2026-05-02T12:53:27.49Z</time></trkpt><trkpt lat="40.0555082" lon="8.5215151"><ele>90.0</ele><time>2026-05-02T12:53:28.489Z</time></trkpt><trkpt lat="40.0553648" lon="8.5215838"><ele>90.0</ele><time>2026-05-02T12:53:29.489Z</time></trkpt><trkpt lat="40.055218" lon="8.5216504"><ele>90.0</ele><time>2026-05-02T12:53:30.489Z</time></trkpt><trkpt lat="40.0550757" lon="8.5217102"><ele>90.0</ele><time>2026-05-02T12:53:31.49Z</time></trkpt><trkpt lat="40.0549412" lon="8.5217737"><ele>90.0</ele><time>2026-05-02T12:53:32.489Z</time></trkpt><trkpt lat="40.0548112" lon="8.5218231"><ele>90.25</ele><time>2026-05-02T12:53:33.489Z</time></trkpt><trkpt lat="40.0546739" lon="8.5218576"><ele>90.5</ele><time>2026-05-02T12:53:34.489Z</time></trkpt><trkpt lat="40.0545359" lon="8.5218774"><ele>90.75</ele><time>2026-05-02T12:53:35.488Z</time></trkpt><trkpt lat="40.054404" lon="8.5218933"><ele>91.0</ele><time>2026-05-02T12:53:36.491Z</time></trkpt><trkpt lat="40.0542686" lon="8.5219194"><ele>91.0</ele><time>2026-05-02T12:53:37.49Z</time></trkpt><trkpt lat="40.0541331" lon="8.5219518"><ele>91.0</ele><time>2026-05-02T12:53:38.49Z</time></trkpt><trkpt lat="40.0540081" lon="8.5220014"><ele>91.0</ele><time>2026-05-02T12:53:39.489Z</time></trkpt><trkpt lat="40.053886" lon="8.5220674"><ele>91.0</ele><time>2026-05-02T12:53:40.489Z</time></trkpt><trkpt lat="40.0537715" lon="8.5221368"><ele>91.0</ele><time>2026-05-02T12:53:41.489Z</time></trkpt><trkpt lat="40.0536682" lon="8.5222164"><ele>91.0</ele><time>2026-05-02T12:53:42.489Z</time></trkpt><trkpt lat="40.0535641" lon="8.5222958"><ele>91.0</ele><time>2026-05-02T12:53:43.491Z</time></trkpt><trkpt lat="40.0534671" lon="8.5224317"><ele>91.0</ele><time>2026-05-02T12:53:44.489Z</time></trkpt><trkpt lat="40.0533789" lon="8.5225568"><ele>91.0</ele><time>2026-05-02T12:53:45.488Z</time></trkpt><trkpt lat="40.0532977" lon="8.5226863"><ele>91.0</ele><time>2026-05-02T12:53:46.49Z</time></trkpt><trkpt lat="40.0532163" lon="8.5227912"><ele>91.0</ele><time>2026-05-02T12:53:47.489Z</time></trkpt><trkpt lat="40.053127" lon="8.5228776"><ele>91.0</ele><time>2026-05-02T12:53:48.489Z</time></trkpt><trkpt lat="40.0530405" lon="8.5229361"><ele>91.83333333333333</ele><time>2026-05-02T12:53:49.488Z</time></trkpt><trkpt lat="40.0529666" lon="8.5229782"><ele>92.66666666666666</ele><time>2026-05-02T12:53:50.488Z</time></trkpt><trkpt lat="40.0528998" lon="8.5230143"><ele>93.5</ele><time>2026-05-02T12:53:51.49Z</time></trkpt><trkpt lat="40.0528356" lon="8.5230454"><ele>94.33333333333333</ele><time>2026-05-02T12:53:52.49Z</time></trkpt><trkpt lat="40.0527481" lon="8.5230659"><ele>95.16666666666667</ele><time>2026-05-02T12:53:53.49Z</time></trkpt><trkpt lat="40.0526458" lon="8.5230767"><ele>96.0</ele><time>2026-05-02T12:53:54.488Z</time></trkpt><trkpt lat="40.0525366" lon="8.5230995"><ele>95.25</ele><time>2026-05-02T12:53:55.488Z</time></trkpt><trkpt lat="40.0524221" lon="8.5231259"><ele>94.5</ele><time>2026-05-02T12:53:56.488Z</time></trkpt><trkpt lat="40.0522992" lon="8.5231492"><ele>93.75</ele><time>2026-05-02T12:53:57.488Z</time></trkpt><trkpt lat="40.0521638" lon="8.523168"><ele>93.0</ele><time>2026-05-02T12:53:58.488Z</time></trkpt><trkpt lat="40.0520209" lon="8.5231814"><ele>93.0</ele><time>2026-05-02T12:53:59.489Z</time></trkpt><trkpt lat="40.0518718" lon="8.5231959"><ele>93.0</ele><time>2026-05-02T12:54:00.489Z</time></trkpt><trkpt lat="40.0517179" lon="8.5232134"><ele>93.0</ele><time>2026-05-02T12:54:01.489Z</time></trkpt><trkpt lat="40.0515506" lon="8.5232319"><ele>92.66666666666667</ele><time>2026-05-02T12:54:02.489Z</time></trkpt><trkpt lat="40.0513755" lon="8.523254"><ele>92.33333333333334</ele><time>2026-05-02T12:54:03.489Z</time></trkpt><trkpt lat="40.0512054" lon="8.5232742"><ele>92.0</ele><time>2026-05-02T12:54:04.49Z</time></trkpt><trkpt lat="40.0510345" lon="8.523293"><ele>92.0</ele><time>2026-05-02T12:54:05.489Z</time></trkpt><trkpt lat="40.0508638" lon="8.5233153"><ele>92.0</ele><time>2026-05-02T12:54:06.488Z</time></trkpt><trkpt lat="40.0507118" lon="8.523351"><ele>92.0</ele><time>2026-05-02T12:54:07.489Z</time></trkpt><trkpt lat="40.0505691" lon="8.5234236"><ele>91.33333333333334</ele><time>2026-05-02T12:54:08.488Z</time></trkpt><trkpt lat="40.0504363" lon="8.5235482"><ele>90.66666666666667</ele><time>2026-05-02T12:54:09.488Z</time></trkpt><trkpt lat="40.0503115" lon="8.5237"><ele>90.0</ele><time>2026-05-02T12:54:10.489Z</time></trkpt><trkpt lat="40.0501865" lon="8.5238679"><ele>89.66666666666667</ele><time>2026-05-02T12:54:11.49Z</time></trkpt><trkpt lat="40.0500548" lon="8.524043"><ele>89.33333333333334</ele><time>2026-05-02T12:54:12.49Z</time></trkpt><trkpt lat="40.0499119" lon="8.524229"><ele>89.0</ele><time>2026-05-02T12:54:13.49Z</time></trkpt><trkpt lat="40.0497681" lon="8.5244202"><ele>87.33333333333334</ele><time>2026-05-02T12:54:14.49Z</time></trkpt><trkpt lat="40.0496193" lon="8.5246184"><ele>85.66666666666667</ele><time>2026-05-02T12:54:15.489Z</time></trkpt><trkpt lat="40.0494673" lon="8.5248227"><ele>84.0</ele><time>2026-05-02T12:54:16.488Z</time></trkpt><trkpt lat="40.0493094" lon="8.525036"><ele>84.0</ele><time>2026-05-02T12:54:17.49Z</time></trkpt><trkpt lat="40.049148" lon="8.525248"><ele>84.0</ele><time>2026-05-02T12:54:18.488Z</time></trkpt><trkpt lat="40.0489856" lon="8.5254576"><ele>82.5</ele><time>2026-05-02T12:54:19.488Z</time></trkpt><trkpt lat="40.0488243" lon="8.5256666"><ele>81.0</ele><time>2026-05-02T12:54:20.489Z</time></trkpt><trkpt lat="40.0486653" lon="8.5258763"><ele>81.0</ele><time>2026-05-02T12:54:21.489Z</time></trkpt><trkpt lat="40.0485046" lon="8.5260884"><ele>81.0</ele><time>2026-05-02T12:54:22.49Z</time></trkpt><trkpt lat="40.0483443" lon="8.5262956"><ele>82.33333333333333</ele><time>2026-05-02T12:54:23.489Z</time></trkpt><trkpt lat="40.0481879" lon="8.5264957"><ele>83.66666666666666</ele><time>2026-05-02T12:54:24.489Z</time></trkpt><trkpt lat="40.0480539" lon="8.5266685"><ele>85.0</ele><time>2026-05-02T12:54:25.488Z</time></trkpt><trkpt lat="40.0479453" lon="8.526808"><ele>85.0</ele><time>2026-05-02T12:54:26.491Z</time></trkpt><trkpt lat="40.0478577" lon="8.526915"><ele>85.0</ele><time>2026-05-02T12:54:27.49Z</time></trkpt><trkpt lat="40.0477966" lon="8.5269862"><ele>85.0</ele><time>2026-05-02T12:54:28.489Z</time></trkpt><trkpt lat="40.0478739" lon="8.5269524"><ele>85.0</ele><time>2026-05-02T12:54:33.489Z</time></trkpt><trkpt lat="40.0479354" lon="8.5268747"><ele>85.0</ele><time>2026-05-02T12:54:34.488Z</time></trkpt><trkpt lat="40.04798" lon="8.5268112"><ele>85.0</ele><time>2026-05-02T12:54:35.489Z</time></trkpt><trkpt lat="40.0479776" lon="8.5266926"><ele>85.0</ele><time>2026-05-02T12:54:37.49Z</time></trkpt><trkpt lat="40.0478958" lon="8.5266297"><ele>85.0</ele><time>2026-05-02T12:54:39.489Z</time></trkpt><trkpt lat="40.0478069" lon="8.5266351"><ele>85.0</ele><time>2026-05-02T12:54:40.488Z</time></trkpt><trkpt lat="40.0476974" lon="8.5266632"><ele>85.0</ele><time>2026-05-02T12:54:41.489Z</time></trkpt><trkpt lat="40.0476026" lon="8.5266583"><ele>85.0</ele><time>2026-05-02T12:54:42.488Z</time></trkpt><trkpt lat="40.047498" lon="8.5266469"><ele>84.75</ele><time>2026-05-02T12:54:43.489Z</time></trkpt><trkpt lat="40.0473918" lon="8.5266299"><ele>84.5</ele><time>2026-05-02T12:54:44.489Z</time></trkpt><trkpt lat="40.0472775" lon="8.5266057"><ele>84.25</ele><time>2026-05-02T12:54:45.489Z</time></trkpt><trkpt lat="40.0471516" lon="8.5265684"><ele>84.0</ele><time>2026-05-02T12:54:46.489Z</time></trkpt><trkpt lat="40.0470182" lon="8.5265238"><ele>84.0</ele><time>2026-05-02T12:54:47.489Z</time></trkpt><trkpt lat="40.0468733" lon="8.5264674"><ele>84.0</ele><time>2026-05-02T12:54:48.489Z</time></trkpt><trkpt lat="40.0467291" lon="8.5264091"><ele>84.0</ele><time>2026-05-02T12:54:49.489Z</time></trkpt><trkpt lat="40.0465853" lon="8.5263662"><ele>84.66666666666667</ele><time>2026-05-02T12:54:50.49Z</time></trkpt><trkpt lat="40.0464315" lon="8.5263411"><ele>85.33333333333334</ele><time>2026-05-02T12:54:51.49Z</time></trkpt><trkpt lat="40.0462785" lon="8.5263214"><ele>86.0</ele><time>2026-05-02T12:54:52.489Z</time></trkpt><trkpt lat="40.0461301" lon="8.5262903"><ele>86.0</ele><time>2026-05-02T12:54:53.489Z</time></trkpt><trkpt lat="40.0459881" lon="8.5262489"><ele>86.0</ele><time>2026-05-02T12:54:54.488Z</time></trkpt><trkpt lat="40.0458486" lon="8.5261906"><ele>86.0</ele><time>2026-05-02T12:54:55.489Z</time></trkpt><trkpt lat="40.0457051" lon="8.5261068"><ele>86.0</ele><time>2026-05-02T12:54:56.489Z</time></trkpt><trkpt lat="40.0455652" lon="8.5260218"><ele>85.33333333333334</ele><time>2026-05-02T12:54:57.49Z</time></trkpt><trkpt lat="40.0454231" lon="8.5259275"><ele>84.66666666666667</ele><time>2026-05-02T12:54:58.49Z</time></trkpt><trkpt lat="40.0452833" lon="8.5258339"><ele>84.0</ele><time>2026-05-02T12:54:59.489Z</time></trkpt><trkpt lat="40.045141" lon="8.5257428"><ele>84.0</ele><time>2026-05-02T12:55:00.49Z</time></trkpt><trkpt lat="40.0450084" lon="8.5256613"><ele>84.0</ele><time>2026-05-02T12:55:01.49Z</time></trkpt><trkpt lat="40.0448843" lon="8.5255831"><ele>84.0</ele><time>2026-05-02T12:55:02.488Z</time></trkpt><trkpt lat="40.0447831" lon="8.525513"><ele>84.0</ele><time>2026-05-02T12:55:03.489Z</time></trkpt><trkpt lat="40.0446886" lon="8.5254328"><ele>84.0</ele><time>2026-05-02T12:55:04.489Z</time></trkpt><trkpt lat="40.0445802" lon="8.525321"><ele>84.0</ele><time>2026-05-02T12:55:05.49Z</time></trkpt><trkpt lat="40.0444709" lon="8.5251981"><ele>84.0</ele><time>2026-05-02T12:55:06.489Z</time></trkpt><trkpt lat="40.0443604" lon="8.5250777"><ele>84.0</ele><time>2026-05-02T12:55:07.49Z</time></trkpt><trkpt lat="40.0442473" lon="8.5249625"><ele>84.5</ele><time>2026-05-02T12:55:08.488Z</time></trkpt><trkpt lat="40.0441293" lon="8.524853"><ele>85.0</ele><time>2026-05-02T12:55:09.489Z</time></trkpt><trkpt lat="40.0440018" lon="8.5247558"><ele>85.5</ele><time>2026-05-02T12:55:10.489Z</time></trkpt><trkpt lat="40.0438603" lon="8.5246764"><ele>86.0</ele><time>2026-05-02T12:55:11.488Z</time></trkpt><trkpt lat="40.0437218" lon="8.5246151"><ele>86.0</ele><time>2026-05-02T12:55:12.49Z</time></trkpt><trkpt lat="40.043579" lon="8.5245683"><ele>86.0</ele><time>2026-05-02T12:55:13.49Z</time></trkpt><trkpt lat="40.0434369" lon="8.5245388"><ele>86.0</ele><time>2026-05-02T12:55:14.489Z</time></trkpt><trkpt lat="40.0432941" lon="8.5245154"><ele>86.0</ele><time>2026-05-02T12:55:15.489Z</time></trkpt><trkpt lat="40.0431521" lon="8.5244967"><ele>85.25</ele><time>2026-05-02T12:55:16.489Z</time></trkpt><trkpt lat="40.0430179" lon="8.5244828"><ele>84.5</ele><time>2026-05-02T12:55:17.489Z</time></trkpt><trkpt lat="40.0428906" lon="8.524461"><ele>83.75</ele><time>2026-05-02T12:55:18.487Z</time></trkpt><trkpt lat="40.0427653" lon="8.5244302"><ele>83.0</ele><time>2026-05-02T12:55:19.49Z</time></trkpt><trkpt lat="40.0426479" lon="8.5243824"><ele>83.0</ele><time>2026-05-02T12:55:20.489Z</time></trkpt><trkpt lat="40.0425287" lon="8.5243386"><ele>83.0</ele><time>2026-05-02T12:55:21.489Z</time></trkpt><trkpt lat="40.0423998" lon="8.5242893"><ele>83.0</ele><time>2026-05-02T12:55:22.488Z</time></trkpt><trkpt lat="40.0422569" lon="8.5242496"><ele>83.0</ele><time>2026-05-02T12:55:23.488Z</time></trkpt><trkpt lat="40.0421062" lon="8.5242054"><ele>81.75</ele><time>2026-05-02T12:55:24.488Z</time></trkpt><trkpt lat="40.0419736" lon="8.5241777"><ele>80.5</ele><time>2026-05-02T12:55:25.489Z</time></trkpt><trkpt lat="40.0418305" lon="8.5241426"><ele>79.25</ele><time>2026-05-02T12:55:26.489Z</time></trkpt><trkpt lat="40.0416974" lon="8.5241105"><ele>78.0</ele><time>2026-05-02T12:55:27.489Z</time></trkpt><trkpt lat="40.0415609" lon="8.5240904"><ele>77.25</ele><time>2026-05-02T12:55:28.489Z</time></trkpt><trkpt lat="40.0414244" lon="8.5240718"><ele>76.5</ele><time>2026-05-02T12:55:29.489Z</time></trkpt><trkpt lat="40.0412891" lon="8.524055"><ele>75.75</ele><time>2026-05-02T12:55:30.489Z</time></trkpt><trkpt lat="40.0411613" lon="8.5240454"><ele>75.0</ele><time>2026-05-02T12:55:31.488Z</time></trkpt><trkpt lat="40.0410338" lon="8.5240466"><ele>75.0</ele><time>2026-05-02T12:55:32.488Z</time></trkpt><trkpt lat="40.0408898" lon="8.5240526"><ele>75.0</ele><time>2026-05-02T12:55:33.489Z</time></trkpt><trkpt lat="40.0407448" lon="8.5240662"><ele>75.0</ele><time>2026-05-02T12:55:34.49Z</time></trkpt><trkpt lat="40.0405961" lon="8.5240756"><ele>75.0</ele><time>2026-05-02T12:55:35.491Z</time></trkpt><trkpt lat="40.0404592" lon="8.5240896"><ele>74.25</ele><time>2026-05-02T12:55:36.489Z</time></trkpt><trkpt lat="40.0403233" lon="8.5241061"><ele>73.5</ele><time>2026-05-02T12:55:37.488Z</time></trkpt><trkpt lat="40.0401749" lon="8.5241195"><ele>72.75</ele><time>2026-05-02T12:55:38.488Z</time></trkpt><trkpt lat="40.0400249" lon="8.5241293"><ele>72.0</ele><time>2026-05-02T12:55:39.488Z</time></trkpt><trkpt lat="40.0398859" lon="8.5241476"><ele>71.5</ele><time>2026-05-02T12:55:40.488Z</time></trkpt><trkpt lat="40.0397478" lon="8.5241598"><ele>71.0</ele><time>2026-05-02T12:55:41.489Z</time></trkpt><trkpt lat="40.0396162" lon="8.52417"><ele>70.5</ele><time>2026-05-02T12:55:42.49Z</time></trkpt><trkpt lat="40.0394772" lon="8.5241608"><ele>70.0</ele><time>2026-05-02T12:55:43.49Z</time></trkpt><trkpt lat="40.0393413" lon="8.5241451"><ele>70.0</ele><time>2026-05-02T12:55:44.488Z</time></trkpt><trkpt lat="40.0391957" lon="8.5241153"><ele>70.0</ele><time>2026-05-02T12:55:45.489Z</time></trkpt><trkpt lat="40.0390556" lon="8.5240822"><ele>70.0</ele><time>2026-05-02T12:55:46.49Z</time></trkpt><trkpt lat="40.0389098" lon="8.5240546"><ele>70.0</ele><time>2026-05-02T12:55:47.488Z</time></trkpt><trkpt lat="40.0387761" lon="8.5240149"><ele>69.5</ele><time>2026-05-02T12:55:48.489Z</time></trkpt><trkpt lat="40.0386372" lon="8.5239808"><ele>69.0</ele><time>2026-05-02T12:55:49.489Z</time></trkpt><trkpt lat="40.0384974" lon="8.5239663"><ele>68.5</ele><time>2026-05-02T12:55:50.488Z</time></trkpt><trkpt lat="40.038361" lon="8.5239591"><ele>68.0</ele><time>2026-05-02T12:55:51.488Z</time></trkpt><trkpt lat="40.0382281" lon="8.5239685"><ele>67.5</ele><time>2026-05-02T12:55:52.489Z</time></trkpt><trkpt lat="40.0381091" lon="8.523974"><ele>67.0</ele><time>2026-05-02T12:55:53.488Z</time></trkpt><trkpt lat="40.0380132" lon="8.5239717"><ele>66.5</ele><time>2026-05-02T12:55:54.49Z</time></trkpt><trkpt lat="40.0378984" lon="8.523939"><ele>66.0</ele><time>2026-05-02T12:55:55.488Z</time></trkpt><trkpt lat="40.0377693" lon="8.5238889"><ele>66.0</ele><time>2026-05-02T12:55:56.49Z</time></trkpt><trkpt lat="40.0376357" lon="8.5238393"><ele>66.0</ele><time>2026-05-02T12:55:57.489Z</time></trkpt><trkpt lat="40.0375001" lon="8.5237877"><ele>66.0</ele><time>2026-05-02T12:55:58.488Z</time></trkpt><trkpt lat="40.0373764" lon="8.5237388"><ele>66.0</ele><time>2026-05-02T12:55:59.49Z</time></trkpt><trkpt lat="40.0372562" lon="8.5236848"><ele>66.75</ele><time>2026-05-02T12:56:00.489Z</time></trkpt><trkpt lat="40.0371358" lon="8.5236377"><ele>67.5</ele><time>2026-05-02T12:56:01.487Z</time></trkpt><trkpt lat="40.0370218" lon="8.523599"><ele>68.25</ele><time>2026-05-02T12:56:02.489Z</time></trkpt><trkpt lat="40.0369136" lon="8.523543"><ele>69.0</ele><time>2026-05-02T12:56:03.488Z</time></trkpt><trkpt lat="40.0368011" lon="8.52348"><ele>69.0</ele><time>2026-05-02T12:56:04.487Z</time></trkpt><trkpt lat="40.0366833" lon="8.5234235"><ele>69.0</ele><time>2026-05-02T12:56:05.488Z</time></trkpt><trkpt lat="40.0365748" lon="8.5233703"><ele>69.0</ele><time>2026-05-02T12:56:06.487Z</time></trkpt><trkpt lat="40.0364731" lon="8.5233164"><ele>69.0</ele><time>2026-05-02T12:56:07.489Z</time></trkpt><trkpt lat="40.0363673" lon="8.523265"><ele>69.0</ele><time>2026-05-02T12:56:08.489Z</time></trkpt><trkpt lat="40.0362584" lon="8.5232367"><ele>69.0</ele><time>2026-05-02T12:56:09.489Z</time></trkpt><trkpt lat="40.0361427" lon="8.5232393"><ele>69.0</ele><time>2026-05-02T12:56:10.487Z</time></trkpt><trkpt lat="40.0360256" lon="8.5232606"><ele>69.0</ele><time>2026-05-02T12:56:11.488Z</time></trkpt><trkpt lat="40.0359" lon="8.5233038"><ele>68.5</ele><time>2026-05-02T12:56:12.489Z</time></trkpt><trkpt lat="40.0357718" lon="8.52337"><ele>68.0</ele><time>2026-05-02T12:56:13.488Z</time></trkpt><trkpt lat="40.0356379" lon="8.5234337"><ele>67.5</ele><time>2026-05-02T12:56:14.488Z</time></trkpt><trkpt lat="40.0355015" lon="8.5234957"><ele>67.0</ele><time>2026-05-02T12:56:15.488Z</time></trkpt><trkpt lat="40.0353662" lon="8.5235468"><ele>67.0</ele><time>2026-05-02T12:56:16.489Z</time></trkpt><trkpt lat="40.0352294" lon="8.5236008"><ele>67.0</ele><time>2026-05-02T12:56:17.488Z</time></trkpt><trkpt lat="40.0351016" lon="8.5236514"><ele>67.0</ele><time>2026-05-02T12:56:18.489Z</time></trkpt><trkpt lat="40.0349828" lon="8.5236938"><ele>67.0</ele><time>2026-05-02T12:56:19.488Z</time></trkpt><trkpt lat="40.0348726" lon="8.5237267"><ele>67.25</ele><time>2026-05-02T12:56:20.487Z</time></trkpt><trkpt lat="40.0347678" lon="8.5237585"><ele>67.5</ele><time>2026-05-02T12:56:21.488Z</time></trkpt><trkpt lat="40.0346665" lon="8.5238105"><ele>67.75</ele><time>2026-05-02T12:56:22.489Z</time></trkpt><trkpt lat="40.034558" lon="8.5238847"><ele>68.0</ele><time>2026-05-02T12:56:23.487Z</time></trkpt><trkpt lat="40.0344417" lon="8.5239822"><ele>68.0</ele><time>2026-05-02T12:56:24.487Z</time></trkpt><trkpt lat="40.0343199" lon="8.5240936"><ele>68.0</ele><time>2026-05-02T12:56:25.488Z</time></trkpt><trkpt lat="40.0341951" lon="8.5241897"><ele>68.0</ele><time>2026-05-02T12:56:26.487Z</time></trkpt><trkpt lat="40.0340778" lon="8.5242668"><ele>68.0</ele><time>2026-05-02T12:56:27.489Z</time></trkpt><trkpt lat="40.0339744" lon="8.5243081"><ele>68.25</ele><time>2026-05-02T12:56:28.488Z</time></trkpt><trkpt lat="40.033867" lon="8.5243115"><ele>68.5</ele><time>2026-05-02T12:56:29.489Z</time></trkpt><trkpt lat="40.0337443" lon="8.524305"><ele>68.75</ele><time>2026-05-02T12:56:30.489Z</time></trkpt><trkpt lat="40.0336051" lon="8.5243078"><ele>69.0</ele><time>2026-05-02T12:56:31.487Z</time></trkpt><trkpt lat="40.0334545" lon="8.5243295"><ele>68.25</ele><time>2026-05-02T12:56:32.487Z</time></trkpt><trkpt lat="40.0333037" lon="8.5243414"><ele>67.5</ele><time>2026-05-02T12:56:33.488Z</time></trkpt><trkpt lat="40.0331556" lon="8.5243434"><ele>66.75</ele><time>2026-05-02T12:56:34.488Z</time></trkpt><trkpt lat="40.0330192" lon="8.5243577"><ele>66.0</ele><time>2026-05-02T12:56:35.489Z</time></trkpt><trkpt lat="40.0328758" lon="8.5243942"><ele>66.0</ele><time>2026-05-02T12:56:36.489Z</time></trkpt><trkpt lat="40.032724" lon="8.5244418"><ele>66.0</ele><time>2026-05-02T12:56:37.487Z</time></trkpt><trkpt lat="40.0325813" lon="8.5244776"><ele>66.0</ele><time>2026-05-02T12:56:38.488Z</time></trkpt><trkpt lat="40.0324345" lon="8.524498"><ele>66.0</ele><time>2026-05-02T12:56:39.487Z</time></trkpt><trkpt lat="40.0322891" lon="8.5245027"><ele>65.0</ele><time>2026-05-02T12:56:40.487Z</time></trkpt><trkpt lat="40.0321428" lon="8.5245078"><ele>64.0</ele><time>2026-05-02T12:56:41.488Z</time></trkpt><trkpt lat="40.0319951" lon="8.5245173"><ele>63.0</ele><time>2026-05-02T12:56:42.488Z</time></trkpt><trkpt lat="40.031857" lon="8.5245234"><ele>62.0</ele><time>2026-05-02T12:56:43.488Z</time></trkpt><trkpt lat="40.0317219" lon="8.524529"><ele>61.0</ele><time>2026-05-02T12:56:44.487Z</time></trkpt><trkpt lat="40.0315967" lon="8.524546"><ele>60.0</ele><time>2026-05-02T12:56:45.488Z</time></trkpt><trkpt lat="40.0314726" lon="8.5245815"><ele>59.0</ele><time>2026-05-02T12:56:46.488Z</time></trkpt><trkpt lat="40.031342" lon="8.524633"><ele>58.0</ele><time>2026-05-02T12:56:47.488Z</time></trkpt><trkpt lat="40.0312119" lon="8.5246902"><ele>58.0</ele><time>2026-05-02T12:56:48.488Z</time></trkpt><trkpt lat="40.0310824" lon="8.5247471"><ele>58.0</ele><time>2026-05-02T12:56:49.488Z</time></trkpt><trkpt lat="40.0309664" lon="8.5247996"><ele>58.0</ele><time>2026-05-02T12:56:50.488Z</time></trkpt><trkpt lat="40.0308574" lon="8.5248569"><ele>58.0</ele><time>2026-05-02T12:56:51.489Z</time></trkpt><trkpt lat="40.0307461" lon="8.5249222"><ele>57.25</ele><time>2026-05-02T12:56:52.489Z</time></trkpt><trkpt lat="40.0306344" lon="8.5250008"><ele>56.5</ele><time>2026-05-02T12:56:53.488Z</time></trkpt><trkpt lat="40.030523" lon="8.5250889"><ele>55.75</ele><time>2026-05-02T12:56:54.488Z</time></trkpt><trkpt lat="40.0304117" lon="8.525172"><ele>55.0</ele><time>2026-05-02T12:56:55.488Z</time></trkpt><trkpt lat="40.0302994" lon="8.5252355"><ele>55.0</ele><time>2026-05-02T12:56:56.489Z</time></trkpt><trkpt lat="40.0301926" lon="8.5252958"><ele>55.0</ele><time>2026-05-02T12:56:57.488Z</time></trkpt><trkpt lat="40.0300894" lon="8.5253416"><ele>55.0</ele><time>2026-05-02T12:56:58.489Z</time></trkpt><trkpt lat="40.0299869" lon="8.5253705"><ele>55.0</ele><time>2026-05-02T12:56:59.488Z</time></trkpt><trkpt lat="40.02988" lon="8.5254024"><ele>55.0</ele><time>2026-05-02T12:57:00.487Z</time></trkpt><trkpt lat="40.0297841" lon="8.525448"><ele>54.0</ele><time>2026-05-02T12:57:01.488Z</time></trkpt><trkpt lat="40.0296906" lon="8.5255214"><ele>53.0</ele><time>2026-05-02T12:57:02.488Z</time></trkpt><trkpt lat="40.0296016" lon="8.525631"><ele>52.0</ele><time>2026-05-02T12:57:03.488Z</time></trkpt><trkpt lat="40.0295024" lon="8.5257468"><ele>51.0</ele><time>2026-05-02T12:57:04.488Z</time></trkpt><trkpt lat="40.0293941" lon="8.5258409"><ele>51.0</ele><time>2026-05-02T12:57:05.488Z</time></trkpt><trkpt lat="40.0292748" lon="8.5259188"><ele>51.0</ele><time>2026-05-02T12:57:06.487Z</time></trkpt><trkpt lat="40.0291474" lon="8.5259812"><ele>51.0</ele><time>2026-05-02T12:57:07.488Z</time></trkpt><trkpt lat="40.0290141" lon="8.5260254"><ele>51.0</ele><time>2026-05-02T12:57:08.487Z</time></trkpt><trkpt lat="40.028878" lon="8.5260556"><ele>49.75</ele><time>2026-05-02T12:57:09.488Z</time></trkpt><trkpt lat="40.0287371" lon="8.526075"><ele>48.5</ele><time>2026-05-02T12:57:10.487Z</time></trkpt><trkpt lat="40.0285983" lon="8.5260746"><ele>47.25</ele><time>2026-05-02T12:57:11.487Z</time></trkpt><trkpt lat="40.0284687" lon="8.5260628"><ele>46.0</ele><time>2026-05-02T12:57:12.488Z</time></trkpt><trkpt lat="40.0283385" lon="8.5260523"><ele>45.599999999999994</ele><time>2026-05-02T12:57:13.487Z</time></trkpt><trkpt lat="40.0282029" lon="8.5260735"><ele>45.2</ele><time>2026-05-02T12:57:14.488Z</time></trkpt><trkpt lat="40.0280714" lon="8.5261122"><ele>44.8</ele><time>2026-05-02T12:57:15.489Z</time></trkpt><trkpt lat="40.0279837" lon="8.5261388"><ele>44.400000000000006</ele><time>2026-05-02T12:57:16.488Z</time></trkpt><trkpt lat="40.0279235" lon="8.5261668"><ele>44.0</ele><time>2026-05-02T12:57:17.489Z</time></trkpt><trkpt lat="40.0278666" lon="8.5262702"><ele>44.0</ele><time>2026-05-02T12:57:19.487Z</time></trkpt><trkpt lat="40.0278525" lon="8.5263727"><ele>44.0</ele><time>2026-05-02T12:57:20.488Z</time></trkpt><trkpt lat="40.0278163" lon="8.5264716"><ele>44.0</ele><time>2026-05-02T12:57:21.488Z</time></trkpt><trkpt lat="40.0277536" lon="8.5265856"><ele>44.0</ele><time>2026-05-02T12:57:22.488Z</time></trkpt><trkpt lat="40.0276591" lon="8.5266979"><ele>44.0</ele><time>2026-05-02T12:57:23.488Z</time></trkpt><trkpt lat="40.0275504" lon="8.5268134"><ele>43.0</ele><time>2026-05-02T12:57:24.488Z</time></trkpt><trkpt lat="40.0274275" lon="8.5269468"><ele>42.0</ele><time>2026-05-02T12:57:25.488Z</time></trkpt><trkpt lat="40.0273022" lon="8.5270888"><ele>41.0</ele><time>2026-05-02T12:57:26.487Z</time></trkpt><trkpt lat="40.0271746" lon="8.5272299"><ele>40.0</ele><time>2026-05-02T12:57:27.489Z</time></trkpt><trkpt lat="40.0270476" lon="8.5273672"><ele>39.0</ele><time>2026-05-02T12:57:28.487Z</time></trkpt><trkpt lat="40.0269182" lon="8.5274983"><ele>38.0</ele><time>2026-05-02T12:57:29.488Z</time></trkpt><trkpt lat="40.0267817" lon="8.5276192"><ele>37.33333333333333</ele><time>2026-05-02T12:57:30.488Z</time></trkpt><trkpt lat="40.026638" lon="8.527722"><ele>36.666666666666664</ele><time>2026-05-02T12:57:31.487Z</time></trkpt><trkpt lat="40.0264919" lon="8.5278218"><ele>36.0</ele><time>2026-05-02T12:57:32.487Z</time></trkpt><trkpt lat="40.0263368" lon="8.5279274"><ele>35.666666666666664</ele><time>2026-05-02T12:57:33.488Z</time></trkpt><trkpt lat="40.0261807" lon="8.5280316"><ele>35.33333333333333</ele><time>2026-05-02T12:57:34.489Z</time></trkpt><trkpt lat="40.0260207" lon="8.5281331"><ele>35.0</ele><time>2026-05-02T12:57:35.489Z</time></trkpt><trkpt lat="40.0258592" lon="8.5282322"><ele>34.666666666666664</ele><time>2026-05-02T12:57:36.487Z</time></trkpt><trkpt lat="40.0256984" lon="8.5283331"><ele>34.333333333333336</ele><time>2026-05-02T12:57:37.489Z</time></trkpt><trkpt lat="40.0255482" lon="8.5284279"><ele>34.0</ele><time>2026-05-02T12:57:38.488Z</time></trkpt><trkpt lat="40.0254118" lon="8.528516"><ele>34.0</ele><time>2026-05-02T12:57:39.488Z</time></trkpt><trkpt lat="40.0252859" lon="8.5285945"><ele>34.0</ele><time>2026-05-02T12:57:40.488Z</time></trkpt><trkpt lat="40.0251795" lon="8.5286574"><ele>34.0</ele><time>2026-05-02T12:57:41.487Z</time></trkpt><trkpt lat="40.025112" lon="8.528694"><ele>34.0</ele><time>2026-05-02T12:57:42.488Z</time></trkpt><trkpt lat="40.0250518" lon="8.5287278"><ele>34.0</ele><time>2026-05-02T12:57:44.487Z</time></trkpt><trkpt lat="40.0249451" lon="8.5287845"><ele>33.75</ele><time>2026-05-02T12:57:47.488Z</time></trkpt><trkpt lat="40.0248672" lon="8.5287875"><ele>33.5</ele><time>2026-05-02T12:57:48.487Z</time></trkpt><trkpt lat="40.0247615" lon="8.5288009"><ele>33.25</ele><time>2026-05-02T12:57:49.487Z</time></trkpt><trkpt lat="40.0246359" lon="8.5288016"><ele>33.0</ele><time>2026-05-02T12:57:50.487Z</time></trkpt><trkpt lat="40.0244959" lon="8.5287767"><ele>33.0</ele><time>2026-05-02T12:57:51.487Z</time></trkpt><trkpt lat="40.0243397" lon="8.5287551"><ele>33.0</ele><time>2026-05-02T12:57:52.487Z</time></trkpt><trkpt lat="40.024199" lon="8.5287357"><ele>33.0</ele><time>2026-05-02T12:57:53.488Z</time></trkpt><trkpt lat="40.0240696" lon="8.5287214"><ele>33.0</ele><time>2026-05-02T12:57:54.488Z</time></trkpt><trkpt lat="40.0239291" lon="8.5287229"><ele>32.5</ele><time>2026-05-02T12:57:55.488Z</time></trkpt><trkpt lat="40.0237939" lon="8.5287418"><ele>32.0</ele><time>2026-05-02T12:57:56.489Z</time></trkpt><trkpt lat="40.0236708" lon="8.5287576"><ele>31.5</ele><time>2026-05-02T12:57:57.488Z</time></trkpt><trkpt lat="40.0235398" lon="8.5287553"><ele>31.0</ele><time>2026-05-02T12:57:58.488Z</time></trkpt><trkpt lat="40.0234116" lon="8.5287444"><ele>30.5</ele><time>2026-05-02T12:57:59.488Z</time></trkpt><trkpt lat="40.023284" lon="8.5287385"><ele>30.0</ele><time>2026-05-02T12:58:00.487Z</time></trkpt><trkpt lat="40.0231549" lon="8.5287233"><ele>29.5</ele><time>2026-05-02T12:58:01.488Z</time></trkpt><trkpt lat="40.023027" lon="8.5287104"><ele>29.0</ele><time>2026-05-02T12:58:02.489Z</time></trkpt><trkpt lat="40.0228955" lon="8.5287111"><ele>29.0</ele><time>2026-05-02T12:58:03.488Z</time></trkpt><trkpt lat="40.022759" lon="8.5287219"><ele>29.0</ele><time>2026-05-02T12:58:04.488Z</time></trkpt><trkpt lat="40.0226203" lon="8.5287301"><ele>29.0</ele><time>2026-05-02T12:58:05.481Z</time></trkpt><trkpt lat="40.0223376" lon="8.5287367"><ele>28.5</ele><time>2026-05-02T12:58:07.489Z</time></trkpt><trkpt lat="40.0221949" lon="8.5287501"><ele>28.0</ele><time>2026-05-02T12:58:08.488Z</time></trkpt><trkpt lat="40.0220533" lon="8.5287746"><ele>27.5</ele><time>2026-05-02T12:58:09.488Z</time></trkpt><trkpt lat="40.0219106" lon="8.5287936"><ele>27.0</ele><time>2026-05-02T12:58:10.49Z</time></trkpt><trkpt lat="40.0217686" lon="8.5288192"><ele>26.5</ele><time>2026-05-02T12:58:11.487Z</time></trkpt><trkpt lat="40.021629" lon="8.5288561"><ele>26.0</ele><time>2026-05-02T12:58:12.49Z</time></trkpt><trkpt lat="40.0214822" lon="8.5289092"><ele>25.5</ele><time>2026-05-02T12:58:13.487Z</time></trkpt><trkpt lat="40.0213352" lon="8.5289652"><ele>25.0</ele><time>2026-05-02T12:58:14.487Z</time></trkpt><trkpt lat="40.0211887" lon="8.5290108"><ele>25.0</ele><time>2026-05-02T12:58:15.487Z</time></trkpt><trkpt lat="40.0210377" lon="8.5290559"><ele>25.0</ele><time>2026-05-02T12:58:16.487Z</time></trkpt><trkpt lat="40.0208889" lon="8.5291042"><ele>25.0</ele><time>2026-05-02T12:58:17.49Z</time></trkpt><trkpt lat="40.0207403" lon="8.5291452"><ele>24.75</ele><time>2026-05-02T12:58:18.488Z</time></trkpt><trkpt lat="40.0205923" lon="8.5291863"><ele>24.5</ele><time>2026-05-02T12:58:19.489Z</time></trkpt><trkpt lat="40.0204471" lon="8.5292132"><ele>24.25</ele><time>2026-05-02T12:58:20.488Z</time></trkpt><trkpt lat="40.0203034" lon="8.5292287"><ele>24.0</ele><time>2026-05-02T12:58:21.488Z</time></trkpt><trkpt lat="40.0201614" lon="8.5292366"><ele>24.0</ele><time>2026-05-02T12:58:22.488Z</time></trkpt><trkpt lat="40.0200283" lon="8.5292483"><ele>24.0</ele><time>2026-05-02T12:58:23.487Z</time></trkpt><trkpt lat="40.0199026" lon="8.5292761"><ele>24.0</ele><time>2026-05-02T12:58:24.488Z</time></trkpt><trkpt lat="40.0197946" lon="8.5293059"><ele>24.0</ele><time>2026-05-02T12:58:25.488Z</time></trkpt><trkpt lat="40.0197177" lon="8.529325"><ele>23.6</ele><time>2026-05-02T12:58:26.489Z</time></trkpt><trkpt lat="40.0196463" lon="8.5293711"><ele>23.2</ele><time>2026-05-02T12:58:28.488Z</time></trkpt><trkpt lat="40.0197427" lon="8.5293338"><ele>22.8</ele><time>2026-05-02T12:58:32.489Z</time></trkpt><trkpt lat="40.0198156" lon="8.5293181"><ele>22.400000000000002</ele><time>2026-05-02T12:58:35.487Z</time></trkpt><trkpt lat="40.0198243" lon="8.5292281"><ele>22.0</ele><time>2026-05-02T12:58:39.488Z</time></trkpt><trkpt lat="40.0198245" lon="8.5290534"><ele>22.0</ele><time>2026-05-02T12:58:41.488Z</time></trkpt><trkpt lat="40.0198196" lon="8.5289402"><ele>22.0</ele><time>2026-05-02T12:58:42.489Z</time></trkpt><trkpt lat="40.0198198" lon="8.5288089"><ele>22.0</ele><time>2026-05-02T12:58:43.488Z</time></trkpt><trkpt lat="40.0198319" lon="8.5286696"><ele>22.0</ele><time>2026-05-02T12:58:44.488Z</time></trkpt><trkpt lat="40.0198357" lon="8.5285159"><ele>22.0</ele><time>2026-05-02T12:58:45.488Z</time></trkpt><trkpt lat="40.0198377" lon="8.5283568"><ele>22.0</ele><time>2026-05-02T12:58:46.488Z</time></trkpt><trkpt lat="40.0198419" lon="8.5282007"><ele>22.0</ele><time>2026-05-02T12:58:47.487Z</time></trkpt><trkpt lat="40.0198442" lon="8.5280472"><ele>22.0</ele><time>2026-05-02T12:58:48.488Z</time></trkpt><trkpt lat="40.0198541" lon="8.5278973"><ele>22.0</ele><time>2026-05-02T12:58:49.487Z</time></trkpt><trkpt lat="40.0198762" lon="8.5277407"><ele>22.0</ele><time>2026-05-02T12:58:50.487Z</time></trkpt><trkpt lat="40.0199015" lon="8.5275783"><ele>22.0</ele><time>2026-05-02T12:58:51.488Z</time></trkpt><trkpt lat="40.019927" lon="8.5274144"><ele>22.0</ele><time>2026-05-02T12:58:52.489Z</time></trkpt><trkpt lat="40.0199553" lon="8.5272471"><ele>22.0</ele><time>2026-05-02T12:58:53.487Z</time></trkpt><trkpt lat="40.0199848" lon="8.5270768"><ele>22.25</ele><time>2026-05-02T12:58:54.488Z</time></trkpt><trkpt lat="40.020019" lon="8.526907"><ele>22.5</ele><time>2026-05-02T12:58:55.488Z</time></trkpt><trkpt lat="40.0200566" lon="8.5267438"><ele>22.75</ele><time>2026-05-02T12:58:56.488Z</time></trkpt><trkpt lat="40.0200894" lon="8.52658"><ele>23.0</ele><time>2026-05-02T12:58:57.488Z</time></trkpt><trkpt lat="40.0201244" lon="8.5264173"><ele>23.0</ele><time>2026-05-02T12:58:58.489Z</time></trkpt><trkpt lat="40.0201562" lon="8.5262498"><ele>23.0</ele><time>2026-05-02T12:58:59.488Z</time></trkpt><trkpt lat="40.0201884" lon="8.5260841"><ele>23.0</ele><time>2026-05-02T12:59:00.488Z</time></trkpt><trkpt lat="40.0202245" lon="8.5259186"><ele>23.0</ele><time>2026-05-02T12:59:01.488Z</time></trkpt><trkpt lat="40.0202642" lon="8.5257493"><ele>22.5</ele><time>2026-05-02T12:59:02.488Z</time></trkpt><trkpt lat="40.0203023" lon="8.5255823"><ele>22.0</ele><time>2026-05-02T12:59:03.488Z</time></trkpt><trkpt lat="40.0203384" lon="8.5254153"><ele>21.5</ele><time>2026-05-02T12:59:04.487Z</time></trkpt><trkpt lat="40.020366" lon="8.5252438"><ele>21.0</ele><time>2026-05-02T12:59:05.488Z</time></trkpt><trkpt lat="40.0203893" lon="8.5250715"><ele>20.5</ele><time>2026-05-02T12:59:06.488Z</time></trkpt><trkpt lat="40.0204099" lon="8.5248997"><ele>20.0</ele><time>2026-05-02T12:59:07.488Z</time></trkpt><trkpt lat="40.0204271" lon="8.5247332"><ele>19.5</ele><time>2026-05-02T12:59:08.489Z</time></trkpt><trkpt lat="40.0204538" lon="8.5245716"><ele>19.0</ele><time>2026-05-02T12:59:09.489Z</time></trkpt><trkpt lat="40.0204948" lon="8.5244087"><ele>19.0</ele><time>2026-05-02T12:59:10.489Z</time></trkpt><trkpt lat="40.0205393" lon="8.5242491"><ele>19.0</ele><time>2026-05-02T12:59:11.489Z</time></trkpt><trkpt lat="40.020583" lon="8.5240878"><ele>19.0</ele><time>2026-05-02T12:59:12.488Z</time></trkpt><trkpt lat="40.0206223" lon="8.5239237"><ele>19.0</ele><time>2026-05-02T12:59:13.487Z</time></trkpt><trkpt lat="40.0206525" lon="8.5237563"><ele>19.25</ele><time>2026-05-02T12:59:14.488Z</time></trkpt><trkpt lat="40.0206839" lon="8.5235952"><ele>19.5</ele><time>2026-05-02T12:59:15.488Z</time></trkpt><trkpt lat="40.0207145" lon="8.5234415"><ele>19.75</ele><time>2026-05-02T12:59:16.487Z</time></trkpt><trkpt lat="40.0207341" lon="8.5232709"><ele>20.0</ele><time>2026-05-02T12:59:17.488Z</time></trkpt><trkpt lat="40.0207403" lon="8.523093"><ele>20.0</ele><time>2026-05-02T12:59:18.488Z</time></trkpt><trkpt lat="40.0207452" lon="8.5229198"><ele>20.0</ele><time>2026-05-02T12:59:19.488Z</time></trkpt><trkpt lat="40.0207569" lon="8.5227466"><ele>20.0</ele><time>2026-05-02T12:59:20.488Z</time></trkpt><trkpt lat="40.0207796" lon="8.5225823"><ele>20.0</ele><time>2026-05-02T12:59:21.489Z</time></trkpt><trkpt lat="40.0208036" lon="8.5224435"><ele>20.0</ele><time>2026-05-02T12:59:22.488Z</time></trkpt><trkpt lat="40.0208274" lon="8.5223233"><ele>20.0</ele><time>2026-05-02T12:59:23.488Z</time></trkpt><trkpt lat="40.0208516" lon="8.5222212"><ele>20.0</ele><time>2026-05-02T12:59:24.488Z</time></trkpt><trkpt lat="40.0208672" lon="8.5220766"><ele>20.0</ele><time>2026-05-02T12:59:26.489Z</time></trkpt><trkpt lat="40.0208451" lon="8.5219598"><ele>20.0</ele><time>2026-05-02T12:59:29.487Z</time></trkpt><trkpt lat="40.0208317" lon="8.5217963"><ele>19.5</ele><time>2026-05-02T12:59:31.49Z</time></trkpt><trkpt lat="40.0208442" lon="8.5216778"><ele>19.0</ele><time>2026-05-02T12:59:32.489Z</time></trkpt><trkpt lat="40.020857" lon="8.5215397"><ele>18.5</ele><time>2026-05-02T12:59:33.487Z</time></trkpt><trkpt lat="40.0208651" lon="8.5213799"><ele>18.0</ele><time>2026-05-02T12:59:34.488Z</time></trkpt><trkpt lat="40.0208871" lon="8.5211946"><ele>17.333333333333332</ele><time>2026-05-02T12:59:35.488Z</time></trkpt><trkpt lat="40.0209162" lon="8.5210047"><ele>16.666666666666664</ele><time>2026-05-02T12:59:36.488Z</time></trkpt><trkpt lat="40.0209458" lon="8.5208083"><ele>16.0</ele><time>2026-05-02T12:59:37.487Z</time></trkpt><trkpt lat="40.0209732" lon="8.5205994"><ele>16.333333333333332</ele><time>2026-05-02T12:59:38.489Z</time></trkpt><trkpt lat="40.0209919" lon="8.5203844"><ele>16.666666666666668</ele><time>2026-05-02T12:59:39.487Z</time></trkpt><trkpt lat="40.0210039" lon="8.5201569"><ele>17.0</ele><time>2026-05-02T12:59:40.488Z</time></trkpt><trkpt lat="40.021006" lon="8.5199286"><ele>17.0</ele><time>2026-05-02T12:59:41.488Z</time></trkpt><trkpt lat="40.0210028" lon="8.5197039"><ele>17.0</ele><time>2026-05-02T12:59:42.488Z</time></trkpt><trkpt lat="40.021001" lon="8.519489"><ele>17.0</ele><time>2026-05-02T12:59:43.487Z</time></trkpt><trkpt lat="40.0209881" lon="8.5192813"><ele>17.25</ele><time>2026-05-02T12:59:44.489Z</time></trkpt><trkpt lat="40.0209831" lon="8.5190787"><ele>17.5</ele><time>2026-05-02T12:59:45.487Z</time></trkpt><trkpt lat="40.0209849" lon="8.5188904"><ele>17.75</ele><time>2026-05-02T12:59:46.489Z</time></trkpt><trkpt lat="40.0209976" lon="8.5187075"><ele>18.0</ele><time>2026-05-02T12:59:47.488Z</time></trkpt><trkpt lat="40.0210117" lon="8.5185404"><ele>18.0</ele><time>2026-05-02T12:59:48.489Z</time></trkpt><trkpt lat="40.0210174" lon="8.5183996"><ele>18.0</ele><time>2026-05-02T12:59:49.488Z</time></trkpt><trkpt lat="40.0210194" lon="8.5182802"><ele>18.0</ele><time>2026-05-02T12:59:50.489Z</time></trkpt><trkpt lat="40.021017" lon="8.5181764"><ele>18.0</ele><time>2026-05-02T12:59:51.488Z</time></trkpt><trkpt lat="40.0210125" lon="8.5180877"><ele>18.0</ele><time>2026-05-02T12:59:52.488Z</time></trkpt><trkpt lat="40.0210041" lon="8.5179333"><ele>18.0</ele><time>2026-05-02T12:59:54.488Z</time></trkpt><trkpt lat="40.0209981" lon="8.5178391"><ele>18.0</ele><time>2026-05-02T12:59:55.489Z</time></trkpt><trkpt lat="40.0209913" lon="8.5177287"><ele>18.0</ele><time>2026-05-02T12:59:56.489Z</time></trkpt><trkpt lat="40.0209785" lon="8.5176418"><ele>18.0</ele><time>2026-05-02T12:59:57.488Z</time></trkpt><trkpt lat="40.0209663" lon="8.5174943"><ele>18.0</ele><time>2026-05-02T12:59:59.488Z</time></trkpt><trkpt lat="40.0209469" lon="8.517385"><ele>18.0</ele><time>2026-05-02T13:00:01.488Z</time></trkpt><trkpt lat="40.0209532" lon="8.5174973"><ele>18.0</ele><time>2026-05-02T13:00:08.488Z</time></trkpt><trkpt lat="40.0209641" lon="8.5175909"><ele>18.0</ele><time>2026-05-02T13:00:09.489Z</time></trkpt><trkpt lat="40.0209712" lon="8.5176917"><ele>18.0</ele><time>2026-05-02T13:00:10.489Z</time></trkpt><trkpt lat="40.0209815" lon="8.5178207"><ele>18.0</ele><time>2026-05-02T13:00:11.487Z</time></trkpt><trkpt lat="40.0209949" lon="8.5179579"><ele>18.0</ele><time>2026-05-02T13:00:12.488Z</time></trkpt><trkpt lat="40.0210068" lon="8.5180835"><ele>18.0</ele><time>2026-05-02T13:00:13.488Z</time></trkpt><trkpt lat="40.0210089" lon="8.5181947"><ele>18.0</ele><time>2026-05-02T13:00:14.487Z</time></trkpt><trkpt lat="40.0210096" lon="8.5182862"><ele>18.0</ele><time>2026-05-02T13:00:15.488Z</time></trkpt><trkpt lat="40.0210102" lon="8.5183686"><ele>18.0</ele><time>2026-05-02T13:00:16.488Z</time></trkpt><trkpt lat="40.021005" lon="8.5185116"><ele>18.0</ele><time>2026-05-02T13:00:18.488Z</time></trkpt><trkpt lat="40.0209618" lon="8.5185824"><ele>18.0</ele><time>2026-05-02T13:00:21.489Z</time></trkpt><trkpt lat="40.0208424" lon="8.5185896"><ele>17.8</ele><time>2026-05-02T13:00:24.488Z</time></trkpt><trkpt lat="40.0207726" lon="8.5186137"><ele>17.6</ele><time>2026-05-02T13:00:25.488Z</time></trkpt><trkpt lat="40.020688" lon="8.5186352"><ele>17.4</ele><time>2026-05-02T13:00:26.488Z</time></trkpt><trkpt lat="40.0205906" lon="8.5186487"><ele>17.2</ele><time>2026-05-02T13:00:27.488Z</time></trkpt><trkpt lat="40.0204869" lon="8.5186714"><ele>17.0</ele><time>2026-05-02T13:00:28.488Z</time></trkpt><trkpt lat="40.0203844" lon="8.5186999"><ele>17.0</ele><time>2026-05-02T13:00:29.487Z</time></trkpt><trkpt lat="40.0202786" lon="8.5187281"><ele>17.0</ele><time>2026-05-02T13:00:30.488Z</time></trkpt><trkpt lat="40.020172" lon="8.5187579"><ele>17.0</ele><time>2026-05-02T13:00:31.488Z</time></trkpt><trkpt lat="40.0200635" lon="8.5187871"><ele>17.0</ele><time>2026-05-02T13:00:32.488Z</time></trkpt><trkpt lat="40.0199532" lon="8.5188079"><ele>17.0</ele><time>2026-05-02T13:00:33.487Z</time></trkpt><trkpt lat="40.0198428" lon="8.5188262"><ele>16.6</ele><time>2026-05-02T13:00:34.488Z</time></trkpt><trkpt lat="40.0197331" lon="8.518848"><ele>16.2</ele><time>2026-05-02T13:00:35.488Z</time></trkpt><trkpt lat="40.0196339" lon="8.5188723"><ele>15.8</ele><time>2026-05-02T13:00:36.487Z</time></trkpt><trkpt lat="40.0195333" lon="8.518894"><ele>15.4</ele><time>2026-05-02T13:00:37.487Z</time></trkpt><trkpt lat="40.0194379" lon="8.5189142"><ele>15.0</ele><time>2026-05-02T13:00:38.489Z</time></trkpt><trkpt lat="40.0193374" lon="8.5189318"><ele>15.0</ele><time>2026-05-02T13:00:39.489Z</time></trkpt><trkpt lat="40.0192441" lon="8.5189505"><ele>15.0</ele><time>2026-05-02T13:00:40.487Z</time></trkpt><trkpt lat="40.0191509" lon="8.5189736"><ele>15.0</ele><time>2026-05-02T13:00:41.487Z</time></trkpt><trkpt lat="40.0190576" lon="8.5190159"><ele>15.0</ele><time>2026-05-02T13:00:42.488Z</time></trkpt><trkpt lat="40.0189676" lon="8.519065"><ele>15.0</ele><time>2026-05-02T13:00:43.488Z</time></trkpt><trkpt lat="40.0188752" lon="8.519119"><ele>15.4</ele><time>2026-05-02T13:00:44.487Z</time></trkpt><trkpt lat="40.0187841" lon="8.5191775"><ele>15.8</ele><time>2026-05-02T13:00:45.487Z</time></trkpt><trkpt lat="40.0186929" lon="8.5192558"><ele>16.2</ele><time>2026-05-02T13:00:46.488Z</time></trkpt><trkpt lat="40.0186045" lon="8.5193307"><ele>16.6</ele><time>2026-05-02T13:00:47.489Z</time></trkpt><trkpt lat="40.0185155" lon="8.5194001"><ele>17.0</ele><time>2026-05-02T13:00:48.487Z</time></trkpt><trkpt lat="40.0184253" lon="8.5194606"><ele>17.0</ele><time>2026-05-02T13:00:49.489Z</time></trkpt><trkpt lat="40.0183323" lon="8.5195178"><ele>17.0</ele><time>2026-05-02T13:00:50.488Z</time></trkpt><trkpt lat="40.0182382" lon="8.5195883"><ele>17.0</ele><time>2026-05-02T13:00:51.488Z</time></trkpt><trkpt lat="40.0181447" lon="8.5196655"><ele>17.0</ele><time>2026-05-02T13:00:52.487Z</time></trkpt><trkpt lat="40.0180513" lon="8.5197404"><ele>17.0</ele><time>2026-05-02T13:00:53.489Z</time></trkpt><trkpt lat="40.0179558" lon="8.5198173"><ele>16.5</ele><time>2026-05-02T13:00:54.489Z</time></trkpt><trkpt lat="40.0178611" lon="8.5198992"><ele>16.0</ele><time>2026-05-02T13:00:55.488Z</time></trkpt><trkpt lat="40.0177653" lon="8.5199786"><ele>15.5</ele><time>2026-05-02T13:00:56.488Z</time></trkpt><trkpt lat="40.0176665" lon="8.5200612"><ele>15.0</ele><time>2026-05-02T13:00:57.488Z</time></trkpt><trkpt lat="40.0175718" lon="8.5201471"><ele>15.0</ele><time>2026-05-02T13:00:58.487Z</time></trkpt><trkpt lat="40.017479" lon="8.5202303"><ele>15.0</ele><time>2026-05-02T13:00:59.487Z</time></trkpt><trkpt lat="40.0173835" lon="8.5203033"><ele>15.0</ele><time>2026-05-02T13:01:00.487Z</time></trkpt><trkpt lat="40.0172836" lon="8.5203727"><ele>15.0</ele><time>2026-05-02T13:01:01.488Z</time></trkpt><trkpt lat="40.0171764" lon="8.5204431"><ele>14.75</ele><time>2026-05-02T13:01:02.487Z</time></trkpt><trkpt lat="40.0170626" lon="8.5205062"><ele>14.5</ele><time>2026-05-02T13:01:03.489Z</time></trkpt><trkpt lat="40.0169496" lon="8.5205666"><ele>14.25</ele><time>2026-05-02T13:01:04.488Z</time></trkpt><trkpt lat="40.0168349" lon="8.5206253"><ele>14.0</ele><time>2026-05-02T13:01:05.487Z</time></trkpt><trkpt lat="40.0167189" lon="8.520687"><ele>13.75</ele><time>2026-05-02T13:01:06.488Z</time></trkpt><trkpt lat="40.0166047" lon="8.520743"><ele>13.5</ele><time>2026-05-02T13:01:07.489Z</time></trkpt><trkpt lat="40.0164932" lon="8.5208086"><ele>13.25</ele><time>2026-05-02T13:01:08.488Z</time></trkpt><trkpt lat="40.0163817" lon="8.5208809"><ele>13.0</ele><time>2026-05-02T13:01:09.489Z</time></trkpt><trkpt lat="40.0162657" lon="8.5209421"><ele>13.0</ele><time>2026-05-02T13:01:10.489Z</time></trkpt><trkpt lat="40.0161516" lon="8.5210081"><ele>13.0</ele><time>2026-05-02T13:01:11.488Z</time></trkpt><trkpt lat="40.016045" lon="8.5210797"><ele>13.0</ele><time>2026-05-02T13:01:12.487Z</time></trkpt><trkpt lat="40.0159471" lon="8.521153"><ele>13.0</ele><time>2026-05-02T13:01:13.488Z</time></trkpt><trkpt lat="40.0158493" lon="8.5212168"><ele>12.75</ele><time>2026-05-02T13:01:14.487Z</time></trkpt><trkpt lat="40.0157474" lon="8.5212793"><ele>12.5</ele><time>2026-05-02T13:01:15.487Z</time></trkpt><trkpt lat="40.0156372" lon="8.5213413"><ele>12.25</ele><time>2026-05-02T13:01:16.488Z</time></trkpt><trkpt lat="40.0155243" lon="8.5214008"><ele>12.0</ele><time>2026-05-02T13:01:17.487Z</time></trkpt><trkpt lat="40.015409" lon="8.5214563"><ele>12.0</ele><time>2026-05-02T13:01:18.488Z</time></trkpt><trkpt lat="40.0152931" lon="8.5215173"><ele>12.0</ele><time>2026-05-02T13:01:19.488Z</time></trkpt><trkpt lat="40.0151748" lon="8.5215734"><ele>12.0</ele><time>2026-05-02T13:01:20.488Z</time></trkpt><trkpt lat="40.0150506" lon="8.5216221"><ele>12.0</ele><time>2026-05-02T13:01:21.489Z</time></trkpt><trkpt lat="40.0149292" lon="8.5216687"><ele>12.2</ele><time>2026-05-02T13:01:22.488Z</time></trkpt><trkpt lat="40.0148132" lon="8.5217194"><ele>12.399999999999999</ele><time>2026-05-02T13:01:23.488Z</time></trkpt><trkpt lat="40.0147104" lon="8.5217578"><ele>12.600000000000001</ele><time>2026-05-02T13:01:24.489Z</time></trkpt><trkpt lat="40.0146055" lon="8.5217856"><ele>12.8</ele><time>2026-05-02T13:01:25.488Z</time></trkpt><trkpt lat="40.0144976" lon="8.5218057"><ele>13.0</ele><time>2026-05-02T13:01:26.488Z</time></trkpt><trkpt lat="40.0143926" lon="8.5218339"><ele>13.0</ele><time>2026-05-02T13:01:27.488Z</time></trkpt><trkpt lat="40.0142765" lon="8.5219042"><ele>13.0</ele><time>2026-05-02T13:01:28.488Z</time></trkpt><trkpt lat="40.0141559" lon="8.5219888"><ele>13.0</ele><time>2026-05-02T13:01:29.488Z</time></trkpt><trkpt lat="40.0140375" lon="8.5220753"><ele>13.0</ele><time>2026-05-02T13:01:30.487Z</time></trkpt><trkpt lat="40.013936" lon="8.5221604"><ele>12.5</ele><time>2026-05-02T13:01:31.489Z</time></trkpt><trkpt lat="40.013841" lon="8.5222687"><ele>12.0</ele><time>2026-05-02T13:01:32.487Z</time></trkpt><trkpt lat="40.0137402" lon="8.5224058"><ele>11.5</ele><time>2026-05-02T13:01:33.487Z</time></trkpt><trkpt lat="40.0136542" lon="8.5225153"><ele>11.0</ele><time>2026-05-02T13:01:34.488Z</time></trkpt><trkpt lat="40.0135595" lon="8.5226118"><ele>11.0</ele><time>2026-05-02T13:01:35.487Z</time></trkpt><trkpt lat="40.0134596" lon="8.5227019"><ele>11.0</ele><time>2026-05-02T13:01:36.488Z</time></trkpt><trkpt lat="40.0133732" lon="8.522803"><ele>11.0</ele><time>2026-05-02T13:01:37.489Z</time></trkpt><trkpt lat="40.0132912" lon="8.5229058"><ele>11.0</ele><time>2026-05-02T13:01:38.489Z</time></trkpt><trkpt lat="40.0132067" lon="8.5229925"><ele>10.600000000000001</ele><time>2026-05-02T13:01:39.487Z</time></trkpt><trkpt lat="40.0131275" lon="8.5230697"><ele>10.200000000000001</ele><time>2026-05-02T13:01:40.488Z</time></trkpt><trkpt lat="40.0130622" lon="8.5231369"><ele>9.8</ele><time>2026-05-02T13:01:41.488Z</time></trkpt><trkpt lat="40.0130021" lon="8.5231933"><ele>9.4</ele><time>2026-05-02T13:01:42.488Z</time></trkpt><trkpt lat="40.0129148" lon="8.5232727"><ele>9.0</ele><time>2026-05-02T13:01:44.486Z</time></trkpt><trkpt lat="40.0128314" lon="8.5233481"><ele>9.0</ele><time>2026-05-02T13:01:48.486Z</time></trkpt><trkpt lat="40.0127148" lon="8.5234591"><ele>9.0</ele><time>2026-05-02T13:01:50.486Z</time></trkpt><trkpt lat="40.0126342" lon="8.5235286"><ele>9.0</ele><time>2026-05-02T13:01:51.487Z</time></trkpt><trkpt lat="40.0125465" lon="8.5236202"><ele>9.0</ele><time>2026-05-02T13:01:52.487Z</time></trkpt><trkpt lat="40.012451" lon="8.5237058"><ele>9.25</ele><time>2026-05-02T13:01:53.486Z</time></trkpt><trkpt lat="40.0123429" lon="8.5237923"><ele>9.5</ele><time>2026-05-02T13:01:54.487Z</time></trkpt><trkpt lat="40.0122308" lon="8.5238823"><ele>9.75</ele><time>2026-05-02T13:01:55.486Z</time></trkpt><trkpt lat="40.0121155" lon="8.5239741"><ele>10.0</ele><time>2026-05-02T13:01:56.487Z</time></trkpt><trkpt lat="40.0120023" lon="8.5240656"><ele>10.0</ele><time>2026-05-02T13:01:57.488Z</time></trkpt><trkpt lat="40.0118921" lon="8.5241482"><ele>10.0</ele><time>2026-05-02T13:01:58.486Z</time></trkpt><trkpt lat="40.0117817" lon="8.5242303"><ele>10.0</ele><time>2026-05-02T13:01:59.486Z</time></trkpt><trkpt lat="40.0116804" lon="8.5243074"><ele>10.0</ele><time>2026-05-02T13:02:00.487Z</time></trkpt><trkpt lat="40.0115787" lon="8.5243815"><ele>10.25</ele><time>2026-05-02T13:02:01.486Z</time></trkpt><trkpt lat="40.0114794" lon="8.5244565"><ele>10.5</ele><time>2026-05-02T13:02:02.487Z</time></trkpt><trkpt lat="40.011383" lon="8.5245366"><ele>10.75</ele><time>2026-05-02T13:02:03.487Z</time></trkpt><trkpt lat="40.0112897" lon="8.5246298"><ele>11.0</ele><time>2026-05-02T13:02:04.488Z</time></trkpt><trkpt lat="40.0112024" lon="8.524739"><ele>11.0</ele><time>2026-05-02T13:02:05.488Z</time></trkpt><trkpt lat="40.0111107" lon="8.5248456"><ele>11.0</ele><time>2026-05-02T13:02:06.488Z</time></trkpt><trkpt lat="40.0110092" lon="8.5249426"><ele>11.0</ele><time>2026-05-02T13:02:07.488Z</time></trkpt><trkpt lat="40.0109124" lon="8.5250425"><ele>11.0</ele><time>2026-05-02T13:02:08.488Z</time></trkpt><trkpt lat="40.0108206" lon="8.5251543"><ele>11.0</ele><time>2026-05-02T13:02:09.486Z</time></trkpt><trkpt lat="40.0107315" lon="8.5252704"><ele>11.0</ele><time>2026-05-02T13:02:10.488Z</time></trkpt><trkpt lat="40.0106436" lon="8.525386"><ele>11.0</ele><time>2026-05-02T13:02:11.488Z</time></trkpt><trkpt lat="40.0105548" lon="8.5254997"><ele>11.0</ele><time>2026-05-02T13:02:12.487Z</time></trkpt><trkpt lat="40.0104665" lon="8.525611"><ele>10.5</ele><time>2026-05-02T13:02:13.487Z</time></trkpt><trkpt lat="40.0103771" lon="8.5257209"><ele>10.0</ele><time>2026-05-02T13:02:14.487Z</time></trkpt><trkpt lat="40.0102869" lon="8.5258307"><ele>9.5</ele><time>2026-05-02T13:02:15.486Z</time></trkpt><trkpt lat="40.0101991" lon="8.525942"><ele>9.0</ele><time>2026-05-02T13:02:16.487Z</time></trkpt><trkpt lat="40.0101142" lon="8.5260592"><ele>9.0</ele><time>2026-05-02T13:02:17.486Z</time></trkpt><trkpt lat="40.0100295" lon="8.5261734"><ele>9.0</ele><time>2026-05-02T13:02:18.487Z</time></trkpt><trkpt lat="40.0099419" lon="8.5262885"><ele>9.0</ele><time>2026-05-02T13:02:19.487Z</time></trkpt><trkpt lat="40.0098544" lon="8.5264041"><ele>9.0</ele><time>2026-05-02T13:02:20.486Z</time></trkpt><trkpt lat="40.0097673" lon="8.5265195"><ele>9.0</ele><time>2026-05-02T13:02:21.487Z</time></trkpt><trkpt lat="40.0096803" lon="8.5266411"><ele>9.0</ele><time>2026-05-02T13:02:22.487Z</time></trkpt><trkpt lat="40.0095912" lon="8.5267628"><ele>9.0</ele><time>2026-05-02T13:02:23.486Z</time></trkpt><trkpt lat="40.0095032" lon="8.5268895"><ele>9.0</ele><time>2026-05-02T13:02:24.487Z</time></trkpt><trkpt lat="40.0094177" lon="8.5270103"><ele>9.0</ele><time>2026-05-02T13:02:25.486Z</time></trkpt><trkpt lat="40.0093276" lon="8.5271319"><ele>9.0</ele><time>2026-05-02T13:02:26.486Z</time></trkpt><trkpt lat="40.0092363" lon="8.5272464"><ele>9.0</ele><time>2026-05-02T13:02:27.488Z</time></trkpt><trkpt lat="40.0091459" lon="8.5273541"><ele>9.0</ele><time>2026-05-02T13:02:28.487Z</time></trkpt><trkpt lat="40.0090575" lon="8.5274581"><ele>9.0</ele><time>2026-05-02T13:02:29.487Z</time></trkpt><trkpt lat="40.0089632" lon="8.5275538"><ele>9.0</ele><time>2026-05-02T13:02:30.487Z</time></trkpt><trkpt lat="40.0088577" lon="8.5276372"><ele>9.0</ele><time>2026-05-02T13:02:31.487Z</time></trkpt><trkpt lat="40.0087523" lon="8.5277121"><ele>9.0</ele><time>2026-05-02T13:02:32.487Z</time></trkpt><trkpt lat="40.0086505" lon="8.5277901"><ele>9.0</ele><time>2026-05-02T13:02:33.488Z</time></trkpt><trkpt lat="40.0085557" lon="8.5278839"><ele>9.0</ele><time>2026-05-02T13:02:34.487Z</time></trkpt><trkpt lat="40.0084685" lon="8.5279917"><ele>9.0</ele><time>2026-05-02T13:02:35.486Z</time></trkpt><trkpt lat="40.0083817" lon="8.5281095"><ele>9.0</ele><time>2026-05-02T13:02:36.487Z</time></trkpt><trkpt lat="40.0082941" lon="8.5282267"><ele>8.25</ele><time>2026-05-02T13:02:37.488Z</time></trkpt><trkpt lat="40.0082041" lon="8.5283434"><ele>7.5</ele><time>2026-05-02T13:02:38.487Z</time></trkpt><trkpt lat="40.0081126" lon="8.5284635"><ele>6.75</ele><time>2026-05-02T13:02:39.487Z</time></trkpt><trkpt lat="40.0080214" lon="8.5285849"><ele>6.0</ele><time>2026-05-02T13:02:40.487Z</time></trkpt><trkpt lat="40.0079316" lon="8.5287046"><ele>6.75</ele><time>2026-05-02T13:02:41.486Z</time></trkpt><trkpt lat="40.0078385" lon="8.5288263"><ele>7.5</ele><time>2026-05-02T13:02:42.487Z</time></trkpt><trkpt lat="40.0077473" lon="8.5289365"><ele>8.25</ele><time>2026-05-02T13:02:43.487Z</time></trkpt><trkpt lat="40.0076559" lon="8.5290326"><ele>9.0</ele><time>2026-05-02T13:02:44.487Z</time></trkpt><trkpt lat="40.0075459" lon="8.529119"><ele>8.8</ele><time>2026-05-02T13:02:45.487Z</time></trkpt><trkpt lat="40.007429" lon="8.5291934"><ele>8.600000000000001</ele><time>2026-05-02T13:02:46.487Z</time></trkpt><trkpt lat="40.0073246" lon="8.529262"><ele>8.4</ele><time>2026-05-02T13:02:47.486Z</time></trkpt><trkpt lat="40.0072312" lon="8.5293265"><ele>8.200000000000001</ele><time>2026-05-02T13:02:48.486Z</time></trkpt><trkpt lat="40.0071495" lon="8.5293753"><ele>8.0</ele><time>2026-05-02T13:02:49.486Z</time></trkpt><trkpt lat="40.0070792" lon="8.5294001"><ele>7.999999999999999</ele><time>2026-05-02T13:02:50.486Z</time></trkpt><trkpt lat="40.0070026" lon="8.5293807"><ele>8.0</ele><time>2026-05-02T13:02:52.487Z</time></trkpt><trkpt lat="40.0069899" lon="8.5292935"><ele>8.0</ele><time>2026-05-02T13:02:54.487Z</time></trkpt><trkpt lat="40.0070163" lon="8.5292017"><ele>8.0</ele><time>2026-05-02T13:02:55.486Z</time></trkpt><trkpt lat="40.0070488" lon="8.5290901"><ele>7.999999999999999</ele><time>2026-05-02T13:02:56.487Z</time></trkpt><trkpt lat="40.0070679" lon="8.5289542"><ele>8.0</ele><time>2026-05-02T13:02:57.487Z</time></trkpt><trkpt lat="40.007093" lon="8.5288239"><ele>7.5</ele><time>2026-05-02T13:02:58.487Z</time></trkpt><trkpt lat="40.0071227" lon="8.5286902"><ele>7.0</ele><time>2026-05-02T13:02:59.487Z</time></trkpt><trkpt lat="40.0071516" lon="8.5285476"><ele>6.5</ele><time>2026-05-02T13:03:00.487Z</time></trkpt><trkpt lat="40.0071809" lon="8.5283996"><ele>6.0</ele><time>2026-05-02T13:03:01.487Z</time></trkpt><trkpt lat="40.0072108" lon="8.5282541"><ele>6.0</ele><time>2026-05-02T13:03:02.487Z</time></trkpt><trkpt lat="40.0072404" lon="8.5281076"><ele>6.0</ele><time>2026-05-02T13:03:03.487Z</time></trkpt><trkpt lat="40.0072667" lon="8.5279555"><ele>6.0</ele><time>2026-05-02T13:03:04.487Z</time></trkpt><trkpt lat="40.0072939" lon="8.5278037"><ele>6.0</ele><time>2026-05-02T13:03:05.486Z</time></trkpt><trkpt lat="40.00732" lon="8.5276497"><ele>6.25</ele><time>2026-05-02T13:03:06.487Z</time></trkpt><trkpt lat="40.0073465" lon="8.5274972"><ele>6.5</ele><time>2026-05-02T13:03:07.487Z</time></trkpt><trkpt lat="40.0073757" lon="8.5273431"><ele>6.75</ele><time>2026-05-02T13:03:08.487Z</time></trkpt><trkpt lat="40.0074015" lon="8.5271866"><ele>7.0</ele><time>2026-05-02T13:03:09.486Z</time></trkpt><trkpt lat="40.0074263" lon="8.5270227"><ele>7.75</ele><time>2026-05-02T13:03:10.487Z</time></trkpt><trkpt lat="40.0074527" lon="8.5268615"><ele>8.5</ele><time>2026-05-02T13:03:11.488Z</time></trkpt><trkpt lat="40.0074803" lon="8.5266988"><ele>9.25</ele><time>2026-05-02T13:03:12.489Z</time></trkpt><trkpt lat="40.0075079" lon="8.5265391"><ele>10.0</ele><time>2026-05-02T13:03:13.487Z</time></trkpt><trkpt lat="40.0075332" lon="8.526381"><ele>10.0</ele><time>2026-05-02T13:03:14.486Z</time></trkpt><trkpt lat="40.0075561" lon="8.5262205"><ele>10.0</ele><time>2026-05-02T13:03:15.487Z</time></trkpt><trkpt lat="40.0075832" lon="8.5260634"><ele>10.0</ele><time>2026-05-02T13:03:16.486Z</time></trkpt><trkpt lat="40.0076083" lon="8.525905"><ele>10.0</ele><time>2026-05-02T13:03:17.486Z</time></trkpt><trkpt lat="40.0076341" lon="8.5257528"><ele>10.0</ele><time>2026-05-02T13:03:18.489Z</time></trkpt><trkpt lat="40.0076601" lon="8.5256063"><ele>10.0</ele><time>2026-05-02T13:03:19.486Z</time></trkpt><trkpt lat="40.0076868" lon="8.5254635"><ele>10.0</ele><time>2026-05-02T13:03:20.487Z</time></trkpt><trkpt lat="40.0077105" lon="8.5253182"><ele>10.0</ele><time>2026-05-02T13:03:21.488Z</time></trkpt><trkpt lat="40.0077386" lon="8.5251663"><ele>9.75</ele><time>2026-05-02T13:03:22.487Z</time></trkpt><trkpt lat="40.0077655" lon="8.525021"><ele>9.5</ele><time>2026-05-02T13:03:23.488Z</time></trkpt><trkpt lat="40.0077902" lon="8.5248779"><ele>9.25</ele><time>2026-05-02T13:03:24.487Z</time></trkpt><trkpt lat="40.0078197" lon="8.5247308"><ele>9.0</ele><time>2026-05-02T13:03:25.488Z</time></trkpt><trkpt lat="40.0078537" lon="8.524577"><ele>9.0</ele><time>2026-05-02T13:03:26.487Z</time></trkpt><trkpt lat="40.0078899" lon="8.5244239"><ele>9.0</ele><time>2026-05-02T13:03:27.487Z</time></trkpt><trkpt lat="40.0079253" lon="8.5242605"><ele>9.0</ele><time>2026-05-02T13:03:28.488Z</time></trkpt><trkpt lat="40.0079563" lon="8.5240979"><ele>9.0</ele><time>2026-05-02T13:03:29.486Z</time></trkpt><trkpt lat="40.0079917" lon="8.5239305"><ele>9.0</ele><time>2026-05-02T13:03:30.487Z</time></trkpt><trkpt lat="40.0080221" lon="8.5237681"><ele>9.0</ele><time>2026-05-02T13:03:31.487Z</time></trkpt><trkpt lat="40.0080529" lon="8.5236023"><ele>9.0</ele><time>2026-05-02T13:03:32.487Z</time></trkpt><trkpt lat="40.0080819" lon="8.5234369"><ele>9.0</ele><time>2026-05-02T13:03:33.488Z</time></trkpt><trkpt lat="40.0081162" lon="8.5232699"><ele>8.75</ele><time>2026-05-02T13:03:34.487Z</time></trkpt><trkpt lat="40.008146" lon="8.5231061"><ele>8.5</ele><time>2026-05-02T13:03:35.489Z</time></trkpt><trkpt lat="40.0081752" lon="8.5229418"><ele>8.25</ele><time>2026-05-02T13:03:36.488Z</time></trkpt><trkpt lat="40.0082049" lon="8.5227745"><ele>8.0</ele><time>2026-05-02T13:03:37.487Z</time></trkpt><trkpt lat="40.0082362" lon="8.5226056"><ele>8.0</ele><time>2026-05-02T13:03:38.487Z</time></trkpt><trkpt lat="40.0082689" lon="8.5224374"><ele>8.0</ele><time>2026-05-02T13:03:39.486Z</time></trkpt><trkpt lat="40.0082972" lon="8.5222637"><ele>8.0</ele><time>2026-05-02T13:03:40.487Z</time></trkpt><trkpt lat="40.0083282" lon="8.522096"><ele>8.0</ele><time>2026-05-02T13:03:41.486Z</time></trkpt><trkpt lat="40.0083591" lon="8.5219281"><ele>8.25</ele><time>2026-05-02T13:03:42.487Z</time></trkpt><trkpt lat="40.0083875" lon="8.5217551"><ele>8.5</ele><time>2026-05-02T13:03:43.487Z</time></trkpt><trkpt lat="40.0084205" lon="8.5215811"><ele>8.75</ele><time>2026-05-02T13:03:44.486Z</time></trkpt><trkpt lat="40.0084568" lon="8.5214096"><ele>9.0</ele><time>2026-05-02T13:03:45.487Z</time></trkpt><trkpt lat="40.0084961" lon="8.5212335"><ele>8.5</ele><time>2026-05-02T13:03:46.487Z</time></trkpt><trkpt lat="40.0085326" lon="8.5210553"><ele>8.0</ele><time>2026-05-02T13:03:47.489Z</time></trkpt><trkpt lat="40.0085695" lon="8.5208803"><ele>7.5</ele><time>2026-05-02T13:03:48.488Z</time></trkpt><trkpt lat="40.0086083" lon="8.5207061"><ele>7.0</ele><time>2026-05-02T13:03:49.488Z</time></trkpt><trkpt lat="40.0086426" lon="8.5205314"><ele>7.0</ele><time>2026-05-02T13:03:50.487Z</time></trkpt><trkpt lat="40.0086758" lon="8.5203547"><ele>7.0</ele><time>2026-05-02T13:03:51.486Z</time></trkpt><trkpt lat="40.0087092" lon="8.5201802"><ele>7.0</ele><time>2026-05-02T13:03:52.487Z</time></trkpt><trkpt lat="40.0087432" lon="8.5200067"><ele>7.0</ele><time>2026-05-02T13:03:53.488Z</time></trkpt><trkpt lat="40.0087764" lon="8.5198359"><ele>7.0</ele><time>2026-05-02T13:03:54.488Z</time></trkpt><trkpt lat="40.0088117" lon="8.5196663"><ele>7.0</ele><time>2026-05-02T13:03:55.487Z</time></trkpt><trkpt lat="40.0088434" lon="8.5194911"><ele>7.0</ele><time>2026-05-02T13:03:56.486Z</time></trkpt><trkpt lat="40.0088766" lon="8.5193146"><ele>7.0</ele><time>2026-05-02T13:03:57.487Z</time></trkpt><trkpt lat="40.0089086" lon="8.5191441"><ele>7.0</ele><time>2026-05-02T13:03:58.488Z</time></trkpt><trkpt lat="40.0089394" lon="8.5189724"><ele>7.0</ele><time>2026-05-02T13:03:59.489Z</time></trkpt><trkpt lat="40.0089674" lon="8.518806"><ele>7.0</ele><time>2026-05-02T13:04:00.487Z</time></trkpt><trkpt lat="40.0089981" lon="8.5186337"><ele>7.0</ele><time>2026-05-02T13:04:01.488Z</time></trkpt><trkpt lat="40.0090305" lon="8.5184597"><ele>7.0</ele><time>2026-05-02T13:04:02.488Z</time></trkpt><trkpt lat="40.0090652" lon="8.518286"><ele>7.0</ele><time>2026-05-02T13:04:03.487Z</time></trkpt><trkpt lat="40.0091011" lon="8.5181082"><ele>7.0</ele><time>2026-05-02T13:04:04.488Z</time></trkpt><trkpt lat="40.0091358" lon="8.5179298"><ele>7.0</ele><time>2026-05-02T13:04:05.488Z</time></trkpt><trkpt lat="40.0091658" lon="8.5177573"><ele>7.5</ele><time>2026-05-02T13:04:06.488Z</time></trkpt><trkpt lat="40.0092013" lon="8.5175801"><ele>8.0</ele><time>2026-05-02T13:04:07.488Z</time></trkpt><trkpt lat="40.0092254" lon="8.5174062"><ele>8.5</ele><time>2026-05-02T13:04:08.487Z</time></trkpt><trkpt lat="40.00926" lon="8.5172308"><ele>9.0</ele><time>2026-05-02T13:04:09.488Z</time></trkpt><trkpt lat="40.0092908" lon="8.5170489"><ele>9.0</ele><time>2026-05-02T13:04:10.488Z</time></trkpt><trkpt lat="40.0093249" lon="8.5168713"><ele>9.0</ele><time>2026-05-02T13:04:11.487Z</time></trkpt><trkpt lat="40.009359" lon="8.5166966"><ele>9.0</ele><time>2026-05-02T13:04:12.486Z</time></trkpt><trkpt lat="40.0093897" lon="8.5165191"><ele>9.0</ele><time>2026-05-02T13:04:13.489Z</time></trkpt><trkpt lat="40.0094245" lon="8.516343"><ele>8.75</ele><time>2026-05-02T13:04:14.486Z</time></trkpt><trkpt lat="40.0094584" lon="8.5161667"><ele>8.5</ele><time>2026-05-02T13:04:15.488Z</time></trkpt><trkpt lat="40.0094901" lon="8.5159862"><ele>8.25</ele><time>2026-05-02T13:04:16.488Z</time></trkpt><trkpt lat="40.0095232" lon="8.5158048"><ele>8.0</ele><time>2026-05-02T13:04:17.487Z</time></trkpt><trkpt lat="40.0095549" lon="8.5156208"><ele>8.0</ele><time>2026-05-02T13:04:18.488Z</time></trkpt><trkpt lat="40.0095876" lon="8.5154357"><ele>8.0</ele><time>2026-05-02T13:04:19.488Z</time></trkpt><trkpt lat="40.0096229" lon="8.5152578"><ele>8.0</ele><time>2026-05-02T13:04:20.488Z</time></trkpt><trkpt lat="40.009658" lon="8.5150733"><ele>8.0</ele><time>2026-05-02T13:04:21.486Z</time></trkpt><trkpt lat="40.0096899" lon="8.5148859"><ele>7.75</ele><time>2026-05-02T13:04:22.488Z</time></trkpt><trkpt lat="40.0097181" lon="8.5147034"><ele>7.5</ele><time>2026-05-02T13:04:23.489Z</time></trkpt><trkpt lat="40.0097405" lon="8.5145254"><ele>7.25</ele><time>2026-05-02T13:04:24.487Z</time></trkpt><trkpt lat="40.0097614" lon="8.5143459"><ele>7.0</ele><time>2026-05-02T13:04:25.487Z</time></trkpt><trkpt lat="40.0097741" lon="8.5141676"><ele>6.75</ele><time>2026-05-02T13:04:26.488Z</time></trkpt><trkpt lat="40.0097822" lon="8.5139873"><ele>6.5</ele><time>2026-05-02T13:04:27.488Z</time></trkpt><trkpt lat="40.009783" lon="8.513805"><ele>6.25</ele><time>2026-05-02T13:04:28.487Z</time></trkpt><trkpt lat="40.0097784" lon="8.5136273"><ele>6.0</ele><time>2026-05-02T13:04:29.488Z</time></trkpt><trkpt lat="40.0097742" lon="8.5134435"><ele>6.5</ele><time>2026-05-02T13:04:30.488Z</time></trkpt><trkpt lat="40.009773" lon="8.5132669"><ele>7.0</ele><time>2026-05-02T13:04:31.487Z</time></trkpt><trkpt lat="40.0097695" lon="8.5130873"><ele>7.5</ele><time>2026-05-02T13:04:32.489Z</time></trkpt><trkpt lat="40.0097677" lon="8.5129084"><ele>8.0</ele><time>2026-05-02T13:04:33.488Z</time></trkpt><trkpt lat="40.009763" lon="8.5127282"><ele>8.25</ele><time>2026-05-02T13:04:34.487Z</time></trkpt><trkpt lat="40.0097616" lon="8.5125471"><ele>8.5</ele><time>2026-05-02T13:04:35.487Z</time></trkpt><trkpt lat="40.0097655" lon="8.5123659"><ele>8.75</ele><time>2026-05-02T13:04:36.487Z</time></trkpt><trkpt lat="40.0097648" lon="8.5121844"><ele>9.0</ele><time>2026-05-02T13:04:37.487Z</time></trkpt><trkpt lat="40.0097561" lon="8.5120008"><ele>9.0</ele><time>2026-05-02T13:04:38.488Z</time></trkpt><trkpt lat="40.0097545" lon="8.5118155"><ele>9.0</ele><time>2026-05-02T13:04:39.487Z</time></trkpt><trkpt lat="40.0097571" lon="8.511624"><ele>9.0</ele><time>2026-05-02T13:04:40.487Z</time></trkpt><trkpt lat="40.0097499" lon="8.5114374"><ele>9.0</ele><time>2026-05-02T13:04:41.487Z</time></trkpt><trkpt lat="40.0097474" lon="8.5112452"><ele>9.0</ele><time>2026-05-02T13:04:42.486Z</time></trkpt><trkpt lat="40.0097459" lon="8.5110498"><ele>9.0</ele><time>2026-05-02T13:04:43.487Z</time></trkpt><trkpt lat="40.0097476" lon="8.5108654"><ele>9.0</ele><time>2026-05-02T13:04:44.487Z</time></trkpt><trkpt lat="40.0097443" lon="8.5106867"><ele>9.0</ele><time>2026-05-02T13:04:45.486Z</time></trkpt><trkpt lat="40.0097456" lon="8.5105079"><ele>8.75</ele><time>2026-05-02T13:04:46.487Z</time></trkpt><trkpt lat="40.0097458" lon="8.5103223"><ele>8.5</ele><time>2026-05-02T13:04:47.488Z</time></trkpt><trkpt lat="40.009746" lon="8.5101379"><ele>8.25</ele><time>2026-05-02T13:04:48.489Z</time></trkpt><trkpt lat="40.0097455" lon="8.5099578"><ele>8.0</ele><time>2026-05-02T13:04:49.487Z</time></trkpt><trkpt lat="40.0097401" lon="8.5097741"><ele>8.0</ele><time>2026-05-02T13:04:50.488Z</time></trkpt><trkpt lat="40.0097339" lon="8.5095894"><ele>8.0</ele><time>2026-05-02T13:04:51.486Z</time></trkpt><trkpt lat="40.0097333" lon="8.5094017"><ele>8.0</ele><time>2026-05-02T13:04:52.488Z</time></trkpt><trkpt lat="40.0097356" lon="8.5092077"><ele>8.0</ele><time>2026-05-02T13:04:53.486Z</time></trkpt><trkpt lat="40.0097322" lon="8.5090172"><ele>7.5</ele><time>2026-05-02T13:04:54.488Z</time></trkpt><trkpt lat="40.0097303" lon="8.5088167"><ele>7.0</ele><time>2026-05-02T13:04:55.487Z</time></trkpt><trkpt lat="40.0097347" lon="8.508628"><ele>6.5</ele><time>2026-05-02T13:04:56.487Z</time></trkpt><trkpt lat="40.0097351" lon="8.5084386"><ele>6.0</ele><time>2026-05-02T13:04:57.488Z</time></trkpt><trkpt lat="40.0097375" lon="8.5082595"><ele>6.0</ele><time>2026-05-02T13:04:58.49Z</time></trkpt><trkpt lat="40.0097341" lon="8.5080776"><ele>6.0</ele><time>2026-05-02T13:04:59.489Z</time></trkpt><trkpt lat="40.0097265" lon="8.507893"><ele>6.0</ele><time>2026-05-02T13:05:00.487Z</time></trkpt><trkpt lat="40.0097273" lon="8.5077071"><ele>6.0</ele><time>2026-05-02T13:05:01.488Z</time></trkpt><trkpt lat="40.0097256" lon="8.5075162"><ele>6.0</ele><time>2026-05-02T13:05:02.488Z</time></trkpt><trkpt lat="40.009725" lon="8.5073222"><ele>6.0</ele><time>2026-05-02T13:05:03.487Z</time></trkpt><trkpt lat="40.009724" lon="8.5071289"><ele>6.0</ele><time>2026-05-02T13:05:04.488Z</time></trkpt><trkpt lat="40.0097216" lon="8.5069314"><ele>6.0</ele><time>2026-05-02T13:05:05.488Z</time></trkpt><trkpt lat="40.0097179" lon="8.5067364"><ele>6.0</ele><time>2026-05-02T13:05:06.488Z</time></trkpt><trkpt lat="40.0097161" lon="8.5065416"><ele>6.0</ele><time>2026-05-02T13:05:07.488Z</time></trkpt><trkpt lat="40.009713" lon="8.5063429"><ele>6.0</ele><time>2026-05-02T13:05:08.488Z</time></trkpt><trkpt lat="40.0097112" lon="8.5061494"><ele>6.25</ele><time>2026-05-02T13:05:09.487Z</time></trkpt><trkpt lat="40.0097114" lon="8.5059754"><ele>6.5</ele><time>2026-05-02T13:05:10.488Z</time></trkpt><trkpt lat="40.0097095" lon="8.5058102"><ele>6.75</ele><time>2026-05-02T13:05:11.487Z</time></trkpt><trkpt lat="40.0097044" lon="8.5056639"><ele>7.0</ele><time>2026-05-02T13:05:12.488Z</time></trkpt><trkpt lat="40.0096995" lon="8.5055411"><ele>7.0</ele><time>2026-05-02T13:05:13.489Z</time></trkpt><trkpt lat="40.0096952" lon="8.5054525"><ele>6.999999999999999</ele><time>2026-05-02T13:05:14.488Z</time></trkpt><trkpt lat="40.0096898" lon="8.5053056"><ele>6.999999999999999</ele><time>2026-05-02T13:05:16.488Z</time></trkpt><trkpt lat="40.0096895" lon="8.5051979"><ele>7.0</ele><time>2026-05-02T13:05:17.489Z</time></trkpt><trkpt lat="40.009702" lon="8.5050805"><ele>7.0</ele><time>2026-05-02T13:05:18.488Z</time></trkpt><trkpt lat="40.0097212" lon="8.5049458"><ele>7.25</ele><time>2026-05-02T13:05:19.487Z</time></trkpt><trkpt lat="40.0097387" lon="8.5047969"><ele>7.5</ele><time>2026-05-02T13:05:20.488Z</time></trkpt><trkpt lat="40.0097538" lon="8.5046338"><ele>7.75</ele><time>2026-05-02T13:05:21.488Z</time></trkpt><trkpt lat="40.0097694" lon="8.504461"><ele>8.0</ele><time>2026-05-02T13:05:22.487Z</time></trkpt><trkpt lat="40.0097832" lon="8.5042874"><ele>7.5</ele><time>2026-05-02T13:05:23.487Z</time></trkpt><trkpt lat="40.0097978" lon="8.5041059"><ele>7.0</ele><time>2026-05-02T13:05:24.487Z</time></trkpt><trkpt lat="40.0098137" lon="8.503926"><ele>6.5</ele><time>2026-05-02T13:05:25.489Z</time></trkpt><trkpt lat="40.0098334" lon="8.503747"><ele>6.0</ele><time>2026-05-02T13:05:26.488Z</time></trkpt><trkpt lat="40.0098521" lon="8.5035675"><ele>6.0</ele><time>2026-05-02T13:05:27.488Z</time></trkpt><trkpt lat="40.0098694" lon="8.5033946"><ele>6.0</ele><time>2026-05-02T13:05:28.488Z</time></trkpt><trkpt lat="40.0098846" lon="8.5032357"><ele>6.0</ele><time>2026-05-02T13:05:29.488Z</time></trkpt><trkpt lat="40.0098997" lon="8.5030871"><ele>6.0</ele><time>2026-05-02T13:05:30.488Z</time></trkpt><trkpt lat="40.0099124" lon="8.5029424"><ele>5.75</ele><time>2026-05-02T13:05:31.487Z</time></trkpt><trkpt lat="40.009915" lon="8.5027865"><ele>5.5</ele><time>2026-05-02T13:05:32.488Z</time></trkpt><trkpt lat="40.0099165" lon="8.5026351"><ele>5.25</ele><time>2026-05-02T13:05:33.487Z</time></trkpt><trkpt lat="40.0099101" lon="8.5024734"><ele>5.0</ele><time>2026-05-02T13:05:34.488Z</time></trkpt><trkpt lat="40.0099038" lon="8.5022958"><ele>5.0</ele><time>2026-05-02T13:05:35.488Z</time></trkpt><trkpt lat="40.0098919" lon="8.5021195"><ele>5.0</ele><time>2026-05-02T13:05:36.487Z</time></trkpt><trkpt lat="40.0098814" lon="8.5019527"><ele>5.0</ele><time>2026-05-02T13:05:37.488Z</time></trkpt><trkpt lat="40.0098723" lon="8.5018131"><ele>5.0</ele><time>2026-05-02T13:05:38.487Z</time></trkpt><trkpt lat="40.0098617" lon="8.5017053"><ele>5.0</ele><time>2026-05-02T13:05:39.488Z</time></trkpt><trkpt lat="40.0098474" lon="8.5016011"><ele>5.0</ele><time>2026-05-02T13:05:41.488Z</time></trkpt><trkpt lat="40.0098239" lon="8.5015142"><ele>5.0</ele><time>2026-05-02T13:05:47.486Z</time></trkpt><trkpt lat="40.0098167" lon="8.5014235"><ele>5.0</ele><time>2026-05-02T13:05:49.488Z</time></trkpt><trkpt lat="40.009809" lon="8.5012898"><ele>5.0</ele><time>2026-05-02T13:05:51.486Z</time></trkpt><trkpt lat="40.0097862" lon="8.5011878"><ele>5.0</ele><time>2026-05-02T13:05:53.487Z</time></trkpt><trkpt lat="40.0097883" lon="8.5010782"><ele>5.2</ele><time>2026-05-02T13:05:55.488Z</time></trkpt><trkpt lat="40.0097874" lon="8.5009741"><ele>5.4</ele><time>2026-05-02T13:05:57.488Z</time></trkpt><trkpt lat="40.0097758" lon="8.5008564"><ele>5.6</ele><time>2026-05-02T13:05:59.488Z</time></trkpt><trkpt lat="40.0097611" lon="8.5007179"><ele>5.8</ele><time>2026-05-02T13:06:01.489Z</time></trkpt><trkpt lat="40.0097487" lon="8.5005507"><ele>6.0</ele><time>2026-05-02T13:06:03.488Z</time></trkpt><trkpt lat="40.0097368" lon="8.5004449"><ele>6.0</ele><time>2026-05-02T13:06:04.486Z</time></trkpt><trkpt lat="40.0097239" lon="8.5003484"><ele>6.0</ele><time>2026-05-02T13:06:05.488Z</time></trkpt><trkpt lat="40.0097136" lon="8.5002037"><ele>6.0</ele><time>2026-05-02T13:06:07.487Z</time></trkpt><trkpt lat="40.0097569" lon="8.500134"><ele>6.0</ele><time>2026-05-02T13:06:09.487Z</time></trkpt><trkpt lat="40.0098338" lon="8.5001092"><ele>6.0</ele><time>2026-05-02T13:06:11.487Z</time></trkpt><trkpt lat="40.0098822" lon="8.500036"><ele>6.0</ele><time>2026-05-02T13:06:13.488Z</time></trkpt><trkpt lat="40.0098663" lon="8.4998958"><ele>6.0</ele><time>2026-05-02T13:06:15.489Z</time></trkpt><trkpt lat="40.0098525" lon="8.4997882"><ele>6.0</ele><time>2026-05-02T13:06:16.487Z</time></trkpt><trkpt lat="40.0098513" lon="8.4996655"><ele>6.0</ele><time>2026-05-02T13:06:17.488Z</time></trkpt><trkpt lat="40.0098494" lon="8.499541"><ele>6.0</ele><time>2026-05-02T13:06:18.487Z</time></trkpt><trkpt lat="40.0098337" lon="8.4994021"><ele>6.0</ele><time>2026-05-02T13:06:19.486Z</time></trkpt><trkpt lat="40.0098283" lon="8.4992535"><ele>6.0</ele><time>2026-05-02T13:06:20.489Z</time></trkpt><trkpt lat="40.0098228" lon="8.4991115"><ele>6.0</ele><time>2026-05-02T13:06:21.487Z</time></trkpt><trkpt lat="40.0098198" lon="8.4989737"><ele>6.0</ele><time>2026-05-02T13:06:22.487Z</time></trkpt><trkpt lat="40.0098238" lon="8.4988377"><ele>6.0</ele><time>2026-05-02T13:06:23.487Z</time></trkpt><trkpt lat="40.0098349" lon="8.4987016"><ele>6.0</ele><time>2026-05-02T13:06:24.487Z</time></trkpt><trkpt lat="40.0098554" lon="8.4985697"><ele>6.0</ele><time>2026-05-02T13:06:25.487Z</time></trkpt><trkpt lat="40.0098792" lon="8.4984413"><ele>6.0</ele><time>2026-05-02T13:06:26.486Z</time></trkpt><trkpt lat="40.0099003" lon="8.4983096"><ele>6.0</ele><time>2026-05-02T13:06:27.487Z</time></trkpt><trkpt lat="40.0099251" lon="8.4981708"><ele>6.0</ele><time>2026-05-02T13:06:28.487Z</time></trkpt><trkpt lat="40.0099486" lon="8.4980331"><ele>6.0</ele><time>2026-05-02T13:06:29.487Z</time></trkpt><trkpt lat="40.0099682" lon="8.4978914"><ele>6.0</ele><time>2026-05-02T13:06:30.488Z</time></trkpt><trkpt lat="40.0099746" lon="8.4977586"><ele>6.0</ele><time>2026-05-02T13:06:31.487Z</time></trkpt><trkpt lat="40.0099681" lon="8.4976443"><ele>6.0</ele><time>2026-05-02T13:06:32.487Z</time></trkpt><trkpt lat="40.0099596" lon="8.4975429"><ele>6.0</ele><time>2026-05-02T13:06:33.488Z</time></trkpt><trkpt lat="40.0099391" lon="8.497449"><ele>6.0</ele><time>2026-05-02T13:06:34.487Z</time></trkpt><trkpt lat="40.009902" lon="8.4973575"><ele>6.0</ele><time>2026-05-02T13:06:35.487Z</time></trkpt><trkpt lat="40.0098616" lon="8.4972624"><ele>6.0</ele><time>2026-05-02T13:06:36.488Z</time></trkpt><trkpt lat="40.0098331" lon="8.4971537"><ele>6.0</ele><time>2026-05-02T13:06:37.486Z</time></trkpt><trkpt lat="40.0098169" lon="8.4970149"><ele>6.0</ele><time>2026-05-02T13:06:38.487Z</time></trkpt><trkpt lat="40.0098147" lon="8.4968461"><ele>6.0</ele><time>2026-05-02T13:06:39.487Z</time></trkpt><trkpt lat="40.0098303" lon="8.4966602"><ele>6.25</ele><time>2026-05-02T13:06:40.487Z</time></trkpt><trkpt lat="40.0098567" lon="8.4964876"><ele>6.5</ele><time>2026-05-02T13:06:41.488Z</time></trkpt><trkpt lat="40.0098834" lon="8.4963071"><ele>6.75</ele><time>2026-05-02T13:06:42.486Z</time></trkpt><trkpt lat="40.0099067" lon="8.4961246"><ele>7.0</ele><time>2026-05-02T13:06:43.487Z</time></trkpt><trkpt lat="40.0099332" lon="8.4959437"><ele>7.0</ele><time>2026-05-02T13:06:44.488Z</time></trkpt><trkpt lat="40.0099639" lon="8.4957649"><ele>7.0</ele><time>2026-05-02T13:06:45.486Z</time></trkpt><trkpt lat="40.0099934" lon="8.4955819"><ele>7.0</ele><time>2026-05-02T13:06:46.487Z</time></trkpt><trkpt lat="40.01002" lon="8.4953981"><ele>7.0</ele><time>2026-05-02T13:06:47.487Z</time></trkpt><trkpt lat="40.0100415" lon="8.4952094"><ele>7.25</ele><time>2026-05-02T13:06:48.487Z</time></trkpt><trkpt lat="40.0100652" lon="8.4950195"><ele>7.5</ele><time>2026-05-02T13:06:49.487Z</time></trkpt><trkpt lat="40.0100873" lon="8.4948292"><ele>7.75</ele><time>2026-05-02T13:06:50.487Z</time></trkpt><trkpt lat="40.0101078" lon="8.4946357"><ele>8.0</ele><time>2026-05-02T13:06:51.488Z</time></trkpt><trkpt lat="40.0101288" lon="8.4944477"><ele>8.0</ele><time>2026-05-02T13:06:52.487Z</time></trkpt><trkpt lat="40.0101432" lon="8.4942579"><ele>8.0</ele><time>2026-05-02T13:06:53.486Z</time></trkpt><trkpt lat="40.0101548" lon="8.4940688"><ele>8.0</ele><time>2026-05-02T13:06:54.488Z</time></trkpt><trkpt lat="40.0101627" lon="8.4938811"><ele>8.0</ele><time>2026-05-02T13:06:55.488Z</time></trkpt><trkpt lat="40.010165" lon="8.4936924"><ele>8.25</ele><time>2026-05-02T13:06:56.488Z</time></trkpt><trkpt lat="40.0101564" lon="8.493501"><ele>8.5</ele><time>2026-05-02T13:06:57.486Z</time></trkpt><trkpt lat="40.0101444" lon="8.4933089"><ele>8.75</ele><time>2026-05-02T13:06:58.487Z</time></trkpt><trkpt lat="40.0101331" lon="8.4931179"><ele>9.0</ele><time>2026-05-02T13:06:59.486Z</time></trkpt><trkpt lat="40.0101176" lon="8.4929231"><ele>8.75</ele><time>2026-05-02T13:07:00.487Z</time></trkpt><trkpt lat="40.0101012" lon="8.4927313"><ele>8.5</ele><time>2026-05-02T13:07:01.488Z</time></trkpt><trkpt lat="40.0100911" lon="8.4925375"><ele>8.25</ele><time>2026-05-02T13:07:02.488Z</time></trkpt><trkpt lat="40.010076" lon="8.4923393"><ele>8.0</ele><time>2026-05-02T13:07:03.488Z</time></trkpt><trkpt lat="40.0100606" lon="8.4921484"><ele>7.75</ele><time>2026-05-02T13:07:04.487Z</time></trkpt><trkpt lat="40.0100476" lon="8.49196"><ele>7.5</ele><time>2026-05-02T13:07:05.487Z</time></trkpt><trkpt lat="40.0100359" lon="8.4917769"><ele>7.25</ele><time>2026-05-02T13:07:06.487Z</time></trkpt><trkpt lat="40.0100263" lon="8.4916114"><ele>7.0</ele><time>2026-05-02T13:07:07.487Z</time></trkpt><trkpt lat="40.0100269" lon="8.4914794"><ele>7.000000000000001</ele><time>2026-05-02T13:07:08.486Z</time></trkpt><trkpt lat="40.010031" lon="8.491363"><ele>7.0</ele><time>2026-05-02T13:07:09.487Z</time></trkpt><trkpt lat="40.0100468" lon="8.4912638"><ele>7.0</ele><time>2026-05-02T13:07:10.486Z</time></trkpt><trkpt lat="40.0100751" lon="8.4911758"><ele>7.0</ele><time>2026-05-02T13:07:11.487Z</time></trkpt><trkpt lat="40.0101021" lon="8.4910815"><ele>7.000000000000001</ele><time>2026-05-02T13:07:12.487Z</time></trkpt><trkpt lat="40.0101314" lon="8.4909741"><ele>7.0</ele><time>2026-05-02T13:07:13.487Z</time></trkpt><trkpt lat="40.0101707" lon="8.4908667"><ele>7.0</ele><time>2026-05-02T13:07:14.487Z</time></trkpt><trkpt lat="40.010213" lon="8.4907548"><ele>6.999999999999999</ele><time>2026-05-02T13:07:15.487Z</time></trkpt><trkpt lat="40.0102587" lon="8.4906481"><ele>6.999999999999999</ele><time>2026-05-02T13:07:16.488Z</time></trkpt><trkpt lat="40.0103141" lon="8.4905454"><ele>7.0</ele><time>2026-05-02T13:07:17.487Z</time></trkpt><trkpt lat="40.0103705" lon="8.4904364"><ele>7.0</ele><time>2026-05-02T13:07:18.487Z</time></trkpt><trkpt lat="40.0104328" lon="8.4903239"><ele>6.8</ele><time>2026-05-02T13:07:19.487Z</time></trkpt><trkpt lat="40.0104977" lon="8.4902117"><ele>6.6</ele><time>2026-05-02T13:07:20.488Z</time></trkpt><trkpt lat="40.0105691" lon="8.4901049"><ele>6.3999999999999995</ele><time>2026-05-02T13:07:21.487Z</time></trkpt><trkpt lat="40.0106411" lon="8.4899955"><ele>6.199999999999999</ele><time>2026-05-02T13:07:22.487Z</time></trkpt><trkpt lat="40.0107119" lon="8.4898834"><ele>6.0</ele><time>2026-05-02T13:07:23.487Z</time></trkpt><trkpt lat="40.0107843" lon="8.4897749"><ele>6.0</ele><time>2026-05-02T13:07:24.488Z</time></trkpt><trkpt lat="40.0108644" lon="8.4896717"><ele>6.0</ele><time>2026-05-02T13:07:25.488Z</time></trkpt><trkpt lat="40.0109478" lon="8.4895759"><ele>6.0</ele><time>2026-05-02T13:07:26.486Z</time></trkpt><trkpt lat="40.0110381" lon="8.4894803"><ele>6.0</ele><time>2026-05-02T13:07:27.487Z</time></trkpt><trkpt lat="40.0111295" lon="8.4893904"><ele>6.25</ele><time>2026-05-02T13:07:28.488Z</time></trkpt><trkpt lat="40.0112222" lon="8.4892907"><ele>6.5</ele><time>2026-05-02T13:07:29.487Z</time></trkpt><trkpt lat="40.0113197" lon="8.4891831"><ele>6.75</ele><time>2026-05-02T13:07:30.487Z</time></trkpt><trkpt lat="40.011422" lon="8.4890776"><ele>7.0</ele><time>2026-05-02T13:07:31.486Z</time></trkpt><trkpt lat="40.0115279" lon="8.4889759"><ele>7.0</ele><time>2026-05-02T13:07:32.486Z</time></trkpt><trkpt lat="40.0116338" lon="8.4888739"><ele>7.0</ele><time>2026-05-02T13:07:33.486Z</time></trkpt><trkpt lat="40.0117381" lon="8.4887685"><ele>7.0</ele><time>2026-05-02T13:07:34.487Z</time></trkpt><trkpt lat="40.0118441" lon="8.4886646"><ele>7.0</ele><time>2026-05-02T13:07:35.487Z</time></trkpt><trkpt lat="40.0119525" lon="8.4885736"><ele>7.0</ele><time>2026-05-02T13:07:36.488Z</time></trkpt><trkpt lat="40.01206" lon="8.4884804"><ele>7.0</ele><time>2026-05-02T13:07:37.488Z</time></trkpt><trkpt lat="40.0121688" lon="8.4883882"><ele>7.0</ele><time>2026-05-02T13:07:38.486Z</time></trkpt><trkpt lat="40.0122773" lon="8.4883032"><ele>7.0</ele><time>2026-05-02T13:07:39.488Z</time></trkpt><trkpt lat="40.0123814" lon="8.4882159"><ele>7.0</ele><time>2026-05-02T13:07:40.488Z</time></trkpt><trkpt lat="40.0124851" lon="8.4881199"><ele>7.0</ele><time>2026-05-02T13:07:41.487Z</time></trkpt><trkpt lat="40.0125826" lon="8.4880196"><ele>7.0</ele><time>2026-05-02T13:07:42.488Z</time></trkpt><trkpt lat="40.0126765" lon="8.4879084"><ele>7.0</ele><time>2026-05-02T13:07:43.487Z</time></trkpt><trkpt lat="40.0127669" lon="8.4877833"><ele>7.0</ele><time>2026-05-02T13:07:44.486Z</time></trkpt><trkpt lat="40.0128515" lon="8.4876488"><ele>7.0</ele><time>2026-05-02T13:07:45.486Z</time></trkpt><trkpt lat="40.0129291" lon="8.487509"><ele>7.0</ele><time>2026-05-02T13:07:46.486Z</time></trkpt><trkpt lat="40.012999" lon="8.4873615"><ele>7.0</ele><time>2026-05-02T13:07:47.486Z</time></trkpt><trkpt lat="40.0130727" lon="8.4872118"><ele>7.25</ele><time>2026-05-02T13:07:48.487Z</time></trkpt><trkpt lat="40.0131527" lon="8.4870681"><ele>7.5</ele><time>2026-05-02T13:07:49.486Z</time></trkpt><trkpt lat="40.0132323" lon="8.486924"><ele>7.75</ele><time>2026-05-02T13:07:50.486Z</time></trkpt><trkpt lat="40.0133083" lon="8.4867743"><ele>8.0</ele><time>2026-05-02T13:07:51.487Z</time></trkpt><trkpt lat="40.0133794" lon="8.4866248"><ele>7.75</ele><time>2026-05-02T13:07:52.487Z</time></trkpt><trkpt lat="40.0134472" lon="8.4864707"><ele>7.5</ele><time>2026-05-02T13:07:53.487Z</time></trkpt><trkpt lat="40.0135075" lon="8.4863138"><ele>7.25</ele><time>2026-05-02T13:07:54.487Z</time></trkpt><trkpt lat="40.013557" lon="8.4861485"><ele>7.0</ele><time>2026-05-02T13:07:55.488Z</time></trkpt><trkpt lat="40.0135942" lon="8.4859803"><ele>7.0</ele><time>2026-05-02T13:07:56.487Z</time></trkpt><trkpt lat="40.0136239" lon="8.4858166"><ele>7.0</ele><time>2026-05-02T13:07:57.487Z</time></trkpt><trkpt lat="40.0136438" lon="8.4856535"><ele>7.0</ele><time>2026-05-02T13:07:58.486Z</time></trkpt><trkpt lat="40.0136504" lon="8.4854823"><ele>7.0</ele><time>2026-05-02T13:07:59.487Z</time></trkpt><trkpt lat="40.013654" lon="8.4853103"><ele>7.0</ele><time>2026-05-02T13:08:00.487Z</time></trkpt><trkpt lat="40.0136535" lon="8.4851412"><ele>7.0</ele><time>2026-05-02T13:08:01.487Z</time></trkpt><trkpt lat="40.013645" lon="8.4849668"><ele>7.0</ele><time>2026-05-02T13:08:02.487Z</time></trkpt><trkpt lat="40.0136317" lon="8.4848125"><ele>7.0</ele><time>2026-05-02T13:08:03.488Z</time></trkpt><trkpt lat="40.0136181" lon="8.4846611"><ele>7.0</ele><time>2026-05-02T13:08:04.488Z</time></trkpt><trkpt lat="40.0136021" lon="8.4845038"><ele>7.0</ele><time>2026-05-02T13:08:05.487Z</time></trkpt><trkpt lat="40.013588" lon="8.4843434"><ele>7.0</ele><time>2026-05-02T13:08:06.487Z</time></trkpt><trkpt lat="40.0135776" lon="8.484185"><ele>7.0</ele><time>2026-05-02T13:08:07.487Z</time></trkpt><trkpt lat="40.0135736" lon="8.4840271"><ele>7.0</ele><time>2026-05-02T13:08:08.488Z</time></trkpt><trkpt lat="40.0135656" lon="8.483868"><ele>7.0</ele><time>2026-05-02T13:08:09.488Z</time></trkpt><trkpt lat="40.0135611" lon="8.4837078"><ele>7.0</ele><time>2026-05-02T13:08:10.488Z</time></trkpt><trkpt lat="40.0135553" lon="8.483547"><ele>7.0</ele><time>2026-05-02T13:08:11.488Z</time></trkpt><trkpt lat="40.0135518" lon="8.4833874"><ele>7.25</ele><time>2026-05-02T13:08:12.487Z</time></trkpt><trkpt lat="40.0135501" lon="8.4832227"><ele>7.5</ele><time>2026-05-02T13:08:13.487Z</time></trkpt><trkpt lat="40.0135431" lon="8.4830564"><ele>7.75</ele><time>2026-05-02T13:08:14.487Z</time></trkpt><trkpt lat="40.0135345" lon="8.4828923"><ele>8.0</ele><time>2026-05-02T13:08:15.487Z</time></trkpt><trkpt lat="40.0135191" lon="8.4827264"><ele>8.25</ele><time>2026-05-02T13:08:16.486Z</time></trkpt><trkpt lat="40.0135083" lon="8.4825649"><ele>8.5</ele><time>2026-05-02T13:08:17.485Z</time></trkpt><trkpt lat="40.0135001" lon="8.482401"><ele>8.75</ele><time>2026-05-02T13:08:18.487Z</time></trkpt><trkpt lat="40.0134954" lon="8.4822358"><ele>9.0</ele><time>2026-05-02T13:08:19.486Z</time></trkpt><trkpt lat="40.0134871" lon="8.4820683"><ele>9.0</ele><time>2026-05-02T13:08:20.488Z</time></trkpt><trkpt lat="40.013474" lon="8.4818978"><ele>9.0</ele><time>2026-05-02T13:08:21.487Z</time></trkpt><trkpt lat="40.0134638" lon="8.4817287"><ele>9.0</ele><time>2026-05-02T13:08:22.488Z</time></trkpt><trkpt lat="40.013452" lon="8.4815598"><ele>9.0</ele><time>2026-05-02T13:08:23.486Z</time></trkpt><trkpt lat="40.0134351" lon="8.4813872"><ele>8.75</ele><time>2026-05-02T13:08:24.487Z</time></trkpt><trkpt lat="40.0134185" lon="8.4812303"><ele>8.5</ele><time>2026-05-02T13:08:25.486Z</time></trkpt><trkpt lat="40.0134101" lon="8.4810831"><ele>8.25</ele><time>2026-05-02T13:08:26.486Z</time></trkpt><trkpt lat="40.0134074" lon="8.4809458"><ele>8.0</ele><time>2026-05-02T13:08:27.487Z</time></trkpt><trkpt lat="40.0134112" lon="8.480794"><ele>8.0</ele><time>2026-05-02T13:08:28.488Z</time></trkpt><trkpt lat="40.0134086" lon="8.4806303"><ele>8.0</ele><time>2026-05-02T13:08:29.486Z</time></trkpt><trkpt lat="40.0134041" lon="8.4804775"><ele>8.0</ele><time>2026-05-02T13:08:30.487Z</time></trkpt><trkpt lat="40.0133949" lon="8.4803236"><ele>8.0</ele><time>2026-05-02T13:08:31.486Z</time></trkpt><trkpt lat="40.0133889" lon="8.4801711"><ele>8.0</ele><time>2026-05-02T13:08:32.485Z</time></trkpt><trkpt lat="40.013381" lon="8.4800053"><ele>8.0</ele><time>2026-05-02T13:08:33.487Z</time></trkpt><trkpt lat="40.0133739" lon="8.4798381"><ele>8.0</ele><time>2026-05-02T13:08:34.488Z</time></trkpt><trkpt lat="40.0133651" lon="8.4796733"><ele>8.0</ele><time>2026-05-02T13:08:35.487Z</time></trkpt><trkpt lat="40.0133588" lon="8.4794979"><ele>8.0</ele><time>2026-05-02T13:08:36.488Z</time></trkpt><trkpt lat="40.0133514" lon="8.4793142"><ele>8.0</ele><time>2026-05-02T13:08:37.488Z</time></trkpt><trkpt lat="40.0133459" lon="8.4791269"><ele>8.0</ele><time>2026-05-02T13:08:38.487Z</time></trkpt><trkpt lat="40.0133383" lon="8.4789446"><ele>8.0</ele><time>2026-05-02T13:08:39.487Z</time></trkpt><trkpt lat="40.0133285" lon="8.4787632"><ele>8.25</ele><time>2026-05-02T13:08:40.486Z</time></trkpt><trkpt lat="40.0133209" lon="8.4785847"><ele>8.5</ele><time>2026-05-02T13:08:41.486Z</time></trkpt><trkpt lat="40.013315" lon="8.4784138"><ele>8.75</ele><time>2026-05-02T13:08:42.486Z</time></trkpt><trkpt lat="40.0133115" lon="8.4782373"><ele>9.0</ele><time>2026-05-02T13:08:43.488Z</time></trkpt><trkpt lat="40.0133015" lon="8.47806"><ele>9.25</ele><time>2026-05-02T13:08:44.487Z</time></trkpt><trkpt lat="40.0132964" lon="8.4778847"><ele>9.5</ele><time>2026-05-02T13:08:45.488Z</time></trkpt><trkpt lat="40.0132858" lon="8.477708"><ele>9.75</ele><time>2026-05-02T13:08:46.487Z</time></trkpt><trkpt lat="40.0132805" lon="8.4775406"><ele>10.0</ele><time>2026-05-02T13:08:47.488Z</time></trkpt><trkpt lat="40.0132756" lon="8.4773787"><ele>10.0</ele><time>2026-05-02T13:08:48.487Z</time></trkpt><trkpt lat="40.0132659" lon="8.4772176"><ele>10.0</ele><time>2026-05-02T13:08:49.487Z</time></trkpt><trkpt lat="40.0132529" lon="8.4770442"><ele>10.0</ele><time>2026-05-02T13:08:50.487Z</time></trkpt><trkpt lat="40.0132474" lon="8.4768686"><ele>10.0</ele><time>2026-05-02T13:08:51.488Z</time></trkpt><trkpt lat="40.0132399" lon="8.4766945"><ele>10.0</ele><time>2026-05-02T13:08:52.485Z</time></trkpt><trkpt lat="40.0132324" lon="8.4765363"><ele>10.0</ele><time>2026-05-02T13:08:53.486Z</time></trkpt><trkpt lat="40.0132254" lon="8.4763946"><ele>10.0</ele><time>2026-05-02T13:08:54.488Z</time></trkpt><trkpt lat="40.013217" lon="8.4762551"><ele>10.0</ele><time>2026-05-02T13:08:55.487Z</time></trkpt><trkpt lat="40.0132117" lon="8.4761033"><ele>10.0</ele><time>2026-05-02T13:08:56.486Z</time></trkpt><trkpt lat="40.0132031" lon="8.4759451"><ele>10.0</ele><time>2026-05-02T13:08:57.486Z</time></trkpt><trkpt lat="40.0131978" lon="8.4757865"><ele>10.0</ele><time>2026-05-02T13:08:58.486Z</time></trkpt><trkpt lat="40.0131894" lon="8.4756431"><ele>10.0</ele><time>2026-05-02T13:08:59.488Z</time></trkpt><trkpt lat="40.013187" lon="8.4755116"><ele>10.2</ele><time>2026-05-02T13:09:00.486Z</time></trkpt><trkpt lat="40.0131834" lon="8.4754007"><ele>10.4</ele><time>2026-05-02T13:09:01.486Z</time></trkpt><trkpt lat="40.0131833" lon="8.4753083"><ele>10.600000000000001</ele><time>2026-05-02T13:09:02.488Z</time></trkpt><trkpt lat="40.0132298" lon="8.4751729"><ele>10.8</ele><time>2026-05-02T13:09:04.486Z</time></trkpt><trkpt lat="40.0133492" lon="8.475078"><ele>11.0</ele><time>2026-05-02T13:09:06.486Z</time></trkpt><trkpt lat="40.0134023" lon="8.4750319"><ele>10.666666666666666</ele><time>2026-05-02T13:09:07.488Z</time></trkpt><trkpt lat="40.0134577" lon="8.4749824"><ele>10.333333333333332</ele><time>2026-05-02T13:09:08.486Z</time></trkpt><trkpt lat="40.0134758" lon="8.4748862"><ele>10.0</ele><time>2026-05-02T13:09:09.485Z</time></trkpt><trkpt lat="40.0134817" lon="8.4748019"><ele>9.666666666666666</ele><time>2026-05-02T13:09:10.485Z</time></trkpt><trkpt lat="40.013477" lon="8.4746734"><ele>9.333333333333334</ele><time>2026-05-02T13:09:11.486Z</time></trkpt><trkpt lat="40.0134678" lon="8.4745569"><ele>9.0</ele><time>2026-05-02T13:09:12.486Z</time></trkpt><trkpt lat="40.0134557" lon="8.474431"><ele>9.0</ele><time>2026-05-02T13:09:13.485Z</time></trkpt><trkpt lat="40.0134477" lon="8.4742927"><ele>9.0</ele><time>2026-05-02T13:09:14.486Z</time></trkpt><trkpt lat="40.0134414" lon="8.4741427"><ele>9.0</ele><time>2026-05-02T13:09:15.487Z</time></trkpt><trkpt lat="40.0134303" lon="8.4739936"><ele>9.0</ele><time>2026-05-02T13:09:16.487Z</time></trkpt><trkpt lat="40.0134145" lon="8.4738585"><ele>9.0</ele><time>2026-05-02T13:09:17.485Z</time></trkpt><trkpt lat="40.0134145" lon="8.473725"><ele>8.5</ele><time>2026-05-02T13:09:18.485Z</time></trkpt><trkpt lat="40.0134332" lon="8.4735999"><ele>8.0</ele><time>2026-05-02T13:09:19.485Z</time></trkpt><trkpt lat="40.0134673" lon="8.4734653"><ele>7.5</ele><time>2026-05-02T13:09:20.485Z</time></trkpt><trkpt lat="40.0135228" lon="8.4733282"><ele>7.0</ele><time>2026-05-02T13:09:21.486Z</time></trkpt><trkpt lat="40.013591" lon="8.4731874"><ele>7.0</ele><time>2026-05-02T13:09:22.486Z</time></trkpt><trkpt lat="40.0136609" lon="8.4730368"><ele>7.0</ele><time>2026-05-02T13:09:23.487Z</time></trkpt><trkpt lat="40.0137356" lon="8.4728895"><ele>7.0</ele><time>2026-05-02T13:09:24.485Z</time></trkpt><trkpt lat="40.0138145" lon="8.4727423"><ele>7.0</ele><time>2026-05-02T13:09:25.487Z</time></trkpt><trkpt lat="40.013902" lon="8.4726091"><ele>7.3999999999999995</ele><time>2026-05-02T13:09:26.486Z</time></trkpt><trkpt lat="40.0139919" lon="8.4725149"><ele>7.799999999999999</ele><time>2026-05-02T13:09:27.486Z</time></trkpt><trkpt lat="40.0140707" lon="8.4724473"><ele>8.2</ele><time>2026-05-02T13:09:28.486Z</time></trkpt><trkpt lat="40.0141365" lon="8.4724009"><ele>8.6</ele><time>2026-05-02T13:09:29.486Z</time></trkpt><trkpt lat="40.0142109" lon="8.4723446"><ele>9.0</ele><time>2026-05-02T13:09:31.485Z</time></trkpt><trkpt lat="40.0141501" lon="8.4722513"><ele>9.0</ele><time>2026-05-02T13:09:35.486Z</time></trkpt><trkpt lat="40.0140631" lon="8.4721523"><ele>9.0</ele><time>2026-05-02T13:09:37.485Z</time></trkpt><trkpt lat="40.0140073" lon="8.4720938"><ele>9.0</ele><time>2026-05-02T13:09:38.486Z</time></trkpt><trkpt lat="40.0139502" lon="8.4720388"><ele>9.0</ele><time>2026-05-02T13:09:39.485Z</time></trkpt><trkpt lat="40.0138884" lon="8.4719861"><ele>9.0</ele><time>2026-05-02T13:09:40.487Z</time></trkpt><trkpt lat="40.013824" lon="8.4719172"><ele>9.0</ele><time>2026-05-02T13:09:41.486Z</time></trkpt><trkpt lat="40.0137548" lon="8.4718372"><ele>9.0</ele><time>2026-05-02T13:09:42.486Z</time></trkpt><trkpt lat="40.0136788" lon="8.471753"><ele>9.0</ele><time>2026-05-02T13:09:43.486Z</time></trkpt><trkpt lat="40.0135978" lon="8.4716671"><ele>9.0</ele><time>2026-05-02T13:09:44.487Z</time></trkpt><trkpt lat="40.0135048" lon="8.4715883"><ele>9.0</ele><time>2026-05-02T13:09:45.486Z</time></trkpt><trkpt lat="40.0134056" lon="8.4715115"><ele>9.0</ele><time>2026-05-02T13:09:46.486Z</time></trkpt><trkpt lat="40.0133033" lon="8.4714318"><ele>9.0</ele><time>2026-05-02T13:09:47.486Z</time></trkpt><trkpt lat="40.0132001" lon="8.4713545"><ele>9.0</ele><time>2026-05-02T13:09:48.486Z</time></trkpt><trkpt lat="40.0130895" lon="8.4712802"><ele>9.0</ele><time>2026-05-02T13:09:49.487Z</time></trkpt><trkpt lat="40.0129728" lon="8.4712095"><ele>9.0</ele><time>2026-05-02T13:09:50.486Z</time></trkpt><trkpt lat="40.0128541" lon="8.4711331"><ele>9.0</ele><time>2026-05-02T13:09:51.487Z</time></trkpt><trkpt lat="40.0127325" lon="8.4710619"><ele>9.0</ele><time>2026-05-02T13:09:52.486Z</time></trkpt><trkpt lat="40.0126114" lon="8.4709926"><ele>9.0</ele><time>2026-05-02T13:09:53.485Z</time></trkpt><trkpt lat="40.0124975" lon="8.4709246"><ele>9.0</ele><time>2026-05-02T13:09:54.487Z</time></trkpt><trkpt lat="40.0124039" lon="8.4708535"><ele>9.166666666666666</ele><time>2026-05-02T13:09:55.486Z</time></trkpt><trkpt lat="40.0123424" lon="8.4707876"><ele>9.333333333333334</ele><time>2026-05-02T13:09:56.487Z</time></trkpt><trkpt lat="40.012305" lon="8.4707153"><ele>9.5</ele><time>2026-05-02T13:09:57.486Z</time></trkpt><trkpt lat="40.0122827" lon="8.4706107"><ele>9.666666666666668</ele><time>2026-05-02T13:09:58.486Z</time></trkpt><trkpt lat="40.0122781" lon="8.4704947"><ele>9.833333333333334</ele><time>2026-05-02T13:09:59.485Z</time></trkpt><trkpt lat="40.0122679" lon="8.4703565"><ele>10.0</ele><time>2026-05-02T13:10:00.487Z</time></trkpt><trkpt lat="40.0122708" lon="8.47022"><ele>10.25</ele><time>2026-05-02T13:10:01.485Z</time></trkpt><trkpt lat="40.0122828" lon="8.470062"><ele>10.5</ele><time>2026-05-02T13:10:02.486Z</time></trkpt><trkpt lat="40.0122962" lon="8.4698918"><ele>10.75</ele><time>2026-05-02T13:10:03.487Z</time></trkpt><trkpt lat="40.0123078" lon="8.4697094"><ele>11.0</ele><time>2026-05-02T13:10:04.486Z</time></trkpt><trkpt lat="40.0123204" lon="8.4695304"><ele>11.0</ele><time>2026-05-02T13:10:05.486Z</time></trkpt><trkpt lat="40.0123348" lon="8.4693573"><ele>11.0</ele><time>2026-05-02T13:10:06.485Z</time></trkpt><trkpt lat="40.0123589" lon="8.4691824"><ele>11.0</ele><time>2026-05-02T13:10:07.486Z</time></trkpt><trkpt lat="40.0123989" lon="8.4690084"><ele>11.0</ele><time>2026-05-02T13:10:08.485Z</time></trkpt><trkpt lat="40.0124374" lon="8.4688427"><ele>11.0</ele><time>2026-05-02T13:10:09.486Z</time></trkpt><trkpt lat="40.0124613" lon="8.468702"><ele>11.0</ele><time>2026-05-02T13:10:10.486Z</time></trkpt><trkpt lat="40.0124635" lon="8.4685879"><ele>11.0</ele><time>2026-05-02T13:10:11.487Z</time></trkpt><trkpt lat="40.0124418" lon="8.4684456"><ele>11.0</ele><time>2026-05-02T13:10:12.485Z</time></trkpt><trkpt lat="40.0123932" lon="8.4682887"><ele>11.0</ele><time>2026-05-02T13:10:13.487Z</time></trkpt><trkpt lat="40.0123506" lon="8.4681403"><ele>11.0</ele><time>2026-05-02T13:10:14.486Z</time></trkpt><trkpt lat="40.0123228" lon="8.4679787"><ele>11.0</ele><time>2026-05-02T13:10:15.487Z</time></trkpt><trkpt lat="40.0123161" lon="8.4677976"><ele>11.0</ele><time>2026-05-02T13:10:16.485Z</time></trkpt><trkpt lat="40.0123155" lon="8.4676157"><ele>11.0</ele><time>2026-05-02T13:10:17.485Z</time></trkpt><trkpt lat="40.0123057" lon="8.4674344"><ele>10.75</ele><time>2026-05-02T13:10:18.486Z</time></trkpt><trkpt lat="40.0122869" lon="8.4672578"><ele>10.5</ele><time>2026-05-02T13:10:19.487Z</time></trkpt><trkpt lat="40.0122576" lon="8.4670875"><ele>10.25</ele><time>2026-05-02T13:10:20.487Z</time></trkpt><trkpt lat="40.0122278" lon="8.4669181"><ele>10.0</ele><time>2026-05-02T13:10:21.487Z</time></trkpt><trkpt lat="40.012199" lon="8.4667502"><ele>10.0</ele><time>2026-05-02T13:10:22.486Z</time></trkpt><trkpt lat="40.0121699" lon="8.4665689"><ele>10.0</ele><time>2026-05-02T13:10:23.487Z</time></trkpt><trkpt lat="40.0121279" lon="8.4664047"><ele>10.0</ele><time>2026-05-02T13:10:24.486Z</time></trkpt><trkpt lat="40.0120912" lon="8.466244"><ele>10.0</ele><time>2026-05-02T13:10:25.487Z</time></trkpt><trkpt lat="40.0120592" lon="8.4660778"><ele>10.0</ele><time>2026-05-02T13:10:26.485Z</time></trkpt><trkpt lat="40.0120342" lon="8.4659124"><ele>10.0</ele><time>2026-05-02T13:10:27.486Z</time></trkpt><trkpt lat="40.0120168" lon="8.4657476"><ele>10.0</ele><time>2026-05-02T13:10:28.488Z</time></trkpt><trkpt lat="40.0120131" lon="8.4655947"><ele>10.0</ele><time>2026-05-02T13:10:29.486Z</time></trkpt><trkpt lat="40.0120089" lon="8.4654533"><ele>10.25</ele><time>2026-05-02T13:10:30.486Z</time></trkpt><trkpt lat="40.0119934" lon="8.465307"><ele>10.5</ele><time>2026-05-02T13:10:31.486Z</time></trkpt><trkpt lat="40.0119893" lon="8.4651482"><ele>10.75</ele><time>2026-05-02T13:10:32.486Z</time></trkpt><trkpt lat="40.0119963" lon="8.464975"><ele>11.0</ele><time>2026-05-02T13:10:33.487Z</time></trkpt><trkpt lat="40.0120135" lon="8.4647902"><ele>10.75</ele><time>2026-05-02T13:10:34.487Z</time></trkpt><trkpt lat="40.012021" lon="8.4645959"><ele>10.5</ele><time>2026-05-02T13:10:35.488Z</time></trkpt><trkpt lat="40.0120177" lon="8.4644107"><ele>10.25</ele><time>2026-05-02T13:10:36.486Z</time></trkpt><trkpt lat="40.012018" lon="8.4642425"><ele>10.0</ele><time>2026-05-02T13:10:37.486Z</time></trkpt><trkpt lat="40.0120246" lon="8.4640934"><ele>10.0</ele><time>2026-05-02T13:10:38.486Z</time></trkpt><trkpt lat="40.0120374" lon="8.4639596"><ele>10.0</ele><time>2026-05-02T13:10:39.487Z</time></trkpt><trkpt lat="40.0120289" lon="8.4638335"><ele>10.0</ele><time>2026-05-02T13:10:40.488Z</time></trkpt><trkpt lat="40.011987" lon="8.4636943"><ele>10.0</ele><time>2026-05-02T13:10:41.488Z</time></trkpt><trkpt lat="40.011927" lon="8.4635352"><ele>10.0</ele><time>2026-05-02T13:10:42.487Z</time></trkpt><trkpt lat="40.0118786" lon="8.4633663"><ele>10.0</ele><time>2026-05-02T13:10:43.486Z</time></trkpt><trkpt lat="40.0118334" lon="8.4632058"><ele>10.0</ele><time>2026-05-02T13:10:44.486Z</time></trkpt><trkpt lat="40.0117822" lon="8.4630599"><ele>10.0</ele><time>2026-05-02T13:10:45.488Z</time></trkpt><trkpt lat="40.0117394" lon="8.4629336"><ele>9.4</ele><time>2026-05-02T13:10:46.486Z</time></trkpt><trkpt lat="40.0117161" lon="8.4628233"><ele>8.8</ele><time>2026-05-02T13:10:47.485Z</time></trkpt><trkpt lat="40.0117085" lon="8.4627124"><ele>8.2</ele><time>2026-05-02T13:10:48.486Z</time></trkpt><trkpt lat="40.0117313" lon="8.46258"><ele>7.6</ele><time>2026-05-02T13:10:49.487Z</time></trkpt><trkpt lat="40.0117779" lon="8.4624295"><ele>7.0</ele><time>2026-05-02T13:10:50.487Z</time></trkpt><trkpt lat="40.0118401" lon="8.4622702"><ele>7.0</ele><time>2026-05-02T13:10:51.485Z</time></trkpt><trkpt lat="40.0118869" lon="8.462113"><ele>7.0</ele><time>2026-05-02T13:10:52.485Z</time></trkpt><trkpt lat="40.0119108" lon="8.4619461"><ele>7.0</ele><time>2026-05-02T13:10:53.486Z</time></trkpt><trkpt lat="40.0119148" lon="8.4617591"><ele>7.0</ele><time>2026-05-02T13:10:54.487Z</time></trkpt><trkpt lat="40.0119124" lon="8.4615725"><ele>7.0</ele><time>2026-05-02T13:10:55.487Z</time></trkpt><trkpt lat="40.0119108" lon="8.4614007"><ele>7.0</ele><time>2026-05-02T13:10:56.487Z</time></trkpt><trkpt lat="40.0118903" lon="8.4612226"><ele>7.0</ele><time>2026-05-02T13:10:57.487Z</time></trkpt><trkpt lat="40.0118563" lon="8.4610411"><ele>7.0</ele><time>2026-05-02T13:10:58.486Z</time></trkpt><trkpt lat="40.011828" lon="8.4608608"><ele>7.25</ele><time>2026-05-02T13:10:59.485Z</time></trkpt><trkpt lat="40.0117962" lon="8.4606883"><ele>7.5</ele><time>2026-05-02T13:11:00.485Z</time></trkpt><trkpt lat="40.0117615" lon="8.4605311"><ele>7.75</ele><time>2026-05-02T13:11:01.486Z</time></trkpt><trkpt lat="40.0117288" lon="8.4603803"><ele>8.0</ele><time>2026-05-02T13:11:02.486Z</time></trkpt><trkpt lat="40.0116745" lon="8.4602242"><ele>8.5</ele><time>2026-05-02T13:11:03.487Z</time></trkpt><trkpt lat="40.0116012" lon="8.4600545"><ele>9.0</ele><time>2026-05-02T13:11:04.485Z</time></trkpt><trkpt lat="40.0115364" lon="8.4598958"><ele>9.5</ele><time>2026-05-02T13:11:05.485Z</time></trkpt><trkpt lat="40.0114752" lon="8.4597341"><ele>10.0</ele><time>2026-05-02T13:11:06.486Z</time></trkpt><trkpt lat="40.0114284" lon="8.4595766"><ele>10.0</ele><time>2026-05-02T13:11:07.485Z</time></trkpt><trkpt lat="40.0113935" lon="8.459423"><ele>10.0</ele><time>2026-05-02T13:11:08.485Z</time></trkpt><trkpt lat="40.011383" lon="8.4592856"><ele>10.0</ele><time>2026-05-02T13:11:09.485Z</time></trkpt><trkpt lat="40.011385" lon="8.4591742"><ele>10.0</ele><time>2026-05-02T13:11:10.486Z</time></trkpt><trkpt lat="40.0113779" lon="8.4590583"><ele>10.0</ele><time>2026-05-02T13:11:11.485Z</time></trkpt><trkpt lat="40.0113459" lon="8.4589573"><ele>10.0</ele><time>2026-05-02T13:11:12.486Z</time></trkpt><trkpt lat="40.0112876" lon="8.4588356"><ele>10.0</ele><time>2026-05-02T13:11:13.485Z</time></trkpt><trkpt lat="40.0112207" lon="8.4587067"><ele>10.0</ele><time>2026-05-02T13:11:14.487Z</time></trkpt><trkpt lat="40.0111675" lon="8.4585637"><ele>10.0</ele><time>2026-05-02T13:11:15.486Z</time></trkpt><trkpt lat="40.0111161" lon="8.4584083"><ele>10.0</ele><time>2026-05-02T13:11:16.486Z</time></trkpt><trkpt lat="40.0110733" lon="8.4582218"><ele>10.0</ele><time>2026-05-02T13:11:17.486Z</time></trkpt><trkpt lat="40.0110352" lon="8.4580377"><ele>10.0</ele><time>2026-05-02T13:11:18.486Z</time></trkpt><trkpt lat="40.0110062" lon="8.4578736"><ele>10.0</ele><time>2026-05-02T13:11:19.485Z</time></trkpt><trkpt lat="40.0109687" lon="8.4577061"><ele>10.0</ele><time>2026-05-02T13:11:20.486Z</time></trkpt><trkpt lat="40.0109129" lon="8.4575413"><ele>10.0</ele><time>2026-05-02T13:11:21.487Z</time></trkpt><trkpt lat="40.0108309" lon="8.4573742"><ele>10.0</ele><time>2026-05-02T13:11:22.486Z</time></trkpt><trkpt lat="40.0107307" lon="8.4572079"><ele>9.75</ele><time>2026-05-02T13:11:23.487Z</time></trkpt><trkpt lat="40.0106394" lon="8.4570484"><ele>9.5</ele><time>2026-05-02T13:11:24.485Z</time></trkpt><trkpt lat="40.0105505" lon="8.4568959"><ele>9.25</ele><time>2026-05-02T13:11:25.486Z</time></trkpt><trkpt lat="40.0104622" lon="8.4567536"><ele>9.0</ele><time>2026-05-02T13:11:26.486Z</time></trkpt><trkpt lat="40.010362" lon="8.4566195"><ele>9.0</ele><time>2026-05-02T13:11:27.487Z</time></trkpt><trkpt lat="40.010261" lon="8.4564938"><ele>9.0</ele><time>2026-05-02T13:11:28.485Z</time></trkpt><trkpt lat="40.0101714" lon="8.4563774"><ele>9.0</ele><time>2026-05-02T13:11:29.486Z</time></trkpt><trkpt lat="40.0100836" lon="8.456269"><ele>9.0</ele><time>2026-05-02T13:11:30.487Z</time></trkpt><trkpt lat="40.0100077" lon="8.4561765"><ele>9.4</ele><time>2026-05-02T13:11:31.486Z</time></trkpt><trkpt lat="40.0099558" lon="8.456078"><ele>9.8</ele><time>2026-05-02T13:11:32.485Z</time></trkpt><trkpt lat="40.0098915" lon="8.4559426"><ele>10.200000000000001</ele><time>2026-05-02T13:11:33.486Z</time></trkpt><trkpt lat="40.0098286" lon="8.4558142"><ele>10.600000000000001</ele><time>2026-05-02T13:11:34.486Z</time></trkpt><trkpt lat="40.0097856" lon="8.455689"><ele>11.0</ele><time>2026-05-02T13:11:35.486Z</time></trkpt><trkpt lat="40.0097568" lon="8.4555454"><ele>10.0</ele><time>2026-05-02T13:11:36.486Z</time></trkpt><trkpt lat="40.009731" lon="8.4553652"><ele>9.0</ele><time>2026-05-02T13:11:37.485Z</time></trkpt><trkpt lat="40.0096804" lon="8.4551798"><ele>8.0</ele><time>2026-05-02T13:11:38.485Z</time></trkpt><trkpt lat="40.0096127" lon="8.4549712"><ele>8.0</ele><time>2026-05-02T13:11:39.485Z</time></trkpt><trkpt lat="40.0095357" lon="8.4547481"><ele>8.0</ele><time>2026-05-02T13:11:40.485Z</time></trkpt><trkpt lat="40.0094503" lon="8.4545291"><ele>8.0</ele><time>2026-05-02T13:11:41.486Z</time></trkpt><trkpt lat="40.0093763" lon="8.4543425"><ele>8.0</ele><time>2026-05-02T13:11:42.486Z</time></trkpt><trkpt lat="40.0093124" lon="8.4541759"><ele>8.0</ele><time>2026-05-02T13:11:43.486Z</time></trkpt><trkpt lat="40.0092715" lon="8.454036"><ele>8.0</ele><time>2026-05-02T13:11:44.485Z</time></trkpt><trkpt lat="40.0092434" lon="8.4538841"><ele>8.0</ele><time>2026-05-02T13:11:45.487Z</time></trkpt><trkpt lat="40.0092286" lon="8.4537364"><ele>7.75</ele><time>2026-05-02T13:11:46.486Z</time></trkpt><trkpt lat="40.0092096" lon="8.453588"><ele>7.5</ele><time>2026-05-02T13:11:47.485Z</time></trkpt><trkpt lat="40.0091653" lon="8.4534413"><ele>7.25</ele><time>2026-05-02T13:11:48.486Z</time></trkpt><trkpt lat="40.0091052" lon="8.4532913"><ele>7.0</ele><time>2026-05-02T13:11:49.486Z</time></trkpt><trkpt lat="40.0090395" lon="8.4531422"><ele>7.0</ele><time>2026-05-02T13:11:50.485Z</time></trkpt><trkpt lat="40.0089753" lon="8.4530071"><ele>6.999999999999999</ele><time>2026-05-02T13:11:51.486Z</time></trkpt><trkpt lat="40.0089064" lon="8.452889"><ele>6.999999999999999</ele><time>2026-05-02T13:11:52.486Z</time></trkpt><trkpt lat="40.0088327" lon="8.452788"><ele>7.0</ele><time>2026-05-02T13:11:53.487Z</time></trkpt><trkpt lat="40.0087537" lon="8.4527111"><ele>7.0</ele><time>2026-05-02T13:11:54.486Z</time></trkpt><trkpt lat="40.0086481" lon="8.4526318"><ele>7.0</ele><time>2026-05-02T13:11:55.485Z</time></trkpt><trkpt lat="40.0085362" lon="8.4525527"><ele>7.0</ele><time>2026-05-02T13:11:56.485Z</time></trkpt><trkpt lat="40.008402" lon="8.4524823"><ele>7.0</ele><time>2026-05-02T13:11:57.487Z</time></trkpt><trkpt lat="40.0082559" lon="8.452414"><ele>7.0</ele><time>2026-05-02T13:11:58.486Z</time></trkpt><trkpt lat="40.0081185" lon="8.4523387"><ele>7.0</ele><time>2026-05-02T13:11:59.488Z</time></trkpt><trkpt lat="40.0079862" lon="8.4522584"><ele>7.0</ele><time>2026-05-02T13:12:00.486Z</time></trkpt><trkpt lat="40.0078627" lon="8.4521612"><ele>7.0</ele><time>2026-05-02T13:12:01.487Z</time></trkpt><trkpt lat="40.0077509" lon="8.4520615"><ele>7.0</ele><time>2026-05-02T13:12:02.487Z</time></trkpt><trkpt lat="40.0076378" lon="8.4519574"><ele>6.75</ele><time>2026-05-02T13:12:03.485Z</time></trkpt><trkpt lat="40.0075293" lon="8.4518566"><ele>6.5</ele><time>2026-05-02T13:12:04.486Z</time></trkpt><trkpt lat="40.0074333" lon="8.4517669"><ele>6.25</ele><time>2026-05-02T13:12:05.487Z</time></trkpt><trkpt lat="40.0073437" lon="8.4516929"><ele>6.0</ele><time>2026-05-02T13:12:06.486Z</time></trkpt><trkpt lat="40.0072681" lon="8.4516214"><ele>6.0</ele><time>2026-05-02T13:12:07.487Z</time></trkpt><trkpt lat="40.0072058" lon="8.4515347"><ele>6.0</ele><time>2026-05-02T13:12:08.487Z</time></trkpt><trkpt lat="40.0071314" lon="8.4514284"><ele>6.0</ele><time>2026-05-02T13:12:09.486Z</time></trkpt><trkpt lat="40.0070514" lon="8.45131"><ele>6.0</ele><time>2026-05-02T13:12:10.486Z</time></trkpt><trkpt lat="40.0069646" lon="8.45118"><ele>6.0</ele><time>2026-05-02T13:12:11.487Z</time></trkpt><trkpt lat="40.0068688" lon="8.4510428"><ele>6.0</ele><time>2026-05-02T13:12:12.486Z</time></trkpt><trkpt lat="40.0067721" lon="8.4509064"><ele>6.0</ele><time>2026-05-02T13:12:13.487Z</time></trkpt><trkpt lat="40.0066649" lon="8.450777"><ele>6.0</ele><time>2026-05-02T13:12:14.487Z</time></trkpt><trkpt lat="40.0065431" lon="8.4506561"><ele>6.25</ele><time>2026-05-02T13:12:15.488Z</time></trkpt><trkpt lat="40.0064184" lon="8.4505421"><ele>6.5</ele><time>2026-05-02T13:12:16.486Z</time></trkpt><trkpt lat="40.0062936" lon="8.4504317"><ele>6.75</ele><time>2026-05-02T13:12:17.486Z</time></trkpt><trkpt lat="40.0061834" lon="8.4503331"><ele>7.0</ele><time>2026-05-02T13:12:18.486Z</time></trkpt><trkpt lat="40.0060753" lon="8.4502252"><ele>6.75</ele><time>2026-05-02T13:12:19.486Z</time></trkpt><trkpt lat="40.0059686" lon="8.450115"><ele>6.5</ele><time>2026-05-02T13:12:20.486Z</time></trkpt><trkpt lat="40.0058588" lon="8.4499942"><ele>6.25</ele><time>2026-05-02T13:12:21.486Z</time></trkpt><trkpt lat="40.0057467" lon="8.4498737"><ele>6.0</ele><time>2026-05-02T13:12:22.487Z</time></trkpt><trkpt lat="40.0056289" lon="8.4497508"><ele>6.0</ele><time>2026-05-02T13:12:23.486Z</time></trkpt><trkpt lat="40.005509" lon="8.4496269"><ele>6.0</ele><time>2026-05-02T13:12:24.487Z</time></trkpt><trkpt lat="40.005391" lon="8.4495011"><ele>6.0</ele><time>2026-05-02T13:12:25.486Z</time></trkpt><trkpt lat="40.0052698" lon="8.4493833"><ele>5.75</ele><time>2026-05-02T13:12:26.487Z</time></trkpt><trkpt lat="40.0051518" lon="8.449267"><ele>5.5</ele><time>2026-05-02T13:12:27.487Z</time></trkpt><trkpt lat="40.0050362" lon="8.4491501"><ele>5.25</ele><time>2026-05-02T13:12:28.486Z</time></trkpt><trkpt lat="40.0049182" lon="8.4490371"><ele>5.0</ele><time>2026-05-02T13:12:29.487Z</time></trkpt><trkpt lat="40.0048017" lon="8.4489276"><ele>5.5</ele><time>2026-05-02T13:12:30.485Z</time></trkpt><trkpt lat="40.0046861" lon="8.44882"><ele>6.0</ele><time>2026-05-02T13:12:31.487Z</time></trkpt><trkpt lat="40.0045786" lon="8.4487278"><ele>6.5</ele><time>2026-05-02T13:12:32.487Z</time></trkpt><trkpt lat="40.0044668" lon="8.448647"><ele>7.0</ele><time>2026-05-02T13:12:33.487Z</time></trkpt><trkpt lat="40.0043411" lon="8.4485815"><ele>7.0</ele><time>2026-05-02T13:12:34.488Z</time></trkpt><trkpt lat="40.004211" lon="8.4485328"><ele>7.0</ele><time>2026-05-02T13:12:35.486Z</time></trkpt><trkpt lat="40.0040832" lon="8.4484917"><ele>7.0</ele><time>2026-05-02T13:12:36.486Z</time></trkpt><trkpt lat="40.0039651" lon="8.448449"><ele>7.0</ele><time>2026-05-02T13:12:37.487Z</time></trkpt><trkpt lat="40.0038567" lon="8.4483924"><ele>6.75</ele><time>2026-05-02T13:12:38.486Z</time></trkpt><trkpt lat="40.0037438" lon="8.4483132"><ele>6.5</ele><time>2026-05-02T13:12:39.487Z</time></trkpt><trkpt lat="40.0036332" lon="8.4482214"><ele>6.25</ele><time>2026-05-02T13:12:40.486Z</time></trkpt><trkpt lat="40.0035195" lon="8.4481322"><ele>6.0</ele><time>2026-05-02T13:12:41.486Z</time></trkpt><trkpt lat="40.0033929" lon="8.4480626"><ele>6.0</ele><time>2026-05-02T13:12:42.487Z</time></trkpt><trkpt lat="40.0032646" lon="8.4480086"><ele>6.0</ele><time>2026-05-02T13:12:43.487Z</time></trkpt><trkpt lat="40.0031291" lon="8.4479497"><ele>6.0</ele><time>2026-05-02T13:12:44.486Z</time></trkpt><trkpt lat="40.0029906" lon="8.4479046"><ele>6.0</ele><time>2026-05-02T13:12:45.487Z</time></trkpt><trkpt lat="40.0028477" lon="8.4478668"><ele>6.0</ele><time>2026-05-02T13:12:46.487Z</time></trkpt><trkpt lat="40.0027079" lon="8.4478239"><ele>6.0</ele><time>2026-05-02T13:12:47.486Z</time></trkpt><trkpt lat="40.0025707" lon="8.4477766"><ele>6.0</ele><time>2026-05-02T13:12:48.485Z</time></trkpt><trkpt lat="40.0024319" lon="8.4477129"><ele>6.0</ele><time>2026-05-02T13:12:49.486Z</time></trkpt><trkpt lat="40.002295" lon="8.4476509"><ele>6.25</ele><time>2026-05-02T13:12:50.487Z</time></trkpt><trkpt lat="40.0021586" lon="8.4475908"><ele>6.5</ele><time>2026-05-02T13:12:51.486Z</time></trkpt><trkpt lat="40.0020278" lon="8.4475262"><ele>6.75</ele><time>2026-05-02T13:12:52.486Z</time></trkpt><trkpt lat="40.001901" lon="8.4474584"><ele>7.0</ele><time>2026-05-02T13:12:53.487Z</time></trkpt><trkpt lat="40.0017647" lon="8.4473877"><ele>7.0</ele><time>2026-05-02T13:12:54.486Z</time></trkpt><trkpt lat="40.0016309" lon="8.4473122"><ele>7.0</ele><time>2026-05-02T13:12:55.487Z</time></trkpt><trkpt lat="40.0015012" lon="8.4472392"><ele>7.0</ele><time>2026-05-02T13:12:56.487Z</time></trkpt><trkpt lat="40.0013676" lon="8.44716"><ele>7.0</ele><time>2026-05-02T13:12:57.487Z</time></trkpt><trkpt lat="40.0012357" lon="8.4470858"><ele>7.0</ele><time>2026-05-02T13:12:58.487Z</time></trkpt><trkpt lat="40.0011021" lon="8.4470197"><ele>7.0</ele><time>2026-05-02T13:12:59.487Z</time></trkpt><trkpt lat="40.0009637" lon="8.4469642"><ele>7.0</ele><time>2026-05-02T13:13:00.487Z</time></trkpt><trkpt lat="40.0008307" lon="8.4469244"><ele>7.0</ele><time>2026-05-02T13:13:01.485Z</time></trkpt><trkpt lat="40.0006943" lon="8.4468925"><ele>6.75</ele><time>2026-05-02T13:13:02.486Z</time></trkpt><trkpt lat="40.0005575" lon="8.4468687"><ele>6.5</ele><time>2026-05-02T13:13:03.486Z</time></trkpt><trkpt lat="40.0004305" lon="8.4468618"><ele>6.25</ele><time>2026-05-02T13:13:04.485Z</time></trkpt><trkpt lat="40.0002994" lon="8.4468565"><ele>6.0</ele><time>2026-05-02T13:13:05.486Z</time></trkpt><trkpt lat="40.000169" lon="8.4468391"><ele>6.0</ele><time>2026-05-02T13:13:06.486Z</time></trkpt><trkpt lat="40.0000344" lon="8.4468063"><ele>6.0</ele><time>2026-05-02T13:13:07.485Z</time></trkpt><trkpt lat="39.9999027" lon="8.4467578"><ele>6.0</ele><time>2026-05-02T13:13:08.486Z</time></trkpt><trkpt lat="39.9997723" lon="8.446703"><ele>6.0</ele><time>2026-05-02T13:13:09.485Z</time></trkpt><trkpt lat="39.999644" lon="8.4466307"><ele>6.0</ele><time>2026-05-02T13:13:10.486Z</time></trkpt><trkpt lat="39.9995146" lon="8.4465468"><ele>6.0</ele><time>2026-05-02T13:13:11.487Z</time></trkpt><trkpt lat="39.9993863" lon="8.4464552"><ele>6.0</ele><time>2026-05-02T13:13:12.485Z</time></trkpt><trkpt lat="39.9992561" lon="8.4463593"><ele>6.0</ele><time>2026-05-02T13:13:13.485Z</time></trkpt><trkpt lat="39.9991292" lon="8.4462636"><ele>5.75</ele><time>2026-05-02T13:13:14.487Z</time></trkpt><trkpt lat="39.9990013" lon="8.4461739"><ele>5.5</ele><time>2026-05-02T13:13:15.486Z</time></trkpt><trkpt lat="39.9988648" lon="8.4460908"><ele>5.25</ele><time>2026-05-02T13:13:16.486Z</time></trkpt><trkpt lat="39.9987394" lon="8.4460117"><ele>5.0</ele><time>2026-05-02T13:13:17.485Z</time></trkpt><trkpt lat="39.9986136" lon="8.4459284"><ele>5.0</ele><time>2026-05-02T13:13:18.486Z</time></trkpt><trkpt lat="39.9984911" lon="8.4458408"><ele>5.0</ele><time>2026-05-02T13:13:19.488Z</time></trkpt><trkpt lat="39.9983825" lon="8.4457504"><ele>5.0</ele><time>2026-05-02T13:13:20.485Z</time></trkpt><trkpt lat="39.9982838" lon="8.4456639"><ele>5.0</ele><time>2026-05-02T13:13:21.487Z</time></trkpt><trkpt lat="39.99818" lon="8.4455978"><ele>5.0</ele><time>2026-05-02T13:13:22.486Z</time></trkpt><trkpt lat="39.998069" lon="8.4455545"><ele>5.0</ele><time>2026-05-02T13:13:23.487Z</time></trkpt><trkpt lat="39.9979825" lon="8.4455224"><ele>5.0</ele><time>2026-05-02T13:13:24.486Z</time></trkpt><trkpt lat="39.9979184" lon="8.445506"><ele>5.0</ele><time>2026-05-02T13:13:25.486Z</time></trkpt><trkpt lat="39.9978553" lon="8.4455011"><ele>5.0</ele><time>2026-05-02T13:13:26.486Z</time></trkpt><trkpt lat="39.9977745" lon="8.4454784"><ele>5.0</ele><time>2026-05-02T13:13:27.487Z</time></trkpt><trkpt lat="39.9976683" lon="8.4454559"><ele>5.0</ele><time>2026-05-02T13:13:28.485Z</time></trkpt><trkpt lat="39.9975606" lon="8.4454347"><ele>5.0</ele><time>2026-05-02T13:13:29.485Z</time></trkpt><trkpt lat="39.9974451" lon="8.4454233"><ele>5.0</ele><time>2026-05-02T13:13:30.485Z</time></trkpt><trkpt lat="39.9973278" lon="8.4454152"><ele>5.0</ele><time>2026-05-02T13:13:31.486Z</time></trkpt><trkpt lat="39.9972076" lon="8.4454109"><ele>4.5</ele><time>2026-05-02T13:13:32.487Z</time></trkpt><trkpt lat="39.9970791" lon="8.4453981"><ele>4.0</ele><time>2026-05-02T13:13:33.486Z</time></trkpt><trkpt lat="39.9969557" lon="8.4453946"><ele>3.5</ele><time>2026-05-02T13:13:34.486Z</time></trkpt><trkpt lat="39.9968282" lon="8.4453818"><ele>3.0</ele><time>2026-05-02T13:13:35.486Z</time></trkpt><trkpt lat="39.9967196" lon="8.4453742"><ele>3.2</ele><time>2026-05-02T13:13:36.486Z</time></trkpt><trkpt lat="39.9966191" lon="8.445364"><ele>3.4</ele><time>2026-05-02T13:13:37.484Z</time></trkpt><trkpt lat="39.9965245" lon="8.4453519"><ele>3.6000000000000005</ele><time>2026-05-02T13:13:38.486Z</time></trkpt><trkpt lat="39.9964302" lon="8.4453505"><ele>3.8000000000000003</ele><time>2026-05-02T13:13:39.486Z</time></trkpt><trkpt lat="39.996331" lon="8.4453538"><ele>4.0</ele><time>2026-05-02T13:13:40.486Z</time></trkpt><trkpt lat="39.9962432" lon="8.4453706"><ele>4.0</ele><time>2026-05-02T13:13:41.487Z</time></trkpt><trkpt lat="39.996156" lon="8.4453899"><ele>4.0</ele><time>2026-05-02T13:13:42.487Z</time></trkpt><trkpt lat="39.9960619" lon="8.4454018"><ele>4.0</ele><time>2026-05-02T13:13:43.487Z</time></trkpt><trkpt lat="39.9959595" lon="8.4454064"><ele>4.0</ele><time>2026-05-02T13:13:44.486Z</time></trkpt><trkpt lat="39.9958706" lon="8.4454082"><ele>4.0</ele><time>2026-05-02T13:13:45.486Z</time></trkpt><trkpt lat="39.995776" lon="8.4453917"><ele>4.0</ele><time>2026-05-02T13:13:46.487Z</time></trkpt><trkpt lat="39.9956838" lon="8.4453541"><ele>4.0</ele><time>2026-05-02T13:13:47.486Z</time></trkpt><trkpt lat="39.9955836" lon="8.4453085"><ele>4.0</ele><time>2026-05-02T13:13:48.487Z</time></trkpt><trkpt lat="39.9954694" lon="8.4452603"><ele>4.0</ele><time>2026-05-02T13:13:49.485Z</time></trkpt><trkpt lat="39.995367" lon="8.4452084"><ele>4.0</ele><time>2026-05-02T13:13:50.485Z</time></trkpt><trkpt lat="39.9952716" lon="8.4451709"><ele>4.0</ele><time>2026-05-02T13:13:51.486Z</time></trkpt><trkpt lat="39.9951649" lon="8.4451422"><ele>4.0</ele><time>2026-05-02T13:13:52.486Z</time></trkpt><trkpt lat="39.995074" lon="8.4451139"><ele>4.0</ele><time>2026-05-02T13:13:53.486Z</time></trkpt><trkpt lat="39.9949838" lon="8.4450677"><ele>4.0</ele><time>2026-05-02T13:13:54.486Z</time></trkpt><trkpt lat="39.9948804" lon="8.4450259"><ele>4.0</ele><time>2026-05-02T13:13:55.487Z</time></trkpt><trkpt lat="39.9947752" lon="8.4449909"><ele>4.5</ele><time>2026-05-02T13:13:56.484Z</time></trkpt><trkpt lat="39.9946562" lon="8.4449562"><ele>5.0</ele><time>2026-05-02T13:13:57.487Z</time></trkpt><trkpt lat="39.9945293" lon="8.4449208"><ele>5.5</ele><time>2026-05-02T13:13:58.485Z</time></trkpt><trkpt lat="39.9943993" lon="8.4448794"><ele>6.0</ele><time>2026-05-02T13:13:59.487Z</time></trkpt><trkpt lat="39.9942675" lon="8.4448342"><ele>5.5</ele><time>2026-05-02T13:14:00.486Z</time></trkpt><trkpt lat="39.9941375" lon="8.4448032"><ele>5.0</ele><time>2026-05-02T13:14:01.486Z</time></trkpt><trkpt lat="39.9940048" lon="8.4447735"><ele>4.5</ele><time>2026-05-02T13:14:02.486Z</time></trkpt><trkpt lat="39.9938738" lon="8.4447493"><ele>4.0</ele><time>2026-05-02T13:14:03.485Z</time></trkpt><trkpt lat="39.993737" lon="8.4447367"><ele>4.0</ele><time>2026-05-02T13:14:04.486Z</time></trkpt><trkpt lat="39.9936034" lon="8.4447264"><ele>4.0</ele><time>2026-05-02T13:14:05.486Z</time></trkpt><trkpt lat="39.9934751" lon="8.4447229"><ele>4.0</ele><time>2026-05-02T13:14:06.484Z</time></trkpt><trkpt lat="39.9933391" lon="8.4447365"><ele>4.0</ele><time>2026-05-02T13:14:07.486Z</time></trkpt><trkpt lat="39.9932011" lon="8.4447558"><ele>4.0</ele><time>2026-05-02T13:14:08.492Z</time></trkpt><trkpt lat="39.9930749" lon="8.4447788"><ele>4.0</ele><time>2026-05-02T13:14:09.484Z</time></trkpt><trkpt lat="39.992961" lon="8.4447953"><ele>4.0</ele><time>2026-05-02T13:14:10.485Z</time></trkpt><trkpt lat="39.9928448" lon="8.4447845"><ele>4.0</ele><time>2026-05-02T13:14:11.486Z</time></trkpt><trkpt lat="39.9927256" lon="8.4447441"><ele>4.0</ele><time>2026-05-02T13:14:12.487Z</time></trkpt><trkpt lat="39.9926057" lon="8.4447014"><ele>4.0</ele><time>2026-05-02T13:14:13.487Z</time></trkpt><trkpt lat="39.9924846" lon="8.444648"><ele>4.0</ele><time>2026-05-02T13:14:14.485Z</time></trkpt><trkpt lat="39.9923577" lon="8.4445843"><ele>4.0</ele><time>2026-05-02T13:14:15.486Z</time></trkpt><trkpt lat="39.9922361" lon="8.4445176"><ele>4.0</ele><time>2026-05-02T13:14:16.486Z</time></trkpt><trkpt lat="39.9921298" lon="8.4444453"><ele>4.0</ele><time>2026-05-02T13:14:17.486Z</time></trkpt><trkpt lat="39.9920266" lon="8.4443783"><ele>4.0</ele><time>2026-05-02T13:14:18.486Z</time></trkpt><trkpt lat="39.9919464" lon="8.444336"><ele>4.0</ele><time>2026-05-02T13:14:19.49Z</time></trkpt><trkpt lat="39.9918259" lon="8.4443567"><ele>4.0</ele><time>2026-05-02T13:14:21.485Z</time></trkpt><trkpt lat="39.9917654" lon="8.4444289"><ele>4.0</ele><time>2026-05-02T13:14:22.484Z</time></trkpt><trkpt lat="39.991702" lon="8.4445246"><ele>4.0</ele><time>2026-05-02T13:14:23.486Z</time></trkpt><trkpt lat="39.9916372" lon="8.4446333"><ele>4.0</ele><time>2026-05-02T13:14:24.485Z</time></trkpt><trkpt lat="39.9915645" lon="8.4447432"><ele>4.0</ele><time>2026-05-02T13:14:25.492Z</time></trkpt><trkpt lat="39.9914783" lon="8.4448693"><ele>4.0</ele><time>2026-05-02T13:14:26.493Z</time></trkpt><trkpt lat="39.9913875" lon="8.4449867"><ele>4.2</ele><time>2026-05-02T13:14:27.486Z</time></trkpt><trkpt lat="39.9913054" lon="8.4451017"><ele>4.4</ele><time>2026-05-02T13:14:28.485Z</time></trkpt><trkpt lat="39.9912354" lon="8.4452014"><ele>4.6</ele><time>2026-05-02T13:14:29.487Z</time></trkpt><trkpt lat="39.9911686" lon="8.4452858"><ele>4.8</ele><time>2026-05-02T13:14:30.485Z</time></trkpt><trkpt lat="39.991104" lon="8.4453435"><ele>5.0</ele><time>2026-05-02T13:14:31.486Z</time></trkpt><trkpt lat="39.991011" lon="8.4453505"><ele>5.0</ele><time>2026-05-02T13:14:33.486Z</time></trkpt><trkpt lat="39.9909105" lon="8.4452633"><ele>5.0</ele><time>2026-05-02T13:14:35.487Z</time></trkpt><trkpt lat="39.9908463" lon="8.4451974"><ele>5.0</ele><time>2026-05-02T13:14:36.485Z</time></trkpt><trkpt lat="39.9907748" lon="8.4451172"><ele>5.0</ele><time>2026-05-02T13:14:37.486Z</time></trkpt><trkpt lat="39.9907011" lon="8.4450369"><ele>5.0</ele><time>2026-05-02T13:14:38.485Z</time></trkpt><trkpt lat="39.990629" lon="8.4449541"><ele>4.8</ele><time>2026-05-02T13:14:39.487Z</time></trkpt><trkpt lat="39.9905561" lon="8.4448714"><ele>4.6</ele><time>2026-05-02T13:14:40.486Z</time></trkpt><trkpt lat="39.9904818" lon="8.4447879"><ele>4.4</ele><time>2026-05-02T13:14:41.486Z</time></trkpt><trkpt lat="39.9904038" lon="8.4447158"><ele>4.2</ele><time>2026-05-02T13:14:42.485Z</time></trkpt><trkpt lat="39.9903335" lon="8.4446848"><ele>4.0</ele><time>2026-05-02T13:14:43.485Z</time></trkpt><trkpt lat="39.9902177" lon="8.4447063"><ele>4.0</ele><time>2026-05-02T13:14:45.485Z</time></trkpt><trkpt lat="39.9901591" lon="8.4447776"><ele>4.0</ele><time>2026-05-02T13:14:46.487Z</time></trkpt><trkpt lat="39.9900963" lon="8.4448922"><ele>4.0</ele><time>2026-05-02T13:14:47.486Z</time></trkpt><trkpt lat="39.9900209" lon="8.4450138"><ele>4.0</ele><time>2026-05-02T13:14:48.486Z</time></trkpt><trkpt lat="39.9899444" lon="8.445142"><ele>4.0</ele><time>2026-05-02T13:14:49.487Z</time></trkpt><trkpt lat="39.9898592" lon="8.4452609"><ele>4.25</ele><time>2026-05-02T13:14:50.486Z</time></trkpt><trkpt lat="39.9897608" lon="8.4453755"><ele>4.5</ele><time>2026-05-02T13:14:51.486Z</time></trkpt><trkpt lat="39.9896568" lon="8.4454902"><ele>4.75</ele><time>2026-05-02T13:14:52.485Z</time></trkpt><trkpt lat="39.989553" lon="8.4455998"><ele>5.0</ele><time>2026-05-02T13:14:53.486Z</time></trkpt><trkpt lat="39.9894461" lon="8.4457092"><ele>4.5</ele><time>2026-05-02T13:14:54.486Z</time></trkpt><trkpt lat="39.9893432" lon="8.4458181"><ele>4.0</ele><time>2026-05-02T13:14:55.485Z</time></trkpt><trkpt lat="39.9892417" lon="8.4459223"><ele>3.5</ele><time>2026-05-02T13:14:56.485Z</time></trkpt><trkpt lat="39.9891426" lon="8.4460163"><ele>3.0</ele><time>2026-05-02T13:14:57.487Z</time></trkpt><trkpt lat="39.9890474" lon="8.4461022"><ele>2.8</ele><time>2026-05-02T13:14:58.484Z</time></trkpt><trkpt lat="39.9889643" lon="8.4461867"><ele>2.5999999999999996</ele><time>2026-05-02T13:14:59.486Z</time></trkpt><trkpt lat="39.9888769" lon="8.4462608"><ele>2.4000000000000004</ele><time>2026-05-02T13:15:00.485Z</time></trkpt><trkpt lat="39.9887853" lon="8.4463132"><ele>2.2</ele><time>2026-05-02T13:15:01.485Z</time></trkpt><trkpt lat="39.9886923" lon="8.446364"><ele>2.0</ele><time>2026-05-02T13:15:02.486Z</time></trkpt><trkpt lat="39.9886063" lon="8.4464327"><ele>2.5</ele><time>2026-05-02T13:15:03.485Z</time></trkpt><trkpt lat="39.9885142" lon="8.4465195"><ele>3.0</ele><time>2026-05-02T13:15:04.485Z</time></trkpt><trkpt lat="39.9884267" lon="8.4466198"><ele>3.5</ele><time>2026-05-02T13:15:05.486Z</time></trkpt><trkpt lat="39.9883357" lon="8.4467218"><ele>4.0</ele><time>2026-05-02T13:15:06.486Z</time></trkpt><trkpt lat="39.9882435" lon="8.4468285"><ele>4.0</ele><time>2026-05-02T13:15:07.486Z</time></trkpt><trkpt lat="39.9881515" lon="8.446937"><ele>4.0</ele><time>2026-05-02T13:15:08.485Z</time></trkpt><trkpt lat="39.9880604" lon="8.4470354"><ele>4.0</ele><time>2026-05-02T13:15:09.486Z</time></trkpt><trkpt lat="39.9879668" lon="8.4471408"><ele>4.0</ele><time>2026-05-02T13:15:10.485Z</time></trkpt><trkpt lat="39.9878769" lon="8.4472404"><ele>4.25</ele><time>2026-05-02T13:15:11.487Z</time></trkpt><trkpt lat="39.987779" lon="8.4473492"><ele>4.5</ele><time>2026-05-02T13:15:12.485Z</time></trkpt><trkpt lat="39.9876767" lon="8.4474593"><ele>4.75</ele><time>2026-05-02T13:15:13.486Z</time></trkpt><trkpt lat="39.9875737" lon="8.4475626"><ele>5.0</ele><time>2026-05-02T13:15:14.486Z</time></trkpt><trkpt lat="39.9874711" lon="8.4476675"><ele>5.0</ele><time>2026-05-02T13:15:15.485Z</time></trkpt><trkpt lat="39.9873727" lon="8.4477745"><ele>5.0</ele><time>2026-05-02T13:15:16.485Z</time></trkpt><trkpt lat="39.9872726" lon="8.4478772"><ele>5.0</ele><time>2026-05-02T13:15:17.485Z</time></trkpt><trkpt lat="39.9871618" lon="8.4479778"><ele>5.0</ele><time>2026-05-02T13:15:18.484Z</time></trkpt><trkpt lat="39.9870548" lon="8.4480722"><ele>5.0</ele><time>2026-05-02T13:15:19.486Z</time></trkpt><trkpt lat="39.9869474" lon="8.4481632"><ele>5.0</ele><time>2026-05-02T13:15:20.486Z</time></trkpt><trkpt lat="39.9868383" lon="8.4482537"><ele>5.0</ele><time>2026-05-02T13:15:21.486Z</time></trkpt><trkpt lat="39.9867252" lon="8.4483475"><ele>5.0</ele><time>2026-05-02T13:15:22.487Z</time></trkpt><trkpt lat="39.9866209" lon="8.4484457"><ele>5.2</ele><time>2026-05-02T13:15:23.484Z</time></trkpt><trkpt lat="39.9865204" lon="8.4485413"><ele>5.4</ele><time>2026-05-02T13:15:24.485Z</time></trkpt><trkpt lat="39.9864416" lon="8.4486307"><ele>5.6</ele><time>2026-05-02T13:15:25.485Z</time></trkpt><trkpt lat="39.9863658" lon="8.4487042"><ele>5.8</ele><time>2026-05-02T13:15:26.486Z</time></trkpt><trkpt lat="39.9862985" lon="8.4487332"><ele>6.0</ele><time>2026-05-02T13:15:27.487Z</time></trkpt><trkpt lat="39.986224" lon="8.4487221"><ele>6.0</ele><time>2026-05-02T13:15:29.486Z</time></trkpt><trkpt lat="39.9861491" lon="8.448694"><ele>6.0</ele><time>2026-05-02T13:15:33.486Z</time></trkpt><trkpt lat="39.986107" lon="8.4487853"><ele>6.0</ele><time>2026-05-02T13:15:36.485Z</time></trkpt><trkpt lat="39.9860497" lon="8.4489109"><ele>6.0</ele><time>2026-05-02T13:15:38.485Z</time></trkpt><trkpt lat="39.986011" lon="8.4489899"><ele>6.0</ele><time>2026-05-02T13:15:39.487Z</time></trkpt><trkpt lat="39.9859662" lon="8.4490793"><ele>6.0</ele><time>2026-05-02T13:15:40.484Z</time></trkpt><trkpt lat="39.9859257" lon="8.4491647"><ele>6.333333333333333</ele><time>2026-05-02T13:15:41.486Z</time></trkpt><trkpt lat="39.9858798" lon="8.4492366"><ele>6.666666666666666</ele><time>2026-05-02T13:15:42.487Z</time></trkpt><trkpt lat="39.9858337" lon="8.4493065"><ele>7.0</ele><time>2026-05-02T13:15:43.487Z</time></trkpt><trkpt lat="39.9857898" lon="8.4493794"><ele>7.333333333333333</ele><time>2026-05-02T13:15:44.486Z</time></trkpt><trkpt lat="39.9857486" lon="8.4494587"><ele>7.666666666666666</ele><time>2026-05-02T13:15:45.485Z</time></trkpt><trkpt lat="39.9856777" lon="8.4495468"><ele>8.0</ele><time>2026-05-02T13:15:47.484Z</time></trkpt><trkpt lat="39.9856067" lon="8.4495114"><ele>8.0</ele><time>2026-05-02T13:15:50.487Z</time></trkpt><trkpt lat="39.9855247" lon="8.4494055"><ele>8.0</ele><time>2026-05-02T13:15:52.484Z</time></trkpt><trkpt lat="39.9854624" lon="8.4493314"><ele>8.0</ele><time>2026-05-02T13:15:53.486Z</time></trkpt><trkpt lat="39.9853927" lon="8.4492396"><ele>8.0</ele><time>2026-05-02T13:15:54.485Z</time></trkpt><trkpt lat="39.9853122" lon="8.4491356"><ele>8.0</ele><time>2026-05-02T13:15:55.486Z</time></trkpt><trkpt lat="39.9852278" lon="8.4490246"><ele>8.0</ele><time>2026-05-02T13:15:56.486Z</time></trkpt><trkpt lat="39.9851405" lon="8.4489142"><ele>8.0</ele><time>2026-05-02T13:15:57.485Z</time></trkpt><trkpt lat="39.9850579" lon="8.4488044"><ele>8.0</ele><time>2026-05-02T13:15:58.486Z</time></trkpt><trkpt lat="39.9849757" lon="8.4486903"><ele>8.0</ele><time>2026-05-02T13:15:59.484Z</time></trkpt><trkpt lat="39.9848931" lon="8.4485785"><ele>8.0</ele><time>2026-05-02T13:16:00.486Z</time></trkpt><trkpt lat="39.984809" lon="8.4484612"><ele>8.0</ele><time>2026-05-02T13:16:01.484Z</time></trkpt><trkpt lat="39.9847259" lon="8.4483397"><ele>8.0</ele><time>2026-05-02T13:16:02.485Z</time></trkpt><trkpt lat="39.9846449" lon="8.4482131"><ele>8.0</ele><time>2026-05-02T13:16:03.485Z</time></trkpt><trkpt lat="39.9845607" lon="8.4480812"><ele>7.75</ele><time>2026-05-02T13:16:04.485Z</time></trkpt><trkpt lat="39.9844799" lon="8.4479546"><ele>7.5</ele><time>2026-05-02T13:16:05.486Z</time></trkpt><trkpt lat="39.9843929" lon="8.4478305"><ele>7.25</ele><time>2026-05-02T13:16:06.485Z</time></trkpt><trkpt lat="39.9842964" lon="8.447707"><ele>7.0</ele><time>2026-05-02T13:16:07.486Z</time></trkpt><trkpt lat="39.9842013" lon="8.4475864"><ele>7.75</ele><time>2026-05-02T13:16:08.487Z</time></trkpt><trkpt lat="39.9841033" lon="8.447468"><ele>8.5</ele><time>2026-05-02T13:16:09.486Z</time></trkpt><trkpt lat="39.9840106" lon="8.4473525"><ele>9.25</ele><time>2026-05-02T13:16:10.484Z</time></trkpt><trkpt lat="39.9839175" lon="8.44724"><ele>10.0</ele><time>2026-05-02T13:16:11.484Z</time></trkpt><trkpt lat="39.9838305" lon="8.4471312"><ele>10.0</ele><time>2026-05-02T13:16:12.485Z</time></trkpt><trkpt lat="39.9837531" lon="8.4470291"><ele>10.0</ele><time>2026-05-02T13:16:13.484Z</time></trkpt><trkpt lat="39.9836868" lon="8.4469333"><ele>10.0</ele><time>2026-05-02T13:16:14.485Z</time></trkpt><trkpt lat="39.9836241" lon="8.4468299"><ele>10.0</ele><time>2026-05-02T13:16:15.485Z</time></trkpt><trkpt lat="39.9835647" lon="8.4467152"><ele>10.0</ele><time>2026-05-02T13:16:16.486Z</time></trkpt><trkpt lat="39.983517" lon="8.4465964"><ele>10.0</ele><time>2026-05-02T13:16:17.485Z</time></trkpt><trkpt lat="39.983472" lon="8.446466"><ele>10.0</ele><time>2026-05-02T13:16:18.485Z</time></trkpt><trkpt lat="39.9834463" lon="8.4463147"><ele>10.0</ele><time>2026-05-02T13:16:19.486Z</time></trkpt><trkpt lat="39.9834351" lon="8.4461504"><ele>10.0</ele><time>2026-05-02T13:16:20.485Z</time></trkpt><trkpt lat="39.9834211" lon="8.4459785"><ele>9.75</ele><time>2026-05-02T13:16:21.485Z</time></trkpt><trkpt lat="39.9834034" lon="8.4458025"><ele>9.5</ele><time>2026-05-02T13:16:22.485Z</time></trkpt><trkpt lat="39.9833839" lon="8.4456285"><ele>9.25</ele><time>2026-05-02T13:16:23.486Z</time></trkpt><trkpt lat="39.9833588" lon="8.4454552"><ele>9.0</ele><time>2026-05-02T13:16:24.485Z</time></trkpt><trkpt lat="39.983329" lon="8.4452876"><ele>8.75</ele><time>2026-05-02T13:16:25.486Z</time></trkpt><trkpt lat="39.9832952" lon="8.4451283"><ele>8.5</ele><time>2026-05-02T13:16:26.485Z</time></trkpt><trkpt lat="39.9832663" lon="8.4449924"><ele>8.25</ele><time>2026-05-02T13:16:27.486Z</time></trkpt><trkpt lat="39.9832347" lon="8.4448536"><ele>8.0</ele><time>2026-05-02T13:16:28.485Z</time></trkpt><trkpt lat="39.9832008" lon="8.444703"><ele>8.0</ele><time>2026-05-02T13:16:29.486Z</time></trkpt><trkpt lat="39.9831626" lon="8.4445451"><ele>8.0</ele><time>2026-05-02T13:16:30.486Z</time></trkpt><trkpt lat="39.9831088" lon="8.4443907"><ele>8.0</ele><time>2026-05-02T13:16:31.485Z</time></trkpt><trkpt lat="39.983056" lon="8.4442398"><ele>8.0</ele><time>2026-05-02T13:16:32.485Z</time></trkpt><trkpt lat="39.9830015" lon="8.4441091"><ele>8.0</ele><time>2026-05-02T13:16:33.484Z</time></trkpt><trkpt lat="39.9829288" lon="8.4439862"><ele>8.0</ele><time>2026-05-02T13:16:34.484Z</time></trkpt><trkpt lat="39.9828433" lon="8.443861"><ele>8.0</ele><time>2026-05-02T13:16:35.485Z</time></trkpt><trkpt lat="39.9827631" lon="8.4437339"><ele>8.0</ele><time>2026-05-02T13:16:36.486Z</time></trkpt><trkpt lat="39.9826836" lon="8.4436098"><ele>7.75</ele><time>2026-05-02T13:16:37.486Z</time></trkpt><trkpt lat="39.9826054" lon="8.4434914"><ele>7.5</ele><time>2026-05-02T13:16:38.485Z</time></trkpt><trkpt lat="39.9825299" lon="8.4433758"><ele>7.25</ele><time>2026-05-02T13:16:39.486Z</time></trkpt><trkpt lat="39.9824569" lon="8.4432607"><ele>7.0</ele><time>2026-05-02T13:16:40.484Z</time></trkpt><trkpt lat="39.982384" lon="8.4431447"><ele>7.0</ele><time>2026-05-02T13:16:41.486Z</time></trkpt><trkpt lat="39.9823035" lon="8.4430232"><ele>6.999999999999999</ele><time>2026-05-02T13:16:42.486Z</time></trkpt><trkpt lat="39.982222" lon="8.4429113"><ele>6.999999999999999</ele><time>2026-05-02T13:16:43.486Z</time></trkpt><trkpt lat="39.9821531" lon="8.4427977"><ele>7.0</ele><time>2026-05-02T13:16:44.485Z</time></trkpt><trkpt lat="39.9820953" lon="8.442701"><ele>7.0</ele><time>2026-05-02T13:16:45.485Z</time></trkpt><trkpt lat="39.9820472" lon="8.4426263"><ele>6.6</ele><time>2026-05-02T13:16:46.484Z</time></trkpt><trkpt lat="39.9819892" lon="8.4425274"><ele>6.199999999999999</ele><time>2026-05-02T13:16:48.485Z</time></trkpt><trkpt lat="39.9819425" lon="8.4424537"><ele>5.8</ele><time>2026-05-02T13:16:50.485Z</time></trkpt><trkpt lat="39.9818812" lon="8.4423017"><ele>5.4</ele><time>2026-05-02T13:16:52.484Z</time></trkpt><trkpt lat="39.9818483" lon="8.4421775"><ele>5.0</ele><time>2026-05-02T13:16:53.486Z</time></trkpt><trkpt lat="39.9818186" lon="8.442029"><ele>5.0</ele><time>2026-05-02T13:16:54.484Z</time></trkpt><trkpt lat="39.9817849" lon="8.4418704"><ele>5.0</ele><time>2026-05-02T13:16:55.484Z</time></trkpt><trkpt lat="39.9817514" lon="8.4417125"><ele>5.0</ele><time>2026-05-02T13:16:56.486Z</time></trkpt><trkpt lat="39.981712" lon="8.4415476"><ele>5.0</ele><time>2026-05-02T13:16:57.485Z</time></trkpt><trkpt lat="39.9816629" lon="8.4413852"><ele>5.5</ele><time>2026-05-02T13:16:58.484Z</time></trkpt><trkpt lat="39.9816041" lon="8.4412363"><ele>6.0</ele><time>2026-05-02T13:16:59.484Z</time></trkpt><trkpt lat="39.9815327" lon="8.4410919"><ele>6.5</ele><time>2026-05-02T13:17:00.484Z</time></trkpt><trkpt lat="39.9814442" lon="8.440946"><ele>7.0</ele><time>2026-05-02T13:17:01.485Z</time></trkpt><trkpt lat="39.9813487" lon="8.4407946"><ele>7.0</ele><time>2026-05-02T13:17:02.484Z</time></trkpt><trkpt lat="39.9812546" lon="8.4406374"><ele>7.0</ele><time>2026-05-02T13:17:03.485Z</time></trkpt><trkpt lat="39.981157" lon="8.4404794"><ele>7.0</ele><time>2026-05-02T13:17:04.485Z</time></trkpt><trkpt lat="39.9810516" lon="8.4403131"><ele>7.0</ele><time>2026-05-02T13:17:05.484Z</time></trkpt><trkpt lat="39.9809445" lon="8.4401438"><ele>7.0</ele><time>2026-05-02T13:17:06.486Z</time></trkpt><trkpt lat="39.980841" lon="8.4399781"><ele>7.0</ele><time>2026-05-02T13:17:07.486Z</time></trkpt><trkpt lat="39.9807391" lon="8.4398112"><ele>7.0</ele><time>2026-05-02T13:17:08.485Z</time></trkpt><trkpt lat="39.9806389" lon="8.4396458"><ele>7.0</ele><time>2026-05-02T13:17:09.486Z</time></trkpt><trkpt lat="39.9805399" lon="8.4394839"><ele>7.0</ele><time>2026-05-02T13:17:10.484Z</time></trkpt><trkpt lat="39.9804454" lon="8.4393193"><ele>7.0</ele><time>2026-05-02T13:17:11.485Z</time></trkpt><trkpt lat="39.9803553" lon="8.4391554"><ele>7.0</ele><time>2026-05-02T13:17:12.484Z</time></trkpt><trkpt lat="39.9802644" lon="8.4389925"><ele>7.0</ele><time>2026-05-02T13:17:13.486Z</time></trkpt><trkpt lat="39.9801713" lon="8.4388335"><ele>7.333333333333334</ele><time>2026-05-02T13:17:14.485Z</time></trkpt><trkpt lat="39.9800778" lon="8.4386708"><ele>7.666666666666666</ele><time>2026-05-02T13:17:15.485Z</time></trkpt><trkpt lat="39.979984" lon="8.4385073"><ele>8.0</ele><time>2026-05-02T13:17:16.485Z</time></trkpt><trkpt lat="39.9798896" lon="8.4383466"><ele>8.333333333333332</ele><time>2026-05-02T13:17:17.485Z</time></trkpt><trkpt lat="39.9797911" lon="8.4381861"><ele>8.666666666666666</ele><time>2026-05-02T13:17:18.484Z</time></trkpt><trkpt lat="39.9796909" lon="8.4380319"><ele>9.0</ele><time>2026-05-02T13:17:19.485Z</time></trkpt><trkpt lat="39.979591" lon="8.4378787"><ele>9.0</ele><time>2026-05-02T13:17:20.484Z</time></trkpt><trkpt lat="39.9794878" lon="8.437734"><ele>9.0</ele><time>2026-05-02T13:17:21.486Z</time></trkpt><trkpt lat="39.9793857" lon="8.4375855"><ele>9.0</ele><time>2026-05-02T13:17:22.485Z</time></trkpt><trkpt lat="39.9792871" lon="8.4374353"><ele>9.0</ele><time>2026-05-02T13:17:23.485Z</time></trkpt><trkpt lat="39.9791867" lon="8.437288"><ele>9.0</ele><time>2026-05-02T13:17:24.484Z</time></trkpt><trkpt lat="39.9790891" lon="8.437145"><ele>9.0</ele><time>2026-05-02T13:17:25.484Z</time></trkpt><trkpt lat="39.9789914" lon="8.4370069"><ele>9.0</ele><time>2026-05-02T13:17:26.485Z</time></trkpt><trkpt lat="39.9788899" lon="8.4368717"><ele>9.75</ele><time>2026-05-02T13:17:27.485Z</time></trkpt><trkpt lat="39.9787944" lon="8.4367358"><ele>10.5</ele><time>2026-05-02T13:17:28.485Z</time></trkpt><trkpt lat="39.9787062" lon="8.4365877"><ele>11.25</ele><time>2026-05-02T13:17:29.485Z</time></trkpt><trkpt lat="39.9786269" lon="8.436434"><ele>12.0</ele><time>2026-05-02T13:17:30.485Z</time></trkpt><trkpt lat="39.978554" lon="8.4362759"><ele>12.25</ele><time>2026-05-02T13:17:31.485Z</time></trkpt><trkpt lat="39.9784982" lon="8.4361121"><ele>12.5</ele><time>2026-05-02T13:17:32.486Z</time></trkpt><trkpt lat="39.9784511" lon="8.4359316"><ele>12.75</ele><time>2026-05-02T13:17:33.484Z</time></trkpt><trkpt lat="39.9784137" lon="8.4357382"><ele>13.0</ele><time>2026-05-02T13:17:34.486Z</time></trkpt><trkpt lat="39.97838" lon="8.4355442"><ele>13.0</ele><time>2026-05-02T13:17:35.485Z</time></trkpt><trkpt lat="39.9783515" lon="8.4353559"><ele>13.0</ele><time>2026-05-02T13:17:36.486Z</time></trkpt><trkpt lat="39.9783292" lon="8.4351784"><ele>13.0</ele><time>2026-05-02T13:17:37.484Z</time></trkpt><trkpt lat="39.9783037" lon="8.4350001"><ele>13.0</ele><time>2026-05-02T13:17:38.485Z</time></trkpt><trkpt lat="39.9782791" lon="8.4348323"><ele>13.0</ele><time>2026-05-02T13:17:39.484Z</time></trkpt><trkpt lat="39.9782493" lon="8.4346959"><ele>13.0</ele><time>2026-05-02T13:17:40.484Z</time></trkpt><trkpt lat="39.978208" lon="8.4345886"><ele>13.0</ele><time>2026-05-02T13:17:41.486Z</time></trkpt><trkpt lat="39.978156" lon="8.4345099"><ele>13.0</ele><time>2026-05-02T13:17:42.484Z</time></trkpt><trkpt lat="39.9780832" lon="8.4344508"><ele>13.0</ele><time>2026-05-02T13:17:43.484Z</time></trkpt><trkpt lat="39.977988" lon="8.4343841"><ele>12.999999999999998</ele><time>2026-05-02T13:17:44.484Z</time></trkpt><trkpt lat="39.9778948" lon="8.4342996"><ele>13.0</ele><time>2026-05-02T13:17:45.486Z</time></trkpt><trkpt lat="39.9778271" lon="8.4342359"><ele>13.0</ele><time>2026-05-02T13:17:46.484Z</time></trkpt><trkpt lat="39.9777812" lon="8.434174"><ele>13.0</ele><time>2026-05-02T13:17:47.484Z</time></trkpt><trkpt lat="39.9777459" lon="8.4340862"><ele>12.999999999999998</ele><time>2026-05-02T13:17:48.485Z</time></trkpt><trkpt lat="39.9777207" lon="8.4339614"><ele>13.0</ele><time>2026-05-02T13:17:49.484Z</time></trkpt><trkpt lat="39.9776938" lon="8.4338031"><ele>13.666666666666666</ele><time>2026-05-02T13:17:50.485Z</time></trkpt><trkpt lat="39.9776499" lon="8.433626"><ele>14.333333333333332</ele><time>2026-05-02T13:17:51.484Z</time></trkpt><trkpt lat="39.977588" lon="8.4334442"><ele>15.0</ele><time>2026-05-02T13:17:52.486Z</time></trkpt><trkpt lat="39.9775123" lon="8.4332487"><ele>15.333333333333332</ele><time>2026-05-02T13:17:53.486Z</time></trkpt><trkpt lat="39.9774356" lon="8.4330325"><ele>15.666666666666666</ele><time>2026-05-02T13:17:54.485Z</time></trkpt><trkpt lat="39.9773415" lon="8.4328016"><ele>16.0</ele><time>2026-05-02T13:17:55.485Z</time></trkpt><trkpt lat="39.9772348" lon="8.4325654"><ele>16.0</ele><time>2026-05-02T13:17:56.484Z</time></trkpt><trkpt lat="39.9771257" lon="8.432323"><ele>16.0</ele><time>2026-05-02T13:17:57.486Z</time></trkpt><trkpt lat="39.9770171" lon="8.4320822"><ele>16.0</ele><time>2026-05-02T13:17:58.484Z</time></trkpt><trkpt lat="39.976915" lon="8.4318545"><ele>16.333333333333332</ele><time>2026-05-02T13:17:59.485Z</time></trkpt><trkpt lat="39.9768255" lon="8.431646"><ele>16.666666666666668</ele><time>2026-05-02T13:18:00.484Z</time></trkpt><trkpt lat="39.9767486" lon="8.4314334"><ele>17.0</ele><time>2026-05-02T13:18:01.485Z</time></trkpt><trkpt lat="39.9766795" lon="8.4312153"><ele>17.0</ele><time>2026-05-02T13:18:02.486Z</time></trkpt><trkpt lat="39.9766137" lon="8.4309939"><ele>17.0</ele><time>2026-05-02T13:18:03.485Z</time></trkpt><trkpt lat="39.9765471" lon="8.4307701"><ele>17.0</ele><time>2026-05-02T13:18:04.485Z</time></trkpt><trkpt lat="39.9764716" lon="8.4305494"><ele>17.333333333333336</ele><time>2026-05-02T13:18:05.486Z</time></trkpt><trkpt lat="39.97639" lon="8.4303335"><ele>17.666666666666668</ele><time>2026-05-02T13:18:06.486Z</time></trkpt><trkpt lat="39.9763019" lon="8.4301165"><ele>18.0</ele><time>2026-05-02T13:18:07.486Z</time></trkpt><trkpt lat="39.9762126" lon="8.4298996"><ele>18.0</ele><time>2026-05-02T13:18:08.484Z</time></trkpt><trkpt lat="39.9761229" lon="8.4296859"><ele>18.0</ele><time>2026-05-02T13:18:09.484Z</time></trkpt><trkpt lat="39.9760394" lon="8.4294695"><ele>18.0</ele><time>2026-05-02T13:18:10.485Z</time></trkpt><trkpt lat="39.9759691" lon="8.4292488"><ele>18.0</ele><time>2026-05-02T13:18:11.485Z</time></trkpt><trkpt lat="39.9759055" lon="8.4290317"><ele>18.0</ele><time>2026-05-02T13:18:12.484Z</time></trkpt><trkpt lat="39.9758456" lon="8.4288229"><ele>18.0</ele><time>2026-05-02T13:18:13.485Z</time></trkpt><trkpt lat="39.9757823" lon="8.4286237"><ele>18.0</ele><time>2026-05-02T13:18:14.484Z</time></trkpt><trkpt lat="39.9757002" lon="8.4284209"><ele>18.0</ele><time>2026-05-02T13:18:15.484Z</time></trkpt><trkpt lat="39.9756072" lon="8.4282184"><ele>18.0</ele><time>2026-05-02T13:18:16.484Z</time></trkpt><trkpt lat="39.9755046" lon="8.4280222"><ele>17.666666666666668</ele><time>2026-05-02T13:18:17.485Z</time></trkpt><trkpt lat="39.9753972" lon="8.427819"><ele>17.333333333333336</ele><time>2026-05-02T13:18:18.487Z</time></trkpt><trkpt lat="39.975295" lon="8.427621"><ele>17.0</ele><time>2026-05-02T13:18:19.484Z</time></trkpt><trkpt lat="39.9751995" lon="8.4274211"><ele>17.0</ele><time>2026-05-02T13:18:20.485Z</time></trkpt><trkpt lat="39.9751163" lon="8.4272344"><ele>17.0</ele><time>2026-05-02T13:18:21.487Z</time></trkpt><trkpt lat="39.975042" lon="8.4270591"><ele>17.0</ele><time>2026-05-02T13:18:22.484Z</time></trkpt><trkpt lat="39.974987" lon="8.426905"><ele>17.0</ele><time>2026-05-02T13:18:23.486Z</time></trkpt><trkpt lat="39.9749528" lon="8.4267653"><ele>17.4</ele><time>2026-05-02T13:18:24.485Z</time></trkpt><trkpt lat="39.9749463" lon="8.4266433"><ele>17.799999999999997</ele><time>2026-05-02T13:18:25.485Z</time></trkpt><trkpt lat="39.9749554" lon="8.4264816"><ele>18.2</ele><time>2026-05-02T13:18:26.484Z</time></trkpt><trkpt lat="39.9749673" lon="8.4263333"><ele>18.599999999999998</ele><time>2026-05-02T13:18:27.486Z</time></trkpt><trkpt lat="39.97496" lon="8.4261961"><ele>19.0</ele><time>2026-05-02T13:18:28.486Z</time></trkpt><trkpt lat="39.97493" lon="8.4260582"><ele>19.166666666666664</ele><time>2026-05-02T13:18:29.485Z</time></trkpt><trkpt lat="39.9748939" lon="8.4259274"><ele>19.333333333333332</ele><time>2026-05-02T13:18:30.485Z</time></trkpt><trkpt lat="39.9748675" lon="8.4258121"><ele>19.5</ele><time>2026-05-02T13:18:31.485Z</time></trkpt><trkpt lat="39.9748537" lon="8.425716"><ele>19.666666666666668</ele><time>2026-05-02T13:18:32.485Z</time></trkpt><trkpt lat="39.9748538" lon="8.4256079"><ele>19.833333333333336</ele><time>2026-05-02T13:18:34.486Z</time></trkpt><trkpt lat="39.9748456" lon="8.4256932"><ele>20.0</ele><time>2026-05-02T13:18:43.485Z</time></trkpt><trkpt lat="39.9748507" lon="8.4257783"><ele>20.0</ele><time>2026-05-02T13:18:45.485Z</time></trkpt><trkpt lat="39.9748576" lon="8.4258644"><ele>20.0</ele><time>2026-05-02T13:18:48.486Z</time></trkpt><trkpt lat="39.9748887" lon="8.4259936"><ele>20.0</ele><time>2026-05-02T13:18:52.486Z</time></trkpt><trkpt lat="39.97492" lon="8.4261279"><ele>20.0</ele><time>2026-05-02T13:18:54.485Z</time></trkpt><trkpt lat="39.974951" lon="8.426265"><ele>20.0</ele><time>2026-05-02T13:18:56.486Z</time></trkpt><trkpt lat="39.9749668" lon="8.426359"><ele>19.833333333333336</ele><time>2026-05-02T13:18:58.485Z</time></trkpt><trkpt lat="39.9749575" lon="8.4264626"><ele>19.666666666666668</ele><time>2026-05-02T13:19:21.485Z</time></trkpt><trkpt lat="39.974945" lon="8.42655"><ele>19.5</ele><time>2026-05-02T13:19:22.485Z</time></trkpt><trkpt lat="39.9749337" lon="8.4266506"><ele>19.333333333333332</ele><time>2026-05-02T13:19:23.484Z</time></trkpt><trkpt lat="39.974932" lon="8.4267606"><ele>19.166666666666664</ele><time>2026-05-02T13:19:24.486Z</time></trkpt><trkpt lat="39.9749489" lon="8.4268758"><ele>19.0</ele><time>2026-05-02T13:19:25.485Z</time></trkpt><trkpt lat="39.9749821" lon="8.4269837"><ele>19.0</ele><time>2026-05-02T13:19:26.485Z</time></trkpt><trkpt lat="39.9750228" lon="8.4270876"><ele>19.0</ele><time>2026-05-02T13:19:27.485Z</time></trkpt><trkpt lat="39.9750516" lon="8.4271646"><ele>19.0</ele><time>2026-05-02T13:19:28.484Z</time></trkpt><trkpt lat="39.9750197" lon="8.4269988"><ele>19.0</ele><time>2026-05-02T13:19:36.486Z</time></trkpt><trkpt lat="39.9749721" lon="8.4268525"><ele>19.0</ele><time>2026-05-02T13:19:37.485Z</time></trkpt><trkpt lat="39.9749459" lon="8.4267178"><ele>19.0</ele><time>2026-05-02T13:19:38.484Z</time></trkpt><trkpt lat="39.9749505" lon="8.4265954"><ele>19.0</ele><time>2026-05-02T13:19:39.485Z</time></trkpt><trkpt lat="39.9749608" lon="8.426465"><ele>19.0</ele><time>2026-05-02T13:19:40.485Z</time></trkpt><trkpt lat="39.9749662" lon="8.426357"><ele>19.0</ele><time>2026-05-02T13:19:41.484Z</time></trkpt><trkpt lat="39.9749676" lon="8.4262741"><ele>19.0</ele><time>2026-05-02T13:19:42.484Z</time></trkpt><trkpt lat="39.974957" lon="8.4261817"><ele>19.0</ele><time>2026-05-02T13:19:43.483Z</time></trkpt><trkpt lat="39.9749245" lon="8.4260721"><ele>19.166666666666664</ele><time>2026-05-02T13:19:44.484Z</time></trkpt><trkpt lat="39.9748858" lon="8.425959"><ele>19.333333333333332</ele><time>2026-05-02T13:19:45.486Z</time></trkpt><trkpt lat="39.9748846" lon="8.425875"><ele>19.5</ele><time>2026-05-02T13:19:46.485Z</time></trkpt><trkpt lat="39.9748618" lon="8.4257803"><ele>19.666666666666668</ele><time>2026-05-02T13:19:48.484Z</time></trkpt><trkpt lat="39.9748793" lon="8.4258974"><ele>19.833333333333336</ele><time>2026-05-02T13:19:52.485Z</time></trkpt><trkpt lat="39.9749021" lon="8.4259866"><ele>20.0</ele><time>2026-05-02T13:19:53.484Z</time></trkpt><trkpt lat="39.9749245" lon="8.4260918"><ele>20.0</ele><time>2026-05-02T13:19:54.485Z</time></trkpt><trkpt lat="39.9749446" lon="8.4261884"><ele>20.0</ele><time>2026-05-02T13:19:55.486Z</time></trkpt><trkpt lat="39.9749544" lon="8.4262736"><ele>20.0</ele><time>2026-05-02T13:19:56.484Z</time></trkpt><trkpt lat="39.9749534" lon="8.4264055"><ele>20.0</ele><time>2026-05-02T13:19:58.486Z</time></trkpt><trkpt lat="39.9749373" lon="8.4265332"><ele>20.0</ele><time>2026-05-02T13:20:00.484Z</time></trkpt><trkpt lat="39.9749263" lon="8.4266216"><ele>20.0</ele><time>2026-05-02T13:20:01.484Z</time></trkpt><trkpt lat="39.9749277" lon="8.4267144"><ele>19.833333333333336</ele><time>2026-05-02T13:20:02.484Z</time></trkpt><trkpt lat="39.9749335" lon="8.4268038"><ele>19.666666666666668</ele><time>2026-05-02T13:20:03.484Z</time></trkpt><trkpt lat="39.9749648" lon="8.426948"><ele>19.5</ele><time>2026-05-02T13:20:05.485Z</time></trkpt><trkpt lat="39.9749957" lon="8.4270223"><ele>19.333333333333332</ele><time>2026-05-02T13:20:07.485Z</time></trkpt><trkpt lat="39.97498" lon="8.4268993"><ele>19.166666666666664</ele><time>2026-05-02T13:20:20.486Z</time></trkpt><trkpt lat="39.9749536" lon="8.4267888"><ele>19.0</ele><time>2026-05-02T13:20:21.485Z</time></trkpt><trkpt lat="39.9749413" lon="8.4266582"><ele>19.0</ele><time>2026-05-02T13:20:22.484Z</time></trkpt><trkpt lat="39.9749471" lon="8.4265134"><ele>19.0</ele><time>2026-05-02T13:20:23.484Z</time></trkpt><trkpt lat="39.9749665" lon="8.4263514"><ele>19.0</ele><time>2026-05-02T13:20:24.485Z</time></trkpt><trkpt lat="39.9749585" lon="8.4262218"><ele>19.0</ele><time>2026-05-02T13:20:25.485Z</time></trkpt><trkpt lat="39.9749315" lon="8.426073"><ele>19.0</ele><time>2026-05-02T13:20:26.485Z</time></trkpt><trkpt lat="39.9748892" lon="8.4259176"><ele>19.0</ele><time>2026-05-02T13:20:27.485Z</time></trkpt><trkpt lat="39.9748698" lon="8.4257719"><ele>19.0</ele><time>2026-05-02T13:20:28.485Z</time></trkpt><trkpt lat="39.9748635" lon="8.4256434"><ele>19.0</ele><time>2026-05-02T13:20:29.486Z</time></trkpt><trkpt lat="39.9748629" lon="8.4255111"><ele>19.0</ele><time>2026-05-02T13:20:30.485Z</time></trkpt><trkpt lat="39.9748742" lon="8.4253465"><ele>19.0</ele><time>2026-05-02T13:20:31.483Z</time></trkpt><trkpt lat="39.9748777" lon="8.4251844"><ele>19.0</ele><time>2026-05-02T13:20:32.486Z</time></trkpt><trkpt lat="39.9748771" lon="8.4250538"><ele>19.0</ele><time>2026-05-02T13:20:33.485Z</time></trkpt><trkpt lat="39.9748583" lon="8.4249162"><ele>19.0</ele><time>2026-05-02T13:20:34.485Z</time></trkpt><trkpt lat="39.9748175" lon="8.4247685"><ele>19.25</ele><time>2026-05-02T13:20:35.485Z</time></trkpt><trkpt lat="39.9747463" lon="8.424585"><ele>19.5</ele><time>2026-05-02T13:20:36.486Z</time></trkpt><trkpt lat="39.9746854" lon="8.4244156"><ele>19.75</ele><time>2026-05-02T13:20:37.484Z</time></trkpt><trkpt lat="39.97461" lon="8.4242562"><ele>20.0</ele><time>2026-05-02T13:20:38.485Z</time></trkpt><trkpt lat="39.974539" lon="8.4241011"><ele>20.0</ele><time>2026-05-02T13:20:39.486Z</time></trkpt><trkpt lat="39.9744956" lon="8.423943"><ele>20.0</ele><time>2026-05-02T13:20:40.485Z</time></trkpt><trkpt lat="39.9744718" lon="8.4237734"><ele>20.0</ele><time>2026-05-02T13:20:41.486Z</time></trkpt><trkpt lat="39.9744517" lon="8.4235988"><ele>20.0</ele><time>2026-05-02T13:20:42.486Z</time></trkpt><trkpt lat="39.9744247" lon="8.4234382"><ele>19.75</ele><time>2026-05-02T13:20:43.485Z</time></trkpt><trkpt lat="39.9743789" lon="8.4232883"><ele>19.5</ele><time>2026-05-02T13:20:44.485Z</time></trkpt><trkpt lat="39.9743094" lon="8.4231237"><ele>19.25</ele><time>2026-05-02T13:20:45.486Z</time></trkpt><trkpt lat="39.9742419" lon="8.4229531"><ele>19.0</ele><time>2026-05-02T13:20:46.485Z</time></trkpt><trkpt lat="39.9741899" lon="8.4227591"><ele>18.666666666666664</ele><time>2026-05-02T13:20:47.484Z</time></trkpt><trkpt lat="39.9741478" lon="8.4225538"><ele>18.333333333333332</ele><time>2026-05-02T13:20:48.485Z</time></trkpt><trkpt lat="39.974113" lon="8.422336"><ele>18.0</ele><time>2026-05-02T13:20:49.485Z</time></trkpt><trkpt lat="39.9740813" lon="8.4221172"><ele>18.0</ele><time>2026-05-02T13:20:50.485Z</time></trkpt><trkpt lat="39.9740499" lon="8.4218974"><ele>18.0</ele><time>2026-05-02T13:20:51.486Z</time></trkpt><trkpt lat="39.9740085" lon="8.4216945"><ele>18.0</ele><time>2026-05-02T13:20:52.484Z</time></trkpt><trkpt lat="39.9739515" lon="8.4215022"><ele>18.0</ele><time>2026-05-02T13:20:53.484Z</time></trkpt><trkpt lat="39.9738851" lon="8.4213117"><ele>18.0</ele><time>2026-05-02T13:20:54.484Z</time></trkpt><trkpt lat="39.9738003" lon="8.4211121"><ele>18.0</ele><time>2026-05-02T13:20:55.484Z</time></trkpt><trkpt lat="39.9737097" lon="8.420936"><ele>18.0</ele><time>2026-05-02T13:20:56.485Z</time></trkpt><trkpt lat="39.9736346" lon="8.4208012"><ele>18.0</ele><time>2026-05-02T13:20:57.485Z</time></trkpt><trkpt lat="39.9735791" lon="8.4206988"><ele>18.0</ele><time>2026-05-02T13:20:58.484Z</time></trkpt><trkpt lat="39.9735356" lon="8.4206245"><ele>18.0</ele><time>2026-05-02T13:20:59.485Z</time></trkpt><trkpt lat="39.9735035" lon="8.4205267"><ele>18.0</ele><time>2026-05-02T13:21:05.485Z</time></trkpt><trkpt lat="39.9734424" lon="8.4205659"><ele>18.0</ele><time>2026-05-02T13:21:39.483Z</time></trkpt><trkpt lat="39.9733569" lon="8.4206972"><ele>18.5</ele><time>2026-05-02T13:21:41.484Z</time></trkpt><trkpt lat="39.973288" lon="8.4207977"><ele>19.0</ele><time>2026-05-02T13:21:42.486Z</time></trkpt><trkpt lat="39.9732035" lon="8.420927"><ele>19.5</ele><time>2026-05-02T13:21:43.484Z</time></trkpt><trkpt lat="39.9731152" lon="8.421066"><ele>20.0</ele><time>2026-05-02T13:21:44.484Z</time></trkpt><trkpt lat="39.9730062" lon="8.4212299"><ele>20.0</ele><time>2026-05-02T13:21:45.484Z</time></trkpt><trkpt lat="39.9728905" lon="8.4214049"><ele>20.0</ele><time>2026-05-02T13:21:46.484Z</time></trkpt><trkpt lat="39.972764" lon="8.4215918"><ele>20.0</ele><time>2026-05-02T13:21:47.485Z</time></trkpt><trkpt lat="39.9726253" lon="8.4217975"><ele>20.0</ele><time>2026-05-02T13:21:48.486Z</time></trkpt><trkpt lat="39.9724803" lon="8.4220168"><ele>20.0</ele><time>2026-05-02T13:21:49.483Z</time></trkpt><trkpt lat="39.9723198" lon="8.4222504"><ele>20.0</ele><time>2026-05-02T13:21:50.485Z</time></trkpt><trkpt lat="39.9721544" lon="8.4224932"><ele>20.0</ele><time>2026-05-02T13:21:51.483Z</time></trkpt><trkpt lat="39.9720011" lon="8.4227217"><ele>20.0</ele><time>2026-05-02T13:21:52.485Z</time></trkpt><trkpt lat="39.9718554" lon="8.4229353"><ele>20.0</ele><time>2026-05-02T13:21:53.485Z</time></trkpt><trkpt lat="39.9717216" lon="8.423132"><ele>20.0</ele><time>2026-05-02T13:21:54.484Z</time></trkpt><trkpt lat="39.9715971" lon="8.4233196"><ele>21.333333333333336</ele><time>2026-05-02T13:21:55.484Z</time></trkpt><trkpt lat="39.9714837" lon="8.4234999"><ele>22.666666666666668</ele><time>2026-05-02T13:21:56.485Z</time></trkpt><trkpt lat="39.9713785" lon="8.4236825"><ele>24.0</ele><time>2026-05-02T13:21:57.485Z</time></trkpt><trkpt lat="39.971288" lon="8.4238737"><ele>24.0</ele><time>2026-05-02T13:21:58.484Z</time></trkpt><trkpt lat="39.9712085" lon="8.4240673"><ele>24.0</ele><time>2026-05-02T13:21:59.484Z</time></trkpt><trkpt lat="39.9711456" lon="8.4242706"><ele>24.0</ele><time>2026-05-02T13:22:00.485Z</time></trkpt><trkpt lat="39.9710935" lon="8.4244754"><ele>24.666666666666664</ele><time>2026-05-02T13:22:01.485Z</time></trkpt><trkpt lat="39.971045" lon="8.4246802"><ele>25.333333333333332</ele><time>2026-05-02T13:22:02.484Z</time></trkpt><trkpt lat="39.9710017" lon="8.4248786"><ele>26.0</ele><time>2026-05-02T13:22:03.483Z</time></trkpt><trkpt lat="39.970958" lon="8.4250777"><ele>26.0</ele><time>2026-05-02T13:22:04.485Z</time></trkpt><trkpt lat="39.9709139" lon="8.4252755"><ele>26.0</ele><time>2026-05-02T13:22:05.483Z</time></trkpt><trkpt lat="39.9708741" lon="8.425473"><ele>26.0</ele><time>2026-05-02T13:22:06.484Z</time></trkpt><trkpt lat="39.9708335" lon="8.425665"><ele>26.666666666666664</ele><time>2026-05-02T13:22:07.486Z</time></trkpt><trkpt lat="39.970793" lon="8.4258594"><ele>27.333333333333336</ele><time>2026-05-02T13:22:08.485Z</time></trkpt><trkpt lat="39.970738" lon="8.4260437"><ele>28.0</ele><time>2026-05-02T13:22:09.485Z</time></trkpt><trkpt lat="39.970668" lon="8.4262204"><ele>28.666666666666668</ele><time>2026-05-02T13:22:10.484Z</time></trkpt><trkpt lat="39.9705775" lon="8.4263915"><ele>29.333333333333336</ele><time>2026-05-02T13:22:11.485Z</time></trkpt><trkpt lat="39.970482" lon="8.4265519"><ele>30.0</ele><time>2026-05-02T13:22:12.484Z</time></trkpt><trkpt lat="39.9703689" lon="8.4267041"><ele>30.0</ele><time>2026-05-02T13:22:13.486Z</time></trkpt><trkpt lat="39.9702463" lon="8.426847"><ele>30.0</ele><time>2026-05-02T13:22:14.484Z</time></trkpt><trkpt lat="39.9701138" lon="8.4269744"><ele>30.0</ele><time>2026-05-02T13:22:15.485Z</time></trkpt><trkpt lat="39.9699804" lon="8.4270997"><ele>32.333333333333336</ele><time>2026-05-02T13:22:16.483Z</time></trkpt><trkpt lat="39.9698529" lon="8.4272293"><ele>34.66666666666667</ele><time>2026-05-02T13:22:17.483Z</time></trkpt><trkpt lat="39.9697229" lon="8.4273634"><ele>37.0</ele><time>2026-05-02T13:22:18.483Z</time></trkpt><trkpt lat="39.9695907" lon="8.4274898"><ele>37.0</ele><time>2026-05-02T13:22:19.483Z</time></trkpt><trkpt lat="39.9694631" lon="8.4276209"><ele>37.0</ele><time>2026-05-02T13:22:20.483Z</time></trkpt><trkpt lat="39.9693303" lon="8.4277522"><ele>37.0</ele><time>2026-05-02T13:22:21.485Z</time></trkpt><trkpt lat="39.9691964" lon="8.4278849"><ele>38.0</ele><time>2026-05-02T13:22:22.483Z</time></trkpt><trkpt lat="39.9690638" lon="8.4280203"><ele>39.0</ele><time>2026-05-02T13:22:23.483Z</time></trkpt><trkpt lat="39.9689223" lon="8.4281593"><ele>40.0</ele><time>2026-05-02T13:22:24.486Z</time></trkpt><trkpt lat="39.9687771" lon="8.428303"><ele>40.0</ele><time>2026-05-02T13:22:25.486Z</time></trkpt><trkpt lat="39.9686325" lon="8.4284455"><ele>40.0</ele><time>2026-05-02T13:22:26.483Z</time></trkpt><trkpt lat="39.9684755" lon="8.428603"><ele>40.0</ele><time>2026-05-02T13:22:27.485Z</time></trkpt><trkpt lat="39.9683016" lon="8.4287709"><ele>42.0</ele><time>2026-05-02T13:22:28.484Z</time></trkpt><trkpt lat="39.9681112" lon="8.4289576"><ele>44.0</ele><time>2026-05-02T13:22:29.484Z</time></trkpt><trkpt lat="39.9679167" lon="8.4291521"><ele>44.0</ele><time>2026-05-02T13:22:30.483Z</time></trkpt><trkpt lat="39.9677228" lon="8.4293445"><ele>44.0</ele><time>2026-05-02T13:22:31.484Z</time></trkpt><trkpt lat="39.9675409" lon="8.4295285"><ele>44.33333333333333</ele><time>2026-05-02T13:22:32.483Z</time></trkpt><trkpt lat="39.9673837" lon="8.4296976"><ele>44.666666666666664</ele><time>2026-05-02T13:22:33.484Z</time></trkpt><trkpt lat="39.9672369" lon="8.4298775"><ele>45.0</ele><time>2026-05-02T13:22:34.486Z</time></trkpt><trkpt lat="39.9671025" lon="8.4300698"><ele>45.0</ele><time>2026-05-02T13:22:35.484Z</time></trkpt><trkpt lat="39.9669793" lon="8.4302783"><ele>45.0</ele><time>2026-05-02T13:22:36.483Z</time></trkpt><trkpt lat="39.9668696" lon="8.4304959"><ele>45.0</ele><time>2026-05-02T13:22:37.484Z</time></trkpt><trkpt lat="39.9667617" lon="8.4307262"><ele>45.333333333333336</ele><time>2026-05-02T13:22:38.484Z</time></trkpt><trkpt lat="39.9666561" lon="8.430968"><ele>45.66666666666667</ele><time>2026-05-02T13:22:39.484Z</time></trkpt><trkpt lat="39.9665429" lon="8.4312131"><ele>46.0</ele><time>2026-05-02T13:22:40.484Z</time></trkpt><trkpt lat="39.9664332" lon="8.4314603"><ele>46.66666666666667</ele><time>2026-05-02T13:22:41.483Z</time></trkpt><trkpt lat="39.9663216" lon="8.4317122"><ele>47.333333333333336</ele><time>2026-05-02T13:22:42.484Z</time></trkpt><trkpt lat="39.9662117" lon="8.4319529"><ele>48.0</ele><time>2026-05-02T13:22:43.485Z</time></trkpt><trkpt lat="39.9661056" lon="8.4321946"><ele>48.66666666666667</ele><time>2026-05-02T13:22:44.483Z</time></trkpt><trkpt lat="39.9659997" lon="8.432432"><ele>49.333333333333336</ele><time>2026-05-02T13:22:45.483Z</time></trkpt><trkpt lat="39.9658945" lon="8.4326675"><ele>50.0</ele><time>2026-05-02T13:22:46.483Z</time></trkpt><trkpt lat="39.96579" lon="8.4329014"><ele>51.0</ele><time>2026-05-02T13:22:47.49Z</time></trkpt><trkpt lat="39.9656867" lon="8.4331334"><ele>52.0</ele><time>2026-05-02T13:22:48.485Z</time></trkpt><trkpt lat="39.9655919" lon="8.4333614"><ele>53.0</ele><time>2026-05-02T13:22:49.485Z</time></trkpt><trkpt lat="39.9655021" lon="8.433599"><ele>53.66666666666667</ele><time>2026-05-02T13:22:50.485Z</time></trkpt><trkpt lat="39.9654279" lon="8.4338414"><ele>54.33333333333333</ele><time>2026-05-02T13:22:51.485Z</time></trkpt><trkpt lat="39.9653623" lon="8.4340861"><ele>55.0</ele><time>2026-05-02T13:22:52.484Z</time></trkpt><trkpt lat="39.965304" lon="8.4343363"><ele>55.0</ele><time>2026-05-02T13:22:53.484Z</time></trkpt><trkpt lat="39.9652587" lon="8.4345836"><ele>55.0</ele><time>2026-05-02T13:22:54.485Z</time></trkpt><trkpt lat="39.965223" lon="8.4348405"><ele>55.0</ele><time>2026-05-02T13:22:55.484Z</time></trkpt><trkpt lat="39.9651875" lon="8.4351037"><ele>54.666666666666664</ele><time>2026-05-02T13:22:56.484Z</time></trkpt><trkpt lat="39.9651498" lon="8.4353657"><ele>54.33333333333333</ele><time>2026-05-02T13:22:57.484Z</time></trkpt><trkpt lat="39.965113" lon="8.4356282"><ele>54.0</ele><time>2026-05-02T13:22:58.484Z</time></trkpt><trkpt lat="39.9650752" lon="8.4358946"><ele>53.33333333333333</ele><time>2026-05-02T13:22:59.484Z</time></trkpt><trkpt lat="39.9650428" lon="8.4361661"><ele>52.666666666666664</ele><time>2026-05-02T13:23:00.484Z</time></trkpt><trkpt lat="39.9650082" lon="8.4364403"><ele>52.0</ele><time>2026-05-02T13:23:01.484Z</time></trkpt><trkpt lat="39.9649712" lon="8.4367125"><ele>51.33333333333333</ele><time>2026-05-02T13:23:02.483Z</time></trkpt><trkpt lat="39.9649283" lon="8.4369877"><ele>50.66666666666667</ele><time>2026-05-02T13:23:03.483Z</time></trkpt><trkpt lat="39.9648916" lon="8.4372615"><ele>50.0</ele><time>2026-05-02T13:23:04.483Z</time></trkpt><trkpt lat="39.9648524" lon="8.4375256"><ele>50.0</ele><time>2026-05-02T13:23:05.483Z</time></trkpt><trkpt lat="39.9648159" lon="8.4377871"><ele>50.0</ele><time>2026-05-02T13:23:06.485Z</time></trkpt><trkpt lat="39.9647851" lon="8.4380476"><ele>50.0</ele><time>2026-05-02T13:23:07.484Z</time></trkpt><trkpt lat="39.9647484" lon="8.438295"><ele>48.66666666666667</ele><time>2026-05-02T13:23:08.485Z</time></trkpt><trkpt lat="39.9647167" lon="8.4385432"><ele>47.333333333333336</ele><time>2026-05-02T13:23:09.485Z</time></trkpt><trkpt lat="39.9646962" lon="8.4387974"><ele>46.0</ele><time>2026-05-02T13:23:10.483Z</time></trkpt><trkpt lat="39.9646804" lon="8.439051"><ele>44.66666666666667</ele><time>2026-05-02T13:23:11.485Z</time></trkpt><trkpt lat="39.9646695" lon="8.4393067"><ele>43.333333333333336</ele><time>2026-05-02T13:23:12.486Z</time></trkpt><trkpt lat="39.9646666" lon="8.4395706"><ele>42.0</ele><time>2026-05-02T13:23:13.484Z</time></trkpt><trkpt lat="39.9646649" lon="8.4398311"><ele>41.666666666666664</ele><time>2026-05-02T13:23:14.484Z</time></trkpt><trkpt lat="39.9646639" lon="8.4400931"><ele>41.33333333333333</ele><time>2026-05-02T13:23:15.485Z</time></trkpt><trkpt lat="39.9646626" lon="8.4403491"><ele>41.0</ele><time>2026-05-02T13:23:16.484Z</time></trkpt><trkpt lat="39.9646588" lon="8.4406064"><ele>40.0</ele><time>2026-05-02T13:23:17.484Z</time></trkpt><trkpt lat="39.9646527" lon="8.4408585"><ele>39.0</ele><time>2026-05-02T13:23:18.483Z</time></trkpt><trkpt lat="39.9646476" lon="8.4410996"><ele>38.0</ele><time>2026-05-02T13:23:19.484Z</time></trkpt><trkpt lat="39.964636" lon="8.4413464"><ele>38.0</ele><time>2026-05-02T13:23:20.486Z</time></trkpt><trkpt lat="39.9646007" lon="8.4415975"><ele>38.0</ele><time>2026-05-02T13:23:21.486Z</time></trkpt><trkpt lat="39.964531" lon="8.4418421"><ele>38.0</ele><time>2026-05-02T13:23:22.485Z</time></trkpt><trkpt lat="39.9644332" lon="8.4420742"><ele>37.0</ele><time>2026-05-02T13:23:23.484Z</time></trkpt><trkpt lat="39.9643099" lon="8.4422884"><ele>36.0</ele><time>2026-05-02T13:23:24.485Z</time></trkpt><trkpt lat="39.9641662" lon="8.4424872"><ele>35.0</ele><time>2026-05-02T13:23:25.485Z</time></trkpt><trkpt lat="39.964018" lon="8.4426766"><ele>34.666666666666664</ele><time>2026-05-02T13:23:26.485Z</time></trkpt><trkpt lat="39.9638685" lon="8.442867"><ele>34.333333333333336</ele><time>2026-05-02T13:23:27.486Z</time></trkpt><trkpt lat="39.9637216" lon="8.4430615"><ele>34.0</ele><time>2026-05-02T13:23:28.485Z</time></trkpt><trkpt lat="39.9635734" lon="8.4432567"><ele>33.66666666666667</ele><time>2026-05-02T13:23:29.485Z</time></trkpt><trkpt lat="39.9634255" lon="8.44345"><ele>33.333333333333336</ele><time>2026-05-02T13:23:30.484Z</time></trkpt><trkpt lat="39.9632775" lon="8.4436371"><ele>33.0</ele><time>2026-05-02T13:23:31.486Z</time></trkpt><trkpt lat="39.9631305" lon="8.4438208"><ele>32.0</ele><time>2026-05-02T13:23:32.485Z</time></trkpt><trkpt lat="39.9629907" lon="8.4440021"><ele>31.0</ele><time>2026-05-02T13:23:33.485Z</time></trkpt><trkpt lat="39.9628537" lon="8.4441787"><ele>30.0</ele><time>2026-05-02T13:23:34.484Z</time></trkpt><trkpt lat="39.9627224" lon="8.4443538"><ele>30.0</ele><time>2026-05-02T13:23:35.485Z</time></trkpt><trkpt lat="39.9626036" lon="8.4445404"><ele>30.0</ele><time>2026-05-02T13:23:36.486Z</time></trkpt><trkpt lat="39.9625017" lon="8.4447475"><ele>30.0</ele><time>2026-05-02T13:23:37.486Z</time></trkpt><trkpt lat="39.9624183" lon="8.4449736"><ele>29.0</ele><time>2026-05-02T13:23:38.484Z</time></trkpt><trkpt lat="39.9623554" lon="8.445214"><ele>28.0</ele><time>2026-05-02T13:23:39.486Z</time></trkpt><trkpt lat="39.962297" lon="8.4454603"><ele>27.0</ele><time>2026-05-02T13:23:40.486Z</time></trkpt><trkpt lat="39.96224" lon="8.4457095"><ele>27.0</ele><time>2026-05-02T13:23:41.484Z</time></trkpt><trkpt lat="39.9621811" lon="8.4459591"><ele>27.0</ele><time>2026-05-02T13:23:42.484Z</time></trkpt><trkpt lat="39.9621193" lon="8.4462103"><ele>27.0</ele><time>2026-05-02T13:23:43.485Z</time></trkpt><trkpt lat="39.9620575" lon="8.4464633"><ele>27.333333333333336</ele><time>2026-05-02T13:23:44.485Z</time></trkpt><trkpt lat="39.9619992" lon="8.4467173"><ele>27.666666666666668</ele><time>2026-05-02T13:23:45.485Z</time></trkpt><trkpt lat="39.96194" lon="8.4469679"><ele>28.0</ele><time>2026-05-02T13:23:46.485Z</time></trkpt><trkpt lat="39.9618797" lon="8.4472159"><ele>29.0</ele><time>2026-05-02T13:23:47.486Z</time></trkpt><trkpt lat="39.9618203" lon="8.447458"><ele>30.0</ele><time>2026-05-02T13:23:48.486Z</time></trkpt><trkpt lat="39.9617596" lon="8.4477042"><ele>31.0</ele><time>2026-05-02T13:23:49.483Z</time></trkpt><trkpt lat="39.9617008" lon="8.4479412"><ele>29.666666666666668</ele><time>2026-05-02T13:23:50.485Z</time></trkpt><trkpt lat="39.9616437" lon="8.4481818"><ele>28.333333333333336</ele><time>2026-05-02T13:23:51.484Z</time></trkpt><trkpt lat="39.9615864" lon="8.4484227"><ele>27.0</ele><time>2026-05-02T13:23:52.485Z</time></trkpt><trkpt lat="39.9615375" lon="8.4486431"><ele>27.25</ele><time>2026-05-02T13:23:53.484Z</time></trkpt><trkpt lat="39.9614914" lon="8.448828"><ele>27.5</ele><time>2026-05-02T13:23:54.484Z</time></trkpt><trkpt lat="39.961447" lon="8.4489966"><ele>27.75</ele><time>2026-05-02T13:23:55.484Z</time></trkpt><trkpt lat="39.9614168" lon="8.4491361"><ele>28.0</ele><time>2026-05-02T13:23:56.485Z</time></trkpt><trkpt lat="39.9613864" lon="8.4492523"><ele>28.0</ele><time>2026-05-02T13:23:57.483Z</time></trkpt><trkpt lat="39.9613632" lon="8.4493393"><ele>27.999999999999996</ele><time>2026-05-02T13:23:58.483Z</time></trkpt><trkpt lat="39.961407" lon="8.4492795"><ele>27.999999999999996</ele><time>2026-05-02T13:24:03.484Z</time></trkpt><trkpt lat="39.9614183" lon="8.4491717"><ele>28.0</ele><time>2026-05-02T13:24:04.483Z</time></trkpt><trkpt lat="39.9614435" lon="8.4490338"><ele>28.0</ele><time>2026-05-02T13:24:05.484Z</time></trkpt><trkpt lat="39.9614847" lon="8.448872"><ele>27.799999999999997</ele><time>2026-05-02T13:24:06.484Z</time></trkpt><trkpt lat="39.9615298" lon="8.4487016"><ele>27.599999999999998</ele><time>2026-05-02T13:24:07.485Z</time></trkpt><trkpt lat="39.9615694" lon="8.44855"><ele>27.400000000000002</ele><time>2026-05-02T13:24:08.485Z</time></trkpt><trkpt lat="39.961585" lon="8.4484449"><ele>27.200000000000003</ele><time>2026-05-02T13:24:09.485Z</time></trkpt><trkpt lat="39.9615515" lon="8.4483484"><ele>27.0</ele><time>2026-05-02T13:24:11.485Z</time></trkpt><trkpt lat="39.9614889" lon="8.4483016"><ele>27.0</ele><time>2026-05-02T13:24:12.483Z</time></trkpt><trkpt lat="39.961391" lon="8.4482592"><ele>27.0</ele><time>2026-05-02T13:24:13.483Z</time></trkpt><trkpt lat="39.9612804" lon="8.4482122"><ele>27.0</ele><time>2026-05-02T13:24:14.484Z</time></trkpt><trkpt lat="39.96115" lon="8.4481465"><ele>27.0</ele><time>2026-05-02T13:24:15.483Z</time></trkpt><trkpt lat="39.9610098" lon="8.448074"><ele>27.0</ele><time>2026-05-02T13:24:16.484Z</time></trkpt><trkpt lat="39.9608534" lon="8.4479831"><ele>27.0</ele><time>2026-05-02T13:24:17.485Z</time></trkpt><trkpt lat="39.9606872" lon="8.4478837"><ele>27.0</ele><time>2026-05-02T13:24:18.484Z</time></trkpt><trkpt lat="39.9605245" lon="8.4477862"><ele>27.0</ele><time>2026-05-02T13:24:19.483Z</time></trkpt><trkpt lat="39.9603715" lon="8.4477037"><ele>27.0</ele><time>2026-05-02T13:24:20.484Z</time></trkpt><trkpt lat="39.9602344" lon="8.4476538"><ele>27.0</ele><time>2026-05-02T13:24:21.484Z</time></trkpt><trkpt lat="39.9601116" lon="8.4476322"><ele>27.0</ele><time>2026-05-02T13:24:22.484Z</time></trkpt><trkpt lat="39.9599765" lon="8.4476187"><ele>29.0</ele><time>2026-05-02T13:24:23.484Z</time></trkpt><trkpt lat="39.9598436" lon="8.4476073"><ele>31.0</ele><time>2026-05-02T13:24:24.483Z</time></trkpt><trkpt lat="39.9597111" lon="8.4475809"><ele>33.0</ele><time>2026-05-02T13:24:25.483Z</time></trkpt><trkpt lat="39.9595831" lon="8.447523"><ele>35.0</ele><time>2026-05-02T13:24:26.485Z</time></trkpt><trkpt lat="39.9594556" lon="8.447451"><ele>35.0</ele><time>2026-05-02T13:24:27.483Z</time></trkpt><trkpt lat="39.9593225" lon="8.4473619"><ele>35.0</ele><time>2026-05-02T13:24:28.484Z</time></trkpt><trkpt lat="39.9591885" lon="8.4472753"><ele>35.0</ele><time>2026-05-02T13:24:29.484Z</time></trkpt><trkpt lat="39.9590683" lon="8.4471876"><ele>35.0</ele><time>2026-05-02T13:24:30.484Z</time></trkpt><trkpt lat="39.9589657" lon="8.4471056"><ele>36.2</ele><time>2026-05-02T13:24:31.484Z</time></trkpt><trkpt lat="39.9588761" lon="8.447034"><ele>37.4</ele><time>2026-05-02T13:24:32.483Z</time></trkpt><trkpt lat="39.9587954" lon="8.4469564"><ele>38.599999999999994</ele><time>2026-05-02T13:24:33.485Z</time></trkpt><trkpt lat="39.9587202" lon="8.4468787"><ele>39.8</ele><time>2026-05-02T13:24:34.484Z</time></trkpt><trkpt lat="39.9586608" lon="8.4468128"><ele>41.0</ele><time>2026-05-02T13:24:35.484Z</time></trkpt><trkpt lat="39.9586083" lon="8.4467485"><ele>41.0</ele><time>2026-05-02T13:24:36.484Z</time></trkpt><trkpt lat="39.9585204" lon="8.4466551"><ele>41.0</ele><time>2026-05-02T13:24:38.485Z</time></trkpt><trkpt lat="39.9584629" lon="8.4465918"><ele>41.0</ele><time>2026-05-02T13:24:40.484Z</time></trkpt><trkpt lat="39.9583712" lon="8.4465138"><ele>41.0</ele><time>2026-05-02T13:25:07.484Z</time></trkpt><trkpt lat="39.9583146" lon="8.4464527"><ele>41.0</ele><time>2026-05-02T13:25:08.485Z</time></trkpt><trkpt lat="39.9582501" lon="8.4463881"><ele>42.0</ele><time>2026-05-02T13:25:09.485Z</time></trkpt><trkpt lat="39.9581773" lon="8.4463146"><ele>43.0</ele><time>2026-05-02T13:25:10.484Z</time></trkpt><trkpt lat="39.9581002" lon="8.4462358"><ele>44.0</ele><time>2026-05-02T13:25:11.485Z</time></trkpt><trkpt lat="39.9580202" lon="8.4461509"><ele>45.0</ele><time>2026-05-02T13:25:12.484Z</time></trkpt><trkpt lat="39.9579419" lon="8.4460648"><ele>46.0</ele><time>2026-05-02T13:25:13.484Z</time></trkpt><trkpt lat="39.9578663" lon="8.4459793"><ele>46.199999999999996</ele><time>2026-05-02T13:25:14.484Z</time></trkpt><trkpt lat="39.9577958" lon="8.4458835"><ele>46.4</ele><time>2026-05-02T13:25:15.483Z</time></trkpt><trkpt lat="39.9577346" lon="8.4457786"><ele>46.6</ele><time>2026-05-02T13:25:16.484Z</time></trkpt><trkpt lat="39.9576835" lon="8.4456602"><ele>46.8</ele><time>2026-05-02T13:25:17.484Z</time></trkpt><trkpt lat="39.9576387" lon="8.4455313"><ele>47.0</ele><time>2026-05-02T13:25:18.484Z</time></trkpt><trkpt lat="39.9575899" lon="8.4454021"><ele>48.25</ele><time>2026-05-02T13:25:19.483Z</time></trkpt><trkpt lat="39.9575322" lon="8.4452723"><ele>49.5</ele><time>2026-05-02T13:25:20.485Z</time></trkpt><trkpt lat="39.9574641" lon="8.4451409"><ele>50.75</ele><time>2026-05-02T13:25:21.485Z</time></trkpt><trkpt lat="39.9573874" lon="8.4450015"><ele>52.0</ele><time>2026-05-02T13:25:22.484Z</time></trkpt><trkpt lat="39.9573059" lon="8.4448613"><ele>52.0</ele><time>2026-05-02T13:25:23.484Z</time></trkpt><trkpt lat="39.957224" lon="8.4447149"><ele>52.0</ele><time>2026-05-02T13:25:24.485Z</time></trkpt><trkpt lat="39.9571379" lon="8.444565"><ele>52.0</ele><time>2026-05-02T13:25:25.483Z</time></trkpt><trkpt lat="39.9570448" lon="8.4444168"><ele>52.0</ele><time>2026-05-02T13:25:26.483Z</time></trkpt><trkpt lat="39.9569531" lon="8.4442695"><ele>52.0</ele><time>2026-05-02T13:25:27.483Z</time></trkpt><trkpt lat="39.9568629" lon="8.4441206"><ele>52.0</ele><time>2026-05-02T13:25:28.483Z</time></trkpt><trkpt lat="39.9567721" lon="8.4439698"><ele>52.0</ele><time>2026-05-02T13:25:29.483Z</time></trkpt><trkpt lat="39.9566747" lon="8.4438126"><ele>52.0</ele><time>2026-05-02T13:25:30.484Z</time></trkpt><trkpt lat="39.9565747" lon="8.4436517"><ele>52.666666666666664</ele><time>2026-05-02T13:25:31.483Z</time></trkpt><trkpt lat="39.9564783" lon="8.4434895"><ele>53.33333333333333</ele><time>2026-05-02T13:25:32.484Z</time></trkpt><trkpt lat="39.9563771" lon="8.4433224"><ele>54.0</ele><time>2026-05-02T13:25:33.483Z</time></trkpt><trkpt lat="39.9562765" lon="8.4431575"><ele>54.0</ele><time>2026-05-02T13:25:34.483Z</time></trkpt><trkpt lat="39.9561746" lon="8.4429898"><ele>54.0</ele><time>2026-05-02T13:25:35.483Z</time></trkpt><trkpt lat="39.9560746" lon="8.4428212"><ele>54.0</ele><time>2026-05-02T13:25:36.485Z</time></trkpt><trkpt lat="39.9559741" lon="8.4426534"><ele>53.66666666666667</ele><time>2026-05-02T13:25:37.483Z</time></trkpt><trkpt lat="39.9558765" lon="8.442492"><ele>53.333333333333336</ele><time>2026-05-02T13:25:38.484Z</time></trkpt><trkpt lat="39.9557842" lon="8.4423419"><ele>53.0</ele><time>2026-05-02T13:25:39.484Z</time></trkpt><trkpt lat="39.9556899" lon="8.4421895"><ele>53.333333333333336</ele><time>2026-05-02T13:25:40.484Z</time></trkpt><trkpt lat="39.9555938" lon="8.4420335"><ele>53.66666666666667</ele><time>2026-05-02T13:25:41.483Z</time></trkpt><trkpt lat="39.9554945" lon="8.4418778"><ele>54.0</ele><time>2026-05-02T13:25:42.483Z</time></trkpt><trkpt lat="39.9553922" lon="8.4417222"><ele>54.0</ele><time>2026-05-02T13:25:43.484Z</time></trkpt><trkpt lat="39.955294" lon="8.4415629"><ele>54.0</ele><time>2026-05-02T13:25:44.483Z</time></trkpt><trkpt lat="39.9551933" lon="8.4414049"><ele>54.0</ele><time>2026-05-02T13:25:45.485Z</time></trkpt><trkpt lat="39.9550908" lon="8.4412434"><ele>54.66666666666667</ele><time>2026-05-02T13:25:46.484Z</time></trkpt><trkpt lat="39.9549893" lon="8.4410792"><ele>55.333333333333336</ele><time>2026-05-02T13:25:47.484Z</time></trkpt><trkpt lat="39.9548898" lon="8.4409162"><ele>56.0</ele><time>2026-05-02T13:25:48.485Z</time></trkpt><trkpt lat="39.9547886" lon="8.4407453"><ele>56.0</ele><time>2026-05-02T13:25:49.485Z</time></trkpt><trkpt lat="39.9546906" lon="8.4405678"><ele>56.0</ele><time>2026-05-02T13:25:50.485Z</time></trkpt><trkpt lat="39.9545988" lon="8.4403896"><ele>56.0</ele><time>2026-05-02T13:25:51.483Z</time></trkpt><trkpt lat="39.9545164" lon="8.4402284"><ele>55.5</ele><time>2026-05-02T13:25:52.484Z</time></trkpt><trkpt lat="39.9544444" lon="8.4400857"><ele>55.0</ele><time>2026-05-02T13:25:53.485Z</time></trkpt><trkpt lat="39.954378" lon="8.439938"><ele>54.5</ele><time>2026-05-02T13:25:54.484Z</time></trkpt><trkpt lat="39.9543179" lon="8.4397629"><ele>54.0</ele><time>2026-05-02T13:25:55.483Z</time></trkpt><trkpt lat="39.9542676" lon="8.4395695"><ele>54.0</ele><time>2026-05-02T13:25:56.484Z</time></trkpt><trkpt lat="39.9542138" lon="8.4393675"><ele>54.0</ele><time>2026-05-02T13:25:57.484Z</time></trkpt><trkpt lat="39.9541515" lon="8.4391748"><ele>54.0</ele><time>2026-05-02T13:25:58.483Z</time></trkpt><trkpt lat="39.9540975" lon="8.4389929"><ele>54.25</ele><time>2026-05-02T13:25:59.485Z</time></trkpt><trkpt lat="39.9540413" lon="8.4388288"><ele>54.5</ele><time>2026-05-02T13:26:00.484Z</time></trkpt><trkpt lat="39.9539714" lon="8.4386537"><ele>54.75</ele><time>2026-05-02T13:26:01.484Z</time></trkpt><trkpt lat="39.9538926" lon="8.43849"><ele>55.0</ele><time>2026-05-02T13:26:02.483Z</time></trkpt><trkpt lat="39.9538012" lon="8.4383311"><ele>54.33333333333333</ele><time>2026-05-02T13:26:03.483Z</time></trkpt><trkpt lat="39.9537079" lon="8.4381756"><ele>53.66666666666667</ele><time>2026-05-02T13:26:04.485Z</time></trkpt><trkpt lat="39.9536202" lon="8.4380158"><ele>53.0</ele><time>2026-05-02T13:26:05.484Z</time></trkpt><trkpt lat="39.953532" lon="8.4378558"><ele>53.0</ele><time>2026-05-02T13:26:06.484Z</time></trkpt><trkpt lat="39.9534396" lon="8.4376949"><ele>53.0</ele><time>2026-05-02T13:26:07.484Z</time></trkpt><trkpt lat="39.9533466" lon="8.4375343"><ele>53.0</ele><time>2026-05-02T13:26:08.484Z</time></trkpt><trkpt lat="39.9532566" lon="8.4373713"><ele>53.0</ele><time>2026-05-02T13:26:09.483Z</time></trkpt><trkpt lat="39.9531735" lon="8.4372057"><ele>53.0</ele><time>2026-05-02T13:26:10.484Z</time></trkpt><trkpt lat="39.9530977" lon="8.4370304"><ele>53.0</ele><time>2026-05-02T13:26:11.484Z</time></trkpt><trkpt lat="39.9530321" lon="8.4368482"><ele>53.0</ele><time>2026-05-02T13:26:12.484Z</time></trkpt><trkpt lat="39.9529704" lon="8.4366643"><ele>53.0</ele><time>2026-05-02T13:26:13.485Z</time></trkpt><trkpt lat="39.9529045" lon="8.4364857"><ele>53.0</ele><time>2026-05-02T13:26:14.484Z</time></trkpt><trkpt lat="39.9528392" lon="8.4363243"><ele>53.0</ele><time>2026-05-02T13:26:15.483Z</time></trkpt><trkpt lat="39.9527613" lon="8.4361596"><ele>53.0</ele><time>2026-05-02T13:26:16.485Z</time></trkpt><trkpt lat="39.9526764" lon="8.4360137"><ele>53.0</ele><time>2026-05-02T13:26:17.483Z</time></trkpt><trkpt lat="39.9525813" lon="8.4358755"><ele>53.0</ele><time>2026-05-02T13:26:18.483Z</time></trkpt><trkpt lat="39.9524829" lon="8.4357371"><ele>53.0</ele><time>2026-05-02T13:26:19.485Z</time></trkpt><trkpt lat="39.9524001" lon="8.4356153"><ele>53.0</ele><time>2026-05-02T13:26:20.483Z</time></trkpt><trkpt lat="39.9523237" lon="8.4355089"><ele>53.0</ele><time>2026-05-02T13:26:21.485Z</time></trkpt><trkpt lat="39.9522532" lon="8.4354288"><ele>53.0</ele><time>2026-05-02T13:26:22.484Z</time></trkpt><trkpt lat="39.952181" lon="8.435374"><ele>53.0</ele><time>2026-05-02T13:26:23.484Z</time></trkpt><trkpt lat="39.9521015" lon="8.4353487"><ele>53.0</ele><time>2026-05-02T13:26:24.483Z</time></trkpt><trkpt lat="39.9520005" lon="8.4353429"><ele>52.75</ele><time>2026-05-02T13:26:25.485Z</time></trkpt><trkpt lat="39.9518851" lon="8.4353579"><ele>52.5</ele><time>2026-05-02T13:26:26.485Z</time></trkpt><trkpt lat="39.9517707" lon="8.4353615"><ele>52.25</ele><time>2026-05-02T13:26:27.484Z</time></trkpt><trkpt lat="39.9516489" lon="8.4353497"><ele>52.0</ele><time>2026-05-02T13:26:28.485Z</time></trkpt><trkpt lat="39.9515335" lon="8.4353231"><ele>52.0</ele><time>2026-05-02T13:26:29.484Z</time></trkpt><trkpt lat="39.9514218" lon="8.4352797"><ele>52.0</ele><time>2026-05-02T13:26:30.485Z</time></trkpt><trkpt lat="39.951313" lon="8.4352209"><ele>52.0</ele><time>2026-05-02T13:26:31.484Z</time></trkpt><trkpt lat="39.9512164" lon="8.4351579"><ele>52.0</ele><time>2026-05-02T13:26:32.485Z</time></trkpt><trkpt lat="39.9511452" lon="8.4351022"><ele>52.0</ele><time>2026-05-02T13:26:33.485Z</time></trkpt><trkpt lat="39.9510918" lon="8.4350519"><ele>51.99999999999999</ele><time>2026-05-02T13:26:34.483Z</time></trkpt><trkpt lat="39.9510236" lon="8.4349842"><ele>52.0</ele><time>2026-05-02T13:26:36.484Z</time></trkpt><trkpt lat="39.9510893" lon="8.4350754"><ele>52.0</ele><time>2026-05-02T13:26:43.484Z</time></trkpt><trkpt lat="39.9511526" lon="8.4351253"><ele>52.0</ele><time>2026-05-02T13:26:44.484Z</time></trkpt><trkpt lat="39.9512114" lon="8.4351748"><ele>51.99999999999999</ele><time>2026-05-02T13:26:45.484Z</time></trkpt><trkpt lat="39.9512892" lon="8.4352486"><ele>52.0</ele><time>2026-05-02T13:26:47.484Z</time></trkpt><trkpt lat="39.9512431" lon="8.4353412"><ele>51.99999999999999</ele><time>2026-05-02T13:26:51.482Z</time></trkpt><trkpt lat="39.9511507" lon="8.4353656"><ele>52.0</ele><time>2026-05-02T13:26:53.484Z</time></trkpt><trkpt lat="39.9510897" lon="8.4353889"><ele>52.0</ele><time>2026-05-02T13:26:54.484Z</time></trkpt><trkpt lat="39.9510235" lon="8.4354135"><ele>52.0</ele><time>2026-05-02T13:26:55.484Z</time></trkpt><trkpt lat="39.950952" lon="8.4354356"><ele>51.99999999999999</ele><time>2026-05-02T13:26:56.484Z</time></trkpt><trkpt lat="39.9508745" lon="8.4354547"><ele>52.0</ele><time>2026-05-02T13:26:57.483Z</time></trkpt><trkpt lat="39.9507937" lon="8.4354793"><ele>52.49999999999999</ele><time>2026-05-02T13:26:58.482Z</time></trkpt><trkpt lat="39.950711" lon="8.435504"><ele>53.0</ele><time>2026-05-02T13:26:59.484Z</time></trkpt><trkpt lat="39.950626" lon="8.4355274"><ele>53.5</ele><time>2026-05-02T13:27:00.483Z</time></trkpt><trkpt lat="39.9505457" lon="8.435555"><ele>54.0</ele><time>2026-05-02T13:27:01.483Z</time></trkpt><trkpt lat="39.9504665" lon="8.435586"><ele>54.49999999999999</ele><time>2026-05-02T13:27:02.482Z</time></trkpt><trkpt lat="39.9503813" lon="8.4356258"><ele>55.0</ele><time>2026-05-02T13:27:03.482Z</time></trkpt><trkpt lat="39.9502978" lon="8.4356717"><ele>55.0</ele><time>2026-05-02T13:27:04.483Z</time></trkpt><trkpt lat="39.9502142" lon="8.4357208"><ele>55.0</ele><time>2026-05-02T13:27:05.484Z</time></trkpt><trkpt lat="39.9501308" lon="8.4357735"><ele>55.0</ele><time>2026-05-02T13:27:06.483Z</time></trkpt><trkpt lat="39.9500467" lon="8.4358281"><ele>55.0</ele><time>2026-05-02T13:27:07.483Z</time></trkpt><trkpt lat="39.9499603" lon="8.4358822"><ele>55.0</ele><time>2026-05-02T13:27:08.482Z</time></trkpt><trkpt lat="39.9498695" lon="8.43593"><ele>54.4</ele><time>2026-05-02T13:27:09.484Z</time></trkpt><trkpt lat="39.9497754" lon="8.4359738"><ele>53.8</ele><time>2026-05-02T13:27:10.483Z</time></trkpt><trkpt lat="39.9496881" lon="8.4360146"><ele>53.2</ele><time>2026-05-02T13:27:11.483Z</time></trkpt><trkpt lat="39.9496017" lon="8.4360577"><ele>52.6</ele><time>2026-05-02T13:27:12.483Z</time></trkpt><trkpt lat="39.9495205" lon="8.4361069"><ele>52.0</ele><time>2026-05-02T13:27:13.483Z</time></trkpt><trkpt lat="39.9494404" lon="8.4361585"><ele>52.0</ele><time>2026-05-02T13:27:14.482Z</time></trkpt><trkpt lat="39.9493632" lon="8.4362215"><ele>52.0</ele><time>2026-05-02T13:27:15.483Z</time></trkpt><trkpt lat="39.9492873" lon="8.4362948"><ele>52.0</ele><time>2026-05-02T13:27:16.483Z</time></trkpt><trkpt lat="39.9492118" lon="8.436372"><ele>52.0</ele><time>2026-05-02T13:27:17.482Z</time></trkpt><trkpt lat="39.9491412" lon="8.4364576"><ele>52.0</ele><time>2026-05-02T13:27:18.483Z</time></trkpt><trkpt lat="39.9490715" lon="8.4365519"><ele>51.8</ele><time>2026-05-02T13:27:19.483Z</time></trkpt><trkpt lat="39.9490057" lon="8.4366448"><ele>51.6</ele><time>2026-05-02T13:27:20.483Z</time></trkpt><trkpt lat="39.9489398" lon="8.4367343"><ele>51.4</ele><time>2026-05-02T13:27:21.483Z</time></trkpt><trkpt lat="39.9488724" lon="8.4368211"><ele>51.199999999999996</ele><time>2026-05-02T13:27:22.482Z</time></trkpt><trkpt lat="39.948807" lon="8.4369156"><ele>51.0</ele><time>2026-05-02T13:27:23.483Z</time></trkpt><trkpt lat="39.9487443" lon="8.4370154"><ele>51.0</ele><time>2026-05-02T13:27:24.484Z</time></trkpt><trkpt lat="39.9486883" lon="8.4371215"><ele>51.0</ele><time>2026-05-02T13:27:25.483Z</time></trkpt><trkpt lat="39.9486345" lon="8.4372273"><ele>51.0</ele><time>2026-05-02T13:27:26.483Z</time></trkpt><trkpt lat="39.948588" lon="8.4373373"><ele>51.0</ele><time>2026-05-02T13:27:27.482Z</time></trkpt><trkpt lat="39.9485473" lon="8.437462"><ele>51.0</ele><time>2026-05-02T13:27:28.484Z</time></trkpt><trkpt lat="39.9485228" lon="8.4375816"><ele>51.599999999999994</ele><time>2026-05-02T13:27:29.483Z</time></trkpt><trkpt lat="39.9484959" lon="8.4377057"><ele>52.2</ele><time>2026-05-02T13:27:30.483Z</time></trkpt><trkpt lat="39.9484656" lon="8.4378261"><ele>52.800000000000004</ele><time>2026-05-02T13:27:31.483Z</time></trkpt><trkpt lat="39.9484351" lon="8.4379496"><ele>53.400000000000006</ele><time>2026-05-02T13:27:32.483Z</time></trkpt><trkpt lat="39.9483983" lon="8.4380622"><ele>54.0</ele><time>2026-05-02T13:27:33.483Z</time></trkpt><trkpt lat="39.9483483" lon="8.4381724"><ele>54.0</ele><time>2026-05-02T13:27:34.482Z</time></trkpt><trkpt lat="39.9482663" lon="8.4383011"><ele>54.0</ele><time>2026-05-02T13:27:35.484Z</time></trkpt><trkpt lat="39.9481852" lon="8.4384121"><ele>54.0</ele><time>2026-05-02T13:27:36.482Z</time></trkpt><trkpt lat="39.9481118" lon="8.4385188"><ele>54.0</ele><time>2026-05-02T13:27:37.483Z</time></trkpt><trkpt lat="39.9480289" lon="8.438627"><ele>54.0</ele><time>2026-05-02T13:27:38.484Z</time></trkpt><trkpt lat="39.9479496" lon="8.4387266"><ele>54.00000000000001</ele><time>2026-05-02T13:27:39.482Z</time></trkpt><trkpt lat="39.9478719" lon="8.4388214"><ele>54.00000000000001</ele><time>2026-05-02T13:27:40.483Z</time></trkpt><trkpt lat="39.9477896" lon="8.4389101"><ele>54.0</ele><time>2026-05-02T13:27:41.483Z</time></trkpt><trkpt lat="39.947715" lon="8.4389867"><ele>54.0</ele><time>2026-05-02T13:27:42.484Z</time></trkpt><trkpt lat="39.94764" lon="8.4390571"><ele>53.800000000000004</ele><time>2026-05-02T13:27:43.482Z</time></trkpt><trkpt lat="39.9475629" lon="8.4391274"><ele>53.60000000000001</ele><time>2026-05-02T13:27:44.484Z</time></trkpt><trkpt lat="39.9474907" lon="8.4391971"><ele>53.4</ele><time>2026-05-02T13:27:45.482Z</time></trkpt><trkpt lat="39.9474227" lon="8.4392668"><ele>53.2</ele><time>2026-05-02T13:27:46.484Z</time></trkpt><trkpt lat="39.9473569" lon="8.4393445"><ele>53.0</ele><time>2026-05-02T13:27:47.482Z</time></trkpt><trkpt lat="39.9472874" lon="8.4394212"><ele>53.0</ele><time>2026-05-02T13:27:48.484Z</time></trkpt><trkpt lat="39.9472163" lon="8.4394985"><ele>53.0</ele><time>2026-05-02T13:27:49.484Z</time></trkpt><trkpt lat="39.9471403" lon="8.4395755"><ele>53.0</ele><time>2026-05-02T13:27:50.482Z</time></trkpt><trkpt lat="39.947061" lon="8.4396537"><ele>53.0</ele><time>2026-05-02T13:27:51.482Z</time></trkpt><trkpt lat="39.9469841" lon="8.4397288"><ele>53.0</ele><time>2026-05-02T13:27:52.483Z</time></trkpt><trkpt lat="39.9469044" lon="8.4398013"><ele>52.8</ele><time>2026-05-02T13:27:53.484Z</time></trkpt><trkpt lat="39.9468251" lon="8.4398772"><ele>52.599999999999994</ele><time>2026-05-02T13:27:54.483Z</time></trkpt><trkpt lat="39.9467455" lon="8.4399608"><ele>52.400000000000006</ele><time>2026-05-02T13:27:55.484Z</time></trkpt><trkpt lat="39.9466702" lon="8.4400483"><ele>52.2</ele><time>2026-05-02T13:27:56.482Z</time></trkpt><trkpt lat="39.9465962" lon="8.4401376"><ele>52.0</ele><time>2026-05-02T13:27:57.484Z</time></trkpt><trkpt lat="39.9465211" lon="8.4402179"><ele>52.0</ele><time>2026-05-02T13:27:58.483Z</time></trkpt><trkpt lat="39.9464472" lon="8.4402943"><ele>52.0</ele><time>2026-05-02T13:27:59.483Z</time></trkpt><trkpt lat="39.9463701" lon="8.4403651"><ele>52.0</ele><time>2026-05-02T13:28:00.483Z</time></trkpt><trkpt lat="39.946292" lon="8.440435"><ele>52.0</ele><time>2026-05-02T13:28:01.483Z</time></trkpt><trkpt lat="39.9462144" lon="8.4405034"><ele>52.0</ele><time>2026-05-02T13:28:02.483Z</time></trkpt><trkpt lat="39.9461446" lon="8.4405587"><ele>52.285714285714285</ele><time>2026-05-02T13:28:03.484Z</time></trkpt><trkpt lat="39.9460806" lon="8.440603"><ele>52.57142857142858</ele><time>2026-05-02T13:28:04.482Z</time></trkpt><trkpt lat="39.946011" lon="8.4406317"><ele>52.85714285714286</ele><time>2026-05-02T13:28:05.483Z</time></trkpt><trkpt lat="39.9459399" lon="8.4406506"><ele>53.14285714285714</ele><time>2026-05-02T13:28:06.482Z</time></trkpt><trkpt lat="39.9458676" lon="8.4406618"><ele>53.42857142857143</ele><time>2026-05-02T13:28:07.484Z</time></trkpt><trkpt lat="39.9457959" lon="8.4406817"><ele>53.714285714285715</ele><time>2026-05-02T13:28:08.483Z</time></trkpt><trkpt lat="39.9457233" lon="8.4407086"><ele>54.0</ele><time>2026-05-02T13:28:09.482Z</time></trkpt><trkpt lat="39.9456517" lon="8.4407329"><ele>54.0</ele><time>2026-05-02T13:28:10.482Z</time></trkpt><trkpt lat="39.9455802" lon="8.4407553"><ele>54.0</ele><time>2026-05-02T13:28:11.482Z</time></trkpt><trkpt lat="39.9455094" lon="8.4407854"><ele>54.0</ele><time>2026-05-02T13:28:12.484Z</time></trkpt><trkpt lat="39.9454394" lon="8.4408146"><ele>54.0</ele><time>2026-05-02T13:28:13.484Z</time></trkpt><trkpt lat="39.9453726" lon="8.4408402"><ele>54.0</ele><time>2026-05-02T13:28:14.482Z</time></trkpt><trkpt lat="39.945276" lon="8.4408698"><ele>54.0</ele><time>2026-05-02T13:28:16.483Z</time></trkpt><trkpt lat="39.945185" lon="8.4408377"><ele>54.0</ele><time>2026-05-02T13:28:38.482Z</time></trkpt><trkpt lat="39.9451024" lon="8.440808"><ele>54.0</ele><time>2026-05-02T13:28:39.483Z</time></trkpt><trkpt lat="39.9449571" lon="8.4408417"><ele>54.0</ele><time>2026-05-02T13:28:41.483Z</time></trkpt><trkpt lat="39.9448576" lon="8.4409135"><ele>54.0</ele><time>2026-05-02T13:28:42.483Z</time></trkpt><trkpt lat="39.9447477" lon="8.440974"><ele>54.0</ele><time>2026-05-02T13:28:43.482Z</time></trkpt><trkpt lat="39.9446275" lon="8.4410241"><ele>54.0</ele><time>2026-05-02T13:28:44.482Z</time></trkpt><trkpt lat="39.9445054" lon="8.4410866"><ele>54.0</ele><time>2026-05-02T13:28:45.482Z</time></trkpt><trkpt lat="39.9443767" lon="8.4411318"><ele>54.0</ele><time>2026-05-02T13:28:46.482Z</time></trkpt><trkpt lat="39.9442474" lon="8.4411742"><ele>53.5</ele><time>2026-05-02T13:28:47.483Z</time></trkpt><trkpt lat="39.9441225" lon="8.4412202"><ele>53.0</ele><time>2026-05-02T13:28:48.482Z</time></trkpt><trkpt lat="39.9439937" lon="8.4412632"><ele>52.5</ele><time>2026-05-02T13:28:49.484Z</time></trkpt><trkpt lat="39.943867" lon="8.4413132"><ele>52.0</ele><time>2026-05-02T13:28:50.483Z</time></trkpt><trkpt lat="39.9437401" lon="8.4413647"><ele>53.0</ele><time>2026-05-02T13:28:51.483Z</time></trkpt><trkpt lat="39.9436165" lon="8.4414025"><ele>54.0</ele><time>2026-05-02T13:28:52.482Z</time></trkpt><trkpt lat="39.94349" lon="8.4414223"><ele>55.0</ele><time>2026-05-02T13:28:53.483Z</time></trkpt><trkpt lat="39.9433653" lon="8.4414218"><ele>56.0</ele><time>2026-05-02T13:28:54.484Z</time></trkpt><trkpt lat="39.9432452" lon="8.4414165"><ele>56.0</ele><time>2026-05-02T13:28:55.483Z</time></trkpt><trkpt lat="39.9431226" lon="8.4414301"><ele>56.0</ele><time>2026-05-02T13:28:56.483Z</time></trkpt><trkpt lat="39.942996" lon="8.4414644"><ele>56.0</ele><time>2026-05-02T13:28:57.483Z</time></trkpt><trkpt lat="39.9428673" lon="8.4415006"><ele>56.0</ele><time>2026-05-02T13:28:58.484Z</time></trkpt><trkpt lat="39.942741" lon="8.4415377"><ele>56.0</ele><time>2026-05-02T13:28:59.483Z</time></trkpt><trkpt lat="39.9426319" lon="8.441601"><ele>56.0</ele><time>2026-05-02T13:29:00.484Z</time></trkpt><trkpt lat="39.9425271" lon="8.4416789"><ele>56.0</ele><time>2026-05-02T13:29:01.483Z</time></trkpt><trkpt lat="39.9424132" lon="8.4417553"><ele>56.0</ele><time>2026-05-02T13:29:02.483Z</time></trkpt><trkpt lat="39.9423009" lon="8.4418399"><ele>55.75</ele><time>2026-05-02T13:29:03.483Z</time></trkpt><trkpt lat="39.9421882" lon="8.441928"><ele>55.5</ele><time>2026-05-02T13:29:04.484Z</time></trkpt><trkpt lat="39.9420798" lon="8.4420212"><ele>55.25</ele><time>2026-05-02T13:29:05.484Z</time></trkpt><trkpt lat="39.9419675" lon="8.4420943"><ele>55.0</ele><time>2026-05-02T13:29:06.484Z</time></trkpt><trkpt lat="39.9418513" lon="8.442148"><ele>56.0</ele><time>2026-05-02T13:29:07.483Z</time></trkpt><trkpt lat="39.9417406" lon="8.4421809"><ele>57.0</ele><time>2026-05-02T13:29:08.483Z</time></trkpt><trkpt lat="39.9416445" lon="8.4422209"><ele>58.0</ele><time>2026-05-02T13:29:09.484Z</time></trkpt><trkpt lat="39.9415408" lon="8.4422696"><ele>59.0</ele><time>2026-05-02T13:29:10.484Z</time></trkpt><trkpt lat="39.9414421" lon="8.4423231"><ele>60.0</ele><time>2026-05-02T13:29:11.483Z</time></trkpt><trkpt lat="39.9413452" lon="8.4423954"><ele>60.0</ele><time>2026-05-02T13:29:12.483Z</time></trkpt><trkpt lat="39.9412484" lon="8.4424924"><ele>60.0</ele><time>2026-05-02T13:29:13.482Z</time></trkpt><trkpt lat="39.9411587" lon="8.4425855"><ele>60.0</ele><time>2026-05-02T13:29:14.484Z</time></trkpt><trkpt lat="39.9410961" lon="8.4426687"><ele>60.0</ele><time>2026-05-02T13:29:15.483Z</time></trkpt><trkpt lat="39.941058" lon="8.4427525"><ele>60.0</ele><time>2026-05-02T13:29:16.483Z</time></trkpt><trkpt lat="39.9410241" lon="8.4428469"><ele>60.0</ele><time>2026-05-02T13:29:17.484Z</time></trkpt><trkpt lat="39.9409697" lon="8.4429632"><ele>60.0</ele><time>2026-05-02T13:29:18.483Z</time></trkpt><trkpt lat="39.9408974" lon="8.4430794"><ele>60.0</ele><time>2026-05-02T13:29:19.483Z</time></trkpt><trkpt lat="39.9408056" lon="8.443182"><ele>60.0</ele><time>2026-05-02T13:29:20.483Z</time></trkpt><trkpt lat="39.9407177" lon="8.4432772"><ele>59.75</ele><time>2026-05-02T13:29:21.483Z</time></trkpt><trkpt lat="39.9406397" lon="8.443389"><ele>59.5</ele><time>2026-05-02T13:29:22.482Z</time></trkpt><trkpt lat="39.9405568" lon="8.4435145"><ele>59.25</ele><time>2026-05-02T13:29:23.483Z</time></trkpt><trkpt lat="39.9404742" lon="8.4436412"><ele>59.0</ele><time>2026-05-02T13:29:24.484Z</time></trkpt><trkpt lat="39.9403846" lon="8.443767"><ele>59.75</ele><time>2026-05-02T13:29:25.483Z</time></trkpt><trkpt lat="39.9402909" lon="8.4438868"><ele>60.5</ele><time>2026-05-02T13:29:26.482Z</time></trkpt><trkpt lat="39.9402061" lon="8.4439808"><ele>61.25</ele><time>2026-05-02T13:29:27.482Z</time></trkpt><trkpt lat="39.9401183" lon="8.4440531"><ele>62.0</ele><time>2026-05-02T13:29:28.484Z</time></trkpt><trkpt lat="39.9400252" lon="8.444119"><ele>60.5</ele><time>2026-05-02T13:29:29.483Z</time></trkpt><trkpt lat="39.9399415" lon="8.4442039"><ele>59.0</ele><time>2026-05-02T13:29:30.482Z</time></trkpt><trkpt lat="39.9398605" lon="8.4443039"><ele>57.5</ele><time>2026-05-02T13:29:31.482Z</time></trkpt><trkpt lat="39.9397782" lon="8.4444201"><ele>56.0</ele><time>2026-05-02T13:29:32.484Z</time></trkpt><trkpt lat="39.9396984" lon="8.4445249"><ele>56.0</ele><time>2026-05-02T13:29:33.483Z</time></trkpt><trkpt lat="39.9396422" lon="8.4446007"><ele>55.99999999999999</ele><time>2026-05-02T13:29:34.482Z</time></trkpt><trkpt lat="39.9395915" lon="8.4446829"><ele>55.99999999999999</ele><time>2026-05-02T13:29:35.482Z</time></trkpt><trkpt lat="39.939529" lon="8.4447915"><ele>56.0</ele><time>2026-05-02T13:29:36.482Z</time></trkpt><trkpt lat="39.9394529" lon="8.444895"><ele>56.0</ele><time>2026-05-02T13:29:37.484Z</time></trkpt><trkpt lat="39.939375" lon="8.4450109"><ele>56.25</ele><time>2026-05-02T13:29:38.483Z</time></trkpt><trkpt lat="39.9393042" lon="8.4451265"><ele>56.5</ele><time>2026-05-02T13:29:39.484Z</time></trkpt><trkpt lat="39.9392355" lon="8.4452508"><ele>56.75</ele><time>2026-05-02T13:29:40.482Z</time></trkpt><trkpt lat="39.9391631" lon="8.4453725"><ele>57.0</ele><time>2026-05-02T13:29:41.482Z</time></trkpt><trkpt lat="39.939092" lon="8.4454919"><ele>57.400000000000006</ele><time>2026-05-02T13:29:42.483Z</time></trkpt><trkpt lat="39.9390251" lon="8.4456007"><ele>57.800000000000004</ele><time>2026-05-02T13:29:43.482Z</time></trkpt><trkpt lat="39.9389703" lon="8.4456928"><ele>58.2</ele><time>2026-05-02T13:29:44.482Z</time></trkpt><trkpt lat="39.9389228" lon="8.4457633"><ele>58.6</ele><time>2026-05-02T13:29:45.484Z</time></trkpt><trkpt lat="39.9388098" lon="8.4458149"><ele>59.0</ele><time>2026-05-02T13:29:47.482Z</time></trkpt><trkpt lat="39.9387151" lon="8.4458326"><ele>59.0</ele><time>2026-05-02T13:29:48.483Z</time></trkpt><trkpt lat="39.9386026" lon="8.4458619"><ele>59.00000000000001</ele><time>2026-05-02T13:29:49.483Z</time></trkpt><trkpt lat="39.938496" lon="8.4458848"><ele>59.00000000000001</ele><time>2026-05-02T13:29:50.484Z</time></trkpt><trkpt lat="39.9383981" lon="8.4459117"><ele>59.0</ele><time>2026-05-02T13:29:51.482Z</time></trkpt><trkpt lat="39.9382956" lon="8.4459499"><ele>59.0</ele><time>2026-05-02T13:29:52.482Z</time></trkpt><trkpt lat="39.9381872" lon="8.4460004"><ele>58.400000000000006</ele><time>2026-05-02T13:29:53.483Z</time></trkpt><trkpt lat="39.9380795" lon="8.4460466"><ele>57.800000000000004</ele><time>2026-05-02T13:29:54.484Z</time></trkpt><trkpt lat="39.9379729" lon="8.4460818"><ele>57.199999999999996</ele><time>2026-05-02T13:29:55.483Z</time></trkpt><trkpt lat="39.9378675" lon="8.4461012"><ele>56.599999999999994</ele><time>2026-05-02T13:29:56.483Z</time></trkpt><trkpt lat="39.9377539" lon="8.4461161"><ele>56.0</ele><time>2026-05-02T13:29:57.483Z</time></trkpt><trkpt lat="39.9376485" lon="8.446137"><ele>56.0</ele><time>2026-05-02T13:29:58.483Z</time></trkpt><trkpt lat="39.9375768" lon="8.4461673"><ele>55.99999999999999</ele><time>2026-05-02T13:29:59.482Z</time></trkpt><trkpt lat="39.9375158" lon="8.4462208"><ele>55.99999999999999</ele><time>2026-05-02T13:30:00.483Z</time></trkpt><trkpt lat="39.9374522" lon="8.4463135"><ele>56.0</ele><time>2026-05-02T13:30:01.483Z</time></trkpt><trkpt lat="39.9373789" lon="8.4464265"><ele>56.0</ele><time>2026-05-02T13:30:02.483Z</time></trkpt><trkpt lat="39.9372969" lon="8.4465384"><ele>56.25</ele><time>2026-05-02T13:30:03.483Z</time></trkpt><trkpt lat="39.9372095" lon="8.4466603"><ele>56.5</ele><time>2026-05-02T13:30:04.482Z</time></trkpt><trkpt lat="39.937125" lon="8.4467857"><ele>56.75</ele><time>2026-05-02T13:30:05.483Z</time></trkpt><trkpt lat="39.9370391" lon="8.4469122"><ele>57.0</ele><time>2026-05-02T13:30:06.483Z</time></trkpt><trkpt lat="39.9369559" lon="8.4470428"><ele>57.25</ele><time>2026-05-02T13:30:07.483Z</time></trkpt><trkpt lat="39.9368746" lon="8.4471779"><ele>57.5</ele><time>2026-05-02T13:30:08.484Z</time></trkpt><trkpt lat="39.9367938" lon="8.4473115"><ele>57.75</ele><time>2026-05-02T13:30:09.483Z</time></trkpt><trkpt lat="39.9367066" lon="8.4474441"><ele>58.0</ele><time>2026-05-02T13:30:10.483Z</time></trkpt><trkpt lat="39.9366177" lon="8.4475778"><ele>58.0</ele><time>2026-05-02T13:30:11.483Z</time></trkpt><trkpt lat="39.9365255" lon="8.4477119"><ele>58.0</ele><time>2026-05-02T13:30:12.482Z</time></trkpt><trkpt lat="39.9364323" lon="8.4478474"><ele>58.0</ele><time>2026-05-02T13:30:13.483Z</time></trkpt><trkpt lat="39.9363398" lon="8.4479821"><ele>58.0</ele><time>2026-05-02T13:30:14.484Z</time></trkpt><trkpt lat="39.9362494" lon="8.448112"><ele>58.75</ele><time>2026-05-02T13:30:15.483Z</time></trkpt><trkpt lat="39.93616" lon="8.4482421"><ele>59.5</ele><time>2026-05-02T13:30:16.483Z</time></trkpt><trkpt lat="39.9360715" lon="8.4483638"><ele>60.25</ele><time>2026-05-02T13:30:17.484Z</time></trkpt><trkpt lat="39.9359806" lon="8.4484817"><ele>61.0</ele><time>2026-05-02T13:30:18.483Z</time></trkpt><trkpt lat="39.935892" lon="8.4486043"><ele>61.0</ele><time>2026-05-02T13:30:19.483Z</time></trkpt><trkpt lat="39.9357996" lon="8.4487304"><ele>61.0</ele><time>2026-05-02T13:30:20.483Z</time></trkpt><trkpt lat="39.9357074" lon="8.4488605"><ele>61.0</ele><time>2026-05-02T13:30:21.483Z</time></trkpt><trkpt lat="39.9356123" lon="8.448995"><ele>61.0</ele><time>2026-05-02T13:30:22.483Z</time></trkpt><trkpt lat="39.9355177" lon="8.4491329"><ele>61.0</ele><time>2026-05-02T13:30:23.481Z</time></trkpt><trkpt lat="39.9354224" lon="8.4492681"><ele>61.0</ele><time>2026-05-02T13:30:24.481Z</time></trkpt><trkpt lat="39.9353297" lon="8.4494049"><ele>61.0</ele><time>2026-05-02T13:30:25.481Z</time></trkpt><trkpt lat="39.935245" lon="8.4495304"><ele>61.0</ele><time>2026-05-02T13:30:26.482Z</time></trkpt><trkpt lat="39.9351637" lon="8.4496506"><ele>61.0</ele><time>2026-05-02T13:30:27.481Z</time></trkpt><trkpt lat="39.9350974" lon="8.4497509"><ele>60.99999999999999</ele><time>2026-05-02T13:30:28.482Z</time></trkpt><trkpt lat="39.9350515" lon="8.4498182"><ele>60.99999999999999</ele><time>2026-05-02T13:30:29.481Z</time></trkpt><trkpt lat="39.9349677" lon="8.4498439"><ele>61.0</ele><time>2026-05-02T13:30:31.483Z</time></trkpt><trkpt lat="39.9348471" lon="8.4496975"><ele>61.0</ele><time>2026-05-02T13:30:33.482Z</time></trkpt><trkpt lat="39.9347621" lon="8.4495815"><ele>60.75</ele><time>2026-05-02T13:30:34.483Z</time></trkpt><trkpt lat="39.9346554" lon="8.4494589"><ele>60.5</ele><time>2026-05-02T13:30:35.481Z</time></trkpt><trkpt lat="39.9345398" lon="8.4493382"><ele>60.25</ele><time>2026-05-02T13:30:36.481Z</time></trkpt><trkpt lat="39.9344247" lon="8.4492084"><ele>60.0</ele><time>2026-05-02T13:30:37.481Z</time></trkpt><trkpt lat="39.9343054" lon="8.4490619"><ele>59.66666666666667</ele><time>2026-05-02T13:30:38.481Z</time></trkpt><trkpt lat="39.9341863" lon="8.4489192"><ele>59.333333333333336</ele><time>2026-05-02T13:30:39.482Z</time></trkpt><trkpt lat="39.9340621" lon="8.4487853"><ele>59.0</ele><time>2026-05-02T13:30:40.483Z</time></trkpt><trkpt lat="39.9339384" lon="8.4486545"><ele>59.0</ele><time>2026-05-02T13:30:41.483Z</time></trkpt><trkpt lat="39.933824" lon="8.4485284"><ele>59.0</ele><time>2026-05-02T13:30:42.481Z</time></trkpt><trkpt lat="39.9337167" lon="8.4483875"><ele>59.0</ele><time>2026-05-02T13:30:43.482Z</time></trkpt><trkpt lat="39.933632" lon="8.4482581"><ele>59.0</ele><time>2026-05-02T13:30:44.481Z</time></trkpt><trkpt lat="39.9335567" lon="8.4481556"><ele>59.00000000000001</ele><time>2026-05-02T13:30:45.483Z</time></trkpt><trkpt lat="39.9334983" lon="8.4480757"><ele>59.0</ele><time>2026-05-02T13:30:46.482Z</time></trkpt><trkpt lat="39.9334291" lon="8.4480146"><ele>59.0</ele><time>2026-05-02T13:30:48.482Z</time></trkpt><trkpt lat="39.933326" lon="8.4480117"><ele>59.0</ele><time>2026-05-02T13:30:51.482Z</time></trkpt><trkpt lat="39.9332629" lon="8.4480435"><ele>59.00000000000001</ele><time>2026-05-02T13:30:52.483Z</time></trkpt><trkpt lat="39.9331948" lon="8.4480973"><ele>59.0</ele><time>2026-05-02T13:30:53.482Z</time></trkpt><trkpt lat="39.9331111" lon="8.4481687"><ele>59.0</ele><time>2026-05-02T13:30:54.481Z</time></trkpt><trkpt lat="39.9330189" lon="8.4482413"><ele>59.0</ele><time>2026-05-02T13:30:55.483Z</time></trkpt><trkpt lat="39.932914" lon="8.4483245"><ele>59.0</ele><time>2026-05-02T13:30:56.481Z</time></trkpt><trkpt lat="39.9328068" lon="8.4484075"><ele>59.0</ele><time>2026-05-02T13:30:57.482Z</time></trkpt><trkpt lat="39.9326984" lon="8.4484853"><ele>59.0</ele><time>2026-05-02T13:30:58.482Z</time></trkpt><trkpt lat="39.9325893" lon="8.448566"><ele>59.0</ele><time>2026-05-02T13:30:59.483Z</time></trkpt><trkpt lat="39.9324812" lon="8.44865"><ele>59.0</ele><time>2026-05-02T13:31:00.482Z</time></trkpt><trkpt lat="39.9323716" lon="8.4487389"><ele>59.0</ele><time>2026-05-02T13:31:01.481Z</time></trkpt><trkpt lat="39.9322622" lon="8.4488281"><ele>57.75</ele><time>2026-05-02T13:31:02.481Z</time></trkpt><trkpt lat="39.9321561" lon="8.4489187"><ele>56.5</ele><time>2026-05-02T13:31:03.483Z</time></trkpt><trkpt lat="39.9320547" lon="8.4490182"><ele>55.25</ele><time>2026-05-02T13:31:04.481Z</time></trkpt><trkpt lat="39.9319628" lon="8.4491324"><ele>54.0</ele><time>2026-05-02T13:31:05.483Z</time></trkpt><trkpt lat="39.931877" lon="8.4492527"><ele>54.0</ele><time>2026-05-02T13:31:06.483Z</time></trkpt><trkpt lat="39.9317968" lon="8.4493828"><ele>54.0</ele><time>2026-05-02T13:31:07.482Z</time></trkpt><trkpt lat="39.931717" lon="8.4495204"><ele>54.0</ele><time>2026-05-02T13:31:08.482Z</time></trkpt><trkpt lat="39.9316463" lon="8.4496712"><ele>54.0</ele><time>2026-05-02T13:31:09.481Z</time></trkpt><trkpt lat="39.9315868" lon="8.4498396"><ele>52.25</ele><time>2026-05-02T13:31:10.483Z</time></trkpt><trkpt lat="39.9315384" lon="8.4500197"><ele>50.5</ele><time>2026-05-02T13:31:11.481Z</time></trkpt><trkpt lat="39.9315017" lon="8.4502085"><ele>48.75</ele><time>2026-05-02T13:31:12.482Z</time></trkpt><trkpt lat="39.9314738" lon="8.4504021"><ele>47.0</ele><time>2026-05-02T13:31:13.481Z</time></trkpt><trkpt lat="39.9314442" lon="8.4506029"><ele>46.666666666666664</ele><time>2026-05-02T13:31:14.482Z</time></trkpt><trkpt lat="39.9314136" lon="8.4508015"><ele>46.333333333333336</ele><time>2026-05-02T13:31:15.481Z</time></trkpt><trkpt lat="39.9313801" lon="8.4509999"><ele>46.0</ele><time>2026-05-02T13:31:16.482Z</time></trkpt><trkpt lat="39.9313439" lon="8.4511977"><ele>46.66666666666667</ele><time>2026-05-02T13:31:17.481Z</time></trkpt><trkpt lat="39.9312969" lon="8.4513944"><ele>47.333333333333336</ele><time>2026-05-02T13:31:18.482Z</time></trkpt><trkpt lat="39.9312349" lon="8.4515876"><ele>48.0</ele><time>2026-05-02T13:31:19.481Z</time></trkpt><trkpt lat="39.9311578" lon="8.4517766"><ele>48.0</ele><time>2026-05-02T13:31:20.483Z</time></trkpt><trkpt lat="39.9310688" lon="8.4519577"><ele>48.0</ele><time>2026-05-02T13:31:21.482Z</time></trkpt><trkpt lat="39.9309685" lon="8.4521314"><ele>48.0</ele><time>2026-05-02T13:31:22.483Z</time></trkpt><trkpt lat="39.9308606" lon="8.4523011"><ele>43.666666666666664</ele><time>2026-05-02T13:31:23.482Z</time></trkpt><trkpt lat="39.9307545" lon="8.452478"><ele>39.33333333333333</ele><time>2026-05-02T13:31:24.482Z</time></trkpt><trkpt lat="39.9306522" lon="8.4526566"><ele>35.0</ele><time>2026-05-02T13:31:25.483Z</time></trkpt><trkpt lat="39.9305474" lon="8.4528378"><ele>35.33333333333333</ele><time>2026-05-02T13:31:26.483Z</time></trkpt><trkpt lat="39.9304432" lon="8.4530185"><ele>35.666666666666664</ele><time>2026-05-02T13:31:27.482Z</time></trkpt><trkpt lat="39.9303396" lon="8.4531983"><ele>36.0</ele><time>2026-05-02T13:31:28.483Z</time></trkpt><trkpt lat="39.9302371" lon="8.4533781"><ele>36.0</ele><time>2026-05-02T13:31:29.482Z</time></trkpt><trkpt lat="39.9301353" lon="8.4535572"><ele>36.0</ele><time>2026-05-02T13:31:30.482Z</time></trkpt><trkpt lat="39.9300344" lon="8.4537359"><ele>36.0</ele><time>2026-05-02T13:31:31.481Z</time></trkpt><trkpt lat="39.9299334" lon="8.4539172"><ele>33.333333333333336</ele><time>2026-05-02T13:31:32.482Z</time></trkpt><trkpt lat="39.9298346" lon="8.454098"><ele>30.666666666666668</ele><time>2026-05-02T13:31:33.481Z</time></trkpt><trkpt lat="39.9297441" lon="8.454278"><ele>28.0</ele><time>2026-05-02T13:31:34.481Z</time></trkpt><trkpt lat="39.929662" lon="8.4544591"><ele>26.666666666666668</ele><time>2026-05-02T13:31:35.482Z</time></trkpt><trkpt lat="39.9295853" lon="8.4546401"><ele>25.333333333333336</ele><time>2026-05-02T13:31:36.483Z</time></trkpt><trkpt lat="39.9295111" lon="8.4548176"><ele>24.0</ele><time>2026-05-02T13:31:37.481Z</time></trkpt><trkpt lat="39.9294394" lon="8.4549825"><ele>24.0</ele><time>2026-05-02T13:31:38.483Z</time></trkpt><trkpt lat="39.92937" lon="8.4551326"><ele>24.0</ele><time>2026-05-02T13:31:39.481Z</time></trkpt><trkpt lat="39.9293013" lon="8.4552697"><ele>24.0</ele><time>2026-05-02T13:31:40.482Z</time></trkpt><trkpt lat="39.9292365" lon="8.4553777"><ele>24.0</ele><time>2026-05-02T13:31:41.482Z</time></trkpt><trkpt lat="39.9291731" lon="8.4554544"><ele>23.166666666666668</ele><time>2026-05-02T13:31:42.481Z</time></trkpt><trkpt lat="39.9291052" lon="8.4555056"><ele>22.333333333333332</ele><time>2026-05-02T13:31:43.483Z</time></trkpt><trkpt lat="39.9290335" lon="8.4555159"><ele>21.5</ele><time>2026-05-02T13:31:44.483Z</time></trkpt><trkpt lat="39.9289521" lon="8.4554941"><ele>20.666666666666664</ele><time>2026-05-02T13:31:45.482Z</time></trkpt><trkpt lat="39.9288575" lon="8.4554525"><ele>19.833333333333332</ele><time>2026-05-02T13:31:46.483Z</time></trkpt><trkpt lat="39.9287496" lon="8.4554035"><ele>19.0</ele><time>2026-05-02T13:31:47.483Z</time></trkpt><trkpt lat="39.9286287" lon="8.4553559"><ele>19.0</ele><time>2026-05-02T13:31:48.482Z</time></trkpt><trkpt lat="39.9285047" lon="8.4553111"><ele>19.0</ele><time>2026-05-02T13:31:49.481Z</time></trkpt><trkpt lat="39.928371" lon="8.4552624"><ele>19.0</ele><time>2026-05-02T13:31:50.482Z</time></trkpt><trkpt lat="39.9282318" lon="8.4552102"><ele>19.0</ele><time>2026-05-02T13:31:51.482Z</time></trkpt><trkpt lat="39.9280945" lon="8.455156"><ele>18.666666666666664</ele><time>2026-05-02T13:31:52.481Z</time></trkpt><trkpt lat="39.9279504" lon="8.4550966"><ele>18.333333333333332</ele><time>2026-05-02T13:31:53.483Z</time></trkpt><trkpt lat="39.9278064" lon="8.4550415"><ele>18.0</ele><time>2026-05-02T13:31:54.481Z</time></trkpt><trkpt lat="39.9276592" lon="8.4549847"><ele>17.333333333333332</ele><time>2026-05-02T13:31:55.482Z</time></trkpt><trkpt lat="39.9275085" lon="8.4549288"><ele>16.666666666666664</ele><time>2026-05-02T13:31:56.481Z</time></trkpt><trkpt lat="39.9273579" lon="8.4548706"><ele>16.0</ele><time>2026-05-02T13:31:57.482Z</time></trkpt><trkpt lat="39.9272041" lon="8.4548124"><ele>16.0</ele><time>2026-05-02T13:31:58.482Z</time></trkpt><trkpt lat="39.9270495" lon="8.4547536"><ele>16.0</ele><time>2026-05-02T13:31:59.482Z</time></trkpt><trkpt lat="39.9268912" lon="8.4547007"><ele>16.0</ele><time>2026-05-02T13:32:00.481Z</time></trkpt><trkpt lat="39.9267345" lon="8.4546571"><ele>15.333333333333332</ele><time>2026-05-02T13:32:01.483Z</time></trkpt><trkpt lat="39.9265708" lon="8.4546267"><ele>14.666666666666668</ele><time>2026-05-02T13:32:02.481Z</time></trkpt><trkpt lat="39.9263981" lon="8.4546092"><ele>14.0</ele><time>2026-05-02T13:32:03.483Z</time></trkpt><trkpt lat="39.9262255" lon="8.4545946"><ele>14.0</ele><time>2026-05-02T13:32:04.482Z</time></trkpt><trkpt lat="39.9260518" lon="8.4545778"><ele>14.0</ele><time>2026-05-02T13:32:05.482Z</time></trkpt><trkpt lat="39.9258783" lon="8.4545568"><ele>14.0</ele><time>2026-05-02T13:32:06.483Z</time></trkpt><trkpt lat="39.9257035" lon="8.4545239"><ele>13.333333333333334</ele><time>2026-05-02T13:32:07.482Z</time></trkpt><trkpt lat="39.9255282" lon="8.4544686"><ele>12.666666666666668</ele><time>2026-05-02T13:32:08.482Z</time></trkpt><trkpt lat="39.9253584" lon="8.4543796"><ele>12.0</ele><time>2026-05-02T13:32:09.482Z</time></trkpt><trkpt lat="39.9251994" lon="8.4542578"><ele>11.333333333333334</ele><time>2026-05-02T13:32:10.482Z</time></trkpt><trkpt lat="39.9250475" lon="8.454119"><ele>10.666666666666668</ele><time>2026-05-02T13:32:11.482Z</time></trkpt><trkpt lat="39.9248993" lon="8.4539837"><ele>10.0</ele><time>2026-05-02T13:32:12.483Z</time></trkpt><trkpt lat="39.9247495" lon="8.4538538"><ele>11.333333333333334</ele><time>2026-05-02T13:32:13.481Z</time></trkpt><trkpt lat="39.9245977" lon="8.4537267"><ele>12.666666666666668</ele><time>2026-05-02T13:32:14.482Z</time></trkpt><trkpt lat="39.9244438" lon="8.4536031"><ele>14.0</ele><time>2026-05-02T13:32:15.481Z</time></trkpt><trkpt lat="39.9242863" lon="8.4534826"><ele>13.0</ele><time>2026-05-02T13:32:16.482Z</time></trkpt><trkpt lat="39.924122" lon="8.4533685"><ele>12.0</ele><time>2026-05-02T13:32:17.482Z</time></trkpt><trkpt lat="39.9239561" lon="8.4532571"><ele>11.0</ele><time>2026-05-02T13:32:18.482Z</time></trkpt><trkpt lat="39.9237898" lon="8.4531421"><ele>11.0</ele><time>2026-05-02T13:32:19.482Z</time></trkpt><trkpt lat="39.9236232" lon="8.4530246"><ele>11.0</ele><time>2026-05-02T13:32:20.483Z</time></trkpt><trkpt lat="39.9234614" lon="8.452907"><ele>11.0</ele><time>2026-05-02T13:32:21.481Z</time></trkpt><trkpt lat="39.9233008" lon="8.4527897"><ele>10.0</ele><time>2026-05-02T13:32:22.482Z</time></trkpt><trkpt lat="39.9231411" lon="8.4526693"><ele>9.0</ele><time>2026-05-02T13:32:23.482Z</time></trkpt><trkpt lat="39.9229836" lon="8.4525452"><ele>8.0</ele><time>2026-05-02T13:32:24.482Z</time></trkpt><trkpt lat="39.9228283" lon="8.4524143"><ele>8.0</ele><time>2026-05-02T13:32:25.483Z</time></trkpt><trkpt lat="39.9226771" lon="8.4522827"><ele>8.0</ele><time>2026-05-02T13:32:26.482Z</time></trkpt><trkpt lat="39.9225273" lon="8.452148"><ele>8.0</ele><time>2026-05-02T13:32:27.483Z</time></trkpt><trkpt lat="39.9223781" lon="8.4520134"><ele>8.0</ele><time>2026-05-02T13:32:28.481Z</time></trkpt><trkpt lat="39.922227" lon="8.4518784"><ele>8.0</ele><time>2026-05-02T13:32:29.482Z</time></trkpt><trkpt lat="39.9220743" lon="8.451745"><ele>8.0</ele><time>2026-05-02T13:32:30.481Z</time></trkpt><trkpt lat="39.9219207" lon="8.4516104"><ele>8.0</ele><time>2026-05-02T13:32:31.482Z</time></trkpt><trkpt lat="39.9217674" lon="8.45148"><ele>8.0</ele><time>2026-05-02T13:32:32.481Z</time></trkpt><trkpt lat="39.9216138" lon="8.4513481"><ele>8.0</ele><time>2026-05-02T13:32:33.482Z</time></trkpt><trkpt lat="39.921461" lon="8.4512139"><ele>8.0</ele><time>2026-05-02T13:32:34.483Z</time></trkpt><trkpt lat="39.9213076" lon="8.4510826"><ele>8.0</ele><time>2026-05-02T13:32:35.481Z</time></trkpt><trkpt lat="39.9211563" lon="8.4509571"><ele>8.0</ele><time>2026-05-02T13:32:36.482Z</time></trkpt><trkpt lat="39.9210081" lon="8.4508677"><ele>7.666666666666666</ele><time>2026-05-02T13:32:37.483Z</time></trkpt><trkpt lat="39.920858" lon="8.4508269"><ele>7.333333333333334</ele><time>2026-05-02T13:32:38.483Z</time></trkpt><trkpt lat="39.9207066" lon="8.4508337"><ele>7.0</ele><time>2026-05-02T13:32:39.483Z</time></trkpt><trkpt lat="39.920552" lon="8.4508981"><ele>7.0</ele><time>2026-05-02T13:32:40.482Z</time></trkpt><trkpt lat="39.9204051" lon="8.451007"><ele>7.0</ele><time>2026-05-02T13:32:41.483Z</time></trkpt><trkpt lat="39.9202666" lon="8.4511465"><ele>7.0</ele><time>2026-05-02T13:32:42.482Z</time></trkpt><trkpt lat="39.9201213" lon="8.4512718"><ele>6.333333333333334</ele><time>2026-05-02T13:32:43.483Z</time></trkpt><trkpt lat="39.9199586" lon="8.4513589"><ele>5.666666666666667</ele><time>2026-05-02T13:32:44.482Z</time></trkpt><trkpt lat="39.9197921" lon="8.4513986"><ele>5.0</ele><time>2026-05-02T13:32:45.483Z</time></trkpt><trkpt lat="39.9196137" lon="8.4513949"><ele>5.0</ele><time>2026-05-02T13:32:46.482Z</time></trkpt><trkpt lat="39.919433" lon="8.4513639"><ele>5.0</ele><time>2026-05-02T13:32:47.483Z</time></trkpt><trkpt lat="39.9192517" lon="8.451329"><ele>5.0</ele><time>2026-05-02T13:32:48.482Z</time></trkpt><trkpt lat="39.9190683" lon="8.4512907"><ele>4.333333333333334</ele><time>2026-05-02T13:32:49.482Z</time></trkpt><trkpt lat="39.9188885" lon="8.4512379"><ele>3.666666666666667</ele><time>2026-05-02T13:32:50.482Z</time></trkpt><trkpt lat="39.9187088" lon="8.451184"><ele>3.0</ele><time>2026-05-02T13:32:51.482Z</time></trkpt><trkpt lat="39.9185285" lon="8.4511401"><ele>2.75</ele><time>2026-05-02T13:32:52.481Z</time></trkpt><trkpt lat="39.9183736" lon="8.4511122"><ele>2.5</ele><time>2026-05-02T13:32:53.481Z</time></trkpt><trkpt lat="39.9182461" lon="8.4510973"><ele>2.25</ele><time>2026-05-02T13:32:54.482Z</time></trkpt><trkpt lat="39.9181483" lon="8.4510964"><ele>2.0</ele><time>2026-05-02T13:32:55.482Z</time></trkpt><trkpt lat="39.9180725" lon="8.4511045"><ele>1.9999999999999998</ele><time>2026-05-02T13:32:56.482Z</time></trkpt><trkpt lat="39.9180076" lon="8.4511132"><ele>2.0</ele><time>2026-05-02T13:32:57.481Z</time></trkpt><trkpt lat="39.9179298" lon="8.4511776"><ele>2.0</ele><time>2026-05-02T13:32:59.482Z</time></trkpt><trkpt lat="39.9179985" lon="8.4511711"><ele>2.0</ele><time>2026-05-02T13:33:05.483Z</time></trkpt><trkpt lat="39.9181249" lon="8.451149"><ele>1.9999999999999998</ele><time>2026-05-02T13:33:07.482Z</time></trkpt><trkpt lat="39.9182158" lon="8.4511484"><ele>2.0</ele><time>2026-05-02T13:33:08.481Z</time></trkpt><trkpt lat="39.9183234" lon="8.4511512"><ele>2.25</ele><time>2026-05-02T13:33:09.481Z</time></trkpt><trkpt lat="39.9184355" lon="8.4511642"><ele>2.5</ele><time>2026-05-02T13:33:10.482Z</time></trkpt><trkpt lat="39.9185545" lon="8.4511905"><ele>2.75</ele><time>2026-05-02T13:33:11.482Z</time></trkpt><trkpt lat="39.9186752" lon="8.4512294"><ele>3.0</ele><time>2026-05-02T13:33:12.483Z</time></trkpt><trkpt lat="39.9188027" lon="8.4512668"><ele>3.25</ele><time>2026-05-02T13:33:13.482Z</time></trkpt><trkpt lat="39.9189353" lon="8.4512973"><ele>3.5</ele><time>2026-05-02T13:33:14.482Z</time></trkpt><trkpt lat="39.9190815" lon="8.451325"><ele>3.75</ele><time>2026-05-02T13:33:15.483Z</time></trkpt><trkpt lat="39.9192376" lon="8.4513569"><ele>4.0</ele><time>2026-05-02T13:33:16.482Z</time></trkpt><trkpt lat="39.9193922" lon="8.4513952"><ele>4.25</ele><time>2026-05-02T13:33:17.482Z</time></trkpt><trkpt lat="39.9195405" lon="8.4514267"><ele>4.5</ele><time>2026-05-02T13:33:18.482Z</time></trkpt><trkpt lat="39.9196847" lon="8.4514479"><ele>4.75</ele><time>2026-05-02T13:33:19.482Z</time></trkpt><trkpt lat="39.919816" lon="8.4514445"><ele>5.0</ele><time>2026-05-02T13:33:20.482Z</time></trkpt><trkpt lat="39.9199398" lon="8.451406"><ele>5.0</ele><time>2026-05-02T13:33:21.483Z</time></trkpt><trkpt lat="39.9200592" lon="8.4513433"><ele>5.0</ele><time>2026-05-02T13:33:22.482Z</time></trkpt><trkpt lat="39.9201701" lon="8.4512594"><ele>5.0</ele><time>2026-05-02T13:33:23.482Z</time></trkpt><trkpt lat="39.9202595" lon="8.4511897"><ele>5.0</ele><time>2026-05-02T13:33:24.481Z</time></trkpt><trkpt lat="39.920317" lon="8.4512349"><ele>5.0</ele><time>2026-05-02T13:33:27.481Z</time></trkpt><trkpt lat="39.9202867" lon="8.4513883"><ele>5.0</ele><time>2026-05-02T13:33:29.483Z</time></trkpt><trkpt lat="39.9202395" lon="8.4514707"><ele>5.0</ele><time>2026-05-02T13:33:30.483Z</time></trkpt><trkpt lat="39.9201714" lon="8.4515623"><ele>5.0</ele><time>2026-05-02T13:33:31.482Z</time></trkpt><trkpt lat="39.9201011" lon="8.4516614"><ele>5.0</ele><time>2026-05-02T13:33:32.482Z</time></trkpt><trkpt lat="39.9200306" lon="8.45178"><ele>5.0</ele><time>2026-05-02T13:33:33.482Z</time></trkpt><trkpt lat="39.9199594" lon="8.4519145"><ele>5.0</ele><time>2026-05-02T13:33:34.482Z</time></trkpt><trkpt lat="39.9198944" lon="8.4520397"><ele>5.0</ele><time>2026-05-02T13:33:35.482Z</time></trkpt><trkpt lat="39.9198426" lon="8.4521536"><ele>5.0</ele><time>2026-05-02T13:33:36.483Z</time></trkpt><trkpt lat="39.9197952" lon="8.4522591"><ele>5.0</ele><time>2026-05-02T13:33:37.482Z</time></trkpt><trkpt lat="39.9197476" lon="8.4523613"><ele>5.0</ele><time>2026-05-02T13:33:38.482Z</time></trkpt><trkpt lat="39.9197012" lon="8.4524631"><ele>5.2</ele><time>2026-05-02T13:33:39.482Z</time></trkpt><trkpt lat="39.9196575" lon="8.4525693"><ele>5.4</ele><time>2026-05-02T13:33:40.481Z</time></trkpt><trkpt lat="39.9196163" lon="8.4526842"><ele>5.6</ele><time>2026-05-02T13:33:41.482Z</time></trkpt><trkpt lat="39.9195701" lon="8.4528076"><ele>5.8</ele><time>2026-05-02T13:33:42.481Z</time></trkpt><trkpt lat="39.9195236" lon="8.4529381"><ele>6.0</ele><time>2026-05-02T13:33:43.482Z</time></trkpt><trkpt lat="39.9194813" lon="8.4530731"><ele>5.5</ele><time>2026-05-02T13:33:44.483Z</time></trkpt><trkpt lat="39.9194492" lon="8.4532088"><ele>5.0</ele><time>2026-05-02T13:33:45.483Z</time></trkpt><trkpt lat="39.9194253" lon="8.4533531"><ele>4.5</ele><time>2026-05-02T13:33:46.482Z</time></trkpt><trkpt lat="39.9194118" lon="8.4535203"><ele>4.0</ele><time>2026-05-02T13:33:47.481Z</time></trkpt><trkpt lat="39.9194121" lon="8.4537035"><ele>3.75</ele><time>2026-05-02T13:33:48.481Z</time></trkpt><trkpt lat="39.9194129" lon="8.4538886"><ele>3.5</ele><time>2026-05-02T13:33:49.481Z</time></trkpt><trkpt lat="39.919415" lon="8.4540759"><ele>3.25</ele><time>2026-05-02T13:33:50.481Z</time></trkpt><trkpt lat="39.9194069" lon="8.4542587"><ele>3.0</ele><time>2026-05-02T13:33:51.481Z</time></trkpt><trkpt lat="39.9193905" lon="8.4544452"><ele>3.0</ele><time>2026-05-02T13:33:52.482Z</time></trkpt><trkpt lat="39.9193645" lon="8.4546314"><ele>3.0</ele><time>2026-05-02T13:33:53.482Z</time></trkpt><trkpt lat="39.919337" lon="8.4548149"><ele>3.0</ele><time>2026-05-02T13:33:54.48Z</time></trkpt><trkpt lat="39.9193121" lon="8.4550023"><ele>3.0</ele><time>2026-05-02T13:33:55.48Z</time></trkpt><trkpt lat="39.9192901" lon="8.4551988"><ele>3.0</ele><time>2026-05-02T13:33:56.481Z</time></trkpt><trkpt lat="39.9192728" lon="8.4553993"><ele>3.0</ele><time>2026-05-02T13:33:57.481Z</time></trkpt><trkpt lat="39.9192578" lon="8.4556013"><ele>3.0</ele><time>2026-05-02T13:33:58.48Z</time></trkpt><trkpt lat="39.9192425" lon="8.4558058"><ele>2.6666666666666665</ele><time>2026-05-02T13:33:59.48Z</time></trkpt><trkpt lat="39.9192287" lon="8.4560142"><ele>2.333333333333333</ele><time>2026-05-02T13:34:00.481Z</time></trkpt><trkpt lat="39.9192188" lon="8.4562241"><ele>2.0</ele><time>2026-05-02T13:34:01.481Z</time></trkpt><trkpt lat="39.9192149" lon="8.4564327"><ele>2.0</ele><time>2026-05-02T13:34:02.481Z</time></trkpt><trkpt lat="39.9192139" lon="8.4566393"><ele>2.0</ele><time>2026-05-02T13:34:03.48Z</time></trkpt><trkpt lat="39.9192142" lon="8.4568406"><ele>2.0</ele><time>2026-05-02T13:34:04.481Z</time></trkpt><trkpt lat="39.9192137" lon="8.457042"><ele>2.0</ele><time>2026-05-02T13:34:05.481Z</time></trkpt><trkpt lat="39.9192105" lon="8.4572349"><ele>2.0</ele><time>2026-05-02T13:34:06.48Z</time></trkpt><trkpt lat="39.9192093" lon="8.4574253"><ele>2.0</ele><time>2026-05-02T13:34:07.481Z</time></trkpt><trkpt lat="39.9192066" lon="8.4576132"><ele>2.0</ele><time>2026-05-02T13:34:08.48Z</time></trkpt><trkpt lat="39.9191995" lon="8.4577983"><ele>2.0</ele><time>2026-05-02T13:34:09.481Z</time></trkpt><trkpt lat="39.9191926" lon="8.457982"><ele>2.0</ele><time>2026-05-02T13:34:10.481Z</time></trkpt><trkpt lat="39.9191886" lon="8.4581668"><ele>2.0</ele><time>2026-05-02T13:34:11.481Z</time></trkpt><trkpt lat="39.9191867" lon="8.4583497"><ele>2.0</ele><time>2026-05-02T13:34:12.482Z</time></trkpt><trkpt lat="39.9191859" lon="8.4585325"><ele>2.0</ele><time>2026-05-02T13:34:13.482Z</time></trkpt><trkpt lat="39.9191834" lon="8.4587122"><ele>2.0</ele><time>2026-05-02T13:34:14.481Z</time></trkpt><trkpt lat="39.919182" lon="8.4588912"><ele>2.0</ele><time>2026-05-02T13:34:15.482Z</time></trkpt><trkpt lat="39.9191795" lon="8.4590699"><ele>2.0</ele><time>2026-05-02T13:34:16.482Z</time></trkpt><trkpt lat="39.9191745" lon="8.4592488"><ele>2.25</ele><time>2026-05-02T13:34:17.481Z</time></trkpt><trkpt lat="39.9191709" lon="8.4594283"><ele>2.5</ele><time>2026-05-02T13:34:18.48Z</time></trkpt><trkpt lat="39.919168" lon="8.4596077"><ele>2.75</ele><time>2026-05-02T13:34:19.482Z</time></trkpt><trkpt lat="39.9191638" lon="8.4597868"><ele>3.0</ele><time>2026-05-02T13:34:20.482Z</time></trkpt><trkpt lat="39.9191597" lon="8.4599645"><ele>3.0</ele><time>2026-05-02T13:34:21.482Z</time></trkpt><trkpt lat="39.9191562" lon="8.4601427"><ele>3.0</ele><time>2026-05-02T13:34:22.481Z</time></trkpt><trkpt lat="39.9191536" lon="8.4603182"><ele>3.0</ele><time>2026-05-02T13:34:23.48Z</time></trkpt><trkpt lat="39.9191521" lon="8.4604943"><ele>3.0</ele><time>2026-05-02T13:34:24.481Z</time></trkpt><trkpt lat="39.9191482" lon="8.4606699"><ele>3.0</ele><time>2026-05-02T13:34:25.482Z</time></trkpt><trkpt lat="39.9191439" lon="8.4608447"><ele>3.0</ele><time>2026-05-02T13:34:26.481Z</time></trkpt><trkpt lat="39.9191419" lon="8.4610238"><ele>3.0</ele><time>2026-05-02T13:34:27.48Z</time></trkpt><trkpt lat="39.9191391" lon="8.4612037"><ele>3.0</ele><time>2026-05-02T13:34:28.48Z</time></trkpt><trkpt lat="39.9191351" lon="8.4613846"><ele>3.0</ele><time>2026-05-02T13:34:29.48Z</time></trkpt><trkpt lat="39.9191307" lon="8.4615638"><ele>3.0</ele><time>2026-05-02T13:34:30.481Z</time></trkpt><trkpt lat="39.9191249" lon="8.4617446"><ele>3.0</ele><time>2026-05-02T13:34:31.48Z</time></trkpt><trkpt lat="39.9191173" lon="8.4619247"><ele>3.0</ele><time>2026-05-02T13:34:32.481Z</time></trkpt><trkpt lat="39.9191061" lon="8.4621057"><ele>2.75</ele><time>2026-05-02T13:34:33.482Z</time></trkpt><trkpt lat="39.9190945" lon="8.4622898"><ele>2.5</ele><time>2026-05-02T13:34:34.481Z</time></trkpt><trkpt lat="39.9190807" lon="8.4624774"><ele>2.25</ele><time>2026-05-02T13:34:35.481Z</time></trkpt><trkpt lat="39.9190665" lon="8.4626661"><ele>2.0</ele><time>2026-05-02T13:34:36.481Z</time></trkpt><trkpt lat="39.9190514" lon="8.4628565"><ele>2.0</ele><time>2026-05-02T13:34:37.48Z</time></trkpt><trkpt lat="39.9190381" lon="8.4630427"><ele>2.0</ele><time>2026-05-02T13:34:38.482Z</time></trkpt><trkpt lat="39.9190248" lon="8.4632271"><ele>2.0</ele><time>2026-05-02T13:34:39.482Z</time></trkpt><trkpt lat="39.9190078" lon="8.4634065"><ele>2.0</ele><time>2026-05-02T13:34:40.481Z</time></trkpt><trkpt lat="39.9189907" lon="8.4635857"><ele>2.0</ele><time>2026-05-02T13:34:41.481Z</time></trkpt><trkpt lat="39.9189757" lon="8.4637631"><ele>2.0</ele><time>2026-05-02T13:34:42.481Z</time></trkpt><trkpt lat="39.9189675" lon="8.4639458"><ele>2.0</ele><time>2026-05-02T13:34:43.482Z</time></trkpt><trkpt lat="39.9189645" lon="8.464128"><ele>2.0</ele><time>2026-05-02T13:34:44.481Z</time></trkpt><trkpt lat="39.9189641" lon="8.4643113"><ele>2.0</ele><time>2026-05-02T13:34:45.481Z</time></trkpt><trkpt lat="39.9189709" lon="8.4644923"><ele>2.0</ele><time>2026-05-02T13:34:46.48Z</time></trkpt><trkpt lat="39.918984" lon="8.4646754"><ele>2.0</ele><time>2026-05-02T13:34:47.481Z</time></trkpt><trkpt lat="39.9189993" lon="8.4648535"><ele>2.0</ele><time>2026-05-02T13:34:48.481Z</time></trkpt><trkpt lat="39.9190172" lon="8.4650292"><ele>2.0</ele><time>2026-05-02T13:34:49.481Z</time></trkpt><trkpt lat="39.9190366" lon="8.4652022"><ele>2.0</ele><time>2026-05-02T13:34:50.481Z</time></trkpt><trkpt lat="39.9190655" lon="8.4653744"><ele>2.0</ele><time>2026-05-02T13:34:51.481Z</time></trkpt><trkpt lat="39.9191062" lon="8.4655463"><ele>2.0</ele><time>2026-05-02T13:34:52.48Z</time></trkpt><trkpt lat="39.9191532" lon="8.4657176"><ele>2.0</ele><time>2026-05-02T13:34:53.48Z</time></trkpt><trkpt lat="39.9192073" lon="8.4658854"><ele>2.0</ele><time>2026-05-02T13:34:54.481Z</time></trkpt><trkpt lat="39.919262" lon="8.466044"><ele>2.0</ele><time>2026-05-02T13:34:55.481Z</time></trkpt><trkpt lat="39.9193227" lon="8.4661951"><ele>2.0</ele><time>2026-05-02T13:34:56.481Z</time></trkpt><trkpt lat="39.9193853" lon="8.4663461"><ele>2.0</ele><time>2026-05-02T13:34:57.482Z</time></trkpt><trkpt lat="39.9194416" lon="8.4664965"><ele>2.0</ele><time>2026-05-02T13:34:58.48Z</time></trkpt><trkpt lat="39.919493" lon="8.4666502"><ele>2.0</ele><time>2026-05-02T13:34:59.481Z</time></trkpt><trkpt lat="39.9195506" lon="8.4667943"><ele>2.0</ele><time>2026-05-02T13:35:00.482Z</time></trkpt><trkpt lat="39.9195999" lon="8.4669447"><ele>2.0</ele><time>2026-05-02T13:35:01.482Z</time></trkpt><trkpt lat="39.9196504" lon="8.4670863"><ele>2.0</ele><time>2026-05-02T13:35:02.481Z</time></trkpt><trkpt lat="39.919704" lon="8.4672109"><ele>2.0</ele><time>2026-05-02T13:35:03.48Z</time></trkpt><trkpt lat="39.9197713" lon="8.4673214"><ele>2.0</ele><time>2026-05-02T13:35:04.482Z</time></trkpt><trkpt lat="39.9198482" lon="8.4674289"><ele>2.0</ele><time>2026-05-02T13:35:05.482Z</time></trkpt><trkpt lat="39.9199171" lon="8.4675363"><ele>2.0</ele><time>2026-05-02T13:35:06.481Z</time></trkpt><trkpt lat="39.9199655" lon="8.4676538"><ele>2.0</ele><time>2026-05-02T13:35:07.481Z</time></trkpt><trkpt lat="39.9199959" lon="8.4677731"><ele>2.0</ele><time>2026-05-02T13:35:08.482Z</time></trkpt><trkpt lat="39.9200077" lon="8.4679045"><ele>2.0</ele><time>2026-05-02T13:35:09.482Z</time></trkpt><trkpt lat="39.9200091" lon="8.4680528"><ele>2.0</ele><time>2026-05-02T13:35:10.482Z</time></trkpt><trkpt lat="39.9200013" lon="8.4682055"><ele>2.0</ele><time>2026-05-02T13:35:11.481Z</time></trkpt><trkpt lat="39.9199902" lon="8.4683675"><ele>2.0</ele><time>2026-05-02T13:35:12.481Z</time></trkpt><trkpt lat="39.9199836" lon="8.4685313"><ele>2.0</ele><time>2026-05-02T13:35:13.482Z</time></trkpt><trkpt lat="39.9199772" lon="8.4686956"><ele>1.75</ele><time>2026-05-02T13:35:14.48Z</time></trkpt><trkpt lat="39.9199694" lon="8.4688584"><ele>1.5</ele><time>2026-05-02T13:35:15.481Z</time></trkpt><trkpt lat="39.9199603" lon="8.4690194"><ele>1.25</ele><time>2026-05-02T13:35:16.481Z</time></trkpt><trkpt lat="39.91996" lon="8.4691811"><ele>1.0</ele><time>2026-05-02T13:35:17.48Z</time></trkpt><trkpt lat="39.9199675" lon="8.4693445"><ele>1.0</ele><time>2026-05-02T13:35:18.481Z</time></trkpt><trkpt lat="39.9199758" lon="8.4695096"><ele>1.0</ele><time>2026-05-02T13:35:19.482Z</time></trkpt><trkpt lat="39.9199831" lon="8.4696757"><ele>1.0</ele><time>2026-05-02T13:35:20.48Z</time></trkpt><trkpt lat="39.9199931" lon="8.4698429"><ele>1.0</ele><time>2026-05-02T13:35:21.482Z</time></trkpt><trkpt lat="39.9200115" lon="8.4700104"><ele>1.0</ele><time>2026-05-02T13:35:22.481Z</time></trkpt><trkpt lat="39.9200339" lon="8.4701755"><ele>1.0</ele><time>2026-05-02T13:35:23.482Z</time></trkpt><trkpt lat="39.9200611" lon="8.4703408"><ele>1.0</ele><time>2026-05-02T13:35:24.481Z</time></trkpt><trkpt lat="39.9200824" lon="8.470506"><ele>1.0</ele><time>2026-05-02T13:35:25.482Z</time></trkpt><trkpt lat="39.9200953" lon="8.4706689"><ele>1.25</ele><time>2026-05-02T13:35:26.481Z</time></trkpt><trkpt lat="39.9200986" lon="8.4708371"><ele>1.5</ele><time>2026-05-02T13:35:27.482Z</time></trkpt><trkpt lat="39.9200996" lon="8.4710021"><ele>1.75</ele><time>2026-05-02T13:35:28.482Z</time></trkpt><trkpt lat="39.920101" lon="8.47117"><ele>2.0</ele><time>2026-05-02T13:35:29.481Z</time></trkpt><trkpt lat="39.920101" lon="8.4713404"><ele>2.0</ele><time>2026-05-02T13:35:30.48Z</time></trkpt><trkpt lat="39.9200931" lon="8.4715123"><ele>2.0</ele><time>2026-05-02T13:35:31.48Z</time></trkpt><trkpt lat="39.9200836" lon="8.4716907"><ele>2.0</ele><time>2026-05-02T13:35:32.48Z</time></trkpt><trkpt lat="39.9200798" lon="8.4718678"><ele>2.0</ele><time>2026-05-02T13:35:33.482Z</time></trkpt><trkpt lat="39.920075" lon="8.4720493"><ele>2.0</ele><time>2026-05-02T13:35:34.482Z</time></trkpt><trkpt lat="39.9200679" lon="8.4722302"><ele>2.0</ele><time>2026-05-02T13:35:35.48Z</time></trkpt><trkpt lat="39.920066" lon="8.4724124"><ele>2.0</ele><time>2026-05-02T13:35:36.482Z</time></trkpt><trkpt lat="39.9200691" lon="8.4725954"><ele>2.0</ele><time>2026-05-02T13:35:37.481Z</time></trkpt><trkpt lat="39.9200778" lon="8.4727779"><ele>2.0</ele><time>2026-05-02T13:35:38.482Z</time></trkpt><trkpt lat="39.9200911" lon="8.4729612"><ele>2.0</ele><time>2026-05-02T13:35:39.48Z</time></trkpt><trkpt lat="39.920107" lon="8.4731396"><ele>2.0</ele><time>2026-05-02T13:35:40.482Z</time></trkpt><trkpt lat="39.9201156" lon="8.4733193"><ele>2.0</ele><time>2026-05-02T13:35:41.481Z</time></trkpt><trkpt lat="39.9201102" lon="8.4734986"><ele>2.0</ele><time>2026-05-02T13:35:42.482Z</time></trkpt><trkpt lat="39.9200948" lon="8.4736586"><ele>2.0</ele><time>2026-05-02T13:35:43.481Z</time></trkpt><trkpt lat="39.920075" lon="8.473798"><ele>2.0</ele><time>2026-05-02T13:35:44.481Z</time></trkpt><trkpt lat="39.9200601" lon="8.4739245"><ele>2.0</ele><time>2026-05-02T13:35:45.481Z</time></trkpt><trkpt lat="39.9200537" lon="8.4740346"><ele>2.0</ele><time>2026-05-02T13:35:46.482Z</time></trkpt><trkpt lat="39.9200169" lon="8.4741513"><ele>2.2</ele><time>2026-05-02T13:35:48.481Z</time></trkpt><trkpt lat="39.9199128" lon="8.4742221"><ele>2.4000000000000004</ele><time>2026-05-02T13:35:50.48Z</time></trkpt><trkpt lat="39.9198313" lon="8.4742526"><ele>2.5999999999999996</ele><time>2026-05-02T13:35:51.481Z</time></trkpt><trkpt lat="39.9197332" lon="8.4742892"><ele>2.8</ele><time>2026-05-02T13:35:52.481Z</time></trkpt><trkpt lat="39.9196277" lon="8.4743357"><ele>3.0</ele><time>2026-05-02T13:35:53.482Z</time></trkpt><trkpt lat="39.9195183" lon="8.4743821"><ele>3.0</ele><time>2026-05-02T13:35:54.48Z</time></trkpt><trkpt lat="39.9194032" lon="8.4744382"><ele>3.0</ele><time>2026-05-02T13:35:55.481Z</time></trkpt><trkpt lat="39.9192932" lon="8.4744942"><ele>3.0</ele><time>2026-05-02T13:35:56.481Z</time></trkpt><trkpt lat="39.9191813" lon="8.4745319"><ele>3.0</ele><time>2026-05-02T13:35:57.48Z</time></trkpt><trkpt lat="39.9190663" lon="8.474562"><ele>2.75</ele><time>2026-05-02T13:35:58.48Z</time></trkpt><trkpt lat="39.9189486" lon="8.4745835"><ele>2.5</ele><time>2026-05-02T13:35:59.48Z</time></trkpt><trkpt lat="39.9188288" lon="8.4746104"><ele>2.25</ele><time>2026-05-02T13:36:00.481Z</time></trkpt><trkpt lat="39.9187097" lon="8.4746427"><ele>2.0</ele><time>2026-05-02T13:36:01.48Z</time></trkpt><trkpt lat="39.9185931" lon="8.4746592"><ele>2.0</ele><time>2026-05-02T13:36:02.481Z</time></trkpt><trkpt lat="39.918475" lon="8.474674"><ele>2.0</ele><time>2026-05-02T13:36:03.48Z</time></trkpt><trkpt lat="39.9183566" lon="8.474687"><ele>2.0</ele><time>2026-05-02T13:36:04.481Z</time></trkpt><trkpt lat="39.9182386" lon="8.4746972"><ele>2.0</ele><time>2026-05-02T13:36:05.481Z</time></trkpt><trkpt lat="39.9181136" lon="8.474704"><ele>2.0</ele><time>2026-05-02T13:36:06.481Z</time></trkpt><trkpt lat="39.9179828" lon="8.4747019"><ele>2.0</ele><time>2026-05-02T13:36:07.481Z</time></trkpt><trkpt lat="39.9178518" lon="8.4747082"><ele>2.0</ele><time>2026-05-02T13:36:08.48Z</time></trkpt><trkpt lat="39.9177276" lon="8.4747262"><ele>2.0</ele><time>2026-05-02T13:36:09.481Z</time></trkpt><trkpt lat="39.9176175" lon="8.4747411"><ele>2.0</ele><time>2026-05-02T13:36:10.481Z</time></trkpt><trkpt lat="39.9175153" lon="8.4747534"><ele>2.0</ele><time>2026-05-02T13:36:11.481Z</time></trkpt><trkpt lat="39.9174129" lon="8.4747587"><ele>2.0</ele><time>2026-05-02T13:36:12.481Z</time></trkpt><trkpt lat="39.9173094" lon="8.4747566"><ele>2.0</ele><time>2026-05-02T13:36:13.481Z</time></trkpt><trkpt lat="39.9172076" lon="8.474737"><ele>2.0</ele><time>2026-05-02T13:36:14.481Z</time></trkpt><trkpt lat="39.9171039" lon="8.4747244"><ele>1.9999999999999998</ele><time>2026-05-02T13:36:15.481Z</time></trkpt><trkpt lat="39.9170073" lon="8.4747155"><ele>2.0</ele><time>2026-05-02T13:36:16.481Z</time></trkpt><trkpt lat="39.9169276" lon="8.4746851"><ele>2.0</ele><time>2026-05-02T13:36:17.482Z</time></trkpt><trkpt lat="39.916867" lon="8.4746549"><ele>2.0</ele><time>2026-05-02T13:36:18.481Z</time></trkpt><trkpt lat="39.9168021" lon="8.4746293"><ele>1.9999999999999998</ele><time>2026-05-02T13:36:20.48Z</time></trkpt><trkpt lat="39.9167474" lon="8.4746772"><ele>2.0</ele><time>2026-05-02T13:36:22.48Z</time></trkpt><trkpt lat="39.916724" lon="8.4748493"><ele>2.0</ele><time>2026-05-02T13:36:24.481Z</time></trkpt><trkpt lat="39.9167175" lon="8.4749656"><ele>2.0</ele><time>2026-05-02T13:36:25.481Z</time></trkpt><trkpt lat="39.9167048" lon="8.4751001"><ele>2.0</ele><time>2026-05-02T13:36:26.481Z</time></trkpt><trkpt lat="39.9166923" lon="8.4752554"><ele>2.0</ele><time>2026-05-02T13:36:27.482Z</time></trkpt><trkpt lat="39.9166779" lon="8.4754221"><ele>2.0</ele><time>2026-05-02T13:36:28.48Z</time></trkpt><trkpt lat="39.916665" lon="8.4755989"><ele>2.333333333333333</ele><time>2026-05-02T13:36:29.482Z</time></trkpt><trkpt lat="39.9166525" lon="8.4757899"><ele>2.6666666666666665</ele><time>2026-05-02T13:36:30.482Z</time></trkpt><trkpt lat="39.9166356" lon="8.4759943"><ele>3.0</ele><time>2026-05-02T13:36:31.48Z</time></trkpt><trkpt lat="39.9166175" lon="8.4762112"><ele>3.0</ele><time>2026-05-02T13:36:32.481Z</time></trkpt><trkpt lat="39.9165977" lon="8.4764393"><ele>3.0</ele><time>2026-05-02T13:36:33.481Z</time></trkpt><trkpt lat="39.9165756" lon="8.4766844"><ele>3.0</ele><time>2026-05-02T13:36:34.48Z</time></trkpt><trkpt lat="39.9165557" lon="8.4769397"><ele>3.0</ele><time>2026-05-02T13:36:35.481Z</time></trkpt><trkpt lat="39.9165352" lon="8.4771914"><ele>3.0</ele><time>2026-05-02T13:36:36.482Z</time></trkpt><trkpt lat="39.9165181" lon="8.4774495"><ele>3.0</ele><time>2026-05-02T13:36:37.481Z</time></trkpt><trkpt lat="39.9165012" lon="8.4777105"><ele>2.6666666666666665</ele><time>2026-05-02T13:36:38.482Z</time></trkpt><trkpt lat="39.9164817" lon="8.477971"><ele>2.333333333333333</ele><time>2026-05-02T13:36:39.481Z</time></trkpt><trkpt lat="39.9164573" lon="8.4782258"><ele>2.0</ele><time>2026-05-02T13:36:40.482Z</time></trkpt><trkpt lat="39.916433" lon="8.4784772"><ele>2.0</ele><time>2026-05-02T13:36:41.482Z</time></trkpt><trkpt lat="39.9164145" lon="8.47873"><ele>2.0</ele><time>2026-05-02T13:36:42.481Z</time></trkpt><trkpt lat="39.9163971" lon="8.4789837"><ele>2.0</ele><time>2026-05-02T13:36:43.48Z</time></trkpt><trkpt lat="39.9163768" lon="8.4792373"><ele>2.0</ele><time>2026-05-02T13:36:44.481Z</time></trkpt><trkpt lat="39.916357" lon="8.4794956"><ele>2.0</ele><time>2026-05-02T13:36:45.481Z</time></trkpt><trkpt lat="39.916335" lon="8.4797576"><ele>2.0</ele><time>2026-05-02T13:36:46.481Z</time></trkpt><trkpt lat="39.9163141" lon="8.4800243"><ele>2.0</ele><time>2026-05-02T13:36:47.481Z</time></trkpt><trkpt lat="39.9162944" lon="8.4802922"><ele>2.0</ele><time>2026-05-02T13:36:48.481Z</time></trkpt><trkpt lat="39.9162743" lon="8.4805636"><ele>2.0</ele><time>2026-05-02T13:36:49.48Z</time></trkpt><trkpt lat="39.9162559" lon="8.4808395"><ele>2.0</ele><time>2026-05-02T13:36:50.48Z</time></trkpt><trkpt lat="39.9162466" lon="8.4811224"><ele>2.0</ele><time>2026-05-02T13:36:51.48Z</time></trkpt><trkpt lat="39.9162546" lon="8.4814111"><ele>2.0</ele><time>2026-05-02T13:36:52.48Z</time></trkpt><trkpt lat="39.9162755" lon="8.4817044"><ele>2.0</ele><time>2026-05-02T13:36:53.481Z</time></trkpt><trkpt lat="39.9163113" lon="8.4820033"><ele>2.0</ele><time>2026-05-02T13:36:54.48Z</time></trkpt><trkpt lat="39.9163499" lon="8.4823015"><ele>1.5</ele><time>2026-05-02T13:36:55.48Z</time></trkpt><trkpt lat="39.916391" lon="8.4826022"><ele>1.0</ele><time>2026-05-02T13:36:56.48Z</time></trkpt><trkpt lat="39.9164329" lon="8.4829004"><ele>1.5</ele><time>2026-05-02T13:36:57.481Z</time></trkpt><trkpt lat="39.9164706" lon="8.4831977"><ele>2.0</ele><time>2026-05-02T13:36:58.481Z</time></trkpt><trkpt lat="39.9165085" lon="8.483489"><ele>2.0</ele><time>2026-05-02T13:36:59.481Z</time></trkpt><trkpt lat="39.9165476" lon="8.4837798"><ele>2.0</ele><time>2026-05-02T13:37:00.482Z</time></trkpt><trkpt lat="39.9165855" lon="8.4840685"><ele>2.0</ele><time>2026-05-02T13:37:01.482Z</time></trkpt><trkpt lat="39.9166245" lon="8.4843554"><ele>2.0</ele><time>2026-05-02T13:37:02.481Z</time></trkpt><trkpt lat="39.9166632" lon="8.4846419"><ele>2.0</ele><time>2026-05-02T13:37:03.482Z</time></trkpt><trkpt lat="39.9167015" lon="8.4849301"><ele>2.0</ele><time>2026-05-02T13:37:04.48Z</time></trkpt><trkpt lat="39.9167413" lon="8.4852195"><ele>2.0</ele><time>2026-05-02T13:37:05.482Z</time></trkpt><trkpt lat="39.9167802" lon="8.4855102"><ele>1.5</ele><time>2026-05-02T13:37:06.481Z</time></trkpt><trkpt lat="39.916818" lon="8.4858022"><ele>1.0</ele><time>2026-05-02T13:37:07.481Z</time></trkpt><trkpt lat="39.9168573" lon="8.4860959"><ele>1.0</ele><time>2026-05-02T13:37:08.48Z</time></trkpt><trkpt lat="39.9168964" lon="8.4863921"><ele>1.0</ele><time>2026-05-02T13:37:09.481Z</time></trkpt><trkpt lat="39.9169351" lon="8.4866897"><ele>1.0</ele><time>2026-05-02T13:37:10.482Z</time></trkpt><trkpt lat="39.9169741" lon="8.4869877"><ele>1.0</ele><time>2026-05-02T13:37:11.481Z</time></trkpt><trkpt lat="39.9170144" lon="8.487289"><ele>1.5</ele><time>2026-05-02T13:37:12.481Z</time></trkpt><trkpt lat="39.9170537" lon="8.4875914"><ele>2.0</ele><time>2026-05-02T13:37:13.481Z</time></trkpt><trkpt lat="39.9170955" lon="8.4878931"><ele>1.5</ele><time>2026-05-02T13:37:14.481Z</time></trkpt><trkpt lat="39.9171365" lon="8.4881981"><ele>1.0</ele><time>2026-05-02T13:37:15.481Z</time></trkpt><trkpt lat="39.9171793" lon="8.4885032"><ele>1.0</ele><time>2026-05-02T13:37:16.48Z</time></trkpt><trkpt lat="39.9172198" lon="8.4888071"><ele>1.0</ele><time>2026-05-02T13:37:17.48Z</time></trkpt><trkpt lat="39.9172584" lon="8.4891092"><ele>1.0</ele><time>2026-05-02T13:37:18.48Z</time></trkpt><trkpt lat="39.917297" lon="8.4894087"><ele>1.0</ele><time>2026-05-02T13:37:19.48Z</time></trkpt><trkpt lat="39.9173356" lon="8.4897044"><ele>1.0</ele><time>2026-05-02T13:37:20.48Z</time></trkpt><trkpt lat="39.9173728" lon="8.4899995"><ele>1.0</ele><time>2026-05-02T13:37:21.48Z</time></trkpt><trkpt lat="39.917411" lon="8.4902903"><ele>0.6666666666666666</ele><time>2026-05-02T13:37:22.48Z</time></trkpt><trkpt lat="39.917458" lon="8.4905762"><ele>0.3333333333333333</ele><time>2026-05-02T13:37:23.481Z</time></trkpt><trkpt lat="39.9175164" lon="8.490857"><ele>0.0</ele><time>2026-05-02T13:37:24.481Z</time></trkpt><trkpt lat="39.9175848" lon="8.4911372"><ele>1.0</ele><time>2026-05-02T13:37:25.481Z</time></trkpt><trkpt lat="39.9176635" lon="8.4914127"><ele>2.0</ele><time>2026-05-02T13:37:26.48Z</time></trkpt><trkpt lat="39.9177535" lon="8.491686"><ele>2.0</ele><time>2026-05-02T13:37:27.48Z</time></trkpt><trkpt lat="39.9178524" lon="8.4919566"><ele>2.0</ele><time>2026-05-02T13:37:28.48Z</time></trkpt><trkpt lat="39.9179531" lon="8.4922266"><ele>1.5</ele><time>2026-05-02T13:37:29.479Z</time></trkpt><trkpt lat="39.9180555" lon="8.4924975"><ele>1.0</ele><time>2026-05-02T13:37:30.479Z</time></trkpt><trkpt lat="39.9181584" lon="8.4927691"><ele>1.0</ele><time>2026-05-02T13:37:31.48Z</time></trkpt><trkpt lat="39.9182623" lon="8.4930399"><ele>1.0</ele><time>2026-05-02T13:37:32.479Z</time></trkpt><trkpt lat="39.9183653" lon="8.4933088"><ele>1.0</ele><time>2026-05-02T13:37:33.48Z</time></trkpt><trkpt lat="39.918461" lon="8.4935757"><ele>1.0</ele><time>2026-05-02T13:37:34.481Z</time></trkpt><trkpt lat="39.9185393" lon="8.4938449"><ele>1.0</ele><time>2026-05-02T13:37:35.48Z</time></trkpt><trkpt lat="39.918599" lon="8.4941176"><ele>1.3333333333333333</ele><time>2026-05-02T13:37:36.481Z</time></trkpt><trkpt lat="39.9186417" lon="8.4943915"><ele>1.6666666666666665</ele><time>2026-05-02T13:37:37.48Z</time></trkpt><trkpt lat="39.9186662" lon="8.4946662"><ele>2.0</ele><time>2026-05-02T13:37:38.48Z</time></trkpt><trkpt lat="39.918669" lon="8.4949441"><ele>2.0</ele><time>2026-05-02T13:37:39.48Z</time></trkpt><trkpt lat="39.9186538" lon="8.4952218"><ele>2.0</ele><time>2026-05-02T13:37:40.479Z</time></trkpt><trkpt lat="39.9186214" lon="8.4954976"><ele>2.0</ele><time>2026-05-02T13:37:41.481Z</time></trkpt><trkpt lat="39.9185743" lon="8.4957762"><ele>2.5</ele><time>2026-05-02T13:37:42.48Z</time></trkpt><trkpt lat="39.9185109" lon="8.4960556"><ele>3.0</ele><time>2026-05-02T13:37:43.48Z</time></trkpt><trkpt lat="39.9184267" lon="8.4963319"><ele>3.0</ele><time>2026-05-02T13:37:44.479Z</time></trkpt><trkpt lat="39.9183229" lon="8.4965985"><ele>3.0</ele><time>2026-05-02T13:37:45.48Z</time></trkpt><trkpt lat="39.9182011" lon="8.4968566"><ele>2.0</ele><time>2026-05-02T13:37:46.479Z</time></trkpt><trkpt lat="39.9180641" lon="8.4971036"><ele>1.0</ele><time>2026-05-02T13:37:47.48Z</time></trkpt><trkpt lat="39.917917" lon="8.497341"><ele>1.0</ele><time>2026-05-02T13:37:48.48Z</time></trkpt><trkpt lat="39.917767" lon="8.4975719"><ele>1.0</ele><time>2026-05-02T13:37:49.481Z</time></trkpt><trkpt lat="39.9176167" lon="8.497805"><ele>0.5</ele><time>2026-05-02T13:37:50.48Z</time></trkpt><trkpt lat="39.9174684" lon="8.4980392"><ele>0.0</ele><time>2026-05-02T13:37:51.481Z</time></trkpt><trkpt lat="39.9173189" lon="8.498271"><ele>0.0</ele><time>2026-05-02T13:37:52.481Z</time></trkpt><trkpt lat="39.9171719" lon="8.4985072"><ele>0.0</ele><time>2026-05-02T13:37:53.48Z</time></trkpt><trkpt lat="39.917024" lon="8.4987434"><ele>0.0</ele><time>2026-05-02T13:37:54.481Z</time></trkpt><trkpt lat="39.9168787" lon="8.4989791"><ele>0.0</ele><time>2026-05-02T13:37:55.48Z</time></trkpt><trkpt lat="39.9167348" lon="8.4992165"><ele>0.5</ele><time>2026-05-02T13:37:56.48Z</time></trkpt><trkpt lat="39.9165925" lon="8.4994562"><ele>1.0</ele><time>2026-05-02T13:37:57.481Z</time></trkpt><trkpt lat="39.9164579" lon="8.4997037"><ele>1.5</ele><time>2026-05-02T13:37:58.479Z</time></trkpt><trkpt lat="39.9163355" lon="8.4999628"><ele>2.0</ele><time>2026-05-02T13:37:59.481Z</time></trkpt><trkpt lat="39.9162274" lon="8.500231"><ele>2.5</ele><time>2026-05-02T13:38:00.481Z</time></trkpt><trkpt lat="39.9161414" lon="8.5005109"><ele>3.0</ele><time>2026-05-02T13:38:01.479Z</time></trkpt><trkpt lat="39.9160729" lon="8.5007976"><ele>3.0</ele><time>2026-05-02T13:38:02.479Z</time></trkpt><trkpt lat="39.9160291" lon="8.5010966"><ele>3.0</ele><time>2026-05-02T13:38:03.479Z</time></trkpt><trkpt lat="39.9160008" lon="8.5013979"><ele>3.0</ele><time>2026-05-02T13:38:04.48Z</time></trkpt><trkpt lat="39.9159875" lon="8.501699"><ele>3.0</ele><time>2026-05-02T13:38:05.481Z</time></trkpt><trkpt lat="39.9159917" lon="8.5020002"><ele>3.0</ele><time>2026-05-02T13:38:06.481Z</time></trkpt><trkpt lat="39.916014" lon="8.5023015"><ele>3.0</ele><time>2026-05-02T13:38:07.479Z</time></trkpt><trkpt lat="39.9160648" lon="8.5025991"><ele>3.0</ele><time>2026-05-02T13:38:08.48Z</time></trkpt><trkpt lat="39.9161337" lon="8.502889"><ele>3.0</ele><time>2026-05-02T13:38:09.48Z</time></trkpt><trkpt lat="39.9162226" lon="8.5031694"><ele>3.0</ele><time>2026-05-02T13:38:10.481Z</time></trkpt><trkpt lat="39.9163336" lon="8.5034398"><ele>3.0</ele><time>2026-05-02T13:38:11.48Z</time></trkpt><trkpt lat="39.9164621" lon="8.5036993"><ele>3.0</ele><time>2026-05-02T13:38:12.479Z</time></trkpt><trkpt lat="39.9166022" lon="8.503948"><ele>3.0</ele><time>2026-05-02T13:38:13.48Z</time></trkpt><trkpt lat="39.9167502" lon="8.5041886"><ele>3.0</ele><time>2026-05-02T13:38:14.48Z</time></trkpt><trkpt lat="39.9168977" lon="8.5044274"><ele>3.0</ele><time>2026-05-02T13:38:15.48Z</time></trkpt><trkpt lat="39.9170408" lon="8.5046676"><ele>3.0</ele><time>2026-05-02T13:38:16.479Z</time></trkpt><trkpt lat="39.9171793" lon="8.5049095"><ele>3.0</ele><time>2026-05-02T13:38:17.479Z</time></trkpt><trkpt lat="39.917312" lon="8.5051572"><ele>2.5</ele><time>2026-05-02T13:38:18.481Z</time></trkpt><trkpt lat="39.9174338" lon="8.5054166"><ele>2.0</ele><time>2026-05-02T13:38:19.48Z</time></trkpt><trkpt lat="39.91754" lon="8.505689"><ele>2.333333333333333</ele><time>2026-05-02T13:38:20.479Z</time></trkpt><trkpt lat="39.9176296" lon="8.5059566"><ele>2.6666666666666665</ele><time>2026-05-02T13:38:21.479Z</time></trkpt><trkpt lat="39.917705" lon="8.5062078"><ele>3.0</ele><time>2026-05-02T13:38:22.479Z</time></trkpt><trkpt lat="39.9177703" lon="8.5064568"><ele>3.0</ele><time>2026-05-02T13:38:23.479Z</time></trkpt><trkpt lat="39.9178245" lon="8.506689"><ele>3.0</ele><time>2026-05-02T13:38:24.479Z</time></trkpt><trkpt lat="39.9178704" lon="8.5069015"><ele>3.0</ele><time>2026-05-02T13:38:25.48Z</time></trkpt><trkpt lat="39.9179186" lon="8.5071039"><ele>2.6666666666666665</ele><time>2026-05-02T13:38:26.48Z</time></trkpt><trkpt lat="39.9179653" lon="8.5073163"><ele>2.333333333333333</ele><time>2026-05-02T13:38:27.48Z</time></trkpt><trkpt lat="39.9180114" lon="8.5075362"><ele>2.0</ele><time>2026-05-02T13:38:28.48Z</time></trkpt><trkpt lat="39.9180631" lon="8.5077631"><ele>1.6666666666666665</ele><time>2026-05-02T13:38:29.479Z</time></trkpt><trkpt lat="39.9181156" lon="8.5079993"><ele>1.3333333333333333</ele><time>2026-05-02T13:38:30.48Z</time></trkpt><trkpt lat="39.9181691" lon="8.5082432"><ele>1.0</ele><time>2026-05-02T13:38:31.481Z</time></trkpt><trkpt lat="39.9182244" lon="8.5084908"><ele>0.6666666666666666</ele><time>2026-05-02T13:38:32.48Z</time></trkpt><trkpt lat="39.9182784" lon="8.5087452"><ele>0.3333333333333333</ele><time>2026-05-02T13:38:33.481Z</time></trkpt><trkpt lat="39.9183182" lon="8.5090126"><ele>0.0</ele><time>2026-05-02T13:38:34.48Z</time></trkpt><trkpt lat="39.9183457" lon="8.5092886"><ele>0.0</ele><time>2026-05-02T13:38:35.48Z</time></trkpt><trkpt lat="39.9183683" lon="8.509568"><ele>0.0</ele><time>2026-05-02T13:38:36.481Z</time></trkpt><trkpt lat="39.9183909" lon="8.5098482"><ele>0.0</ele><time>2026-05-02T13:38:37.48Z</time></trkpt><trkpt lat="39.9184166" lon="8.5101255"><ele>0.0</ele><time>2026-05-02T13:38:38.479Z</time></trkpt><trkpt lat="39.9184448" lon="8.5104046"><ele>0.0</ele><time>2026-05-02T13:38:39.48Z</time></trkpt><trkpt lat="39.9184744" lon="8.5106828"><ele>0.0</ele><time>2026-05-02T13:38:40.481Z</time></trkpt><trkpt lat="39.9185047" lon="8.5109613"><ele>0.0</ele><time>2026-05-02T13:38:41.48Z</time></trkpt><trkpt lat="39.9185342" lon="8.5112346"><ele>0.0</ele><time>2026-05-02T13:38:42.479Z</time></trkpt><trkpt lat="39.9185614" lon="8.5114993"><ele>0.0</ele><time>2026-05-02T13:38:43.48Z</time></trkpt><trkpt lat="39.9185895" lon="8.5117586"><ele>0.3333333333333333</ele><time>2026-05-02T13:38:44.479Z</time></trkpt><trkpt lat="39.9186177" lon="8.5120067"><ele>0.6666666666666666</ele><time>2026-05-02T13:38:45.48Z</time></trkpt><trkpt lat="39.9186464" lon="8.5122576"><ele>1.0</ele><time>2026-05-02T13:38:46.479Z</time></trkpt><trkpt lat="39.9186711" lon="8.5125117"><ele>1.0</ele><time>2026-05-02T13:38:47.48Z</time></trkpt><trkpt lat="39.9186962" lon="8.5127661"><ele>1.0</ele><time>2026-05-02T13:38:48.479Z</time></trkpt><trkpt lat="39.9187201" lon="8.5130175"><ele>1.0</ele><time>2026-05-02T13:38:49.481Z</time></trkpt><trkpt lat="39.9187445" lon="8.5132626"><ele>1.3333333333333333</ele><time>2026-05-02T13:38:50.481Z</time></trkpt><trkpt lat="39.9187691" lon="8.5134999"><ele>1.6666666666666665</ele><time>2026-05-02T13:38:51.481Z</time></trkpt><trkpt lat="39.9187944" lon="8.5137334"><ele>2.0</ele><time>2026-05-02T13:38:52.479Z</time></trkpt><trkpt lat="39.9188174" lon="8.51396"><ele>2.0</ele><time>2026-05-02T13:38:53.481Z</time></trkpt><trkpt lat="39.9188291" lon="8.5141879"><ele>2.0</ele><time>2026-05-02T13:38:54.481Z</time></trkpt><trkpt lat="39.9188105" lon="8.5144252"><ele>2.0</ele><time>2026-05-02T13:38:55.48Z</time></trkpt><trkpt lat="39.9187615" lon="8.5146574"><ele>2.0</ele><time>2026-05-02T13:38:56.479Z</time></trkpt><trkpt lat="39.9186964" lon="8.5148794"><ele>2.0</ele><time>2026-05-02T13:38:57.479Z</time></trkpt><trkpt lat="39.9186228" lon="8.515092"><ele>2.0</ele><time>2026-05-02T13:38:58.479Z</time></trkpt><trkpt lat="39.9185519" lon="8.5153016"><ele>2.0</ele><time>2026-05-02T13:38:59.479Z</time></trkpt><trkpt lat="39.9184859" lon="8.515506"><ele>2.0</ele><time>2026-05-02T13:39:00.48Z</time></trkpt><trkpt lat="39.9184226" lon="8.5157082"><ele>2.0</ele><time>2026-05-02T13:39:01.481Z</time></trkpt><trkpt lat="39.9183582" lon="8.5159073"><ele>2.0</ele><time>2026-05-02T13:39:02.481Z</time></trkpt><trkpt lat="39.9182916" lon="8.5161078"><ele>2.0</ele><time>2026-05-02T13:39:03.48Z</time></trkpt><trkpt lat="39.9182272" lon="8.5163111"><ele>2.0</ele><time>2026-05-02T13:39:04.479Z</time></trkpt><trkpt lat="39.9181631" lon="8.5165112"><ele>2.0</ele><time>2026-05-02T13:39:05.479Z</time></trkpt><trkpt lat="39.9181003" lon="8.5167058"><ele>2.0</ele><time>2026-05-02T13:39:06.479Z</time></trkpt><trkpt lat="39.9180395" lon="8.5169007"><ele>2.0</ele><time>2026-05-02T13:39:07.48Z</time></trkpt><trkpt lat="39.9179718" lon="8.5171054"><ele>2.0</ele><time>2026-05-02T13:39:08.481Z</time></trkpt><trkpt lat="39.9179201" lon="8.5173268"><ele>2.0</ele><time>2026-05-02T13:39:09.48Z</time></trkpt><trkpt lat="39.9179041" lon="8.5175665"><ele>2.0</ele><time>2026-05-02T13:39:10.481Z</time></trkpt><trkpt lat="39.9179107" lon="8.517812"><ele>1.3333333333333333</ele><time>2026-05-02T13:39:11.481Z</time></trkpt><trkpt lat="39.9179412" lon="8.5180656"><ele>0.6666666666666666</ele><time>2026-05-02T13:39:12.48Z</time></trkpt><trkpt lat="39.9179937" lon="8.5183207"><ele>0.0</ele><time>2026-05-02T13:39:13.479Z</time></trkpt><trkpt lat="39.918068" lon="8.5185679"><ele>0.3333333333333333</ele><time>2026-05-02T13:39:14.48Z</time></trkpt><trkpt lat="39.9181594" lon="8.5188069"><ele>0.6666666666666666</ele><time>2026-05-02T13:39:15.48Z</time></trkpt><trkpt lat="39.9182484" lon="8.5190429"><ele>1.0</ele><time>2026-05-02T13:39:16.48Z</time></trkpt><trkpt lat="39.9183322" lon="8.5192738"><ele>0.6666666666666666</ele><time>2026-05-02T13:39:17.48Z</time></trkpt><trkpt lat="39.9184107" lon="8.5194837"><ele>0.3333333333333333</ele><time>2026-05-02T13:39:18.48Z</time></trkpt><trkpt lat="39.9184822" lon="8.5196764"><ele>0.0</ele><time>2026-05-02T13:39:19.48Z</time></trkpt><trkpt lat="39.9185453" lon="8.5198561"><ele>-0.25</ele><time>2026-05-02T13:39:20.48Z</time></trkpt><trkpt lat="39.9185962" lon="8.5200273"><ele>-0.5</ele><time>2026-05-02T13:39:21.479Z</time></trkpt><trkpt lat="39.9186344" lon="8.5201912"><ele>-0.75</ele><time>2026-05-02T13:39:22.479Z</time></trkpt><trkpt lat="39.9186605" lon="8.5203424"><ele>-1.0</ele><time>2026-05-02T13:39:23.48Z</time></trkpt><trkpt lat="39.9186713" lon="8.5204888"><ele>-0.5</ele><time>2026-05-02T13:39:24.481Z</time></trkpt><trkpt lat="39.9186963" lon="8.5206348"><ele>0.0</ele><time>2026-05-02T13:39:25.479Z</time></trkpt><trkpt lat="39.9187527" lon="8.5207784"><ele>0.5</ele><time>2026-05-02T13:39:26.479Z</time></trkpt><trkpt lat="39.9188235" lon="8.5209242"><ele>1.0</ele><time>2026-05-02T13:39:27.479Z</time></trkpt><trkpt lat="39.9189023" lon="8.5210761"><ele>1.3333333333333333</ele><time>2026-05-02T13:39:28.48Z</time></trkpt><trkpt lat="39.9189694" lon="8.5212457"><ele>1.6666666666666665</ele><time>2026-05-02T13:39:29.48Z</time></trkpt><trkpt lat="39.9190202" lon="8.5214352"><ele>2.0</ele><time>2026-05-02T13:39:30.48Z</time></trkpt><trkpt lat="39.9190534" lon="8.5216456"><ele>2.0</ele><time>2026-05-02T13:39:31.48Z</time></trkpt><trkpt lat="39.91907" lon="8.5218709"><ele>2.0</ele><time>2026-05-02T13:39:32.48Z</time></trkpt><trkpt lat="39.9190741" lon="8.5221098"><ele>2.0</ele><time>2026-05-02T13:39:33.481Z</time></trkpt><trkpt lat="39.919061" lon="8.52236"><ele>1.3333333333333333</ele><time>2026-05-02T13:39:34.481Z</time></trkpt><trkpt lat="39.9190298" lon="8.5226129"><ele>0.6666666666666666</ele><time>2026-05-02T13:39:35.479Z</time></trkpt><trkpt lat="39.9189823" lon="8.5228715"><ele>0.0</ele><time>2026-05-02T13:39:36.479Z</time></trkpt><trkpt lat="39.9189292" lon="8.5231349"><ele>0.0</ele><time>2026-05-02T13:39:37.48Z</time></trkpt><trkpt lat="39.9188748" lon="8.5233978"><ele>0.0</ele><time>2026-05-02T13:39:38.48Z</time></trkpt><trkpt lat="39.9188234" lon="8.5236632"><ele>0.0</ele><time>2026-05-02T13:39:39.479Z</time></trkpt><trkpt lat="39.9187731" lon="8.5239286"><ele>0.0</ele><time>2026-05-02T13:39:40.48Z</time></trkpt><trkpt lat="39.9187204" lon="8.5241936"><ele>0.0</ele><time>2026-05-02T13:39:41.48Z</time></trkpt><trkpt lat="39.9186674" lon="8.5244586"><ele>0.0</ele><time>2026-05-02T13:39:42.481Z</time></trkpt><trkpt lat="39.9186165" lon="8.5247258"><ele>0.0</ele><time>2026-05-02T13:39:43.479Z</time></trkpt><trkpt lat="39.9185681" lon="8.5249941"><ele>0.0</ele><time>2026-05-02T13:39:44.479Z</time></trkpt><trkpt lat="39.9185191" lon="8.5252605"><ele>0.0</ele><time>2026-05-02T13:39:45.481Z</time></trkpt><trkpt lat="39.9184673" lon="8.5255295"><ele>0.0</ele><time>2026-05-02T13:39:46.481Z</time></trkpt><trkpt lat="39.9184133" lon="8.5257946"><ele>0.0</ele><time>2026-05-02T13:39:47.48Z</time></trkpt><trkpt lat="39.9183571" lon="8.5260609"><ele>0.0</ele><time>2026-05-02T13:39:48.48Z</time></trkpt><trkpt lat="39.9183021" lon="8.5263283"><ele>0.0</ele><time>2026-05-02T13:39:49.48Z</time></trkpt><trkpt lat="39.9182496" lon="8.5265998"><ele>0.0</ele><time>2026-05-02T13:39:50.48Z</time></trkpt><trkpt lat="39.918199" lon="8.5268723"><ele>0.0</ele><time>2026-05-02T13:39:51.48Z</time></trkpt><trkpt lat="39.918149" lon="8.5271487"><ele>0.0</ele><time>2026-05-02T13:39:52.481Z</time></trkpt><trkpt lat="39.9180998" lon="8.5274252"><ele>0.0</ele><time>2026-05-02T13:39:53.479Z</time></trkpt><trkpt lat="39.9180493" lon="8.5277021"><ele>0.0</ele><time>2026-05-02T13:39:54.479Z</time></trkpt><trkpt lat="39.9180027" lon="8.5279788"><ele>0.6666666666666666</ele><time>2026-05-02T13:39:55.479Z</time></trkpt><trkpt lat="39.9179595" lon="8.5282574"><ele>1.3333333333333333</ele><time>2026-05-02T13:39:56.479Z</time></trkpt><trkpt lat="39.9179274" lon="8.5285427"><ele>2.0</ele><time>2026-05-02T13:39:57.48Z</time></trkpt><trkpt lat="39.9179051" lon="8.5288303"><ele>2.0</ele><time>2026-05-02T13:39:58.48Z</time></trkpt><trkpt lat="39.9178944" lon="8.5291191"><ele>2.0</ele><time>2026-05-02T13:39:59.479Z</time></trkpt><trkpt lat="39.9178973" lon="8.5294072"><ele>2.0</ele><time>2026-05-02T13:40:00.479Z</time></trkpt><trkpt lat="39.91791" lon="8.5296982"><ele>1.5</ele><time>2026-05-02T13:40:01.481Z</time></trkpt><trkpt lat="39.9179397" lon="8.5299895"><ele>1.0</ele><time>2026-05-02T13:40:02.481Z</time></trkpt><trkpt lat="39.9179779" lon="8.5302782"><ele>1.0</ele><time>2026-05-02T13:40:03.479Z</time></trkpt><trkpt lat="39.9180213" lon="8.5305628"><ele>1.0</ele><time>2026-05-02T13:40:04.479Z</time></trkpt><trkpt lat="39.9180689" lon="8.5308414"><ele>1.0</ele><time>2026-05-02T13:40:05.48Z</time></trkpt><trkpt lat="39.9181233" lon="8.531113"><ele>1.3333333333333333</ele><time>2026-05-02T13:40:06.48Z</time></trkpt><trkpt lat="39.9181771" lon="8.5313799"><ele>1.6666666666666665</ele><time>2026-05-02T13:40:07.48Z</time></trkpt><trkpt lat="39.9182198" lon="8.5316494"><ele>2.0</ele><time>2026-05-02T13:40:08.479Z</time></trkpt><trkpt lat="39.9182618" lon="8.5319135"><ele>2.0</ele><time>2026-05-02T13:40:09.479Z</time></trkpt><trkpt lat="39.9183082" lon="8.5321816"><ele>2.0</ele><time>2026-05-02T13:40:10.48Z</time></trkpt><trkpt lat="39.9183597" lon="8.5324521"><ele>2.0</ele><time>2026-05-02T13:40:11.479Z</time></trkpt><trkpt lat="39.9184111" lon="8.5327239"><ele>1.6666666666666665</ele><time>2026-05-02T13:40:12.479Z</time></trkpt><trkpt lat="39.9184613" lon="8.5329939"><ele>1.3333333333333333</ele><time>2026-05-02T13:40:13.48Z</time></trkpt><trkpt lat="39.9185124" lon="8.5332639"><ele>1.0</ele><time>2026-05-02T13:40:14.48Z</time></trkpt><trkpt lat="39.9185629" lon="8.5335363"><ele>1.0</ele><time>2026-05-02T13:40:15.48Z</time></trkpt><trkpt lat="39.9186117" lon="8.5338102"><ele>1.0</ele><time>2026-05-02T13:40:16.48Z</time></trkpt><trkpt lat="39.9186619" lon="8.5340856"><ele>1.0</ele><time>2026-05-02T13:40:17.481Z</time></trkpt><trkpt lat="39.9187137" lon="8.5343642"><ele>1.3333333333333333</ele><time>2026-05-02T13:40:18.48Z</time></trkpt><trkpt lat="39.9187668" lon="8.534643"><ele>1.6666666666666665</ele><time>2026-05-02T13:40:19.479Z</time></trkpt><trkpt lat="39.91882" lon="8.5349208"><ele>2.0</ele><time>2026-05-02T13:40:20.48Z</time></trkpt><trkpt lat="39.918873" lon="8.5352012"><ele>1.6666666666666665</ele><time>2026-05-02T13:40:21.479Z</time></trkpt><trkpt lat="39.9189252" lon="8.535481"><ele>1.3333333333333333</ele><time>2026-05-02T13:40:22.48Z</time></trkpt><trkpt lat="39.9189789" lon="8.5357588"><ele>1.0</ele><time>2026-05-02T13:40:23.481Z</time></trkpt><trkpt lat="39.9190313" lon="8.5360302"><ele>1.0</ele><time>2026-05-02T13:40:24.48Z</time></trkpt><trkpt lat="39.9190803" lon="8.5362912"><ele>1.0</ele><time>2026-05-02T13:40:25.479Z</time></trkpt><trkpt lat="39.9191213" lon="8.5365229"><ele>1.0</ele><time>2026-05-02T13:40:26.481Z</time></trkpt><trkpt lat="39.9191504" lon="8.5367362"><ele>1.0</ele><time>2026-05-02T13:40:27.48Z</time></trkpt><trkpt lat="39.9191591" lon="8.5369289"><ele>1.0</ele><time>2026-05-02T13:40:28.481Z</time></trkpt><trkpt lat="39.9191373" lon="8.5370972"><ele>1.0</ele><time>2026-05-02T13:40:29.48Z</time></trkpt><trkpt lat="39.9190904" lon="8.537246"><ele>1.0</ele><time>2026-05-02T13:40:30.48Z</time></trkpt><trkpt lat="39.9190246" lon="8.5373797"><ele>1.25</ele><time>2026-05-02T13:40:31.48Z</time></trkpt><trkpt lat="39.9189737" lon="8.5375328"><ele>1.5</ele><time>2026-05-02T13:40:32.481Z</time></trkpt><trkpt lat="39.9189262" lon="8.5376943"><ele>1.75</ele><time>2026-05-02T13:40:33.479Z</time></trkpt><trkpt lat="39.9188549" lon="8.5378581"><ele>2.0</ele><time>2026-05-02T13:40:34.48Z</time></trkpt><trkpt lat="39.9187597" lon="8.5380195"><ele>2.0</ele><time>2026-05-02T13:40:35.48Z</time></trkpt><trkpt lat="39.9186432" lon="8.5381744"><ele>2.0</ele><time>2026-05-02T13:40:36.48Z</time></trkpt><trkpt lat="39.9185115" lon="8.5383206"><ele>2.0</ele><time>2026-05-02T13:40:37.479Z</time></trkpt><trkpt lat="39.9183663" lon="8.5384598"><ele>1.6666666666666665</ele><time>2026-05-02T13:40:38.48Z</time></trkpt><trkpt lat="39.9182238" lon="8.5385999"><ele>1.3333333333333333</ele><time>2026-05-02T13:40:39.48Z</time></trkpt><trkpt lat="39.9180851" lon="8.5387436"><ele>1.0</ele><time>2026-05-02T13:40:40.479Z</time></trkpt><trkpt lat="39.9179519" lon="8.5388854"><ele>1.6666666666666665</ele><time>2026-05-02T13:40:41.481Z</time></trkpt><trkpt lat="39.9178163" lon="8.53903"><ele>2.3333333333333335</ele><time>2026-05-02T13:40:42.48Z</time></trkpt><trkpt lat="39.917679" lon="8.5391757"><ele>3.0</ele><time>2026-05-02T13:40:43.48Z</time></trkpt><trkpt lat="39.9175382" lon="8.5393249"><ele>3.0</ele><time>2026-05-02T13:40:44.48Z</time></trkpt><trkpt lat="39.9173926" lon="8.5394786"><ele>3.0</ele><time>2026-05-02T13:40:45.479Z</time></trkpt><trkpt lat="39.9172439" lon="8.5396342"><ele>3.0</ele><time>2026-05-02T13:40:46.48Z</time></trkpt><trkpt lat="39.9170929" lon="8.539789"><ele>3.0</ele><time>2026-05-02T13:40:47.481Z</time></trkpt><trkpt lat="39.9169344" lon="8.5399382"><ele>3.0</ele><time>2026-05-02T13:40:48.481Z</time></trkpt><trkpt lat="39.9167635" lon="8.5400722"><ele>3.0</ele><time>2026-05-02T13:40:49.48Z</time></trkpt><trkpt lat="39.916584" lon="8.5401857"><ele>3.0</ele><time>2026-05-02T13:40:50.48Z</time></trkpt><trkpt lat="39.9164024" lon="8.5402856"><ele>3.0</ele><time>2026-05-02T13:40:51.481Z</time></trkpt><trkpt lat="39.9162208" lon="8.5403806"><ele>3.0</ele><time>2026-05-02T13:40:52.479Z</time></trkpt><trkpt lat="39.9160416" lon="8.5404786"><ele>3.333333333333333</ele><time>2026-05-02T13:40:53.48Z</time></trkpt><trkpt lat="39.9158646" lon="8.5405824"><ele>3.6666666666666665</ele><time>2026-05-02T13:40:54.479Z</time></trkpt><trkpt lat="39.9156907" lon="8.5406917"><ele>4.0</ele><time>2026-05-02T13:40:55.48Z</time></trkpt><trkpt lat="39.9155257" lon="8.5408177"><ele>4.0</ele><time>2026-05-02T13:40:56.479Z</time></trkpt><trkpt lat="39.9153741" lon="8.5409651"><ele>4.0</ele><time>2026-05-02T13:40:57.479Z</time></trkpt><trkpt lat="39.9152438" lon="8.5411194"><ele>4.0</ele><time>2026-05-02T13:40:58.48Z</time></trkpt><trkpt lat="39.9151355" lon="8.5412755"><ele>4.5</ele><time>2026-05-02T13:40:59.478Z</time></trkpt><trkpt lat="39.9150431" lon="8.5414258"><ele>5.0</ele><time>2026-05-02T13:41:00.479Z</time></trkpt><trkpt lat="39.9149603" lon="8.541557"><ele>5.5</ele><time>2026-05-02T13:41:01.479Z</time></trkpt><trkpt lat="39.9148846" lon="8.5416654"><ele>6.0</ele><time>2026-05-02T13:41:02.478Z</time></trkpt><trkpt lat="39.9148119" lon="8.5417621"><ele>6.0</ele><time>2026-05-02T13:41:03.479Z</time></trkpt><trkpt lat="39.9147437" lon="8.5418422"><ele>6.0</ele><time>2026-05-02T13:41:04.478Z</time></trkpt><trkpt lat="39.9146682" lon="8.5418922"><ele>6.0</ele><time>2026-05-02T13:41:05.478Z</time></trkpt><trkpt lat="39.9145838" lon="8.5419017"><ele>6.0</ele><time>2026-05-02T13:41:06.479Z</time></trkpt><trkpt lat="39.914494" lon="8.5418719"><ele>6.0</ele><time>2026-05-02T13:41:07.478Z</time></trkpt><trkpt lat="39.9143975" lon="8.5418356"><ele>6.0</ele><time>2026-05-02T13:41:08.479Z</time></trkpt><trkpt lat="39.9143054" lon="8.5418309"><ele>6.0</ele><time>2026-05-02T13:41:09.478Z</time></trkpt><trkpt lat="39.9142159" lon="8.5418507"><ele>6.0</ele><time>2026-05-02T13:41:10.479Z</time></trkpt><trkpt lat="39.9141297" lon="8.5418959"><ele>6.0</ele><time>2026-05-02T13:41:11.479Z</time></trkpt><trkpt lat="39.9140507" lon="8.5419586"><ele>6.0</ele><time>2026-05-02T13:41:12.479Z</time></trkpt><trkpt lat="39.9139834" lon="8.5420575"><ele>5.6</ele><time>2026-05-02T13:41:13.479Z</time></trkpt><trkpt lat="39.9139312" lon="8.5421809"><ele>5.199999999999999</ele><time>2026-05-02T13:41:14.479Z</time></trkpt><trkpt lat="39.9138902" lon="8.5423058"><ele>4.800000000000001</ele><time>2026-05-02T13:41:15.48Z</time></trkpt><trkpt lat="39.9138513" lon="8.5424142"><ele>4.4</ele><time>2026-05-02T13:41:16.479Z</time></trkpt><trkpt lat="39.9138073" lon="8.5425098"><ele>4.0</ele><time>2026-05-02T13:41:17.479Z</time></trkpt><trkpt lat="39.9137598" lon="8.5425958"><ele>3.9999999999999996</ele><time>2026-05-02T13:41:18.478Z</time></trkpt><trkpt lat="39.9137112" lon="8.5426728"><ele>4.0</ele><time>2026-05-02T13:41:19.478Z</time></trkpt><trkpt lat="39.9136616" lon="8.5427433"><ele>4.0</ele><time>2026-05-02T13:41:20.478Z</time></trkpt><trkpt lat="39.9136126" lon="8.5428112"><ele>4.0</ele><time>2026-05-02T13:41:21.479Z</time></trkpt><trkpt lat="39.9135653" lon="8.5428746"><ele>3.9999999999999996</ele><time>2026-05-02T13:41:22.478Z</time></trkpt><trkpt lat="39.9134788" lon="8.5429836"><ele>4.0</ele><time>2026-05-02T13:41:24.478Z</time></trkpt><trkpt lat="39.9134105" lon="8.5430769"><ele>3.8000000000000003</ele><time>2026-05-02T13:41:26.478Z</time></trkpt><trkpt lat="39.9133512" lon="8.5431556"><ele>3.6000000000000005</ele><time>2026-05-02T13:41:28.479Z</time></trkpt><trkpt lat="39.9132945" lon="8.5432194"><ele>3.4</ele><time>2026-05-02T13:41:31.479Z</time></trkpt><trkpt lat="39.9133801" lon="8.5432166"><ele>3.2</ele><time>2026-05-02T13:41:41.479Z</time></trkpt><trkpt lat="39.9134764" lon="8.5430849"><ele>3.0</ele><time>2026-05-02T13:41:43.479Z</time></trkpt><trkpt lat="39.9135459" lon="8.5430017"><ele>3.0</ele><time>2026-05-02T13:41:44.48Z</time></trkpt><trkpt lat="39.9136205" lon="8.5429143"><ele>3.0</ele><time>2026-05-02T13:41:45.48Z</time></trkpt><trkpt lat="39.9137" lon="8.5428338"><ele>3.0</ele><time>2026-05-02T13:41:46.479Z</time></trkpt><trkpt lat="39.9137773" lon="8.5427578"><ele>3.0</ele><time>2026-05-02T13:41:47.478Z</time></trkpt><trkpt lat="39.9138609" lon="8.5427015"><ele>3.0</ele><time>2026-05-02T13:41:48.478Z</time></trkpt><trkpt lat="39.9139558" lon="8.5426832"><ele>3.2</ele><time>2026-05-02T13:41:49.479Z</time></trkpt><trkpt lat="39.9140546" lon="8.5426976"><ele>3.4</ele><time>2026-05-02T13:41:50.48Z</time></trkpt><trkpt lat="39.9141427" lon="8.5427438"><ele>3.6000000000000005</ele><time>2026-05-02T13:41:51.479Z</time></trkpt><trkpt lat="39.914231" lon="8.5427911"><ele>3.8000000000000003</ele><time>2026-05-02T13:41:52.479Z</time></trkpt><trkpt lat="39.9143246" lon="8.542804"><ele>4.0</ele><time>2026-05-02T13:41:53.478Z</time></trkpt><trkpt lat="39.9144151" lon="8.5427876"><ele>4.333333333333333</ele><time>2026-05-02T13:41:54.479Z</time></trkpt><trkpt lat="39.9144978" lon="8.5427462"><ele>4.666666666666666</ele><time>2026-05-02T13:41:55.479Z</time></trkpt><trkpt lat="39.9145684" lon="8.5426822"><ele>5.0</ele><time>2026-05-02T13:41:56.48Z</time></trkpt><trkpt lat="39.9146214" lon="8.5425978"><ele>5.333333333333333</ele><time>2026-05-02T13:41:57.48Z</time></trkpt><trkpt lat="39.9146611" lon="8.5424998"><ele>5.666666666666667</ele><time>2026-05-02T13:41:58.48Z</time></trkpt><trkpt lat="39.9146851" lon="8.5423854"><ele>6.0</ele><time>2026-05-02T13:41:59.478Z</time></trkpt><trkpt lat="39.9146903" lon="8.5422672"><ele>6.0</ele><time>2026-05-02T13:42:00.479Z</time></trkpt><trkpt lat="39.914668" lon="8.5421473"><ele>6.0</ele><time>2026-05-02T13:42:01.479Z</time></trkpt><trkpt lat="39.9146197" lon="8.542032"><ele>6.0</ele><time>2026-05-02T13:42:02.479Z</time></trkpt><trkpt lat="39.9145663" lon="8.5419229"><ele>6.0</ele><time>2026-05-02T13:42:03.479Z</time></trkpt><trkpt lat="39.9145261" lon="8.5418057"><ele>6.0</ele><time>2026-05-02T13:42:04.48Z</time></trkpt><trkpt lat="39.9145173" lon="8.5416722"><ele>6.0</ele><time>2026-05-02T13:42:05.48Z</time></trkpt><trkpt lat="39.914544" lon="8.5415384"><ele>6.0</ele><time>2026-05-02T13:42:06.479Z</time></trkpt><trkpt lat="39.9145942" lon="8.5414353"><ele>6.0</ele><time>2026-05-02T13:42:07.479Z</time></trkpt><trkpt lat="39.9146334" lon="8.5413415"><ele>6.0</ele><time>2026-05-02T13:42:08.479Z</time></trkpt><trkpt lat="39.9146428" lon="8.5412507"><ele>6.0</ele><time>2026-05-02T13:42:09.479Z</time></trkpt><trkpt lat="39.9146367" lon="8.5411259"><ele>6.0</ele><time>2026-05-02T13:42:11.479Z</time></trkpt><trkpt lat="39.9146069" lon="8.541043"><ele>5.857142857142857</ele><time>2026-05-02T13:42:13.48Z</time></trkpt><trkpt lat="39.9145722" lon="8.540972"><ele>5.714285714285714</ele><time>2026-05-02T13:42:15.478Z</time></trkpt><trkpt lat="39.9145122" lon="8.5409277"><ele>5.571428571428571</ele><time>2026-05-02T13:42:17.478Z</time></trkpt><trkpt lat="39.9144341" lon="8.5409361"><ele>5.428571428571429</ele><time>2026-05-02T13:42:20.479Z</time></trkpt><trkpt lat="39.9143648" lon="8.5409693"><ele>5.285714285714286</ele><time>2026-05-02T13:42:24.478Z</time></trkpt><trkpt lat="39.9142952" lon="8.541034"><ele>5.142857142857142</ele><time>2026-05-02T13:43:15.48Z</time></trkpt><trkpt lat="39.9143405" lon="8.5410992"><ele>5.0</ele><time>2026-05-02T13:43:17.48Z</time></trkpt><trkpt lat="39.9144311" lon="8.5410864"><ele>5.0</ele><time>2026-05-02T13:43:19.478Z</time></trkpt><trkpt lat="39.9144886" lon="8.5410357"><ele>5.0</ele><time>2026-05-02T13:43:20.479Z</time></trkpt><trkpt lat="39.914567" lon="8.5410318"><ele>5.0</ele><time>2026-05-02T13:43:22.479Z</time></trkpt><trkpt lat="39.914621" lon="8.5411189"><ele>5.0</ele><time>2026-05-02T13:43:24.478Z</time></trkpt><trkpt lat="39.9145899" lon="8.5412993"><ele>5.0</ele><time>2026-05-02T13:43:26.479Z</time></trkpt><trkpt lat="39.9145477" lon="8.5413951"><ele>5.2</ele><time>2026-05-02T13:43:27.48Z</time></trkpt><trkpt lat="39.9145068" lon="8.5415002"><ele>5.4</ele><time>2026-05-02T13:43:28.479Z</time></trkpt><trkpt lat="39.9144851" lon="8.5415934"><ele>5.6</ele><time>2026-05-02T13:43:29.48Z</time></trkpt><trkpt lat="39.914435" lon="8.5416953"><ele>5.8</ele><time>2026-05-02T13:43:31.479Z</time></trkpt><trkpt lat="39.9143653" lon="8.5417412"><ele>6.0</ele><time>2026-05-02T13:43:34.479Z</time></trkpt><trkpt lat="39.914244" lon="8.5417561"><ele>5.6</ele><time>2026-05-02T13:43:36.478Z</time></trkpt><trkpt lat="39.9141647" lon="8.5418121"><ele>5.199999999999999</ele><time>2026-05-02T13:43:37.479Z</time></trkpt><trkpt lat="39.9140881" lon="8.5419058"><ele>4.800000000000001</ele><time>2026-05-02T13:43:38.478Z</time></trkpt><trkpt lat="39.9140228" lon="8.5420209"><ele>4.4</ele><time>2026-05-02T13:43:39.48Z</time></trkpt><trkpt lat="39.9139468" lon="8.5421763"><ele>4.0</ele><time>2026-05-02T13:43:40.479Z</time></trkpt><trkpt lat="39.9138552" lon="8.5423783"><ele>4.0</ele><time>2026-05-02T13:43:41.479Z</time></trkpt><trkpt lat="39.9137353" lon="8.5426041"><ele>4.0</ele><time>2026-05-02T13:43:42.478Z</time></trkpt><trkpt lat="39.9135876" lon="8.542828"><ele>4.0</ele><time>2026-05-02T13:43:43.479Z</time></trkpt><trkpt lat="39.9134091" lon="8.5430696"><ele>2.5</ele><time>2026-05-02T13:43:44.478Z</time></trkpt><trkpt lat="39.9132227" lon="8.543328"><ele>1.0</ele><time>2026-05-02T13:43:45.478Z</time></trkpt><trkpt lat="39.9130218" lon="8.5436004"><ele>1.5</ele><time>2026-05-02T13:43:46.479Z</time></trkpt><trkpt lat="39.912817" lon="8.543894"><ele>2.0</ele><time>2026-05-02T13:43:47.48Z</time></trkpt><trkpt lat="39.9126223" lon="8.5442111"><ele>2.0</ele><time>2026-05-02T13:43:48.478Z</time></trkpt><trkpt lat="39.9124481" lon="8.5445549"><ele>2.0</ele><time>2026-05-02T13:43:49.48Z</time></trkpt><trkpt lat="39.9123137" lon="8.5448827"><ele>2.0</ele><time>2026-05-02T13:43:50.478Z</time></trkpt><trkpt lat="39.9122022" lon="8.5452193"><ele>2.0</ele><time>2026-05-02T13:43:51.478Z</time></trkpt><trkpt lat="39.912105" lon="8.5455496"><ele>2.0</ele><time>2026-05-02T13:43:52.478Z</time></trkpt><trkpt lat="39.9120347" lon="8.5458827"><ele>2.0</ele><time>2026-05-02T13:43:53.479Z</time></trkpt><trkpt lat="39.9119841" lon="8.5462156"><ele>2.5</ele><time>2026-05-02T13:43:54.479Z</time></trkpt><trkpt lat="39.9119517" lon="8.5465444"><ele>3.0</ele><time>2026-05-02T13:43:55.478Z</time></trkpt><trkpt lat="39.9119236" lon="8.5468709"><ele>3.0</ele><time>2026-05-02T13:43:56.478Z</time></trkpt><trkpt lat="39.9118914" lon="8.5471951"><ele>3.0</ele><time>2026-05-02T13:43:57.48Z</time></trkpt><trkpt lat="39.9118583" lon="8.5475216"><ele>3.0</ele><time>2026-05-02T13:43:58.48Z</time></trkpt><trkpt lat="39.9118236" lon="8.5478479"><ele>3.0</ele><time>2026-05-02T13:43:59.48Z</time></trkpt><trkpt lat="39.9117914" lon="8.5481762"><ele>3.0</ele><time>2026-05-02T13:44:00.479Z</time></trkpt><trkpt lat="39.9117628" lon="8.548505"><ele>3.0</ele><time>2026-05-02T13:44:01.478Z</time></trkpt><trkpt lat="39.9117366" lon="8.5488343"><ele>3.0</ele><time>2026-05-02T13:44:02.479Z</time></trkpt><trkpt lat="39.9117058" lon="8.5491623"><ele>3.0</ele><time>2026-05-02T13:44:03.479Z</time></trkpt><trkpt lat="39.9116702" lon="8.5494886"><ele>3.0</ele><time>2026-05-02T13:44:04.478Z</time></trkpt><trkpt lat="39.9116355" lon="8.5498106"><ele>3.0</ele><time>2026-05-02T13:44:05.48Z</time></trkpt><trkpt lat="39.9116077" lon="8.5501347"><ele>3.0</ele><time>2026-05-02T13:44:06.479Z</time></trkpt><trkpt lat="39.9115817" lon="8.55046"><ele>3.0</ele><time>2026-05-02T13:44:07.479Z</time></trkpt><trkpt lat="39.9115529" lon="8.550784"><ele>3.0</ele><time>2026-05-02T13:44:08.479Z</time></trkpt><trkpt lat="39.9115238" lon="8.5511085"><ele>3.0</ele><time>2026-05-02T13:44:09.479Z</time></trkpt><trkpt lat="39.9114936" lon="8.5514344"><ele>3.0</ele><time>2026-05-02T13:44:10.478Z</time></trkpt><trkpt lat="39.9114612" lon="8.5517604"><ele>3.0</ele><time>2026-05-02T13:44:11.478Z</time></trkpt><trkpt lat="39.9114268" lon="8.5520888"><ele>3.0</ele><time>2026-05-02T13:44:12.478Z</time></trkpt><trkpt lat="39.9113955" lon="8.5524179"><ele>3.0</ele><time>2026-05-02T13:44:13.479Z</time></trkpt><trkpt lat="39.9113658" lon="8.5527491"><ele>2.5</ele><time>2026-05-02T13:44:14.479Z</time></trkpt><trkpt lat="39.9113344" lon="8.5530821"><ele>2.0</ele><time>2026-05-02T13:44:15.48Z</time></trkpt><trkpt lat="39.9112999" lon="8.5534173"><ele>2.0</ele><time>2026-05-02T13:44:16.479Z</time></trkpt><trkpt lat="39.9112659" lon="8.5537578"><ele>2.0</ele><time>2026-05-02T13:44:17.48Z</time></trkpt><trkpt lat="39.9112334" lon="8.554103"><ele>2.0</ele><time>2026-05-02T13:44:18.48Z</time></trkpt><trkpt lat="39.9112015" lon="8.554454"><ele>2.0</ele><time>2026-05-02T13:44:19.479Z</time></trkpt><trkpt lat="39.9111741" lon="8.5548062"><ele>2.0</ele><time>2026-05-02T13:44:20.479Z</time></trkpt><trkpt lat="39.9111452" lon="8.555142"><ele>2.0</ele><time>2026-05-02T13:44:21.48Z</time></trkpt><trkpt lat="39.9111168" lon="8.5554522"><ele>2.0</ele><time>2026-05-02T13:44:22.479Z</time></trkpt><trkpt lat="39.9110887" lon="8.5557457"><ele>2.0</ele><time>2026-05-02T13:44:23.479Z</time></trkpt><trkpt lat="39.9110583" lon="8.5560471"><ele>2.0</ele><time>2026-05-02T13:44:24.479Z</time></trkpt><trkpt lat="39.9110317" lon="8.5563511"><ele>2.0</ele><time>2026-05-02T13:44:25.48Z</time></trkpt><trkpt lat="39.9110076" lon="8.5566495"><ele>2.0</ele><time>2026-05-02T13:44:26.48Z</time></trkpt><trkpt lat="39.9109843" lon="8.5569216"><ele>2.0</ele><time>2026-05-02T13:44:27.48Z</time></trkpt><trkpt lat="39.9109597" lon="8.5571698"><ele>2.0</ele><time>2026-05-02T13:44:28.479Z</time></trkpt><trkpt lat="39.9109365" lon="8.5573759"><ele>2.2</ele><time>2026-05-02T13:44:29.478Z</time></trkpt><trkpt lat="39.9109148" lon="8.5575282"><ele>2.4000000000000004</ele><time>2026-05-02T13:44:30.479Z</time></trkpt><trkpt lat="39.9108822" lon="8.5576515"><ele>2.5999999999999996</ele><time>2026-05-02T13:44:31.479Z</time></trkpt><trkpt lat="39.9108284" lon="8.557738"><ele>2.8</ele><time>2026-05-02T13:44:32.48Z</time></trkpt><trkpt lat="39.9107555" lon="8.5577932"><ele>3.0</ele><time>2026-05-02T13:44:33.48Z</time></trkpt><trkpt lat="39.9106735" lon="8.5578122"><ele>3.2</ele><time>2026-05-02T13:44:34.479Z</time></trkpt><trkpt lat="39.9105809" lon="8.5577951"><ele>3.4</ele><time>2026-05-02T13:44:35.479Z</time></trkpt><trkpt lat="39.9104853" lon="8.5577335"><ele>3.6000000000000005</ele><time>2026-05-02T13:44:36.479Z</time></trkpt><trkpt lat="39.9104011" lon="8.557644"><ele>3.8000000000000003</ele><time>2026-05-02T13:44:37.479Z</time></trkpt><trkpt lat="39.9103259" lon="8.5575464"><ele>4.0</ele><time>2026-05-02T13:44:38.48Z</time></trkpt><trkpt lat="39.9102628" lon="8.5574624"><ele>3.9999999999999996</ele><time>2026-05-02T13:44:39.477Z</time></trkpt><trkpt lat="39.9102072" lon="8.557386"><ele>4.0</ele><time>2026-05-02T13:44:40.478Z</time></trkpt><trkpt lat="39.9101586" lon="8.5573157"><ele>4.0</ele><time>2026-05-02T13:44:41.477Z</time></trkpt><trkpt lat="39.9101139" lon="8.5572505"><ele>4.0</ele><time>2026-05-02T13:44:42.477Z</time></trkpt><trkpt lat="39.9100334" lon="8.5571355"><ele>3.9999999999999996</ele><time>2026-05-02T13:44:44.478Z</time></trkpt><trkpt lat="39.9099643" lon="8.557028"><ele>4.0</ele><time>2026-05-02T13:44:46.479Z</time></trkpt><trkpt lat="39.9098756" lon="8.5569092"><ele>3.833333333333333</ele><time>2026-05-02T13:44:48.478Z</time></trkpt><trkpt lat="39.9098221" lon="8.5568489"><ele>3.6666666666666665</ele><time>2026-05-02T13:44:49.477Z</time></trkpt><trkpt lat="39.9097638" lon="8.5567871"><ele>3.5</ele><time>2026-05-02T13:44:50.477Z</time></trkpt><trkpt lat="39.9096997" lon="8.5567255"><ele>3.333333333333333</ele><time>2026-05-02T13:44:51.478Z</time></trkpt><trkpt lat="39.9096318" lon="8.5566607"><ele>3.1666666666666665</ele><time>2026-05-02T13:44:52.478Z</time></trkpt><trkpt lat="39.9095575" lon="8.5565959"><ele>3.0</ele><time>2026-05-02T13:44:53.477Z</time></trkpt><trkpt lat="39.909473" lon="8.5565277"><ele>3.0</ele><time>2026-05-02T13:44:54.477Z</time></trkpt><trkpt lat="39.9093836" lon="8.5564543"><ele>3.0</ele><time>2026-05-02T13:44:55.477Z</time></trkpt><trkpt lat="39.90929" lon="8.5563812"><ele>3.0</ele><time>2026-05-02T13:44:56.478Z</time></trkpt><trkpt lat="39.909198" lon="8.5563112"><ele>3.0</ele><time>2026-05-02T13:44:57.479Z</time></trkpt><trkpt lat="39.909106" lon="8.5562446"><ele>3.0</ele><time>2026-05-02T13:44:58.477Z</time></trkpt><trkpt lat="39.9090177" lon="8.556178"><ele>3.0</ele><time>2026-05-02T13:44:59.478Z</time></trkpt><trkpt lat="39.9089276" lon="8.5561034"><ele>3.0</ele><time>2026-05-02T13:45:00.477Z</time></trkpt><trkpt lat="39.9088408" lon="8.5560285"><ele>3.0</ele><time>2026-05-02T13:45:01.477Z</time></trkpt><trkpt lat="39.9087502" lon="8.5559576"><ele>3.0</ele><time>2026-05-02T13:45:02.478Z</time></trkpt><trkpt lat="39.9086582" lon="8.5558884"><ele>3.0</ele><time>2026-05-02T13:45:03.477Z</time></trkpt><trkpt lat="39.9085641" lon="8.5558194"><ele>3.0</ele><time>2026-05-02T13:45:04.479Z</time></trkpt><trkpt lat="39.9084676" lon="8.5557496"><ele>3.0</ele><time>2026-05-02T13:45:05.478Z</time></trkpt><trkpt lat="39.9083726" lon="8.5556843"><ele>3.0</ele><time>2026-05-02T13:45:06.477Z</time></trkpt><trkpt lat="39.9082608" lon="8.5556272"><ele>3.0</ele><time>2026-05-02T13:45:07.478Z</time></trkpt><trkpt lat="39.9081441" lon="8.5555646"><ele>3.0</ele><time>2026-05-02T13:45:08.478Z</time></trkpt><trkpt lat="39.9080284" lon="8.5554935"><ele>3.0</ele><time>2026-05-02T13:45:09.479Z</time></trkpt><trkpt lat="39.9078943" lon="8.5554198"><ele>3.0</ele><time>2026-05-02T13:45:10.478Z</time></trkpt><trkpt lat="39.9077568" lon="8.5553474"><ele>3.0</ele><time>2026-05-02T13:45:11.477Z</time></trkpt><trkpt lat="39.9076301" lon="8.5552826"><ele>3.2</ele><time>2026-05-02T13:45:12.478Z</time></trkpt><trkpt lat="39.9075084" lon="8.555227"><ele>3.4</ele><time>2026-05-02T13:45:13.478Z</time></trkpt><trkpt lat="39.907397" lon="8.5551767"><ele>3.6000000000000005</ele><time>2026-05-02T13:45:14.478Z</time></trkpt><trkpt lat="39.9072978" lon="8.5551334"><ele>3.8000000000000003</ele><time>2026-05-02T13:45:15.478Z</time></trkpt><trkpt lat="39.9072199" lon="8.5550953"><ele>4.0</ele><time>2026-05-02T13:45:16.478Z</time></trkpt><trkpt lat="39.9071572" lon="8.5550574"><ele>3.9999999999999996</ele><time>2026-05-02T13:45:17.479Z</time></trkpt><trkpt lat="39.9070763" lon="8.5550013"><ele>4.0</ele><time>2026-05-02T13:45:19.479Z</time></trkpt><trkpt lat="39.9070076" lon="8.554958"><ele>4.0</ele><time>2026-05-02T13:46:14.478Z</time></trkpt><trkpt lat="39.9069408" lon="8.554929"><ele>4.0</ele><time>2026-05-02T13:46:15.478Z</time></trkpt><trkpt lat="39.9068586" lon="8.5548998"><ele>3.9999999999999996</ele><time>2026-05-02T13:46:16.478Z</time></trkpt><trkpt lat="39.9067536" lon="8.5548675"><ele>4.0</ele><time>2026-05-02T13:46:17.478Z</time></trkpt><trkpt lat="39.9066297" lon="8.5548306"><ele>4.2</ele><time>2026-05-02T13:46:18.479Z</time></trkpt><trkpt lat="39.9065166" lon="8.554789"><ele>4.4</ele><time>2026-05-02T13:46:19.477Z</time></trkpt><trkpt lat="39.9064278" lon="8.5547527"><ele>4.6</ele><time>2026-05-02T13:46:20.479Z</time></trkpt><trkpt lat="39.9063162" lon="8.5547217"><ele>4.8</ele><time>2026-05-02T13:46:22.479Z</time></trkpt><trkpt lat="39.9063432" lon="8.5547975"><ele>5.0</ele><time>2026-05-02T13:46:26.478Z</time></trkpt><trkpt lat="39.9064375" lon="8.5547532"><ele>5.0</ele><time>2026-05-02T13:46:28.478Z</time></trkpt><trkpt lat="39.9065073" lon="8.5547767"><ele>5.0</ele><time>2026-05-02T13:46:29.478Z</time></trkpt><trkpt lat="39.9065828" lon="8.5548241"><ele>5.0</ele><time>2026-05-02T13:46:30.479Z</time></trkpt><trkpt lat="39.9066523" lon="8.5548749"><ele>5.0</ele><time>2026-05-02T13:46:31.478Z</time></trkpt><trkpt lat="39.9067433" lon="8.5549138"><ele>5.0</ele><time>2026-05-02T13:46:32.478Z</time></trkpt><trkpt lat="39.9068467" lon="8.5549485"><ele>5.0</ele><time>2026-05-02T13:46:33.478Z</time></trkpt><trkpt lat="39.9069122" lon="8.5549974"><ele>4.833333333333334</ele><time>2026-05-02T13:46:34.478Z</time></trkpt><trkpt lat="39.9070021" lon="8.5550538"><ele>4.666666666666667</ele><time>2026-05-02T13:46:36.479Z</time></trkpt><trkpt lat="39.9070585" lon="8.5549931"><ele>4.5</ele><time>2026-05-02T13:46:38.478Z</time></trkpt><trkpt lat="39.9071494" lon="8.555019"><ele>4.333333333333333</ele><time>2026-05-02T13:46:43.478Z</time></trkpt><trkpt lat="39.9072152" lon="8.55502"><ele>4.166666666666666</ele><time>2026-05-02T13:46:44.478Z</time></trkpt><trkpt lat="39.9072627" lon="8.5551005"><ele>4.0</ele><time>2026-05-02T13:46:46.479Z</time></trkpt><trkpt lat="39.9072004" lon="8.5551326"><ele>3.9999999999999996</ele><time>2026-05-02T13:46:48.478Z</time></trkpt><trkpt lat="39.9071056" lon="8.5550182"><ele>4.0</ele><time>2026-05-02T13:46:50.478Z</time></trkpt><trkpt lat="39.9070429" lon="8.5549937"><ele>4.0</ele><time>2026-05-02T13:46:51.477Z</time></trkpt><trkpt lat="39.9069772" lon="8.5549942"><ele>4.0</ele><time>2026-05-02T13:46:52.478Z</time></trkpt><trkpt lat="39.9069022" lon="8.5549635"><ele>3.9999999999999996</ele><time>2026-05-02T13:46:53.479Z</time></trkpt><trkpt lat="39.906832" lon="8.5549065"><ele>4.0</ele><time>2026-05-02T13:46:54.477Z</time></trkpt><trkpt lat="39.9067414" lon="8.5548549"><ele>4.2</ele><time>2026-05-02T13:46:55.478Z</time></trkpt><trkpt lat="39.9066296" lon="8.5548325"><ele>4.4</ele><time>2026-05-02T13:46:56.479Z</time></trkpt><trkpt lat="39.9065171" lon="8.5548438"><ele>4.6</ele><time>2026-05-02T13:46:57.478Z</time></trkpt><trkpt lat="39.9064358" lon="8.5548401"><ele>4.8</ele><time>2026-05-02T13:46:58.478Z</time></trkpt><trkpt lat="39.9063277" lon="8.5547627"><ele>5.0</ele><time>2026-05-02T13:47:00.478Z</time></trkpt><trkpt lat="39.9062437" lon="8.5547191"><ele>5.0</ele><time>2026-05-02T13:47:02.478Z</time></trkpt><trkpt lat="39.9062721" lon="8.554795"><ele>5.0</ele><time>2026-05-02T13:47:06.478Z</time></trkpt><trkpt lat="39.9064057" lon="8.5548016"><ele>5.0</ele><time>2026-05-02T13:47:08.477Z</time></trkpt><trkpt lat="39.9064814" lon="8.5548116"><ele>5.0</ele><time>2026-05-02T13:47:09.478Z</time></trkpt><trkpt lat="39.906562" lon="8.5548245"><ele>5.0</ele><time>2026-05-02T13:47:10.478Z</time></trkpt><trkpt lat="39.9066467" lon="8.5548375"><ele>5.0</ele><time>2026-05-02T13:47:11.479Z</time></trkpt><trkpt lat="39.9067333" lon="8.5548453"><ele>4.833333333333334</ele><time>2026-05-02T13:47:12.477Z</time></trkpt><trkpt lat="39.9068133" lon="8.5548652"><ele>4.666666666666667</ele><time>2026-05-02T13:47:13.478Z</time></trkpt><trkpt lat="39.9068858" lon="8.5548917"><ele>4.5</ele><time>2026-05-02T13:47:14.479Z</time></trkpt><trkpt lat="39.9069793" lon="8.5549303"><ele>4.333333333333333</ele><time>2026-05-02T13:47:16.478Z</time></trkpt><trkpt lat="39.9070252" lon="8.55501"><ele>4.166666666666666</ele><time>2026-05-02T13:48:25.477Z</time></trkpt><trkpt lat="39.9070783" lon="8.5550673"><ele>4.0</ele><time>2026-05-02T13:48:26.477Z</time></trkpt><trkpt lat="39.907144" lon="8.5551075"><ele>4.0</ele><time>2026-05-02T13:48:27.478Z</time></trkpt><trkpt lat="39.9072443" lon="8.5551251"><ele>4.0</ele><time>2026-05-02T13:48:28.476Z</time></trkpt><trkpt lat="39.9073533" lon="8.5551484"><ele>4.0</ele><time>2026-05-02T13:48:29.478Z</time></trkpt><trkpt lat="39.9074503" lon="8.5551978"><ele>4.0</ele><time>2026-05-02T13:48:30.477Z</time></trkpt><trkpt lat="39.907519" lon="8.5552423"><ele>4.0</ele><time>2026-05-02T13:48:31.478Z</time></trkpt><trkpt lat="39.907605" lon="8.5552559"><ele>4.0</ele><time>2026-05-02T13:48:33.477Z</time></trkpt><trkpt lat="39.907566" lon="8.5551599"><ele>4.0</ele><time>2026-05-02T13:48:36.477Z</time></trkpt><trkpt lat="39.9074169" lon="8.5551175"><ele>4.0</ele><time>2026-05-02T13:48:38.476Z</time></trkpt><trkpt lat="39.9073201" lon="8.5550841"><ele>4.0</ele><time>2026-05-02T13:48:39.477Z</time></trkpt><trkpt lat="39.9072136" lon="8.5550449"><ele>4.0</ele><time>2026-05-02T13:48:40.476Z</time></trkpt><trkpt lat="39.9071036" lon="8.554999"><ele>3.9999999999999996</ele><time>2026-05-02T13:48:41.476Z</time></trkpt><trkpt lat="39.9070144" lon="8.5549693"><ele>4.0</ele><time>2026-05-02T13:48:42.478Z</time></trkpt><trkpt lat="39.9069512" lon="8.5549281"><ele>4.0</ele><time>2026-05-02T13:48:43.478Z</time></trkpt><trkpt lat="39.9068612" lon="8.5548894"><ele>4.0</ele><time>2026-05-02T13:48:45.477Z</time></trkpt><trkpt lat="39.9068344" lon="8.5549688"><ele>3.9999999999999996</ele><time>2026-05-02T13:48:47.476Z</time></trkpt><trkpt lat="39.906926" lon="8.5549839"><ele>4.0</ele><time>2026-05-02T13:48:50.476Z</time></trkpt><trkpt lat="39.9070179" lon="8.5549702"><ele>3.9999999999999996</ele><time>2026-05-02T13:48:52.477Z</time></trkpt><trkpt lat="39.9070634" lon="8.555027"><ele>4.0</ele><time>2026-05-02T13:48:53.477Z</time></trkpt><trkpt lat="39.907115" lon="8.5550848"><ele>4.0</ele><time>2026-05-02T13:48:54.476Z</time></trkpt><trkpt lat="39.9071909" lon="8.555125"><ele>4.0</ele><time>2026-05-02T13:48:55.476Z</time></trkpt><trkpt lat="39.907283" lon="8.5551438"><ele>3.9999999999999996</ele><time>2026-05-02T13:48:56.476Z</time></trkpt><trkpt lat="39.9073799" lon="8.5551576"><ele>4.0</ele><time>2026-05-02T13:48:57.476Z</time></trkpt><trkpt lat="39.9074704" lon="8.5552067"><ele>3.9999999999999996</ele><time>2026-05-02T13:48:58.476Z</time></trkpt><trkpt lat="39.9075756" lon="8.5552734"><ele>4.0</ele><time>2026-05-02T13:48:59.477Z</time></trkpt><trkpt lat="39.9076634" lon="8.5553148"><ele>4.0</ele><time>2026-05-02T13:49:00.476Z</time></trkpt><trkpt lat="39.9077319" lon="8.555336"><ele>4.0</ele><time>2026-05-02T13:49:01.477Z</time></trkpt><trkpt lat="39.9078016" lon="8.5553304"><ele>3.9999999999999996</ele><time>2026-05-02T13:49:03.477Z</time></trkpt><trkpt lat="39.9077571" lon="8.5552702"><ele>4.0</ele><time>2026-05-02T13:49:05.477Z</time></trkpt><trkpt lat="39.9076142" lon="8.5552231"><ele>4.0</ele><time>2026-05-02T13:49:07.476Z</time></trkpt><trkpt lat="39.9075326" lon="8.5551799"><ele>4.0</ele><time>2026-05-02T13:49:08.476Z</time></trkpt><trkpt lat="39.9074505" lon="8.5551265"><ele>4.0</ele><time>2026-05-02T13:49:09.477Z</time></trkpt><trkpt lat="39.9073588" lon="8.5550852"><ele>4.0</ele><time>2026-05-02T13:49:10.476Z</time></trkpt><trkpt lat="39.9072466" lon="8.5550628"><ele>4.0</ele><time>2026-05-02T13:49:11.478Z</time></trkpt><trkpt lat="39.9071561" lon="8.5550385"><ele>3.9999999999999996</ele><time>2026-05-02T13:49:12.477Z</time></trkpt><trkpt lat="39.90709" lon="8.5549978"><ele>4.0</ele><time>2026-05-02T13:49:13.477Z</time></trkpt><trkpt lat="39.9069737" lon="8.5549537"><ele>4.0</ele><time>2026-05-02T13:49:15.477Z</time></trkpt><trkpt lat="39.9069079" lon="8.5549824"><ele>4.0</ele><time>2026-05-02T13:49:16.478Z</time></trkpt><trkpt lat="39.9068407" lon="8.5549822"><ele>3.9999999999999996</ele><time>2026-05-02T13:49:17.478Z</time></trkpt><trkpt lat="39.9067686" lon="8.5549592"><ele>4.0</ele><time>2026-05-02T13:49:18.477Z</time></trkpt><trkpt lat="39.9066899" lon="8.554905"><ele>4.25</ele><time>2026-05-02T13:49:19.478Z</time></trkpt><trkpt lat="39.9066067" lon="8.554835"><ele>4.5</ele><time>2026-05-02T13:49:20.477Z</time></trkpt><trkpt lat="39.9064955" lon="8.5547795"><ele>4.75</ele><time>2026-05-02T13:49:21.476Z</time></trkpt><trkpt lat="39.9063646" lon="8.5547362"><ele>5.0</ele><time>2026-05-02T13:49:22.477Z</time></trkpt><trkpt lat="39.9062032" lon="8.5547327"><ele>5.0</ele><time>2026-05-02T13:49:23.476Z</time></trkpt><trkpt lat="39.9060357" lon="8.5547312"><ele>5.0</ele><time>2026-05-02T13:49:24.477Z</time></trkpt><trkpt lat="39.9058737" lon="8.5546976"><ele>5.0</ele><time>2026-05-02T13:49:25.477Z</time></trkpt><trkpt lat="39.9056958" lon="8.5546345"><ele>4.333333333333334</ele><time>2026-05-02T13:49:26.478Z</time></trkpt><trkpt lat="39.9055116" lon="8.5545513"><ele>3.666666666666667</ele><time>2026-05-02T13:49:27.476Z</time></trkpt><trkpt lat="39.9053114" lon="8.5544825"><ele>3.0</ele><time>2026-05-02T13:49:28.476Z</time></trkpt><trkpt lat="39.9050884" lon="8.5544402"><ele>3.0</ele><time>2026-05-02T13:49:29.476Z</time></trkpt><trkpt lat="39.9048504" lon="8.5544176"><ele>3.0</ele><time>2026-05-02T13:49:30.476Z</time></trkpt><trkpt lat="39.9046099" lon="8.5544126"><ele>3.0</ele><time>2026-05-02T13:49:31.478Z</time></trkpt><trkpt lat="39.9043567" lon="8.5544163"><ele>3.0</ele><time>2026-05-02T13:49:32.476Z</time></trkpt><trkpt lat="39.904109" lon="8.5544222"><ele>3.0</ele><time>2026-05-02T13:49:33.476Z</time></trkpt><trkpt lat="39.9038844" lon="8.5544312"><ele>3.0</ele><time>2026-05-02T13:49:34.477Z</time></trkpt><trkpt lat="39.9036836" lon="8.5544465"><ele>3.0</ele><time>2026-05-02T13:49:35.477Z</time></trkpt><trkpt lat="39.9034886" lon="8.5544693"><ele>2.6666666666666665</ele><time>2026-05-02T13:49:36.477Z</time></trkpt><trkpt lat="39.9032976" lon="8.5544921"><ele>2.333333333333333</ele><time>2026-05-02T13:49:37.478Z</time></trkpt><trkpt lat="39.9031101" lon="8.5545102"><ele>2.0</ele><time>2026-05-02T13:49:38.477Z</time></trkpt><trkpt lat="39.9029398" lon="8.5545292"><ele>2.25</ele><time>2026-05-02T13:49:39.477Z</time></trkpt><trkpt lat="39.9027896" lon="8.5545443"><ele>2.5</ele><time>2026-05-02T13:49:40.477Z</time></trkpt><trkpt lat="39.9026636" lon="8.5545511"><ele>2.75</ele><time>2026-05-02T13:49:41.477Z</time></trkpt><trkpt lat="39.9025597" lon="8.554557"><ele>3.0</ele><time>2026-05-02T13:49:42.478Z</time></trkpt><trkpt lat="39.90247" lon="8.5545673"><ele>3.0</ele><time>2026-05-02T13:49:43.477Z</time></trkpt><trkpt lat="39.9024051" lon="8.5545835"><ele>3.0</ele><time>2026-05-02T13:49:44.478Z</time></trkpt><trkpt lat="39.9023747" lon="8.5546624"><ele>3.0</ele><time>2026-05-02T13:49:47.477Z</time></trkpt><trkpt lat="39.9024475" lon="8.5546609"><ele>3.0</ele><time>2026-05-02T13:49:49.477Z</time></trkpt><trkpt lat="39.9025189" lon="8.5546429"><ele>3.0</ele><time>2026-05-02T13:49:50.477Z</time></trkpt><trkpt lat="39.9026138" lon="8.5546156"><ele>3.0</ele><time>2026-05-02T13:49:51.477Z</time></trkpt><trkpt lat="39.9027085" lon="8.554613"><ele>3.0</ele><time>2026-05-02T13:49:52.477Z</time></trkpt><trkpt lat="39.9027948" lon="8.5546612"><ele>3.0</ele><time>2026-05-02T13:49:54.477Z</time></trkpt><trkpt lat="39.9027628" lon="8.5547355"><ele>3.0</ele><time>2026-05-02T13:49:57.478Z</time></trkpt><trkpt lat="39.9026847" lon="8.5547587"><ele>3.0</ele><time>2026-05-02T13:49:59.477Z</time></trkpt><trkpt lat="39.9025796" lon="8.5548144"><ele>3.0</ele><time>2026-05-02T13:50:01.478Z</time></trkpt><trkpt lat="39.9025095" lon="8.5548614"><ele>3.0</ele><time>2026-05-02T13:50:02.477Z</time></trkpt><trkpt lat="39.9024517" lon="8.5549018"><ele>3.0</ele><time>2026-05-02T13:50:03.478Z</time></trkpt><trkpt lat="39.9023869" lon="8.55496"><ele>3.0</ele><time>2026-05-02T13:50:05.476Z</time></trkpt><trkpt lat="39.902498" lon="8.5549016"><ele>3.0</ele><time>2026-05-02T13:50:09.478Z</time></trkpt><trkpt lat="39.9025828" lon="8.5548374"><ele>3.0</ele><time>2026-05-02T13:50:10.477Z</time></trkpt><trkpt lat="39.9026847" lon="8.5547671"><ele>3.0</ele><time>2026-05-02T13:50:11.476Z</time></trkpt><trkpt lat="39.9027632" lon="8.5547098"><ele>3.0</ele><time>2026-05-02T13:50:12.477Z</time></trkpt><trkpt lat="39.9028221" lon="8.5546606"><ele>3.0</ele><time>2026-05-02T13:50:13.476Z</time></trkpt><trkpt lat="39.902862" lon="8.5545856"><ele>3.0</ele><time>2026-05-02T13:50:15.476Z</time></trkpt><trkpt lat="39.9027691" lon="8.5545305"><ele>3.0</ele><time>2026-05-02T13:50:18.477Z</time></trkpt><trkpt lat="39.9026951" lon="8.5545612"><ele>3.0</ele><time>2026-05-02T13:50:19.478Z</time></trkpt><trkpt lat="39.9026284" lon="8.5545844"><ele>3.0</ele><time>2026-05-02T13:50:20.478Z</time></trkpt><trkpt lat="39.9025378" lon="8.5546302"><ele>3.0</ele><time>2026-05-02T13:50:22.477Z</time></trkpt><trkpt lat="39.902468" lon="8.5546504"><ele>3.0</ele><time>2026-05-02T13:50:24.476Z</time></trkpt><trkpt lat="39.902499" lon="8.554562"><ele>3.0</ele><time>2026-05-02T13:50:28.477Z</time></trkpt><trkpt lat="39.9026005" lon="8.5545821"><ele>3.0</ele><time>2026-05-02T13:50:30.477Z</time></trkpt><trkpt lat="39.902705" lon="8.5545994"><ele>3.0</ele><time>2026-05-02T13:50:32.477Z</time></trkpt><trkpt lat="39.9027761" lon="8.5546388"><ele>3.0</ele><time>2026-05-02T13:50:34.476Z</time></trkpt><trkpt lat="39.9027653" lon="8.5547372"><ele>3.0</ele><time>2026-05-02T13:50:37.478Z</time></trkpt><trkpt lat="39.9026724" lon="8.5547672"><ele>3.0</ele><time>2026-05-02T13:50:40.476Z</time></trkpt><trkpt lat="39.9025946" lon="8.554827"><ele>3.0</ele><time>2026-05-02T13:50:42.476Z</time></trkpt><trkpt lat="39.9025101" lon="8.5549111"><ele>3.0</ele><time>2026-05-02T13:50:44.477Z</time></trkpt><trkpt lat="39.9024225" lon="8.5549572"><ele>3.0</ele><time>2026-05-02T13:50:46.476Z</time></trkpt><trkpt lat="39.902348" lon="8.5549749"><ele>3.3333333333333335</ele><time>2026-05-02T13:50:48.477Z</time></trkpt><trkpt lat="39.9022928" lon="8.5550159"><ele>3.666666666666667</ele><time>2026-05-02T13:51:43.476Z</time></trkpt><trkpt lat="39.9021958" lon="8.5551005"><ele>4.0</ele><time>2026-05-02T13:51:45.476Z</time></trkpt><trkpt lat="39.9021271" lon="8.5551436"><ele>4.333333333333334</ele><time>2026-05-02T13:51:46.477Z</time></trkpt><trkpt lat="39.90205" lon="8.5551862"><ele>4.666666666666667</ele><time>2026-05-02T13:51:47.477Z</time></trkpt><trkpt lat="39.9019645" lon="8.5552356"><ele>5.0</ele><time>2026-05-02T13:51:48.477Z</time></trkpt><trkpt lat="39.9018744" lon="8.5552975"><ele>5.0</ele><time>2026-05-02T13:51:49.478Z</time></trkpt><trkpt lat="39.9017841" lon="8.5553596"><ele>5.0</ele><time>2026-05-02T13:51:50.477Z</time></trkpt><trkpt lat="39.9016933" lon="8.5554238"><ele>5.0</ele><time>2026-05-02T13:51:51.477Z</time></trkpt><trkpt lat="39.9015979" lon="8.5554905"><ele>5.0</ele><time>2026-05-02T13:51:52.476Z</time></trkpt><trkpt lat="39.9015052" lon="8.5555599"><ele>5.0</ele><time>2026-05-02T13:51:53.478Z</time></trkpt><trkpt lat="39.9014092" lon="8.5556253"><ele>5.0</ele><time>2026-05-02T13:51:54.478Z</time></trkpt><trkpt lat="39.9013137" lon="8.5556885"><ele>5.0</ele><time>2026-05-02T13:51:55.478Z</time></trkpt><trkpt lat="39.9012153" lon="8.5557499"><ele>5.0</ele><time>2026-05-02T13:51:56.478Z</time></trkpt><trkpt lat="39.9011198" lon="8.5558177"><ele>5.0</ele><time>2026-05-02T13:51:57.477Z</time></trkpt><trkpt lat="39.9010246" lon="8.5558867"><ele>5.0</ele><time>2026-05-02T13:51:58.476Z</time></trkpt><trkpt lat="39.9009303" lon="8.5559516"><ele>4.6</ele><time>2026-05-02T13:51:59.477Z</time></trkpt><trkpt lat="39.9008356" lon="8.5560162"><ele>4.2</ele><time>2026-05-02T13:52:00.478Z</time></trkpt><trkpt lat="39.900743" lon="8.5560821"><ele>3.8</ele><time>2026-05-02T13:52:01.477Z</time></trkpt><trkpt lat="39.9006495" lon="8.5561532"><ele>3.4</ele><time>2026-05-02T13:52:02.477Z</time></trkpt><trkpt lat="39.9005608" lon="8.5562334"><ele>3.0</ele><time>2026-05-02T13:52:03.478Z</time></trkpt><trkpt lat="39.9004713" lon="8.556328"><ele>2.8</ele><time>2026-05-02T13:52:04.476Z</time></trkpt><trkpt lat="39.9003892" lon="8.5564179"><ele>2.5999999999999996</ele><time>2026-05-02T13:52:05.477Z</time></trkpt><trkpt lat="39.900315" lon="8.5565114"><ele>2.4000000000000004</ele><time>2026-05-02T13:52:06.478Z</time></trkpt><trkpt lat="39.900236" lon="8.5566241"><ele>2.2</ele><time>2026-05-02T13:52:07.477Z</time></trkpt><trkpt lat="39.900161" lon="8.5567441"><ele>2.0</ele><time>2026-05-02T13:52:08.478Z</time></trkpt><trkpt lat="39.9000883" lon="8.5568697"><ele>2.0</ele><time>2026-05-02T13:52:09.478Z</time></trkpt><trkpt lat="39.9000216" lon="8.5570036"><ele>2.0</ele><time>2026-05-02T13:52:10.477Z</time></trkpt><trkpt lat="39.8999576" lon="8.5571453"><ele>2.0</ele><time>2026-05-02T13:52:11.478Z</time></trkpt><trkpt lat="39.8998965" lon="8.5572847"><ele>2.0</ele><time>2026-05-02T13:52:12.476Z</time></trkpt><trkpt lat="39.8998338" lon="8.5574198"><ele>2.0</ele><time>2026-05-02T13:52:13.477Z</time></trkpt><trkpt lat="39.8997727" lon="8.5575483"><ele>2.0</ele><time>2026-05-02T13:52:14.477Z</time></trkpt><trkpt lat="39.8997126" lon="8.5576775"><ele>2.0</ele><time>2026-05-02T13:52:15.478Z</time></trkpt><trkpt lat="39.8996534" lon="8.5578069"><ele>2.0</ele><time>2026-05-02T13:52:16.478Z</time></trkpt><trkpt lat="39.8995921" lon="8.5579377"><ele>2.0</ele><time>2026-05-02T13:52:17.477Z</time></trkpt><trkpt lat="39.8995337" lon="8.5580657"><ele>2.0</ele><time>2026-05-02T13:52:18.477Z</time></trkpt><trkpt lat="39.8994786" lon="8.5581976"><ele>2.0</ele><time>2026-05-02T13:52:19.477Z</time></trkpt><trkpt lat="39.8994231" lon="8.5583283"><ele>2.0</ele><time>2026-05-02T13:52:20.478Z</time></trkpt><trkpt lat="39.8993657" lon="8.5584554"><ele>2.0</ele><time>2026-05-02T13:52:21.477Z</time></trkpt><trkpt lat="39.8993095" lon="8.5585823"><ele>2.0</ele><time>2026-05-02T13:52:22.477Z</time></trkpt><trkpt lat="39.8992514" lon="8.5587043"><ele>2.0</ele><time>2026-05-02T13:52:23.476Z</time></trkpt><trkpt lat="39.8991916" lon="8.5588222"><ele>2.0</ele><time>2026-05-02T13:52:24.478Z</time></trkpt><trkpt lat="39.8991342" lon="8.5589498"><ele>2.0</ele><time>2026-05-02T13:52:25.477Z</time></trkpt><trkpt lat="39.8990745" lon="8.5590751"><ele>1.75</ele><time>2026-05-02T13:52:26.477Z</time></trkpt><trkpt lat="39.8990177" lon="8.5592005"><ele>1.5</ele><time>2026-05-02T13:52:27.476Z</time></trkpt><trkpt lat="39.8989648" lon="8.5593266"><ele>1.25</ele><time>2026-05-02T13:52:28.477Z</time></trkpt><trkpt lat="39.8989093" lon="8.5594597"><ele>1.0</ele><time>2026-05-02T13:52:29.476Z</time></trkpt><trkpt lat="39.8988474" lon="8.5595908"><ele>1.0</ele><time>2026-05-02T13:52:30.477Z</time></trkpt><trkpt lat="39.8987863" lon="8.5597245"><ele>1.0</ele><time>2026-05-02T13:52:31.476Z</time></trkpt><trkpt lat="39.8987231" lon="8.5598629"><ele>1.0</ele><time>2026-05-02T13:52:32.477Z</time></trkpt><trkpt lat="39.8986597" lon="8.5600006"><ele>1.0</ele><time>2026-05-02T13:52:33.477Z</time></trkpt><trkpt lat="39.8985977" lon="8.5601379"><ele>1.0</ele><time>2026-05-02T13:52:34.478Z</time></trkpt><trkpt lat="39.898535" lon="8.5602758"><ele>1.0</ele><time>2026-05-02T13:52:35.478Z</time></trkpt><trkpt lat="39.898474" lon="8.56041"><ele>1.0</ele><time>2026-05-02T13:52:36.477Z</time></trkpt><trkpt lat="39.8984158" lon="8.5605427"><ele>1.0</ele><time>2026-05-02T13:52:37.476Z</time></trkpt><trkpt lat="39.898356" lon="8.5606773"><ele>1.0</ele><time>2026-05-02T13:52:38.476Z</time></trkpt><trkpt lat="39.8982939" lon="8.5608096"><ele>1.0</ele><time>2026-05-02T13:52:39.477Z</time></trkpt><trkpt lat="39.8982315" lon="8.5609452"><ele>1.0</ele><time>2026-05-02T13:52:40.476Z</time></trkpt><trkpt lat="39.8981696" lon="8.56108"><ele>1.0</ele><time>2026-05-02T13:52:41.476Z</time></trkpt><trkpt lat="39.8981059" lon="8.5612201"><ele>1.25</ele><time>2026-05-02T13:52:42.478Z</time></trkpt><trkpt lat="39.8980408" lon="8.5613533"><ele>1.5</ele><time>2026-05-02T13:52:43.477Z</time></trkpt><trkpt lat="39.89798" lon="8.5614853"><ele>1.75</ele><time>2026-05-02T13:52:44.476Z</time></trkpt><trkpt lat="39.8979174" lon="8.561615"><ele>2.0</ele><time>2026-05-02T13:52:45.477Z</time></trkpt><trkpt lat="39.8978568" lon="8.5617461"><ele>2.0</ele><time>2026-05-02T13:52:46.477Z</time></trkpt><trkpt lat="39.8977959" lon="8.5618829"><ele>2.0</ele><time>2026-05-02T13:52:47.475Z</time></trkpt><trkpt lat="39.8977368" lon="8.5620208"><ele>2.0</ele><time>2026-05-02T13:52:48.476Z</time></trkpt><trkpt lat="39.8976741" lon="8.5621666"><ele>2.0</ele><time>2026-05-02T13:52:49.476Z</time></trkpt><trkpt lat="39.8976084" lon="8.56231"><ele>2.0</ele><time>2026-05-02T13:52:50.475Z</time></trkpt><trkpt lat="39.8975411" lon="8.5624487"><ele>2.0</ele><time>2026-05-02T13:52:51.476Z</time></trkpt><trkpt lat="39.8974784" lon="8.5625872"><ele>2.0</ele><time>2026-05-02T13:52:52.475Z</time></trkpt><trkpt lat="39.8974156" lon="8.5627281"><ele>2.0</ele><time>2026-05-02T13:52:53.476Z</time></trkpt><trkpt lat="39.8973533" lon="8.5628639"><ele>2.25</ele><time>2026-05-02T13:52:54.476Z</time></trkpt><trkpt lat="39.8972903" lon="8.5630016"><ele>2.5</ele><time>2026-05-02T13:52:55.476Z</time></trkpt><trkpt lat="39.8972287" lon="8.5631367"><ele>2.75</ele><time>2026-05-02T13:52:56.476Z</time></trkpt><trkpt lat="39.8971664" lon="8.5632673"><ele>3.0</ele><time>2026-05-02T13:52:57.477Z</time></trkpt><trkpt lat="39.8971064" lon="8.5633944"><ele>3.0</ele><time>2026-05-02T13:52:58.475Z</time></trkpt><trkpt lat="39.8970477" lon="8.5635206"><ele>3.0</ele><time>2026-05-02T13:52:59.476Z</time></trkpt><trkpt lat="39.8969893" lon="8.5636435"><ele>3.0</ele><time>2026-05-02T13:53:00.476Z</time></trkpt><trkpt lat="39.8969405" lon="8.563751"><ele>3.0</ele><time>2026-05-02T13:53:01.475Z</time></trkpt><trkpt lat="39.8968905" lon="8.5638608"><ele>3.0</ele><time>2026-05-02T13:53:02.476Z</time></trkpt><trkpt lat="39.8968398" lon="8.5639719"><ele>2.8</ele><time>2026-05-02T13:53:03.477Z</time></trkpt><trkpt lat="39.8967936" lon="8.5640707"><ele>2.5999999999999996</ele><time>2026-05-02T13:53:04.477Z</time></trkpt><trkpt lat="39.8967422" lon="8.5641868"><ele>2.4000000000000004</ele><time>2026-05-02T13:53:05.477Z</time></trkpt><trkpt lat="39.896684" lon="8.564315"><ele>2.2</ele><time>2026-05-02T13:53:06.475Z</time></trkpt><trkpt lat="39.8966239" lon="8.5644466"><ele>2.0</ele><time>2026-05-02T13:53:07.476Z</time></trkpt><trkpt lat="39.8965624" lon="8.5645851"><ele>2.0</ele><time>2026-05-02T13:53:08.475Z</time></trkpt><trkpt lat="39.8964984" lon="8.5647299"><ele>2.0</ele><time>2026-05-02T13:53:09.476Z</time></trkpt><trkpt lat="39.8964324" lon="8.5648778"><ele>2.0</ele><time>2026-05-02T13:53:10.476Z</time></trkpt><trkpt lat="39.8963614" lon="8.5650296"><ele>2.0</ele><time>2026-05-02T13:53:11.476Z</time></trkpt><trkpt lat="39.8962916" lon="8.5651871"><ele>2.0</ele><time>2026-05-02T13:53:12.477Z</time></trkpt><trkpt lat="39.8962183" lon="8.5653443"><ele>2.0</ele><time>2026-05-02T13:53:13.475Z</time></trkpt><trkpt lat="39.896142" lon="8.5655017"><ele>2.0</ele><time>2026-05-02T13:53:14.476Z</time></trkpt><trkpt lat="39.8960648" lon="8.5656626"><ele>2.0</ele><time>2026-05-02T13:53:15.476Z</time></trkpt><trkpt lat="39.8959846" lon="8.5658347"><ele>2.0</ele><time>2026-05-02T13:53:16.476Z</time></trkpt><trkpt lat="39.8959037" lon="8.5660058"><ele>2.0</ele><time>2026-05-02T13:53:17.476Z</time></trkpt><trkpt lat="39.8958244" lon="8.5661827"><ele>2.0</ele><time>2026-05-02T13:53:18.477Z</time></trkpt><trkpt lat="39.8957468" lon="8.566357"><ele>2.0</ele><time>2026-05-02T13:53:19.477Z</time></trkpt><trkpt lat="39.8956667" lon="8.5665327"><ele>2.0</ele><time>2026-05-02T13:53:20.476Z</time></trkpt><trkpt lat="39.8955846" lon="8.5667097"><ele>2.0</ele><time>2026-05-02T13:53:21.475Z</time></trkpt><trkpt lat="39.8955003" lon="8.5668909"><ele>1.3333333333333333</ele><time>2026-05-02T13:53:22.475Z</time></trkpt><trkpt lat="39.8954171" lon="8.5670761"><ele>0.6666666666666666</ele><time>2026-05-02T13:53:23.476Z</time></trkpt><trkpt lat="39.8953323" lon="8.5672571"><ele>0.0</ele><time>2026-05-02T13:53:24.475Z</time></trkpt><trkpt lat="39.8952475" lon="8.5674404"><ele>0.0</ele><time>2026-05-02T13:53:25.476Z</time></trkpt><trkpt lat="39.8951626" lon="8.5676245"><ele>0.0</ele><time>2026-05-02T13:53:26.476Z</time></trkpt><trkpt lat="39.8950805" lon="8.5678046"><ele>0.0</ele><time>2026-05-02T13:53:27.476Z</time></trkpt><trkpt lat="39.894998" lon="8.5679815"><ele>0.3333333333333333</ele><time>2026-05-02T13:53:28.476Z</time></trkpt><trkpt lat="39.8949174" lon="8.5681623"><ele>0.6666666666666666</ele><time>2026-05-02T13:53:29.476Z</time></trkpt><trkpt lat="39.8948459" lon="8.5683477"><ele>1.0</ele><time>2026-05-02T13:53:30.476Z</time></trkpt><trkpt lat="39.8947882" lon="8.5685434"><ele>1.3333333333333333</ele><time>2026-05-02T13:53:31.477Z</time></trkpt><trkpt lat="39.8947454" lon="8.5687475"><ele>1.6666666666666665</ele><time>2026-05-02T13:53:32.477Z</time></trkpt><trkpt lat="39.8947143" lon="8.5689606"><ele>2.0</ele><time>2026-05-02T13:53:33.476Z</time></trkpt><trkpt lat="39.894693" lon="8.5691744"><ele>2.0</ele><time>2026-05-02T13:53:34.477Z</time></trkpt><trkpt lat="39.8946783" lon="8.5693908"><ele>2.0</ele><time>2026-05-02T13:53:35.477Z</time></trkpt><trkpt lat="39.8946621" lon="8.5696059"><ele>2.0</ele><time>2026-05-02T13:53:36.477Z</time></trkpt><trkpt lat="39.8946449" lon="8.5698272"><ele>1.6666666666666665</ele><time>2026-05-02T13:53:37.476Z</time></trkpt><trkpt lat="39.8946265" lon="8.5700464"><ele>1.3333333333333333</ele><time>2026-05-02T13:53:38.476Z</time></trkpt><trkpt lat="39.8946093" lon="8.5702696"><ele>1.0</ele><time>2026-05-02T13:53:39.477Z</time></trkpt><trkpt lat="39.8945912" lon="8.5704924"><ele>1.0</ele><time>2026-05-02T13:53:40.477Z</time></trkpt><trkpt lat="39.8945726" lon="8.5707148"><ele>1.0</ele><time>2026-05-02T13:53:41.477Z</time></trkpt><trkpt lat="39.8945545" lon="8.57094"><ele>1.0</ele><time>2026-05-02T13:53:42.476Z</time></trkpt><trkpt lat="39.8945373" lon="8.5711621"><ele>1.0</ele><time>2026-05-02T13:53:43.477Z</time></trkpt><trkpt lat="39.8945181" lon="8.5713881"><ele>1.0</ele><time>2026-05-02T13:53:44.476Z</time></trkpt><trkpt lat="39.8945003" lon="8.5716138"><ele>1.0</ele><time>2026-05-02T13:53:45.477Z</time></trkpt><trkpt lat="39.894482" lon="8.5718397"><ele>1.0</ele><time>2026-05-02T13:53:46.476Z</time></trkpt><trkpt lat="39.8944615" lon="8.5720675"><ele>1.0</ele><time>2026-05-02T13:53:47.476Z</time></trkpt><trkpt lat="39.8944454" lon="8.5722945"><ele>1.0</ele><time>2026-05-02T13:53:48.475Z</time></trkpt><trkpt lat="39.8944252" lon="8.5725185"><ele>1.0</ele><time>2026-05-02T13:53:49.475Z</time></trkpt><trkpt lat="39.8944057" lon="8.57274"><ele>1.0</ele><time>2026-05-02T13:53:50.475Z</time></trkpt><trkpt lat="39.8943865" lon="8.5729577"><ele>1.0</ele><time>2026-05-02T13:53:51.477Z</time></trkpt><trkpt lat="39.8943678" lon="8.5731763"><ele>1.3333333333333333</ele><time>2026-05-02T13:53:52.476Z</time></trkpt><trkpt lat="39.8943484" lon="8.5733963"><ele>1.6666666666666665</ele><time>2026-05-02T13:53:53.475Z</time></trkpt><trkpt lat="39.8943313" lon="8.5736125"><ele>2.0</ele><time>2026-05-02T13:53:54.476Z</time></trkpt><trkpt lat="39.8943105" lon="8.5738205"><ele>1.3333333333333333</ele><time>2026-05-02T13:53:55.476Z</time></trkpt><trkpt lat="39.8942938" lon="8.5740252"><ele>0.6666666666666666</ele><time>2026-05-02T13:53:56.475Z</time></trkpt><trkpt lat="39.8942786" lon="8.574225"><ele>0.0</ele><time>2026-05-02T13:53:57.476Z</time></trkpt><trkpt lat="39.8942666" lon="8.574409"><ele>0.25</ele><time>2026-05-02T13:53:58.475Z</time></trkpt><trkpt lat="39.8942554" lon="8.5745889"><ele>0.5</ele><time>2026-05-02T13:53:59.476Z</time></trkpt><trkpt lat="39.8942333" lon="8.5747597"><ele>0.75</ele><time>2026-05-02T13:54:00.475Z</time></trkpt><trkpt lat="39.8941947" lon="8.5749219"><ele>1.0</ele><time>2026-05-02T13:54:01.475Z</time></trkpt><trkpt lat="39.8941419" lon="8.5750831"><ele>1.5</ele><time>2026-05-02T13:54:02.475Z</time></trkpt><trkpt lat="39.8940809" lon="8.5752383"><ele>2.0</ele><time>2026-05-02T13:54:03.476Z</time></trkpt><trkpt lat="39.8940199" lon="8.5753987"><ele>2.5</ele><time>2026-05-02T13:54:04.476Z</time></trkpt><trkpt lat="39.893962" lon="8.5755627"><ele>3.0</ele><time>2026-05-02T13:54:05.477Z</time></trkpt><trkpt lat="39.893904" lon="8.5757344"><ele>3.0</ele><time>2026-05-02T13:54:06.476Z</time></trkpt><trkpt lat="39.893846" lon="8.5759067"><ele>3.0</ele><time>2026-05-02T13:54:07.476Z</time></trkpt><trkpt lat="39.8937885" lon="8.576082"><ele>3.0</ele><time>2026-05-02T13:54:08.475Z</time></trkpt><trkpt lat="39.8937314" lon="8.5762549"><ele>3.0</ele><time>2026-05-02T13:54:09.476Z</time></trkpt><trkpt lat="39.8936742" lon="8.5764332"><ele>2.75</ele><time>2026-05-02T13:54:10.477Z</time></trkpt><trkpt lat="39.8936168" lon="8.5766081"><ele>2.5</ele><time>2026-05-02T13:54:11.476Z</time></trkpt><trkpt lat="39.8935586" lon="8.576781"><ele>2.25</ele><time>2026-05-02T13:54:12.477Z</time></trkpt><trkpt lat="39.8935028" lon="8.5769539"><ele>2.0</ele><time>2026-05-02T13:54:13.477Z</time></trkpt><trkpt lat="39.8934487" lon="8.5771225"><ele>1.5</ele><time>2026-05-02T13:54:14.477Z</time></trkpt><trkpt lat="39.8933934" lon="8.5772922"><ele>1.0</ele><time>2026-05-02T13:54:15.477Z</time></trkpt><trkpt lat="39.8933349" lon="8.5774624"><ele>0.5</ele><time>2026-05-02T13:54:16.475Z</time></trkpt><trkpt lat="39.8932792" lon="8.5776287"><ele>0.0</ele><time>2026-05-02T13:54:17.475Z</time></trkpt><trkpt lat="39.8932248" lon="8.5777958"><ele>0.5</ele><time>2026-05-02T13:54:18.475Z</time></trkpt><trkpt lat="39.8931716" lon="8.5779577"><ele>1.0</ele><time>2026-05-02T13:54:19.476Z</time></trkpt><trkpt lat="39.8931196" lon="8.5781156"><ele>1.5</ele><time>2026-05-02T13:54:20.475Z</time></trkpt><trkpt lat="39.8930682" lon="8.5782691"><ele>2.0</ele><time>2026-05-02T13:54:21.476Z</time></trkpt><trkpt lat="39.8930201" lon="8.5784233"><ele>2.0</ele><time>2026-05-02T13:54:22.475Z</time></trkpt><trkpt lat="39.8929709" lon="8.5785748"><ele>2.0</ele><time>2026-05-02T13:54:23.475Z</time></trkpt><trkpt lat="39.8929173" lon="8.5787179"><ele>2.0</ele><time>2026-05-02T13:54:24.476Z</time></trkpt><trkpt lat="39.8928591" lon="8.5788531"><ele>2.0</ele><time>2026-05-02T13:54:25.476Z</time></trkpt><trkpt lat="39.8927917" lon="8.5789736"><ele>2.0</ele><time>2026-05-02T13:54:26.476Z</time></trkpt><trkpt lat="39.8927235" lon="8.5790799"><ele>2.0</ele><time>2026-05-02T13:54:27.476Z</time></trkpt><trkpt lat="39.8926586" lon="8.5791721"><ele>2.0</ele><time>2026-05-02T13:54:28.476Z</time></trkpt><trkpt lat="39.8926024" lon="8.5792581"><ele>2.0</ele><time>2026-05-02T13:54:29.476Z</time></trkpt><trkpt lat="39.8925603" lon="8.5793353"><ele>2.0</ele><time>2026-05-02T13:54:30.475Z</time></trkpt><trkpt lat="39.8925377" lon="8.5794751"><ele>1.8333333333333333</ele><time>2026-05-02T13:54:32.475Z</time></trkpt><trkpt lat="39.8926108" lon="8.5795859"><ele>1.6666666666666665</ele><time>2026-05-02T13:54:34.477Z</time></trkpt><trkpt lat="39.892681" lon="8.5796364"><ele>1.5</ele><time>2026-05-02T13:54:35.477Z</time></trkpt><trkpt lat="39.8927509" lon="8.5796933"><ele>1.3333333333333333</ele><time>2026-05-02T13:54:36.477Z</time></trkpt><trkpt lat="39.8928162" lon="8.5797512"><ele>1.1666666666666665</ele><time>2026-05-02T13:54:37.475Z</time></trkpt><trkpt lat="39.8928814" lon="8.5798092"><ele>1.0</ele><time>2026-05-02T13:54:38.475Z</time></trkpt><trkpt lat="39.8929516" lon="8.57987"><ele>1.0</ele><time>2026-05-02T13:54:39.476Z</time></trkpt><trkpt lat="39.8930168" lon="8.5799305"><ele>1.0</ele><time>2026-05-02T13:54:40.476Z</time></trkpt><trkpt lat="39.8930893" lon="8.579996"><ele>1.0</ele><time>2026-05-02T13:54:41.476Z</time></trkpt><trkpt lat="39.893165" lon="8.5800647"><ele>1.0</ele><time>2026-05-02T13:54:42.476Z</time></trkpt><trkpt lat="39.8932469" lon="8.5801378"><ele>1.0</ele><time>2026-05-02T13:54:43.476Z</time></trkpt><trkpt lat="39.8933225" lon="8.580211"><ele>0.9999999999999999</ele><time>2026-05-02T13:54:44.477Z</time></trkpt><trkpt lat="39.8934021" lon="8.580282"><ele>1.0</ele><time>2026-05-02T13:54:45.476Z</time></trkpt><trkpt lat="39.8934568" lon="8.5803363"><ele>1.0</ele><time>2026-05-02T13:54:46.475Z</time></trkpt><trkpt lat="39.8934384" lon="8.5804209"><ele>1.0</ele><time>2026-05-02T13:54:49.475Z</time></trkpt><trkpt lat="39.8933753" lon="8.5804042"><ele>0.9999999999999999</ele><time>2026-05-02T13:54:51.476Z</time></trkpt><trkpt lat="39.8932998" lon="8.58031"><ele>1.0</ele><time>2026-05-02T13:54:53.475Z</time></trkpt><trkpt lat="39.8932293" lon="8.5802491"><ele>0.9999999999999999</ele><time>2026-05-02T13:54:54.475Z</time></trkpt><trkpt lat="39.8931485" lon="8.5801884"><ele>1.0</ele><time>2026-05-02T13:54:55.476Z</time></trkpt><trkpt lat="39.8930795" lon="8.5801289"><ele>1.0</ele><time>2026-05-02T13:54:56.477Z</time></trkpt><trkpt lat="39.8930177" lon="8.5800671"><ele>1.0</ele><time>2026-05-02T13:54:57.476Z</time></trkpt><trkpt lat="39.8929518" lon="8.5800393"><ele>0.9999999999999999</ele><time>2026-05-02T13:54:58.476Z</time></trkpt><trkpt lat="39.8928719" lon="8.5800373"><ele>1.0</ele><time>2026-05-02T13:54:59.476Z</time></trkpt><trkpt lat="39.8927856" lon="8.580065"><ele>1.0</ele><time>2026-05-02T13:55:00.476Z</time></trkpt><trkpt lat="39.8926926" lon="8.5801093"><ele>1.0</ele><time>2026-05-02T13:55:01.476Z</time></trkpt><trkpt lat="39.8925942" lon="8.5801534"><ele>1.0</ele><time>2026-05-02T13:55:02.476Z</time></trkpt><trkpt lat="39.8924961" lon="8.5801959"><ele>1.0</ele><time>2026-05-02T13:55:03.477Z</time></trkpt><trkpt lat="39.8923963" lon="8.5802355"><ele>1.0</ele><time>2026-05-02T13:55:04.476Z</time></trkpt><trkpt lat="39.8922967" lon="8.5802861"><ele>1.0</ele><time>2026-05-02T13:55:05.477Z</time></trkpt><trkpt lat="39.8921962" lon="8.580336"><ele>1.0</ele><time>2026-05-02T13:55:06.476Z</time></trkpt><trkpt lat="39.8920942" lon="8.5803843"><ele>1.0</ele><time>2026-05-02T13:55:07.475Z</time></trkpt><trkpt lat="39.8919939" lon="8.5804283"><ele>1.0</ele><time>2026-05-02T13:55:08.477Z</time></trkpt><trkpt lat="39.89189" lon="8.5804679"><ele>1.0</ele><time>2026-05-02T13:55:09.476Z</time></trkpt><trkpt lat="39.8917919" lon="8.5805149"><ele>1.0</ele><time>2026-05-02T13:55:10.476Z</time></trkpt><trkpt lat="39.8916926" lon="8.5805636"><ele>1.0</ele><time>2026-05-02T13:55:11.475Z</time></trkpt><trkpt lat="39.8915971" lon="8.5806094"><ele>1.0</ele><time>2026-05-02T13:55:12.475Z</time></trkpt><trkpt lat="39.8915004" lon="8.5806537"><ele>1.0</ele><time>2026-05-02T13:55:13.476Z</time></trkpt><trkpt lat="39.8914014" lon="8.5806888"><ele>1.0</ele><time>2026-05-02T13:55:14.475Z</time></trkpt><trkpt lat="39.891293" lon="8.5807201"><ele>1.0</ele><time>2026-05-02T13:55:15.475Z</time></trkpt><trkpt lat="39.891186" lon="8.580756"><ele>1.0</ele><time>2026-05-02T13:55:16.475Z</time></trkpt><trkpt lat="39.891079" lon="8.5807913"><ele>1.0</ele><time>2026-05-02T13:55:17.477Z</time></trkpt><trkpt lat="39.8909669" lon="8.580821"><ele>1.0</ele><time>2026-05-02T13:55:18.475Z</time></trkpt><trkpt lat="39.8908601" lon="8.5808424"><ele>1.0</ele><time>2026-05-02T13:55:19.476Z</time></trkpt><trkpt lat="39.8907522" lon="8.5808594"><ele>1.0</ele><time>2026-05-02T13:55:20.476Z</time></trkpt><trkpt lat="39.8906356" lon="8.5808726"><ele>1.0</ele><time>2026-05-02T13:55:21.476Z</time></trkpt><trkpt lat="39.89052" lon="8.5808807"><ele>1.0</ele><time>2026-05-02T13:55:22.475Z</time></trkpt><trkpt lat="39.8904025" lon="8.5808813"><ele>1.0</ele><time>2026-05-02T13:55:23.475Z</time></trkpt><trkpt lat="39.8902903" lon="8.5808819"><ele>1.0</ele><time>2026-05-02T13:55:24.475Z</time></trkpt><trkpt lat="39.8901807" lon="8.5808805"><ele>1.0</ele><time>2026-05-02T13:55:25.475Z</time></trkpt><trkpt lat="39.8900727" lon="8.5808741"><ele>1.0</ele><time>2026-05-02T13:55:26.477Z</time></trkpt><trkpt lat="39.8899686" lon="8.5808724"><ele>1.0</ele><time>2026-05-02T13:55:27.476Z</time></trkpt><trkpt lat="39.8898617" lon="8.580879"><ele>1.0</ele><time>2026-05-02T13:55:28.476Z</time></trkpt><trkpt lat="39.8897606" lon="8.5808805"><ele>1.0</ele><time>2026-05-02T13:55:29.476Z</time></trkpt><trkpt lat="39.8896633" lon="8.580862"><ele>1.0</ele><time>2026-05-02T13:55:30.476Z</time></trkpt><trkpt lat="39.8895665" lon="8.580825"><ele>1.0</ele><time>2026-05-02T13:55:31.475Z</time></trkpt><trkpt lat="39.8894681" lon="8.5807943"><ele>1.0</ele><time>2026-05-02T13:55:32.477Z</time></trkpt><trkpt lat="39.889374" lon="8.580771"><ele>1.0</ele><time>2026-05-02T13:55:33.475Z</time></trkpt><trkpt lat="39.8892973" lon="8.5807665"><ele>0.8333333333333333</ele><time>2026-05-02T13:55:34.477Z</time></trkpt><trkpt lat="39.8892318" lon="8.5807855"><ele>0.6666666666666666</ele><time>2026-05-02T13:55:35.476Z</time></trkpt><trkpt lat="39.889168" lon="8.5808275"><ele>0.5</ele><time>2026-05-02T13:55:36.476Z</time></trkpt><trkpt lat="39.8890992" lon="8.5808995"><ele>0.3333333333333333</ele><time>2026-05-02T13:55:37.476Z</time></trkpt><trkpt lat="39.8890236" lon="8.5809593"><ele>0.16666666666666666</ele><time>2026-05-02T13:55:38.476Z</time></trkpt><trkpt lat="39.8889461" lon="8.5810057"><ele>0.0</ele><time>2026-05-02T13:55:39.477Z</time></trkpt><trkpt lat="39.8888667" lon="8.5810559"><ele>0.0</ele><time>2026-05-02T13:55:40.476Z</time></trkpt><trkpt lat="39.8887943" lon="8.5811249"><ele>0.0</ele><time>2026-05-02T13:55:41.475Z</time></trkpt><trkpt lat="39.8887449" lon="8.581209"><ele>0.0</ele><time>2026-05-02T13:55:42.475Z</time></trkpt><trkpt lat="39.8887163" lon="8.5813268"><ele>0.0</ele><time>2026-05-02T13:55:43.476Z</time></trkpt><trkpt lat="39.8887004" lon="8.5814506"><ele>0.0</ele><time>2026-05-02T13:55:44.475Z</time></trkpt><trkpt lat="39.8887051" lon="8.581588"><ele>0.16666666666666666</ele><time>2026-05-02T13:55:45.476Z</time></trkpt><trkpt lat="39.8887214" lon="8.5817093"><ele>0.3333333333333333</ele><time>2026-05-02T13:55:46.477Z</time></trkpt><trkpt lat="39.8887308" lon="8.5818077"><ele>0.5</ele><time>2026-05-02T13:55:47.476Z</time></trkpt><trkpt lat="39.8887428" lon="8.5819546"><ele>0.6666666666666666</ele><time>2026-05-02T13:55:49.475Z</time></trkpt><trkpt lat="39.8887084" lon="8.5820529"><ele>0.8333333333333333</ele><time>2026-05-02T13:55:51.476Z</time></trkpt><trkpt lat="39.8886348" lon="8.5820663"><ele>1.0</ele><time>2026-05-02T13:55:53.475Z</time></trkpt><trkpt lat="39.88859" lon="8.5819774"><ele>1.0</ele><time>2026-05-02T13:55:55.476Z</time></trkpt><trkpt lat="39.8885845" lon="8.5818798"><ele>1.0</ele><time>2026-05-02T13:55:56.476Z</time></trkpt><trkpt lat="39.8885774" lon="8.5817716"><ele>1.0</ele><time>2026-05-02T13:55:57.475Z</time></trkpt><trkpt lat="39.8885625" lon="8.5816473"><ele>1.0</ele><time>2026-05-02T13:55:58.476Z</time></trkpt><trkpt lat="39.8885398" lon="8.5815124"><ele>1.0</ele><time>2026-05-02T13:55:59.477Z</time></trkpt><trkpt lat="39.8885187" lon="8.581373"><ele>1.0</ele><time>2026-05-02T13:56:00.477Z</time></trkpt><trkpt lat="39.8884989" lon="8.5812289"><ele>1.0</ele><time>2026-05-02T13:56:01.476Z</time></trkpt><trkpt lat="39.8884709" lon="8.5810938"><ele>1.0</ele><time>2026-05-02T13:56:02.476Z</time></trkpt><trkpt lat="39.8884115" lon="8.5809734"><ele>1.0</ele><time>2026-05-02T13:56:03.476Z</time></trkpt><trkpt lat="39.8883242" lon="8.5808813"><ele>1.0</ele><time>2026-05-02T13:56:04.476Z</time></trkpt><trkpt lat="39.888213" lon="8.5808151"><ele>0.5</ele><time>2026-05-02T13:56:05.476Z</time></trkpt><trkpt lat="39.8880827" lon="8.5807825"><ele>0.0</ele><time>2026-05-02T13:56:06.476Z</time></trkpt><trkpt lat="39.887946" lon="8.5807729"><ele>-0.5</ele><time>2026-05-02T13:56:07.477Z</time></trkpt><trkpt lat="39.8878071" lon="8.5807631"><ele>-1.0</ele><time>2026-05-02T13:56:08.474Z</time></trkpt><trkpt lat="39.8876675" lon="8.5807486"><ele>-0.25</ele><time>2026-05-02T13:56:09.474Z</time></trkpt><trkpt lat="39.8875264" lon="8.5807308"><ele>0.5</ele><time>2026-05-02T13:56:10.474Z</time></trkpt><trkpt lat="39.8873856" lon="8.5807084"><ele>1.25</ele><time>2026-05-02T13:56:11.475Z</time></trkpt><trkpt lat="39.8872433" lon="8.5806734"><ele>2.0</ele><time>2026-05-02T13:56:12.474Z</time></trkpt><trkpt lat="39.8870977" lon="8.5806215"><ele>2.0</ele><time>2026-05-02T13:56:13.474Z</time></trkpt><trkpt lat="39.8869503" lon="8.5805689"><ele>2.0</ele><time>2026-05-02T13:56:14.474Z</time></trkpt><trkpt lat="39.8867997" lon="8.5805204"><ele>2.0</ele><time>2026-05-02T13:56:15.475Z</time></trkpt><trkpt lat="39.8866464" lon="8.580473"><ele>1.6666666666666665</ele><time>2026-05-02T13:56:16.474Z</time></trkpt><trkpt lat="39.8864914" lon="8.5804261"><ele>1.3333333333333333</ele><time>2026-05-02T13:56:17.475Z</time></trkpt><trkpt lat="39.8863337" lon="8.5803781"><ele>1.0</ele><time>2026-05-02T13:56:18.475Z</time></trkpt><trkpt lat="39.8861756" lon="8.5803285"><ele>1.0</ele><time>2026-05-02T13:56:19.475Z</time></trkpt><trkpt lat="39.8860162" lon="8.5802756"><ele>1.0</ele><time>2026-05-02T13:56:20.476Z</time></trkpt><trkpt lat="39.8858555" lon="8.5802227"><ele>1.0</ele><time>2026-05-02T13:56:21.475Z</time></trkpt><trkpt lat="39.8856916" lon="8.5801706"><ele>1.0</ele><time>2026-05-02T13:56:22.476Z</time></trkpt><trkpt lat="39.8855268" lon="8.5801204"><ele>1.0</ele><time>2026-05-02T13:56:23.475Z</time></trkpt><trkpt lat="39.885362" lon="8.580065"><ele>1.0</ele><time>2026-05-02T13:56:24.475Z</time></trkpt><trkpt lat="39.8851955" lon="8.5800117"><ele>1.0</ele><time>2026-05-02T13:56:25.475Z</time></trkpt><trkpt lat="39.8850267" lon="8.5799554"><ele>1.0</ele><time>2026-05-02T13:56:26.476Z</time></trkpt><trkpt lat="39.8848549" lon="8.5798945"><ele>1.0</ele><time>2026-05-02T13:56:27.476Z</time></trkpt><trkpt lat="39.8846826" lon="8.5798305"><ele>1.0</ele><time>2026-05-02T13:56:28.474Z</time></trkpt><trkpt lat="39.8845112" lon="8.5797578"><ele>1.0</ele><time>2026-05-02T13:56:29.474Z</time></trkpt><trkpt lat="39.884338" lon="8.5796752"><ele>1.0</ele><time>2026-05-02T13:56:30.475Z</time></trkpt><trkpt lat="39.8841684" lon="8.5795858"><ele>1.3333333333333333</ele><time>2026-05-02T13:56:31.475Z</time></trkpt><trkpt lat="39.8839976" lon="8.5794927"><ele>1.6666666666666665</ele><time>2026-05-02T13:56:32.475Z</time></trkpt><trkpt lat="39.883825" lon="8.5793934"><ele>2.0</ele><time>2026-05-02T13:56:33.474Z</time></trkpt><trkpt lat="39.8836484" lon="8.5792915"><ele>2.0</ele><time>2026-05-02T13:56:34.474Z</time></trkpt><trkpt lat="39.8834664" lon="8.5791838"><ele>2.0</ele><time>2026-05-02T13:56:35.475Z</time></trkpt><trkpt lat="39.8832815" lon="8.5790741"><ele>2.0</ele><time>2026-05-02T13:56:36.474Z</time></trkpt><trkpt lat="39.8830957" lon="8.5789656"><ele>2.0</ele><time>2026-05-02T13:56:37.474Z</time></trkpt><trkpt lat="39.8829061" lon="8.5788587"><ele>2.0</ele><time>2026-05-02T13:56:38.475Z</time></trkpt><trkpt lat="39.8827202" lon="8.5787534"><ele>2.0</ele><time>2026-05-02T13:56:39.474Z</time></trkpt><trkpt lat="39.8825346" lon="8.5786497"><ele>2.0</ele><time>2026-05-02T13:56:40.474Z</time></trkpt><trkpt lat="39.8823525" lon="8.578544"><ele>2.0</ele><time>2026-05-02T13:56:41.475Z</time></trkpt><trkpt lat="39.8821705" lon="8.578437"><ele>2.0</ele><time>2026-05-02T13:56:42.475Z</time></trkpt><trkpt lat="39.881987" lon="8.5783316"><ele>2.0</ele><time>2026-05-02T13:56:43.475Z</time></trkpt><trkpt lat="39.881804" lon="8.5782256"><ele>2.0</ele><time>2026-05-02T13:56:44.474Z</time></trkpt><trkpt lat="39.8816222" lon="8.5781215"><ele>2.0</ele><time>2026-05-02T13:56:45.474Z</time></trkpt><trkpt lat="39.8814422" lon="8.5780225"><ele>1.6666666666666665</ele><time>2026-05-02T13:56:46.475Z</time></trkpt><trkpt lat="39.8812604" lon="8.5779198"><ele>1.3333333333333333</ele><time>2026-05-02T13:56:47.475Z</time></trkpt><trkpt lat="39.8810786" lon="8.5778131"><ele>1.0</ele><time>2026-05-02T13:56:48.474Z</time></trkpt><trkpt lat="39.880898" lon="8.5777042"><ele>0.6666666666666666</ele><time>2026-05-02T13:56:49.474Z</time></trkpt><trkpt lat="39.8807148" lon="8.577593"><ele>0.3333333333333333</ele><time>2026-05-02T13:56:50.474Z</time></trkpt><trkpt lat="39.8805323" lon="8.5774851"><ele>0.0</ele><time>2026-05-02T13:56:51.474Z</time></trkpt><trkpt lat="39.8803482" lon="8.5773782"><ele>0.0</ele><time>2026-05-02T13:56:52.474Z</time></trkpt><trkpt lat="39.8801645" lon="8.5772786"><ele>0.0</ele><time>2026-05-02T13:56:53.474Z</time></trkpt><trkpt lat="39.8799814" lon="8.5771775"><ele>0.0</ele><time>2026-05-02T13:56:54.475Z</time></trkpt><trkpt lat="39.8797951" lon="8.5770719"><ele>0.3333333333333333</ele><time>2026-05-02T13:56:55.476Z</time></trkpt><trkpt lat="39.8796089" lon="8.5769654"><ele>0.6666666666666666</ele><time>2026-05-02T13:56:56.476Z</time></trkpt><trkpt lat="39.8794221" lon="8.5768574"><ele>1.0</ele><time>2026-05-02T13:56:57.476Z</time></trkpt><trkpt lat="39.8792357" lon="8.5767488"><ele>1.0</ele><time>2026-05-02T13:56:58.475Z</time></trkpt><trkpt lat="39.87905" lon="8.5766414"><ele>1.0</ele><time>2026-05-02T13:56:59.476Z</time></trkpt><trkpt lat="39.878864" lon="8.5765328"><ele>1.0</ele><time>2026-05-02T13:57:00.475Z</time></trkpt><trkpt lat="39.8786774" lon="8.5764259"><ele>1.0</ele><time>2026-05-02T13:57:01.476Z</time></trkpt><trkpt lat="39.8784904" lon="8.576319"><ele>1.0</ele><time>2026-05-02T13:57:02.475Z</time></trkpt><trkpt lat="39.8783037" lon="8.5762076"><ele>1.0</ele><time>2026-05-02T13:57:03.476Z</time></trkpt><trkpt lat="39.8781161" lon="8.5760982"><ele>1.0</ele><time>2026-05-02T13:57:04.474Z</time></trkpt><trkpt lat="39.877927" lon="8.5759922"><ele>1.0</ele><time>2026-05-02T13:57:05.475Z</time></trkpt><trkpt lat="39.8777372" lon="8.5758831"><ele>1.0</ele><time>2026-05-02T13:57:06.474Z</time></trkpt><trkpt lat="39.8775491" lon="8.5757766"><ele>1.3333333333333333</ele><time>2026-05-02T13:57:07.476Z</time></trkpt><trkpt lat="39.8773618" lon="8.5756708"><ele>1.6666666666666665</ele><time>2026-05-02T13:57:08.476Z</time></trkpt><trkpt lat="39.8771785" lon="8.5755654"><ele>2.0</ele><time>2026-05-02T13:57:09.474Z</time></trkpt><trkpt lat="39.8769973" lon="8.5754548"><ele>1.6666666666666665</ele><time>2026-05-02T13:57:10.475Z</time></trkpt><trkpt lat="39.876822" lon="8.5753326"><ele>1.3333333333333333</ele><time>2026-05-02T13:57:11.476Z</time></trkpt><trkpt lat="39.8766566" lon="8.5751877"><ele>1.0</ele><time>2026-05-02T13:57:12.475Z</time></trkpt><trkpt lat="39.8765013" lon="8.5750242"><ele>1.0</ele><time>2026-05-02T13:57:13.475Z</time></trkpt><trkpt lat="39.8763564" lon="8.5748457"><ele>1.0</ele><time>2026-05-02T13:57:14.474Z</time></trkpt><trkpt lat="39.8762221" lon="8.5746561"><ele>1.0</ele><time>2026-05-02T13:57:15.474Z</time></trkpt><trkpt lat="39.876094" lon="8.5744596"><ele>1.0</ele><time>2026-05-02T13:57:16.474Z</time></trkpt><trkpt lat="39.8759631" lon="8.5742672"><ele>1.0</ele><time>2026-05-02T13:57:17.474Z</time></trkpt><trkpt lat="39.8758344" lon="8.5740775"><ele>1.0</ele><time>2026-05-02T13:57:18.475Z</time></trkpt><trkpt lat="39.8757067" lon="8.5738884"><ele>1.6666666666666665</ele><time>2026-05-02T13:57:19.475Z</time></trkpt><trkpt lat="39.87558" lon="8.5736988"><ele>2.3333333333333335</ele><time>2026-05-02T13:57:20.474Z</time></trkpt><trkpt lat="39.8754554" lon="8.573512"><ele>3.0</ele><time>2026-05-02T13:57:21.475Z</time></trkpt><trkpt lat="39.8753332" lon="8.5733265"><ele>3.0</ele><time>2026-05-02T13:57:22.475Z</time></trkpt><trkpt lat="39.875211" lon="8.5731423"><ele>3.0</ele><time>2026-05-02T13:57:23.475Z</time></trkpt><trkpt lat="39.8750881" lon="8.5729637"><ele>3.0</ele><time>2026-05-02T13:57:24.474Z</time></trkpt><trkpt lat="39.8749639" lon="8.5727819"><ele>3.333333333333333</ele><time>2026-05-02T13:57:25.474Z</time></trkpt><trkpt lat="39.8748402" lon="8.5726009"><ele>3.6666666666666665</ele><time>2026-05-02T13:57:26.474Z</time></trkpt><trkpt lat="39.8747181" lon="8.5724167"><ele>4.0</ele><time>2026-05-02T13:57:27.475Z</time></trkpt><trkpt lat="39.8745954" lon="8.5722378"><ele>4.0</ele><time>2026-05-02T13:57:28.475Z</time></trkpt><trkpt lat="39.874473" lon="8.5720588"><ele>4.0</ele><time>2026-05-02T13:57:29.475Z</time></trkpt><trkpt lat="39.8743501" lon="8.5718777"><ele>4.0</ele><time>2026-05-02T13:57:30.474Z</time></trkpt><trkpt lat="39.87423" lon="8.571696"><ele>3.333333333333333</ele><time>2026-05-02T13:57:31.474Z</time></trkpt><trkpt lat="39.8741093" lon="8.5715075"><ele>2.6666666666666665</ele><time>2026-05-02T13:57:32.474Z</time></trkpt><trkpt lat="39.8739828" lon="8.5713182"><ele>2.0</ele><time>2026-05-02T13:57:33.474Z</time></trkpt><trkpt lat="39.8738545" lon="8.5711313"><ele>2.0</ele><time>2026-05-02T13:57:34.474Z</time></trkpt><trkpt lat="39.8737244" lon="8.5709437"><ele>2.0</ele><time>2026-05-02T13:57:35.474Z</time></trkpt><trkpt lat="39.8735947" lon="8.5707549"><ele>2.0</ele><time>2026-05-02T13:57:36.476Z</time></trkpt><trkpt lat="39.8734652" lon="8.5705669"><ele>2.0</ele><time>2026-05-02T13:57:37.475Z</time></trkpt><trkpt lat="39.8733395" lon="8.5703758"><ele>2.0</ele><time>2026-05-02T13:57:38.476Z</time></trkpt><trkpt lat="39.8732153" lon="8.5701818"><ele>2.0</ele><time>2026-05-02T13:57:39.475Z</time></trkpt><trkpt lat="39.873088" lon="8.5699897"><ele>2.0</ele><time>2026-05-02T13:57:40.476Z</time></trkpt><trkpt lat="39.8729616" lon="8.569801"><ele>2.0</ele><time>2026-05-02T13:57:41.475Z</time></trkpt><trkpt lat="39.872836" lon="8.5696119"><ele>2.0</ele><time>2026-05-02T13:57:42.475Z</time></trkpt><trkpt lat="39.87271" lon="8.569427"><ele>2.6666666666666665</ele><time>2026-05-02T13:57:43.474Z</time></trkpt><trkpt lat="39.872575" lon="8.569253"><ele>3.333333333333333</ele><time>2026-05-02T13:57:44.474Z</time></trkpt><trkpt lat="39.8724238" lon="8.5691013"><ele>4.0</ele><time>2026-05-02T13:57:45.474Z</time></trkpt><trkpt lat="39.8722612" lon="8.5689741"><ele>4.0</ele><time>2026-05-02T13:57:46.475Z</time></trkpt><trkpt lat="39.8720864" lon="8.568878"><ele>4.0</ele><time>2026-05-02T13:57:47.475Z</time></trkpt><trkpt lat="39.8719021" lon="8.5688221"><ele>4.0</ele><time>2026-05-02T13:57:48.475Z</time></trkpt><trkpt lat="39.8717129" lon="8.568795"><ele>3.333333333333333</ele><time>2026-05-02T13:57:49.476Z</time></trkpt><trkpt lat="39.8715157" lon="8.5688002"><ele>2.6666666666666665</ele><time>2026-05-02T13:57:50.476Z</time></trkpt><trkpt lat="39.8713176" lon="8.5688149"><ele>2.0</ele><time>2026-05-02T13:57:51.476Z</time></trkpt><trkpt lat="39.87112" lon="8.5688333"><ele>2.333333333333333</ele><time>2026-05-02T13:57:52.476Z</time></trkpt><trkpt lat="39.8709242" lon="8.5688501"><ele>2.6666666666666665</ele><time>2026-05-02T13:57:53.475Z</time></trkpt><trkpt lat="39.8707308" lon="8.5688644"><ele>3.0</ele><time>2026-05-02T13:57:54.475Z</time></trkpt><trkpt lat="39.8705386" lon="8.5688827"><ele>3.0</ele><time>2026-05-02T13:57:55.475Z</time></trkpt><trkpt lat="39.8703509" lon="8.5689009"><ele>3.0</ele><time>2026-05-02T13:57:56.476Z</time></trkpt><trkpt lat="39.8701638" lon="8.5689169"><ele>3.0</ele><time>2026-05-02T13:57:57.474Z</time></trkpt><trkpt lat="39.8699744" lon="8.5689356"><ele>2.3333333333333335</ele><time>2026-05-02T13:57:58.474Z</time></trkpt><trkpt lat="39.8697845" lon="8.5689545"><ele>1.6666666666666665</ele><time>2026-05-02T13:57:59.475Z</time></trkpt><trkpt lat="39.8695929" lon="8.568975"><ele>1.0</ele><time>2026-05-02T13:58:00.475Z</time></trkpt><trkpt lat="39.8694023" lon="8.5689938"><ele>1.0</ele><time>2026-05-02T13:58:01.474Z</time></trkpt><trkpt lat="39.8692098" lon="8.5690082"><ele>1.0</ele><time>2026-05-02T13:58:02.474Z</time></trkpt><trkpt lat="39.8690153" lon="8.5690208"><ele>1.0</ele><time>2026-05-02T13:58:03.475Z</time></trkpt><trkpt lat="39.868823" lon="8.5690364"><ele>1.0</ele><time>2026-05-02T13:58:04.475Z</time></trkpt><trkpt lat="39.8686292" lon="8.5690575"><ele>1.0</ele><time>2026-05-02T13:58:05.475Z</time></trkpt><trkpt lat="39.8684347" lon="8.5690889"><ele>1.0</ele><time>2026-05-02T13:58:06.476Z</time></trkpt><trkpt lat="39.8682434" lon="8.569152"><ele>2.0</ele><time>2026-05-02T13:58:07.476Z</time></trkpt><trkpt lat="39.8680586" lon="8.5692422"><ele>3.0</ele><time>2026-05-02T13:58:08.476Z</time></trkpt><trkpt lat="39.8678772" lon="8.5693533"><ele>4.0</ele><time>2026-05-02T13:58:09.475Z</time></trkpt><trkpt lat="39.8677001" lon="8.5694847"><ele>4.333333333333333</ele><time>2026-05-02T13:58:10.476Z</time></trkpt><trkpt lat="39.8675344" lon="8.5696397"><ele>4.666666666666667</ele><time>2026-05-02T13:58:11.476Z</time></trkpt><trkpt lat="39.8673817" lon="8.5698204"><ele>5.0</ele><time>2026-05-02T13:58:12.475Z</time></trkpt><trkpt lat="39.8672375" lon="8.5700114"><ele>5.0</ele><time>2026-05-02T13:58:13.475Z</time></trkpt><trkpt lat="39.8670945" lon="8.5702028"><ele>5.0</ele><time>2026-05-02T13:58:14.474Z</time></trkpt><trkpt lat="39.8669516" lon="8.570392"><ele>5.0</ele><time>2026-05-02T13:58:15.475Z</time></trkpt><trkpt lat="39.866811" lon="8.570582"><ele>4.666666666666667</ele><time>2026-05-02T13:58:16.475Z</time></trkpt><trkpt lat="39.8666722" lon="8.5707729"><ele>4.333333333333333</ele><time>2026-05-02T13:58:17.475Z</time></trkpt><trkpt lat="39.8665333" lon="8.5709622"><ele>4.0</ele><time>2026-05-02T13:58:18.476Z</time></trkpt><trkpt lat="39.8663936" lon="8.5711506"><ele>3.6666666666666665</ele><time>2026-05-02T13:58:19.474Z</time></trkpt><trkpt lat="39.8662547" lon="8.5713387"><ele>3.333333333333333</ele><time>2026-05-02T13:58:20.476Z</time></trkpt><trkpt lat="39.8661141" lon="8.5715249"><ele>3.0</ele><time>2026-05-02T13:58:21.474Z</time></trkpt><trkpt lat="39.8659735" lon="8.5717099"><ele>3.333333333333333</ele><time>2026-05-02T13:58:22.475Z</time></trkpt><trkpt lat="39.8658337" lon="8.5718947"><ele>3.6666666666666665</ele><time>2026-05-02T13:58:23.475Z</time></trkpt><trkpt lat="39.8656881" lon="8.5720708"><ele>4.0</ele><time>2026-05-02T13:58:24.475Z</time></trkpt><trkpt lat="39.8655316" lon="8.5722319"><ele>4.0</ele><time>2026-05-02T13:58:25.475Z</time></trkpt><trkpt lat="39.865359" lon="8.572369"><ele>4.0</ele><time>2026-05-02T13:58:26.475Z</time></trkpt><trkpt lat="39.8651804" lon="8.5724878"><ele>4.0</ele><time>2026-05-02T13:58:27.474Z</time></trkpt><trkpt lat="39.8649953" lon="8.5725857"><ele>4.0</ele><time>2026-05-02T13:58:28.474Z</time></trkpt><trkpt lat="39.8648029" lon="8.5726626"><ele>4.0</ele><time>2026-05-02T13:58:29.475Z</time></trkpt><trkpt lat="39.8646057" lon="8.5727145"><ele>4.0</ele><time>2026-05-02T13:58:30.474Z</time></trkpt><trkpt lat="39.8644052" lon="8.5727477"><ele>3.6666666666666665</ele><time>2026-05-02T13:58:31.476Z</time></trkpt><trkpt lat="39.8642074" lon="8.5727705"><ele>3.333333333333333</ele><time>2026-05-02T13:58:32.475Z</time></trkpt><trkpt lat="39.8640073" lon="8.5727912"><ele>3.0</ele><time>2026-05-02T13:58:33.475Z</time></trkpt><trkpt lat="39.8638077" lon="8.5728164"><ele>3.0</ele><time>2026-05-02T13:58:34.475Z</time></trkpt><trkpt lat="39.863608" lon="8.5728443"><ele>3.0</ele><time>2026-05-02T13:58:35.475Z</time></trkpt><trkpt lat="39.8634094" lon="8.5728735"><ele>3.0</ele><time>2026-05-02T13:58:36.475Z</time></trkpt><trkpt lat="39.8632122" lon="8.5729003"><ele>3.666666666666667</ele><time>2026-05-02T13:58:37.474Z</time></trkpt><trkpt lat="39.8630132" lon="8.572925"><ele>4.333333333333334</ele><time>2026-05-02T13:58:38.474Z</time></trkpt><trkpt lat="39.8628099" lon="8.5729499"><ele>5.0</ele><time>2026-05-02T13:58:39.475Z</time></trkpt><trkpt lat="39.8626047" lon="8.5729769"><ele>5.0</ele><time>2026-05-02T13:58:40.475Z</time></trkpt><trkpt lat="39.8623979" lon="8.5730062"><ele>5.0</ele><time>2026-05-02T13:58:41.476Z</time></trkpt><trkpt lat="39.8621888" lon="8.5730342"><ele>5.0</ele><time>2026-05-02T13:58:42.475Z</time></trkpt><trkpt lat="39.8619775" lon="8.5730643"><ele>4.666666666666667</ele><time>2026-05-02T13:58:43.475Z</time></trkpt><trkpt lat="39.8617645" lon="8.5730946"><ele>4.333333333333333</ele><time>2026-05-02T13:58:44.476Z</time></trkpt><trkpt lat="39.8615494" lon="8.5731234"><ele>4.0</ele><time>2026-05-02T13:58:45.475Z</time></trkpt><trkpt lat="39.8613334" lon="8.5731513"><ele>4.0</ele><time>2026-05-02T13:58:46.475Z</time></trkpt><trkpt lat="39.8611159" lon="8.5731798"><ele>4.0</ele><time>2026-05-02T13:58:47.474Z</time></trkpt><trkpt lat="39.8608979" lon="8.5732091"><ele>4.0</ele><time>2026-05-02T13:58:48.475Z</time></trkpt><trkpt lat="39.8606783" lon="8.5732416"><ele>4.0</ele><time>2026-05-02T13:58:49.474Z</time></trkpt><trkpt lat="39.8604588" lon="8.5732755"><ele>4.0</ele><time>2026-05-02T13:58:50.474Z</time></trkpt><trkpt lat="39.8602399" lon="8.5733083"><ele>4.0</ele><time>2026-05-02T13:58:51.476Z</time></trkpt><trkpt lat="39.8600229" lon="8.5733392"><ele>4.0</ele><time>2026-05-02T13:58:52.474Z</time></trkpt><trkpt lat="39.8598067" lon="8.573369"><ele>4.0</ele><time>2026-05-02T13:58:53.475Z</time></trkpt><trkpt lat="39.8595928" lon="8.5733962"><ele>4.0</ele><time>2026-05-02T13:58:54.474Z</time></trkpt><trkpt lat="39.8593796" lon="8.5734235"><ele>3.333333333333333</ele><time>2026-05-02T13:58:55.475Z</time></trkpt><trkpt lat="39.8591687" lon="8.5734529"><ele>2.6666666666666665</ele><time>2026-05-02T13:58:56.475Z</time></trkpt><trkpt lat="39.8589595" lon="8.5734787"><ele>2.0</ele><time>2026-05-02T13:58:57.476Z</time></trkpt><trkpt lat="39.8587513" lon="8.5735033"><ele>2.0</ele><time>2026-05-02T13:58:58.476Z</time></trkpt><trkpt lat="39.8585417" lon="8.5735286"><ele>2.0</ele><time>2026-05-02T13:58:59.475Z</time></trkpt><trkpt lat="39.858332" lon="8.5735597"><ele>2.0</ele><time>2026-05-02T13:59:00.475Z</time></trkpt><trkpt lat="39.8581258" lon="8.5735937"><ele>2.333333333333333</ele><time>2026-05-02T13:59:01.476Z</time></trkpt><trkpt lat="39.8579206" lon="8.5736304"><ele>2.6666666666666665</ele><time>2026-05-02T13:59:02.475Z</time></trkpt><trkpt lat="39.8577134" lon="8.5736849"><ele>3.0</ele><time>2026-05-02T13:59:03.474Z</time></trkpt><trkpt lat="39.8575086" lon="8.5737597"><ele>3.666666666666667</ele><time>2026-05-02T13:59:04.475Z</time></trkpt><trkpt lat="39.8573059" lon="8.5738483"><ele>4.333333333333334</ele><time>2026-05-02T13:59:05.475Z</time></trkpt><trkpt lat="39.8571087" lon="8.5739521"><ele>5.0</ele><time>2026-05-02T13:59:06.476Z</time></trkpt><trkpt lat="39.8569167" lon="8.5740741"><ele>4.333333333333334</ele><time>2026-05-02T13:59:07.475Z</time></trkpt><trkpt lat="39.856731" lon="8.574213"><ele>3.666666666666667</ele><time>2026-05-02T13:59:08.476Z</time></trkpt><trkpt lat="39.8565522" lon="8.5743698"><ele>3.0</ele><time>2026-05-02T13:59:09.475Z</time></trkpt><trkpt lat="39.8563829" lon="8.5745442"><ele>3.333333333333333</ele><time>2026-05-02T13:59:10.474Z</time></trkpt><trkpt lat="39.8562222" lon="8.5747339"><ele>3.6666666666666665</ele><time>2026-05-02T13:59:11.476Z</time></trkpt><trkpt lat="39.8560676" lon="8.5749281"><ele>4.0</ele><time>2026-05-02T13:59:12.475Z</time></trkpt><trkpt lat="39.8559103" lon="8.5751185"><ele>4.0</ele><time>2026-05-02T13:59:13.476Z</time></trkpt><trkpt lat="39.8557529" lon="8.5753041"><ele>4.0</ele><time>2026-05-02T13:59:14.475Z</time></trkpt><trkpt lat="39.8555963" lon="8.5754921"><ele>4.0</ele><time>2026-05-02T13:59:15.475Z</time></trkpt><trkpt lat="39.8554419" lon="8.5756801"><ele>4.333333333333333</ele><time>2026-05-02T13:59:16.475Z</time></trkpt><trkpt lat="39.8552881" lon="8.5758667"><ele>4.666666666666667</ele><time>2026-05-02T13:59:17.475Z</time></trkpt><trkpt lat="39.8551357" lon="8.5760523"><ele>5.0</ele><time>2026-05-02T13:59:18.475Z</time></trkpt><trkpt lat="39.8549855" lon="8.5762371"><ele>5.0</ele><time>2026-05-02T13:59:19.476Z</time></trkpt><trkpt lat="39.8548353" lon="8.5764211"><ele>5.0</ele><time>2026-05-02T13:59:20.476Z</time></trkpt><trkpt lat="39.8546871" lon="8.5766045"><ele>5.0</ele><time>2026-05-02T13:59:21.475Z</time></trkpt><trkpt lat="39.854539" lon="8.5767842"><ele>5.0</ele><time>2026-05-02T13:59:22.474Z</time></trkpt><trkpt lat="39.8543916" lon="8.5769623"><ele>5.0</ele><time>2026-05-02T13:59:23.475Z</time></trkpt><trkpt lat="39.8542477" lon="8.5771323"><ele>5.0</ele><time>2026-05-02T13:59:24.476Z</time></trkpt><trkpt lat="39.854119" lon="8.5772806"><ele>4.75</ele><time>2026-05-02T13:59:25.474Z</time></trkpt><trkpt lat="39.8540015" lon="8.5774123"><ele>4.5</ele><time>2026-05-02T13:59:26.476Z</time></trkpt><trkpt lat="39.8538982" lon="8.5775101"><ele>4.25</ele><time>2026-05-02T13:59:27.476Z</time></trkpt><trkpt lat="39.8538021" lon="8.5775684"><ele>4.0</ele><time>2026-05-02T13:59:28.474Z</time></trkpt><trkpt lat="39.8537166" lon="8.5776041"><ele>3.9999999999999996</ele><time>2026-05-02T13:59:29.474Z</time></trkpt><trkpt lat="39.8536423" lon="8.577638"><ele>4.0</ele><time>2026-05-02T13:59:30.474Z</time></trkpt><trkpt lat="39.8535798" lon="8.5776859"><ele>4.0</ele><time>2026-05-02T13:59:31.475Z</time></trkpt><trkpt lat="39.8535335" lon="8.5777704"><ele>4.0</ele><time>2026-05-02T13:59:32.476Z</time></trkpt><trkpt lat="39.8535071" lon="8.5778877"><ele>3.9999999999999996</ele><time>2026-05-02T13:59:33.475Z</time></trkpt><trkpt lat="39.8534637" lon="8.5780233"><ele>4.0</ele><time>2026-05-02T13:59:34.474Z</time></trkpt><trkpt lat="39.8533877" lon="8.5781579"><ele>3.0</ele><time>2026-05-02T13:59:35.476Z</time></trkpt><trkpt lat="39.8532855" lon="8.5782929"><ele>2.0</ele><time>2026-05-02T13:59:36.475Z</time></trkpt><trkpt lat="39.8531712" lon="8.57844"><ele>1.0</ele><time>2026-05-02T13:59:37.475Z</time></trkpt><trkpt lat="39.8530486" lon="8.5785991"><ele>1.6666666666666665</ele><time>2026-05-02T13:59:38.475Z</time></trkpt><trkpt lat="39.8529193" lon="8.5787649"><ele>2.3333333333333335</ele><time>2026-05-02T13:59:39.474Z</time></trkpt><trkpt lat="39.8527838" lon="8.5789317"><ele>3.0</ele><time>2026-05-02T13:59:40.475Z</time></trkpt><trkpt lat="39.852639" lon="8.5791091"><ele>3.0</ele><time>2026-05-02T13:59:41.475Z</time></trkpt><trkpt lat="39.8524907" lon="8.579292"><ele>3.0</ele><time>2026-05-02T13:59:42.475Z</time></trkpt><trkpt lat="39.8523393" lon="8.579481"><ele>3.0</ele><time>2026-05-02T13:59:43.475Z</time></trkpt><trkpt lat="39.8521807" lon="8.5796763"><ele>4.0</ele><time>2026-05-02T13:59:44.475Z</time></trkpt><trkpt lat="39.8520156" lon="8.5798773"><ele>5.0</ele><time>2026-05-02T13:59:45.476Z</time></trkpt><trkpt lat="39.8518473" lon="8.5800843"><ele>3.5</ele><time>2026-05-02T13:59:46.474Z</time></trkpt><trkpt lat="39.8516644" lon="8.5803122"><ele>2.0</ele><time>2026-05-02T13:59:47.474Z</time></trkpt><trkpt lat="39.8514775" lon="8.5805508"><ele>2.0</ele><time>2026-05-02T13:59:48.475Z</time></trkpt><trkpt lat="39.8512957" lon="8.5807894"><ele>2.0</ele><time>2026-05-02T13:59:49.476Z</time></trkpt><trkpt lat="39.8511129" lon="8.5810424"><ele>1.5</ele><time>2026-05-02T13:59:50.475Z</time></trkpt><trkpt lat="39.8509321" lon="8.5813122"><ele>1.0</ele><time>2026-05-02T13:59:51.475Z</time></trkpt><trkpt lat="39.8507624" lon="8.5815931"><ele>1.0</ele><time>2026-05-02T13:59:52.475Z</time></trkpt><trkpt lat="39.8506069" lon="8.5818792"><ele>1.0</ele><time>2026-05-02T13:59:53.475Z</time></trkpt><trkpt lat="39.85046" lon="8.5821617"><ele>2.0</ele><time>2026-05-02T13:59:54.474Z</time></trkpt><trkpt lat="39.8503192" lon="8.5824407"><ele>3.0</ele><time>2026-05-02T13:59:55.476Z</time></trkpt><trkpt lat="39.8501792" lon="8.5827145"><ele>3.5</ele><time>2026-05-02T13:59:56.476Z</time></trkpt><trkpt lat="39.8500417" lon="8.5829824"><ele>4.0</ele><time>2026-05-02T13:59:57.476Z</time></trkpt><trkpt lat="39.8499054" lon="8.5832458"><ele>4.0</ele><time>2026-05-02T13:59:58.475Z</time></trkpt><trkpt lat="39.8497714" lon="8.583506"><ele>4.0</ele><time>2026-05-02T13:59:59.474Z</time></trkpt><trkpt lat="39.8496413" lon="8.583762"><ele>3.5</ele><time>2026-05-02T14:00:00.476Z</time></trkpt><trkpt lat="39.8495134" lon="8.5840188"><ele>3.0</ele><time>2026-05-02T14:00:01.475Z</time></trkpt><trkpt lat="39.8493892" lon="8.5842748"><ele>2.5</ele><time>2026-05-02T14:00:02.474Z</time></trkpt><trkpt lat="39.8492641" lon="8.5845315"><ele>2.0</ele><time>2026-05-02T14:00:03.475Z</time></trkpt><trkpt lat="39.8491384" lon="8.584786"><ele>2.0</ele><time>2026-05-02T14:00:04.475Z</time></trkpt><trkpt lat="39.8490113" lon="8.5850365"><ele>2.0</ele><time>2026-05-02T14:00:05.475Z</time></trkpt><trkpt lat="39.8488841" lon="8.5852861"><ele>2.5</ele><time>2026-05-02T14:00:06.476Z</time></trkpt><trkpt lat="39.8487588" lon="8.5855353"><ele>3.0</ele><time>2026-05-02T14:00:07.476Z</time></trkpt><trkpt lat="39.8486366" lon="8.5857832"><ele>3.0</ele><time>2026-05-02T14:00:08.474Z</time></trkpt><trkpt lat="39.8485153" lon="8.5860273"><ele>3.0</ele><time>2026-05-02T14:00:09.475Z</time></trkpt><trkpt lat="39.8483951" lon="8.5862695"><ele>3.0</ele><time>2026-05-02T14:00:10.476Z</time></trkpt><trkpt lat="39.8482728" lon="8.5865115"><ele>3.333333333333333</ele><time>2026-05-02T14:00:11.474Z</time></trkpt><trkpt lat="39.84815" lon="8.5867543"><ele>3.6666666666666665</ele><time>2026-05-02T14:00:12.476Z</time></trkpt><trkpt lat="39.8480301" lon="8.5869979"><ele>4.0</ele><time>2026-05-02T14:00:13.475Z</time></trkpt><trkpt lat="39.8479101" lon="8.5872408"><ele>4.333333333333333</ele><time>2026-05-02T14:00:14.475Z</time></trkpt><trkpt lat="39.8477888" lon="8.5874833"><ele>4.666666666666667</ele><time>2026-05-02T14:00:15.474Z</time></trkpt><trkpt lat="39.8476671" lon="8.5877248"><ele>5.0</ele><time>2026-05-02T14:00:16.475Z</time></trkpt><trkpt lat="39.8475474" lon="8.5879643"><ele>5.0</ele><time>2026-05-02T14:00:17.473Z</time></trkpt><trkpt lat="39.8474277" lon="8.5881988"><ele>5.0</ele><time>2026-05-02T14:00:18.474Z</time></trkpt><trkpt lat="39.8473155" lon="8.5884224"><ele>5.0</ele><time>2026-05-02T14:00:19.474Z</time></trkpt><trkpt lat="39.8472128" lon="8.588628"><ele>4.333333333333334</ele><time>2026-05-02T14:00:20.475Z</time></trkpt><trkpt lat="39.8471108" lon="8.5888157"><ele>3.666666666666667</ele><time>2026-05-02T14:00:21.475Z</time></trkpt><trkpt lat="39.8469994" lon="8.588969"><ele>3.0</ele><time>2026-05-02T14:00:22.474Z</time></trkpt><trkpt lat="39.8468719" lon="8.5890903"><ele>2.6666666666666665</ele><time>2026-05-02T14:00:23.474Z</time></trkpt><trkpt lat="39.8467285" lon="8.5891834"><ele>2.333333333333333</ele><time>2026-05-02T14:00:24.475Z</time></trkpt><trkpt lat="39.8465769" lon="8.5892411"><ele>2.0</ele><time>2026-05-02T14:00:25.473Z</time></trkpt><trkpt lat="39.8464179" lon="8.5892587"><ele>2.0</ele><time>2026-05-02T14:00:26.474Z</time></trkpt><trkpt lat="39.8462538" lon="8.5892315"><ele>2.0</ele><time>2026-05-02T14:00:27.474Z</time></trkpt><trkpt lat="39.8460974" lon="8.5891565"><ele>2.0</ele><time>2026-05-02T14:00:28.475Z</time></trkpt><trkpt lat="39.8459529" lon="8.5890417"><ele>2.0</ele><time>2026-05-02T14:00:29.474Z</time></trkpt><trkpt lat="39.845812" lon="8.5889046"><ele>2.0</ele><time>2026-05-02T14:00:30.475Z</time></trkpt><trkpt lat="39.8456625" lon="8.5887676"><ele>2.0</ele><time>2026-05-02T14:00:31.474Z</time></trkpt><trkpt lat="39.8455025" lon="8.5886471"><ele>2.0</ele><time>2026-05-02T14:00:32.474Z</time></trkpt><trkpt lat="39.8453337" lon="8.5885434"><ele>2.0</ele><time>2026-05-02T14:00:33.475Z</time></trkpt><trkpt lat="39.8451577" lon="8.5884576"><ele>2.0</ele><time>2026-05-02T14:00:34.475Z</time></trkpt><trkpt lat="39.8449773" lon="8.5883918"><ele>2.333333333333333</ele><time>2026-05-02T14:00:35.473Z</time></trkpt><trkpt lat="39.8448013" lon="8.5883263"><ele>2.6666666666666665</ele><time>2026-05-02T14:00:36.473Z</time></trkpt><trkpt lat="39.8446249" lon="8.5882521"><ele>3.0</ele><time>2026-05-02T14:00:37.474Z</time></trkpt><trkpt lat="39.8444477" lon="8.5881733"><ele>3.333333333333333</ele><time>2026-05-02T14:00:38.473Z</time></trkpt><trkpt lat="39.8442705" lon="8.58809"><ele>3.6666666666666665</ele><time>2026-05-02T14:00:39.474Z</time></trkpt><trkpt lat="39.844091" lon="8.5880069"><ele>4.0</ele><time>2026-05-02T14:00:40.473Z</time></trkpt><trkpt lat="39.8439115" lon="8.5879224"><ele>3.333333333333333</ele><time>2026-05-02T14:00:41.473Z</time></trkpt><trkpt lat="39.8437298" lon="8.5878399"><ele>2.6666666666666665</ele><time>2026-05-02T14:00:42.475Z</time></trkpt><trkpt lat="39.8435436" lon="8.5877567"><ele>2.0</ele><time>2026-05-02T14:00:43.473Z</time></trkpt><trkpt lat="39.8433552" lon="8.5876703"><ele>2.0</ele><time>2026-05-02T14:00:44.474Z</time></trkpt><trkpt lat="39.8431715" lon="8.5875892"><ele>2.0</ele><time>2026-05-02T14:00:45.475Z</time></trkpt><trkpt lat="39.8429962" lon="8.5875128"><ele>2.0</ele><time>2026-05-02T14:00:46.475Z</time></trkpt><trkpt lat="39.8428204" lon="8.5874355"><ele>2.0</ele><time>2026-05-02T14:00:47.473Z</time></trkpt><trkpt lat="39.842648" lon="8.5873599"><ele>2.0</ele><time>2026-05-02T14:00:48.474Z</time></trkpt><trkpt lat="39.8424808" lon="8.5872833"><ele>2.0</ele><time>2026-05-02T14:00:49.474Z</time></trkpt><trkpt lat="39.8423171" lon="8.5872076"><ele>2.333333333333333</ele><time>2026-05-02T14:00:50.475Z</time></trkpt><trkpt lat="39.842152" lon="8.587134"><ele>2.6666666666666665</ele><time>2026-05-02T14:00:51.474Z</time></trkpt><trkpt lat="39.8419909" lon="8.5870613"><ele>3.0</ele><time>2026-05-02T14:00:52.474Z</time></trkpt><trkpt lat="39.8418296" lon="8.5869873"><ele>4.0</ele><time>2026-05-02T14:00:53.475Z</time></trkpt><trkpt lat="39.8416706" lon="8.5869195"><ele>5.0</ele><time>2026-05-02T14:00:54.473Z</time></trkpt><trkpt lat="39.841505" lon="8.5868446"><ele>6.0</ele><time>2026-05-02T14:00:55.474Z</time></trkpt><trkpt lat="39.8413348" lon="8.5867708"><ele>6.0</ele><time>2026-05-02T14:00:56.474Z</time></trkpt><trkpt lat="39.841161" lon="8.5866953"><ele>6.0</ele><time>2026-05-02T14:00:57.475Z</time></trkpt><trkpt lat="39.840985" lon="8.5866142"><ele>6.0</ele><time>2026-05-02T14:00:58.475Z</time></trkpt><trkpt lat="39.8408079" lon="8.586527"><ele>6.0</ele><time>2026-05-02T14:00:59.474Z</time></trkpt><trkpt lat="39.8406252" lon="8.586439"><ele>6.0</ele><time>2026-05-02T14:01:00.474Z</time></trkpt><trkpt lat="39.8404349" lon="8.5863534"><ele>6.0</ele><time>2026-05-02T14:01:01.473Z</time></trkpt><trkpt lat="39.8402386" lon="8.5862682"><ele>5.666666666666667</ele><time>2026-05-02T14:01:02.474Z</time></trkpt><trkpt lat="39.840039" lon="8.5861812"><ele>5.333333333333334</ele><time>2026-05-02T14:01:03.474Z</time></trkpt><trkpt lat="39.8398364" lon="8.5860905"><ele>5.0</ele><time>2026-05-02T14:01:04.475Z</time></trkpt><trkpt lat="39.8396315" lon="8.5859958"><ele>4.666666666666667</ele><time>2026-05-02T14:01:05.475Z</time></trkpt><trkpt lat="39.8394269" lon="8.5859004"><ele>4.333333333333333</ele><time>2026-05-02T14:01:06.474Z</time></trkpt><trkpt lat="39.8392209" lon="8.5858055"><ele>4.0</ele><time>2026-05-02T14:01:07.475Z</time></trkpt><trkpt lat="39.8390165" lon="8.585717"><ele>4.0</ele><time>2026-05-02T14:01:08.474Z</time></trkpt><trkpt lat="39.8388152" lon="8.5856339"><ele>4.0</ele><time>2026-05-02T14:01:09.475Z</time></trkpt><trkpt lat="39.8386198" lon="8.585548"><ele>4.0</ele><time>2026-05-02T14:01:10.475Z</time></trkpt><trkpt lat="39.8384252" lon="8.5854597"><ele>3.6666666666666665</ele><time>2026-05-02T14:01:11.474Z</time></trkpt><trkpt lat="39.838232" lon="8.5853693"><ele>3.333333333333333</ele><time>2026-05-02T14:01:12.474Z</time></trkpt><trkpt lat="39.8380405" lon="8.5852813"><ele>3.0</ele><time>2026-05-02T14:01:13.475Z</time></trkpt><trkpt lat="39.8378535" lon="8.5851946"><ele>3.333333333333333</ele><time>2026-05-02T14:01:14.474Z</time></trkpt><trkpt lat="39.8376691" lon="8.5851105"><ele>3.6666666666666665</ele><time>2026-05-02T14:01:15.474Z</time></trkpt><trkpt lat="39.8374843" lon="8.5850293"><ele>4.0</ele><time>2026-05-02T14:01:16.473Z</time></trkpt><trkpt lat="39.8373016" lon="8.5849465"><ele>4.0</ele><time>2026-05-02T14:01:17.475Z</time></trkpt><trkpt lat="39.8371194" lon="8.584862"><ele>4.0</ele><time>2026-05-02T14:01:18.475Z</time></trkpt><trkpt lat="39.8369357" lon="8.5847786"><ele>4.0</ele><time>2026-05-02T14:01:19.475Z</time></trkpt><trkpt lat="39.8367475" lon="8.5846948"><ele>4.0</ele><time>2026-05-02T14:01:20.474Z</time></trkpt><trkpt lat="39.8365586" lon="8.5846077"><ele>4.0</ele><time>2026-05-02T14:01:21.473Z</time></trkpt><trkpt lat="39.8363718" lon="8.5845147"><ele>4.0</ele><time>2026-05-02T14:01:22.474Z</time></trkpt><trkpt lat="39.8361838" lon="8.5844185"><ele>4.0</ele><time>2026-05-02T14:01:23.473Z</time></trkpt><trkpt lat="39.8359964" lon="8.5843149"><ele>4.0</ele><time>2026-05-02T14:01:24.474Z</time></trkpt><trkpt lat="39.835811" lon="8.5842083"><ele>4.0</ele><time>2026-05-02T14:01:25.474Z</time></trkpt><trkpt lat="39.8356219" lon="8.5841047"><ele>4.333333333333333</ele><time>2026-05-02T14:01:26.474Z</time></trkpt><trkpt lat="39.8354339" lon="8.5840032"><ele>4.666666666666667</ele><time>2026-05-02T14:01:27.474Z</time></trkpt><trkpt lat="39.835244" lon="8.5839004"><ele>5.0</ele><time>2026-05-02T14:01:28.474Z</time></trkpt><trkpt lat="39.8350552" lon="8.5837944"><ele>5.0</ele><time>2026-05-02T14:01:29.473Z</time></trkpt><trkpt lat="39.8348645" lon="8.5836899"><ele>5.0</ele><time>2026-05-02T14:01:30.475Z</time></trkpt><trkpt lat="39.834672" lon="8.5835867"><ele>5.0</ele><time>2026-05-02T14:01:31.475Z</time></trkpt><trkpt lat="39.8344771" lon="8.5834819"><ele>5.0</ele><time>2026-05-02T14:01:32.474Z</time></trkpt><trkpt lat="39.8342857" lon="8.5833744"><ele>5.0</ele><time>2026-05-02T14:01:33.473Z</time></trkpt><trkpt lat="39.8340939" lon="8.583267"><ele>5.0</ele><time>2026-05-02T14:01:34.473Z</time></trkpt><trkpt lat="39.8339061" lon="8.5831639"><ele>5.0</ele><time>2026-05-02T14:01:35.475Z</time></trkpt><trkpt lat="39.8337135" lon="8.5830621"><ele>5.0</ele><time>2026-05-02T14:01:36.474Z</time></trkpt><trkpt lat="39.8335211" lon="8.5829567"><ele>5.0</ele><time>2026-05-02T14:01:37.474Z</time></trkpt><trkpt lat="39.8333286" lon="8.5828508"><ele>4.666666666666667</ele><time>2026-05-02T14:01:38.474Z</time></trkpt><trkpt lat="39.8331388" lon="8.5827427"><ele>4.333333333333333</ele><time>2026-05-02T14:01:39.473Z</time></trkpt><trkpt lat="39.8329507" lon="8.582635"><ele>4.0</ele><time>2026-05-02T14:01:40.474Z</time></trkpt><trkpt lat="39.8327588" lon="8.5825337"><ele>4.333333333333333</ele><time>2026-05-02T14:01:41.473Z</time></trkpt><trkpt lat="39.8325673" lon="8.582428"><ele>4.666666666666667</ele><time>2026-05-02T14:01:42.474Z</time></trkpt><trkpt lat="39.8323769" lon="8.5823218"><ele>5.0</ele><time>2026-05-02T14:01:43.473Z</time></trkpt><trkpt lat="39.8321888" lon="8.5822188"><ele>5.0</ele><time>2026-05-02T14:01:44.473Z</time></trkpt><trkpt lat="39.8319987" lon="8.5821182"><ele>5.0</ele><time>2026-05-02T14:01:45.473Z</time></trkpt><trkpt lat="39.8318081" lon="8.5820178"><ele>5.0</ele><time>2026-05-02T14:01:46.474Z</time></trkpt><trkpt lat="39.8316199" lon="8.5819169"><ele>5.333333333333334</ele><time>2026-05-02T14:01:47.475Z</time></trkpt><trkpt lat="39.8314304" lon="8.5818113"><ele>5.666666666666667</ele><time>2026-05-02T14:01:48.474Z</time></trkpt><trkpt lat="39.8312443" lon="8.5817025"><ele>6.0</ele><time>2026-05-02T14:01:49.475Z</time></trkpt><trkpt lat="39.8310564" lon="8.5815946"><ele>6.0</ele><time>2026-05-02T14:01:50.473Z</time></trkpt><trkpt lat="39.8308661" lon="8.5814892"><ele>6.0</ele><time>2026-05-02T14:01:51.474Z</time></trkpt><trkpt lat="39.8306747" lon="8.5813835"><ele>6.0</ele><time>2026-05-02T14:01:52.474Z</time></trkpt><trkpt lat="39.8304848" lon="8.5812776"><ele>6.333333333333334</ele><time>2026-05-02T14:01:53.473Z</time></trkpt><trkpt lat="39.8302932" lon="8.5811714"><ele>6.666666666666667</ele><time>2026-05-02T14:01:54.473Z</time></trkpt><trkpt lat="39.8300997" lon="8.5810674"><ele>7.0</ele><time>2026-05-02T14:01:55.474Z</time></trkpt><trkpt lat="39.8299068" lon="8.5809613"><ele>7.0</ele><time>2026-05-02T14:01:56.473Z</time></trkpt><trkpt lat="39.829715" lon="8.5808554"><ele>7.0</ele><time>2026-05-02T14:01:57.473Z</time></trkpt><trkpt lat="39.8295235" lon="8.5807471"><ele>7.0</ele><time>2026-05-02T14:01:58.474Z</time></trkpt><trkpt lat="39.8293305" lon="8.5806404"><ele>7.666666666666667</ele><time>2026-05-02T14:01:59.475Z</time></trkpt><trkpt lat="39.8291369" lon="8.5805354"><ele>8.333333333333334</ele><time>2026-05-02T14:02:00.475Z</time></trkpt><trkpt lat="39.8289433" lon="8.5804305"><ele>9.0</ele><time>2026-05-02T14:02:01.473Z</time></trkpt><trkpt lat="39.8287508" lon="8.5803279"><ele>8.666666666666666</ele><time>2026-05-02T14:02:02.474Z</time></trkpt><trkpt lat="39.8285638" lon="8.5802268"><ele>8.333333333333332</ele><time>2026-05-02T14:02:03.474Z</time></trkpt><trkpt lat="39.8283763" lon="8.5801237"><ele>8.0</ele><time>2026-05-02T14:02:04.474Z</time></trkpt><trkpt lat="39.8281893" lon="8.58002"><ele>8.0</ele><time>2026-05-02T14:02:05.474Z</time></trkpt><trkpt lat="39.8280017" lon="8.5799184"><ele>8.0</ele><time>2026-05-02T14:02:06.474Z</time></trkpt><trkpt lat="39.8278145" lon="8.5798161"><ele>8.0</ele><time>2026-05-02T14:02:07.474Z</time></trkpt><trkpt lat="39.827626" lon="8.5797158"><ele>7.666666666666666</ele><time>2026-05-02T14:02:08.473Z</time></trkpt><trkpt lat="39.8274396" lon="8.5796134"><ele>7.333333333333334</ele><time>2026-05-02T14:02:09.474Z</time></trkpt><trkpt lat="39.8272503" lon="8.5795115"><ele>7.0</ele><time>2026-05-02T14:02:10.475Z</time></trkpt><trkpt lat="39.827062" lon="8.5794088"><ele>6.666666666666667</ele><time>2026-05-02T14:02:11.474Z</time></trkpt><trkpt lat="39.8268742" lon="8.5793042"><ele>6.333333333333334</ele><time>2026-05-02T14:02:12.475Z</time></trkpt><trkpt lat="39.8266939" lon="8.5791897"><ele>6.0</ele><time>2026-05-02T14:02:13.473Z</time></trkpt><trkpt lat="39.8265244" lon="8.5790487"><ele>5.666666666666667</ele><time>2026-05-02T14:02:14.473Z</time></trkpt><trkpt lat="39.8263599" lon="8.5788879"><ele>5.333333333333334</ele><time>2026-05-02T14:02:15.474Z</time></trkpt><trkpt lat="39.8261972" lon="8.5787202"><ele>5.0</ele><time>2026-05-02T14:02:16.473Z</time></trkpt><trkpt lat="39.8260363" lon="8.578548"><ele>5.0</ele><time>2026-05-02T14:02:17.474Z</time></trkpt><trkpt lat="39.8258746" lon="8.5783749"><ele>5.0</ele><time>2026-05-02T14:02:18.475Z</time></trkpt><trkpt lat="39.8257137" lon="8.5782062"><ele>5.0</ele><time>2026-05-02T14:02:19.474Z</time></trkpt><trkpt lat="39.8255577" lon="8.5780413"><ele>5.0</ele><time>2026-05-02T14:02:20.473Z</time></trkpt><trkpt lat="39.8254067" lon="8.5778769"><ele>5.0</ele><time>2026-05-02T14:02:21.474Z</time></trkpt><trkpt lat="39.8252557" lon="8.577717"><ele>5.0</ele><time>2026-05-02T14:02:22.473Z</time></trkpt><trkpt lat="39.8251028" lon="8.5775616"><ele>4.666666666666667</ele><time>2026-05-02T14:02:23.475Z</time></trkpt><trkpt lat="39.8249361" lon="8.577426"><ele>4.333333333333333</ele><time>2026-05-02T14:02:24.474Z</time></trkpt><trkpt lat="39.8247591" lon="8.5773186"><ele>4.0</ele><time>2026-05-02T14:02:25.473Z</time></trkpt><trkpt lat="39.8245698" lon="8.5772317"><ele>4.0</ele><time>2026-05-02T14:02:26.474Z</time></trkpt><trkpt lat="39.8243793" lon="8.5771597"><ele>4.0</ele><time>2026-05-02T14:02:27.474Z</time></trkpt><trkpt lat="39.8241902" lon="8.577089"><ele>4.0</ele><time>2026-05-02T14:02:28.475Z</time></trkpt><trkpt lat="39.8240034" lon="8.5770185"><ele>3.0</ele><time>2026-05-02T14:02:29.473Z</time></trkpt><trkpt lat="39.8238224" lon="8.5769454"><ele>2.0</ele><time>2026-05-02T14:02:30.475Z</time></trkpt><trkpt lat="39.8236422" lon="8.5768853"><ele>1.0</ele><time>2026-05-02T14:02:31.474Z</time></trkpt><trkpt lat="39.8234526" lon="8.5768595"><ele>1.0</ele><time>2026-05-02T14:02:32.475Z</time></trkpt><trkpt lat="39.8232626" lon="8.5768759"><ele>1.0</ele><time>2026-05-02T14:02:33.475Z</time></trkpt><trkpt lat="39.8230717" lon="8.5769082"><ele>1.0</ele><time>2026-05-02T14:02:34.474Z</time></trkpt><trkpt lat="39.8228798" lon="8.576942"><ele>1.0</ele><time>2026-05-02T14:02:35.475Z</time></trkpt><trkpt lat="39.822687" lon="8.5769782"><ele>1.0</ele><time>2026-05-02T14:02:36.475Z</time></trkpt><trkpt lat="39.8224943" lon="8.5770099"><ele>1.0</ele><time>2026-05-02T14:02:37.474Z</time></trkpt><trkpt lat="39.822303" lon="8.5770313"><ele>1.0</ele><time>2026-05-02T14:02:38.474Z</time></trkpt><trkpt lat="39.8221134" lon="8.5770226"><ele>1.0</ele><time>2026-05-02T14:02:39.474Z</time></trkpt><trkpt lat="39.8219232" lon="8.5769849"><ele>1.0</ele><time>2026-05-02T14:02:40.473Z</time></trkpt><trkpt lat="39.8217417" lon="8.5768932"><ele>0.6666666666666666</ele><time>2026-05-02T14:02:41.473Z</time></trkpt><trkpt lat="39.8215741" lon="8.5767721"><ele>0.3333333333333333</ele><time>2026-05-02T14:02:42.474Z</time></trkpt><trkpt lat="39.8214175" lon="8.5766245"><ele>0.0</ele><time>2026-05-02T14:02:43.473Z</time></trkpt><trkpt lat="39.8212632" lon="8.5764659"><ele>0.0</ele><time>2026-05-02T14:02:44.474Z</time></trkpt><trkpt lat="39.8211146" lon="8.576298"><ele>0.0</ele><time>2026-05-02T14:02:45.474Z</time></trkpt><trkpt lat="39.8209672" lon="8.5761272"><ele>0.0</ele><time>2026-05-02T14:02:46.473Z</time></trkpt><trkpt lat="39.8208175" lon="8.5759584"><ele>0.0</ele><time>2026-05-02T14:02:47.474Z</time></trkpt><trkpt lat="39.8206645" lon="8.5757925"><ele>0.0</ele><time>2026-05-02T14:02:48.475Z</time></trkpt><trkpt lat="39.820515" lon="8.5756274"><ele>0.0</ele><time>2026-05-02T14:02:49.474Z</time></trkpt><trkpt lat="39.8203713" lon="8.5754616"><ele>0.0</ele><time>2026-05-02T14:02:50.473Z</time></trkpt><trkpt lat="39.8202291" lon="8.575294"><ele>0.0</ele><time>2026-05-02T14:02:51.474Z</time></trkpt><trkpt lat="39.8200871" lon="8.5751273"><ele>0.0</ele><time>2026-05-02T14:02:52.474Z</time></trkpt><trkpt lat="39.8199429" lon="8.5749567"><ele>-0.3333333333333333</ele><time>2026-05-02T14:02:53.474Z</time></trkpt><trkpt lat="39.819798" lon="8.5747882"><ele>-0.6666666666666666</ele><time>2026-05-02T14:02:54.474Z</time></trkpt><trkpt lat="39.8196466" lon="8.5746289"><ele>-1.0</ele><time>2026-05-02T14:02:55.474Z</time></trkpt><trkpt lat="39.8194759" lon="8.5744965"><ele>-0.3333333333333333</ele><time>2026-05-02T14:02:56.474Z</time></trkpt><trkpt lat="39.819286" lon="8.5743993"><ele>0.3333333333333333</ele><time>2026-05-02T14:02:57.475Z</time></trkpt><trkpt lat="39.8190933" lon="8.5743388"><ele>1.0</ele><time>2026-05-02T14:02:58.473Z</time></trkpt><trkpt lat="39.8188987" lon="8.5742915"><ele>1.0</ele><time>2026-05-02T14:02:59.474Z</time></trkpt><trkpt lat="39.8187122" lon="8.5742588"><ele>1.0</ele><time>2026-05-02T14:03:00.474Z</time></trkpt><trkpt lat="39.8185325" lon="8.5742244"><ele>1.0</ele><time>2026-05-02T14:03:01.475Z</time></trkpt><trkpt lat="39.8183476" lon="8.5741846"><ele>1.0</ele><time>2026-05-02T14:03:02.474Z</time></trkpt><trkpt lat="39.8181636" lon="8.5741335"><ele>1.0</ele><time>2026-05-02T14:03:03.475Z</time></trkpt><trkpt lat="39.817984" lon="8.5740721"><ele>1.0</ele><time>2026-05-02T14:03:04.474Z</time></trkpt><trkpt lat="39.8178076" lon="8.5739961"><ele>1.3333333333333333</ele><time>2026-05-02T14:03:05.474Z</time></trkpt><trkpt lat="39.8176302" lon="8.5739155"><ele>1.6666666666666665</ele><time>2026-05-02T14:03:06.474Z</time></trkpt><trkpt lat="39.8174497" lon="8.5738362"><ele>2.0</ele><time>2026-05-02T14:03:07.474Z</time></trkpt><trkpt lat="39.8172694" lon="8.5737534"><ele>2.0</ele><time>2026-05-02T14:03:08.474Z</time></trkpt><trkpt lat="39.8170913" lon="8.5736629"><ele>2.0</ele><time>2026-05-02T14:03:09.474Z</time></trkpt><trkpt lat="39.8169168" lon="8.5735683"><ele>2.0</ele><time>2026-05-02T14:03:10.474Z</time></trkpt><trkpt lat="39.8167392" lon="8.5735002"><ele>2.0</ele><time>2026-05-02T14:03:11.474Z</time></trkpt><trkpt lat="39.8165536" lon="8.5734735"><ele>2.0</ele><time>2026-05-02T14:03:12.474Z</time></trkpt><trkpt lat="39.8163652" lon="8.5734993"><ele>2.0</ele><time>2026-05-02T14:03:13.474Z</time></trkpt><trkpt lat="39.8161788" lon="8.5735703"><ele>2.0</ele><time>2026-05-02T14:03:14.473Z</time></trkpt><trkpt lat="39.816003" lon="8.5736836"><ele>2.0</ele><time>2026-05-02T14:03:15.475Z</time></trkpt><trkpt lat="39.8158501" lon="8.5738424"><ele>2.0</ele><time>2026-05-02T14:03:16.474Z</time></trkpt><trkpt lat="39.8157204" lon="8.5740417"><ele>2.333333333333333</ele><time>2026-05-02T14:03:17.473Z</time></trkpt><trkpt lat="39.8156086" lon="8.5742657"><ele>2.6666666666666665</ele><time>2026-05-02T14:03:18.474Z</time></trkpt><trkpt lat="39.8155082" lon="8.5745001"><ele>3.0</ele><time>2026-05-02T14:03:19.473Z</time></trkpt><trkpt lat="39.8154062" lon="8.5747377"><ele>3.333333333333333</ele><time>2026-05-02T14:03:20.474Z</time></trkpt><trkpt lat="39.8153017" lon="8.5749726"><ele>3.6666666666666665</ele><time>2026-05-02T14:03:21.475Z</time></trkpt><trkpt lat="39.8151975" lon="8.5752086"><ele>4.0</ele><time>2026-05-02T14:03:22.475Z</time></trkpt><trkpt lat="39.815094" lon="8.5754435"><ele>4.0</ele><time>2026-05-02T14:03:23.473Z</time></trkpt><trkpt lat="39.814991" lon="8.575677"><ele>4.0</ele><time>2026-05-02T14:03:24.474Z</time></trkpt><trkpt lat="39.8148873" lon="8.5759092"><ele>4.0</ele><time>2026-05-02T14:03:25.473Z</time></trkpt><trkpt lat="39.8147809" lon="8.5761377"><ele>3.6666666666666665</ele><time>2026-05-02T14:03:26.474Z</time></trkpt><trkpt lat="39.8146757" lon="8.5763628"><ele>3.333333333333333</ele><time>2026-05-02T14:03:27.473Z</time></trkpt><trkpt lat="39.8145712" lon="8.576583"><ele>3.0</ele><time>2026-05-02T14:03:28.474Z</time></trkpt><trkpt lat="39.8144675" lon="8.5768061"><ele>3.0</ele><time>2026-05-02T14:03:29.474Z</time></trkpt><trkpt lat="39.8143666" lon="8.5770298"><ele>3.0</ele><time>2026-05-02T14:03:30.475Z</time></trkpt><trkpt lat="39.8142646" lon="8.5772538"><ele>3.0</ele><time>2026-05-02T14:03:31.475Z</time></trkpt><trkpt lat="39.8141627" lon="8.5774748"><ele>3.0</ele><time>2026-05-02T14:03:32.474Z</time></trkpt><trkpt lat="39.8140559" lon="8.5776928"><ele>3.0</ele><time>2026-05-02T14:03:33.474Z</time></trkpt><trkpt lat="39.8139448" lon="8.5779061"><ele>3.0</ele><time>2026-05-02T14:03:34.474Z</time></trkpt><trkpt lat="39.8138245" lon="8.5781118"><ele>3.0</ele><time>2026-05-02T14:03:35.475Z</time></trkpt><trkpt lat="39.8136935" lon="8.5783063"><ele>3.0</ele><time>2026-05-02T14:03:36.474Z</time></trkpt><trkpt lat="39.8135543" lon="8.5784913"><ele>3.0</ele><time>2026-05-02T14:03:37.475Z</time></trkpt><trkpt lat="39.8134109" lon="8.5786718"><ele>2.3333333333333335</ele><time>2026-05-02T14:03:38.473Z</time></trkpt><trkpt lat="39.8132638" lon="8.5788475"><ele>1.6666666666666665</ele><time>2026-05-02T14:03:39.475Z</time></trkpt><trkpt lat="39.8131176" lon="8.5790245"><ele>1.0</ele><time>2026-05-02T14:03:40.474Z</time></trkpt><trkpt lat="39.8129726" lon="8.5792018"><ele>1.0</ele><time>2026-05-02T14:03:41.475Z</time></trkpt><trkpt lat="39.812826" lon="8.5793748"><ele>1.0</ele><time>2026-05-02T14:03:42.474Z</time></trkpt><trkpt lat="39.8126711" lon="8.579539"><ele>1.0</ele><time>2026-05-02T14:03:43.474Z</time></trkpt><trkpt lat="39.8125102" lon="8.5796909"><ele>1.3333333333333333</ele><time>2026-05-02T14:03:44.474Z</time></trkpt><trkpt lat="39.8123478" lon="8.5798357"><ele>1.6666666666666665</ele><time>2026-05-02T14:03:45.474Z</time></trkpt><trkpt lat="39.8121835" lon="8.5799797"><ele>2.0</ele><time>2026-05-02T14:03:46.474Z</time></trkpt><trkpt lat="39.8120176" lon="8.5801227"><ele>2.0</ele><time>2026-05-02T14:03:47.475Z</time></trkpt><trkpt lat="39.8118512" lon="8.580264"><ele>2.0</ele><time>2026-05-02T14:03:48.473Z</time></trkpt><trkpt lat="39.8116841" lon="8.5804079"><ele>2.0</ele><time>2026-05-02T14:03:49.474Z</time></trkpt><trkpt lat="39.811518" lon="8.5805564"><ele>1.6666666666666665</ele><time>2026-05-02T14:03:50.474Z</time></trkpt><trkpt lat="39.8113507" lon="8.5807072"><ele>1.3333333333333333</ele><time>2026-05-02T14:03:51.473Z</time></trkpt><trkpt lat="39.811185" lon="8.5808621"><ele>1.0</ele><time>2026-05-02T14:03:52.473Z</time></trkpt><trkpt lat="39.811022" lon="8.5810187"><ele>2.0</ele><time>2026-05-02T14:03:53.475Z</time></trkpt><trkpt lat="39.8108609" lon="8.5811745"><ele>3.0</ele><time>2026-05-02T14:03:54.474Z</time></trkpt><trkpt lat="39.8107024" lon="8.5813303"><ele>4.0</ele><time>2026-05-02T14:03:55.475Z</time></trkpt><trkpt lat="39.8105469" lon="8.5814858"><ele>4.0</ele><time>2026-05-02T14:03:56.474Z</time></trkpt><trkpt lat="39.8104057" lon="8.5816334"><ele>4.0</ele><time>2026-05-02T14:03:57.474Z</time></trkpt><trkpt lat="39.8102685" lon="8.5817819"><ele>4.0</ele><time>2026-05-02T14:03:58.474Z</time></trkpt><trkpt lat="39.810132" lon="8.5819181"><ele>4.0</ele><time>2026-05-02T14:03:59.473Z</time></trkpt><trkpt lat="39.8099858" lon="8.5820244"><ele>4.0</ele><time>2026-05-02T14:04:00.474Z</time></trkpt><trkpt lat="39.8098213" lon="8.5820905"><ele>4.0</ele><time>2026-05-02T14:04:01.474Z</time></trkpt><trkpt lat="39.8096484" lon="8.5821232"><ele>4.0</ele><time>2026-05-02T14:04:02.475Z</time></trkpt><trkpt lat="39.8094841" lon="8.582116"><ele>4.0</ele><time>2026-05-02T14:04:03.474Z</time></trkpt><trkpt lat="39.8093133" lon="8.582113"><ele>4.0</ele><time>2026-05-02T14:04:04.474Z</time></trkpt><trkpt lat="39.8091366" lon="8.5821108"><ele>4.0</ele><time>2026-05-02T14:04:05.474Z</time></trkpt><trkpt lat="39.8089544" lon="8.5821209"><ele>4.0</ele><time>2026-05-02T14:04:06.474Z</time></trkpt><trkpt lat="39.8087677" lon="8.5821313"><ele>4.0</ele><time>2026-05-02T14:04:07.474Z</time></trkpt><trkpt lat="39.8085799" lon="8.5821321"><ele>4.333333333333333</ele><time>2026-05-02T14:04:08.474Z</time></trkpt><trkpt lat="39.808388" lon="8.5821323"><ele>4.666666666666667</ele><time>2026-05-02T14:04:09.473Z</time></trkpt><trkpt lat="39.8081956" lon="8.5821322"><ele>5.0</ele><time>2026-05-02T14:04:10.475Z</time></trkpt><trkpt lat="39.8080013" lon="8.5821316"><ele>5.0</ele><time>2026-05-02T14:04:11.474Z</time></trkpt><trkpt lat="39.8078086" lon="8.5821344"><ele>5.0</ele><time>2026-05-02T14:04:12.474Z</time></trkpt><trkpt lat="39.8076148" lon="8.5821362"><ele>5.0</ele><time>2026-05-02T14:04:13.474Z</time></trkpt><trkpt lat="39.8074195" lon="8.5821336"><ele>4.666666666666667</ele><time>2026-05-02T14:04:14.475Z</time></trkpt><trkpt lat="39.8072243" lon="8.5821277"><ele>4.333333333333333</ele><time>2026-05-02T14:04:15.474Z</time></trkpt><trkpt lat="39.8070268" lon="8.5821239"><ele>4.0</ele><time>2026-05-02T14:04:16.475Z</time></trkpt><trkpt lat="39.8068292" lon="8.5821226"><ele>5.0</ele><time>2026-05-02T14:04:17.474Z</time></trkpt><trkpt lat="39.8066356" lon="8.5821262"><ele>6.0</ele><time>2026-05-02T14:04:18.473Z</time></trkpt><trkpt lat="39.8064429" lon="8.58213"><ele>7.0</ele><time>2026-05-02T14:04:19.474Z</time></trkpt><trkpt lat="39.8062488" lon="8.582135"><ele>7.0</ele><time>2026-05-02T14:04:20.474Z</time></trkpt><trkpt lat="39.8060563" lon="8.5821379"><ele>7.0</ele><time>2026-05-02T14:04:21.473Z</time></trkpt><trkpt lat="39.8058642" lon="8.5821361"><ele>7.0</ele><time>2026-05-02T14:04:22.473Z</time></trkpt><trkpt lat="39.8056706" lon="8.5821303"><ele>7.0</ele><time>2026-05-02T14:04:23.473Z</time></trkpt><trkpt lat="39.8054759" lon="8.582129"><ele>7.0</ele><time>2026-05-02T14:04:24.474Z</time></trkpt><trkpt lat="39.8052831" lon="8.5821321"><ele>7.0</ele><time>2026-05-02T14:04:25.474Z</time></trkpt><trkpt lat="39.8050912" lon="8.5821368"><ele>7.0</ele><time>2026-05-02T14:04:26.475Z</time></trkpt><trkpt lat="39.8048992" lon="8.5821394"><ele>7.0</ele><time>2026-05-02T14:04:27.474Z</time></trkpt><trkpt lat="39.8047048" lon="8.5821387"><ele>7.0</ele><time>2026-05-02T14:04:28.475Z</time></trkpt><trkpt lat="39.8045107" lon="8.5821371"><ele>6.0</ele><time>2026-05-02T14:04:29.475Z</time></trkpt><trkpt lat="39.8043166" lon="8.5821361"><ele>5.0</ele><time>2026-05-02T14:04:30.474Z</time></trkpt><trkpt lat="39.8041245" lon="8.5821347"><ele>4.0</ele><time>2026-05-02T14:04:31.475Z</time></trkpt><trkpt lat="39.8039341" lon="8.5821348"><ele>4.0</ele><time>2026-05-02T14:04:32.474Z</time></trkpt><trkpt lat="39.8037434" lon="8.5821359"><ele>4.0</ele><time>2026-05-02T14:04:33.473Z</time></trkpt><trkpt lat="39.8035556" lon="8.5821382"><ele>4.0</ele><time>2026-05-02T14:04:34.474Z</time></trkpt><trkpt lat="39.8033745" lon="8.5821423"><ele>4.0</ele><time>2026-05-02T14:04:35.474Z</time></trkpt><trkpt lat="39.8032068" lon="8.5821451"><ele>4.0</ele><time>2026-05-02T14:04:36.473Z</time></trkpt><trkpt lat="39.8030524" lon="8.5821478"><ele>4.0</ele><time>2026-05-02T14:04:37.474Z</time></trkpt><trkpt lat="39.8029106" lon="8.5821473"><ele>4.0</ele><time>2026-05-02T14:04:38.474Z</time></trkpt><trkpt lat="39.8027847" lon="8.5821465"><ele>4.0</ele><time>2026-05-02T14:04:39.474Z</time></trkpt><trkpt lat="39.8026673" lon="8.5821452"><ele>4.0</ele><time>2026-05-02T14:04:40.475Z</time></trkpt><trkpt lat="39.8025589" lon="8.5821422"><ele>4.0</ele><time>2026-05-02T14:04:41.475Z</time></trkpt><trkpt lat="39.8024637" lon="8.5821399"><ele>4.0</ele><time>2026-05-02T14:04:42.474Z</time></trkpt><trkpt lat="39.802385" lon="8.5821399"><ele>4.166666666666666</ele><time>2026-05-02T14:04:43.474Z</time></trkpt><trkpt lat="39.8023205" lon="8.5821421"><ele>4.333333333333333</ele><time>2026-05-02T14:04:44.473Z</time></trkpt><trkpt lat="39.8022273" lon="8.5821427"><ele>4.5</ele><time>2026-05-02T14:04:46.474Z</time></trkpt><trkpt lat="39.8021646" lon="8.5821209"><ele>4.666666666666667</ele><time>2026-05-02T14:05:02.474Z</time></trkpt><trkpt lat="39.8020868" lon="8.5821295"><ele>4.833333333333334</ele><time>2026-05-02T14:05:20.474Z</time></trkpt><trkpt lat="39.802007" lon="8.5821305"><ele>5.0</ele><time>2026-05-02T14:05:21.473Z</time></trkpt><trkpt lat="39.8019118" lon="8.5821361"><ele>5.5</ele><time>2026-05-02T14:05:22.472Z</time></trkpt><trkpt lat="39.8017907" lon="8.5821327"><ele>6.0</ele><time>2026-05-02T14:05:23.473Z</time></trkpt><trkpt lat="39.8016554" lon="8.5821306"><ele>6.5</ele><time>2026-05-02T14:05:24.474Z</time></trkpt><trkpt lat="39.8015009" lon="8.5821332"><ele>7.0</ele><time>2026-05-02T14:05:25.473Z</time></trkpt><trkpt lat="39.8013364" lon="8.5821373"><ele>7.0</ele><time>2026-05-02T14:05:26.473Z</time></trkpt><trkpt lat="39.8011538" lon="8.5821377"><ele>7.0</ele><time>2026-05-02T14:05:27.473Z</time></trkpt><trkpt lat="39.8009589" lon="8.5821418"><ele>7.0</ele><time>2026-05-02T14:05:28.473Z</time></trkpt><trkpt lat="39.8007573" lon="8.5821453"><ele>6.333333333333334</ele><time>2026-05-02T14:05:29.472Z</time></trkpt><trkpt lat="39.8005464" lon="8.5821486"><ele>5.666666666666667</ele><time>2026-05-02T14:05:30.474Z</time></trkpt><trkpt lat="39.8003325" lon="8.5821498"><ele>5.0</ele><time>2026-05-02T14:05:31.473Z</time></trkpt><trkpt lat="39.8001185" lon="8.5821521"><ele>5.0</ele><time>2026-05-02T14:05:32.473Z</time></trkpt><trkpt lat="39.7999019" lon="8.5821541"><ele>5.0</ele><time>2026-05-02T14:05:33.473Z</time></trkpt><trkpt lat="39.7996841" lon="8.5821555"><ele>5.0</ele><time>2026-05-02T14:05:34.474Z</time></trkpt><trkpt lat="39.7994674" lon="8.5821564"><ele>4.666666666666667</ele><time>2026-05-02T14:05:35.473Z</time></trkpt><trkpt lat="39.7992531" lon="8.5821567"><ele>4.333333333333333</ele><time>2026-05-02T14:05:36.472Z</time></trkpt><trkpt lat="39.7990426" lon="8.5821594"><ele>4.0</ele><time>2026-05-02T14:05:37.474Z</time></trkpt><trkpt lat="39.7988351" lon="8.5821623"><ele>4.0</ele><time>2026-05-02T14:05:38.472Z</time></trkpt><trkpt lat="39.7986298" lon="8.5821625"><ele>4.0</ele><time>2026-05-02T14:05:39.473Z</time></trkpt><trkpt lat="39.7984294" lon="8.5821651"><ele>4.0</ele><time>2026-05-02T14:05:40.472Z</time></trkpt><trkpt lat="39.7982319" lon="8.5821665"><ele>4.666666666666666</ele><time>2026-05-02T14:05:41.473Z</time></trkpt><trkpt lat="39.7980375" lon="8.5821678"><ele>5.333333333333333</ele><time>2026-05-02T14:05:42.472Z</time></trkpt><trkpt lat="39.7978445" lon="8.5821703"><ele>6.0</ele><time>2026-05-02T14:05:43.472Z</time></trkpt><trkpt lat="39.7976539" lon="8.5821715"><ele>7.0</ele><time>2026-05-02T14:05:44.472Z</time></trkpt><trkpt lat="39.7974668" lon="8.5821716"><ele>8.0</ele><time>2026-05-02T14:05:45.472Z</time></trkpt><trkpt lat="39.7972822" lon="8.5821738"><ele>9.0</ele><time>2026-05-02T14:05:46.472Z</time></trkpt><trkpt lat="39.7970967" lon="8.5821743"><ele>9.0</ele><time>2026-05-02T14:05:47.474Z</time></trkpt><trkpt lat="39.7969099" lon="8.5821754"><ele>9.0</ele><time>2026-05-02T14:05:48.474Z</time></trkpt><trkpt lat="39.7967267" lon="8.5821766"><ele>9.0</ele><time>2026-05-02T14:05:49.474Z</time></trkpt><trkpt lat="39.7965453" lon="8.5821774"><ele>9.333333333333334</ele><time>2026-05-02T14:05:50.472Z</time></trkpt><trkpt lat="39.7963616" lon="8.5821804"><ele>9.666666666666668</ele><time>2026-05-02T14:05:51.473Z</time></trkpt><trkpt lat="39.7961758" lon="8.5821825"><ele>10.0</ele><time>2026-05-02T14:05:52.474Z</time></trkpt><trkpt lat="39.7959863" lon="8.5821864"><ele>11.333333333333334</ele><time>2026-05-02T14:05:53.473Z</time></trkpt><trkpt lat="39.7957951" lon="8.5821893"><ele>12.666666666666668</ele><time>2026-05-02T14:05:54.473Z</time></trkpt><trkpt lat="39.7956066" lon="8.5821897"><ele>14.0</ele><time>2026-05-02T14:05:55.473Z</time></trkpt><trkpt lat="39.7954161" lon="8.5821883"><ele>14.0</ele><time>2026-05-02T14:05:56.474Z</time></trkpt><trkpt lat="39.795223" lon="8.582186"><ele>14.0</ele><time>2026-05-02T14:05:57.473Z</time></trkpt><trkpt lat="39.7950295" lon="8.5821865"><ele>14.0</ele><time>2026-05-02T14:05:58.473Z</time></trkpt><trkpt lat="39.7948346" lon="8.5821855"><ele>14.0</ele><time>2026-05-02T14:05:59.472Z</time></trkpt><trkpt lat="39.794647" lon="8.5821897"><ele>14.0</ele><time>2026-05-02T14:06:00.473Z</time></trkpt><trkpt lat="39.7944717" lon="8.582192"><ele>14.0</ele><time>2026-05-02T14:06:01.472Z</time></trkpt><trkpt lat="39.7942942" lon="8.5821982"><ele>12.666666666666668</ele><time>2026-05-02T14:06:02.473Z</time></trkpt><trkpt lat="39.7941075" lon="8.5822037"><ele>11.333333333333334</ele><time>2026-05-02T14:06:03.472Z</time></trkpt><trkpt lat="39.7939149" lon="8.5822082"><ele>10.0</ele><time>2026-05-02T14:06:04.474Z</time></trkpt><trkpt lat="39.7937157" lon="8.5822133"><ele>10.0</ele><time>2026-05-02T14:06:05.474Z</time></trkpt><trkpt lat="39.7935079" lon="8.5822192"><ele>10.0</ele><time>2026-05-02T14:06:06.473Z</time></trkpt><trkpt lat="39.793295" lon="8.5822275"><ele>10.0</ele><time>2026-05-02T14:06:07.474Z</time></trkpt><trkpt lat="39.793082" lon="8.5822322"><ele>9.333333333333334</ele><time>2026-05-02T14:06:08.474Z</time></trkpt><trkpt lat="39.7928706" lon="8.5822292"><ele>8.666666666666666</ele><time>2026-05-02T14:06:09.473Z</time></trkpt><trkpt lat="39.7926568" lon="8.5822237"><ele>8.0</ele><time>2026-05-02T14:06:10.474Z</time></trkpt><trkpt lat="39.7924451" lon="8.5822197"><ele>8.0</ele><time>2026-05-02T14:06:11.472Z</time></trkpt><trkpt lat="39.7922345" lon="8.582219"><ele>8.0</ele><time>2026-05-02T14:06:12.473Z</time></trkpt><trkpt lat="39.7920236" lon="8.58222"><ele>8.0</ele><time>2026-05-02T14:06:13.474Z</time></trkpt><trkpt lat="39.791813" lon="8.5822187"><ele>8.0</ele><time>2026-05-02T14:06:14.473Z</time></trkpt><trkpt lat="39.7916027" lon="8.5822171"><ele>8.0</ele><time>2026-05-02T14:06:15.474Z</time></trkpt><trkpt lat="39.7913946" lon="8.5822178"><ele>8.0</ele><time>2026-05-02T14:06:16.472Z</time></trkpt><trkpt lat="39.7911852" lon="8.5822216"><ele>8.0</ele><time>2026-05-02T14:06:17.472Z</time></trkpt><trkpt lat="39.7909784" lon="8.5822259"><ele>8.0</ele><time>2026-05-02T14:06:18.473Z</time></trkpt><trkpt lat="39.7907739" lon="8.5822317"><ele>8.0</ele><time>2026-05-02T14:06:19.473Z</time></trkpt><trkpt lat="39.790568" lon="8.582234"><ele>8.0</ele><time>2026-05-02T14:06:20.472Z</time></trkpt><trkpt lat="39.7903636" lon="8.5822321"><ele>8.0</ele><time>2026-05-02T14:06:21.472Z</time></trkpt><trkpt lat="39.7901583" lon="8.5822297"><ele>8.0</ele><time>2026-05-02T14:06:22.472Z</time></trkpt><trkpt lat="39.7899533" lon="8.5822277"><ele>8.0</ele><time>2026-05-02T14:06:23.472Z</time></trkpt><trkpt lat="39.7897478" lon="8.5822298"><ele>8.0</ele><time>2026-05-02T14:06:24.473Z</time></trkpt><trkpt lat="39.7895428" lon="8.582232"><ele>8.0</ele><time>2026-05-02T14:06:25.473Z</time></trkpt><trkpt lat="39.7893357" lon="8.5822329"><ele>8.333333333333332</ele><time>2026-05-02T14:06:26.474Z</time></trkpt><trkpt lat="39.7891304" lon="8.5822355"><ele>8.666666666666666</ele><time>2026-05-02T14:06:27.474Z</time></trkpt><trkpt lat="39.7889257" lon="8.5822384"><ele>9.0</ele><time>2026-05-02T14:06:28.472Z</time></trkpt><trkpt lat="39.7887193" lon="8.5822429"><ele>9.0</ele><time>2026-05-02T14:06:29.473Z</time></trkpt><trkpt lat="39.788515" lon="8.582246"><ele>9.0</ele><time>2026-05-02T14:06:30.474Z</time></trkpt><trkpt lat="39.78831" lon="8.5822476"><ele>9.0</ele><time>2026-05-02T14:06:31.473Z</time></trkpt><trkpt lat="39.7881062" lon="8.5822538"><ele>9.0</ele><time>2026-05-02T14:06:32.472Z</time></trkpt><trkpt lat="39.7879043" lon="8.5822543"><ele>9.0</ele><time>2026-05-02T14:06:33.472Z</time></trkpt><trkpt lat="39.7877049" lon="8.5822565"><ele>9.0</ele><time>2026-05-02T14:06:34.472Z</time></trkpt><trkpt lat="39.787505" lon="8.582256"><ele>9.333333333333334</ele><time>2026-05-02T14:06:35.473Z</time></trkpt><trkpt lat="39.7873042" lon="8.5822556"><ele>9.666666666666668</ele><time>2026-05-02T14:06:36.472Z</time></trkpt><trkpt lat="39.7871013" lon="8.5822558"><ele>10.0</ele><time>2026-05-02T14:06:37.473Z</time></trkpt><trkpt lat="39.786897" lon="8.5822575"><ele>9.666666666666668</ele><time>2026-05-02T14:06:38.473Z</time></trkpt><trkpt lat="39.7866898" lon="8.5822615"><ele>9.333333333333334</ele><time>2026-05-02T14:06:39.472Z</time></trkpt><trkpt lat="39.7864819" lon="8.5822658"><ele>9.0</ele><time>2026-05-02T14:06:40.473Z</time></trkpt><trkpt lat="39.786273" lon="8.5822664"><ele>9.0</ele><time>2026-05-02T14:06:41.473Z</time></trkpt><trkpt lat="39.786062" lon="8.5822654"><ele>9.0</ele><time>2026-05-02T14:06:42.474Z</time></trkpt><trkpt lat="39.7858503" lon="8.5822619"><ele>9.0</ele><time>2026-05-02T14:06:43.473Z</time></trkpt><trkpt lat="39.785637" lon="8.5822632"><ele>8.0</ele><time>2026-05-02T14:06:44.474Z</time></trkpt><trkpt lat="39.7854228" lon="8.5822641"><ele>7.0</ele><time>2026-05-02T14:06:45.473Z</time></trkpt><trkpt lat="39.7852105" lon="8.5822674"><ele>6.0</ele><time>2026-05-02T14:06:46.473Z</time></trkpt><trkpt lat="39.7849997" lon="8.5822688"><ele>6.0</ele><time>2026-05-02T14:06:47.472Z</time></trkpt><trkpt lat="39.784787" lon="8.5822708"><ele>6.0</ele><time>2026-05-02T14:06:48.472Z</time></trkpt><trkpt lat="39.7845734" lon="8.5822715"><ele>6.0</ele><time>2026-05-02T14:06:49.473Z</time></trkpt><trkpt lat="39.7843587" lon="8.5822743"><ele>6.0</ele><time>2026-05-02T14:06:50.474Z</time></trkpt><trkpt lat="39.784151" lon="8.5822747"><ele>6.0</ele><time>2026-05-02T14:06:51.473Z</time></trkpt><trkpt lat="39.7839505" lon="8.5822765"><ele>6.0</ele><time>2026-05-02T14:06:52.473Z</time></trkpt><trkpt lat="39.7837474" lon="8.5822762"><ele>6.0</ele><time>2026-05-02T14:06:53.474Z</time></trkpt><trkpt lat="39.7835427" lon="8.5822775"><ele>6.0</ele><time>2026-05-02T14:06:54.473Z</time></trkpt><trkpt lat="39.7833361" lon="8.5822767"><ele>6.0</ele><time>2026-05-02T14:06:55.474Z</time></trkpt><trkpt lat="39.7831274" lon="8.5822774"><ele>6.333333333333334</ele><time>2026-05-02T14:06:56.473Z</time></trkpt><trkpt lat="39.7829178" lon="8.5822811"><ele>6.666666666666667</ele><time>2026-05-02T14:06:57.473Z</time></trkpt><trkpt lat="39.7827067" lon="8.582282"><ele>7.0</ele><time>2026-05-02T14:06:58.473Z</time></trkpt><trkpt lat="39.7824966" lon="8.582282"><ele>7.0</ele><time>2026-05-02T14:06:59.473Z</time></trkpt><trkpt lat="39.7822841" lon="8.5822822"><ele>7.0</ele><time>2026-05-02T14:07:00.474Z</time></trkpt><trkpt lat="39.7820707" lon="8.5822832"><ele>7.0</ele><time>2026-05-02T14:07:01.472Z</time></trkpt><trkpt lat="39.7818582" lon="8.5822844"><ele>7.666666666666667</ele><time>2026-05-02T14:07:02.473Z</time></trkpt><trkpt lat="39.7816435" lon="8.5822828"><ele>8.333333333333334</ele><time>2026-05-02T14:07:03.474Z</time></trkpt><trkpt lat="39.7814292" lon="8.5822855"><ele>9.0</ele><time>2026-05-02T14:07:04.473Z</time></trkpt><trkpt lat="39.7812138" lon="8.5822891"><ele>8.666666666666666</ele><time>2026-05-02T14:07:05.473Z</time></trkpt><trkpt lat="39.7809988" lon="8.5822924"><ele>8.333333333333332</ele><time>2026-05-02T14:07:06.473Z</time></trkpt><trkpt lat="39.7807873" lon="8.5822929"><ele>8.0</ele><time>2026-05-02T14:07:07.472Z</time></trkpt><trkpt lat="39.7805848" lon="8.5822939"><ele>8.0</ele><time>2026-05-02T14:07:08.473Z</time></trkpt><trkpt lat="39.7803888" lon="8.5822946"><ele>8.0</ele><time>2026-05-02T14:07:09.474Z</time></trkpt><trkpt lat="39.7802035" lon="8.5822956"><ele>8.0</ele><time>2026-05-02T14:07:10.474Z</time></trkpt><trkpt lat="39.7800356" lon="8.5822961"><ele>8.333333333333332</ele><time>2026-05-02T14:07:11.472Z</time></trkpt><trkpt lat="39.7798798" lon="8.5822957"><ele>8.666666666666666</ele><time>2026-05-02T14:07:12.473Z</time></trkpt><trkpt lat="39.7797247" lon="8.5822979"><ele>9.0</ele><time>2026-05-02T14:07:13.473Z</time></trkpt><trkpt lat="39.779566" lon="8.5822982"><ele>9.0</ele><time>2026-05-02T14:07:14.473Z</time></trkpt><trkpt lat="39.7794047" lon="8.5822996"><ele>9.0</ele><time>2026-05-02T14:07:15.472Z</time></trkpt><trkpt lat="39.7792402" lon="8.5822997"><ele>9.0</ele><time>2026-05-02T14:07:16.474Z</time></trkpt><trkpt lat="39.7790705" lon="8.5823004"><ele>9.333333333333334</ele><time>2026-05-02T14:07:17.472Z</time></trkpt><trkpt lat="39.7788991" lon="8.5822985"><ele>9.666666666666668</ele><time>2026-05-02T14:07:18.472Z</time></trkpt><trkpt lat="39.7787215" lon="8.5822989"><ele>10.0</ele><time>2026-05-02T14:07:19.472Z</time></trkpt><trkpt lat="39.7785421" lon="8.5822976"><ele>10.666666666666668</ele><time>2026-05-02T14:07:20.473Z</time></trkpt><trkpt lat="39.7783641" lon="8.5823"><ele>11.333333333333334</ele><time>2026-05-02T14:07:21.472Z</time></trkpt><trkpt lat="39.7781861" lon="8.582302"><ele>12.0</ele><time>2026-05-02T14:07:22.474Z</time></trkpt><trkpt lat="39.7780081" lon="8.5823051"><ele>12.0</ele><time>2026-05-02T14:07:23.474Z</time></trkpt><trkpt lat="39.777832" lon="8.5823079"><ele>12.0</ele><time>2026-05-02T14:07:24.473Z</time></trkpt><trkpt lat="39.7776541" lon="8.58231"><ele>12.0</ele><time>2026-05-02T14:07:25.474Z</time></trkpt><trkpt lat="39.777479" lon="8.5823104"><ele>11.333333333333334</ele><time>2026-05-02T14:07:26.473Z</time></trkpt><trkpt lat="39.7773047" lon="8.5823118"><ele>10.666666666666668</ele><time>2026-05-02T14:07:27.472Z</time></trkpt><trkpt lat="39.7771323" lon="8.5823143"><ele>10.0</ele><time>2026-05-02T14:07:28.474Z</time></trkpt><trkpt lat="39.7769638" lon="8.5823171"><ele>10.666666666666668</ele><time>2026-05-02T14:07:29.474Z</time></trkpt><trkpt lat="39.7767982" lon="8.5823185"><ele>11.333333333333334</ele><time>2026-05-02T14:07:30.472Z</time></trkpt><trkpt lat="39.7766448" lon="8.5823209"><ele>12.0</ele><time>2026-05-02T14:07:31.473Z</time></trkpt><trkpt lat="39.776495" lon="8.5823252"><ele>12.0</ele><time>2026-05-02T14:07:32.473Z</time></trkpt><trkpt lat="39.7763529" lon="8.582329"><ele>12.0</ele><time>2026-05-02T14:07:33.472Z</time></trkpt><trkpt lat="39.7762137" lon="8.5823339"><ele>12.0</ele><time>2026-05-02T14:07:34.472Z</time></trkpt><trkpt lat="39.7760753" lon="8.5823383"><ele>12.0</ele><time>2026-05-02T14:07:35.474Z</time></trkpt><trkpt lat="39.775935" lon="8.5823393"><ele>11.75</ele><time>2026-05-02T14:07:36.474Z</time></trkpt><trkpt lat="39.7757915" lon="8.5823428"><ele>11.5</ele><time>2026-05-02T14:07:37.472Z</time></trkpt><trkpt lat="39.7756462" lon="8.5823481"><ele>11.25</ele><time>2026-05-02T14:07:38.473Z</time></trkpt><trkpt lat="39.7755104" lon="8.5823499"><ele>11.0</ele><time>2026-05-02T14:07:39.474Z</time></trkpt><trkpt lat="39.7753762" lon="8.5823486"><ele>11.0</ele><time>2026-05-02T14:07:40.472Z</time></trkpt><trkpt lat="39.7752407" lon="8.5823462"><ele>11.0</ele><time>2026-05-02T14:07:41.473Z</time></trkpt><trkpt lat="39.7751076" lon="8.582348"><ele>11.0</ele><time>2026-05-02T14:07:42.472Z</time></trkpt><trkpt lat="39.774978" lon="8.5823497"><ele>11.0</ele><time>2026-05-02T14:07:43.474Z</time></trkpt><trkpt lat="39.7748563" lon="8.582347"><ele>10.8</ele><time>2026-05-02T14:07:44.473Z</time></trkpt><trkpt lat="39.7747409" lon="8.5823483"><ele>10.600000000000001</ele><time>2026-05-02T14:07:45.474Z</time></trkpt><trkpt lat="39.7746327" lon="8.5823506"><ele>10.4</ele><time>2026-05-02T14:07:46.473Z</time></trkpt><trkpt lat="39.7745235" lon="8.58235"><ele>10.2</ele><time>2026-05-02T14:07:47.473Z</time></trkpt><trkpt lat="39.7744137" lon="8.5823514"><ele>10.0</ele><time>2026-05-02T14:07:48.473Z</time></trkpt><trkpt lat="39.7743086" lon="8.5823529"><ele>10.4</ele><time>2026-05-02T14:07:49.473Z</time></trkpt><trkpt lat="39.7742046" lon="8.5823537"><ele>10.8</ele><time>2026-05-02T14:07:50.472Z</time></trkpt><trkpt lat="39.7741051" lon="8.5823556"><ele>11.2</ele><time>2026-05-02T14:07:51.473Z</time></trkpt><trkpt lat="39.7740123" lon="8.5823585"><ele>11.6</ele><time>2026-05-02T14:07:52.472Z</time></trkpt><trkpt lat="39.7739247" lon="8.582358"><ele>12.0</ele><time>2026-05-02T14:07:53.474Z</time></trkpt><trkpt lat="39.773841" lon="8.582358"><ele>12.0</ele><time>2026-05-02T14:07:54.473Z</time></trkpt><trkpt lat="39.7737611" lon="8.5823592"><ele>12.0</ele><time>2026-05-02T14:07:55.474Z</time></trkpt><trkpt lat="39.773686" lon="8.5823617"><ele>12.0</ele><time>2026-05-02T14:07:56.472Z</time></trkpt><trkpt lat="39.7736203" lon="8.5823696"><ele>12.0</ele><time>2026-05-02T14:07:57.473Z</time></trkpt><trkpt lat="39.7735065" lon="8.5823648"><ele>12.0</ele><time>2026-05-02T14:07:59.473Z</time></trkpt><trkpt lat="39.7734441" lon="8.5822895"><ele>12.0</ele><time>2026-05-02T14:08:01.473Z</time></trkpt><trkpt lat="39.7734564" lon="8.5821541"><ele>11.666666666666666</ele><time>2026-05-02T14:08:03.474Z</time></trkpt><trkpt lat="39.7734595" lon="8.5820694"><ele>11.333333333333334</ele><time>2026-05-02T14:08:04.472Z</time></trkpt><trkpt lat="39.7734578" lon="8.5819752"><ele>11.0</ele><time>2026-05-02T14:08:05.474Z</time></trkpt><trkpt lat="39.7734562" lon="8.5818717"><ele>10.666666666666668</ele><time>2026-05-02T14:08:06.472Z</time></trkpt><trkpt lat="39.7734576" lon="8.5817601"><ele>10.333333333333334</ele><time>2026-05-02T14:08:07.472Z</time></trkpt><trkpt lat="39.773459" lon="8.581645"><ele>10.0</ele><time>2026-05-02T14:08:08.472Z</time></trkpt><trkpt lat="39.7734552" lon="8.5815361"><ele>10.0</ele><time>2026-05-02T14:08:09.473Z</time></trkpt><trkpt lat="39.7734523" lon="8.5814333"><ele>10.0</ele><time>2026-05-02T14:08:10.473Z</time></trkpt><trkpt lat="39.7734567" lon="8.5813389"><ele>10.0</ele><time>2026-05-02T14:08:11.473Z</time></trkpt><trkpt lat="39.7734586" lon="8.5812514"><ele>10.0</ele><time>2026-05-02T14:08:12.474Z</time></trkpt><trkpt lat="39.7734604" lon="8.5811261"><ele>10.0</ele><time>2026-05-02T14:08:14.474Z</time></trkpt><trkpt lat="39.7734895" lon="8.5810523"><ele>10.0</ele><time>2026-05-02T14:08:16.473Z</time></trkpt><trkpt lat="39.7735561" lon="8.5810447"><ele>10.0</ele><time>2026-05-02T14:08:19.473Z</time></trkpt><trkpt lat="39.7736283" lon="8.5810633"><ele>11.0</ele><time>2026-05-02T14:08:22.472Z</time></trkpt><trkpt lat="39.7737251" lon="8.5810887"><ele>11.0</ele><time>2026-05-02T14:08:24.473Z</time></trkpt><trkpt lat="39.7737945" lon="8.5810883"><ele>11.0</ele><time>2026-05-02T14:08:26.474Z</time></trkpt><trkpt lat="39.7738874" lon="8.5810678"><ele>11.0</ele><time>2026-05-02T14:08:29.472Z</time></trkpt><trkpt lat="39.7739701" lon="8.581037"><ele>11.0</ele><time>2026-05-02T14:08:32.473Z</time></trkpt></trkseg></trk></gpx>